<?xml version='1.0' encoding='UTF-8'?><gpx version="1.1" creator="JPX - https://github.com/jenetics/jpx" xmlns="http://www.topografix.com/GPX/1/1"><trk><trkseg><trkpt lat="44.92425691580912" lon="11.988470975994108"><ele>-6.0</ele><time>2026-04-18T10:02:00.999Z</time></trkpt><trkpt lat="44.92432079362276" lon="11.988478331134667"><ele>-6.0</ele><time>2026-04-18T10:02:02.999Z</time></trkpt><trkpt lat="44.924385443607186" lon="11.988532989483684"><ele>-6.0</ele><time>2026-04-18T10:02:04.999Z</time></trkpt><trkpt lat="44.92441512172207" lon="11.988678029278471"><ele>-6.0</ele><time>2026-04-18T10:02:06.999Z</time></trkpt><trkpt lat="44.92442158384377" lon="11.98881867061698"><ele>-6.0</ele><time>2026-04-18T10:02:08.999Z</time></trkpt><trkpt lat="44.92441777446922" lon="11.988952738998309"><ele>-6.0</ele><time>2026-04-18T10:02:10.999Z</time></trkpt><trkpt lat="44.924415828398665" lon="11.989083597033389"><ele>-6.166666666666667</ele><time>2026-04-18T10:02:12.999Z</time></trkpt><trkpt lat="44.92443079901829" lon="11.989204283493683"><ele>-6.333333333333334</ele><time>2026-04-18T10:02:14.999Z</time></trkpt><trkpt lat="44.92444672358889" lon="11.989315187687323"><ele>-6.5</ele><time>2026-04-18T10:02:16.999Z</time></trkpt><trkpt lat="44.92442290590023" lon="11.989414255200407"><ele>-6.666666666666667</ele><time>2026-04-18T10:02:18.999Z</time></trkpt><trkpt lat="44.924422706580714" lon="11.989539819662289"><ele>-6.833333333333334</ele><time>2026-04-18T10:02:20.999Z</time></trkpt><trkpt lat="44.92442652741481" lon="11.989671386854468"><ele>-7.0</ele><time>2026-04-18T10:02:22.999Z</time></trkpt><trkpt lat="44.92442642889686" lon="11.989806013134547"><ele>-7.000000000000001</ele><time>2026-04-18T10:02:24.999Z</time></trkpt><trkpt lat="44.924429664658305" lon="11.989939658068065"><ele>-7.0</ele><time>2026-04-18T10:02:26.999Z</time></trkpt><trkpt lat="44.924434905689985" lon="11.990061300083113"><ele>-7.0</ele><time>2026-04-18T10:02:28.999Z</time></trkpt><trkpt lat="44.92443851111084" lon="11.99017271950565"><ele>-7.0</ele><time>2026-04-18T10:02:30.999Z</time></trkpt><trkpt lat="44.92443908029018" lon="11.990295940832942"><ele>-7.000000000000001</ele><time>2026-04-18T10:02:32.999Z</time></trkpt><trkpt lat="44.92444035180489" lon="11.990427576394167"><ele>-7.0</ele><time>2026-04-18T10:02:34.999Z</time></trkpt><trkpt lat="44.92444457793976" lon="11.990557724651648"><ele>-7.0</ele><time>2026-04-18T10:02:36.999Z</time></trkpt><trkpt lat="44.9244411446914" lon="11.990681548960819"><ele>-6.999999999999999</ele><time>2026-04-18T10:02:38.999Z</time></trkpt><trkpt lat="44.9244486393051" lon="11.99079680522368"><ele>-6.999999999999999</ele><time>2026-04-18T10:02:40.999Z</time></trkpt><trkpt lat="44.92445330409498" lon="11.990925850684766"><ele>-7.0</ele><time>2026-04-18T10:02:42.999Z</time></trkpt><trkpt lat="44.924447756318855" lon="11.991054618088743"><ele>-7.0</ele><time>2026-04-18T10:02:44.999Z</time></trkpt><trkpt lat="44.92438414545992" lon="11.991159916803197"><ele>-7.0</ele><time>2026-04-18T10:02:46.999Z</time></trkpt><trkpt lat="44.924284667439295" lon="11.991177112761365"><ele>-6.999999999999999</ele><time>2026-04-18T10:02:48.999Z</time></trkpt><trkpt lat="44.92419225693592" lon="11.99117165236932"><ele>-6.999999999999999</ele><time>2026-04-18T10:02:50.999Z</time></trkpt><trkpt lat="44.9240976448991" lon="11.9911770097826"><ele>-7.0</ele><time>2026-04-18T10:02:52.999Z</time></trkpt><trkpt lat="44.924005457393925" lon="11.991178749801447"><ele>-7.0</ele><time>2026-04-18T10:02:54.999Z</time></trkpt><trkpt lat="44.92390691360252" lon="11.99116479422865"><ele>-7.0</ele><time>2026-04-18T10:02:56.999Z</time></trkpt><trkpt lat="44.92381339706443" lon="11.991165689716011"><ele>-6.999999999999999</ele><time>2026-04-18T10:02:58.999Z</time></trkpt><trkpt lat="44.923715936832025" lon="11.991169750868059"><ele>-6.999999999999999</ele><time>2026-04-18T10:03:00.999Z</time></trkpt><trkpt lat="44.92362379119241" lon="11.991183920781767"><ele>-7.0</ele><time>2026-04-18T10:03:02.999Z</time></trkpt><trkpt lat="44.92353537161752" lon="11.991180945297994"><ele>-7.0</ele><time>2026-04-18T10:03:04.999Z</time></trkpt><trkpt lat="44.92344108201119" lon="11.991182911710874"><ele>-7.0</ele><time>2026-04-18T10:03:06.999Z</time></trkpt><trkpt lat="44.92334757903207" lon="11.991201203074525"><ele>-6.999999999999999</ele><time>2026-04-18T10:03:08.999Z</time></trkpt><trkpt lat="44.92325017467359" lon="11.991209660066486"><ele>-6.999999999999999</ele><time>2026-04-18T10:03:10.999Z</time></trkpt><trkpt lat="44.92315534117928" lon="11.99120329883675"><ele>-7.0</ele><time>2026-04-18T10:03:12.999Z</time></trkpt><trkpt lat="44.92306127718307" lon="11.99120163723279"><ele>-7.0</ele><time>2026-04-18T10:03:14.999Z</time></trkpt><trkpt lat="44.92296626571748" lon="11.991195121886127"><ele>-7.0</ele><time>2026-04-18T10:03:16.999Z</time></trkpt><trkpt lat="44.92287148179225" lon="11.991194587941052"><ele>-6.999999999999999</ele><time>2026-04-18T10:03:18.999Z</time></trkpt><trkpt lat="44.92277542879143" lon="11.991182701006517"><ele>-6.999999999999999</ele><time>2026-04-18T10:03:20.999Z</time></trkpt><trkpt lat="44.92268250120635" lon="11.991183687812345"><ele>-7.0</ele><time>2026-04-18T10:03:22.999Z</time></trkpt><trkpt lat="44.92258798991505" lon="11.991196900160157"><ele>-7.0</ele><time>2026-04-18T10:03:24.999Z</time></trkpt><trkpt lat="44.92249476180482" lon="11.99120935571515"><ele>-6.8</ele><time>2026-04-18T10:03:26.999Z</time></trkpt><trkpt lat="44.92240141499583" lon="11.991212832385182"><ele>-6.6</ele><time>2026-04-18T10:03:28.999Z</time></trkpt><trkpt lat="44.922309669371494" lon="11.991217173406545"><ele>-6.3999999999999995</ele><time>2026-04-18T10:03:30.999Z</time></trkpt><trkpt lat="44.92221497907794" lon="11.991218487683847"><ele>-6.199999999999999</ele><time>2026-04-18T10:03:32.999Z</time></trkpt><trkpt lat="44.92211870191198" lon="11.991224039291941"><ele>-6.0</ele><time>2026-04-18T10:03:34.999Z</time></trkpt><trkpt lat="44.92202476044726" lon="11.991224834327873"><ele>-6.0</ele><time>2026-04-18T10:03:36.999Z</time></trkpt><trkpt lat="44.921935591107776" lon="11.991221551789788"><ele>-6.0</ele><time>2026-04-18T10:03:38.999Z</time></trkpt><trkpt lat="44.921844270524645" lon="11.991217876517414"><ele>-6.0</ele><time>2026-04-18T10:03:40.999Z</time></trkpt><trkpt lat="44.921756415146106" lon="11.991226692687386"><ele>-6.0</ele><time>2026-04-18T10:03:42.999Z</time></trkpt><trkpt lat="44.92166636264155" lon="11.991227629982408"><ele>-6.0</ele><time>2026-04-18T10:03:44.999Z</time></trkpt><trkpt lat="44.92157625906358" lon="11.99123246871578"><ele>-6.0</ele><time>2026-04-18T10:03:46.999Z</time></trkpt><trkpt lat="44.92149749929461" lon="11.991228898247758"><ele>-6.0</ele><time>2026-04-18T10:03:48.999Z</time></trkpt><trkpt lat="44.92142580602602" lon="11.991224190956585"><ele>-6.0</ele><time>2026-04-18T10:03:50.999Z</time></trkpt><trkpt lat="44.92133810374978" lon="11.991231421031848"><ele>-6.0</ele><time>2026-04-18T10:03:52.999Z</time></trkpt><trkpt lat="44.921250034484665" lon="11.991221907343524"><ele>-6.0</ele><time>2026-04-18T10:03:54.999Z</time></trkpt><trkpt lat="44.92116320171872" lon="11.99122030184372"><ele>-6.0</ele><time>2026-04-18T10:03:56.999Z</time></trkpt><trkpt lat="44.92108598586845" lon="11.99121428839714"><ele>-6.0</ele><time>2026-04-18T10:03:58.999Z</time></trkpt><trkpt lat="44.92101023075883" lon="11.991217866486464"><ele>-6.0</ele><time>2026-04-18T10:04:01.999Z</time></trkpt><trkpt lat="44.92093733461829" lon="11.991216096880182"><ele>-6.0</ele><time>2026-04-18T10:04:03.999Z</time></trkpt><trkpt lat="44.920855684147405" lon="11.991209954742892"><ele>-6.0</ele><time>2026-04-18T10:04:05.999Z</time></trkpt><trkpt lat="44.920762467798525" lon="11.99121318293451"><ele>-6.0</ele><time>2026-04-18T10:04:07.999Z</time></trkpt><trkpt lat="44.920666042612055" lon="11.991219820170755"><ele>-6.0</ele><time>2026-04-18T10:04:09.999Z</time></trkpt><trkpt lat="44.92057834186653" lon="11.991230578566652"><ele>-6.0</ele><time>2026-04-18T10:04:11.999Z</time></trkpt><trkpt lat="44.92049413851099" lon="11.991237614584211"><ele>-6.0</ele><time>2026-04-18T10:04:13.999Z</time></trkpt><trkpt lat="44.920410258007415" lon="11.991233556012906"><ele>-6.0</ele><time>2026-04-18T10:04:15.999Z</time></trkpt><trkpt lat="44.92031760566649" lon="11.991235815616855"><ele>-6.0</ele><time>2026-04-18T10:04:17.999Z</time></trkpt><trkpt lat="44.920224536190574" lon="11.991236545859453"><ele>-6.0</ele><time>2026-04-18T10:04:19.999Z</time></trkpt><trkpt lat="44.920130038992234" lon="11.991239991832147"><ele>-6.0</ele><time>2026-04-18T10:04:21.999Z</time></trkpt><trkpt lat="44.920038228056164" lon="11.991239914641891"><ele>-6.166666666666667</ele><time>2026-04-18T10:04:23.999Z</time></trkpt><trkpt lat="44.91994719038339" lon="11.991239874354935"><ele>-6.333333333333334</ele><time>2026-04-18T10:04:25.999Z</time></trkpt><trkpt lat="44.919859081947585" lon="11.991243977998678"><ele>-6.5</ele><time>2026-04-18T10:04:27.999Z</time></trkpt><trkpt lat="44.91977841074397" lon="11.991239712146305"><ele>-6.666666666666667</ele><time>2026-04-18T10:04:29.999Z</time></trkpt><trkpt lat="44.919689217066065" lon="11.991250537576036"><ele>-6.833333333333334</ele><time>2026-04-18T10:04:31.999Z</time></trkpt><trkpt lat="44.91960512334066" lon="11.991250356866999"><ele>-7.0</ele><time>2026-04-18T10:04:33.999Z</time></trkpt><trkpt lat="44.91952962481281" lon="11.991243331378277"><ele>-7.000000000000001</ele><time>2026-04-18T10:04:35.999Z</time></trkpt><trkpt lat="44.91944231375817" lon="11.991240341485783"><ele>-7.0</ele><time>2026-04-18T10:04:37.999Z</time></trkpt><trkpt lat="44.91935505597253" lon="11.991253496903678"><ele>-7.0</ele><time>2026-04-18T10:04:39.999Z</time></trkpt><trkpt lat="44.919275859607026" lon="11.991258923558739"><ele>-7.0</ele><time>2026-04-18T10:04:41.999Z</time></trkpt><trkpt lat="44.919200232204034" lon="11.991254892565422"><ele>-7.000000000000001</ele><time>2026-04-18T10:04:43.999Z</time></trkpt><trkpt lat="44.91911511472294" lon="11.991258563222052"><ele>-7.0</ele><time>2026-04-18T10:04:45.999Z</time></trkpt><trkpt lat="44.919028667615066" lon="11.991267961337417"><ele>-6.833333333333334</ele><time>2026-04-18T10:04:47.999Z</time></trkpt><trkpt lat="44.9189544461816" lon="11.991264924149672"><ele>-6.666666666666667</ele><time>2026-04-18T10:04:49.999Z</time></trkpt><trkpt lat="44.91886681764493" lon="11.991266659024099"><ele>-6.5</ele><time>2026-04-18T10:04:51.999Z</time></trkpt><trkpt lat="44.91877363182134" lon="11.991269963704122"><ele>-6.333333333333334</ele><time>2026-04-18T10:04:53.999Z</time></trkpt><trkpt lat="44.91868032369799" lon="11.991268220533932"><ele>-6.166666666666667</ele><time>2026-04-18T10:04:55.999Z</time></trkpt><trkpt lat="44.91858334547159" lon="11.991270186330867"><ele>-6.0</ele><time>2026-04-18T10:04:57.999Z</time></trkpt><trkpt lat="44.91848873338102" lon="11.991266077114268"><ele>-6.4</ele><time>2026-04-18T10:04:59.999Z</time></trkpt><trkpt lat="44.918393888453856" lon="11.991276894128227"><ele>-6.8</ele><time>2026-04-18T10:05:01.999Z</time></trkpt><trkpt lat="44.918299827976654" lon="11.991276202912726"><ele>-7.200000000000001</ele><time>2026-04-18T10:05:03.999Z</time></trkpt><trkpt lat="44.918209798508904" lon="11.991277983102655"><ele>-7.6000000000000005</ele><time>2026-04-18T10:05:05.999Z</time></trkpt><trkpt lat="44.918119145770845" lon="11.991276484900133"><ele>-8.0</ele><time>2026-04-18T10:05:07.999Z</time></trkpt><trkpt lat="44.918027320495405" lon="11.991279217033071"><ele>-8.0</ele><time>2026-04-18T10:05:09.999Z</time></trkpt><trkpt lat="44.917933839921936" lon="11.991279343081045"><ele>-8.0</ele><time>2026-04-18T10:05:11.999Z</time></trkpt><trkpt lat="44.917844283656315" lon="11.991278791386854"><ele>-8.0</ele><time>2026-04-18T10:05:13.999Z</time></trkpt><trkpt lat="44.917750416001745" lon="11.991288239834981"><ele>-8.0</ele><time>2026-04-18T10:05:15.999Z</time></trkpt><trkpt lat="44.91765940450361" lon="11.99128849346677"><ele>-8.0</ele><time>2026-04-18T10:05:17.999Z</time></trkpt><trkpt lat="44.91756813474393" lon="11.99129624155406"><ele>-7.833333333333333</ele><time>2026-04-18T10:05:19.999Z</time></trkpt><trkpt lat="44.91748259254058" lon="11.991289838150742"><ele>-7.666666666666666</ele><time>2026-04-18T10:05:21.999Z</time></trkpt><trkpt lat="44.91738948439371" lon="11.991295669292075"><ele>-7.5</ele><time>2026-04-18T10:05:23.999Z</time></trkpt><trkpt lat="44.91729894515795" lon="11.991300648225549"><ele>-7.333333333333334</ele><time>2026-04-18T10:05:25.999Z</time></trkpt><trkpt lat="44.91721389594647" lon="11.991294945830715"><ele>-7.166666666666667</ele><time>2026-04-18T10:05:27.999Z</time></trkpt><trkpt lat="44.917121643540646" lon="11.99128882657047"><ele>-7.0</ele><time>2026-04-18T10:05:29.999Z</time></trkpt><trkpt lat="44.91702731216737" lon="11.991289838753664"><ele>-7.0</ele><time>2026-04-18T10:05:31.999Z</time></trkpt><trkpt lat="44.91693626872431" lon="11.991290509656853"><ele>-6.999999999999999</ele><time>2026-04-18T10:05:33.999Z</time></trkpt><trkpt lat="44.91684282291896" lon="11.991287826856142"><ele>-6.999999999999999</ele><time>2026-04-18T10:05:35.999Z</time></trkpt><trkpt lat="44.91675020424289" lon="11.991297727980797"><ele>-7.0</ele><time>2026-04-18T10:05:37.999Z</time></trkpt><trkpt lat="44.91665664620383" lon="11.991301833571285"><ele>-7.0</ele><time>2026-04-18T10:05:39.999Z</time></trkpt><trkpt lat="44.91656659563975" lon="11.991292811354759"><ele>-6.8</ele><time>2026-04-18T10:05:41.999Z</time></trkpt><trkpt lat="44.916473685008" lon="11.991298475010918"><ele>-6.6</ele><time>2026-04-18T10:05:43.999Z</time></trkpt><trkpt lat="44.91638450336807" lon="11.991298346404163"><ele>-6.3999999999999995</ele><time>2026-04-18T10:05:45.999Z</time></trkpt><trkpt lat="44.91628969604514" lon="11.991301147543876"><ele>-6.199999999999999</ele><time>2026-04-18T10:05:47.999Z</time></trkpt><trkpt lat="44.916195321466276" lon="11.991301779090685"><ele>-6.0</ele><time>2026-04-18T10:05:49.999Z</time></trkpt><trkpt lat="44.916106902318795" lon="11.991303119992619"><ele>-6.0</ele><time>2026-04-18T10:05:51.999Z</time></trkpt><trkpt lat="44.91602304445808" lon="11.991306116028444"><ele>-6.0</ele><time>2026-04-18T10:05:53.999Z</time></trkpt><trkpt lat="44.91592692892522" lon="11.991307114612223"><ele>-6.0</ele><time>2026-04-18T10:05:55.999Z</time></trkpt><trkpt lat="44.91583438487409" lon="11.991296952898661"><ele>-6.0</ele><time>2026-04-18T10:05:57.999Z</time></trkpt><trkpt lat="44.91574285936426" lon="11.99130451114562"><ele>-6.0</ele><time>2026-04-18T10:06:00Z</time></trkpt><trkpt lat="44.91564849482942" lon="11.991309714870178"><ele>-5.833333333333333</ele><time>2026-04-18T10:06:02Z</time></trkpt><trkpt lat="44.91556166336564" lon="11.991315007457297"><ele>-5.666666666666667</ele><time>2026-04-18T10:06:04Z</time></trkpt><trkpt lat="44.915477380697816" lon="11.991312330342165"><ele>-5.5</ele><time>2026-04-18T10:06:06Z</time></trkpt><trkpt lat="44.915385825195244" lon="11.991312317861714"><ele>-5.333333333333334</ele><time>2026-04-18T10:06:08Z</time></trkpt><trkpt lat="44.91529421907011" lon="11.991318593707225"><ele>-5.166666666666667</ele><time>2026-04-18T10:06:10Z</time></trkpt><trkpt lat="44.91520020265242" lon="11.991312781033985"><ele>-5.0</ele><time>2026-04-18T10:06:12Z</time></trkpt><trkpt lat="44.91511833091291" lon="11.991314776056823"><ele>-4.8</ele><time>2026-04-18T10:06:14Z</time></trkpt><trkpt lat="44.915028132165524" lon="11.991321204944388"><ele>-4.6</ele><time>2026-04-18T10:06:16Z</time></trkpt><trkpt lat="44.91493569766846" lon="11.991311099113933"><ele>-4.4</ele><time>2026-04-18T10:06:18Z</time></trkpt><trkpt lat="44.91484391908426" lon="11.991311281463757"><ele>-4.2</ele><time>2026-04-18T10:06:20Z</time></trkpt><trkpt lat="44.9147538507599" lon="11.991318315417105"><ele>-4.0</ele><time>2026-04-18T10:06:22Z</time></trkpt><trkpt lat="44.91465968120691" lon="11.991320595252239"><ele>-3.9999999999999996</ele><time>2026-04-18T10:06:24Z</time></trkpt><trkpt lat="44.914569687774495" lon="11.991318304569502"><ele>-4.0</ele><time>2026-04-18T10:06:26Z</time></trkpt><trkpt lat="44.914479374296874" lon="11.991308271275853"><ele>-4.0</ele><time>2026-04-18T10:06:28Z</time></trkpt><trkpt lat="44.91438936686609" lon="11.991322291891443"><ele>-4.0</ele><time>2026-04-18T10:06:30Z</time></trkpt><trkpt lat="44.9143161408775" lon="11.991323246561878"><ele>-3.9999999999999996</ele><time>2026-04-18T10:06:32Z</time></trkpt><trkpt lat="44.91424228977893" lon="11.991326471332107"><ele>-4.0</ele><time>2026-04-18T10:06:34Z</time></trkpt><trkpt lat="44.91417329861815" lon="11.991330702788355"><ele>-4.166666666666666</ele><time>2026-04-18T10:06:36Z</time></trkpt><trkpt lat="44.91409418227713" lon="11.991335957046442"><ele>-4.333333333333333</ele><time>2026-04-18T10:06:38Z</time></trkpt><trkpt lat="44.91400550443098" lon="11.991328080835572"><ele>-4.5</ele><time>2026-04-18T10:06:40Z</time></trkpt><trkpt lat="44.91391557747916" lon="11.991327316116802"><ele>-4.666666666666667</ele><time>2026-04-18T10:06:42Z</time></trkpt><trkpt lat="44.91382930611339" lon="11.991329998884725"><ele>-4.833333333333334</ele><time>2026-04-18T10:06:44Z</time></trkpt><trkpt lat="44.9137411785079" lon="11.991333397225134"><ele>-5.0</ele><time>2026-04-18T10:06:46Z</time></trkpt><trkpt lat="44.91364738465676" lon="11.991333559052348"><ele>-5.0</ele><time>2026-04-18T10:06:48Z</time></trkpt><trkpt lat="44.91355564301085" lon="11.991339162356567"><ele>-5.0</ele><time>2026-04-18T10:06:50Z</time></trkpt><trkpt lat="44.913458887705886" lon="11.9913365935753"><ele>-5.0</ele><time>2026-04-18T10:06:52Z</time></trkpt><trkpt lat="44.913369939711174" lon="11.991332484068213"><ele>-5.0</ele><time>2026-04-18T10:06:54Z</time></trkpt><trkpt lat="44.91328329999437" lon="11.991329983133372"><ele>-5.0</ele><time>2026-04-18T10:06:56Z</time></trkpt><trkpt lat="44.913200982433175" lon="11.99132826020156"><ele>-5.0</ele><time>2026-04-18T10:06:58Z</time></trkpt><trkpt lat="44.91310831927377" lon="11.991324970463284"><ele>-5.0</ele><time>2026-04-18T10:07:00Z</time></trkpt><trkpt lat="44.91302088408193" lon="11.99131970818724"><ele>-5.0</ele><time>2026-04-18T10:07:02Z</time></trkpt><trkpt lat="44.91293383657745" lon="11.991314805342467"><ele>-5.0</ele><time>2026-04-18T10:07:04Z</time></trkpt><trkpt lat="44.91284577079904" lon="11.991318491577829"><ele>-5.0</ele><time>2026-04-18T10:07:06Z</time></trkpt><trkpt lat="44.91275391641826" lon="11.99130858383399"><ele>-5.0</ele><time>2026-04-18T10:07:08Z</time></trkpt><trkpt lat="44.91266226094611" lon="11.991308479351767"><ele>-5.0</ele><time>2026-04-18T10:07:10Z</time></trkpt><trkpt lat="44.91257100321895" lon="11.991301465534294"><ele>-5.2</ele><time>2026-04-18T10:07:12Z</time></trkpt><trkpt lat="44.912480143513854" lon="11.99129348423879"><ele>-5.4</ele><time>2026-04-18T10:07:14Z</time></trkpt><trkpt lat="44.91239293972042" lon="11.991289680536875"><ele>-5.6</ele><time>2026-04-18T10:07:16Z</time></trkpt><trkpt lat="44.912296824897304" lon="11.991287955906287"><ele>-5.8</ele><time>2026-04-18T10:07:18Z</time></trkpt><trkpt lat="44.912200114778436" lon="11.991278419907538"><ele>-6.0</ele><time>2026-04-18T10:07:20Z</time></trkpt><trkpt lat="44.91210827067533" lon="11.99127363184413"><ele>-6.0</ele><time>2026-04-18T10:07:22Z</time></trkpt><trkpt lat="44.91201519321684" lon="11.991270248455587"><ele>-6.0</ele><time>2026-04-18T10:07:24Z</time></trkpt><trkpt lat="44.911923224022" lon="11.991266276118948"><ele>-6.0</ele><time>2026-04-18T10:07:26Z</time></trkpt><trkpt lat="44.911831325053996" lon="11.991255253422038"><ele>-6.0</ele><time>2026-04-18T10:07:28Z</time></trkpt><trkpt lat="44.91173847734261" lon="11.991251706719535"><ele>-6.0</ele><time>2026-04-18T10:07:30Z</time></trkpt><trkpt lat="44.91164328342813" lon="11.991246834881238"><ele>-6.199999999999999</ele><time>2026-04-18T10:07:32Z</time></trkpt><trkpt lat="44.91154942541565" lon="11.99124109101083"><ele>-6.3999999999999995</ele><time>2026-04-18T10:07:34Z</time></trkpt><trkpt lat="44.911456637009145" lon="11.991230878964366"><ele>-6.6</ele><time>2026-04-18T10:07:36Z</time></trkpt><trkpt lat="44.91136791401035" lon="11.991224358737162"><ele>-6.8</ele><time>2026-04-18T10:07:38Z</time></trkpt><trkpt lat="44.911275213140335" lon="11.991219994601893"><ele>-7.0</ele><time>2026-04-18T10:07:40Z</time></trkpt><trkpt lat="44.91118452111918" lon="11.991216750929707"><ele>-7.0</ele><time>2026-04-18T10:07:42Z</time></trkpt><trkpt lat="44.91108855064106" lon="11.991211789051427"><ele>-6.999999999999999</ele><time>2026-04-18T10:07:44Z</time></trkpt><trkpt lat="44.91099699755813" lon="11.991201131716522"><ele>-6.999999999999999</ele><time>2026-04-18T10:07:46Z</time></trkpt><trkpt lat="44.910906756590386" lon="11.991193425144719"><ele>-7.0</ele><time>2026-04-18T10:07:48Z</time></trkpt><trkpt lat="44.91081574345646" lon="11.991184352117845"><ele>-7.0</ele><time>2026-04-18T10:07:50Z</time></trkpt><trkpt lat="44.910724444591594" lon="11.991182862246985"><ele>-7.199999999999999</ele><time>2026-04-18T10:07:52Z</time></trkpt><trkpt lat="44.910631416004556" lon="11.991177156198912"><ele>-7.3999999999999995</ele><time>2026-04-18T10:07:54Z</time></trkpt><trkpt lat="44.91053688579841" lon="11.991172972874466"><ele>-7.6000000000000005</ele><time>2026-04-18T10:07:56Z</time></trkpt><trkpt lat="44.910441992567904" lon="11.99117141968384"><ele>-7.800000000000001</ele><time>2026-04-18T10:07:58Z</time></trkpt><trkpt lat="44.910351057962146" lon="11.991159001113818"><ele>-8.0</ele><time>2026-04-18T10:08:00Z</time></trkpt><trkpt lat="44.91025920520846" lon="11.991156430854733"><ele>-8.0</ele><time>2026-04-18T10:08:02Z</time></trkpt><trkpt lat="44.91016375728147" lon="11.991149454835892"><ele>-8.0</ele><time>2026-04-18T10:08:04Z</time></trkpt><trkpt lat="44.910071662754376" lon="11.991144519092092"><ele>-8.0</ele><time>2026-04-18T10:08:06Z</time></trkpt><trkpt lat="44.909980491240525" lon="11.991136432528778"><ele>-8.0</ele><time>2026-04-18T10:08:08Z</time></trkpt><trkpt lat="44.90988581069298" lon="11.991132190386491"><ele>-8.0</ele><time>2026-04-18T10:08:10Z</time></trkpt><trkpt lat="44.909791323562864" lon="11.99112411492052"><ele>-7.6000000000000005</ele><time>2026-04-18T10:08:12Z</time></trkpt><trkpt lat="44.9096996955633" lon="11.99111568774832"><ele>-7.200000000000001</ele><time>2026-04-18T10:08:14Z</time></trkpt><trkpt lat="44.90961227781063" lon="11.99111532924455"><ele>-6.8</ele><time>2026-04-18T10:08:16Z</time></trkpt><trkpt lat="44.909521972452445" lon="11.991106309058837"><ele>-6.4</ele><time>2026-04-18T10:08:18Z</time></trkpt><trkpt lat="44.90942899251658" lon="11.991110328221293"><ele>-6.0</ele><time>2026-04-18T10:08:20Z</time></trkpt><trkpt lat="44.90934197143637" lon="11.9910940963835"><ele>-6.0</ele><time>2026-04-18T10:08:22Z</time></trkpt><trkpt lat="44.90924896097888" lon="11.991098528052916"><ele>-6.0</ele><time>2026-04-18T10:08:24Z</time></trkpt><trkpt lat="44.909159143567955" lon="11.991088393463725"><ele>-6.0</ele><time>2026-04-18T10:08:26Z</time></trkpt><trkpt lat="44.90907768071745" lon="11.991080323318076"><ele>-6.0</ele><time>2026-04-18T10:08:28Z</time></trkpt><trkpt lat="44.90900242165816" lon="11.991084942199475"><ele>-6.0</ele><time>2026-04-18T10:08:30Z</time></trkpt><trkpt lat="44.90893329184472" lon="11.991080946233708"><ele>-6.0</ele><time>2026-04-18T10:08:32Z</time></trkpt><trkpt lat="44.908306296666886" lon="11.990979336907785"><ele>-5.6</ele><time>2026-04-18T10:10:30Z</time></trkpt><trkpt lat="44.90827308116546" lon="11.990840042859803"><ele>-5.199999999999999</ele><time>2026-04-18T10:10:33Z</time></trkpt><trkpt lat="44.908255317415275" lon="11.99071010041424"><ele>-4.800000000000001</ele><time>2026-04-18T10:10:35Z</time></trkpt><trkpt lat="44.90823144853412" lon="11.990578002007801"><ele>-4.4</ele><time>2026-04-18T10:10:37Z</time></trkpt><trkpt lat="44.90820623076482" lon="11.990446375819962"><ele>-4.0</ele><time>2026-04-18T10:10:39Z</time></trkpt><trkpt lat="44.90818246824772" lon="11.990313045191524"><ele>-4.0</ele><time>2026-04-18T10:10:41Z</time></trkpt><trkpt lat="44.908150356572264" lon="11.990179757912525"><ele>-4.0</ele><time>2026-04-18T10:10:43Z</time></trkpt><trkpt lat="44.90812836953717" lon="11.990046616520287"><ele>-4.0</ele><time>2026-04-18T10:10:45Z</time></trkpt><trkpt lat="44.90810949796348" lon="11.98991304118679"><ele>-4.0</ele><time>2026-04-18T10:10:47Z</time></trkpt><trkpt lat="44.90808650132056" lon="11.989776507314778"><ele>-4.0</ele><time>2026-04-18T10:10:49Z</time></trkpt><trkpt lat="44.908069843576364" lon="11.98965946390892"><ele>-4.0</ele><time>2026-04-18T10:10:51Z</time></trkpt><trkpt lat="44.90805083212081" lon="11.989538883930193"><ele>-4.0</ele><time>2026-04-18T10:10:53Z</time></trkpt><trkpt lat="44.908025525798244" lon="11.989421683073624"><ele>-4.0</ele><time>2026-04-18T10:10:55Z</time></trkpt><trkpt lat="44.90800510289521" lon="11.98929603850122"><ele>-4.0</ele><time>2026-04-18T10:10:57Z</time></trkpt><trkpt lat="44.907980060043215" lon="11.989167525785012"><ele>-4.0</ele><time>2026-04-18T10:10:59Z</time></trkpt><trkpt lat="44.90796428875253" lon="11.989036588437642"><ele>-4.2</ele><time>2026-04-18T10:11:01Z</time></trkpt><trkpt lat="44.907933691555165" lon="11.988910389009058"><ele>-4.4</ele><time>2026-04-18T10:11:03Z</time></trkpt><trkpt lat="44.90791250546007" lon="11.988773651874011"><ele>-4.6</ele><time>2026-04-18T10:11:05Z</time></trkpt><trkpt lat="44.90788898051166" lon="11.98863894074527"><ele>-4.8</ele><time>2026-04-18T10:11:07Z</time></trkpt><trkpt lat="44.907864444167465" lon="11.988509448471355"><ele>-5.0</ele><time>2026-04-18T10:11:09Z</time></trkpt><trkpt lat="44.907839418395525" lon="11.988383182628457"><ele>-5.0</ele><time>2026-04-18T10:11:11Z</time></trkpt><trkpt lat="44.907823042317325" lon="11.988254907854301"><ele>-5.0</ele><time>2026-04-18T10:11:13Z</time></trkpt><trkpt lat="44.90780111981377" lon="11.988132953115192"><ele>-5.0</ele><time>2026-04-18T10:11:15Z</time></trkpt><trkpt lat="44.907784021885085" lon="11.988011262850296"><ele>-5.0</ele><time>2026-04-18T10:11:17Z</time></trkpt><trkpt lat="44.907759330758566" lon="11.987884070738064"><ele>-5.0</ele><time>2026-04-18T10:11:19Z</time></trkpt><trkpt lat="44.90773660819615" lon="11.987756180235532"><ele>-5.0</ele><time>2026-04-18T10:11:21Z</time></trkpt><trkpt lat="44.907717799164054" lon="11.98762566574421"><ele>-5.0</ele><time>2026-04-18T10:11:23Z</time></trkpt><trkpt lat="44.90769550520934" lon="11.9874972087167"><ele>-5.0</ele><time>2026-04-18T10:11:25Z</time></trkpt><trkpt lat="44.90766757785108" lon="11.987368923201107"><ele>-5.0</ele><time>2026-04-18T10:11:27Z</time></trkpt><trkpt lat="44.90764879806328" lon="11.987243877982683"><ele>-5.0</ele><time>2026-04-18T10:11:29Z</time></trkpt><trkpt lat="44.90762733582484" lon="11.98711615792355"><ele>-5.0</ele><time>2026-04-18T10:11:31Z</time></trkpt><trkpt lat="44.90760181073133" lon="11.986991648027164"><ele>-5.0</ele><time>2026-04-18T10:11:33Z</time></trkpt><trkpt lat="44.90757983477099" lon="11.98686118893584"><ele>-5.0</ele><time>2026-04-18T10:11:35Z</time></trkpt><trkpt lat="44.907559685107586" lon="11.986729309529064"><ele>-5.0</ele><time>2026-04-18T10:11:37Z</time></trkpt><trkpt lat="44.907532068537435" lon="11.986600324168066"><ele>-5.0</ele><time>2026-04-18T10:11:39Z</time></trkpt><trkpt lat="44.90751056440296" lon="11.986471933663095"><ele>-5.0</ele><time>2026-04-18T10:11:41Z</time></trkpt><trkpt lat="44.907488557959766" lon="11.986342975224419"><ele>-5.0</ele><time>2026-04-18T10:11:43Z</time></trkpt><trkpt lat="44.90746431722746" lon="11.986212214287882"><ele>-5.0</ele><time>2026-04-18T10:11:45Z</time></trkpt><trkpt lat="44.90744238897441" lon="11.98608463561545"><ele>-5.0</ele><time>2026-04-18T10:11:47Z</time></trkpt><trkpt lat="44.90742248727406" lon="11.985956376219365"><ele>-5.0</ele><time>2026-04-18T10:11:49Z</time></trkpt><trkpt lat="44.907398718516966" lon="11.985825488692774"><ele>-5.0</ele><time>2026-04-18T10:11:51Z</time></trkpt><trkpt lat="44.9073760639297" lon="11.98569076049062"><ele>-5.0</ele><time>2026-04-18T10:11:53Z</time></trkpt><trkpt lat="44.90735448016305" lon="11.985560214015743"><ele>-5.0</ele><time>2026-04-18T10:11:55Z</time></trkpt><trkpt lat="44.907330332973075" lon="11.985426354315425"><ele>-5.0</ele><time>2026-04-18T10:11:57Z</time></trkpt><trkpt lat="44.90730830809387" lon="11.985295230863404"><ele>-5.0</ele><time>2026-04-18T10:11:59Z</time></trkpt><trkpt lat="44.90728321398673" lon="11.985161654105925"><ele>-5.0</ele><time>2026-04-18T10:12:01Z</time></trkpt><trkpt lat="44.907261398902484" lon="11.98503181328085"><ele>-5.0</ele><time>2026-04-18T10:12:03Z</time></trkpt><trkpt lat="44.90723830983423" lon="11.984903590892195"><ele>-5.0</ele><time>2026-04-18T10:12:05Z</time></trkpt><trkpt lat="44.90721814103979" lon="11.984770207138583"><ele>-5.0</ele><time>2026-04-18T10:12:07Z</time></trkpt><trkpt lat="44.907196665590284" lon="11.984635337114748"><ele>-5.0</ele><time>2026-04-18T10:12:09Z</time></trkpt><trkpt lat="44.90716759192424" lon="11.984502299643324"><ele>-5.0</ele><time>2026-04-18T10:12:11Z</time></trkpt><trkpt lat="44.90714209130331" lon="11.984370746149345"><ele>-5.0</ele><time>2026-04-18T10:12:13Z</time></trkpt><trkpt lat="44.90711634570501" lon="11.984240384458165"><ele>-5.0</ele><time>2026-04-18T10:12:15Z</time></trkpt><trkpt lat="44.907095736228676" lon="11.984106274239668"><ele>-5.0</ele><time>2026-04-18T10:12:17Z</time></trkpt><trkpt lat="44.907073872121444" lon="11.983973323912537"><ele>-5.0</ele><time>2026-04-18T10:12:19Z</time></trkpt><trkpt lat="44.90705304028351" lon="11.983838540995656"><ele>-5.0</ele><time>2026-04-18T10:12:21Z</time></trkpt><trkpt lat="44.90702900985174" lon="11.983704963859875"><ele>-5.0</ele><time>2026-04-18T10:12:23Z</time></trkpt><trkpt lat="44.90700413840532" lon="11.98357878598105"><ele>-5.0</ele><time>2026-04-18T10:12:25Z</time></trkpt><trkpt lat="44.90697994138339" lon="11.98345677237241"><ele>-5.0</ele><time>2026-04-18T10:12:27Z</time></trkpt><trkpt lat="44.9069587108299" lon="11.983322215917774"><ele>-5.0</ele><time>2026-04-18T10:12:29Z</time></trkpt><trkpt lat="44.90693425843465" lon="11.98319033295134"><ele>-5.0</ele><time>2026-04-18T10:12:31Z</time></trkpt><trkpt lat="44.90690877564538" lon="11.983055501345733"><ele>-5.0</ele><time>2026-04-18T10:12:33Z</time></trkpt><trkpt lat="44.90688599963779" lon="11.982928102603957"><ele>-5.0</ele><time>2026-04-18T10:12:35Z</time></trkpt><trkpt lat="44.90686514584962" lon="11.982797459770303"><ele>-5.0</ele><time>2026-04-18T10:12:37Z</time></trkpt><trkpt lat="44.906838684563574" lon="11.982667632218964"><ele>-5.0</ele><time>2026-04-18T10:12:39Z</time></trkpt><trkpt lat="44.90681780725239" lon="11.98253752294139"><ele>-5.2</ele><time>2026-04-18T10:12:41Z</time></trkpt><trkpt lat="44.90679316855219" lon="11.98240551764179"><ele>-5.4</ele><time>2026-04-18T10:12:43Z</time></trkpt><trkpt lat="44.906773330684125" lon="11.98227432500814"><ele>-5.6</ele><time>2026-04-18T10:12:45Z</time></trkpt><trkpt lat="44.90674708901512" lon="11.982148233675431"><ele>-5.8</ele><time>2026-04-18T10:12:47Z</time></trkpt><trkpt lat="44.9067273918683" lon="11.982018659179921"><ele>-6.0</ele><time>2026-04-18T10:12:49Z</time></trkpt><trkpt lat="44.906705170602365" lon="11.981892180076615"><ele>-6.0</ele><time>2026-04-18T10:12:51Z</time></trkpt><trkpt lat="44.90667867732962" lon="11.981762402356079"><ele>-6.0</ele><time>2026-04-18T10:12:53Z</time></trkpt><trkpt lat="44.90665722955909" lon="11.981634781293819"><ele>-6.0</ele><time>2026-04-18T10:12:55Z</time></trkpt><trkpt lat="44.906630640526174" lon="11.981515759742114"><ele>-6.0</ele><time>2026-04-18T10:12:57Z</time></trkpt><trkpt lat="44.90660808485331" lon="11.98138857882546"><ele>-6.0</ele><time>2026-04-18T10:12:59Z</time></trkpt><trkpt lat="44.90658855992608" lon="11.981261897251839"><ele>-5.8</ele><time>2026-04-18T10:13:01Z</time></trkpt><trkpt lat="44.90656793466994" lon="11.98112952592804"><ele>-5.6</ele><time>2026-04-18T10:13:03Z</time></trkpt><trkpt lat="44.906541096224935" lon="11.981002761649123"><ele>-5.4</ele><time>2026-04-18T10:13:05Z</time></trkpt><trkpt lat="44.90652007380829" lon="11.980872157236382"><ele>-5.2</ele><time>2026-04-18T10:13:07Z</time></trkpt><trkpt lat="44.906497154406956" lon="11.98074139039288"><ele>-5.0</ele><time>2026-04-18T10:13:09Z</time></trkpt><trkpt lat="44.906473373033585" lon="11.9806101767934"><ele>-5.0</ele><time>2026-04-18T10:13:11Z</time></trkpt><trkpt lat="44.90645155332839" lon="11.980480305212952"><ele>-5.0</ele><time>2026-04-18T10:13:13Z</time></trkpt><trkpt lat="44.90641989387972" lon="11.980354248767625"><ele>-5.0</ele><time>2026-04-18T10:13:15Z</time></trkpt><trkpt lat="44.90640648309254" lon="11.980216335789695"><ele>-5.0</ele><time>2026-04-18T10:13:17Z</time></trkpt><trkpt lat="44.90638573094356" lon="11.980083648097537"><ele>-5.0</ele><time>2026-04-18T10:13:19Z</time></trkpt><trkpt lat="44.90635918262755" lon="11.979954577020969"><ele>-5.0</ele><time>2026-04-18T10:13:21Z</time></trkpt><trkpt lat="44.90633773120177" lon="11.979823337257443"><ele>-5.0</ele><time>2026-04-18T10:13:23Z</time></trkpt><trkpt lat="44.90631281626416" lon="11.979692920039108"><ele>-5.0</ele><time>2026-04-18T10:13:25Z</time></trkpt><trkpt lat="44.90628711853275" lon="11.979565270331577"><ele>-5.0</ele><time>2026-04-18T10:13:27Z</time></trkpt><trkpt lat="44.906268280345564" lon="11.979434113917115"><ele>-5.0</ele><time>2026-04-18T10:13:29Z</time></trkpt><trkpt lat="44.906245382717536" lon="11.979306158181622"><ele>-5.2</ele><time>2026-04-18T10:13:31Z</time></trkpt><trkpt lat="44.906218709367714" lon="11.979175403457333"><ele>-5.4</ele><time>2026-04-18T10:13:33Z</time></trkpt><trkpt lat="44.90618818767958" lon="11.979049456135684"><ele>-5.6</ele><time>2026-04-18T10:13:35Z</time></trkpt><trkpt lat="44.90616623298351" lon="11.978918561653414"><ele>-5.8</ele><time>2026-04-18T10:13:37Z</time></trkpt><trkpt lat="44.906139654773085" lon="11.978785243563188"><ele>-6.0</ele><time>2026-04-18T10:13:39Z</time></trkpt><trkpt lat="44.906112467018254" lon="11.978654838546259"><ele>-6.0</ele><time>2026-04-18T10:13:41Z</time></trkpt><trkpt lat="44.90609287456948" lon="11.97852613735617"><ele>-6.0</ele><time>2026-04-18T10:13:43Z</time></trkpt><trkpt lat="44.90606933710478" lon="11.978399135703773"><ele>-6.0</ele><time>2026-04-18T10:13:45Z</time></trkpt><trkpt lat="44.90604778044401" lon="11.978272269896973"><ele>-6.0</ele><time>2026-04-18T10:13:47Z</time></trkpt><trkpt lat="44.90602664177188" lon="11.978148339103907"><ele>-6.0</ele><time>2026-04-18T10:13:49Z</time></trkpt><trkpt lat="44.906005890797516" lon="11.978019552543827"><ele>-6.0</ele><time>2026-04-18T10:13:51Z</time></trkpt><trkpt lat="44.905981323253364" lon="11.977894429604712"><ele>-6.0</ele><time>2026-04-18T10:13:53Z</time></trkpt><trkpt lat="44.9059639235795" lon="11.97775776241755"><ele>-6.0</ele><time>2026-04-18T10:13:55Z</time></trkpt><trkpt lat="44.905938603455624" lon="11.97762670382277"><ele>-6.0</ele><time>2026-04-18T10:13:57Z</time></trkpt><trkpt lat="44.90591915942232" lon="11.977492859408489"><ele>-6.0</ele><time>2026-04-18T10:13:59Z</time></trkpt><trkpt lat="44.90589548142453" lon="11.977363995495393"><ele>-5.666666666666667</ele><time>2026-04-18T10:14:01Z</time></trkpt><trkpt lat="44.905872211741126" lon="11.977229567860295"><ele>-5.333333333333333</ele><time>2026-04-18T10:14:03Z</time></trkpt><trkpt lat="44.90584516222268" lon="11.97710281025612"><ele>-5.0</ele><time>2026-04-18T10:14:05Z</time></trkpt><trkpt lat="44.905826149344755" lon="11.976986367793092"><ele>-4.666666666666666</ele><time>2026-04-18T10:14:07Z</time></trkpt><trkpt lat="44.90580093795672" lon="11.976876440603434"><ele>-4.333333333333333</ele><time>2026-04-18T10:14:09Z</time></trkpt><trkpt lat="44.905784903594665" lon="11.976768131832204"><ele>-4.0</ele><time>2026-04-18T10:14:11Z</time></trkpt><trkpt lat="44.90584632916177" lon="11.976689470074215"><ele>-3.9999999999999996</ele><time>2026-04-18T10:14:13Z</time></trkpt><trkpt lat="44.90593090701771" lon="11.976683171166174"><ele>-4.0</ele><time>2026-04-18T10:14:15Z</time></trkpt><trkpt lat="44.90596822714883" lon="11.976585471272138"><ele>-4.0</ele><time>2026-04-18T10:14:17Z</time></trkpt><trkpt lat="44.905946783494656" lon="11.976461283821699"><ele>-4.0</ele><time>2026-04-18T10:14:19Z</time></trkpt><trkpt lat="44.9059223072567" lon="11.976334523037035"><ele>-3.9999999999999996</ele><time>2026-04-18T10:14:21Z</time></trkpt><trkpt lat="44.90589717673932" lon="11.976195041541104"><ele>-4.0</ele><time>2026-04-18T10:14:23Z</time></trkpt><trkpt lat="44.90587040920621" lon="11.9760610486407"><ele>-4.0</ele><time>2026-04-18T10:14:25Z</time></trkpt><trkpt lat="44.905829946190075" lon="11.975937815426867"><ele>-4.0</ele><time>2026-04-18T10:14:27Z</time></trkpt><trkpt lat="44.90581021830107" lon="11.975806307671306"><ele>-4.0</ele><time>2026-04-18T10:14:29Z</time></trkpt><trkpt lat="44.905800228186415" lon="11.975665524505626"><ele>-4.0</ele><time>2026-04-18T10:14:31Z</time></trkpt><trkpt lat="44.90577260305535" lon="11.975527208725458"><ele>-4.0</ele><time>2026-04-18T10:14:33Z</time></trkpt><trkpt lat="44.90574655849309" lon="11.975394626690761"><ele>-4.4</ele><time>2026-04-18T10:14:35Z</time></trkpt><trkpt lat="44.90571835222438" lon="11.975264857221347"><ele>-4.800000000000001</ele><time>2026-04-18T10:14:37Z</time></trkpt><trkpt lat="44.905689933622625" lon="11.975132709671467"><ele>-5.199999999999999</ele><time>2026-04-18T10:14:39Z</time></trkpt><trkpt lat="44.90566662060597" lon="11.97500204889298"><ele>-5.6</ele><time>2026-04-18T10:14:41Z</time></trkpt><trkpt lat="44.90564230718973" lon="11.974867210837079"><ele>-6.0</ele><time>2026-04-18T10:14:43Z</time></trkpt><trkpt lat="44.905618848304925" lon="11.974735890349168"><ele>-6.0</ele><time>2026-04-18T10:14:45Z</time></trkpt><trkpt lat="44.90559869874087" lon="11.974605897267432"><ele>-6.0</ele><time>2026-04-18T10:14:47Z</time></trkpt><trkpt lat="44.90557656610921" lon="11.974475375201381"><ele>-6.0</ele><time>2026-04-18T10:14:49Z</time></trkpt><trkpt lat="44.90555652735964" lon="11.97434718524074"><ele>-6.0</ele><time>2026-04-18T10:14:51Z</time></trkpt><trkpt lat="44.90552926535262" lon="11.974221912137258"><ele>-6.0</ele><time>2026-04-18T10:14:53Z</time></trkpt><trkpt lat="44.905505531434756" lon="11.974090806937195"><ele>-6.0</ele><time>2026-04-18T10:14:55Z</time></trkpt><trkpt lat="44.90548134528867" lon="11.973958563508823"><ele>-6.0</ele><time>2026-04-18T10:14:57Z</time></trkpt><trkpt lat="44.90545884901921" lon="11.973823666578143"><ele>-6.0</ele><time>2026-04-18T10:14:59Z</time></trkpt><trkpt lat="44.90543456502523" lon="11.973689556984958"><ele>-6.0</ele><time>2026-04-18T10:15:01Z</time></trkpt><trkpt lat="44.905414929656764" lon="11.973555152933645"><ele>-6.0</ele><time>2026-04-18T10:15:03Z</time></trkpt><trkpt lat="44.90539157486888" lon="11.973419720099619"><ele>-6.0</ele><time>2026-04-18T10:15:05Z</time></trkpt><trkpt lat="44.90536685385136" lon="11.973288479617153"><ele>-6.0</ele><time>2026-04-18T10:15:07Z</time></trkpt><trkpt lat="44.9053446173299" lon="11.973157524911514"><ele>-6.0</ele><time>2026-04-18T10:15:09Z</time></trkpt><trkpt lat="44.90532002023985" lon="11.973028214690894"><ele>-6.0</ele><time>2026-04-18T10:15:11Z</time></trkpt><trkpt lat="44.90529662741706" lon="11.972896722671077"><ele>-6.0</ele><time>2026-04-18T10:15:13Z</time></trkpt><trkpt lat="44.90527647094101" lon="11.972766355743412"><ele>-6.0</ele><time>2026-04-18T10:15:15Z</time></trkpt><trkpt lat="44.90525162720021" lon="11.972635578215362"><ele>-6.0</ele><time>2026-04-18T10:15:17Z</time></trkpt><trkpt lat="44.90522949346632" lon="11.972502079674173"><ele>-6.0</ele><time>2026-04-18T10:15:19Z</time></trkpt><trkpt lat="44.9052037643122" lon="11.972371954477861"><ele>-6.0</ele><time>2026-04-18T10:15:21Z</time></trkpt><trkpt lat="44.905181442315154" lon="11.972241830739137"><ele>-6.0</ele><time>2026-04-18T10:15:23Z</time></trkpt><trkpt lat="44.90516041516587" lon="11.972107774846766"><ele>-6.0</ele><time>2026-04-18T10:15:25Z</time></trkpt><trkpt lat="44.90513642361768" lon="11.971975838664106"><ele>-6.0</ele><time>2026-04-18T10:15:27Z</time></trkpt><trkpt lat="44.9051085277699" lon="11.971846495366462"><ele>-6.0</ele><time>2026-04-18T10:15:29Z</time></trkpt><trkpt lat="44.90508834982142" lon="11.971711805404343"><ele>-6.0</ele><time>2026-04-18T10:15:31Z</time></trkpt><trkpt lat="44.90506289749714" lon="11.971581518129835"><ele>-6.0</ele><time>2026-04-18T10:15:33Z</time></trkpt><trkpt lat="44.90503968320731" lon="11.971450207162933"><ele>-6.0</ele><time>2026-04-18T10:15:35Z</time></trkpt><trkpt lat="44.905014384387705" lon="11.971318117621848"><ele>-6.0</ele><time>2026-04-18T10:15:37Z</time></trkpt><trkpt lat="44.90500662948174" lon="11.971181663026043"><ele>-6.0</ele><time>2026-04-18T10:15:39Z</time></trkpt><trkpt lat="44.90503568718304" lon="11.971051751940513"><ele>-6.0</ele><time>2026-04-18T10:15:41Z</time></trkpt><trkpt lat="44.905118028407" lon="11.970965976055238"><ele>-6.0</ele><time>2026-04-18T10:15:43Z</time></trkpt><trkpt lat="44.90522170064828" lon="11.970943545486312"><ele>-5.8</ele><time>2026-04-18T10:15:45Z</time></trkpt><trkpt lat="44.90532362962746" lon="11.970940030600723"><ele>-5.6</ele><time>2026-04-18T10:15:47Z</time></trkpt><trkpt lat="44.905425045324186" lon="11.970932200236717"><ele>-5.4</ele><time>2026-04-18T10:15:49Z</time></trkpt><trkpt lat="44.90552635127302" lon="11.970931420858028"><ele>-5.2</ele><time>2026-04-18T10:15:51Z</time></trkpt><trkpt lat="44.905627375504906" lon="11.970930600196963"><ele>-5.0</ele><time>2026-04-18T10:15:53Z</time></trkpt><trkpt lat="44.90572863027365" lon="11.97092062092311"><ele>-5.0</ele><time>2026-04-18T10:15:55Z</time></trkpt><trkpt lat="44.905828664408155" lon="11.970919216050214"><ele>-5.0</ele><time>2026-04-18T10:15:57Z</time></trkpt><trkpt lat="44.905925347370264" lon="11.970926568130434"><ele>-5.0</ele><time>2026-04-18T10:15:59Z</time></trkpt><trkpt lat="44.90602230978896" lon="11.970922970217142"><ele>-5.0</ele><time>2026-04-18T10:16:01Z</time></trkpt><trkpt lat="44.90612157093971" lon="11.970917867004855"><ele>-5.0</ele><time>2026-04-18T10:16:03Z</time></trkpt><trkpt lat="44.90621969290279" lon="11.970916325327194"><ele>-5.4</ele><time>2026-04-18T10:16:05Z</time></trkpt><trkpt lat="44.906317262234246" lon="11.970913232244714"><ele>-5.8</ele><time>2026-04-18T10:16:07Z</time></trkpt><trkpt lat="44.90641314006646" lon="11.970906879691647"><ele>-6.199999999999999</ele><time>2026-04-18T10:16:09Z</time></trkpt><trkpt lat="44.90650559599986" lon="11.970902733511027"><ele>-6.6</ele><time>2026-04-18T10:16:11Z</time></trkpt><trkpt lat="44.906593748404525" lon="11.97089586827507"><ele>-7.0</ele><time>2026-04-18T10:16:13Z</time></trkpt><trkpt lat="44.90668028484708" lon="11.970902197234752"><ele>-6.833333333333334</ele><time>2026-04-18T10:16:15Z</time></trkpt><trkpt lat="44.90676592273666" lon="11.970892827232479"><ele>-6.666666666666667</ele><time>2026-04-18T10:16:17Z</time></trkpt><trkpt lat="44.90684705946729" lon="11.97087893619758"><ele>-6.5</ele><time>2026-04-18T10:16:19Z</time></trkpt><trkpt lat="44.90692501734699" lon="11.970884498192364"><ele>-6.333333333333334</ele><time>2026-04-18T10:16:21Z</time></trkpt><trkpt lat="44.90700290800055" lon="11.970882956530277"><ele>-6.166666666666667</ele><time>2026-04-18T10:16:23Z</time></trkpt><trkpt lat="44.90709001854518" lon="11.970882053271158"><ele>-6.0</ele><time>2026-04-18T10:16:25Z</time></trkpt><trkpt lat="44.90718560359252" lon="11.97086951451349"><ele>-6.0</ele><time>2026-04-18T10:16:27Z</time></trkpt><trkpt lat="44.90728214569537" lon="11.97086866467019"><ele>-6.0</ele><time>2026-04-18T10:16:29Z</time></trkpt><trkpt lat="44.90737865327084" lon="11.970867229851367"><ele>-6.0</ele><time>2026-04-18T10:16:31Z</time></trkpt><trkpt lat="44.90747514593352" lon="11.970865123733946"><ele>-6.0</ele><time>2026-04-18T10:16:33Z</time></trkpt><trkpt lat="44.90757124278183" lon="11.97086463715917"><ele>-6.0</ele><time>2026-04-18T10:16:35Z</time></trkpt><trkpt lat="44.90766602709715" lon="11.970856117904837"><ele>-6.0</ele><time>2026-04-18T10:16:37Z</time></trkpt><trkpt lat="44.907760418417844" lon="11.97085058171205"><ele>-6.0</ele><time>2026-04-18T10:16:39Z</time></trkpt><trkpt lat="44.90785682882472" lon="11.970857757853311"><ele>-6.0</ele><time>2026-04-18T10:16:41Z</time></trkpt><trkpt lat="44.90794927033052" lon="11.970850008055155"><ele>-6.0</ele><time>2026-04-18T10:16:43Z</time></trkpt><trkpt lat="44.90804329332193" lon="11.970848397417258"><ele>-6.0</ele><time>2026-04-18T10:16:45Z</time></trkpt><trkpt lat="44.908138244518426" lon="11.9708447984481"><ele>-6.0</ele><time>2026-04-18T10:16:47Z</time></trkpt><trkpt lat="44.9082319860281" lon="11.970840499850375"><ele>-6.0</ele><time>2026-04-18T10:16:49Z</time></trkpt><trkpt lat="44.90832720483563" lon="11.970837700410364"><ele>-6.0</ele><time>2026-04-18T10:16:51Z</time></trkpt><trkpt lat="44.90842217813023" lon="11.970833096938843"><ele>-6.0</ele><time>2026-04-18T10:16:53Z</time></trkpt><trkpt lat="44.90851696379164" lon="11.970818530776933"><ele>-6.0</ele><time>2026-04-18T10:16:55Z</time></trkpt><trkpt lat="44.90861148375464" lon="11.970810574227759"><ele>-6.0</ele><time>2026-04-18T10:16:57Z</time></trkpt><trkpt lat="44.908703072847516" lon="11.970798222810426"><ele>-6.0</ele><time>2026-04-18T10:16:59Z</time></trkpt><trkpt lat="44.90879133355512" lon="11.970795486295167"><ele>-6.0</ele><time>2026-04-18T10:17:01Z</time></trkpt><trkpt lat="44.90888007223033" lon="11.97079671787096"><ele>-6.0</ele><time>2026-04-18T10:17:03Z</time></trkpt><trkpt lat="44.90896242266879" lon="11.970795051909224"><ele>-6.0</ele><time>2026-04-18T10:17:05Z</time></trkpt><trkpt lat="44.90905667602255" lon="11.97079372234115"><ele>-6.0</ele><time>2026-04-18T10:17:07Z</time></trkpt><trkpt lat="44.90915036930763" lon="11.970801500940023"><ele>-6.199999999999999</ele><time>2026-04-18T10:17:09Z</time></trkpt><trkpt lat="44.9092490290133" lon="11.970793326000923"><ele>-6.3999999999999995</ele><time>2026-04-18T10:17:11Z</time></trkpt><trkpt lat="44.90934501756254" lon="11.970795841327444"><ele>-6.6</ele><time>2026-04-18T10:17:13Z</time></trkpt><trkpt lat="44.90944038687884" lon="11.97078074554704"><ele>-6.8</ele><time>2026-04-18T10:17:15Z</time></trkpt><trkpt lat="44.90953443520092" lon="11.970778706583976"><ele>-7.0</ele><time>2026-04-18T10:17:17Z</time></trkpt><trkpt lat="44.909632353970316" lon="11.970778438098282"><ele>-7.0</ele><time>2026-04-18T10:17:19Z</time></trkpt><trkpt lat="44.90972942779463" lon="11.970774554050074"><ele>-6.999999999999999</ele><time>2026-04-18T10:17:21Z</time></trkpt><trkpt lat="44.90982748040055" lon="11.970766908221421"><ele>-6.999999999999999</ele><time>2026-04-18T10:17:23Z</time></trkpt><trkpt lat="44.90992687305378" lon="11.970762354392221"><ele>-7.0</ele><time>2026-04-18T10:17:25Z</time></trkpt><trkpt lat="44.910028139107744" lon="11.970758432813149"><ele>-7.0</ele><time>2026-04-18T10:17:27Z</time></trkpt><trkpt lat="44.91012635104314" lon="11.970753481237185"><ele>-6.666666666666667</ele><time>2026-04-18T10:17:29Z</time></trkpt><trkpt lat="44.910221922514694" lon="11.97075795143061"><ele>-6.333333333333334</ele><time>2026-04-18T10:17:31Z</time></trkpt><trkpt lat="44.91030953745471" lon="11.970756771829649"><ele>-6.0</ele><time>2026-04-18T10:17:33Z</time></trkpt><trkpt lat="44.91039423476569" lon="11.970753039321645"><ele>-5.666666666666667</ele><time>2026-04-18T10:17:35Z</time></trkpt><trkpt lat="44.910479970142404" lon="11.970750155993517"><ele>-5.333333333333334</ele><time>2026-04-18T10:17:37Z</time></trkpt><trkpt lat="44.91057358616442" lon="11.97074655496201"><ele>-5.0</ele><time>2026-04-18T10:17:39Z</time></trkpt><trkpt lat="44.91066879149895" lon="11.970742343433168"><ele>-5.0</ele><time>2026-04-18T10:17:41Z</time></trkpt><trkpt lat="44.91076206137878" lon="11.970735037408266"><ele>-5.0</ele><time>2026-04-18T10:17:43Z</time></trkpt><trkpt lat="44.91085554515251" lon="11.970735536449869"><ele>-5.0</ele><time>2026-04-18T10:17:45Z</time></trkpt><trkpt lat="44.910946074596595" lon="11.97072908461609"><ele>-5.0</ele><time>2026-04-18T10:17:47Z</time></trkpt><trkpt lat="44.91104053580728" lon="11.970726903147055"><ele>-5.0</ele><time>2026-04-18T10:17:49Z</time></trkpt><trkpt lat="44.91113878497691" lon="11.970721149258624"><ele>-5.166666666666667</ele><time>2026-04-18T10:17:51Z</time></trkpt><trkpt lat="44.91123373353021" lon="11.97072387671466"><ele>-5.333333333333334</ele><time>2026-04-18T10:17:53Z</time></trkpt><trkpt lat="44.91132572989607" lon="11.970720353814434"><ele>-5.5</ele><time>2026-04-18T10:17:55Z</time></trkpt><trkpt lat="44.91141425715553" lon="11.970715851800511"><ele>-5.666666666666667</ele><time>2026-04-18T10:17:57Z</time></trkpt><trkpt lat="44.911497210741715" lon="11.970717132095919"><ele>-5.833333333333333</ele><time>2026-04-18T10:17:59Z</time></trkpt><trkpt lat="44.9115747642604" lon="11.97071791244217"><ele>-6.0</ele><time>2026-04-18T10:18:01Z</time></trkpt><trkpt lat="44.911660520622874" lon="11.9707170964208"><ele>-5.833333333333333</ele><time>2026-04-18T10:18:03Z</time></trkpt><trkpt lat="44.911751064374066" lon="11.970721849587513"><ele>-5.666666666666667</ele><time>2026-04-18T10:18:05Z</time></trkpt><trkpt lat="44.9118394634965" lon="11.970735103558878"><ele>-5.5</ele><time>2026-04-18T10:18:07Z</time></trkpt><trkpt lat="44.91192311274958" lon="11.970757118433626"><ele>-5.333333333333334</ele><time>2026-04-18T10:18:09Z</time></trkpt><trkpt lat="44.91200586039357" lon="11.970769457694146"><ele>-5.166666666666667</ele><time>2026-04-18T10:18:11Z</time></trkpt><trkpt lat="44.9120864839776" lon="11.970795155545009"><ele>-5.0</ele><time>2026-04-18T10:18:13Z</time></trkpt><trkpt lat="44.91217009145136" lon="11.970826516028309"><ele>-5.0</ele><time>2026-04-18T10:18:15Z</time></trkpt><trkpt lat="44.91226039766303" lon="11.970835401824392"><ele>-5.0</ele><time>2026-04-18T10:18:17Z</time></trkpt><trkpt lat="44.912345681345954" lon="11.970859228455078"><ele>-5.0</ele><time>2026-04-18T10:18:19Z</time></trkpt><trkpt lat="44.91243113209395" lon="11.970863726918346"><ele>-5.0</ele><time>2026-04-18T10:18:21Z</time></trkpt><trkpt lat="44.91250848972022" lon="11.970875715938181"><ele>-5.0</ele><time>2026-04-18T10:18:23Z</time></trkpt><trkpt lat="44.912583918612555" lon="11.970888103172488"><ele>-5.0</ele><time>2026-04-18T10:18:25Z</time></trkpt><trkpt lat="44.91265726466719" lon="11.970904897667705"><ele>-5.0</ele><time>2026-04-18T10:18:27Z</time></trkpt><trkpt lat="44.912727837747305" lon="11.970921998728176"><ele>-5.0</ele><time>2026-04-18T10:18:29Z</time></trkpt><trkpt lat="44.91279670005401" lon="11.970890212824052"><ele>-5.0</ele><time>2026-04-18T10:18:31Z</time></trkpt><trkpt lat="44.91282296448989" lon="11.970793393375425"><ele>-5.0</ele><time>2026-04-18T10:18:33Z</time></trkpt><trkpt lat="44.91282782253254" lon="11.970678270269097"><ele>-5.0</ele><time>2026-04-18T10:18:35Z</time></trkpt><trkpt lat="44.912835739048" lon="11.970553036853486"><ele>-5.0</ele><time>2026-04-18T10:18:37Z</time></trkpt><trkpt lat="44.912846328726324" lon="11.970426889970598"><ele>-5.0</ele><time>2026-04-18T10:18:39Z</time></trkpt><trkpt lat="44.9128520432947" lon="11.970304089664522"><ele>-5.0</ele><time>2026-04-18T10:18:41Z</time></trkpt><trkpt lat="44.91285988938957" lon="11.97018797051293"><ele>-5.0</ele><time>2026-04-18T10:18:43Z</time></trkpt><trkpt lat="44.91287252140502" lon="11.970062975112416"><ele>-5.0</ele><time>2026-04-18T10:18:45Z</time></trkpt><trkpt lat="44.9128832548032" lon="11.969928397426195"><ele>-5.0</ele><time>2026-04-18T10:18:47Z</time></trkpt><trkpt lat="44.91289689355958" lon="11.969793990822678"><ele>-5.166666666666667</ele><time>2026-04-18T10:18:49Z</time></trkpt><trkpt lat="44.91290243334596" lon="11.96966438568264"><ele>-5.333333333333334</ele><time>2026-04-18T10:18:51Z</time></trkpt><trkpt lat="44.912913483040114" lon="11.969540200408787"><ele>-5.5</ele><time>2026-04-18T10:18:53Z</time></trkpt><trkpt lat="44.91292334059774" lon="11.969418840909665"><ele>-5.666666666666667</ele><time>2026-04-18T10:18:55Z</time></trkpt><trkpt lat="44.91293329468592" lon="11.969302419022663"><ele>-5.833333333333333</ele><time>2026-04-18T10:18:57Z</time></trkpt><trkpt lat="44.91294422972973" lon="11.969190974852362"><ele>-6.0</ele><time>2026-04-18T10:18:59Z</time></trkpt><trkpt lat="44.91295076244932" lon="11.969068935084962"><ele>-5.6</ele><time>2026-04-18T10:19:01Z</time></trkpt><trkpt lat="44.912958531362754" lon="11.968942306693757"><ele>-5.199999999999999</ele><time>2026-04-18T10:19:03Z</time></trkpt><trkpt lat="44.91297416272802" lon="11.968814243649037"><ele>-4.800000000000001</ele><time>2026-04-18T10:19:05Z</time></trkpt><trkpt lat="44.91298141450974" lon="11.968683275638067"><ele>-4.4</ele><time>2026-04-18T10:19:07Z</time></trkpt><trkpt lat="44.9129919777731" lon="11.968558462911911"><ele>-4.0</ele><time>2026-04-18T10:19:09Z</time></trkpt><trkpt lat="44.91300614112512" lon="11.968438190346369"><ele>-4.0</ele><time>2026-04-18T10:19:11Z</time></trkpt><trkpt lat="44.913016211810664" lon="11.968318326583491"><ele>-4.0</ele><time>2026-04-18T10:19:13Z</time></trkpt><trkpt lat="44.91301945726154" lon="11.968187541568803"><ele>-4.0</ele><time>2026-04-18T10:19:15Z</time></trkpt><trkpt lat="44.913032103841346" lon="11.96805583369271"><ele>-4.0</ele><time>2026-04-18T10:19:17Z</time></trkpt><trkpt lat="44.91304047041579" lon="11.967927894260605"><ele>-4.0</ele><time>2026-04-18T10:19:19Z</time></trkpt><trkpt lat="44.91305440876529" lon="11.967803933097398"><ele>-4.0</ele><time>2026-04-18T10:19:21Z</time></trkpt><trkpt lat="44.913067833828514" lon="11.967674076430725"><ele>-4.0</ele><time>2026-04-18T10:19:23Z</time></trkpt><trkpt lat="44.913074799732165" lon="11.967539299705864"><ele>-4.0</ele><time>2026-04-18T10:19:25Z</time></trkpt><trkpt lat="44.9130861871778" lon="11.967401915503979"><ele>-4.0</ele><time>2026-04-18T10:19:27Z</time></trkpt><trkpt lat="44.91309519378257" lon="11.967266841332268"><ele>-4.0</ele><time>2026-04-18T10:19:29Z</time></trkpt><trkpt lat="44.91310880241712" lon="11.967133192455199"><ele>-4.2</ele><time>2026-04-18T10:19:31Z</time></trkpt><trkpt lat="44.91311546249561" lon="11.96700076844616"><ele>-4.4</ele><time>2026-04-18T10:19:33Z</time></trkpt><trkpt lat="44.91312617314645" lon="11.966874412366927"><ele>-4.6</ele><time>2026-04-18T10:19:35Z</time></trkpt><trkpt lat="44.91314312036058" lon="11.966753047382927"><ele>-4.8</ele><time>2026-04-18T10:19:37Z</time></trkpt><trkpt lat="44.913152139693544" lon="11.966619478500517"><ele>-5.0</ele><time>2026-04-18T10:19:39Z</time></trkpt><trkpt lat="44.9131587899433" lon="11.966483554905265"><ele>-5.2</ele><time>2026-04-18T10:19:41Z</time></trkpt><trkpt lat="44.913166931931116" lon="11.966348371494243"><ele>-5.4</ele><time>2026-04-18T10:19:43Z</time></trkpt><trkpt lat="44.91318284729017" lon="11.96621415698297"><ele>-5.6</ele><time>2026-04-18T10:19:45Z</time></trkpt><trkpt lat="44.91318842469087" lon="11.966080158814671"><ele>-5.8</ele><time>2026-04-18T10:19:47Z</time></trkpt><trkpt lat="44.91319969944003" lon="11.965947092192883"><ele>-6.0</ele><time>2026-04-18T10:19:49Z</time></trkpt><trkpt lat="44.91321264997941" lon="11.965813178472922"><ele>-6.0</ele><time>2026-04-18T10:19:51Z</time></trkpt><trkpt lat="44.91322114550123" lon="11.965680460119033"><ele>-6.0</ele><time>2026-04-18T10:19:53Z</time></trkpt><trkpt lat="44.91323229737704" lon="11.965547936964422"><ele>-6.0</ele><time>2026-04-18T10:19:55Z</time></trkpt><trkpt lat="44.91324355312663" lon="11.965415469469145"><ele>-6.0</ele><time>2026-04-18T10:19:57Z</time></trkpt><trkpt lat="44.91325695073713" lon="11.965285818516143"><ele>-6.0</ele><time>2026-04-18T10:19:59Z</time></trkpt><trkpt lat="44.91326546778121" lon="11.965165088285508"><ele>-6.0</ele><time>2026-04-18T10:20:01Z</time></trkpt><trkpt lat="44.9132784592245" lon="11.965050700358516"><ele>-6.0</ele><time>2026-04-18T10:20:03Z</time></trkpt><trkpt lat="44.91328692340838" lon="11.96492573737627"><ele>-6.0</ele><time>2026-04-18T10:20:05Z</time></trkpt><trkpt lat="44.913297373133595" lon="11.96480353568794"><ele>-6.0</ele><time>2026-04-18T10:20:07Z</time></trkpt><trkpt lat="44.913307189483916" lon="11.964687136064356"><ele>-6.0</ele><time>2026-04-18T10:20:09Z</time></trkpt><trkpt lat="44.91331962824187" lon="11.964574231093703"><ele>-6.0</ele><time>2026-04-18T10:20:11Z</time></trkpt><trkpt lat="44.913329861687615" lon="11.964446686280949"><ele>-5.833333333333333</ele><time>2026-04-18T10:20:13Z</time></trkpt><trkpt lat="44.91333467288829" lon="11.9643181548884"><ele>-5.666666666666667</ele><time>2026-04-18T10:20:15Z</time></trkpt><trkpt lat="44.91334410411115" lon="11.964198859641842"><ele>-5.5</ele><time>2026-04-18T10:20:17Z</time></trkpt><trkpt lat="44.91335825037868" lon="11.964080172256013"><ele>-5.333333333333334</ele><time>2026-04-18T10:20:19Z</time></trkpt><trkpt lat="44.913371043349514" lon="11.963948138080331"><ele>-5.166666666666667</ele><time>2026-04-18T10:20:21Z</time></trkpt><trkpt lat="44.913379906329155" lon="11.96381683459569"><ele>-5.0</ele><time>2026-04-18T10:20:23Z</time></trkpt><trkpt lat="44.913386154155226" lon="11.96369030752735"><ele>-5.0</ele><time>2026-04-18T10:20:25Z</time></trkpt><trkpt lat="44.91339715184134" lon="11.963565080517567"><ele>-5.0</ele><time>2026-04-18T10:20:27Z</time></trkpt><trkpt lat="44.91340660850388" lon="11.963441161469154"><ele>-5.0</ele><time>2026-04-18T10:20:29Z</time></trkpt><trkpt lat="44.91341805110239" lon="11.963308724401646"><ele>-5.0</ele><time>2026-04-18T10:20:31Z</time></trkpt><trkpt lat="44.91343319594915" lon="11.963177653491362"><ele>-5.0</ele><time>2026-04-18T10:20:33Z</time></trkpt><trkpt lat="44.91343823295149" lon="11.963043968941202"><ele>-5.0</ele><time>2026-04-18T10:20:35Z</time></trkpt><trkpt lat="44.91345155595159" lon="11.962908559880622"><ele>-5.0</ele><time>2026-04-18T10:20:37Z</time></trkpt><trkpt lat="44.913459544963246" lon="11.962775038053111"><ele>-5.0</ele><time>2026-04-18T10:20:39Z</time></trkpt><trkpt lat="44.91346891861727" lon="11.962640565871292"><ele>-5.0</ele><time>2026-04-18T10:20:41Z</time></trkpt><trkpt lat="44.913480692223246" lon="11.962507062149829"><ele>-5.0</ele><time>2026-04-18T10:20:43Z</time></trkpt><trkpt lat="44.913492959231505" lon="11.962374728821565"><ele>-4.8</ele><time>2026-04-18T10:20:45Z</time></trkpt><trkpt lat="44.913499832411425" lon="11.96224235344982"><ele>-4.6</ele><time>2026-04-18T10:20:47Z</time></trkpt><trkpt lat="44.91350962424987" lon="11.962107227577393"><ele>-4.4</ele><time>2026-04-18T10:20:49Z</time></trkpt><trkpt lat="44.91352219689611" lon="11.96197425572144"><ele>-4.2</ele><time>2026-04-18T10:20:51Z</time></trkpt><trkpt lat="44.91353666956225" lon="11.961839196115024"><ele>-4.0</ele><time>2026-04-18T10:20:53Z</time></trkpt><trkpt lat="44.913546309075684" lon="11.961702678220774"><ele>-4.4</ele><time>2026-04-18T10:20:55Z</time></trkpt><trkpt lat="44.913550535502885" lon="11.961569960015359"><ele>-4.800000000000001</ele><time>2026-04-18T10:20:57Z</time></trkpt><trkpt lat="44.91356916930173" lon="11.961442113681859"><ele>-5.199999999999999</ele><time>2026-04-18T10:20:59Z</time></trkpt><trkpt lat="44.91358074850043" lon="11.961308745893229"><ele>-5.6</ele><time>2026-04-18T10:21:01Z</time></trkpt><trkpt lat="44.91359152720594" lon="11.961179975359881"><ele>-6.0</ele><time>2026-04-18T10:21:03Z</time></trkpt><trkpt lat="44.91359600516453" lon="11.961059906511958"><ele>-6.0</ele><time>2026-04-18T10:21:05Z</time></trkpt><trkpt lat="44.91360504166736" lon="11.960946186741282"><ele>-6.0</ele><time>2026-04-18T10:21:07Z</time></trkpt><trkpt lat="44.91365130354842" lon="11.960863240327068"><ele>-6.0</ele><time>2026-04-18T10:21:09Z</time></trkpt><trkpt lat="44.91373985165234" lon="11.960861860285991"><ele>-6.0</ele><time>2026-04-18T10:21:11Z</time></trkpt><trkpt lat="44.91382994058708" lon="11.960867258540146"><ele>-6.0</ele><time>2026-04-18T10:21:13Z</time></trkpt><trkpt lat="44.91392342258314" lon="11.960886841277025"><ele>-6.0</ele><time>2026-04-18T10:21:15Z</time></trkpt><trkpt lat="44.91401832552462" lon="11.960902485902103"><ele>-6.0</ele><time>2026-04-18T10:21:17Z</time></trkpt><trkpt lat="44.91411082434617" lon="11.960921880537287"><ele>-6.0</ele><time>2026-04-18T10:21:19Z</time></trkpt><trkpt lat="44.914207215538596" lon="11.960925759626859"><ele>-6.0</ele><time>2026-04-18T10:21:21Z</time></trkpt><trkpt lat="44.9143041958189" lon="11.960944179800068"><ele>-6.0</ele><time>2026-04-18T10:21:23Z</time></trkpt><trkpt lat="44.91439832533836" lon="11.96096259218506"><ele>-6.0</ele><time>2026-04-18T10:21:25Z</time></trkpt><trkpt lat="44.914492779422766" lon="11.9609869940728"><ele>-5.833333333333333</ele><time>2026-04-18T10:21:27Z</time></trkpt><trkpt lat="44.914586445997" lon="11.9610004706774"><ele>-5.666666666666667</ele><time>2026-04-18T10:21:29Z</time></trkpt><trkpt lat="44.914675872385736" lon="11.961017405410384"><ele>-5.5</ele><time>2026-04-18T10:21:31Z</time></trkpt><trkpt lat="44.91475605139011" lon="11.961045377590123"><ele>-5.333333333333334</ele><time>2026-04-18T10:21:33Z</time></trkpt><trkpt lat="44.91483178102224" lon="11.961045283491494"><ele>-5.166666666666667</ele><time>2026-04-18T10:21:35Z</time></trkpt><trkpt lat="44.91491801698289" lon="11.961060422094873"><ele>-5.0</ele><time>2026-04-18T10:21:37Z</time></trkpt><trkpt lat="44.915012920731144" lon="11.961087498241765"><ele>-4.8</ele><time>2026-04-18T10:21:39Z</time></trkpt><trkpt lat="44.91510344188367" lon="11.961108851241498"><ele>-4.6</ele><time>2026-04-18T10:21:41Z</time></trkpt><trkpt lat="44.91520000936649" lon="11.961116823824664"><ele>-4.4</ele><time>2026-04-18T10:21:43Z</time></trkpt><trkpt lat="44.91529629886512" lon="11.961137375235637"><ele>-4.2</ele><time>2026-04-18T10:21:45Z</time></trkpt><trkpt lat="44.915389527642866" lon="11.961153217291338"><ele>-4.0</ele><time>2026-04-18T10:21:47Z</time></trkpt><trkpt lat="44.915484593494696" lon="11.961166007937042"><ele>-4.0</ele><time>2026-04-18T10:21:49Z</time></trkpt><trkpt lat="44.91557909195298" lon="11.961187460482028"><ele>-4.0</ele><time>2026-04-18T10:21:51Z</time></trkpt><trkpt lat="44.915673113412716" lon="11.961204207033179"><ele>-4.0</ele><time>2026-04-18T10:21:53Z</time></trkpt><trkpt lat="44.915766030142926" lon="11.961222195504012"><ele>-4.0</ele><time>2026-04-18T10:21:55Z</time></trkpt><trkpt lat="44.91585704309911" lon="11.961246738621462"><ele>-4.0</ele><time>2026-04-18T10:21:57Z</time></trkpt><trkpt lat="44.915944205741" lon="11.961255143154695"><ele>-3.8000000000000003</ele><time>2026-04-18T10:21:59Z</time></trkpt><trkpt lat="44.91602656618473" lon="11.961281080939523"><ele>-3.6000000000000005</ele><time>2026-04-18T10:22:01Z</time></trkpt><trkpt lat="44.916111254197794" lon="11.961291753982485"><ele>-3.4</ele><time>2026-04-18T10:22:03Z</time></trkpt><trkpt lat="44.916207289951885" lon="11.96131254636278"><ele>-3.2</ele><time>2026-04-18T10:22:05Z</time></trkpt><trkpt lat="44.91630557237021" lon="11.961331964902"><ele>-3.0</ele><time>2026-04-18T10:22:07Z</time></trkpt><trkpt lat="44.916397859795815" lon="11.961344205446812"><ele>-3.0</ele><time>2026-04-18T10:22:09Z</time></trkpt><trkpt lat="44.91648883039349" lon="11.961360641732252"><ele>-3.0</ele><time>2026-04-18T10:22:11Z</time></trkpt><trkpt lat="44.916570891148275" lon="11.96137389557309"><ele>-3.0</ele><time>2026-04-18T10:22:13Z</time></trkpt><trkpt lat="44.916653703078076" lon="11.961392144167448"><ele>-3.0</ele><time>2026-04-18T10:22:15Z</time></trkpt><trkpt lat="44.91674307146592" lon="11.961412127286462"><ele>-3.0</ele><time>2026-04-18T10:22:17Z</time></trkpt><trkpt lat="44.91683532935183" lon="11.961432144971976"><ele>-3.0</ele><time>2026-04-18T10:22:19Z</time></trkpt><trkpt lat="44.916929452542604" lon="11.961449015532434"><ele>-3.0</ele><time>2026-04-18T10:22:21Z</time></trkpt><trkpt lat="44.91701999849567" lon="11.961468869871652"><ele>-3.0</ele><time>2026-04-18T10:22:23Z</time></trkpt><trkpt lat="44.91710741169801" lon="11.961482902081963"><ele>-3.0</ele><time>2026-04-18T10:22:25Z</time></trkpt><trkpt lat="44.91719491413124" lon="11.96149080345564"><ele>-3.0</ele><time>2026-04-18T10:22:27Z</time></trkpt><trkpt lat="44.91728090259264" lon="11.961513002739034"><ele>-3.0</ele><time>2026-04-18T10:22:29Z</time></trkpt><trkpt lat="44.91737266997412" lon="11.961522080463311"><ele>-3.0</ele><time>2026-04-18T10:22:31Z</time></trkpt><trkpt lat="44.91746196617214" lon="11.961540581237713"><ele>-3.0</ele><time>2026-04-18T10:22:33Z</time></trkpt><trkpt lat="44.91754433975461" lon="11.961553452479215"><ele>-3.0</ele><time>2026-04-18T10:22:35Z</time></trkpt><trkpt lat="44.917627515598376" lon="11.96157429698488"><ele>-3.0</ele><time>2026-04-18T10:22:37Z</time></trkpt><trkpt lat="44.91772101037859" lon="11.961594432005588"><ele>-3.0</ele><time>2026-04-18T10:22:39Z</time></trkpt><trkpt lat="44.91780652443989" lon="11.961607714718022"><ele>-3.0</ele><time>2026-04-18T10:22:41Z</time></trkpt><trkpt lat="44.91789076302537" lon="11.961621714932122"><ele>-3.0</ele><time>2026-04-18T10:22:43Z</time></trkpt><trkpt lat="44.91797878232567" lon="11.961632865747141"><ele>-3.0</ele><time>2026-04-18T10:22:45Z</time></trkpt><trkpt lat="44.91806162729241" lon="11.961632025646662"><ele>-3.0</ele><time>2026-04-18T10:22:47Z</time></trkpt><trkpt lat="44.9181380452987" lon="11.961638487166532"><ele>-3.0</ele><time>2026-04-18T10:22:49Z</time></trkpt><trkpt lat="44.918225836201394" lon="11.961643399659348"><ele>-3.0</ele><time>2026-04-18T10:22:51Z</time></trkpt><trkpt lat="44.9183221719635" lon="11.96163292227604"><ele>-3.0</ele><time>2026-04-18T10:22:53Z</time></trkpt><trkpt lat="44.9184150111227" lon="11.961620801236045"><ele>-3.0</ele><time>2026-04-18T10:22:55Z</time></trkpt><trkpt lat="44.91850230957419" lon="11.961611258899167"><ele>-3.1666666666666665</ele><time>2026-04-18T10:22:57Z</time></trkpt><trkpt lat="44.91858474609582" lon="11.96159742254862"><ele>-3.333333333333333</ele><time>2026-04-18T10:22:59Z</time></trkpt><trkpt lat="44.91866393638566" lon="11.961591616186226"><ele>-3.5</ele><time>2026-04-18T10:23:01Z</time></trkpt><trkpt lat="44.91874589137201" lon="11.961589136533528"><ele>-3.6666666666666665</ele><time>2026-04-18T10:23:03Z</time></trkpt><trkpt lat="44.918839594247245" lon="11.961577973453402"><ele>-3.833333333333333</ele><time>2026-04-18T10:23:05Z</time></trkpt><trkpt lat="44.918936144956234" lon="11.961564902669584"><ele>-4.0</ele><time>2026-04-18T10:23:07Z</time></trkpt><trkpt lat="44.919027489314836" lon="11.9615558015628"><ele>-4.0</ele><time>2026-04-18T10:23:09Z</time></trkpt><trkpt lat="44.9191229040701" lon="11.961545840776672"><ele>-4.0</ele><time>2026-04-18T10:23:11Z</time></trkpt><trkpt lat="44.91921040307154" lon="11.961532891702447"><ele>-4.0</ele><time>2026-04-18T10:23:13Z</time></trkpt><trkpt lat="44.91929634461112" lon="11.961532878839664"><ele>-4.0</ele><time>2026-04-18T10:23:15Z</time></trkpt><trkpt lat="44.91938879858053" lon="11.961522246258099"><ele>-4.0</ele><time>2026-04-18T10:23:17Z</time></trkpt><trkpt lat="44.919483170932615" lon="11.961508579603523"><ele>-4.0</ele><time>2026-04-18T10:23:19Z</time></trkpt><trkpt lat="44.91957890299748" lon="11.96149676034872"><ele>-4.0</ele><time>2026-04-18T10:23:21Z</time></trkpt><trkpt lat="44.91967747183545" lon="11.961483609929411"><ele>-4.0</ele><time>2026-04-18T10:23:23Z</time></trkpt><trkpt lat="44.91977280906657" lon="11.961471747612508"><ele>-4.0</ele><time>2026-04-18T10:23:25Z</time></trkpt><trkpt lat="44.919864350862355" lon="11.961468946897545"><ele>-4.0</ele><time>2026-04-18T10:23:27Z</time></trkpt><trkpt lat="44.91995254202592" lon="11.96145854291572"><ele>-4.0</ele><time>2026-04-18T10:23:29Z</time></trkpt><trkpt lat="44.92004024926078" lon="11.961450993142659"><ele>-4.0</ele><time>2026-04-18T10:23:31Z</time></trkpt><trkpt lat="44.920134045240864" lon="11.961438458297312"><ele>-4.0</ele><time>2026-04-18T10:23:33Z</time></trkpt><trkpt lat="44.92022968553199" lon="11.961427883967573"><ele>-4.0</ele><time>2026-04-18T10:23:35Z</time></trkpt><trkpt lat="44.92032234196304" lon="11.961415691748943"><ele>-4.0</ele><time>2026-04-18T10:23:37Z</time></trkpt><trkpt lat="44.92041476494808" lon="11.961407749753873"><ele>-3.833333333333333</ele><time>2026-04-18T10:23:39Z</time></trkpt><trkpt lat="44.920507910182465" lon="11.96140378284266"><ele>-3.6666666666666665</ele><time>2026-04-18T10:23:41Z</time></trkpt><trkpt lat="44.92059939599456" lon="11.961387131017373"><ele>-3.5</ele><time>2026-04-18T10:23:43Z</time></trkpt><trkpt lat="44.92068444548024" lon="11.961382751812161"><ele>-3.333333333333333</ele><time>2026-04-18T10:23:45Z</time></trkpt><trkpt lat="44.92076328650155" lon="11.961368611985302"><ele>-3.1666666666666665</ele><time>2026-04-18T10:23:47Z</time></trkpt><trkpt lat="44.9208396746458" lon="11.961358337486013"><ele>-3.0</ele><time>2026-04-18T10:23:49Z</time></trkpt><trkpt lat="44.92090840442089" lon="11.96134190949156"><ele>-3.0</ele><time>2026-04-18T10:23:51Z</time></trkpt><trkpt lat="44.92098140843507" lon="11.961346467992318"><ele>-3.0</ele><time>2026-04-18T10:23:53Z</time></trkpt><trkpt lat="44.921065159952754" lon="11.961330593353125"><ele>-3.0</ele><time>2026-04-18T10:23:55Z</time></trkpt><trkpt lat="44.92115333125993" lon="11.9613254474389"><ele>-3.0</ele><time>2026-04-18T10:23:57Z</time></trkpt><trkpt lat="44.921250027354354" lon="11.961321314992277"><ele>-3.0</ele><time>2026-04-18T10:23:59Z</time></trkpt><trkpt lat="44.92134770362332" lon="11.96131000649626"><ele>-3.0</ele><time>2026-04-18T10:24:01Z</time></trkpt><trkpt lat="44.921443587290895" lon="11.96129797309659"><ele>-3.0</ele><time>2026-04-18T10:24:03Z</time></trkpt><trkpt lat="44.92154082853929" lon="11.961296504663345"><ele>-3.0</ele><time>2026-04-18T10:24:05Z</time></trkpt><trkpt lat="44.921636185174584" lon="11.961284095872232"><ele>-3.0</ele><time>2026-04-18T10:24:07Z</time></trkpt><trkpt lat="44.921732121745855" lon="11.961273158963431"><ele>-3.0</ele><time>2026-04-18T10:24:09Z</time></trkpt><trkpt lat="44.921826646824954" lon="11.961264648147848"><ele>-3.0</ele><time>2026-04-18T10:24:11Z</time></trkpt><trkpt lat="44.921922526254924" lon="11.96125840864511"><ele>-3.2</ele><time>2026-04-18T10:24:13Z</time></trkpt><trkpt lat="44.92201715392609" lon="11.96125117187987"><ele>-3.4</ele><time>2026-04-18T10:24:15Z</time></trkpt><trkpt lat="44.92211078069653" lon="11.961244996897957"><ele>-3.6000000000000005</ele><time>2026-04-18T10:24:17Z</time></trkpt><trkpt lat="44.92220290547461" lon="11.9612323928521"><ele>-3.8000000000000003</ele><time>2026-04-18T10:24:19Z</time></trkpt><trkpt lat="44.92229475595556" lon="11.961218888965142"><ele>-4.0</ele><time>2026-04-18T10:24:21Z</time></trkpt><trkpt lat="44.92238872672549" lon="11.961205133109242"><ele>-4.0</ele><time>2026-04-18T10:24:23Z</time></trkpt><trkpt lat="44.922483082818694" lon="11.961196334842237"><ele>-4.0</ele><time>2026-04-18T10:24:25Z</time></trkpt><trkpt lat="44.92257793866059" lon="11.961184875585571"><ele>-4.0</ele><time>2026-04-18T10:24:27Z</time></trkpt><trkpt lat="44.92267173172872" lon="11.96118011952944"><ele>-4.0</ele><time>2026-04-18T10:24:29Z</time></trkpt><trkpt lat="44.92275888497588" lon="11.961165345213889"><ele>-4.0</ele><time>2026-04-18T10:24:31Z</time></trkpt><trkpt lat="44.922843666443654" lon="11.961163833410541"><ele>-3.833333333333333</ele><time>2026-04-18T10:24:33Z</time></trkpt><trkpt lat="44.92292791353081" lon="11.961156446014927"><ele>-3.6666666666666665</ele><time>2026-04-18T10:24:35Z</time></trkpt><trkpt lat="44.923020895159084" lon="11.961145265876148"><ele>-3.5</ele><time>2026-04-18T10:24:37Z</time></trkpt><trkpt lat="44.92311013303328" lon="11.961133501948252"><ele>-3.333333333333333</ele><time>2026-04-18T10:24:39Z</time></trkpt><trkpt lat="44.9231967830274" lon="11.961124615640761"><ele>-3.1666666666666665</ele><time>2026-04-18T10:24:41Z</time></trkpt><trkpt lat="44.92327623934211" lon="11.961110342780506"><ele>-3.0</ele><time>2026-04-18T10:24:43Z</time></trkpt><trkpt lat="44.923354880739346" lon="11.961106794895315"><ele>-2.5</ele><time>2026-04-18T10:24:45Z</time></trkpt><trkpt lat="44.92344403562429" lon="11.961103975980642"><ele>-2.0</ele><time>2026-04-18T10:24:47Z</time></trkpt><trkpt lat="44.92353013040012" lon="11.961082382398372"><ele>-1.5</ele><time>2026-04-18T10:24:49Z</time></trkpt><trkpt lat="44.92361109527112" lon="11.961083144556513"><ele>-1.0</ele><time>2026-04-18T10:24:51Z</time></trkpt><trkpt lat="44.923690326505266" lon="11.961074243719839"><ele>-0.5</ele><time>2026-04-18T10:24:53Z</time></trkpt><trkpt lat="44.9237723335276" lon="11.961060065568658"><ele>0.0</ele><time>2026-04-18T10:24:55Z</time></trkpt><trkpt lat="44.923852751472815" lon="11.961070942875896"><ele>0.0</ele><time>2026-04-18T10:24:57Z</time></trkpt><trkpt lat="44.92392749088267" lon="11.961064986931719"><ele>0.0</ele><time>2026-04-18T10:24:59Z</time></trkpt><trkpt lat="44.92399594452383" lon="11.961053939751705"><ele>0.0</ele><time>2026-04-18T10:25:01Z</time></trkpt><trkpt lat="44.92405086527973" lon="11.96100494293812"><ele>0.0</ele><time>2026-04-18T10:25:03Z</time></trkpt><trkpt lat="44.924066445997745" lon="11.960900999523822"><ele>0.0</ele><time>2026-04-18T10:25:05Z</time></trkpt><trkpt lat="44.92405762670906" lon="11.960803267099267"><ele>0.0</ele><time>2026-04-18T10:25:07Z</time></trkpt><trkpt lat="44.924045014207636" lon="11.960678230049428"><ele>0.0</ele><time>2026-04-18T10:25:09Z</time></trkpt><trkpt lat="44.92402276688941" lon="11.960559833843751"><ele>-0.16666666666666666</ele><time>2026-04-18T10:25:11Z</time></trkpt><trkpt lat="44.92402041779655" lon="11.960440751308285"><ele>-0.3333333333333333</ele><time>2026-04-18T10:25:13Z</time></trkpt><trkpt lat="44.92401813968567" lon="11.960324312242586"><ele>-0.5</ele><time>2026-04-18T10:25:15Z</time></trkpt><trkpt lat="44.92399737394228" lon="11.960203581054737"><ele>-0.6666666666666666</ele><time>2026-04-18T10:25:17Z</time></trkpt><trkpt lat="44.92398405392237" lon="11.96007259869307"><ele>-0.8333333333333333</ele><time>2026-04-18T10:25:19Z</time></trkpt><trkpt lat="44.92396690030988" lon="11.959941239662845"><ele>-1.0</ele><time>2026-04-18T10:25:21Z</time></trkpt><trkpt lat="44.92395972015664" lon="11.959805521102263"><ele>-0.9999999999999999</ele><time>2026-04-18T10:25:23Z</time></trkpt><trkpt lat="44.923956207393296" lon="11.959675951191928"><ele>-1.0</ele><time>2026-04-18T10:25:25Z</time></trkpt><trkpt lat="44.92393785859701" lon="11.959553045404492"><ele>-1.0</ele><time>2026-04-18T10:25:27Z</time></trkpt><trkpt lat="44.92392956068494" lon="11.95942629743511"><ele>-1.0</ele><time>2026-04-18T10:25:29Z</time></trkpt><trkpt lat="44.923923791394444" lon="11.959305476096818"><ele>-0.9999999999999999</ele><time>2026-04-18T10:25:31Z</time></trkpt><trkpt lat="44.9239079621839" lon="11.959180053967255"><ele>-1.0</ele><time>2026-04-18T10:25:33Z</time></trkpt><trkpt lat="44.92389149719388" lon="11.959049827463302"><ele>-1.2000000000000002</ele><time>2026-04-18T10:25:35Z</time></trkpt><trkpt lat="44.923874720083816" lon="11.958916226999017"><ele>-1.4000000000000001</ele><time>2026-04-18T10:25:37Z</time></trkpt><trkpt lat="44.923867914812405" lon="11.958781381104847"><ele>-1.6</ele><time>2026-04-18T10:25:39Z</time></trkpt><trkpt lat="44.92385583023563" lon="11.958651070969134"><ele>-1.8</ele><time>2026-04-18T10:25:41Z</time></trkpt><trkpt lat="44.92384094448451" lon="11.958518017822142"><ele>-2.0</ele><time>2026-04-18T10:25:43Z</time></trkpt><trkpt lat="44.92383166883747" lon="11.958383873851647"><ele>-2.2</ele><time>2026-04-18T10:25:45Z</time></trkpt><trkpt lat="44.923819501560956" lon="11.95824872564009"><ele>-2.4000000000000004</ele><time>2026-04-18T10:25:47Z</time></trkpt><trkpt lat="44.923804988476036" lon="11.958115065531276"><ele>-2.5999999999999996</ele><time>2026-04-18T10:25:49Z</time></trkpt><trkpt lat="44.923794332731944" lon="11.957976546431416"><ele>-2.8</ele><time>2026-04-18T10:25:51Z</time></trkpt><trkpt lat="44.923775934195945" lon="11.957842039348888"><ele>-3.0</ele><time>2026-04-18T10:25:53Z</time></trkpt><trkpt lat="44.92376581859087" lon="11.957706063353989"><ele>-3.0</ele><time>2026-04-18T10:25:55Z</time></trkpt><trkpt lat="44.92375901177606" lon="11.957570144457918"><ele>-3.0</ele><time>2026-04-18T10:25:57Z</time></trkpt><trkpt lat="44.92374543308481" lon="11.957435784048076"><ele>-3.0</ele><time>2026-04-18T10:25:59Z</time></trkpt><trkpt lat="44.92373330747368" lon="11.95730376196448"><ele>-3.0</ele><time>2026-04-18T10:26:01Z</time></trkpt><trkpt lat="44.92372120079215" lon="11.957165775282805"><ele>-3.0</ele><time>2026-04-18T10:26:03Z</time></trkpt><trkpt lat="44.923702580648815" lon="11.957034422222195"><ele>-3.2</ele><time>2026-04-18T10:26:05Z</time></trkpt><trkpt lat="44.923691402846856" lon="11.956900171748293"><ele>-3.4</ele><time>2026-04-18T10:26:07Z</time></trkpt><trkpt lat="44.92368305640367" lon="11.95676613634762"><ele>-3.6000000000000005</ele><time>2026-04-18T10:26:09Z</time></trkpt><trkpt lat="44.92367323143247" lon="11.956632404541043"><ele>-3.8000000000000003</ele><time>2026-04-18T10:26:11Z</time></trkpt><trkpt lat="44.92365749029781" lon="11.956498279839359"><ele>-4.0</ele><time>2026-04-18T10:26:13Z</time></trkpt><trkpt lat="44.92364174681199" lon="11.956363365365606"><ele>-4.0</ele><time>2026-04-18T10:26:15Z</time></trkpt><trkpt lat="44.92362624496652" lon="11.956234191310113"><ele>-4.0</ele><time>2026-04-18T10:26:17Z</time></trkpt><trkpt lat="44.92362769641768" lon="11.956108181497713"><ele>-4.0</ele><time>2026-04-18T10:26:19Z</time></trkpt><trkpt lat="44.92361720900277" lon="11.955984141352449"><ele>-4.0</ele><time>2026-04-18T10:26:21Z</time></trkpt><trkpt lat="44.92359790822378" lon="11.955855847009483"><ele>-4.0</ele><time>2026-04-18T10:26:23Z</time></trkpt><trkpt lat="44.923584797333675" lon="11.955724384504588"><ele>-4.0</ele><time>2026-04-18T10:26:25Z</time></trkpt><trkpt lat="44.923573744381024" lon="11.955589366811619"><ele>-4.0</ele><time>2026-04-18T10:26:27Z</time></trkpt><trkpt lat="44.92355954598671" lon="11.955459330675303"><ele>-4.0</ele><time>2026-04-18T10:26:29Z</time></trkpt><trkpt lat="44.92354800412665" lon="11.955331163758775"><ele>-4.0</ele><time>2026-04-18T10:26:31Z</time></trkpt><trkpt lat="44.92353724472147" lon="11.955210428270604"><ele>-4.0</ele><time>2026-04-18T10:26:33Z</time></trkpt><trkpt lat="44.92353108050964" lon="11.95509168573547"><ele>-3.8000000000000003</ele><time>2026-04-18T10:26:35Z</time></trkpt><trkpt lat="44.92351862091876" lon="11.954962902850616"><ele>-3.6000000000000005</ele><time>2026-04-18T10:26:37Z</time></trkpt><trkpt lat="44.92350439463689" lon="11.954831980122982"><ele>-3.4</ele><time>2026-04-18T10:26:39Z</time></trkpt><trkpt lat="44.923489050498375" lon="11.954693265591171"><ele>-3.2</ele><time>2026-04-18T10:26:41Z</time></trkpt><trkpt lat="44.92347465798811" lon="11.954559828794277"><ele>-3.0</ele><time>2026-04-18T10:26:43Z</time></trkpt><trkpt lat="44.923458331469945" lon="11.954427126158752"><ele>-3.0</ele><time>2026-04-18T10:26:45Z</time></trkpt><trkpt lat="44.92344895189283" lon="11.954291019370366"><ele>-3.0</ele><time>2026-04-18T10:26:47Z</time></trkpt><trkpt lat="44.923438881704016" lon="11.954156692256092"><ele>-3.0</ele><time>2026-04-18T10:26:49Z</time></trkpt><trkpt lat="44.92342386486642" lon="11.954023543946837"><ele>-3.0</ele><time>2026-04-18T10:26:51Z</time></trkpt><trkpt lat="44.92341072734012" lon="11.953889551976559"><ele>-3.0</ele><time>2026-04-18T10:26:53Z</time></trkpt><trkpt lat="44.92339294680203" lon="11.953756621900151"><ele>-3.0</ele><time>2026-04-18T10:26:55Z</time></trkpt><trkpt lat="44.92338223774657" lon="11.953624709244643"><ele>-3.0</ele><time>2026-04-18T10:26:57Z</time></trkpt><trkpt lat="44.92337076336622" lon="11.953488341710266"><ele>-3.0</ele><time>2026-04-18T10:26:59Z</time></trkpt><trkpt lat="44.923353422692905" lon="11.95335334222648"><ele>-3.0</ele><time>2026-04-18T10:27:01Z</time></trkpt><trkpt lat="44.92334238659249" lon="11.953222765465362"><ele>-3.0</ele><time>2026-04-18T10:27:03Z</time></trkpt><trkpt lat="44.92333249110678" lon="11.953102384584742"><ele>-3.0</ele><time>2026-04-18T10:27:05Z</time></trkpt><trkpt lat="44.923318091984754" lon="11.952985614858939"><ele>-3.0</ele><time>2026-04-18T10:27:07Z</time></trkpt><trkpt lat="44.92331416909362" lon="11.952866669501185"><ele>-3.0</ele><time>2026-04-18T10:27:09Z</time></trkpt><trkpt lat="44.92329587885226" lon="11.952740876625489"><ele>-3.0</ele><time>2026-04-18T10:27:11Z</time></trkpt><trkpt lat="44.92327892671178" lon="11.952613559966426"><ele>-3.0</ele><time>2026-04-18T10:27:13Z</time></trkpt><trkpt lat="44.92327690658246" lon="11.95249786236294"><ele>-3.0</ele><time>2026-04-18T10:27:15Z</time></trkpt><trkpt lat="44.92327567658744" lon="11.952383223557861"><ele>-2.8333333333333335</ele><time>2026-04-18T10:27:17Z</time></trkpt><trkpt lat="44.92328651212178" lon="11.95227187976178"><ele>-2.6666666666666665</ele><time>2026-04-18T10:27:19Z</time></trkpt><trkpt lat="44.92329053287459" lon="11.952159169335063"><ele>-2.5</ele><time>2026-04-18T10:27:21Z</time></trkpt><trkpt lat="44.92331081382736" lon="11.952026341924794"><ele>-2.333333333333333</ele><time>2026-04-18T10:27:23Z</time></trkpt><trkpt lat="44.92332681932339" lon="11.951898125149576"><ele>-2.1666666666666665</ele><time>2026-04-18T10:27:25Z</time></trkpt><trkpt lat="44.923353725120634" lon="11.951781995755255"><ele>-2.0</ele><time>2026-04-18T10:27:27Z</time></trkpt><trkpt lat="44.92336412743584" lon="11.951658936297868"><ele>-1.9999999999999998</ele><time>2026-04-18T10:27:29Z</time></trkpt><trkpt lat="44.92339338732892" lon="11.951547218450452"><ele>-2.0</ele><time>2026-04-18T10:27:31Z</time></trkpt><trkpt lat="44.92340781194782" lon="11.95143132115492"><ele>-2.0</ele><time>2026-04-18T10:27:33Z</time></trkpt><trkpt lat="44.92342470104518" lon="11.951324434513266"><ele>-2.0</ele><time>2026-04-18T10:27:35Z</time></trkpt><trkpt lat="44.92343059724804" lon="11.951223568003588"><ele>-1.9999999999999998</ele><time>2026-04-18T10:27:37Z</time></trkpt><trkpt lat="44.92344769832713" lon="11.951132904299634"><ele>-2.0</ele><time>2026-04-18T10:27:39Z</time></trkpt><trkpt lat="44.92349896451682" lon="11.95105563531836"><ele>-2.2</ele><time>2026-04-18T10:27:41Z</time></trkpt><trkpt lat="44.92357917067739" lon="11.951054401992518"><ele>-2.4000000000000004</ele><time>2026-04-18T10:27:43Z</time></trkpt><trkpt lat="44.923672668145386" lon="11.951031319278382"><ele>-2.5999999999999996</ele><time>2026-04-18T10:27:45Z</time></trkpt><trkpt lat="44.92376613423819" lon="11.951004799674909"><ele>-2.8</ele><time>2026-04-18T10:27:47Z</time></trkpt><trkpt lat="44.923860463095515" lon="11.950987643448931"><ele>-3.0</ele><time>2026-04-18T10:27:49Z</time></trkpt><trkpt lat="44.923951250826406" lon="11.950973334705283"><ele>-3.0</ele><time>2026-04-18T10:27:51Z</time></trkpt><trkpt lat="44.92403882585627" lon="11.950958535726475"><ele>-3.0</ele><time>2026-04-18T10:27:53Z</time></trkpt><trkpt lat="44.924125772146574" lon="11.950930068287107"><ele>-3.0</ele><time>2026-04-18T10:27:55Z</time></trkpt><trkpt lat="44.924213325866866" lon="11.950914543743224"><ele>-3.0</ele><time>2026-04-18T10:27:57Z</time></trkpt><trkpt lat="44.924298318206006" lon="11.950895202749681"><ele>-3.0</ele><time>2026-04-18T10:27:59Z</time></trkpt><trkpt lat="44.92438120757868" lon="11.9508719510545"><ele>-3.0</ele><time>2026-04-18T10:28:01Z</time></trkpt><trkpt lat="44.9244633380954" lon="11.95085530071403"><ele>-3.0</ele><time>2026-04-18T10:28:03Z</time></trkpt><trkpt lat="44.92454457291629" lon="11.950836055592662"><ele>-3.0</ele><time>2026-04-18T10:28:05Z</time></trkpt><trkpt lat="44.924634245297504" lon="11.950821862523341"><ele>-3.0</ele><time>2026-04-18T10:28:07Z</time></trkpt><trkpt lat="44.924729867729944" lon="11.950799703555145"><ele>-3.0</ele><time>2026-04-18T10:28:09Z</time></trkpt><trkpt lat="44.92482735408548" lon="11.95077712967394"><ele>-3.0</ele><time>2026-04-18T10:28:11Z</time></trkpt><trkpt lat="44.92492204409515" lon="11.950749626230419"><ele>-3.0</ele><time>2026-04-18T10:28:13Z</time></trkpt><trkpt lat="44.9250164842544" lon="11.95072205287517"><ele>-3.0</ele><time>2026-04-18T10:28:15Z</time></trkpt><trkpt lat="44.925109419138266" lon="11.950707445919507"><ele>-3.0</ele><time>2026-04-18T10:28:17Z</time></trkpt><trkpt lat="44.925194035415615" lon="11.950695634388964"><ele>-3.0</ele><time>2026-04-18T10:28:19Z</time></trkpt><trkpt lat="44.92528061073392" lon="11.950672071009254"><ele>-3.0</ele><time>2026-04-18T10:28:21Z</time></trkpt><trkpt lat="44.92537237357234" lon="11.950646027044852"><ele>-3.0</ele><time>2026-04-18T10:28:23Z</time></trkpt><trkpt lat="44.9254678641673" lon="11.950627760219403"><ele>-3.0</ele><time>2026-04-18T10:28:25Z</time></trkpt><trkpt lat="44.92555939201115" lon="11.950596283870016"><ele>-3.0</ele><time>2026-04-18T10:28:27Z</time></trkpt><trkpt lat="44.92565589923463" lon="11.950578171348038"><ele>-3.0</ele><time>2026-04-18T10:28:29Z</time></trkpt><trkpt lat="44.925751994356965" lon="11.95055425318817"><ele>-3.0</ele><time>2026-04-18T10:28:31Z</time></trkpt><trkpt lat="44.925847068559094" lon="11.95052954568064"><ele>-2.6</ele><time>2026-04-18T10:28:33Z</time></trkpt><trkpt lat="44.92594296885308" lon="11.95051113062529"><ele>-2.1999999999999997</ele><time>2026-04-18T10:28:35Z</time></trkpt><trkpt lat="44.926039663779235" lon="11.950486651594456"><ele>-1.8</ele><time>2026-04-18T10:28:37Z</time></trkpt><trkpt lat="44.92613824570238" lon="11.95046589079786"><ele>-1.4</ele><time>2026-04-18T10:28:39Z</time></trkpt><trkpt lat="44.92623296332676" lon="11.950448181886252"><ele>-1.0</ele><time>2026-04-18T10:28:41Z</time></trkpt><trkpt lat="44.92632759138262" lon="11.95041970133546"><ele>-1.0</ele><time>2026-04-18T10:28:43Z</time></trkpt><trkpt lat="44.926424853424514" lon="11.950404555315464"><ele>-1.0</ele><time>2026-04-18T10:28:45Z</time></trkpt><trkpt lat="44.926521282858936" lon="11.950386859385691"><ele>-1.0</ele><time>2026-04-18T10:28:47Z</time></trkpt><trkpt lat="44.9266146824904" lon="11.950361203572026"><ele>-1.0</ele><time>2026-04-18T10:28:49Z</time></trkpt><trkpt lat="44.92670965731816" lon="11.950340723251388"><ele>-1.0</ele><time>2026-04-18T10:28:51Z</time></trkpt><trkpt lat="44.92680252877921" lon="11.950317623025125"><ele>-1.0</ele><time>2026-04-18T10:28:53Z</time></trkpt><trkpt lat="44.92689628996257" lon="11.950295733415345"><ele>-1.0</ele><time>2026-04-18T10:28:55Z</time></trkpt><trkpt lat="44.92699176198541" lon="11.950277240680514"><ele>-1.0</ele><time>2026-04-18T10:28:57Z</time></trkpt><trkpt lat="44.92708798866414" lon="11.950257858486848"><ele>-1.0</ele><time>2026-04-18T10:28:59Z</time></trkpt><trkpt lat="44.92718149515545" lon="11.950234073476224"><ele>-1.0</ele><time>2026-04-18T10:29:01Z</time></trkpt><trkpt lat="44.92727816072125" lon="11.950212272999947"><ele>-1.0</ele><time>2026-04-18T10:29:03Z</time></trkpt><trkpt lat="44.92737202638688" lon="11.950188992051286"><ele>-1.0</ele><time>2026-04-18T10:29:05Z</time></trkpt><trkpt lat="44.9274678003359" lon="11.950174837111991"><ele>-1.0</ele><time>2026-04-18T10:29:07Z</time></trkpt><trkpt lat="44.92756358281591" lon="11.950146308590028"><ele>-1.0</ele><time>2026-04-18T10:29:09Z</time></trkpt><trkpt lat="44.927657293516674" lon="11.95012750814192"><ele>-1.0</ele><time>2026-04-18T10:29:11Z</time></trkpt><trkpt lat="44.927750894885826" lon="11.950111778549354"><ele>-1.2000000000000002</ele><time>2026-04-18T10:29:13Z</time></trkpt><trkpt lat="44.9278412234166" lon="11.95009499419793"><ele>-1.4000000000000001</ele><time>2026-04-18T10:29:15Z</time></trkpt><trkpt lat="44.92793003081556" lon="11.950074222592367"><ele>-1.6</ele><time>2026-04-18T10:29:17Z</time></trkpt><trkpt lat="44.92801459572494" lon="11.950052868968228"><ele>-1.8</ele><time>2026-04-18T10:29:19Z</time></trkpt><trkpt lat="44.9281026478577" lon="11.950027365478535"><ele>-2.0</ele><time>2026-04-18T10:29:21Z</time></trkpt><trkpt lat="44.928196544851524" lon="11.949997532375278"><ele>-2.2</ele><time>2026-04-18T10:29:23Z</time></trkpt><trkpt lat="44.92829433823125" lon="11.949980131396892"><ele>-2.4000000000000004</ele><time>2026-04-18T10:29:25Z</time></trkpt><trkpt lat="44.928387559080726" lon="11.949971091585518"><ele>-2.5999999999999996</ele><time>2026-04-18T10:29:27Z</time></trkpt><trkpt lat="44.92847910670608" lon="11.949950498987208"><ele>-2.8</ele><time>2026-04-18T10:29:29Z</time></trkpt><trkpt lat="44.92856974933877" lon="11.949934201677282"><ele>-3.0</ele><time>2026-04-18T10:29:31Z</time></trkpt><trkpt lat="44.92866566033584" lon="11.949914641819571"><ele>-3.0</ele><time>2026-04-18T10:29:33Z</time></trkpt><trkpt lat="44.928757687135366" lon="11.949888931342583"><ele>-3.0</ele><time>2026-04-18T10:29:35Z</time></trkpt><trkpt lat="44.92885226269803" lon="11.949869616596994"><ele>-3.0</ele><time>2026-04-18T10:29:37Z</time></trkpt><trkpt lat="44.92894795141118" lon="11.949848442501976"><ele>-3.0</ele><time>2026-04-18T10:29:39Z</time></trkpt><trkpt lat="44.92904213379929" lon="11.949825719343776"><ele>-3.0</ele><time>2026-04-18T10:29:41Z</time></trkpt><trkpt lat="44.92913334123063" lon="11.94980329120591"><ele>-3.0</ele><time>2026-04-18T10:29:43Z</time></trkpt><trkpt lat="44.92923203381421" lon="11.949780321207042"><ele>-3.0</ele><time>2026-04-18T10:29:45Z</time></trkpt><trkpt lat="44.929326275655654" lon="11.949755828754169"><ele>-3.0</ele><time>2026-04-18T10:29:47Z</time></trkpt><trkpt lat="44.929419193574674" lon="11.94974188647193"><ele>-3.0</ele><time>2026-04-18T10:29:49Z</time></trkpt><trkpt lat="44.92951578053692" lon="11.949724037556786"><ele>-3.0</ele><time>2026-04-18T10:29:51Z</time></trkpt><trkpt lat="44.929610474805436" lon="11.949695167531106"><ele>-3.0</ele><time>2026-04-18T10:29:53Z</time></trkpt><trkpt lat="44.929701827800656" lon="11.949676356158266"><ele>-3.0</ele><time>2026-04-18T10:29:55Z</time></trkpt><trkpt lat="44.92979515326198" lon="11.949661052824979"><ele>-3.0</ele><time>2026-04-18T10:29:57Z</time></trkpt><trkpt lat="44.92988894180819" lon="11.949641833577267"><ele>-3.0</ele><time>2026-04-18T10:29:59Z</time></trkpt><trkpt lat="44.929988309646994" lon="11.949614954845835"><ele>-3.0</ele><time>2026-04-18T10:30:01Z</time></trkpt><trkpt lat="44.930083042430404" lon="11.949595429741839"><ele>-3.2</ele><time>2026-04-18T10:30:03Z</time></trkpt><trkpt lat="44.93017896851476" lon="11.949572213290951"><ele>-3.4</ele><time>2026-04-18T10:30:05Z</time></trkpt><trkpt lat="44.930271500102016" lon="11.949550802018287"><ele>-3.6000000000000005</ele><time>2026-04-18T10:30:07Z</time></trkpt><trkpt lat="44.93036749861229" lon="11.949525260182956"><ele>-3.8000000000000003</ele><time>2026-04-18T10:30:09Z</time></trkpt><trkpt lat="44.93046303663474" lon="11.949499787101034"><ele>-4.0</ele><time>2026-04-18T10:30:11Z</time></trkpt><trkpt lat="44.93055599975467" lon="11.949473716850482"><ele>-3.9999999999999996</ele><time>2026-04-18T10:30:13Z</time></trkpt><trkpt lat="44.93065127413756" lon="11.949457249455296"><ele>-4.0</ele><time>2026-04-18T10:30:15Z</time></trkpt><trkpt lat="44.93074050734643" lon="11.949426229380114"><ele>-4.0</ele><time>2026-04-18T10:30:17Z</time></trkpt><trkpt lat="44.93082403070674" lon="11.94939977580501"><ele>-4.0</ele><time>2026-04-18T10:30:19Z</time></trkpt><trkpt lat="44.93090541243509" lon="11.949400389448863"><ele>-3.9999999999999996</ele><time>2026-04-18T10:30:21Z</time></trkpt><trkpt lat="44.930995669693246" lon="11.949386367406598"><ele>-4.0</ele><time>2026-04-18T10:30:23Z</time></trkpt><trkpt lat="44.931081607115786" lon="11.949338511805529"><ele>-3.9999999999999996</ele><time>2026-04-18T10:30:25Z</time></trkpt><trkpt lat="44.931170806205124" lon="11.949330511335255"><ele>-4.0</ele><time>2026-04-18T10:30:27Z</time></trkpt><trkpt lat="44.93125367420327" lon="11.94930864779632"><ele>-4.0</ele><time>2026-04-18T10:30:29Z</time></trkpt><trkpt lat="44.9313350292731" lon="11.94928958308957"><ele>-4.0</ele><time>2026-04-18T10:30:31Z</time></trkpt><trkpt lat="44.93141060507672" lon="11.94927412241935"><ele>-3.9999999999999996</ele><time>2026-04-18T10:30:33Z</time></trkpt><trkpt lat="44.93148647355151" lon="11.949239258737293"><ele>-4.0</ele><time>2026-04-18T10:30:35Z</time></trkpt><trkpt lat="44.93157994774047" lon="11.94923419922153"><ele>-3.9999999999999996</ele><time>2026-04-18T10:30:37Z</time></trkpt><trkpt lat="44.93167248353197" lon="11.949226940930814"><ele>-4.0</ele><time>2026-04-18T10:30:39Z</time></trkpt><trkpt lat="44.9317580956492" lon="11.949194395525327"><ele>-4.0</ele><time>2026-04-18T10:30:41Z</time></trkpt><trkpt lat="44.931846432703686" lon="11.949177084743873"><ele>-4.0</ele><time>2026-04-18T10:30:43Z</time></trkpt><trkpt lat="44.93193346824154" lon="11.949151536980805"><ele>-3.9999999999999996</ele><time>2026-04-18T10:30:45Z</time></trkpt><trkpt lat="44.93201681755743" lon="11.949126943575045"><ele>-4.0</ele><time>2026-04-18T10:30:47Z</time></trkpt><trkpt lat="44.93210214819236" lon="11.949118094651997"><ele>-3.9999999999999996</ele><time>2026-04-18T10:30:49Z</time></trkpt><trkpt lat="44.9321793216559" lon="11.949105987439784"><ele>-4.0</ele><time>2026-04-18T10:30:51Z</time></trkpt><trkpt lat="44.93225855615565" lon="11.949100981812279"><ele>-4.0</ele><time>2026-04-18T10:30:53Z</time></trkpt><trkpt lat="44.93235159692008" lon="11.949082389175008"><ele>-4.0</ele><time>2026-04-18T10:30:55Z</time></trkpt><trkpt lat="44.93244862236461" lon="11.94905438886293"><ele>-3.9999999999999996</ele><time>2026-04-18T10:30:57Z</time></trkpt><trkpt lat="44.93254477130365" lon="11.949035973442202"><ele>-4.0</ele><time>2026-04-18T10:30:59Z</time></trkpt><trkpt lat="44.932635830675025" lon="11.949013509569902"><ele>-4.0</ele><time>2026-04-18T10:31:01Z</time></trkpt><trkpt lat="44.93272754260564" lon="11.948997455896922"><ele>-4.0</ele><time>2026-04-18T10:31:03Z</time></trkpt><trkpt lat="44.93281327101339" lon="11.948970011696346"><ele>-4.0</ele><time>2026-04-18T10:31:05Z</time></trkpt><trkpt lat="44.932903144363166" lon="11.948941621432304"><ele>-4.0</ele><time>2026-04-18T10:31:07Z</time></trkpt><trkpt lat="44.93299869422343" lon="11.948923970884284"><ele>-4.0</ele><time>2026-04-18T10:31:09Z</time></trkpt><trkpt lat="44.9330864977936" lon="11.948901567731754"><ele>-3.9999999999999996</ele><time>2026-04-18T10:31:11Z</time></trkpt><trkpt lat="44.93316673120856" lon="11.948878313297834"><ele>-4.0</ele><time>2026-04-18T10:31:13Z</time></trkpt><trkpt lat="44.93325145761813" lon="11.948849273937283"><ele>-4.0</ele><time>2026-04-18T10:31:15Z</time></trkpt><trkpt lat="44.93334002354579" lon="11.948833708073145"><ele>-4.0</ele><time>2026-04-18T10:31:17Z</time></trkpt><trkpt lat="44.93342706972893" lon="11.948827010409769"><ele>-3.9999999999999996</ele><time>2026-04-18T10:31:19Z</time></trkpt><trkpt lat="44.933509792486674" lon="11.948807111378978"><ele>-4.0</ele><time>2026-04-18T10:31:21Z</time></trkpt><trkpt lat="44.93359340801866" lon="11.948773484010195"><ele>-3.833333333333333</ele><time>2026-04-18T10:31:23Z</time></trkpt><trkpt lat="44.93367341296697" lon="11.948755691923248"><ele>-3.6666666666666665</ele><time>2026-04-18T10:31:25Z</time></trkpt><trkpt lat="44.933754444542814" lon="11.948741817239766"><ele>-3.5</ele><time>2026-04-18T10:31:27Z</time></trkpt><trkpt lat="44.93382805406697" lon="11.948726938410703"><ele>-3.333333333333333</ele><time>2026-04-18T10:31:29Z</time></trkpt><trkpt lat="44.93389410375567" lon="11.948715176769701"><ele>-3.1666666666666665</ele><time>2026-04-18T10:31:31Z</time></trkpt><trkpt lat="44.93398332749416" lon="11.9486841022222"><ele>-3.0</ele><time>2026-04-18T10:31:34Z</time></trkpt><trkpt lat="44.93406326738147" lon="11.948665684354065"><ele>-3.0</ele><time>2026-04-18T10:31:37Z</time></trkpt><trkpt lat="44.93413896764626" lon="11.948652221329512"><ele>-3.0</ele><time>2026-04-18T10:31:40Z</time></trkpt><trkpt lat="44.9342283357121" lon="11.948617496906358"><ele>-3.0</ele><time>2026-04-18T10:31:43Z</time></trkpt><trkpt lat="44.934296980558926" lon="11.948619176942314"><ele>-3.0</ele><time>2026-04-18T10:31:45Z</time></trkpt><trkpt lat="44.93436269829776" lon="11.948617707657972"><ele>-3.0</ele><time>2026-04-18T10:31:47Z</time></trkpt><trkpt lat="44.93443057520744" lon="11.948600339328001"><ele>-3.0</ele><time>2026-04-18T10:31:49Z</time></trkpt><trkpt lat="44.9345137084515" lon="11.948561990103142"><ele>-3.0</ele><time>2026-04-18T10:31:51Z</time></trkpt><trkpt lat="44.93459296725217" lon="11.94854939790712"><ele>-3.0</ele><time>2026-04-18T10:31:53Z</time></trkpt><trkpt lat="44.934669768899745" lon="11.948544647930786"><ele>-3.0</ele><time>2026-04-18T10:31:55Z</time></trkpt><trkpt lat="44.934745292607865" lon="11.948526676254014"><ele>-3.0</ele><time>2026-04-18T10:31:57Z</time></trkpt><trkpt lat="44.93483170899911" lon="11.948502139982672"><ele>-3.0</ele><time>2026-04-18T10:31:59Z</time></trkpt><trkpt lat="44.93492367611324" lon="11.94848121488236"><ele>-3.0</ele><time>2026-04-18T10:32:01Z</time></trkpt><trkpt lat="44.93500815296665" lon="11.948458818627296"><ele>-3.0</ele><time>2026-04-18T10:32:03Z</time></trkpt><trkpt lat="44.935092352670715" lon="11.948451084780224"><ele>-3.0</ele><time>2026-04-18T10:32:05Z</time></trkpt><trkpt lat="44.935168831659375" lon="11.948432988635215"><ele>-3.0</ele><time>2026-04-18T10:32:07Z</time></trkpt><trkpt lat="44.93524524131888" lon="11.948409406937675"><ele>-3.0</ele><time>2026-04-18T10:32:09Z</time></trkpt><trkpt lat="44.93533393415714" lon="11.948386913187154"><ele>-3.0</ele><time>2026-04-18T10:32:11Z</time></trkpt><trkpt lat="44.935413405468545" lon="11.948370488026418"><ele>-3.0</ele><time>2026-04-18T10:32:13Z</time></trkpt><trkpt lat="44.935492193699844" lon="11.9483602784187"><ele>-3.0</ele><time>2026-04-18T10:32:15Z</time></trkpt><trkpt lat="44.935567501714274" lon="11.948348111847556"><ele>-3.0</ele><time>2026-04-18T10:32:17Z</time></trkpt><trkpt lat="44.93564828731317" lon="11.948327729834434"><ele>-3.0</ele><time>2026-04-18T10:32:19Z</time></trkpt><trkpt lat="44.93573851680476" lon="11.948303669813065"><ele>-3.0</ele><time>2026-04-18T10:32:21Z</time></trkpt><trkpt lat="44.93582459899057" lon="11.948282730682676"><ele>-3.0</ele><time>2026-04-18T10:32:23Z</time></trkpt><trkpt lat="44.93590360360664" lon="11.948258949473386"><ele>-3.0</ele><time>2026-04-18T10:32:25Z</time></trkpt><trkpt lat="44.93598081208679" lon="11.948240429036993"><ele>-3.0</ele><time>2026-04-18T10:32:27Z</time></trkpt><trkpt lat="44.936051109940756" lon="11.948231023226668"><ele>-3.0</ele><time>2026-04-18T10:32:29Z</time></trkpt><trkpt lat="44.93612827685985" lon="11.948216055780527"><ele>-3.0</ele><time>2026-04-18T10:32:31Z</time></trkpt><trkpt lat="44.936210219703185" lon="11.948190242932608"><ele>-3.0</ele><time>2026-04-18T10:32:33Z</time></trkpt><trkpt lat="44.93628898802738" lon="11.948171230689676"><ele>-3.0</ele><time>2026-04-18T10:32:35Z</time></trkpt><trkpt lat="44.936366412613" lon="11.948145651135848"><ele>-3.0</ele><time>2026-04-18T10:32:37Z</time></trkpt><trkpt lat="44.9364430041826" lon="11.948128903856512"><ele>-3.0</ele><time>2026-04-18T10:32:39Z</time></trkpt><trkpt lat="44.93652307631837" lon="11.948118202577314"><ele>-3.0</ele><time>2026-04-18T10:32:41Z</time></trkpt><trkpt lat="44.93660361085744" lon="11.948096254748982"><ele>-3.0</ele><time>2026-04-18T10:32:43Z</time></trkpt><trkpt lat="44.93667209431817" lon="11.948083604700843"><ele>-3.0</ele><time>2026-04-18T10:32:45Z</time></trkpt><trkpt lat="44.93674519981562" lon="11.94807425874474"><ele>-3.0</ele><time>2026-04-18T10:32:47Z</time></trkpt><trkpt lat="44.93682561344422" lon="11.948057908346001"><ele>-3.0</ele><time>2026-04-18T10:32:49Z</time></trkpt><trkpt lat="44.936904488048356" lon="11.948033437243911"><ele>-2.8333333333333335</ele><time>2026-04-18T10:32:51Z</time></trkpt><trkpt lat="44.936981262819444" lon="11.948014494136906"><ele>-2.6666666666666665</ele><time>2026-04-18T10:32:53Z</time></trkpt><trkpt lat="44.937055067050736" lon="11.948005665254518"><ele>-2.5</ele><time>2026-04-18T10:32:55Z</time></trkpt><trkpt lat="44.93712357503573" lon="11.947987939292844"><ele>-2.333333333333333</ele><time>2026-04-18T10:32:57Z</time></trkpt><trkpt lat="44.9372055019486" lon="11.94796709895785"><ele>-2.1666666666666665</ele><time>2026-04-18T10:32:59Z</time></trkpt><trkpt lat="44.9372876106394" lon="11.94794893703394"><ele>-2.0</ele><time>2026-04-18T10:33:01Z</time></trkpt><trkpt lat="44.93736296946509" lon="11.947918585832626"><ele>-1.9999999999999998</ele><time>2026-04-18T10:33:03Z</time></trkpt><trkpt lat="44.93743887312647" lon="11.947922682680836"><ele>-2.0</ele><time>2026-04-18T10:33:05Z</time></trkpt><trkpt lat="44.9375187874139" lon="11.947895940891007"><ele>-2.0</ele><time>2026-04-18T10:33:07Z</time></trkpt><trkpt lat="44.937611888343866" lon="11.947882111253595"><ele>-2.0</ele><time>2026-04-18T10:33:09Z</time></trkpt><trkpt lat="44.93770274377209" lon="11.947856622326796"><ele>-1.9999999999999998</ele><time>2026-04-18T10:33:11Z</time></trkpt><trkpt lat="44.93778855258381" lon="11.947845198366537"><ele>-2.0</ele><time>2026-04-18T10:33:13Z</time></trkpt><trkpt lat="44.93787026802168" lon="11.947816070433467"><ele>-1.9999999999999998</ele><time>2026-04-18T10:33:15Z</time></trkpt><trkpt lat="44.93794972118297" lon="11.94780980362112"><ele>-2.0</ele><time>2026-04-18T10:33:17Z</time></trkpt><trkpt lat="44.93802421082423" lon="11.947793244421476"><ele>-2.0</ele><time>2026-04-18T10:33:19Z</time></trkpt><trkpt lat="44.93811104026234" lon="11.947772740137848"><ele>-2.0</ele><time>2026-04-18T10:33:21Z</time></trkpt><trkpt lat="44.938193670905065" lon="11.947747937876956"><ele>-1.9999999999999998</ele><time>2026-04-18T10:33:23Z</time></trkpt><trkpt lat="44.93827294608362" lon="11.947722412036613"><ele>-2.0</ele><time>2026-04-18T10:33:25Z</time></trkpt><trkpt lat="44.938350720864584" lon="11.947715088572672"><ele>-2.1666666666666665</ele><time>2026-04-18T10:33:27Z</time></trkpt><trkpt lat="44.938434083273265" lon="11.947695384075699"><ele>-2.333333333333333</ele><time>2026-04-18T10:33:29Z</time></trkpt><trkpt lat="44.93851978158636" lon="11.947675896353179"><ele>-2.5</ele><time>2026-04-18T10:33:31Z</time></trkpt><trkpt lat="44.93859968958848" lon="11.947655917594323"><ele>-2.6666666666666665</ele><time>2026-04-18T10:33:33Z</time></trkpt><trkpt lat="44.938672643984" lon="11.947643033453273"><ele>-2.8333333333333335</ele><time>2026-04-18T10:33:35Z</time></trkpt><trkpt lat="44.93875273618002" lon="11.94761461075166"><ele>-3.0</ele><time>2026-04-18T10:33:37Z</time></trkpt><trkpt lat="44.93883981216532" lon="11.947593938358498"><ele>-3.0</ele><time>2026-04-18T10:33:39Z</time></trkpt><trkpt lat="44.938925831200656" lon="11.94757317582634"><ele>-3.0</ele><time>2026-04-18T10:33:41Z</time></trkpt><trkpt lat="44.93901118202527" lon="11.947557488063419"><ele>-3.0</ele><time>2026-04-18T10:33:43Z</time></trkpt><trkpt lat="44.93909229219581" lon="11.947544591290686"><ele>-3.0</ele><time>2026-04-18T10:33:45Z</time></trkpt><trkpt lat="44.939177347295875" lon="11.947526081054445"><ele>-3.0</ele><time>2026-04-18T10:33:47Z</time></trkpt><trkpt lat="44.93927520080688" lon="11.947507067260949"><ele>-3.0</ele><time>2026-04-18T10:33:49Z</time></trkpt><trkpt lat="44.939367972303195" lon="11.947490787582241"><ele>-3.0</ele><time>2026-04-18T10:33:51Z</time></trkpt><trkpt lat="44.93945596104567" lon="11.947468174540923"><ele>-3.0</ele><time>2026-04-18T10:33:53Z</time></trkpt><trkpt lat="44.93953680454072" lon="11.947444449720408"><ele>-3.0</ele><time>2026-04-18T10:33:55Z</time></trkpt><trkpt lat="44.93961407807146" lon="11.947426170501322"><ele>-3.0</ele><time>2026-04-18T10:33:57Z</time></trkpt><trkpt lat="44.93969108612371" lon="11.947417802155476"><ele>-3.0</ele><time>2026-04-18T10:33:59Z</time></trkpt><trkpt lat="44.93977880718076" lon="11.947406092997314"><ele>-3.0</ele><time>2026-04-18T10:34:01Z</time></trkpt><trkpt lat="44.93987339797437" lon="11.947370059050877"><ele>-3.0</ele><time>2026-04-18T10:34:03Z</time></trkpt><trkpt lat="44.939966144408146" lon="11.94734821831919"><ele>-3.0</ele><time>2026-04-18T10:34:05Z</time></trkpt><trkpt lat="44.940051212047536" lon="11.947329987382872"><ele>-3.0</ele><time>2026-04-18T10:34:07Z</time></trkpt><trkpt lat="44.94013277296276" lon="11.947312675956924"><ele>-3.0</ele><time>2026-04-18T10:34:09Z</time></trkpt><trkpt lat="44.94020963036089" lon="11.9472925885826"><ele>-3.0</ele><time>2026-04-18T10:34:11Z</time></trkpt><trkpt lat="44.940285454494045" lon="11.947282320838134"><ele>-3.0</ele><time>2026-04-18T10:34:13Z</time></trkpt><trkpt lat="44.940371968243554" lon="11.947264115703119"><ele>-2.6666666666666665</ele><time>2026-04-18T10:34:15Z</time></trkpt><trkpt lat="44.940460368376726" lon="11.947239274188641"><ele>-2.3333333333333335</ele><time>2026-04-18T10:34:17Z</time></trkpt><trkpt lat="44.94054224728493" lon="11.94722208726997"><ele>-2.0</ele><time>2026-04-18T10:34:19Z</time></trkpt><trkpt lat="44.94062218425097" lon="11.94720359893136"><ele>-1.6666666666666665</ele><time>2026-04-18T10:34:21Z</time></trkpt><trkpt lat="44.9406931019849" lon="11.947185621322419"><ele>-1.3333333333333333</ele><time>2026-04-18T10:34:23Z</time></trkpt><trkpt lat="44.94076205835126" lon="11.947174888365781"><ele>-1.0</ele><time>2026-04-18T10:34:25Z</time></trkpt><trkpt lat="44.94084538657384" lon="11.947148188996161"><ele>-0.9999999999999999</ele><time>2026-04-18T10:34:27Z</time></trkpt><trkpt lat="44.94092676292304" lon="11.947134783168021"><ele>-1.0</ele><time>2026-04-18T10:34:29Z</time></trkpt><trkpt lat="44.94101820652747" lon="11.947107452072347"><ele>-1.0</ele><time>2026-04-18T10:34:31Z</time></trkpt><trkpt lat="44.94110976868906" lon="11.947092637558923"><ele>-1.0</ele><time>2026-04-18T10:34:33Z</time></trkpt><trkpt lat="44.94120136961504" lon="11.947072051207776"><ele>-0.9999999999999999</ele><time>2026-04-18T10:34:35Z</time></trkpt><trkpt lat="44.94128817808473" lon="11.947051659319591"><ele>-1.0</ele><time>2026-04-18T10:34:37Z</time></trkpt><trkpt lat="44.941368176899736" lon="11.947026855063461"><ele>-1.0</ele><time>2026-04-18T10:34:39Z</time></trkpt><trkpt lat="44.94144196600567" lon="11.947013968965154"><ele>-0.9999999999999999</ele><time>2026-04-18T10:34:41Z</time></trkpt><trkpt lat="44.94151010419138" lon="11.947002689362332"><ele>-1.0</ele><time>2026-04-18T10:34:43Z</time></trkpt><trkpt lat="44.94157258896127" lon="11.946988062176993"><ele>-1.0</ele><time>2026-04-18T10:34:45Z</time></trkpt><trkpt lat="44.941640559733926" lon="11.946967263180262"><ele>-0.9999999999999999</ele><time>2026-04-18T10:34:47Z</time></trkpt><trkpt lat="44.94168770314413" lon="11.946880815431504"><ele>-1.0</ele><time>2026-04-18T10:34:49Z</time></trkpt><trkpt lat="44.94167313170471" lon="11.946772430001877"><ele>-1.0</ele><time>2026-04-18T10:34:51Z</time></trkpt><trkpt lat="44.941629798603195" lon="11.946697547494477"><ele>-0.8333333333333333</ele><time>2026-04-18T10:34:53Z</time></trkpt><trkpt lat="44.94160120112539" lon="11.946604589965702"><ele>-0.6666666666666666</ele><time>2026-04-18T10:34:55Z</time></trkpt><trkpt lat="44.941573265357135" lon="11.946512330582324"><ele>-0.5</ele><time>2026-04-18T10:34:57Z</time></trkpt><trkpt lat="44.94153523505272" lon="11.946397045387657"><ele>-0.3333333333333333</ele><time>2026-04-18T10:34:59Z</time></trkpt><trkpt lat="44.94149594248581" lon="11.946276668655427"><ele>-0.16666666666666666</ele><time>2026-04-18T10:35:01Z</time></trkpt><trkpt lat="44.941459149028496" lon="11.946156062960222"><ele>0.0</ele><time>2026-04-18T10:35:03Z</time></trkpt><trkpt lat="44.94142978724377" lon="11.94602811634592"><ele>0.0</ele><time>2026-04-18T10:35:05Z</time></trkpt><trkpt lat="44.94139937270739" lon="11.945902126169713"><ele>0.0</ele><time>2026-04-18T10:35:07Z</time></trkpt><trkpt lat="44.94137315882556" lon="11.94577920507554"><ele>0.0</ele><time>2026-04-18T10:35:09Z</time></trkpt><trkpt lat="44.9413513855735" lon="11.945645722704093"><ele>0.0</ele><time>2026-04-18T10:35:11Z</time></trkpt><trkpt lat="44.9413267438764" lon="11.945517315396776"><ele>0.0</ele><time>2026-04-18T10:35:13Z</time></trkpt><trkpt lat="44.94129791935734" lon="11.945390351205623"><ele>-0.2</ele><time>2026-04-18T10:35:15Z</time></trkpt><trkpt lat="44.94126828675345" lon="11.945263358326175"><ele>-0.4</ele><time>2026-04-18T10:35:17Z</time></trkpt><trkpt lat="44.94123499605148" lon="11.945136906277487"><ele>-0.6000000000000001</ele><time>2026-04-18T10:35:19Z</time></trkpt><trkpt lat="44.94118952856071" lon="11.945021360864315"><ele>-0.8</ele><time>2026-04-18T10:35:21Z</time></trkpt><trkpt lat="44.941136798692824" lon="11.944915005505761"><ele>-1.0</ele><time>2026-04-18T10:35:23Z</time></trkpt><trkpt lat="44.94108920300043" lon="11.944801041478902"><ele>-1.1666666666666665</ele><time>2026-04-18T10:35:25Z</time></trkpt><trkpt lat="44.941042285187876" lon="11.944694963572266"><ele>-1.3333333333333333</ele><time>2026-04-18T10:35:27Z</time></trkpt><trkpt lat="44.941000057369145" lon="11.94459134965106"><ele>-1.5</ele><time>2026-04-18T10:35:29Z</time></trkpt><trkpt lat="44.9409558564373" lon="11.944505461721292"><ele>-1.6666666666666665</ele><time>2026-04-18T10:35:31Z</time></trkpt><trkpt lat="44.940908377552205" lon="11.944400606308646"><ele>-1.8333333333333333</ele><time>2026-04-18T10:35:33Z</time></trkpt><trkpt lat="44.94085812200497" lon="11.944288378744348"><ele>-2.0</ele><time>2026-04-18T10:35:35Z</time></trkpt><trkpt lat="44.94081097225913" lon="11.944176695885911"><ele>-2.0</ele><time>2026-04-18T10:35:37Z</time></trkpt><trkpt lat="44.94076048672338" lon="11.944066131830791"><ele>-2.0</ele><time>2026-04-18T10:35:39Z</time></trkpt><trkpt lat="44.94070969554358" lon="11.943950863012182"><ele>-2.0</ele><time>2026-04-18T10:35:41Z</time></trkpt><trkpt lat="44.940655761561125" lon="11.943841565580655"><ele>-2.0</ele><time>2026-04-18T10:35:43Z</time></trkpt><trkpt lat="44.94061122696761" lon="11.943722405245971"><ele>-2.0</ele><time>2026-04-18T10:35:45Z</time></trkpt><trkpt lat="44.94055882838791" lon="11.943614208913157"><ele>-1.9999999999999998</ele><time>2026-04-18T10:35:47Z</time></trkpt><trkpt lat="44.94051711298826" lon="11.943510077125813"><ele>-2.0</ele><time>2026-04-18T10:35:49Z</time></trkpt><trkpt lat="44.94049912651432" lon="11.943396267633196"><ele>-2.0</ele><time>2026-04-18T10:35:51Z</time></trkpt><trkpt lat="44.940555865673105" lon="11.943308286275144"><ele>-2.0</ele><time>2026-04-18T10:35:53Z</time></trkpt><trkpt lat="44.9406325900846" lon="11.943302899909828"><ele>-1.9999999999999998</ele><time>2026-04-18T10:35:55Z</time></trkpt><trkpt lat="44.94071297903158" lon="11.943283343973869"><ele>-2.0</ele><time>2026-04-18T10:35:57Z</time></trkpt><trkpt lat="44.94078180452571" lon="11.943250760123886"><ele>-1.9999999999999998</ele><time>2026-04-18T10:35:59Z</time></trkpt><trkpt lat="44.940851059124455" lon="11.943224107289849"><ele>-2.0</ele><time>2026-04-18T10:36:01Z</time></trkpt><trkpt lat="44.94092132105726" lon="11.943192886774701"><ele>-2.0</ele><time>2026-04-18T10:36:04Z</time></trkpt><trkpt lat="44.94097685271215" lon="11.943137355343623"><ele>-2.0</ele><time>2026-04-18T10:36:06Z</time></trkpt><trkpt lat="44.9409938667882" lon="11.943020116940552"><ele>-1.9999999999999998</ele><time>2026-04-18T10:36:08Z</time></trkpt><trkpt lat="44.94095330248711" lon="11.942907306087257"><ele>-2.0</ele><time>2026-04-18T10:36:10Z</time></trkpt><trkpt lat="44.94091255662735" lon="11.942801766566454"><ele>-2.0</ele><time>2026-04-18T10:36:12Z</time></trkpt><trkpt lat="44.94087191716674" lon="11.942687123107662"><ele>-2.0</ele><time>2026-04-18T10:36:14Z</time></trkpt><trkpt lat="44.940831715614216" lon="11.94256713871667"><ele>-2.0</ele><time>2026-04-18T10:36:16Z</time></trkpt><trkpt lat="44.940794854470745" lon="11.942442521294389"><ele>-2.0</ele><time>2026-04-18T10:36:18Z</time></trkpt><trkpt lat="44.9407561429486" lon="11.942324135006428"><ele>-2.0</ele><time>2026-04-18T10:36:20Z</time></trkpt><trkpt lat="44.940708351353564" lon="11.94220861126474"><ele>-2.2</ele><time>2026-04-18T10:36:22Z</time></trkpt><trkpt lat="44.94065837625487" lon="11.942098237071054"><ele>-2.4000000000000004</ele><time>2026-04-18T10:36:24Z</time></trkpt><trkpt lat="44.94059625712997" lon="11.941999081447895"><ele>-2.5999999999999996</ele><time>2026-04-18T10:36:26Z</time></trkpt><trkpt lat="44.94052803615862" lon="11.94190986359481"><ele>-2.8</ele><time>2026-04-18T10:36:28Z</time></trkpt><trkpt lat="44.94044634385577" lon="11.941841439545408"><ele>-3.0</ele><time>2026-04-18T10:36:30Z</time></trkpt><trkpt lat="44.94036622558874" lon="11.941765922312863"><ele>-3.2</ele><time>2026-04-18T10:36:32Z</time></trkpt><trkpt lat="44.94028481965858" lon="11.941708285802298"><ele>-3.4</ele><time>2026-04-18T10:36:34Z</time></trkpt><trkpt lat="44.94020642700936" lon="11.941628245108598"><ele>-3.6000000000000005</ele><time>2026-04-18T10:36:36Z</time></trkpt><trkpt lat="44.94013359743714" lon="11.941531250358574"><ele>-3.8000000000000003</ele><time>2026-04-18T10:36:38Z</time></trkpt><trkpt lat="44.94008594107836" lon="11.941418464699582"><ele>-4.0</ele><time>2026-04-18T10:36:40Z</time></trkpt><trkpt lat="44.94004954692457" lon="11.941296808485788"><ele>-3.4000000000000004</ele><time>2026-04-18T10:36:42Z</time></trkpt><trkpt lat="44.9400196935615" lon="11.941173033421254"><ele>-2.8000000000000003</ele><time>2026-04-18T10:36:44Z</time></trkpt><trkpt lat="44.93999586071647" lon="11.941050391524202"><ele>-2.2</ele><time>2026-04-18T10:36:46Z</time></trkpt><trkpt lat="44.939977799830785" lon="11.940922168568294"><ele>-1.6</ele><time>2026-04-18T10:36:48Z</time></trkpt><trkpt lat="44.93995506703517" lon="11.940792754954998"><ele>-1.0</ele><time>2026-04-18T10:36:50Z</time></trkpt><trkpt lat="44.93993481814615" lon="11.940660258769299"><ele>-1.0</ele><time>2026-04-18T10:36:52Z</time></trkpt><trkpt lat="44.939917388281295" lon="11.940526975239175"><ele>-1.0</ele><time>2026-04-18T10:36:54Z</time></trkpt><trkpt lat="44.93989333369013" lon="11.940397679377439"><ele>-1.0</ele><time>2026-04-18T10:36:56Z</time></trkpt><trkpt lat="44.93986859154048" lon="11.94027210143228"><ele>-1.0</ele><time>2026-04-18T10:36:58Z</time></trkpt><trkpt lat="44.93985238718001" lon="11.940142127934699"><ele>-1.0</ele><time>2026-04-18T10:37:00Z</time></trkpt><trkpt lat="44.93982718721817" lon="11.940009777503223"><ele>-1.2000000000000002</ele><time>2026-04-18T10:37:02Z</time></trkpt><trkpt lat="44.93981476944636" lon="11.939874060246916"><ele>-1.4000000000000001</ele><time>2026-04-18T10:37:04Z</time></trkpt><trkpt lat="44.93980027349988" lon="11.939741637083243"><ele>-1.6</ele><time>2026-04-18T10:37:06Z</time></trkpt><trkpt lat="44.939789991352086" lon="11.93960784869699"><ele>-1.8</ele><time>2026-04-18T10:37:08Z</time></trkpt><trkpt lat="44.93978583579319" lon="11.93946065486944"><ele>-2.0</ele><time>2026-04-18T10:37:10Z</time></trkpt><trkpt lat="44.939801152913155" lon="11.939301930267662"><ele>-2.0</ele><time>2026-04-18T10:37:12Z</time></trkpt><trkpt lat="44.939793198877005" lon="11.93913338545925"><ele>-2.0</ele><time>2026-04-18T10:37:14Z</time></trkpt><trkpt lat="44.939831375256645" lon="11.9390620879728"><ele>-2.0</ele><time>2026-04-18T10:37:15Z</time></trkpt><trkpt lat="44.93987842538872" lon="11.938914354175884"><ele>-2.0</ele><time>2026-04-18T10:37:17Z</time></trkpt><trkpt lat="44.9399573581046" lon="11.938787237171008"><ele>-2.0</ele><time>2026-04-18T10:37:19Z</time></trkpt><trkpt lat="44.94003543654942" lon="11.938682015354917"><ele>-2.2</ele><time>2026-04-18T10:37:21Z</time></trkpt><trkpt lat="44.940095320386085" lon="11.938552975269348"><ele>-2.4000000000000004</ele><time>2026-04-18T10:37:23Z</time></trkpt><trkpt lat="44.94015892227788" lon="11.938439428540411"><ele>-2.5999999999999996</ele><time>2026-04-18T10:37:25Z</time></trkpt><trkpt lat="44.94021866599484" lon="11.93833384046354"><ele>-2.8</ele><time>2026-04-18T10:37:27Z</time></trkpt><trkpt lat="44.94028236165584" lon="11.938227284929047"><ele>-3.0</ele><time>2026-04-18T10:37:29Z</time></trkpt><trkpt lat="44.940339452754635" lon="11.938131798508193"><ele>-3.0</ele><time>2026-04-18T10:37:31Z</time></trkpt><trkpt lat="44.94039347553387" lon="11.938041291933528"><ele>-3.0</ele><time>2026-04-18T10:37:33Z</time></trkpt><trkpt lat="44.940443777748115" lon="11.93794339949876"><ele>-3.0</ele><time>2026-04-18T10:37:35Z</time></trkpt><trkpt lat="44.940504434017036" lon="11.93784160786866"><ele>-3.0</ele><time>2026-04-18T10:37:37Z</time></trkpt><trkpt lat="44.94056395009544" lon="11.937742156333016"><ele>-3.0</ele><time>2026-04-18T10:37:39Z</time></trkpt><trkpt lat="44.940624244620764" lon="11.937632580719626"><ele>-3.2</ele><time>2026-04-18T10:37:41Z</time></trkpt><trkpt lat="44.940686868720135" lon="11.937521869987304"><ele>-3.4</ele><time>2026-04-18T10:37:43Z</time></trkpt><trkpt lat="44.94074390085732" lon="11.93741237051699"><ele>-3.6000000000000005</ele><time>2026-04-18T10:37:45Z</time></trkpt><trkpt lat="44.94081506877171" lon="11.937323536585374"><ele>-3.8000000000000003</ele><time>2026-04-18T10:37:47Z</time></trkpt><trkpt lat="44.94087585528418" lon="11.937218831998388"><ele>-4.0</ele><time>2026-04-18T10:37:49Z</time></trkpt><trkpt lat="44.94093531157904" lon="11.93711641896759"><ele>-3.6666666666666665</ele><time>2026-04-18T10:37:51Z</time></trkpt><trkpt lat="44.94099329026016" lon="11.937016550586671"><ele>-3.333333333333333</ele><time>2026-04-18T10:37:53Z</time></trkpt><trkpt lat="44.94105088353106" lon="11.9369173463071"><ele>-3.0</ele><time>2026-04-18T10:37:55Z</time></trkpt><trkpt lat="44.94110647164387" lon="11.936821595951825"><ele>-2.6666666666666665</ele><time>2026-04-18T10:37:57Z</time></trkpt><trkpt lat="44.94116141901108" lon="11.936725666719177"><ele>-2.333333333333333</ele><time>2026-04-18T10:37:59Z</time></trkpt><trkpt lat="44.941214856264146" lon="11.936631854076388"><ele>-2.0</ele><time>2026-04-18T10:38:01Z</time></trkpt><trkpt lat="44.941270065580625" lon="11.936534930374682"><ele>-2.0</ele><time>2026-04-18T10:38:03Z</time></trkpt><trkpt lat="44.94132798434114" lon="11.936433250113431"><ele>-2.0</ele><time>2026-04-18T10:38:05Z</time></trkpt><trkpt lat="44.941388861753786" lon="11.936326375638687"><ele>-2.0</ele><time>2026-04-18T10:38:07Z</time></trkpt><trkpt lat="44.9414389448964" lon="11.93621139597743"><ele>-2.0</ele><time>2026-04-18T10:38:09Z</time></trkpt><trkpt lat="44.94150981261036" lon="11.936113685107014"><ele>-2.0</ele><time>2026-04-18T10:38:11Z</time></trkpt><trkpt lat="44.941554969771744" lon="11.935996596285658"><ele>-2.0</ele><time>2026-04-18T10:38:13Z</time></trkpt><trkpt lat="44.941628215057975" lon="11.935904035956474"><ele>-2.0</ele><time>2026-04-18T10:38:15Z</time></trkpt><trkpt lat="44.94168700233271" lon="11.935799944314343"><ele>-2.0</ele><time>2026-04-18T10:38:17Z</time></trkpt><trkpt lat="44.94173430954874" lon="11.935682224504252"><ele>-2.0</ele><time>2026-04-18T10:38:19Z</time></trkpt><trkpt lat="44.94179247736546" lon="11.93557674192257"><ele>-2.0</ele><time>2026-04-18T10:38:21Z</time></trkpt><trkpt lat="44.941853432876" lon="11.935475266320221"><ele>-2.1666666666666665</ele><time>2026-04-18T10:38:23Z</time></trkpt><trkpt lat="44.94191869876654" lon="11.935389691123563"><ele>-2.333333333333333</ele><time>2026-04-18T10:38:25Z</time></trkpt><trkpt lat="44.94196249981176" lon="11.935279613148337"><ele>-2.5</ele><time>2026-04-18T10:38:27Z</time></trkpt><trkpt lat="44.94201117920929" lon="11.935190813556273"><ele>-2.6666666666666665</ele><time>2026-04-18T10:38:29Z</time></trkpt><trkpt lat="44.942058170672226" lon="11.935106637153728"><ele>-2.8333333333333335</ele><time>2026-04-18T10:38:31Z</time></trkpt><trkpt lat="44.9421071827497" lon="11.935019644512659"><ele>-3.0</ele><time>2026-04-18T10:38:33Z</time></trkpt><trkpt lat="44.94217566394768" lon="11.934934695814055"><ele>-3.0</ele><time>2026-04-18T10:38:35Z</time></trkpt><trkpt lat="44.94221695697511" lon="11.934824016120947"><ele>-3.0</ele><time>2026-04-18T10:38:37Z</time></trkpt><trkpt lat="44.94227025143528" lon="11.934731908781881"><ele>-3.0</ele><time>2026-04-18T10:38:39Z</time></trkpt><trkpt lat="44.94234200098958" lon="11.93464017115364"><ele>-3.0</ele><time>2026-04-18T10:38:41Z</time></trkpt><trkpt lat="44.942403415306245" lon="11.934530725371197"><ele>-3.0</ele><time>2026-04-18T10:38:43Z</time></trkpt><trkpt lat="44.94246142348675" lon="11.934427271758038"><ele>-3.0</ele><time>2026-04-18T10:38:45Z</time></trkpt><trkpt lat="44.94252127220608" lon="11.934320535627366"><ele>-3.0</ele><time>2026-04-18T10:38:47Z</time></trkpt><trkpt lat="44.942576683992684" lon="11.934221712498534"><ele>-3.0</ele><time>2026-04-18T10:38:49Z</time></trkpt><trkpt lat="44.942636304006506" lon="11.93411538437272"><ele>-3.0</ele><time>2026-04-18T10:38:51Z</time></trkpt><trkpt lat="44.94269648448389" lon="11.93400805672004"><ele>-3.0</ele><time>2026-04-18T10:38:53Z</time></trkpt><trkpt lat="44.94274285565826" lon="11.933889324088598"><ele>-3.0</ele><time>2026-04-18T10:38:55Z</time></trkpt><trkpt lat="44.94281277413239" lon="11.933798112271356"><ele>-3.0</ele><time>2026-04-18T10:38:57Z</time></trkpt><trkpt lat="44.94285749540098" lon="11.933680775893674"><ele>-3.0</ele><time>2026-04-18T10:38:59Z</time></trkpt><trkpt lat="44.94291503853564" lon="11.93357472483606"><ele>-3.0</ele><time>2026-04-18T10:39:01Z</time></trkpt><trkpt lat="44.94298576625502" lon="11.933483563809618"><ele>-3.0</ele><time>2026-04-18T10:39:03Z</time></trkpt><trkpt lat="44.943034331675804" lon="11.933361936964744"><ele>-2.8</ele><time>2026-04-18T10:39:05Z</time></trkpt><trkpt lat="44.94309220061887" lon="11.93325187535797"><ele>-2.5999999999999996</ele><time>2026-04-18T10:39:07Z</time></trkpt><trkpt lat="44.94315098617762" lon="11.933148748575968"><ele>-2.4000000000000004</ele><time>2026-04-18T10:39:09Z</time></trkpt><trkpt lat="44.943207588033204" lon="11.93304268533048"><ele>-2.2</ele><time>2026-04-18T10:39:11Z</time></trkpt><trkpt lat="44.94327886655484" lon="11.932947726061489"><ele>-2.0</ele><time>2026-04-18T10:39:13Z</time></trkpt><trkpt lat="44.94332566702733" lon="11.932827638951968"><ele>-2.2</ele><time>2026-04-18T10:39:15Z</time></trkpt><trkpt lat="44.94338459962778" lon="11.932718157191887"><ele>-2.4000000000000004</ele><time>2026-04-18T10:39:17Z</time></trkpt><trkpt lat="44.94344152573469" lon="11.932611967562224"><ele>-2.5999999999999996</ele><time>2026-04-18T10:39:19Z</time></trkpt><trkpt lat="44.943500154418324" lon="11.932503434488192"><ele>-2.8</ele><time>2026-04-18T10:39:21Z</time></trkpt><trkpt lat="44.943561469558844" lon="11.93240006508246"><ele>-3.0</ele><time>2026-04-18T10:39:23Z</time></trkpt><trkpt lat="44.94362497457646" lon="11.932306236901885"><ele>-3.0</ele><time>2026-04-18T10:39:25Z</time></trkpt><trkpt lat="44.94368947922611" lon="11.93221190852763"><ele>-3.0</ele><time>2026-04-18T10:39:27Z</time></trkpt><trkpt lat="44.9437620940735" lon="11.932147335367402"><ele>-3.0</ele><time>2026-04-18T10:39:29Z</time></trkpt><trkpt lat="44.943823300895694" lon="11.932080220187405"><ele>-3.0</ele><time>2026-04-18T10:39:31Z</time></trkpt><trkpt lat="44.94389707216326" lon="11.932007006514857"><ele>-3.0</ele><time>2026-04-18T10:39:33Z</time></trkpt><trkpt lat="44.943975137241836" lon="11.931931522906371"><ele>-3.0</ele><time>2026-04-18T10:39:35Z</time></trkpt><trkpt lat="44.94405199289981" lon="11.931834069757103"><ele>-3.0</ele><time>2026-04-18T10:39:37Z</time></trkpt><trkpt lat="44.944140488260416" lon="11.931765205068896"><ele>-3.0</ele><time>2026-04-18T10:39:39Z</time></trkpt><trkpt lat="44.94423245093623" lon="11.931701445981815"><ele>-3.0</ele><time>2026-04-18T10:39:41Z</time></trkpt><trkpt lat="44.9443175730518" lon="11.931626354400068"><ele>-3.0</ele><time>2026-04-18T10:39:43Z</time></trkpt><trkpt lat="44.9443939859994" lon="11.931533490366729"><ele>-3.0</ele><time>2026-04-18T10:39:45Z</time></trkpt><trkpt lat="44.94447348503736" lon="11.931463978797316"><ele>-2.4</ele><time>2026-04-18T10:39:47Z</time></trkpt><trkpt lat="44.944552839930864" lon="11.931388293241206"><ele>-1.7999999999999998</ele><time>2026-04-18T10:39:49Z</time></trkpt><trkpt lat="44.94463643229888" lon="11.931315635033503"><ele>-1.2</ele><time>2026-04-18T10:39:51Z</time></trkpt><trkpt lat="44.944724854981764" lon="11.93126001117666"><ele>-0.6</ele><time>2026-04-18T10:39:53Z</time></trkpt><trkpt lat="44.94479729582559" lon="11.931168172102234"><ele>0.0</ele><time>2026-04-18T10:39:55Z</time></trkpt><trkpt lat="44.94489237814949" lon="11.931118262993435"><ele>0.0</ele><time>2026-04-18T10:39:57Z</time></trkpt><trkpt lat="44.94497328394305" lon="11.931060530204338"><ele>0.0</ele><time>2026-04-18T10:39:59Z</time></trkpt><trkpt lat="44.945057461083806" lon="11.93101682858812"><ele>0.0</ele><time>2026-04-18T10:40:01Z</time></trkpt><trkpt lat="44.945146210830046" lon="11.931001837438663"><ele>0.0</ele><time>2026-04-18T10:40:03Z</time></trkpt><trkpt lat="44.945238763354396" lon="11.93099329738013"><ele>0.0</ele><time>2026-04-18T10:40:05Z</time></trkpt><trkpt lat="44.94533434393984" lon="11.930987310725413"><ele>-0.4</ele><time>2026-04-18T10:40:07Z</time></trkpt><trkpt lat="44.94543235277507" lon="11.930983049474799"><ele>-0.8</ele><time>2026-04-18T10:40:09Z</time></trkpt><trkpt lat="44.945530841097515" lon="11.930978767367712"><ele>-1.2000000000000002</ele><time>2026-04-18T10:40:11Z</time></trkpt><trkpt lat="44.94563141177724" lon="11.930974394734479"><ele>-1.6</ele><time>2026-04-18T10:40:13Z</time></trkpt><trkpt lat="44.94573405211498" lon="11.930969932115564"><ele>-2.0</ele><time>2026-04-18T10:40:15Z</time></trkpt><trkpt lat="44.945836243954446" lon="11.930965488987148"><ele>-2.2</ele><time>2026-04-18T10:40:17Z</time></trkpt><trkpt lat="44.94593454388507" lon="11.93096121507352"><ele>-2.4000000000000004</ele><time>2026-04-18T10:40:19Z</time></trkpt><trkpt lat="44.94603097877356" lon="11.930957022255388"><ele>-2.5999999999999996</ele><time>2026-04-18T10:40:21Z</time></trkpt><trkpt lat="44.94612515226377" lon="11.93095292775323"><ele>-2.8</ele><time>2026-04-18T10:40:23Z</time></trkpt><trkpt lat="44.94621814375682" lon="11.93094888464501"><ele>-3.0</ele><time>2026-04-18T10:40:25Z</time></trkpt><trkpt lat="44.94631323298974" lon="11.930944750331099"><ele>-3.0</ele><time>2026-04-18T10:40:27Z</time></trkpt><trkpt lat="44.946406466797306" lon="11.930940696690715"><ele>-3.0</ele><time>2026-04-18T10:40:29Z</time></trkpt><trkpt lat="44.9465005110881" lon="11.93093660780707"><ele>-3.0</ele><time>2026-04-18T10:40:31Z</time></trkpt><trkpt lat="44.9465931553108" lon="11.930932579796732"><ele>-3.0</ele><time>2026-04-18T10:40:33Z</time></trkpt><trkpt lat="44.94668778521751" lon="11.930928465449453"><ele>-3.0</ele><time>2026-04-18T10:40:35Z</time></trkpt><trkpt lat="44.94678227264872" lon="11.930924357300698"><ele>-2.8</ele><time>2026-04-18T10:40:37Z</time></trkpt><trkpt lat="44.94687728617023" lon="11.93092022627648"><ele>-2.5999999999999996</ele><time>2026-04-18T10:40:39Z</time></trkpt><trkpt lat="44.94697289176858" lon="11.930916069517686"><ele>-2.4000000000000004</ele><time>2026-04-18T10:40:41Z</time></trkpt><trkpt lat="44.94706876682273" lon="11.93091190103251"><ele>-2.2</ele><time>2026-04-18T10:40:43Z</time></trkpt><trkpt lat="44.94716485342196" lon="11.930905218742236"><ele>-2.0</ele><time>2026-04-18T10:40:45Z</time></trkpt><trkpt lat="44.94725395066852" lon="11.930871457603446"><ele>-2.0</ele><time>2026-04-18T10:40:47Z</time></trkpt><trkpt lat="44.947338949998574" lon="11.930861268330577"><ele>-2.0</ele><time>2026-04-18T10:40:49Z</time></trkpt><trkpt lat="44.947421182798884" lon="11.930853813455812"><ele>-2.0</ele><time>2026-04-18T10:40:51Z</time></trkpt><trkpt lat="44.94745820881181" lon="11.93075638052295"><ele>-2.0</ele><time>2026-04-18T10:40:53Z</time></trkpt><trkpt lat="44.94756933433458" lon="11.930851467317153"><ele>-2.0</ele><time>2026-04-18T10:40:55Z</time></trkpt><trkpt lat="44.947654531284336" lon="11.93082841548001"><ele>-1.9999999999999998</ele><time>2026-04-18T10:40:57Z</time></trkpt><trkpt lat="44.94774629164577" lon="11.930817054461015"><ele>-2.0</ele><time>2026-04-18T10:40:59Z</time></trkpt><trkpt lat="44.94783869551979" lon="11.930804250129826"><ele>-2.0</ele><time>2026-04-18T10:41:02Z</time></trkpt><trkpt lat="44.947905337896195" lon="11.930784446925298"><ele>-2.0</ele><time>2026-04-18T10:41:04Z</time></trkpt><trkpt lat="44.94799595540295" lon="11.930799381548997"><ele>-1.9999999999999998</ele><time>2026-04-18T10:41:06Z</time></trkpt><trkpt lat="44.9480815307418" lon="11.930768762779419"><ele>-2.0</ele><time>2026-04-18T10:41:08Z</time></trkpt><trkpt lat="44.94816778516661" lon="11.930744048114844"><ele>-2.0</ele><time>2026-04-18T10:41:10Z</time></trkpt><trkpt lat="44.94825275519021" lon="11.930711376262513"><ele>-2.0</ele><time>2026-04-18T10:41:12Z</time></trkpt><trkpt lat="44.948342401054106" lon="11.930677737056051"><ele>-2.0</ele><time>2026-04-18T10:41:14Z</time></trkpt><trkpt lat="44.94843472470445" lon="11.930643412340922"><ele>-2.0</ele><time>2026-04-18T10:41:16Z</time></trkpt><trkpt lat="44.94852601103616" lon="11.93060747243038"><ele>-2.0</ele><time>2026-04-18T10:41:18Z</time></trkpt><trkpt lat="44.94861724122789" lon="11.930571716784527"><ele>-2.0</ele><time>2026-04-18T10:41:20Z</time></trkpt><trkpt lat="44.94870763202524" lon="11.930533987910826"><ele>-2.0</ele><time>2026-04-18T10:41:22Z</time></trkpt><trkpt lat="44.94879967952947" lon="11.930497567225455"><ele>-2.0</ele><time>2026-04-18T10:41:24Z</time></trkpt><trkpt lat="44.948889565754016" lon="11.93046357559113"><ele>-2.0</ele><time>2026-04-18T10:41:26Z</time></trkpt><trkpt lat="44.9489805954307" lon="11.93042701329554"><ele>-2.0</ele><time>2026-04-18T10:41:28Z</time></trkpt><trkpt lat="44.94907276066363" lon="11.93038674374793"><ele>-2.0</ele><time>2026-04-18T10:41:30Z</time></trkpt><trkpt lat="44.949167056276025" lon="11.930352435130132"><ele>-2.0</ele><time>2026-04-18T10:41:32Z</time></trkpt><trkpt lat="44.949258290222204" lon="11.930309362754445"><ele>-2.0</ele><time>2026-04-18T10:41:34Z</time></trkpt><trkpt lat="44.949349700710506" lon="11.930267812923564"><ele>-2.0</ele><time>2026-04-18T10:41:36Z</time></trkpt><trkpt lat="44.94944239835907" lon="11.930242131463991"><ele>-2.0</ele><time>2026-04-18T10:41:38Z</time></trkpt><trkpt lat="44.94953210229172" lon="11.930206702989556"><ele>-1.9999999999999998</ele><time>2026-04-18T10:41:40Z</time></trkpt><trkpt lat="44.94962778512944" lon="11.930178040655907"><ele>-2.0</ele><time>2026-04-18T10:41:42Z</time></trkpt><trkpt lat="44.94971787017831" lon="11.930131255133563"><ele>-2.0</ele><time>2026-04-18T10:41:44Z</time></trkpt><trkpt lat="44.949804828877944" lon="11.930097220733208"><ele>-2.0</ele><time>2026-04-18T10:41:46Z</time></trkpt><trkpt lat="44.94988655304108" lon="11.930057659930101"><ele>-1.9999999999999998</ele><time>2026-04-18T10:41:48Z</time></trkpt><trkpt lat="44.949957263452426" lon="11.930010472932532"><ele>-2.0</ele><time>2026-04-18T10:41:50Z</time></trkpt><trkpt lat="44.95004952973135" lon="11.929980776850131"><ele>-1.9999999999999998</ele><time>2026-04-18T10:41:52Z</time></trkpt><trkpt lat="44.950138566736655" lon="11.92994482607896"><ele>-2.0</ele><time>2026-04-18T10:41:54Z</time></trkpt><trkpt lat="44.950231879221064" lon="11.92990888119635"><ele>-2.0</ele><time>2026-04-18T10:41:56Z</time></trkpt><trkpt lat="44.950318054005436" lon="11.929871199958082"><ele>-2.0</ele><time>2026-04-18T10:41:58Z</time></trkpt><trkpt lat="44.95040354049329" lon="11.929843170422366"><ele>-1.9999999999999998</ele><time>2026-04-18T10:42:00Z</time></trkpt><trkpt lat="44.95047779646666" lon="11.929807791959153"><ele>-2.0</ele><time>2026-04-18T10:42:02Z</time></trkpt><trkpt lat="44.95055241555986" lon="11.929782167998379"><ele>-1.9999999999999998</ele><time>2026-04-18T10:42:04Z</time></trkpt><trkpt lat="44.95062930011325" lon="11.92974908096669"><ele>-2.0</ele><time>2026-04-18T10:42:06Z</time></trkpt><trkpt lat="44.950715501862085" lon="11.929715376174812"><ele>-2.0</ele><time>2026-04-18T10:42:08Z</time></trkpt><trkpt lat="44.950795530991556" lon="11.92967803341026"><ele>-2.0</ele><time>2026-04-18T10:42:10Z</time></trkpt><trkpt lat="44.9508701178724" lon="11.929647222900902"><ele>-1.9999999999999998</ele><time>2026-04-18T10:42:12Z</time></trkpt><trkpt lat="44.950952191173734" lon="11.929622626541644"><ele>-2.0</ele><time>2026-04-18T10:42:14Z</time></trkpt><trkpt lat="44.951020647185764" lon="11.929583951603806"><ele>-1.9999999999999998</ele><time>2026-04-18T10:42:16Z</time></trkpt><trkpt lat="44.95110236460834" lon="11.92955536359323"><ele>-2.0</ele><time>2026-04-18T10:42:18Z</time></trkpt><trkpt lat="44.95118093972265" lon="11.92952557459407"><ele>-2.0</ele><time>2026-04-18T10:42:20Z</time></trkpt><trkpt lat="44.951252094731096" lon="11.929492996898352"><ele>-2.0</ele><time>2026-04-18T10:42:22Z</time></trkpt><trkpt lat="44.95132956047806" lon="11.929459694592227"><ele>-1.9999999999999998</ele><time>2026-04-18T10:42:24Z</time></trkpt><trkpt lat="44.95139950878013" lon="11.929433335289222"><ele>-2.0</ele><time>2026-04-18T10:42:26Z</time></trkpt><trkpt lat="44.951466860356845" lon="11.929408505544675"><ele>-1.9999999999999998</ele><time>2026-04-18T10:42:28Z</time></trkpt><trkpt lat="44.951547193557985" lon="11.929375841800413"><ele>-2.0</ele><time>2026-04-18T10:42:30Z</time></trkpt><trkpt lat="44.951620700077626" lon="11.929347340665666"><ele>-2.0</ele><time>2026-04-18T10:42:32Z</time></trkpt><trkpt lat="44.95169215188502" lon="11.929316782773869"><ele>-2.0</ele><time>2026-04-18T10:42:34Z</time></trkpt><trkpt lat="44.951773726678795" lon="11.929281501962251"><ele>-1.9999999999999998</ele><time>2026-04-18T10:42:36Z</time></trkpt><trkpt lat="44.95185804109137" lon="11.929245404605322"><ele>-2.0</ele><time>2026-04-18T10:42:38Z</time></trkpt><trkpt lat="44.95193471902756" lon="11.929218062121059"><ele>-2.1666666666666665</ele><time>2026-04-18T10:42:40Z</time></trkpt><trkpt lat="44.9520083829392" lon="11.929188215873097"><ele>-2.333333333333333</ele><time>2026-04-18T10:42:42Z</time></trkpt><trkpt lat="44.952081575647284" lon="11.929158119995359"><ele>-2.5</ele><time>2026-04-18T10:42:44Z</time></trkpt><trkpt lat="44.95216410532449" lon="11.929126607433995"><ele>-2.6666666666666665</ele><time>2026-04-18T10:42:46Z</time></trkpt><trkpt lat="44.952242871284284" lon="11.929093242853572"><ele>-2.8333333333333335</ele><time>2026-04-18T10:42:48Z</time></trkpt><trkpt lat="44.95232185621836" lon="11.929061695014452"><ele>-3.0</ele><time>2026-04-18T10:42:50Z</time></trkpt><trkpt lat="44.9523936066303" lon="11.92903504139409"><ele>-3.0</ele><time>2026-04-18T10:42:52Z</time></trkpt><trkpt lat="44.95245956189566" lon="11.929011811564271"><ele>-3.0</ele><time>2026-04-18T10:42:54Z</time></trkpt><trkpt lat="44.952540693058644" lon="11.928978589309155"><ele>-3.0</ele><time>2026-04-18T10:42:56Z</time></trkpt><trkpt lat="44.952626285192835" lon="11.928942570034984"><ele>-3.0</ele><time>2026-04-18T10:42:58Z</time></trkpt><trkpt lat="44.95271310624705" lon="11.928906384381678"><ele>-3.0</ele><time>2026-04-18T10:43:00Z</time></trkpt><trkpt lat="44.95280590376464" lon="11.928868939796592"><ele>-3.0</ele><time>2026-04-18T10:43:02Z</time></trkpt><trkpt lat="44.95289680673882" lon="11.928832686887901"><ele>-2.8333333333333335</ele><time>2026-04-18T10:43:04Z</time></trkpt><trkpt lat="44.95298360721745" lon="11.928794701066359"><ele>-2.6666666666666665</ele><time>2026-04-18T10:43:06Z</time></trkpt><trkpt lat="44.95305811931679" lon="11.928764322913421"><ele>-2.5</ele><time>2026-04-18T10:43:08Z</time></trkpt><trkpt lat="44.953129987526744" lon="11.928736949367655"><ele>-2.333333333333333</ele><time>2026-04-18T10:43:10Z</time></trkpt><trkpt lat="44.95321857809764" lon="11.92871211006608"><ele>-2.1666666666666665</ele><time>2026-04-18T10:43:12Z</time></trkpt><trkpt lat="44.953298317638975" lon="11.928678128222053"><ele>-2.0</ele><time>2026-04-18T10:43:14Z</time></trkpt><trkpt lat="44.95337033329593" lon="11.928649594917578"><ele>-2.2</ele><time>2026-04-18T10:43:16Z</time></trkpt><trkpt lat="44.953447550194035" lon="11.928616520636066"><ele>-2.4000000000000004</ele><time>2026-04-18T10:43:18Z</time></trkpt><trkpt lat="44.953534653425464" lon="11.928584467869886"><ele>-2.5999999999999996</ele><time>2026-04-18T10:43:20Z</time></trkpt><trkpt lat="44.95362728367494" lon="11.928545473909056"><ele>-2.8</ele><time>2026-04-18T10:43:22Z</time></trkpt><trkpt lat="44.95371753432402" lon="11.928511349543895"><ele>-3.0</ele><time>2026-04-18T10:43:24Z</time></trkpt><trkpt lat="44.95380550184281" lon="11.92847527335335"><ele>-3.0</ele><time>2026-04-18T10:43:26Z</time></trkpt><trkpt lat="44.95389120071834" lon="11.928442079526231"><ele>-3.0</ele><time>2026-04-18T10:43:28Z</time></trkpt><trkpt lat="44.95397434610489" lon="11.928406233940182"><ele>-3.0</ele><time>2026-04-18T10:43:30Z</time></trkpt><trkpt lat="44.9540524622559" lon="11.928378133804127"><ele>-3.0</ele><time>2026-04-18T10:43:32Z</time></trkpt><trkpt lat="44.954132607262615" lon="11.928346816446307"><ele>-3.0</ele><time>2026-04-18T10:43:34Z</time></trkpt><trkpt lat="44.95421774953617" lon="11.928306663741676"><ele>-3.0</ele><time>2026-04-18T10:43:36Z</time></trkpt><trkpt lat="44.954305902202044" lon="11.928267869562292"><ele>-3.0</ele><time>2026-04-18T10:43:38Z</time></trkpt><trkpt lat="44.95438919124836" lon="11.928225620829613"><ele>-3.0</ele><time>2026-04-18T10:43:40Z</time></trkpt><trkpt lat="44.9544663165427" lon="11.928194607690642"><ele>-3.0</ele><time>2026-04-18T10:43:42Z</time></trkpt><trkpt lat="44.95453325619522" lon="11.928170613568009"><ele>-3.0</ele><time>2026-04-18T10:43:44Z</time></trkpt><trkpt lat="44.95461240206677" lon="11.928147995560872"><ele>-3.0</ele><time>2026-04-18T10:43:46Z</time></trkpt><trkpt lat="44.95469900828301" lon="11.928125475306594"><ele>-3.0</ele><time>2026-04-18T10:43:48Z</time></trkpt><trkpt lat="44.954778170675176" lon="11.928091082451012"><ele>-3.0</ele><time>2026-04-18T10:43:50Z</time></trkpt><trkpt lat="44.9548474592113" lon="11.92806741214894"><ele>-3.0</ele><time>2026-04-18T10:43:52Z</time></trkpt><trkpt lat="44.95491568678318" lon="11.928041230382648"><ele>-3.0</ele><time>2026-04-18T10:43:54Z</time></trkpt><trkpt lat="44.95498698197369" lon="11.928008748732918"><ele>-3.0</ele><time>2026-04-18T10:43:56Z</time></trkpt><trkpt lat="44.95505810684164" lon="11.92796783578091"><ele>-3.0</ele><time>2026-04-18T10:43:58Z</time></trkpt><trkpt lat="44.955147246533784" lon="11.927921497418204"><ele>-3.0</ele><time>2026-04-18T10:44:01Z</time></trkpt><trkpt lat="44.955216654768165" lon="11.927894685296446"><ele>-2.8333333333333335</ele><time>2026-04-18T10:44:03Z</time></trkpt><trkpt lat="44.95529415097047" lon="11.927837773955504"><ele>-2.6666666666666665</ele><time>2026-04-18T10:44:06Z</time></trkpt><trkpt lat="44.955297265774846" lon="11.927724142717258"><ele>-2.5</ele><time>2026-04-18T10:44:09Z</time></trkpt><trkpt lat="44.95527618549231" lon="11.927616675782959"><ele>-2.333333333333333</ele><time>2026-04-18T10:44:11Z</time></trkpt><trkpt lat="44.95525989856187" lon="11.927514452827191"><ele>-2.1666666666666665</ele><time>2026-04-18T10:44:13Z</time></trkpt><trkpt lat="44.95524277502779" lon="11.927375164910249"><ele>-2.0</ele><time>2026-04-18T10:44:16Z</time></trkpt><trkpt lat="44.955226595916095" lon="11.927252313128234"><ele>-1.8333333333333333</ele><time>2026-04-18T10:44:18Z</time></trkpt><trkpt lat="44.95521108353512" lon="11.927141126583704"><ele>-1.6666666666666665</ele><time>2026-04-18T10:44:20Z</time></trkpt><trkpt lat="44.95519802945213" lon="11.927038020668238"><ele>-1.5</ele><time>2026-04-18T10:44:22Z</time></trkpt><trkpt lat="44.955181632581464" lon="11.926928924727415"><ele>-1.3333333333333333</ele><time>2026-04-18T10:44:24Z</time></trkpt><trkpt lat="44.95516663074649" lon="11.926803427716909"><ele>-1.1666666666666665</ele><time>2026-04-18T10:44:26Z</time></trkpt><trkpt lat="44.95515246691194" lon="11.926695189829648"><ele>-1.0</ele><time>2026-04-18T10:44:28Z</time></trkpt><trkpt lat="44.95514075096654" lon="11.926591959755827"><ele>-1.3333333333333333</ele><time>2026-04-18T10:44:30Z</time></trkpt><trkpt lat="44.955128314743135" lon="11.92649525735454"><ele>-1.6666666666666665</ele><time>2026-04-18T10:44:32Z</time></trkpt><trkpt lat="44.95511282883095" lon="11.926376148815383"><ele>-2.0</ele><time>2026-04-18T10:44:34Z</time></trkpt><trkpt lat="44.95511251596876" lon="11.926263850592692"><ele>-2.3333333333333335</ele><time>2026-04-18T10:44:36Z</time></trkpt><trkpt lat="44.95509650427535" lon="11.926138287599898"><ele>-2.6666666666666665</ele><time>2026-04-18T10:44:38Z</time></trkpt><trkpt lat="44.95508217042772" lon="11.92601875150118"><ele>-3.0</ele><time>2026-04-18T10:44:40Z</time></trkpt><trkpt lat="44.955066990665145" lon="11.925897335948617"><ele>-2.6666666666666665</ele><time>2026-04-18T10:44:42Z</time></trkpt><trkpt lat="44.95505586196275" lon="11.92577506662624"><ele>-2.3333333333333335</ele><time>2026-04-18T10:44:44Z</time></trkpt><trkpt lat="44.955042484637914" lon="11.925648882616086"><ele>-2.0</ele><time>2026-04-18T10:44:46Z</time></trkpt><trkpt lat="44.955029192110956" lon="11.925529341480834"><ele>-1.6666666666666665</ele><time>2026-04-18T10:44:48Z</time></trkpt><trkpt lat="44.95501271617203" lon="11.925404036705801"><ele>-1.3333333333333333</ele><time>2026-04-18T10:44:50Z</time></trkpt><trkpt lat="44.954991322349365" lon="11.925295401971749"><ele>-1.0</ele><time>2026-04-18T10:44:52Z</time></trkpt><trkpt lat="44.95497103640066" lon="11.925205266016293"><ele>-0.9999999999999999</ele><time>2026-04-18T10:44:54Z</time></trkpt><trkpt lat="44.95496283097873" lon="11.925093911065826"><ele>-1.0</ele><time>2026-04-18T10:44:56Z</time></trkpt><trkpt lat="44.95494622444993" lon="11.924951392537734"><ele>-1.0</ele><time>2026-04-18T10:44:59Z</time></trkpt><trkpt lat="44.95492854499711" lon="11.924834775051586"><ele>-1.0</ele><time>2026-04-18T10:45:01Z</time></trkpt><trkpt lat="44.95491238325358" lon="11.924714484621802"><ele>-0.9999999999999999</ele><time>2026-04-18T10:45:03Z</time></trkpt><trkpt lat="44.954898548186144" lon="11.924592052816323"><ele>-1.0</ele><time>2026-04-18T10:45:05Z</time></trkpt><trkpt lat="44.954881343057814" lon="11.924459577043732"><ele>-1.1666666666666665</ele><time>2026-04-18T10:45:07Z</time></trkpt><trkpt lat="44.954869825465856" lon="11.924335621874041"><ele>-1.3333333333333333</ele><time>2026-04-18T10:45:09Z</time></trkpt><trkpt lat="44.95485295860147" lon="11.92422153680646"><ele>-1.5</ele><time>2026-04-18T10:45:11Z</time></trkpt><trkpt lat="44.9548361530712" lon="11.924099448129732"><ele>-1.6666666666666665</ele><time>2026-04-18T10:45:13Z</time></trkpt><trkpt lat="44.954821173369986" lon="11.923968798942623"><ele>-1.8333333333333333</ele><time>2026-04-18T10:45:15Z</time></trkpt><trkpt lat="44.95480765564901" lon="11.923837924691531"><ele>-2.0</ele><time>2026-04-18T10:45:17Z</time></trkpt><trkpt lat="44.95478955996277" lon="11.923704877161988"><ele>-2.0</ele><time>2026-04-18T10:45:19Z</time></trkpt><trkpt lat="44.95477779707825" lon="11.923574113944877"><ele>-2.0</ele><time>2026-04-18T10:45:21Z</time></trkpt><trkpt lat="44.954759668137626" lon="11.923444232406965"><ele>-2.0</ele><time>2026-04-18T10:45:23Z</time></trkpt><trkpt lat="44.9547413265396" lon="11.9233144016279"><ele>-2.0</ele><time>2026-04-18T10:45:25Z</time></trkpt><trkpt lat="44.95472553744367" lon="11.92318630128092"><ele>-2.0</ele><time>2026-04-18T10:45:27Z</time></trkpt><trkpt lat="44.9547112509369" lon="11.923073810563256"><ele>-1.8333333333333333</ele><time>2026-04-18T10:45:29Z</time></trkpt><trkpt lat="44.9547006450891" lon="11.922960212798746"><ele>-1.6666666666666665</ele><time>2026-04-18T10:45:31Z</time></trkpt><trkpt lat="44.95470039834891" lon="11.922841927830953"><ele>-1.5</ele><time>2026-04-18T10:45:33Z</time></trkpt><trkpt lat="44.954683954440384" lon="11.922720382282328"><ele>-1.3333333333333333</ele><time>2026-04-18T10:45:35Z</time></trkpt><trkpt lat="44.95466645264066" lon="11.922597959118399"><ele>-1.1666666666666665</ele><time>2026-04-18T10:45:37Z</time></trkpt><trkpt lat="44.954653521282765" lon="11.922493328472134"><ele>-1.0</ele><time>2026-04-18T10:45:39Z</time></trkpt><trkpt lat="44.954630155346955" lon="11.922407181592995"><ele>-1.1666666666666665</ele><time>2026-04-18T10:45:41Z</time></trkpt><trkpt lat="44.95468073854887" lon="11.922314291354484"><ele>-1.3333333333333333</ele><time>2026-04-18T10:45:44Z</time></trkpt><trkpt lat="44.954755875735856" lon="11.922270703326827"><ele>-1.5</ele><time>2026-04-18T10:45:48Z</time></trkpt><trkpt lat="44.954819843927346" lon="11.92223914500279"><ele>-1.6666666666666665</ele><time>2026-04-18T10:47:40Z</time></trkpt><trkpt lat="44.95489334868127" lon="11.922214252146036"><ele>-1.8333333333333333</ele><time>2026-04-18T10:47:44Z</time></trkpt><trkpt lat="44.95497787778353" lon="11.922181705984826"><ele>-2.0</ele><time>2026-04-18T10:47:47Z</time></trkpt><trkpt lat="44.95504219714558" lon="11.922149189464296"><ele>-2.0</ele><time>2026-04-18T10:47:49Z</time></trkpt><trkpt lat="44.95512657151138" lon="11.922115463410481"><ele>-2.0</ele><time>2026-04-18T10:47:51Z</time></trkpt><trkpt lat="44.95521285117346" lon="11.922075597866778"><ele>-2.0</ele><time>2026-04-18T10:47:53Z</time></trkpt><trkpt lat="44.955301394850075" lon="11.922030693841446"><ele>-2.0</ele><time>2026-04-18T10:47:55Z</time></trkpt><trkpt lat="44.95538957366593" lon="11.92199629537548"><ele>-2.0</ele><time>2026-04-18T10:47:57Z</time></trkpt><trkpt lat="44.955478917404896" lon="11.921953301225972"><ele>-1.9999999999999998</ele><time>2026-04-18T10:47:59Z</time></trkpt><trkpt lat="44.95556580233664" lon="11.921909476597868"><ele>-2.0</ele><time>2026-04-18T10:48:01Z</time></trkpt><trkpt lat="44.95565238050794" lon="11.921876903033192"><ele>-2.0</ele><time>2026-04-18T10:48:03Z</time></trkpt><trkpt lat="44.9557376109046" lon="11.921837131388004"><ele>-2.0</ele><time>2026-04-18T10:48:05Z</time></trkpt><trkpt lat="44.95582244024423" lon="11.921790498637815"><ele>-1.9999999999999998</ele><time>2026-04-18T10:48:07Z</time></trkpt><trkpt lat="44.9559052438672" lon="11.921753993836171"><ele>-2.0</ele><time>2026-04-18T10:48:09Z</time></trkpt><trkpt lat="44.955986938253545" lon="11.921716041975753"><ele>-1.8333333333333333</ele><time>2026-04-18T10:48:11Z</time></trkpt><trkpt lat="44.95606838092977" lon="11.921677466302139"><ele>-1.6666666666666665</ele><time>2026-04-18T10:48:13Z</time></trkpt><trkpt lat="44.95614410576143" lon="11.921643085794452"><ele>-1.5</ele><time>2026-04-18T10:48:15Z</time></trkpt><trkpt lat="44.95622195624944" lon="11.92161081557841"><ele>-1.3333333333333333</ele><time>2026-04-18T10:48:17Z</time></trkpt><trkpt lat="44.95629447308994" lon="11.921578011689675"><ele>-1.1666666666666665</ele><time>2026-04-18T10:48:19Z</time></trkpt><trkpt lat="44.95636920802497" lon="11.921541542209795"><ele>-1.0</ele><time>2026-04-18T10:48:21Z</time></trkpt><trkpt lat="44.95645298325892" lon="11.921506888821476"><ele>-0.9999999999999999</ele><time>2026-04-18T10:48:23Z</time></trkpt><trkpt lat="44.956533647566815" lon="11.921469718163475"><ele>-1.0</ele><time>2026-04-18T10:48:25Z</time></trkpt><trkpt lat="44.956611658920885" lon="11.921434295650524"><ele>-1.0</ele><time>2026-04-18T10:48:27Z</time></trkpt><trkpt lat="44.95669009726611" lon="11.92140185334621"><ele>-1.0</ele><time>2026-04-18T10:48:29Z</time></trkpt><trkpt lat="44.95677901989806" lon="11.921367877692235"><ele>-0.9999999999999999</ele><time>2026-04-18T10:48:31Z</time></trkpt><trkpt lat="44.956862575532455" lon="11.921322836692784"><ele>-1.0</ele><time>2026-04-18T10:48:33Z</time></trkpt><trkpt lat="44.95694296081863" lon="11.921285348013752"><ele>-0.9999999999999999</ele><time>2026-04-18T10:48:35Z</time></trkpt><trkpt lat="44.95702041968092" lon="11.921253481201001"><ele>-1.0</ele><time>2026-04-18T10:48:37Z</time></trkpt><trkpt lat="44.95709568150533" lon="11.921221651653465"><ele>-1.0</ele><time>2026-04-18T10:48:39Z</time></trkpt><trkpt lat="44.95717970998934" lon="11.92118494582232"><ele>-1.0</ele><time>2026-04-18T10:48:41Z</time></trkpt><trkpt lat="44.957261986268" lon="11.921145093789583"><ele>-0.9999999999999999</ele><time>2026-04-18T10:48:43Z</time></trkpt><trkpt lat="44.95734480231338" lon="11.921103774374867"><ele>-1.0</ele><time>2026-04-18T10:48:45Z</time></trkpt><trkpt lat="44.95742223320333" lon="11.92107412355853"><ele>-0.9999999999999999</ele><time>2026-04-18T10:48:47Z</time></trkpt><trkpt lat="44.95748895129802" lon="11.92103438291073"><ele>-1.0</ele><time>2026-04-18T10:48:49Z</time></trkpt><trkpt lat="44.95755495348996" lon="11.921014036665575"><ele>-1.0</ele><time>2026-04-18T10:48:51Z</time></trkpt><trkpt lat="44.957634517028666" lon="11.920978627231568"><ele>-1.0</ele><time>2026-04-18T10:48:53Z</time></trkpt><trkpt lat="44.95772494978412" lon="11.920943016041647"><ele>-0.9999999999999999</ele><time>2026-04-18T10:48:55Z</time></trkpt><trkpt lat="44.95781258345356" lon="11.920897025462223"><ele>-1.0</ele><time>2026-04-18T10:48:57Z</time></trkpt><trkpt lat="44.95789634425861" lon="11.92085620283509"><ele>-0.9999999999999999</ele><time>2026-04-18T10:48:59Z</time></trkpt><trkpt lat="44.95797539313272" lon="11.920823205996435"><ele>-1.0</ele><time>2026-04-18T10:49:01Z</time></trkpt><trkpt lat="44.95804907723822" lon="11.920799591696175"><ele>-1.0</ele><time>2026-04-18T10:49:03Z</time></trkpt><trkpt lat="44.95812973599047" lon="11.920758858600147"><ele>-1.0</ele><time>2026-04-18T10:49:05Z</time></trkpt><trkpt lat="44.95821300995243" lon="11.920709920820238"><ele>-0.9999999999999999</ele><time>2026-04-18T10:49:07Z</time></trkpt><trkpt lat="44.958296845420456" lon="11.920674195641812"><ele>-1.0</ele><time>2026-04-18T10:49:09Z</time></trkpt><trkpt lat="44.958376679790696" lon="11.920636511056099"><ele>-1.0</ele><time>2026-04-18T10:49:11Z</time></trkpt><trkpt lat="44.9584620996445" lon="11.920598890153132"><ele>-1.0</ele><time>2026-04-18T10:49:13Z</time></trkpt><trkpt lat="44.95854956751166" lon="11.920556250732657"><ele>-1.0</ele><time>2026-04-18T10:49:15Z</time></trkpt><trkpt lat="44.958639570984616" lon="11.920512738243058"><ele>-1.0</ele><time>2026-04-18T10:49:17Z</time></trkpt><trkpt lat="44.95873052642773" lon="11.920470890150916"><ele>-1.0</ele><time>2026-04-18T10:49:19Z</time></trkpt><trkpt lat="44.95881909818189" lon="11.92043524958595"><ele>-1.0</ele><time>2026-04-18T10:49:21Z</time></trkpt><trkpt lat="44.958911051147645" lon="11.920393206321897"><ele>-1.0</ele><time>2026-04-18T10:49:23Z</time></trkpt><trkpt lat="44.958998072055664" lon="11.920351799698054"><ele>-1.0</ele><time>2026-04-18T10:49:25Z</time></trkpt><trkpt lat="44.9590893359548" lon="11.920316728850489"><ele>-1.0</ele><time>2026-04-18T10:49:27Z</time></trkpt><trkpt lat="44.95917809075228" lon="11.920268439441028"><ele>-1.0</ele><time>2026-04-18T10:49:29Z</time></trkpt><trkpt lat="44.95926731997477" lon="11.920227855970012"><ele>-1.0</ele><time>2026-04-18T10:49:31Z</time></trkpt><trkpt lat="44.959356318490336" lon="11.920193825011271"><ele>-1.0</ele><time>2026-04-18T10:49:33Z</time></trkpt><trkpt lat="44.959443284199594" lon="11.92015462223424"><ele>-1.0</ele><time>2026-04-18T10:49:35Z</time></trkpt><trkpt lat="44.95953289062194" lon="11.920118869347318"><ele>-1.0</ele><time>2026-04-18T10:49:37Z</time></trkpt><trkpt lat="44.959616813505306" lon="11.92007209601278"><ele>-1.0</ele><time>2026-04-18T10:49:39Z</time></trkpt><trkpt lat="44.95969622057276" lon="11.920038882902185"><ele>-0.9999999999999999</ele><time>2026-04-18T10:49:41Z</time></trkpt><trkpt lat="44.95977891912604" lon="11.920000312107604"><ele>-1.0</ele><time>2026-04-18T10:49:43Z</time></trkpt><trkpt lat="44.95986629159012" lon="11.91996131170069"><ele>-1.0</ele><time>2026-04-18T10:49:45Z</time></trkpt><trkpt lat="44.95995252842973" lon="11.919923414796537"><ele>-1.0</ele><time>2026-04-18T10:49:47Z</time></trkpt><trkpt lat="44.960036947338196" lon="11.919882346173464"><ele>-0.9999999999999999</ele><time>2026-04-18T10:49:49Z</time></trkpt><trkpt lat="44.9601175950417" lon="11.919843971655332"><ele>-1.0</ele><time>2026-04-18T10:49:51Z</time></trkpt><trkpt lat="44.96020282330696" lon="11.919808494231162"><ele>-0.8</ele><time>2026-04-18T10:49:53Z</time></trkpt><trkpt lat="44.96029427705488" lon="11.919766185835321"><ele>-0.6000000000000001</ele><time>2026-04-18T10:49:55Z</time></trkpt><trkpt lat="44.960384457358934" lon="11.91972399011763"><ele>-0.4</ele><time>2026-04-18T10:49:57Z</time></trkpt><trkpt lat="44.96047290149389" lon="11.919681323090337"><ele>-0.2</ele><time>2026-04-18T10:49:59Z</time></trkpt><trkpt lat="44.96055990610513" lon="11.919641771977249"><ele>0.0</ele><time>2026-04-18T10:50:01Z</time></trkpt><trkpt lat="44.96064100831885" lon="11.919597629588308"><ele>0.0</ele><time>2026-04-18T10:50:03Z</time></trkpt><trkpt lat="44.96072645500112" lon="11.919552467405447"><ele>0.0</ele><time>2026-04-18T10:50:05Z</time></trkpt><trkpt lat="44.96080891025717" lon="11.919503231146003"><ele>0.0</ele><time>2026-04-18T10:50:07Z</time></trkpt><trkpt lat="44.96088695286515" lon="11.919504850733244"><ele>0.0</ele><time>2026-04-18T10:50:09Z</time></trkpt><trkpt lat="44.96096507958586" lon="11.919483057465834"><ele>0.0</ele><time>2026-04-18T10:50:11Z</time></trkpt><trkpt lat="44.96104025411758" lon="11.919448881959704"><ele>0.0</ele><time>2026-04-18T10:50:13Z</time></trkpt><trkpt lat="44.96112464781007" lon="11.919410278916054"><ele>-0.4</ele><time>2026-04-18T10:50:15Z</time></trkpt><trkpt lat="44.9612142303125" lon="11.919367684186643"><ele>-0.8</ele><time>2026-04-18T10:50:17Z</time></trkpt><trkpt lat="44.96130135826214" lon="11.919326256549514"><ele>-1.2000000000000002</ele><time>2026-04-18T10:50:19Z</time></trkpt><trkpt lat="44.96138904643695" lon="11.919284562536381"><ele>-1.6</ele><time>2026-04-18T10:50:21Z</time></trkpt><trkpt lat="44.96147436001132" lon="11.919244965868696"><ele>-2.0</ele><time>2026-04-18T10:50:23Z</time></trkpt><trkpt lat="44.961564013836394" lon="11.919203803152085"><ele>-2.2</ele><time>2026-04-18T10:50:25Z</time></trkpt><trkpt lat="44.9616564779543" lon="11.919161350145865"><ele>-2.4000000000000004</ele><time>2026-04-18T10:50:27Z</time></trkpt><trkpt lat="44.961742258226124" lon="11.919121965891971"><ele>-2.5999999999999996</ele><time>2026-04-18T10:50:29Z</time></trkpt><trkpt lat="44.96182928005784" lon="11.91908181059106"><ele>-2.8</ele><time>2026-04-18T10:50:31Z</time></trkpt><trkpt lat="44.961909896729416" lon="11.919044363741925"><ele>-3.0</ele><time>2026-04-18T10:50:33Z</time></trkpt><trkpt lat="44.96198871911209" lon="11.918983408906914"><ele>-2.6</ele><time>2026-04-18T10:50:35Z</time></trkpt><trkpt lat="44.96207575061589" lon="11.91895155277525"><ele>-2.1999999999999997</ele><time>2026-04-18T10:50:37Z</time></trkpt><trkpt lat="44.96216318604004" lon="11.91890624865133"><ele>-1.8</ele><time>2026-04-18T10:50:39Z</time></trkpt><trkpt lat="44.96225095697696" lon="11.918862951046668"><ele>-1.4</ele><time>2026-04-18T10:50:41Z</time></trkpt><trkpt lat="44.962339757319405" lon="11.918820144480701"><ele>-1.0</ele><time>2026-04-18T10:50:43Z</time></trkpt><trkpt lat="44.96243043697457" lon="11.91877864597421"><ele>-1.0</ele><time>2026-04-18T10:50:45Z</time></trkpt><trkpt lat="44.96251881779525" lon="11.918739555884155"><ele>-1.0</ele><time>2026-04-18T10:50:47Z</time></trkpt><trkpt lat="44.96260693643214" lon="11.918699023474645"><ele>-1.0</ele><time>2026-04-18T10:50:49Z</time></trkpt><trkpt lat="44.96269141837352" lon="11.918658889752047"><ele>-1.0</ele><time>2026-04-18T10:50:51Z</time></trkpt><trkpt lat="44.962782806961435" lon="11.918622213019079"><ele>-1.0</ele><time>2026-04-18T10:50:53Z</time></trkpt><trkpt lat="44.962872484128894" lon="11.918573412721056"><ele>-1.0</ele><time>2026-04-18T10:50:55Z</time></trkpt><trkpt lat="44.96296182266927" lon="11.918534364920774"><ele>-1.0</ele><time>2026-04-18T10:50:57Z</time></trkpt><trkpt lat="44.963056444004664" lon="11.91851392819759"><ele>-1.0</ele><time>2026-04-18T10:50:59Z</time></trkpt><trkpt lat="44.963143480626805" lon="11.918456156051667"><ele>-1.0</ele><time>2026-04-18T10:51:01Z</time></trkpt><trkpt lat="44.96323348430368" lon="11.918417206067133"><ele>-1.0</ele><time>2026-04-18T10:51:03Z</time></trkpt><trkpt lat="44.96332135830129" lon="11.918375311455312"><ele>-0.6000000000000001</ele><time>2026-04-18T10:51:05Z</time></trkpt><trkpt lat="44.963408618588986" lon="11.918330195654969"><ele>-0.20000000000000007</ele><time>2026-04-18T10:51:07Z</time></trkpt><trkpt lat="44.96349925598065" lon="11.918293439591475"><ele>0.20000000000000007</ele><time>2026-04-18T10:51:09Z</time></trkpt><trkpt lat="44.96358918583962" lon="11.918251944223448"><ele>0.6000000000000001</ele><time>2026-04-18T10:51:11Z</time></trkpt><trkpt lat="44.96367773166919" lon="11.91820868152898"><ele>1.0</ele><time>2026-04-18T10:51:13Z</time></trkpt><trkpt lat="44.96377220819778" lon="11.918187437115636"><ele>0.9999999999999999</ele><time>2026-04-18T10:51:15Z</time></trkpt><trkpt lat="44.96385901010441" lon="11.918147469089417"><ele>1.0</ele><time>2026-04-18T10:51:17Z</time></trkpt><trkpt lat="44.96394029928493" lon="11.918085902706833"><ele>1.0</ele><time>2026-04-18T10:51:19Z</time></trkpt><trkpt lat="44.964015381838486" lon="11.91805832039092"><ele>1.0</ele><time>2026-04-18T10:51:21Z</time></trkpt><trkpt lat="44.964096079264074" lon="11.91803598728575"><ele>0.9999999999999999</ele><time>2026-04-18T10:51:23Z</time></trkpt><trkpt lat="44.96417483202168" lon="11.91797652316285"><ele>1.0</ele><time>2026-04-18T10:51:25Z</time></trkpt><trkpt lat="44.9642538299468" lon="11.917942332362342"><ele>1.0</ele><time>2026-04-18T10:51:27Z</time></trkpt><trkpt lat="44.96432838602872" lon="11.917930135590682"><ele>0.9999999999999999</ele><time>2026-04-18T10:51:29Z</time></trkpt><trkpt lat="44.964393051977815" lon="11.917902267643127"><ele>1.0</ele><time>2026-04-18T10:51:31Z</time></trkpt><trkpt lat="44.96445806617601" lon="11.917874249598446"><ele>1.0</ele><time>2026-04-18T10:51:33Z</time></trkpt><trkpt lat="44.96452384103795" lon="11.917848582493141"><ele>0.9999999999999999</ele><time>2026-04-18T10:51:35Z</time></trkpt><trkpt lat="44.964594613033626" lon="11.917818128107138"><ele>1.0</ele><time>2026-04-18T10:51:37Z</time></trkpt><trkpt lat="44.96465855355488" lon="11.91779061341886"><ele>1.0</ele><time>2026-04-18T10:51:39Z</time></trkpt><trkpt lat="44.96472944907833" lon="11.917760105877676"><ele>0.8</ele><time>2026-04-18T10:51:50Z</time></trkpt><trkpt lat="44.96469112525511" lon="11.917533272349884"><ele>0.6000000000000001</ele><time>2026-04-18T10:51:52Z</time></trkpt><trkpt lat="44.96465425108669" lon="11.917414632634484"><ele>0.4</ele><time>2026-04-18T10:51:54Z</time></trkpt><trkpt lat="44.96462397937604" lon="11.917291161559481"><ele>0.2</ele><time>2026-04-18T10:51:56Z</time></trkpt><trkpt lat="44.964595332431834" lon="11.917168782443227"><ele>0.0</ele><time>2026-04-18T10:51:58Z</time></trkpt><trkpt lat="44.96456814270341" lon="11.917042731561427"><ele>0.0</ele><time>2026-04-18T10:52:00Z</time></trkpt><trkpt lat="44.9645393259706" lon="11.916915703181298"><ele>0.0</ele><time>2026-04-18T10:52:02Z</time></trkpt><trkpt lat="44.96451187325246" lon="11.916790202068672"><ele>0.0</ele><time>2026-04-18T10:52:04Z</time></trkpt><trkpt lat="44.96447959500431" lon="11.916665028313126"><ele>0.0</ele><time>2026-04-18T10:52:06Z</time></trkpt><trkpt lat="44.96444872906099" lon="11.91653912229667"><ele>0.0</ele><time>2026-04-18T10:52:08Z</time></trkpt><trkpt lat="44.964420574916375" lon="11.916408588551784"><ele>-0.2</ele><time>2026-04-18T10:52:10Z</time></trkpt><trkpt lat="44.96439161828811" lon="11.916281193725734"><ele>-0.4</ele><time>2026-04-18T10:52:12Z</time></trkpt><trkpt lat="44.964363384058885" lon="11.916153136559176"><ele>-0.6000000000000001</ele><time>2026-04-18T10:52:14Z</time></trkpt><trkpt lat="44.964334396284805" lon="11.91602483808393"><ele>-0.8</ele><time>2026-04-18T10:52:16Z</time></trkpt><trkpt lat="44.964306971748954" lon="11.915897778325993"><ele>-1.0</ele><time>2026-04-18T10:52:18Z</time></trkpt><trkpt lat="44.96427515590453" lon="11.915771984256782"><ele>-1.0</ele><time>2026-04-18T10:52:20Z</time></trkpt><trkpt lat="44.96424677861222" lon="11.915645953517068"><ele>-1.0</ele><time>2026-04-18T10:52:22Z</time></trkpt><trkpt lat="44.964219581836225" lon="11.915517172768935"><ele>-1.0</ele><time>2026-04-18T10:52:24Z</time></trkpt><trkpt lat="44.96419095125989" lon="11.915390255526033"><ele>-1.0</ele><time>2026-04-18T10:52:26Z</time></trkpt><trkpt lat="44.964161278029344" lon="11.915264669868876"><ele>-1.0</ele><time>2026-04-18T10:52:28Z</time></trkpt><trkpt lat="44.964134638644346" lon="11.915136047786868"><ele>-1.0</ele><time>2026-04-18T10:52:30Z</time></trkpt><trkpt lat="44.96410580759108" lon="11.915008373086975"><ele>-1.0</ele><time>2026-04-18T10:52:32Z</time></trkpt><trkpt lat="44.96407919247386" lon="11.914882795622656"><ele>-1.0</ele><time>2026-04-18T10:52:34Z</time></trkpt><trkpt lat="44.96404697615555" lon="11.914754975153995"><ele>-1.0</ele><time>2026-04-18T10:52:36Z</time></trkpt><trkpt lat="44.96401836257076" lon="11.914625248888745"><ele>-1.0</ele><time>2026-04-18T10:52:38Z</time></trkpt><trkpt lat="44.96398872919676" lon="11.914496821165342"><ele>-1.0</ele><time>2026-04-18T10:52:40Z</time></trkpt><trkpt lat="44.96396213049452" lon="11.914362936691766"><ele>-1.0</ele><time>2026-04-18T10:52:42Z</time></trkpt><trkpt lat="44.9639312314221" lon="11.914237443086595"><ele>-1.0</ele><time>2026-04-18T10:52:44Z</time></trkpt><trkpt lat="44.96390411939636" lon="11.914109500582363"><ele>-1.0</ele><time>2026-04-18T10:52:46Z</time></trkpt><trkpt lat="44.96387116719475" lon="11.913984768341127"><ele>-1.0</ele><time>2026-04-18T10:52:48Z</time></trkpt><trkpt lat="44.96384438610048" lon="11.913858693040842"><ele>-0.9999999999999999</ele><time>2026-04-18T10:52:50Z</time></trkpt><trkpt lat="44.963809793383845" lon="11.913736749764261"><ele>-1.0</ele><time>2026-04-18T10:52:52Z</time></trkpt><trkpt lat="44.96378555565864" lon="11.913617015098115"><ele>-1.0</ele><time>2026-04-18T10:52:54Z</time></trkpt><trkpt lat="44.963752947317424" lon="11.913508478457782"><ele>-1.0</ele><time>2026-04-18T10:52:56Z</time></trkpt><trkpt lat="44.96373044968364" lon="11.913405708685318"><ele>-0.9999999999999999</ele><time>2026-04-18T10:52:58Z</time></trkpt><trkpt lat="44.96371126815383" lon="11.91330134045927"><ele>-1.0</ele><time>2026-04-18T10:53:00Z</time></trkpt><trkpt lat="44.96368649693299" lon="11.913188693948388"><ele>-1.0</ele><time>2026-04-18T10:53:02Z</time></trkpt><trkpt lat="44.963656961489846" lon="11.913063195406412"><ele>-1.0</ele><time>2026-04-18T10:53:04Z</time></trkpt><trkpt lat="44.96363092825221" lon="11.912936739134368"><ele>-1.0</ele><time>2026-04-18T10:53:06Z</time></trkpt><trkpt lat="44.96360281197082" lon="11.912809046660612"><ele>-1.0</ele><time>2026-04-18T10:53:08Z</time></trkpt><trkpt lat="44.96357254155916" lon="11.912685747560216"><ele>-1.0</ele><time>2026-04-18T10:53:10Z</time></trkpt><trkpt lat="44.96354264327296" lon="11.912562207708955"><ele>-1.0</ele><time>2026-04-18T10:53:12Z</time></trkpt><trkpt lat="44.96351501497503" lon="11.912434046980618"><ele>-1.0</ele><time>2026-04-18T10:53:14Z</time></trkpt><trkpt lat="44.96348577655451" lon="11.912308035883166"><ele>-1.0</ele><time>2026-04-18T10:53:16Z</time></trkpt><trkpt lat="44.963457122894894" lon="11.91218120714238"><ele>-1.0</ele><time>2026-04-18T10:53:18Z</time></trkpt><trkpt lat="44.963428317712165" lon="11.912054203192486"><ele>-1.0</ele><time>2026-04-18T10:53:20Z</time></trkpt><trkpt lat="44.96340355200755" lon="11.911923941548022"><ele>-1.0</ele><time>2026-04-18T10:53:22Z</time></trkpt><trkpt lat="44.96337623324642" lon="11.911795284297527"><ele>-1.0</ele><time>2026-04-18T10:53:24Z</time></trkpt><trkpt lat="44.963342916331506" lon="11.91166471755363"><ele>-1.0</ele><time>2026-04-18T10:53:26Z</time></trkpt><trkpt lat="44.963311669203975" lon="11.911537939179754"><ele>-1.0</ele><time>2026-04-18T10:53:28Z</time></trkpt><trkpt lat="44.963283211471165" lon="11.911412775951925"><ele>-1.0</ele><time>2026-04-18T10:53:30Z</time></trkpt><trkpt lat="44.9632576315861" lon="11.911291351005387"><ele>-0.6000000000000001</ele><time>2026-04-18T10:53:32Z</time></trkpt><trkpt lat="44.96322595586294" lon="11.911166879651274"><ele>-0.20000000000000007</ele><time>2026-04-18T10:53:34Z</time></trkpt><trkpt lat="44.9631926521536" lon="11.911041740503423"><ele>0.20000000000000007</ele><time>2026-04-18T10:53:36Z</time></trkpt><trkpt lat="44.963164878138684" lon="11.910916253564483"><ele>0.6000000000000001</ele><time>2026-04-18T10:53:38Z</time></trkpt><trkpt lat="44.96313167085661" lon="11.91080040308321"><ele>1.0</ele><time>2026-04-18T10:53:40Z</time></trkpt><trkpt lat="44.963107527291776" lon="11.91068352706823"><ele>0.9999999999999999</ele><time>2026-04-18T10:53:42Z</time></trkpt><trkpt lat="44.96308435866657" lon="11.910577168584581"><ele>1.0</ele><time>2026-04-18T10:53:44Z</time></trkpt><trkpt lat="44.96305806659399" lon="11.910477662957765"><ele>1.0</ele><time>2026-04-18T10:53:46Z</time></trkpt><trkpt lat="44.96303612220304" lon="11.910383065219209"><ele>1.0</ele><time>2026-04-18T10:53:48Z</time></trkpt><trkpt lat="44.96299995153836" lon="11.910277143378327"><ele>0.9999999999999999</ele><time>2026-04-18T10:53:50Z</time></trkpt><trkpt lat="44.96296441770504" lon="11.910172487210131"><ele>1.0</ele><time>2026-04-18T10:53:52Z</time></trkpt><trkpt lat="44.96293227076396" lon="11.910074435000196"><ele>0.9999999999999999</ele><time>2026-04-18T10:53:54Z</time></trkpt><trkpt lat="44.962901108655366" lon="11.90997607793625"><ele>1.0</ele><time>2026-04-18T10:53:56Z</time></trkpt><trkpt lat="44.962884917150056" lon="11.909876786231601"><ele>1.0</ele><time>2026-04-18T10:53:58Z</time></trkpt><trkpt lat="44.962901435986" lon="11.909772287260514"><ele>1.0</ele><time>2026-04-18T10:54:00Z</time></trkpt><trkpt lat="44.962951152892884" lon="11.909688998187711"><ele>0.9999999999999999</ele><time>2026-04-18T10:54:02Z</time></trkpt><trkpt lat="44.96304239516623" lon="11.909632779660017"><ele>1.0</ele><time>2026-04-18T10:54:04Z</time></trkpt><trkpt lat="44.96313271980241" lon="11.909603262501976"><ele>1.0</ele><time>2026-04-18T10:54:06Z</time></trkpt><trkpt lat="44.96322512157203" lon="11.909582858730133"><ele>1.0</ele><time>2026-04-18T10:54:08Z</time></trkpt><trkpt lat="44.96332156033378" lon="11.909554553207157"><ele>1.0</ele><time>2026-04-18T10:54:10Z</time></trkpt><trkpt lat="44.96341327193808" lon="11.909524608757295"><ele>1.0</ele><time>2026-04-18T10:54:12Z</time></trkpt><trkpt lat="44.963503123581006" lon="11.909495206145547"><ele>1.0</ele><time>2026-04-18T10:54:14Z</time></trkpt><trkpt lat="44.96359850924427" lon="11.909474286904882"><ele>0.8</ele><time>2026-04-18T10:54:16Z</time></trkpt><trkpt lat="44.96369109246821" lon="11.90944515037133"><ele>0.6000000000000001</ele><time>2026-04-18T10:54:18Z</time></trkpt><trkpt lat="44.96377863399717" lon="11.90941565489937"><ele>0.4</ele><time>2026-04-18T10:54:20Z</time></trkpt><trkpt lat="44.963866219724046" lon="11.909389708885833"><ele>0.2</ele><time>2026-04-18T10:54:22Z</time></trkpt><trkpt lat="44.963961233200415" lon="11.90936869970169"><ele>0.0</ele><time>2026-04-18T10:54:24Z</time></trkpt><trkpt lat="44.9640556031654" lon="11.909341656801036"><ele>0.0</ele><time>2026-04-18T10:54:26Z</time></trkpt><trkpt lat="44.964148446501554" lon="11.909319667861949"><ele>0.0</ele><time>2026-04-18T10:54:28Z</time></trkpt><trkpt lat="44.96424182218687" lon="11.90929708285618"><ele>0.0</ele><time>2026-04-18T10:54:30Z</time></trkpt><trkpt lat="44.964333059286304" lon="11.909266211720986"><ele>0.0</ele><time>2026-04-18T10:54:32Z</time></trkpt><trkpt lat="44.96442651737222" lon="11.90924618362532"><ele>0.0</ele><time>2026-04-18T10:54:34Z</time></trkpt><trkpt lat="44.964520916470946" lon="11.909218857399955"><ele>0.0</ele><time>2026-04-18T10:54:36Z</time></trkpt><trkpt lat="44.964614051362204" lon="11.909191478257247"><ele>0.0</ele><time>2026-04-18T10:54:38Z</time></trkpt><trkpt lat="44.96470597760873" lon="11.909164700967814"><ele>0.0</ele><time>2026-04-18T10:54:40Z</time></trkpt><trkpt lat="44.96479855233369" lon="11.909136822460944"><ele>0.0</ele><time>2026-04-18T10:54:42Z</time></trkpt><trkpt lat="44.96489140176268" lon="11.909105496648504"><ele>0.0</ele><time>2026-04-18T10:54:44Z</time></trkpt><trkpt lat="44.964982548800954" lon="11.90908529827263"><ele>0.0</ele><time>2026-04-18T10:54:46Z</time></trkpt><trkpt lat="44.965072728089645" lon="11.909055842906996"><ele>0.0</ele><time>2026-04-18T10:54:48Z</time></trkpt><trkpt lat="44.965159665131345" lon="11.909028128180587"><ele>0.0</ele><time>2026-04-18T10:54:50Z</time></trkpt><trkpt lat="44.965242150255364" lon="11.909007384716748"><ele>0.0</ele><time>2026-04-18T10:54:52Z</time></trkpt><trkpt lat="44.96532589455362" lon="11.90899040217698"><ele>0.0</ele><time>2026-04-18T10:54:54Z</time></trkpt><trkpt lat="44.96541587806882" lon="11.908962825402487"><ele>0.0</ele><time>2026-04-18T10:54:56Z</time></trkpt><trkpt lat="44.96551046255402" lon="11.908935907905336"><ele>0.0</ele><time>2026-04-18T10:54:58Z</time></trkpt><trkpt lat="44.96559554626411" lon="11.9088977802675"><ele>0.0</ele><time>2026-04-18T10:55:00Z</time></trkpt><trkpt lat="44.96568162129729" lon="11.908878361907421"><ele>0.0</ele><time>2026-04-18T10:55:02Z</time></trkpt><trkpt lat="44.96576237149386" lon="11.908851235855845"><ele>0.0</ele><time>2026-04-18T10:55:04Z</time></trkpt><trkpt lat="44.96584192644447" lon="11.90883845458779"><ele>0.0</ele><time>2026-04-18T10:55:06Z</time></trkpt><trkpt lat="44.96592205636194" lon="11.90881897252106"><ele>0.0</ele><time>2026-04-18T10:55:08Z</time></trkpt><trkpt lat="44.96601093277058" lon="11.908788308014302"><ele>0.0</ele><time>2026-04-18T10:55:10Z</time></trkpt><trkpt lat="44.96609503731955" lon="11.908756831810669"><ele>0.0</ele><time>2026-04-18T10:55:12Z</time></trkpt><trkpt lat="44.96618100099923" lon="11.90873719179792"><ele>0.0</ele><time>2026-04-18T10:55:14Z</time></trkpt><trkpt lat="44.966260301044585" lon="11.90870518710428"><ele>0.0</ele><time>2026-04-18T10:55:16Z</time></trkpt><trkpt lat="44.96633700200036" lon="11.908688244924527"><ele>0.0</ele><time>2026-04-18T10:55:18Z</time></trkpt><trkpt lat="44.96641341664791" lon="11.908665625262808"><ele>0.0</ele><time>2026-04-18T10:55:20Z</time></trkpt><trkpt lat="44.966489384918845" lon="11.908622201596607"><ele>0.0</ele><time>2026-04-18T10:55:22Z</time></trkpt><trkpt lat="44.96654596473158" lon="11.908541934736272"><ele>0.0</ele><time>2026-04-18T10:55:24Z</time></trkpt><trkpt lat="44.966595210939204" lon="11.908463358860978"><ele>0.0</ele><time>2026-04-18T10:55:26Z</time></trkpt><trkpt lat="44.966613938522926" lon="11.908371439974294"><ele>0.0</ele><time>2026-04-18T10:55:28Z</time></trkpt><trkpt lat="44.96661344026545" lon="11.908272044560263"><ele>0.0</ele><time>2026-04-18T10:55:30Z</time></trkpt><trkpt lat="44.96661325083481" lon="11.908155854491712"><ele>0.0</ele><time>2026-04-18T10:55:32Z</time></trkpt><trkpt lat="44.966593590419045" lon="11.908045796330526"><ele>0.16666666666666666</ele><time>2026-04-18T10:55:34Z</time></trkpt><trkpt lat="44.96657022229162" lon="11.907944359133891"><ele>0.3333333333333333</ele><time>2026-04-18T10:55:36Z</time></trkpt><trkpt lat="44.96654881246521" lon="11.907849832155204"><ele>0.5</ele><time>2026-04-18T10:55:38Z</time></trkpt><trkpt lat="44.966530814140626" lon="11.907749702575549"><ele>0.6666666666666666</ele><time>2026-04-18T10:55:40Z</time></trkpt><trkpt lat="44.96650407164248" lon="11.90763185884545"><ele>0.8333333333333333</ele><time>2026-04-18T10:55:42Z</time></trkpt><trkpt lat="44.966487056396545" lon="11.907507973749441"><ele>1.0</ele><time>2026-04-18T10:55:44Z</time></trkpt><trkpt lat="44.96646637798834" lon="11.90738216540767"><ele>1.0</ele><time>2026-04-18T10:55:46Z</time></trkpt><trkpt lat="44.96644256429068" lon="11.907253182367871"><ele>1.0</ele><time>2026-04-18T10:55:48Z</time></trkpt><trkpt lat="44.966420643729265" lon="11.90712534911863"><ele>1.0</ele><time>2026-04-18T10:55:50Z</time></trkpt><trkpt lat="44.966396726633256" lon="11.906992151684051"><ele>1.0</ele><time>2026-04-18T10:55:52Z</time></trkpt><trkpt lat="44.966384400199445" lon="11.906858895088636"><ele>1.0</ele><time>2026-04-18T10:55:54Z</time></trkpt><trkpt lat="44.96637759654983" lon="11.906725383271302"><ele>0.8</ele><time>2026-04-18T10:55:56Z</time></trkpt><trkpt lat="44.96637465677966" lon="11.906593347795145"><ele>0.6000000000000001</ele><time>2026-04-18T10:55:58Z</time></trkpt><trkpt lat="44.96638422469472" lon="11.906461668036602"><ele>0.4</ele><time>2026-04-18T10:56:00Z</time></trkpt><trkpt lat="44.96640455329228" lon="11.906328763638253"><ele>0.2</ele><time>2026-04-18T10:56:02Z</time></trkpt><trkpt lat="44.96643367050001" lon="11.906201933961814"><ele>0.0</ele><time>2026-04-18T10:56:04Z</time></trkpt><trkpt lat="44.96646982214884" lon="11.906073697751992"><ele>0.0</ele><time>2026-04-18T10:56:06Z</time></trkpt><trkpt lat="44.96650928775439" lon="11.905952468507838"><ele>0.0</ele><time>2026-04-18T10:56:08Z</time></trkpt><trkpt lat="44.96655576228821" lon="11.905832764771807"><ele>0.0</ele><time>2026-04-18T10:56:10Z</time></trkpt><trkpt lat="44.96659631845804" lon="11.905708701403752"><ele>0.0</ele><time>2026-04-18T10:56:12Z</time></trkpt><trkpt lat="44.9666358786207" lon="11.905586761323962"><ele>0.0</ele><time>2026-04-18T10:56:14Z</time></trkpt><trkpt lat="44.96667336900178" lon="11.905466671569396"><ele>0.0</ele><time>2026-04-18T10:56:16Z</time></trkpt><trkpt lat="44.96670564058357" lon="11.90533881388545"><ele>0.0</ele><time>2026-04-18T10:56:18Z</time></trkpt><trkpt lat="44.96673129308157" lon="11.905212338058329"><ele>0.0</ele><time>2026-04-18T10:56:20Z</time></trkpt><trkpt lat="44.96674912801256" lon="11.905086001658384"><ele>0.0</ele><time>2026-04-18T10:56:22Z</time></trkpt><trkpt lat="44.96676642973876" lon="11.904954646027347"><ele>0.0</ele><time>2026-04-18T10:56:24Z</time></trkpt><trkpt lat="44.96677744168745" lon="11.904823512618083"><ele>0.0</ele><time>2026-04-18T10:56:26Z</time></trkpt><trkpt lat="44.96678646130293" lon="11.904688382521199"><ele>0.0</ele><time>2026-04-18T10:56:28Z</time></trkpt><trkpt lat="44.966799298588754" lon="11.904558727447107"><ele>0.0</ele><time>2026-04-18T10:56:30Z</time></trkpt><trkpt lat="44.96680622555362" lon="11.904427529061719"><ele>0.0</ele><time>2026-04-18T10:56:32Z</time></trkpt><trkpt lat="44.9668149683842" lon="11.904298418184446"><ele>0.0</ele><time>2026-04-18T10:56:34Z</time></trkpt><trkpt lat="44.96682138068936" lon="11.904162369456346"><ele>0.4</ele><time>2026-04-18T10:56:36Z</time></trkpt><trkpt lat="44.96682989226232" lon="11.90403296909306"><ele>0.8</ele><time>2026-04-18T10:56:38Z</time></trkpt><trkpt lat="44.966836997751415" lon="11.903898347628825"><ele>1.2000000000000002</ele><time>2026-04-18T10:56:40Z</time></trkpt><trkpt lat="44.96684302428972" lon="11.903768468978727"><ele>1.6</ele><time>2026-04-18T10:56:42Z</time></trkpt><trkpt lat="44.966849459040866" lon="11.90364083619142"><ele>2.0</ele><time>2026-04-18T10:56:44Z</time></trkpt><trkpt lat="44.96685120603151" lon="11.903519545359037"><ele>2.0</ele><time>2026-04-18T10:56:46Z</time></trkpt><trkpt lat="44.96684781278409" lon="11.903400078823779"><ele>2.0</ele><time>2026-04-18T10:56:48Z</time></trkpt><trkpt lat="44.966847387734965" lon="11.903277773718255"><ele>2.0</ele><time>2026-04-18T10:56:50Z</time></trkpt><trkpt lat="44.96684694073277" lon="11.903143073840967"><ele>2.0</ele><time>2026-04-18T10:56:52Z</time></trkpt><trkpt lat="44.96683595378339" lon="11.903009334987802"><ele>2.0</ele><time>2026-04-18T10:56:54Z</time></trkpt><trkpt lat="44.9668290259241" lon="11.902876463851555"><ele>1.9999999999999998</ele><time>2026-04-18T10:56:56Z</time></trkpt><trkpt lat="44.966822165581924" lon="11.902750159709958"><ele>2.0</ele><time>2026-04-18T10:56:58Z</time></trkpt><trkpt lat="44.96681431497751" lon="11.902629567191298"><ele>2.0</ele><time>2026-04-18T10:57:00Z</time></trkpt><trkpt lat="44.96680523140224" lon="11.902512328116723"><ele>2.0</ele><time>2026-04-18T10:57:02Z</time></trkpt><trkpt lat="44.96679853330699" lon="11.902401753302831"><ele>1.9999999999999998</ele><time>2026-04-18T10:57:04Z</time></trkpt><trkpt lat="44.966787167535635" lon="11.902285937304596"><ele>2.0</ele><time>2026-04-18T10:57:06Z</time></trkpt><trkpt lat="44.96677523349216" lon="11.902156136340723"><ele>1.8333333333333333</ele><time>2026-04-18T10:57:08Z</time></trkpt><trkpt lat="44.96676450302256" lon="11.90202513974195"><ele>1.6666666666666665</ele><time>2026-04-18T10:57:10Z</time></trkpt><trkpt lat="44.96675564212736" lon="11.901894582420113"><ele>1.5</ele><time>2026-04-18T10:57:12Z</time></trkpt><trkpt lat="44.96674870480529" lon="11.901773931054"><ele>1.3333333333333333</ele><time>2026-04-18T10:57:14Z</time></trkpt><trkpt lat="44.96674184393291" lon="11.901655471381613"><ele>1.1666666666666665</ele><time>2026-04-18T10:57:16Z</time></trkpt><trkpt lat="44.96673921831543" lon="11.901537384504703"><ele>1.0</ele><time>2026-04-18T10:57:18Z</time></trkpt><trkpt lat="44.96673819696768" lon="11.901410275430585"><ele>1.0</ele><time>2026-04-18T10:57:20Z</time></trkpt><trkpt lat="44.96674447561448" lon="11.901278457678561"><ele>1.0</ele><time>2026-04-18T10:57:22Z</time></trkpt><trkpt lat="44.96676349190828" lon="11.901146964477084"><ele>1.0</ele><time>2026-04-18T10:57:24Z</time></trkpt><trkpt lat="44.9667897837173" lon="11.901019319459026"><ele>1.0</ele><time>2026-04-18T10:57:26Z</time></trkpt><trkpt lat="44.966819870399725" lon="11.900900245857922"><ele>1.0</ele><time>2026-04-18T10:57:28Z</time></trkpt><trkpt lat="44.96684343556055" lon="11.900787586316937"><ele>0.9999999999999999</ele><time>2026-04-18T10:57:30Z</time></trkpt><trkpt lat="44.966870696975505" lon="11.900683682146825"><ele>1.0</ele><time>2026-04-18T10:57:32Z</time></trkpt><trkpt lat="44.96689557544798" lon="11.900583867324794"><ele>1.0</ele><time>2026-04-18T10:57:34Z</time></trkpt><trkpt lat="44.96692317943608" lon="11.900484958737652"><ele>1.0</ele><time>2026-04-18T10:57:36Z</time></trkpt><trkpt lat="44.9669673037144" lon="11.900355522612976"><ele>0.9999999999999999</ele><time>2026-04-18T10:57:39Z</time></trkpt><trkpt lat="44.96699545902865" lon="11.900232374705112"><ele>1.0</ele><time>2026-04-18T10:57:41Z</time></trkpt><trkpt lat="44.967027487510094" lon="11.900106642883216"><ele>1.0</ele><time>2026-04-18T10:57:43Z</time></trkpt><trkpt lat="44.967052564636965" lon="11.899978632415099"><ele>1.0</ele><time>2026-04-18T10:57:45Z</time></trkpt><trkpt lat="44.96708592847902" lon="11.899859910624603"><ele>1.0</ele><time>2026-04-18T10:57:47Z</time></trkpt><trkpt lat="44.96711867056737" lon="11.899739402340964"><ele>1.0</ele><time>2026-04-18T10:57:49Z</time></trkpt><trkpt lat="44.967143584486124" lon="11.899608323482624"><ele>1.0</ele><time>2026-04-18T10:57:51Z</time></trkpt><trkpt lat="44.96717323027889" lon="11.89947667186083"><ele>1.0</ele><time>2026-04-18T10:57:53Z</time></trkpt><trkpt lat="44.96719263857529" lon="11.899345983191164"><ele>1.0</ele><time>2026-04-18T10:57:55Z</time></trkpt><trkpt lat="44.96722140761675" lon="11.899208950084674"><ele>1.0</ele><time>2026-04-18T10:57:57Z</time></trkpt><trkpt lat="44.96725076597961" lon="11.899078665164897"><ele>1.0</ele><time>2026-04-18T10:57:59Z</time></trkpt><trkpt lat="44.96728391064153" lon="11.898946499221205"><ele>1.0</ele><time>2026-04-18T10:58:01Z</time></trkpt><trkpt lat="44.967311787890246" lon="11.898810377413355"><ele>1.2000000000000002</ele><time>2026-04-18T10:58:03Z</time></trkpt><trkpt lat="44.96733932329386" lon="11.898675628511818"><ele>1.4000000000000001</ele><time>2026-04-18T10:58:05Z</time></trkpt><trkpt lat="44.96736017391769" lon="11.898536786074548"><ele>1.6</ele><time>2026-04-18T10:58:07Z</time></trkpt><trkpt lat="44.96737917117485" lon="11.89840853719774"><ele>1.8</ele><time>2026-04-18T10:58:09Z</time></trkpt><trkpt lat="44.967381369375744" lon="11.898274122749404"><ele>2.0</ele><time>2026-04-18T10:58:11Z</time></trkpt><trkpt lat="44.967376296899644" lon="11.89814470435147"><ele>2.0</ele><time>2026-04-18T10:58:13Z</time></trkpt><trkpt lat="44.967371188970816" lon="11.89801146903352"><ele>2.0</ele><time>2026-04-18T10:58:15Z</time></trkpt><trkpt lat="44.96736341701985" lon="11.897880908505032"><ele>2.0</ele><time>2026-04-18T10:58:17Z</time></trkpt><trkpt lat="44.96735426614566" lon="11.897745429408257"><ele>2.0</ele><time>2026-04-18T10:58:19Z</time></trkpt><trkpt lat="44.96734867536638" lon="11.897611915462914"><ele>2.0</ele><time>2026-04-18T10:58:21Z</time></trkpt><trkpt lat="44.96734467243191" lon="11.897476469238676"><ele>1.9999999999999998</ele><time>2026-04-18T10:58:23Z</time></trkpt><trkpt lat="44.967334628319875" lon="11.897343189370819"><ele>2.0</ele><time>2026-04-18T10:58:25Z</time></trkpt><trkpt lat="44.967326254259355" lon="11.897208695713145"><ele>2.0</ele><time>2026-04-18T10:58:27Z</time></trkpt><trkpt lat="44.967314801775196" lon="11.897081355002584"><ele>2.0</ele><time>2026-04-18T10:58:29Z</time></trkpt><trkpt lat="44.9673025641025" lon="11.896964047467193"><ele>1.9999999999999998</ele><time>2026-04-18T10:58:31Z</time></trkpt><trkpt lat="44.9672854204659" lon="11.896851287986104"><ele>2.0</ele><time>2026-04-18T10:58:33Z</time></trkpt><trkpt lat="44.96726531495235" lon="11.896740840853932"><ele>2.4000000000000004</ele><time>2026-04-18T10:58:35Z</time></trkpt><trkpt lat="44.96724531005437" lon="11.89661449730804"><ele>2.8000000000000003</ele><time>2026-04-18T10:58:37Z</time></trkpt><trkpt lat="44.967227450588155" lon="11.896484657244718"><ele>3.2</ele><time>2026-04-18T10:58:39Z</time></trkpt><trkpt lat="44.967219005725696" lon="11.896355532539532"><ele>3.6</ele><time>2026-04-18T10:58:41Z</time></trkpt><trkpt lat="44.96721876706525" lon="11.896232968999367"><ele>4.0</ele><time>2026-04-18T10:58:43Z</time></trkpt><trkpt lat="44.967226822085564" lon="11.896111191714438"><ele>4.0</ele><time>2026-04-18T10:58:45Z</time></trkpt><trkpt lat="44.96723065267913" lon="11.895994195699952"><ele>4.0</ele><time>2026-04-18T10:58:47Z</time></trkpt><trkpt lat="44.967245821064395" lon="11.895876257541529"><ele>4.0</ele><time>2026-04-18T10:58:49Z</time></trkpt><trkpt lat="44.967255894218326" lon="11.895747177405667"><ele>4.0</ele><time>2026-04-18T10:58:51Z</time></trkpt><trkpt lat="44.967263651996255" lon="11.89560913932737"><ele>4.0</ele><time>2026-04-18T10:58:53Z</time></trkpt><trkpt lat="44.967273255112225" lon="11.89547077315624"><ele>3.833333333333333</ele><time>2026-04-18T10:58:55Z</time></trkpt><trkpt lat="44.96729382093717" lon="11.89533386455302"><ele>3.6666666666666665</ele><time>2026-04-18T10:58:57Z</time></trkpt><trkpt lat="44.9673163992498" lon="11.895210244849167"><ele>3.5</ele><time>2026-04-18T10:58:59Z</time></trkpt><trkpt lat="44.96734635205627" lon="11.895095817912539"><ele>3.333333333333333</ele><time>2026-04-18T10:59:01Z</time></trkpt><trkpt lat="44.96737645297281" lon="11.894990160112842"><ele>3.1666666666666665</ele><time>2026-04-18T10:59:03Z</time></trkpt><trkpt lat="44.96741631588546" lon="11.894897028197294"><ele>3.0</ele><time>2026-04-18T10:59:05Z</time></trkpt><trkpt lat="44.96745260887688" lon="11.894804690272135"><ele>2.8333333333333335</ele><time>2026-04-18T10:59:07Z</time></trkpt><trkpt lat="44.96750416574614" lon="11.894723020203754"><ele>2.6666666666666665</ele><time>2026-04-18T10:59:09Z</time></trkpt><trkpt lat="44.9675550548276" lon="11.894618886238378"><ele>2.5</ele><time>2026-04-18T10:59:11Z</time></trkpt><trkpt lat="44.96759662613526" lon="11.894506039698483"><ele>2.333333333333333</ele><time>2026-04-18T10:59:13Z</time></trkpt><trkpt lat="44.96764690324831" lon="11.894390421076409"><ele>2.1666666666666665</ele><time>2026-04-18T10:59:15Z</time></trkpt><trkpt lat="44.96770480603166" lon="11.894282467464476"><ele>2.0</ele><time>2026-04-18T10:59:17Z</time></trkpt><trkpt lat="44.96776261354886" lon="11.894178224688646"><ele>1.9999999999999998</ele><time>2026-04-18T10:59:19Z</time></trkpt><trkpt lat="44.96781418823085" lon="11.894077323675887"><ele>2.0</ele><time>2026-04-18T10:59:21Z</time></trkpt><trkpt lat="44.96785374024142" lon="11.893959534774355"><ele>2.0</ele><time>2026-04-18T10:59:23Z</time></trkpt><trkpt lat="44.96790334695647" lon="11.893865116439182"><ele>2.0</ele><time>2026-04-18T10:59:25Z</time></trkpt><trkpt lat="44.967944800760264" lon="11.893763250603767"><ele>1.9999999999999998</ele><time>2026-04-18T10:59:27Z</time></trkpt><trkpt lat="44.96798198890269" lon="11.893648740018305"><ele>2.0</ele><time>2026-04-18T10:59:29Z</time></trkpt><trkpt lat="44.968021431518146" lon="11.893545929033326"><ele>1.9999999999999998</ele><time>2026-04-18T10:59:31Z</time></trkpt><trkpt lat="44.96805729930517" lon="11.893446212063758"><ele>2.0</ele><time>2026-04-18T10:59:33Z</time></trkpt><trkpt lat="44.96809426355771" lon="11.893337975888665"><ele>2.0</ele><time>2026-04-18T10:59:35Z</time></trkpt><trkpt lat="44.96813433106739" lon="11.893227190424737"><ele>2.0</ele><time>2026-04-18T10:59:37Z</time></trkpt><trkpt lat="44.96819942194903" lon="11.893195588779355"><ele>1.9999999999999998</ele><time>2026-04-18T10:59:39Z</time></trkpt><trkpt lat="44.96826801201023" lon="11.89325142775647"><ele>2.0</ele><time>2026-04-18T10:59:41Z</time></trkpt><trkpt lat="44.968315503530576" lon="11.893183397884458"><ele>1.9999999999999998</ele><time>2026-04-18T10:59:43Z</time></trkpt><trkpt lat="44.968339037786144" lon="11.893068764212622"><ele>2.0</ele><time>2026-04-18T10:59:45Z</time></trkpt><trkpt lat="44.96838764192901" lon="11.892961253219445"><ele>2.0</ele><time>2026-04-18T10:59:47Z</time></trkpt><trkpt lat="44.968410650581866" lon="11.892837575713331"><ele>2.0</ele><time>2026-04-18T10:59:49Z</time></trkpt><trkpt lat="44.96842974320436" lon="11.892706483263902"><ele>1.9999999999999998</ele><time>2026-04-18T10:59:51Z</time></trkpt><trkpt lat="44.96845462025884" lon="11.892585867325739"><ele>2.0</ele><time>2026-04-18T10:59:53Z</time></trkpt><trkpt lat="44.96848803730117" lon="11.892473885644078"><ele>1.8333333333333333</ele><time>2026-04-18T10:59:55Z</time></trkpt><trkpt lat="44.96850396533703" lon="11.892364401048123"><ele>1.6666666666666665</ele><time>2026-04-18T10:59:57Z</time></trkpt><trkpt lat="44.96853273358287" lon="11.892239110938252"><ele>1.5</ele><time>2026-04-18T10:59:59Z</time></trkpt><trkpt lat="44.96857036578762" lon="11.892122637712115"><ele>1.3333333333333333</ele><time>2026-04-18T11:00:01Z</time></trkpt><trkpt lat="44.96858643538057" lon="11.892007494365831"><ele>1.1666666666666665</ele><time>2026-04-18T11:00:03Z</time></trkpt><trkpt lat="44.96860377603168" lon="11.891902781646529"><ele>1.0</ele><time>2026-04-18T11:00:05Z</time></trkpt><trkpt lat="44.96862351472736" lon="11.891792290278167"><ele>0.9999999999999999</ele><time>2026-04-18T11:00:07Z</time></trkpt><trkpt lat="44.96866509591573" lon="11.891695869259369"><ele>1.0</ele><time>2026-04-18T11:00:09Z</time></trkpt><trkpt lat="44.96874620185368" lon="11.891707414458349"><ele>1.0</ele><time>2026-04-18T11:00:11Z</time></trkpt><trkpt lat="44.968819095495064" lon="11.891745277231728"><ele>1.0</ele><time>2026-04-18T11:00:13Z</time></trkpt><trkpt lat="44.96890197073818" lon="11.891784489789345"><ele>0.9999999999999999</ele><time>2026-04-18T11:00:15Z</time></trkpt><trkpt lat="44.968993617042834" lon="11.891829301237829"><ele>1.0</ele><time>2026-04-18T11:00:17Z</time></trkpt><trkpt lat="44.969079945039056" lon="11.8918714694423"><ele>1.0</ele><time>2026-04-18T11:00:19Z</time></trkpt><trkpt lat="44.96916758712721" lon="11.89190510973633"><ele>1.0</ele><time>2026-04-18T11:00:21Z</time></trkpt><trkpt lat="44.969268462705315" lon="11.891891037172073"><ele>1.0</ele><time>2026-04-18T11:00:23Z</time></trkpt><trkpt lat="44.9693601610477" lon="11.891826655868297"><ele>1.0</ele><time>2026-04-18T11:00:25Z</time></trkpt><trkpt lat="44.96944543851932" lon="11.891766211307843"><ele>1.0</ele><time>2026-04-18T11:00:27Z</time></trkpt><trkpt lat="44.969528912198435" lon="11.89170704529564"><ele>1.0</ele><time>2026-04-18T11:00:29Z</time></trkpt><trkpt lat="44.969619792693045" lon="11.891642629377209"><ele>1.0</ele><time>2026-04-18T11:00:31Z</time></trkpt><trkpt lat="44.96970540084789" lon="11.891585251512351"><ele>1.0</ele><time>2026-04-18T11:00:33Z</time></trkpt><trkpt lat="44.96979129501547" lon="11.891527857835825"><ele>1.0</ele><time>2026-04-18T11:00:35Z</time></trkpt><trkpt lat="44.96987089813371" lon="11.891449951259052"><ele>1.0</ele><time>2026-04-18T11:00:37Z</time></trkpt><trkpt lat="44.96996456728451" lon="11.891412078951818"><ele>1.1666666666666665</ele><time>2026-04-18T11:00:39Z</time></trkpt><trkpt lat="44.970046353345374" lon="11.891357430471997"><ele>1.3333333333333333</ele><time>2026-04-18T11:00:41Z</time></trkpt><trkpt lat="44.970125789880484" lon="11.891304353145557"><ele>1.5</ele><time>2026-04-18T11:00:43Z</time></trkpt><trkpt lat="44.97020278243891" lon="11.891249319479801"><ele>1.6666666666666665</ele><time>2026-04-18T11:00:45Z</time></trkpt><trkpt lat="44.970275600842065" lon="11.891193807186989"><ele>1.8333333333333333</ele><time>2026-04-18T11:00:47Z</time></trkpt><trkpt lat="44.97033809152697" lon="11.891131104646933"><ele>2.0</ele><time>2026-04-18T11:00:49Z</time></trkpt><trkpt lat="44.97038724836833" lon="11.891024011173927"><ele>2.2</ele><time>2026-04-18T11:00:51Z</time></trkpt><trkpt lat="44.970363546883675" lon="11.890873770627085"><ele>2.4000000000000004</ele><time>2026-04-18T11:00:53Z</time></trkpt><trkpt lat="44.97030030751539" lon="11.890768359356057"><ele>2.5999999999999996</ele><time>2026-04-18T11:00:55Z</time></trkpt><trkpt lat="44.97027524339213" lon="11.890660633062966"><ele>2.8</ele><time>2026-04-18T11:00:57Z</time></trkpt><trkpt lat="44.97025160854085" lon="11.890556009395965"><ele>3.0</ele><time>2026-04-18T11:00:59Z</time></trkpt><trkpt lat="44.97023799982495" lon="11.890433475359066"><ele>3.0</ele><time>2026-04-18T11:01:01Z</time></trkpt><trkpt lat="44.970208758341485" lon="11.89032536132691"><ele>3.0</ele><time>2026-04-18T11:01:03Z</time></trkpt><trkpt lat="44.97018272817968" lon="11.890219916459944"><ele>3.0</ele><time>2026-04-18T11:01:05Z</time></trkpt><trkpt lat="44.97015423198522" lon="11.890101812832027"><ele>3.0</ele><time>2026-04-18T11:01:07Z</time></trkpt><trkpt lat="44.970127036068" lon="11.889980244877187"><ele>3.0</ele><time>2026-04-18T11:01:09Z</time></trkpt><trkpt lat="44.97010613469979" lon="11.889860703964448"><ele>3.0</ele><time>2026-04-18T11:01:11Z</time></trkpt><trkpt lat="44.97007934928218" lon="11.88974724478141"><ele>3.1666666666666665</ele><time>2026-04-18T11:01:13Z</time></trkpt><trkpt lat="44.970079022702954" lon="11.889639262456251"><ele>3.333333333333333</ele><time>2026-04-18T11:01:15Z</time></trkpt><trkpt lat="44.970064190242105" lon="11.889519347231097"><ele>3.5</ele><time>2026-04-18T11:01:17Z</time></trkpt><trkpt lat="44.97006098388465" lon="11.889397284219498"><ele>3.6666666666666665</ele><time>2026-04-18T11:01:19Z</time></trkpt><trkpt lat="44.97004692639955" lon="11.889278817939784"><ele>3.833333333333333</ele><time>2026-04-18T11:01:21Z</time></trkpt><trkpt lat="44.970036713549355" lon="11.889165445124952"><ele>4.0</ele><time>2026-04-18T11:01:23Z</time></trkpt><trkpt lat="44.970030844297284" lon="11.889054546670176"><ele>3.6666666666666665</ele><time>2026-04-18T11:01:25Z</time></trkpt><trkpt lat="44.97001419510491" lon="11.888933153317684"><ele>3.333333333333333</ele><time>2026-04-18T11:01:27Z</time></trkpt><trkpt lat="44.9699970934541" lon="11.888822314494748"><ele>3.0</ele><time>2026-04-18T11:01:29Z</time></trkpt><trkpt lat="44.96999240818045" lon="11.888714880312998"><ele>2.6666666666666665</ele><time>2026-04-18T11:01:31Z</time></trkpt><trkpt lat="44.96997777282502" lon="11.888601373759007"><ele>2.333333333333333</ele><time>2026-04-18T11:01:33Z</time></trkpt><trkpt lat="44.969957456544996" lon="11.888482956744815"><ele>2.0</ele><time>2026-04-18T11:01:35Z</time></trkpt><trkpt lat="44.96994040715799" lon="11.888371750570101"><ele>1.8333333333333333</ele><time>2026-04-18T11:01:37Z</time></trkpt><trkpt lat="44.969921449187154" lon="11.888255617809541"><ele>1.6666666666666665</ele><time>2026-04-18T11:01:39Z</time></trkpt><trkpt lat="44.96991635464199" lon="11.888151969809808"><ele>1.5</ele><time>2026-04-18T11:01:41Z</time></trkpt><trkpt lat="44.969933788653975" lon="11.88805474397998"><ele>1.3333333333333333</ele><time>2026-04-18T11:01:43Z</time></trkpt><trkpt lat="44.96997676726019" lon="11.887971585424072"><ele>1.1666666666666665</ele><time>2026-04-18T11:01:45Z</time></trkpt><trkpt lat="44.970022122349235" lon="11.887863515014105"><ele>1.0</ele><time>2026-04-18T11:01:47Z</time></trkpt><trkpt lat="44.970079612274674" lon="11.88777577153202"><ele>1.1666666666666665</ele><time>2026-04-18T11:01:49Z</time></trkpt><trkpt lat="44.97013069920603" lon="11.887675900170539"><ele>1.3333333333333333</ele><time>2026-04-18T11:01:51Z</time></trkpt><trkpt lat="44.97018106495433" lon="11.887600322332759"><ele>1.5</ele><time>2026-04-18T11:01:53Z</time></trkpt><trkpt lat="44.97022353964709" lon="11.887522700373218"><ele>1.6666666666666665</ele><time>2026-04-18T11:01:55Z</time></trkpt><trkpt lat="44.9702775750961" lon="11.88744127969757"><ele>1.8333333333333333</ele><time>2026-04-18T11:01:57Z</time></trkpt><trkpt lat="44.970330608569256" lon="11.887330382974977"><ele>2.0</ele><time>2026-04-18T11:01:59Z</time></trkpt><trkpt lat="44.97038792347282" lon="11.887241667939083"><ele>1.9999999999999998</ele><time>2026-04-18T11:02:01Z</time></trkpt><trkpt lat="44.970428897009846" lon="11.88714084727323"><ele>2.0</ele><time>2026-04-18T11:02:03Z</time></trkpt><trkpt lat="44.970475923056604" lon="11.88705082907053"><ele>2.0</ele><time>2026-04-18T11:02:05Z</time></trkpt><trkpt lat="44.970522462419794" lon="11.886966605379333"><ele>2.0</ele><time>2026-04-18T11:02:07Z</time></trkpt><trkpt lat="44.97056649894095" lon="11.886884213312126"><ele>1.9999999999999998</ele><time>2026-04-18T11:02:09Z</time></trkpt><trkpt lat="44.97062160917484" lon="11.88679649543148"><ele>2.0</ele><time>2026-04-18T11:02:11Z</time></trkpt><trkpt lat="44.970674684814796" lon="11.886690358181822"><ele>1.9999999999999998</ele><time>2026-04-18T11:02:13Z</time></trkpt><trkpt lat="44.97072721857117" lon="11.886592517602592"><ele>2.0</ele><time>2026-04-18T11:02:15Z</time></trkpt><trkpt lat="44.97078310771944" lon="11.886492638990138"><ele>2.0</ele><time>2026-04-18T11:02:17Z</time></trkpt><trkpt lat="44.970828586511956" lon="11.886389699387086"><ele>2.0</ele><time>2026-04-18T11:02:19Z</time></trkpt><trkpt lat="44.9708800360505" lon="11.886291653156444"><ele>1.9999999999999998</ele><time>2026-04-18T11:02:21Z</time></trkpt><trkpt lat="44.97093390961221" lon="11.886197440028509"><ele>2.0</ele><time>2026-04-18T11:02:23Z</time></trkpt><trkpt lat="44.970987679940286" lon="11.886106154604422"><ele>2.0</ele><time>2026-04-18T11:02:25Z</time></trkpt><trkpt lat="44.97103955632396" lon="11.886003583994823"><ele>2.0</ele><time>2026-04-18T11:02:27Z</time></trkpt><trkpt lat="44.97109871607975" lon="11.885891873428504"><ele>2.0</ele><time>2026-04-18T11:02:29Z</time></trkpt><trkpt lat="44.97115258360527" lon="11.885778348696007"><ele>2.0</ele><time>2026-04-18T11:02:31Z</time></trkpt><trkpt lat="44.97121075910977" lon="11.885679080971158"><ele>2.0</ele><time>2026-04-18T11:02:33Z</time></trkpt><trkpt lat="44.971261559087345" lon="11.885583669170762"><ele>1.9999999999999998</ele><time>2026-04-18T11:02:35Z</time></trkpt><trkpt lat="44.971319664308886" lon="11.88549689026589"><ele>2.0</ele><time>2026-04-18T11:02:37Z</time></trkpt><trkpt lat="44.97136766342622" lon="11.885401603230818"><ele>2.0</ele><time>2026-04-18T11:02:39Z</time></trkpt><trkpt lat="44.971441180481165" lon="11.885341430338645"><ele>2.0</ele><time>2026-04-18T11:02:41Z</time></trkpt><trkpt lat="44.971488181715394" lon="11.885256801592773"><ele>1.9999999999999998</ele><time>2026-04-18T11:02:43Z</time></trkpt><trkpt lat="44.971539182372275" lon="11.88516497167823"><ele>2.0</ele><time>2026-04-18T11:02:45Z</time></trkpt><trkpt lat="44.97159586088979" lon="11.885062918695683"><ele>2.0</ele><time>2026-04-18T11:02:47Z</time></trkpt><trkpt lat="44.97165478749424" lon="11.88495681775845"><ele>2.0</ele><time>2026-04-18T11:02:49Z</time></trkpt><trkpt lat="44.97171876794247" lon="11.884841616806655"><ele>2.0</ele><time>2026-04-18T11:02:51Z</time></trkpt><trkpt lat="44.97179129197547" lon="11.884711033072495"><ele>2.0</ele><time>2026-04-18T11:02:53Z</time></trkpt><trkpt lat="44.97185879234722" lon="11.884589494660625"><ele>2.0</ele><time>2026-04-18T11:02:55Z</time></trkpt><trkpt lat="44.97192272730343" lon="11.88447447410593"><ele>1.9999999999999998</ele><time>2026-04-18T11:02:57Z</time></trkpt><trkpt lat="44.97198342236064" lon="11.884365796613556"><ele>2.0</ele><time>2026-04-18T11:02:59Z</time></trkpt><trkpt lat="44.97204099590747" lon="11.884262708522465"><ele>2.0</ele><time>2026-04-18T11:03:01Z</time></trkpt><trkpt lat="44.97209385433153" lon="11.884169273874358"><ele>2.0</ele><time>2026-04-18T11:03:03Z</time></trkpt><trkpt lat="44.97214435962372" lon="11.884081344015677"><ele>1.9999999999999998</ele><time>2026-04-18T11:03:05Z</time></trkpt><trkpt lat="44.972189427712074" lon="11.883970008377235"><ele>2.0</ele><time>2026-04-18T11:03:07Z</time></trkpt><trkpt lat="44.972263091974504" lon="11.883866671623428"><ele>2.1666666666666665</ele><time>2026-04-18T11:03:09Z</time></trkpt><trkpt lat="44.97229308384915" lon="11.883756946735655"><ele>2.333333333333333</ele><time>2026-04-18T11:03:11Z</time></trkpt><trkpt lat="44.97232429388401" lon="11.883663568062818"><ele>2.5</ele><time>2026-04-18T11:03:13Z</time></trkpt><trkpt lat="44.97236077984554" lon="11.883578523676647"><ele>2.6666666666666665</ele><time>2026-04-18T11:03:15Z</time></trkpt><trkpt lat="44.97236168725796" lon="11.883452468314287"><ele>2.8333333333333335</ele><time>2026-04-18T11:03:18Z</time></trkpt><trkpt lat="44.9723578718575" lon="11.883322173225359"><ele>3.0</ele><time>2026-04-18T11:03:21Z</time></trkpt><trkpt lat="44.97234324533271" lon="11.883198002310449"><ele>3.0</ele><time>2026-04-18T11:03:24Z</time></trkpt><trkpt lat="44.97233304672069" lon="11.883099671201217"><ele>3.0</ele><time>2026-04-18T11:03:27Z</time></trkpt><trkpt lat="44.9723496293917" lon="11.883010028062841"><ele>3.0</ele><time>2026-04-18T11:03:30Z</time></trkpt><trkpt lat="44.97228683112737" lon="11.882914431940632"><ele>3.0</ele><time>2026-04-18T11:03:32Z</time></trkpt><trkpt lat="44.97222523730217" lon="11.882801364282795"><ele>3.0</ele><time>2026-04-18T11:03:34Z</time></trkpt><trkpt lat="44.97217290470833" lon="11.882679289800985"><ele>3.0</ele><time>2026-04-18T11:03:36Z</time></trkpt><trkpt lat="44.97212175487903" lon="11.882559780821005"><ele>3.0</ele><time>2026-04-18T11:03:38Z</time></trkpt><trkpt lat="44.97207536871228" lon="11.882441289449446"><ele>3.0</ele><time>2026-04-18T11:03:40Z</time></trkpt><trkpt lat="44.972021208179555" lon="11.882335063314358"><ele>3.0</ele><time>2026-04-18T11:03:42Z</time></trkpt><trkpt lat="44.97197135951701" lon="11.88222459624281"><ele>3.0</ele><time>2026-04-18T11:03:44Z</time></trkpt><trkpt lat="44.9719258894816" lon="11.8821141333964"><ele>3.0</ele><time>2026-04-18T11:03:46Z</time></trkpt><trkpt lat="44.97187521472565" lon="11.882006017481933"><ele>3.0</ele><time>2026-04-18T11:03:48Z</time></trkpt><trkpt lat="44.97182573497009" lon="11.881894047948427"><ele>3.0</ele><time>2026-04-18T11:03:50Z</time></trkpt><trkpt lat="44.971783227359126" lon="11.88177369967415"><ele>3.0</ele><time>2026-04-18T11:03:52Z</time></trkpt><trkpt lat="44.97173457356213" lon="11.88165832459943"><ele>3.0</ele><time>2026-04-18T11:03:54Z</time></trkpt><trkpt lat="44.97168381066417" lon="11.881541232248596"><ele>3.0</ele><time>2026-04-18T11:03:56Z</time></trkpt><trkpt lat="44.97163344504686" lon="11.881421888394856"><ele>3.2</ele><time>2026-04-18T11:03:58Z</time></trkpt><trkpt lat="44.97158369172328" lon="11.88130508730734"><ele>3.4</ele><time>2026-04-18T11:04:00Z</time></trkpt><trkpt lat="44.971532442155564" lon="11.881188431183562"><ele>3.6000000000000005</ele><time>2026-04-18T11:04:02Z</time></trkpt><trkpt lat="44.97148014012861" lon="11.881069330415391"><ele>3.8000000000000003</ele><time>2026-04-18T11:04:04Z</time></trkpt><trkpt lat="44.97142932018759" lon="11.880955025111856"><ele>4.0</ele><time>2026-04-18T11:04:06Z</time></trkpt><trkpt lat="44.97138109502529" lon="11.880839359641724"><ele>4.2</ele><time>2026-04-18T11:04:08Z</time></trkpt><trkpt lat="44.97132837972758" lon="11.880722347842287"><ele>4.4</ele><time>2026-04-18T11:04:10Z</time></trkpt><trkpt lat="44.97127998381219" lon="11.880604186792592"><ele>4.6</ele><time>2026-04-18T11:04:12Z</time></trkpt><trkpt lat="44.971229620290586" lon="11.880493695499448"><ele>4.8</ele><time>2026-04-18T11:04:14Z</time></trkpt><trkpt lat="44.971175420053775" lon="11.88037814433647"><ele>5.0</ele><time>2026-04-18T11:04:16Z</time></trkpt><trkpt lat="44.97112846637798" lon="11.880258472957715"><ele>5.0</ele><time>2026-04-18T11:04:18Z</time></trkpt><trkpt lat="44.971079377442784" lon="11.880144812692548"><ele>5.0</ele><time>2026-04-18T11:04:20Z</time></trkpt><trkpt lat="44.97102673825344" lon="11.880029856578236"><ele>5.0</ele><time>2026-04-18T11:04:22Z</time></trkpt><trkpt lat="44.97097478694762" lon="11.879910631237797"><ele>5.0</ele><time>2026-04-18T11:04:24Z</time></trkpt><trkpt lat="44.970927093665686" lon="11.879802935944522"><ele>5.0</ele><time>2026-04-18T11:04:26Z</time></trkpt><trkpt lat="44.97088091176472" lon="11.879688689713289"><ele>5.2</ele><time>2026-04-18T11:04:28Z</time></trkpt><trkpt lat="44.97083458940631" lon="11.879574702678536"><ele>5.4</ele><time>2026-04-18T11:04:30Z</time></trkpt><trkpt lat="44.970784798182194" lon="11.879464268998063"><ele>5.6</ele><time>2026-04-18T11:04:32Z</time></trkpt><trkpt lat="44.970733091957264" lon="11.879350127235794"><ele>5.8</ele><time>2026-04-18T11:04:34Z</time></trkpt><trkpt lat="44.970688646570785" lon="11.879233077745257"><ele>6.0</ele><time>2026-04-18T11:04:36Z</time></trkpt><trkpt lat="44.97063866715231" lon="11.879114819090127"><ele>6.0</ele><time>2026-04-18T11:04:38Z</time></trkpt><trkpt lat="44.970584340883214" lon="11.878999620921556"><ele>6.0</ele><time>2026-04-18T11:04:40Z</time></trkpt><trkpt lat="44.970534185446304" lon="11.878880713203525"><ele>6.0</ele><time>2026-04-18T11:04:42Z</time></trkpt><trkpt lat="44.97048599942753" lon="11.878765416801807"><ele>6.0</ele><time>2026-04-18T11:04:44Z</time></trkpt><trkpt lat="44.97043582187983" lon="11.878650727692092"><ele>6.0</ele><time>2026-04-18T11:04:46Z</time></trkpt><trkpt lat="44.97038991492031" lon="11.878534728408878"><ele>6.8</ele><time>2026-04-18T11:04:48Z</time></trkpt><trkpt lat="44.97034610518831" lon="11.87841508706844"><ele>7.6</ele><time>2026-04-18T11:04:50Z</time></trkpt><trkpt lat="44.97030399208655" lon="11.878296567318941"><ele>8.4</ele><time>2026-04-18T11:04:52Z</time></trkpt><trkpt lat="44.97026445764214" lon="11.878177462021869"><ele>9.2</ele><time>2026-04-18T11:04:54Z</time></trkpt><trkpt lat="44.97022948080636" lon="11.878053553070215"><ele>10.0</ele><time>2026-04-18T11:04:56Z</time></trkpt><trkpt lat="44.970199689769316" lon="11.877926494592352"><ele>10.0</ele><time>2026-04-18T11:04:58Z</time></trkpt><trkpt lat="44.970167561697444" lon="11.877799764701749"><ele>10.0</ele><time>2026-04-18T11:05:00Z</time></trkpt><trkpt lat="44.97013812743236" lon="11.877675266899196"><ele>10.0</ele><time>2026-04-18T11:05:02Z</time></trkpt><trkpt lat="44.970112907129575" lon="11.877549356640305"><ele>10.0</ele><time>2026-04-18T11:05:04Z</time></trkpt><trkpt lat="44.9700994787461" lon="11.877419556255346"><ele>10.0</ele><time>2026-04-18T11:05:06Z</time></trkpt><trkpt lat="44.97009955952287" lon="11.87728540926146"><ele>10.0</ele><time>2026-04-18T11:05:08Z</time></trkpt><trkpt lat="44.970113998833554" lon="11.877154316109289"><ele>10.0</ele><time>2026-04-18T11:05:10Z</time></trkpt><trkpt lat="44.97013406981617" lon="11.877024441564362"><ele>10.0</ele><time>2026-04-18T11:05:12Z</time></trkpt><trkpt lat="44.970167287505696" lon="11.876902828645294"><ele>10.0</ele><time>2026-04-18T11:05:14Z</time></trkpt><trkpt lat="44.97020417708374" lon="11.87677961191812"><ele>10.0</ele><time>2026-04-18T11:05:16Z</time></trkpt><trkpt lat="44.9702426161767" lon="11.876655079361422"><ele>10.0</ele><time>2026-04-18T11:05:18Z</time></trkpt><trkpt lat="44.97028640554098" lon="11.876532888969429"><ele>10.0</ele><time>2026-04-18T11:05:20Z</time></trkpt><trkpt lat="44.97032472875212" lon="11.876404489051621"><ele>10.0</ele><time>2026-04-18T11:05:22Z</time></trkpt><trkpt lat="44.97036900286727" lon="11.87628273316696"><ele>10.0</ele><time>2026-04-18T11:05:24Z</time></trkpt><trkpt lat="44.97041776815133" lon="11.876164354249656"><ele>10.0</ele><time>2026-04-18T11:05:26Z</time></trkpt><trkpt lat="44.97046643724927" lon="11.876047755856272"><ele>9.4</ele><time>2026-04-18T11:05:28Z</time></trkpt><trkpt lat="44.970517756630905" lon="11.875935385477362"><ele>8.8</ele><time>2026-04-18T11:05:30Z</time></trkpt><trkpt lat="44.970566393052565" lon="11.875813580551263"><ele>8.2</ele><time>2026-04-18T11:05:32Z</time></trkpt><trkpt lat="44.97062038899215" lon="11.875703452924057"><ele>7.6</ele><time>2026-04-18T11:05:34Z</time></trkpt><trkpt lat="44.97067079745212" lon="11.875582400450414"><ele>7.0</ele><time>2026-04-18T11:05:36Z</time></trkpt><trkpt lat="44.97072315894143" lon="11.875469828435918"><ele>7.0</ele><time>2026-04-18T11:05:38Z</time></trkpt><trkpt lat="44.9707715527602" lon="11.87535559551035"><ele>6.999999999999999</ele><time>2026-04-18T11:05:40Z</time></trkpt><trkpt lat="44.97081740427973" lon="11.875235324529127"><ele>6.999999999999999</ele><time>2026-04-18T11:05:42Z</time></trkpt><trkpt lat="44.97086058845828" lon="11.875113513521983"><ele>7.0</ele><time>2026-04-18T11:05:44Z</time></trkpt><trkpt lat="44.97089668780913" lon="11.87498666132646"><ele>7.0</ele><time>2026-04-18T11:05:46Z</time></trkpt><trkpt lat="44.97093261630791" lon="11.87485638620531"><ele>6.8</ele><time>2026-04-18T11:05:48Z</time></trkpt><trkpt lat="44.97096330235572" lon="11.874723729567723"><ele>6.6</ele><time>2026-04-18T11:05:50Z</time></trkpt><trkpt lat="44.970993975061106" lon="11.874586981505583"><ele>6.3999999999999995</ele><time>2026-04-18T11:05:52Z</time></trkpt><trkpt lat="44.97102332685833" lon="11.87445152881235"><ele>6.199999999999999</ele><time>2026-04-18T11:05:54Z</time></trkpt><trkpt lat="44.971052019071465" lon="11.874317695574694"><ele>6.0</ele><time>2026-04-18T11:05:56Z</time></trkpt><trkpt lat="44.971076086839965" lon="11.874182914686097"><ele>5.8</ele><time>2026-04-18T11:05:58Z</time></trkpt><trkpt lat="44.97109520817284" lon="11.874049628134406"><ele>5.6</ele><time>2026-04-18T11:06:00Z</time></trkpt><trkpt lat="44.97111578777606" lon="11.87391559121944"><ele>5.4</ele><time>2026-04-18T11:06:02Z</time></trkpt><trkpt lat="44.97113401618557" lon="11.87377939896006"><ele>5.2</ele><time>2026-04-18T11:06:04Z</time></trkpt><trkpt lat="44.97115244393819" lon="11.873644666303823"><ele>5.0</ele><time>2026-04-18T11:06:06Z</time></trkpt><trkpt lat="44.97117059171752" lon="11.87350984571179"><ele>5.4</ele><time>2026-04-18T11:06:08Z</time></trkpt><trkpt lat="44.97118852854828" lon="11.873370480564882"><ele>5.8</ele><time>2026-04-18T11:06:10Z</time></trkpt><trkpt lat="44.97119911981815" lon="11.873234310673515"><ele>6.199999999999999</ele><time>2026-04-18T11:06:12Z</time></trkpt><trkpt lat="44.97121791042343" lon="11.873098014260442"><ele>6.6</ele><time>2026-04-18T11:06:14Z</time></trkpt><trkpt lat="44.97123657186292" lon="11.872966112794268"><ele>7.0</ele><time>2026-04-18T11:06:16Z</time></trkpt><trkpt lat="44.97125640355943" lon="11.872835190082753"><ele>7.0</ele><time>2026-04-18T11:06:18Z</time></trkpt><trkpt lat="44.971272114610834" lon="11.872703605958122"><ele>6.999999999999999</ele><time>2026-04-18T11:06:20Z</time></trkpt><trkpt lat="44.971281840201456" lon="11.872566187634355"><ele>6.999999999999999</ele><time>2026-04-18T11:06:22Z</time></trkpt><trkpt lat="44.97129728596854" lon="11.872431871501403"><ele>7.0</ele><time>2026-04-18T11:06:24Z</time></trkpt><trkpt lat="44.97131095038678" lon="11.87229478090554"><ele>7.0</ele><time>2026-04-18T11:06:26Z</time></trkpt><trkpt lat="44.97132658140039" lon="11.872161404710157"><ele>7.199999999999999</ele><time>2026-04-18T11:06:28Z</time></trkpt><trkpt lat="44.97134277470414" lon="11.872026094728598"><ele>7.3999999999999995</ele><time>2026-04-18T11:06:30Z</time></trkpt><trkpt lat="44.971356755243725" lon="11.871884642785687"><ele>7.6000000000000005</ele><time>2026-04-18T11:06:32Z</time></trkpt><trkpt lat="44.97136494702643" lon="11.871749206466447"><ele>7.800000000000001</ele><time>2026-04-18T11:06:34Z</time></trkpt><trkpt lat="44.97137718031979" lon="11.87161289235596"><ele>8.0</ele><time>2026-04-18T11:06:36Z</time></trkpt><trkpt lat="44.97139056090352" lon="11.871477892710303"><ele>7.4</ele><time>2026-04-18T11:06:38Z</time></trkpt><trkpt lat="44.97140207366508" lon="11.871343050764017"><ele>6.800000000000001</ele><time>2026-04-18T11:06:40Z</time></trkpt><trkpt lat="44.97141480313875" lon="11.871209349419624"><ele>6.2</ele><time>2026-04-18T11:06:42Z</time></trkpt><trkpt lat="44.971423807615935" lon="11.871074745135902"><ele>5.6</ele><time>2026-04-18T11:06:44Z</time></trkpt><trkpt lat="44.97143277451745" lon="11.870941277724363"><ele>5.0</ele><time>2026-04-18T11:06:46Z</time></trkpt><trkpt lat="44.971446981426055" lon="11.87080720120935"><ele>4.8</ele><time>2026-04-18T11:06:48Z</time></trkpt><trkpt lat="44.971448209601185" lon="11.87067063687616"><ele>4.6</ele><time>2026-04-18T11:06:50Z</time></trkpt><trkpt lat="44.971448991015755" lon="11.870539302436518"><ele>4.4</ele><time>2026-04-18T11:06:52Z</time></trkpt><trkpt lat="44.971449099258926" lon="11.870403602395486"><ele>4.2</ele><time>2026-04-18T11:06:54Z</time></trkpt><trkpt lat="44.97144658067586" lon="11.870271309850056"><ele>4.0</ele><time>2026-04-18T11:06:56Z</time></trkpt><trkpt lat="44.9714487972401" lon="11.870136606512244"><ele>4.2</ele><time>2026-04-18T11:06:58Z</time></trkpt><trkpt lat="44.97144672614914" lon="11.869999174320595"><ele>4.4</ele><time>2026-04-18T11:07:00Z</time></trkpt><trkpt lat="44.971443681780556" lon="11.869864688773996"><ele>4.6</ele><time>2026-04-18T11:07:02Z</time></trkpt><trkpt lat="44.97144250993611" lon="11.869732255938953"><ele>4.8</ele><time>2026-04-18T11:07:04Z</time></trkpt><trkpt lat="44.971433807722214" lon="11.86959776076349"><ele>5.0</ele><time>2026-04-18T11:07:06Z</time></trkpt><trkpt lat="44.971427706210086" lon="11.869464797190503"><ele>5.0</ele><time>2026-04-18T11:07:08Z</time></trkpt><trkpt lat="44.971421916707804" lon="11.869334286807701"><ele>5.0</ele><time>2026-04-18T11:07:10Z</time></trkpt><trkpt lat="44.97141476247992" lon="11.869203496201628"><ele>5.0</ele><time>2026-04-18T11:07:12Z</time></trkpt><trkpt lat="44.97141060418436" lon="11.869077017342626"><ele>5.0</ele><time>2026-04-18T11:07:14Z</time></trkpt><trkpt lat="44.97140053971882" lon="11.868957505823674"><ele>5.0</ele><time>2026-04-18T11:07:16Z</time></trkpt><trkpt lat="44.97139396362024" lon="11.868839766758706"><ele>5.0</ele><time>2026-04-18T11:07:18Z</time></trkpt><trkpt lat="44.97138655133657" lon="11.868707719245942"><ele>5.0</ele><time>2026-04-18T11:07:20Z</time></trkpt><trkpt lat="44.97138063592991" lon="11.868561110048475"><ele>5.0</ele><time>2026-04-18T11:07:22Z</time></trkpt><trkpt lat="44.971370082454925" lon="11.868405545723773"><ele>5.0</ele><time>2026-04-18T11:07:24Z</time></trkpt><trkpt lat="44.97135917260181" lon="11.868251244189004"><ele>5.0</ele><time>2026-04-18T11:07:26Z</time></trkpt><trkpt lat="44.97134974471517" lon="11.868098157963777"><ele>5.0</ele><time>2026-04-18T11:07:28Z</time></trkpt><trkpt lat="44.97134274818878" lon="11.86794739090658"><ele>5.0</ele><time>2026-04-18T11:07:30Z</time></trkpt><trkpt lat="44.97132509514178" lon="11.867804551684854"><ele>5.0</ele><time>2026-04-18T11:07:32Z</time></trkpt><trkpt lat="44.97131593159451" lon="11.867674459164226"><ele>5.0</ele><time>2026-04-18T11:07:34Z</time></trkpt><trkpt lat="44.971299513531925" lon="11.867550267006102"><ele>5.0</ele><time>2026-04-18T11:07:36Z</time></trkpt><trkpt lat="44.97129317579252" lon="11.867434862680998"><ele>5.0</ele><time>2026-04-18T11:07:38Z</time></trkpt><trkpt lat="44.97128685007764" lon="11.867318585664707"><ele>5.0</ele><time>2026-04-18T11:07:40Z</time></trkpt><trkpt lat="44.971284341098325" lon="11.867190144488942"><ele>5.2</ele><time>2026-04-18T11:07:42Z</time></trkpt><trkpt lat="44.97127555615339" lon="11.867058873288748"><ele>5.4</ele><time>2026-04-18T11:07:44Z</time></trkpt><trkpt lat="44.97128074385769" lon="11.866921848340855"><ele>5.6</ele><time>2026-04-18T11:07:46Z</time></trkpt><trkpt lat="44.97127036259095" lon="11.86678937660529"><ele>5.8</ele><time>2026-04-18T11:07:48Z</time></trkpt><trkpt lat="44.971260036692726" lon="11.866657611449302"><ele>6.0</ele><time>2026-04-18T11:07:50Z</time></trkpt><trkpt lat="44.971249443154285" lon="11.866526931084733"><ele>6.5</ele><time>2026-04-18T11:07:52Z</time></trkpt><trkpt lat="44.97122681219449" lon="11.866398123774603"><ele>7.0</ele><time>2026-04-18T11:07:54Z</time></trkpt><trkpt lat="44.97121525346919" lon="11.866274512875476"><ele>7.5</ele><time>2026-04-18T11:07:56Z</time></trkpt><trkpt lat="44.97120520009074" lon="11.866161703388002"><ele>8.0</ele><time>2026-04-18T11:07:58Z</time></trkpt><trkpt lat="44.97118992329049" lon="11.866047684706764"><ele>8.5</ele><time>2026-04-18T11:08:00Z</time></trkpt><trkpt lat="44.97117977414415" lon="11.865924614657407"><ele>9.0</ele><time>2026-04-18T11:08:02Z</time></trkpt><trkpt lat="44.971159482959884" lon="11.865788222013972"><ele>9.2</ele><time>2026-04-18T11:08:04Z</time></trkpt><trkpt lat="44.9711496665889" lon="11.865654333355465"><ele>9.4</ele><time>2026-04-18T11:08:06Z</time></trkpt><trkpt lat="44.97113824611357" lon="11.865522879986376"><ele>9.6</ele><time>2026-04-18T11:08:08Z</time></trkpt><trkpt lat="44.97112755967407" lon="11.865389097500291"><ele>9.8</ele><time>2026-04-18T11:08:10Z</time></trkpt><trkpt lat="44.971108406598766" lon="11.865258591422446"><ele>10.0</ele><time>2026-04-18T11:08:12Z</time></trkpt><trkpt lat="44.97110086749824" lon="11.865134692595488"><ele>10.6</ele><time>2026-04-18T11:08:14Z</time></trkpt><trkpt lat="44.97108743056079" lon="11.86500232226069"><ele>11.2</ele><time>2026-04-18T11:08:16Z</time></trkpt><trkpt lat="44.97107370274808" lon="11.864868705029455"><ele>11.8</ele><time>2026-04-18T11:08:18Z</time></trkpt><trkpt lat="44.971058904271906" lon="11.864739543389945"><ele>12.4</ele><time>2026-04-18T11:08:20Z</time></trkpt><trkpt lat="44.971044581324236" lon="11.864609534615521"><ele>13.0</ele><time>2026-04-18T11:08:22Z</time></trkpt><trkpt lat="44.9710300345057" lon="11.864477935766226"><ele>13.0</ele><time>2026-04-18T11:08:24Z</time></trkpt><trkpt lat="44.97101799257116" lon="11.864350471863702"><ele>13.0</ele><time>2026-04-18T11:08:26Z</time></trkpt><trkpt lat="44.9710074807408" lon="11.864213114563428"><ele>13.0</ele><time>2026-04-18T11:08:28Z</time></trkpt><trkpt lat="44.97099139586885" lon="11.864081043877514"><ele>13.0</ele><time>2026-04-18T11:08:30Z</time></trkpt><trkpt lat="44.970975135329915" lon="11.863950388672336"><ele>13.0</ele><time>2026-04-18T11:08:32Z</time></trkpt><trkpt lat="44.970965146084986" lon="11.863822715764899"><ele>13.2</ele><time>2026-04-18T11:08:34Z</time></trkpt><trkpt lat="44.970952526981144" lon="11.863687162915053"><ele>13.4</ele><time>2026-04-18T11:08:36Z</time></trkpt><trkpt lat="44.9709385197726" lon="11.863554571243704"><ele>13.599999999999998</ele><time>2026-04-18T11:08:38Z</time></trkpt><trkpt lat="44.970924578747" lon="11.863422488671123"><ele>13.799999999999999</ele><time>2026-04-18T11:08:40Z</time></trkpt><trkpt lat="44.970913249367136" lon="11.863289993806434"><ele>14.0</ele><time>2026-04-18T11:08:42Z</time></trkpt><trkpt lat="44.970892506948914" lon="11.863160604876386"><ele>13.0</ele><time>2026-04-18T11:08:44Z</time></trkpt><trkpt lat="44.97088048897151" lon="11.863027720481645"><ele>11.999999999999998</ele><time>2026-04-18T11:08:46Z</time></trkpt><trkpt lat="44.970861127393434" lon="11.862890528868732"><ele>11.0</ele><time>2026-04-18T11:08:48Z</time></trkpt><trkpt lat="44.970845526706086" lon="11.862754324110858"><ele>10.0</ele><time>2026-04-18T11:08:50Z</time></trkpt><trkpt lat="44.97083658184049" lon="11.862616120984086"><ele>9.0</ele><time>2026-04-18T11:08:52Z</time></trkpt><trkpt lat="44.97082357101802" lon="11.862482981960193"><ele>8.0</ele><time>2026-04-18T11:08:54Z</time></trkpt><trkpt lat="44.97081056329023" lon="11.862351004343958"><ele>7.0</ele><time>2026-04-18T11:08:56Z</time></trkpt><trkpt lat="44.970792163809364" lon="11.862211110484077"><ele>6.0</ele><time>2026-04-18T11:08:58Z</time></trkpt><trkpt lat="44.970780358000745" lon="11.86207654861076"><ele>5.0</ele><time>2026-04-18T11:09:00Z</time></trkpt><trkpt lat="44.97076540604232" lon="11.861939629738755"><ele>4.0</ele><time>2026-04-18T11:09:02Z</time></trkpt><trkpt lat="44.970750125066445" lon="11.861809883299825"><ele>4.5</ele><time>2026-04-18T11:09:04Z</time></trkpt><trkpt lat="44.97073078360032" lon="11.861697140528833"><ele>5.0</ele><time>2026-04-18T11:09:06Z</time></trkpt><trkpt lat="44.970720929403186" lon="11.861580600345679"><ele>5.5</ele><time>2026-04-18T11:10:10Z</time></trkpt><trkpt lat="44.97070760051144" lon="11.861477573715321"><ele>6.0</ele><time>2026-04-18T11:10:13Z</time></trkpt><trkpt lat="44.9707006461301" lon="11.861374020992487"><ele>6.500000000000001</ele><time>2026-04-18T11:10:15Z</time></trkpt><trkpt lat="44.97068859731575" lon="11.861255289503127"><ele>7.0</ele><time>2026-04-18T11:10:17Z</time></trkpt><trkpt lat="44.97067432288885" lon="11.861129911182516"><ele>7.0</ele><time>2026-04-18T11:10:19Z</time></trkpt><trkpt lat="44.970657859558166" lon="11.86100315918437"><ele>6.999999999999999</ele><time>2026-04-18T11:10:21Z</time></trkpt><trkpt lat="44.970647694046185" lon="11.86087235066278"><ele>6.999999999999999</ele><time>2026-04-18T11:10:23Z</time></trkpt><trkpt lat="44.970632376654336" lon="11.860738608994689"><ele>7.0</ele><time>2026-04-18T11:10:25Z</time></trkpt><trkpt lat="44.970623038214136" lon="11.860604568669654"><ele>7.0</ele><time>2026-04-18T11:10:27Z</time></trkpt><trkpt lat="44.97060916392373" lon="11.860469620994607"><ele>7.199999999999999</ele><time>2026-04-18T11:10:29Z</time></trkpt><trkpt lat="44.97058911541083" lon="11.860337386084984"><ele>7.3999999999999995</ele><time>2026-04-18T11:10:31Z</time></trkpt><trkpt lat="44.970578359875425" lon="11.860203236255476"><ele>7.6000000000000005</ele><time>2026-04-18T11:10:33Z</time></trkpt><trkpt lat="44.97056875667491" lon="11.860071063646307"><ele>7.800000000000001</ele><time>2026-04-18T11:10:35Z</time></trkpt><trkpt lat="44.97054992132603" lon="11.859940221171652"><ele>8.0</ele><time>2026-04-18T11:10:37Z</time></trkpt><trkpt lat="44.97054032144466" lon="11.859808458353397"><ele>8.0</ele><time>2026-04-18T11:10:39Z</time></trkpt><trkpt lat="44.97052373103452" lon="11.859674675132249"><ele>8.0</ele><time>2026-04-18T11:10:41Z</time></trkpt><trkpt lat="44.97051301108883" lon="11.859540318588651"><ele>8.0</ele><time>2026-04-18T11:10:43Z</time></trkpt><trkpt lat="44.97049716027032" lon="11.859406837370827"><ele>8.0</ele><time>2026-04-18T11:10:45Z</time></trkpt><trkpt lat="44.97048091887249" lon="11.859271255608617"><ele>8.0</ele><time>2026-04-18T11:10:47Z</time></trkpt><trkpt lat="44.97046900782945" lon="11.859136575733636"><ele>7.6000000000000005</ele><time>2026-04-18T11:10:49Z</time></trkpt><trkpt lat="44.970453936152765" lon="11.859001917103491"><ele>7.200000000000001</ele><time>2026-04-18T11:10:51Z</time></trkpt><trkpt lat="44.97044133291122" lon="11.85886347430834"><ele>6.8</ele><time>2026-04-18T11:10:53Z</time></trkpt><trkpt lat="44.970427947127774" lon="11.858725925970672"><ele>6.4</ele><time>2026-04-18T11:10:55Z</time></trkpt><trkpt lat="44.97041378739894" lon="11.858586624228252"><ele>6.0</ele><time>2026-04-18T11:10:57Z</time></trkpt><trkpt lat="44.97039665652936" lon="11.858450038475137"><ele>5.3999999999999995</ele><time>2026-04-18T11:10:59Z</time></trkpt><trkpt lat="44.970380430371144" lon="11.858314977513805"><ele>4.8</ele><time>2026-04-18T11:11:01Z</time></trkpt><trkpt lat="44.97036329571956" lon="11.858179333950027"><ele>4.199999999999999</ele><time>2026-04-18T11:11:03Z</time></trkpt><trkpt lat="44.97035207108568" lon="11.858041465701877"><ele>3.5999999999999996</ele><time>2026-04-18T11:11:05Z</time></trkpt><trkpt lat="44.970339021257374" lon="11.857908783642035"><ele>3.0</ele><time>2026-04-18T11:11:07Z</time></trkpt><trkpt lat="44.97032381140404" lon="11.857775605159075"><ele>3.0</ele><time>2026-04-18T11:11:09Z</time></trkpt><trkpt lat="44.97031081569208" lon="11.857641168606772"><ele>3.0</ele><time>2026-04-18T11:11:11Z</time></trkpt><trkpt lat="44.970291045109974" lon="11.8575066199829"><ele>3.0</ele><time>2026-04-18T11:11:13Z</time></trkpt><trkpt lat="44.97027993449524" lon="11.857373619103974"><ele>3.0</ele><time>2026-04-18T11:11:15Z</time></trkpt><trkpt lat="44.97026339906992" lon="11.857238636177879"><ele>3.0</ele><time>2026-04-18T11:11:17Z</time></trkpt><trkpt lat="44.970252236949456" lon="11.857104137157824"><ele>3.0</ele><time>2026-04-18T11:11:19Z</time></trkpt><trkpt lat="44.97024035157471" lon="11.856971521675614"><ele>3.0</ele><time>2026-04-18T11:11:21Z</time></trkpt><trkpt lat="44.97022741040978" lon="11.856837102578664"><ele>3.0</ele><time>2026-04-18T11:11:23Z</time></trkpt><trkpt lat="44.970211702414886" lon="11.85670353973657"><ele>3.0</ele><time>2026-04-18T11:11:25Z</time></trkpt><trkpt lat="44.970199361344115" lon="11.856570819374138"><ele>3.0</ele><time>2026-04-18T11:11:27Z</time></trkpt><trkpt lat="44.97018016731201" lon="11.856438839114459"><ele>3.0</ele><time>2026-04-18T11:11:29Z</time></trkpt><trkpt lat="44.97016848571244" lon="11.85630614635086"><ele>3.0</ele><time>2026-04-18T11:11:31Z</time></trkpt><trkpt lat="44.97015589216167" lon="11.856174120152549"><ele>3.0</ele><time>2026-04-18T11:11:33Z</time></trkpt><trkpt lat="44.97014031814757" lon="11.856044488830989"><ele>3.0</ele><time>2026-04-18T11:11:35Z</time></trkpt><trkpt lat="44.970123393244855" lon="11.855908598062461"><ele>3.0</ele><time>2026-04-18T11:11:37Z</time></trkpt><trkpt lat="44.97011158188296" lon="11.855779634026185"><ele>3.4</ele><time>2026-04-18T11:11:39Z</time></trkpt><trkpt lat="44.97010177473746" lon="11.855647008806926"><ele>3.8</ele><time>2026-04-18T11:11:41Z</time></trkpt><trkpt lat="44.9700852691896" lon="11.855517527240089"><ele>4.2</ele><time>2026-04-18T11:11:43Z</time></trkpt><trkpt lat="44.97006984499226" lon="11.855387259299816"><ele>4.6</ele><time>2026-04-18T11:11:45Z</time></trkpt><trkpt lat="44.970056159940086" lon="11.85525403024658"><ele>5.0</ele><time>2026-04-18T11:11:47Z</time></trkpt><trkpt lat="44.97004091749709" lon="11.855122239350859"><ele>5.0</ele><time>2026-04-18T11:11:49Z</time></trkpt><trkpt lat="44.97003120824532" lon="11.854987945875928"><ele>5.0</ele><time>2026-04-18T11:11:51Z</time></trkpt><trkpt lat="44.970018496971115" lon="11.854852692608663"><ele>5.0</ele><time>2026-04-18T11:11:53Z</time></trkpt><trkpt lat="44.970004474756166" lon="11.854716873521793"><ele>5.0</ele><time>2026-04-18T11:11:55Z</time></trkpt><trkpt lat="44.969994532992054" lon="11.854585371168115"><ele>5.0</ele><time>2026-04-18T11:11:57Z</time></trkpt><trkpt lat="44.9699794288674" lon="11.854453348666235"><ele>5.4</ele><time>2026-04-18T11:11:59Z</time></trkpt><trkpt lat="44.96996253507246" lon="11.854322468829169"><ele>5.8</ele><time>2026-04-18T11:12:01Z</time></trkpt><trkpt lat="44.969951910003985" lon="11.854189690230339"><ele>6.199999999999999</ele><time>2026-04-18T11:12:03Z</time></trkpt><trkpt lat="44.96994360524662" lon="11.854055458980902"><ele>6.6</ele><time>2026-04-18T11:12:05Z</time></trkpt><trkpt lat="44.96992757373408" lon="11.853924425117219"><ele>7.0</ele><time>2026-04-18T11:12:07Z</time></trkpt><trkpt lat="44.96991409721601" lon="11.853793699342573"><ele>7.199999999999999</ele><time>2026-04-18T11:12:09Z</time></trkpt><trkpt lat="44.96990432325995" lon="11.853662646004125"><ele>7.3999999999999995</ele><time>2026-04-18T11:12:11Z</time></trkpt><trkpt lat="44.96988783717876" lon="11.853530411690652"><ele>7.6000000000000005</ele><time>2026-04-18T11:12:13Z</time></trkpt><trkpt lat="44.9698714355563" lon="11.853399425746854"><ele>7.800000000000001</ele><time>2026-04-18T11:12:15Z</time></trkpt><trkpt lat="44.96985996169925" lon="11.853266984937672"><ele>8.0</ele><time>2026-04-18T11:12:17Z</time></trkpt><trkpt lat="44.969846480782046" lon="11.853136619516215"><ele>8.0</ele><time>2026-04-18T11:12:19Z</time></trkpt><trkpt lat="44.969828451811765" lon="11.853007984564774"><ele>8.0</ele><time>2026-04-18T11:12:21Z</time></trkpt><trkpt lat="44.969816940739086" lon="11.852878193977224"><ele>8.0</ele><time>2026-04-18T11:12:23Z</time></trkpt><trkpt lat="44.96980531307672" lon="11.85274390893165"><ele>8.0</ele><time>2026-04-18T11:12:25Z</time></trkpt><trkpt lat="44.96979535750447" lon="11.852613243755082"><ele>8.0</ele><time>2026-04-18T11:12:27Z</time></trkpt><trkpt lat="44.96977838822049" lon="11.852482134848627"><ele>8.0</ele><time>2026-04-18T11:12:29Z</time></trkpt><trkpt lat="44.9697638592844" lon="11.852348114347548"><ele>8.0</ele><time>2026-04-18T11:12:31Z</time></trkpt><trkpt lat="44.96975008101739" lon="11.852210900540843"><ele>8.0</ele><time>2026-04-18T11:12:33Z</time></trkpt><trkpt lat="44.969738376424104" lon="11.852080278459974"><ele>8.0</ele><time>2026-04-18T11:12:35Z</time></trkpt><trkpt lat="44.969721551586865" lon="11.851947303063922"><ele>8.0</ele><time>2026-04-18T11:12:37Z</time></trkpt><trkpt lat="44.969707020057605" lon="11.851813104024954"><ele>7.800000000000001</ele><time>2026-04-18T11:12:39Z</time></trkpt><trkpt lat="44.96969492209779" lon="11.851680485096137"><ele>7.6000000000000005</ele><time>2026-04-18T11:12:41Z</time></trkpt><trkpt lat="44.96968087334302" lon="11.851552656933448"><ele>7.3999999999999995</ele><time>2026-04-18T11:12:43Z</time></trkpt><trkpt lat="44.969669302477755" lon="11.851418398070662"><ele>7.199999999999999</ele><time>2026-04-18T11:12:45Z</time></trkpt><trkpt lat="44.96965507974582" lon="11.85129190518423"><ele>7.0</ele><time>2026-04-18T11:12:47Z</time></trkpt><trkpt lat="44.96964612500694" lon="11.851159369224769"><ele>7.0</ele><time>2026-04-18T11:12:49Z</time></trkpt><trkpt lat="44.96963268622135" lon="11.851027934249823"><ele>6.999999999999999</ele><time>2026-04-18T11:12:51Z</time></trkpt><trkpt lat="44.969619985280566" lon="11.850896540784788"><ele>6.999999999999999</ele><time>2026-04-18T11:12:53Z</time></trkpt><trkpt lat="44.969605441456665" lon="11.850764691386132"><ele>7.0</ele><time>2026-04-18T11:12:55Z</time></trkpt><trkpt lat="44.96959027137568" lon="11.850632791558207"><ele>7.0</ele><time>2026-04-18T11:12:57Z</time></trkpt><trkpt lat="44.96958184567798" lon="11.850502341952575"><ele>7.0</ele><time>2026-04-18T11:12:59Z</time></trkpt><trkpt lat="44.96956899574848" lon="11.850368580104274"><ele>6.999999999999999</ele><time>2026-04-18T11:13:01Z</time></trkpt><trkpt lat="44.96955940468233" lon="11.850235274489764"><ele>6.999999999999999</ele><time>2026-04-18T11:13:03Z</time></trkpt><trkpt lat="44.969549732641426" lon="11.850096702631513"><ele>7.0</ele><time>2026-04-18T11:13:05Z</time></trkpt><trkpt lat="44.96953956827672" lon="11.849956605303198"><ele>7.0</ele><time>2026-04-18T11:13:07Z</time></trkpt><trkpt lat="44.96952988520508" lon="11.849816033740819"><ele>7.0</ele><time>2026-04-18T11:13:09Z</time></trkpt><trkpt lat="44.969517136079425" lon="11.849678025513613"><ele>6.999999999999999</ele><time>2026-04-18T11:13:11Z</time></trkpt><trkpt lat="44.96950780866702" lon="11.849541562402207"><ele>6.999999999999999</ele><time>2026-04-18T11:13:13Z</time></trkpt><trkpt lat="44.969498206235585" lon="11.849407491956056"><ele>7.0</ele><time>2026-04-18T11:13:15Z</time></trkpt><trkpt lat="44.96949178299167" lon="11.849273799634394"><ele>7.0</ele><time>2026-04-18T11:13:17Z</time></trkpt><trkpt lat="44.96947989228187" lon="11.849137861988547"><ele>7.0</ele><time>2026-04-18T11:13:19Z</time></trkpt><trkpt lat="44.96946790435959" lon="11.849003430605093"><ele>6.999999999999999</ele><time>2026-04-18T11:13:21Z</time></trkpt><trkpt lat="44.96946438116461" lon="11.848866178710153"><ele>6.999999999999999</ele><time>2026-04-18T11:13:23Z</time></trkpt><trkpt lat="44.9694584050623" lon="11.848730349677695"><ele>7.0</ele><time>2026-04-18T11:13:25Z</time></trkpt><trkpt lat="44.9694498623415" lon="11.848590461093305"><ele>7.0</ele><time>2026-04-18T11:13:27Z</time></trkpt><trkpt lat="44.96944112433195" lon="11.848446873888454"><ele>7.199999999999999</ele><time>2026-04-18T11:13:29Z</time></trkpt><trkpt lat="44.969431945266614" lon="11.84830707654756"><ele>7.3999999999999995</ele><time>2026-04-18T11:13:31Z</time></trkpt><trkpt lat="44.96942573512074" lon="11.848168384228767"><ele>7.6000000000000005</ele><time>2026-04-18T11:13:33Z</time></trkpt><trkpt lat="44.96941884742901" lon="11.848027588663289"><ele>7.800000000000001</ele><time>2026-04-18T11:13:35Z</time></trkpt><trkpt lat="44.96941282862889" lon="11.847889267136843"><ele>8.0</ele><time>2026-04-18T11:13:37Z</time></trkpt><trkpt lat="44.96940748426911" lon="11.847750640217345"><ele>7.6000000000000005</ele><time>2026-04-18T11:13:39Z</time></trkpt><trkpt lat="44.969398765761895" lon="11.847609555572301"><ele>7.200000000000001</ele><time>2026-04-18T11:13:41Z</time></trkpt><trkpt lat="44.96939128883647" lon="11.847472104574145"><ele>6.8</ele><time>2026-04-18T11:13:43Z</time></trkpt><trkpt lat="44.96938565905491" lon="11.847334566363957"><ele>6.4</ele><time>2026-04-18T11:13:45Z</time></trkpt><trkpt lat="44.96938532995954" lon="11.84719574985414"><ele>6.0</ele><time>2026-04-18T11:13:47Z</time></trkpt><trkpt lat="44.969377721445674" lon="11.847058055819764"><ele>6.0</ele><time>2026-04-18T11:13:49Z</time></trkpt><trkpt lat="44.96937549689612" lon="11.846918962371053"><ele>6.0</ele><time>2026-04-18T11:13:51Z</time></trkpt><trkpt lat="44.9693666715292" lon="11.846780845980547"><ele>6.0</ele><time>2026-04-18T11:13:53Z</time></trkpt><trkpt lat="44.96936317160695" lon="11.846644765728492"><ele>6.0</ele><time>2026-04-18T11:13:55Z</time></trkpt><trkpt lat="44.9693562710351" lon="11.84650452467649"><ele>6.0</ele><time>2026-04-18T11:13:57Z</time></trkpt><trkpt lat="44.96935536715606" lon="11.846371737928008"><ele>5.8</ele><time>2026-04-18T11:13:59Z</time></trkpt><trkpt lat="44.96934959354741" lon="11.846234361318537"><ele>5.6</ele><time>2026-04-18T11:14:01Z</time></trkpt><trkpt lat="44.969344786413664" lon="11.846099028878621"><ele>5.4</ele><time>2026-04-18T11:14:03Z</time></trkpt><trkpt lat="44.969342352183126" lon="11.845965230541909"><ele>5.2</ele><time>2026-04-18T11:14:05Z</time></trkpt><trkpt lat="44.96934000221831" lon="11.845833075452477"><ele>5.0</ele><time>2026-04-18T11:14:07Z</time></trkpt><trkpt lat="44.96933659676017" lon="11.845699469015406"><ele>5.4</ele><time>2026-04-18T11:14:09Z</time></trkpt><trkpt lat="44.96933209927604" lon="11.84556121375715"><ele>5.8</ele><time>2026-04-18T11:14:11Z</time></trkpt><trkpt lat="44.96932786154286" lon="11.845425935634252"><ele>6.199999999999999</ele><time>2026-04-18T11:14:13Z</time></trkpt><trkpt lat="44.96932886902065" lon="11.845287097921206"><ele>6.6</ele><time>2026-04-18T11:14:15Z</time></trkpt><trkpt lat="44.96932463874754" lon="11.845154767018194"><ele>7.0</ele><time>2026-04-18T11:14:17Z</time></trkpt><trkpt lat="44.96932055694813" lon="11.845018906937415"><ele>7.0</ele><time>2026-04-18T11:14:19Z</time></trkpt><trkpt lat="44.969321165251785" lon="11.844883777569336"><ele>6.999999999999999</ele><time>2026-04-18T11:14:21Z</time></trkpt><trkpt lat="44.96931922503631" lon="11.844749415093725"><ele>6.999999999999999</ele><time>2026-04-18T11:14:23Z</time></trkpt><trkpt lat="44.969319534668884" lon="11.8446143542313"><ele>7.0</ele><time>2026-04-18T11:14:25Z</time></trkpt><trkpt lat="44.96931983576366" lon="11.844483150316663"><ele>7.0</ele><time>2026-04-18T11:14:27Z</time></trkpt><trkpt lat="44.96932635370362" lon="11.844344848425902"><ele>7.199999999999999</ele><time>2026-04-18T11:14:29Z</time></trkpt><trkpt lat="44.969325526870925" lon="11.844203149944159"><ele>7.3999999999999995</ele><time>2026-04-18T11:14:31Z</time></trkpt><trkpt lat="44.96932590382149" lon="11.844064887245189"><ele>7.6000000000000005</ele><time>2026-04-18T11:14:33Z</time></trkpt><trkpt lat="44.96932264393555" lon="11.843928174150149"><ele>7.800000000000001</ele><time>2026-04-18T11:14:35Z</time></trkpt><trkpt lat="44.96932674077365" lon="11.84378956832713"><ele>8.0</ele><time>2026-04-18T11:14:37Z</time></trkpt><trkpt lat="44.969332436656316" lon="11.84365171645229"><ele>8.0</ele><time>2026-04-18T11:14:39Z</time></trkpt><trkpt lat="44.96932932599167" lon="11.843519147176549"><ele>8.0</ele><time>2026-04-18T11:14:41Z</time></trkpt><trkpt lat="44.969325363497965" lon="11.843386773856263"><ele>8.0</ele><time>2026-04-18T11:14:43Z</time></trkpt><trkpt lat="44.96932825299743" lon="11.84325067500881"><ele>8.0</ele><time>2026-04-18T11:14:45Z</time></trkpt><trkpt lat="44.96933573237352" lon="11.843118537923736"><ele>8.0</ele><time>2026-04-18T11:14:47Z</time></trkpt><trkpt lat="44.9693379025233" lon="11.842986462242624"><ele>8.333333333333332</ele><time>2026-04-18T11:14:49Z</time></trkpt><trkpt lat="44.969344856496456" lon="11.8428566901486"><ele>8.666666666666666</ele><time>2026-04-18T11:14:51Z</time></trkpt><trkpt lat="44.96935030369215" lon="11.842732608121372"><ele>9.0</ele><time>2026-04-18T11:14:53Z</time></trkpt><trkpt lat="44.96935560511827" lon="11.842617912579476"><ele>9.333333333333334</ele><time>2026-04-18T11:14:55Z</time></trkpt><trkpt lat="44.96935898006806" lon="11.84250489193707"><ele>9.666666666666668</ele><time>2026-04-18T11:14:57Z</time></trkpt><trkpt lat="44.96935803331959" lon="11.842396069318777"><ele>10.0</ele><time>2026-04-18T11:14:59Z</time></trkpt><trkpt lat="44.96936655904327" lon="11.842271270171503"><ele>10.0</ele><time>2026-04-18T11:15:01Z</time></trkpt><trkpt lat="44.969377752179646" lon="11.842139972260183"><ele>10.0</ele><time>2026-04-18T11:15:03Z</time></trkpt><trkpt lat="44.969386866798914" lon="11.842005589338132"><ele>10.0</ele><time>2026-04-18T11:15:05Z</time></trkpt><trkpt lat="44.96940466661904" lon="11.841873214689834"><ele>10.0</ele><time>2026-04-18T11:15:07Z</time></trkpt><trkpt lat="44.96941752681597" lon="11.841741272090218"><ele>10.0</ele><time>2026-04-18T11:15:09Z</time></trkpt><trkpt lat="44.969432908754875" lon="11.841606061049584"><ele>10.0</ele><time>2026-04-18T11:15:11Z</time></trkpt><trkpt lat="44.96945197899525" lon="11.841475327821104"><ele>10.0</ele><time>2026-04-18T11:15:13Z</time></trkpt><trkpt lat="44.96946741571487" lon="11.841340626786758"><ele>10.0</ele><time>2026-04-18T11:15:15Z</time></trkpt><trkpt lat="44.96948947146619" lon="11.841210180498603"><ele>10.0</ele><time>2026-04-18T11:15:17Z</time></trkpt><trkpt lat="44.96950084149147" lon="11.841077225814475"><ele>10.0</ele><time>2026-04-18T11:15:19Z</time></trkpt><trkpt lat="44.969519990434264" lon="11.840944899882516"><ele>9.8</ele><time>2026-04-18T11:15:21Z</time></trkpt><trkpt lat="44.96953957438304" lon="11.840816247800314"><ele>9.6</ele><time>2026-04-18T11:15:23Z</time></trkpt><trkpt lat="44.969555659036004" lon="11.840685919400627"><ele>9.4</ele><time>2026-04-18T11:15:25Z</time></trkpt><trkpt lat="44.96957634352427" lon="11.840554408349366"><ele>9.2</ele><time>2026-04-18T11:15:27Z</time></trkpt><trkpt lat="44.96959007835089" lon="11.840423063525188"><ele>9.0</ele><time>2026-04-18T11:15:29Z</time></trkpt><trkpt lat="44.96961251228499" lon="11.840297005155973"><ele>9.0</ele><time>2026-04-18T11:15:31Z</time></trkpt><trkpt lat="44.96962783117299" lon="11.840164584514932"><ele>9.0</ele><time>2026-04-18T11:15:33Z</time></trkpt><trkpt lat="44.96964885097397" lon="11.840032599727087"><ele>9.0</ele><time>2026-04-18T11:15:35Z</time></trkpt><trkpt lat="44.969663832547205" lon="11.839904009837547"><ele>9.0</ele><time>2026-04-18T11:15:37Z</time></trkpt><trkpt lat="44.96968518725207" lon="11.83977449710459"><ele>9.0</ele><time>2026-04-18T11:15:39Z</time></trkpt><trkpt lat="44.969701774759784" lon="11.83964442464194"><ele>9.0</ele><time>2026-04-18T11:15:41Z</time></trkpt><trkpt lat="44.96971539392938" lon="11.839510481396292"><ele>9.0</ele><time>2026-04-18T11:15:43Z</time></trkpt><trkpt lat="44.96974184917063" lon="11.839377587665634"><ele>9.0</ele><time>2026-04-18T11:15:45Z</time></trkpt><trkpt lat="44.96976165409493" lon="11.839247289291412"><ele>9.0</ele><time>2026-04-18T11:15:47Z</time></trkpt><trkpt lat="44.969777766536886" lon="11.839113641452894"><ele>9.0</ele><time>2026-04-18T11:15:49Z</time></trkpt><trkpt lat="44.96979142128646" lon="11.838979314912015"><ele>9.2</ele><time>2026-04-18T11:15:51Z</time></trkpt><trkpt lat="44.96980772363352" lon="11.838848007065758"><ele>9.4</ele><time>2026-04-18T11:15:53Z</time></trkpt><trkpt lat="44.96982815082836" lon="11.838715672804938"><ele>9.6</ele><time>2026-04-18T11:15:55Z</time></trkpt><trkpt lat="44.96984531535365" lon="11.838583840704564"><ele>9.8</ele><time>2026-04-18T11:15:57Z</time></trkpt><trkpt lat="44.969869722440336" lon="11.838452528962156"><ele>10.0</ele><time>2026-04-18T11:15:59Z</time></trkpt><trkpt lat="44.96988740665531" lon="11.838318062561425"><ele>10.2</ele><time>2026-04-18T11:16:01Z</time></trkpt><trkpt lat="44.96991077514017" lon="11.838186930120076"><ele>10.4</ele><time>2026-04-18T11:16:03Z</time></trkpt><trkpt lat="44.969931271065946" lon="11.838055256485104"><ele>10.600000000000001</ele><time>2026-04-18T11:16:05Z</time></trkpt><trkpt lat="44.96994898789093" lon="11.83791900377571"><ele>10.8</ele><time>2026-04-18T11:16:07Z</time></trkpt><trkpt lat="44.96997112314761" lon="11.837788465228472"><ele>11.0</ele><time>2026-04-18T11:16:09Z</time></trkpt><trkpt lat="44.96998802967358" lon="11.837661333167713"><ele>11.0</ele><time>2026-04-18T11:16:11Z</time></trkpt><trkpt lat="44.97001091846375" lon="11.837532228509184"><ele>11.0</ele><time>2026-04-18T11:16:13Z</time></trkpt><trkpt lat="44.97002755987419" lon="11.837400319885296"><ele>11.0</ele><time>2026-04-18T11:16:15Z</time></trkpt><trkpt lat="44.97004031775261" lon="11.83726591807945"><ele>11.0</ele><time>2026-04-18T11:16:17Z</time></trkpt><trkpt lat="44.97006122365683" lon="11.837136165438292"><ele>11.0</ele><time>2026-04-18T11:16:19Z</time></trkpt><trkpt lat="44.97007729132387" lon="11.837006452294977"><ele>9.8</ele><time>2026-04-18T11:16:21Z</time></trkpt><trkpt lat="44.970094011105594" lon="11.836871032603348"><ele>8.600000000000001</ele><time>2026-04-18T11:16:23Z</time></trkpt><trkpt lat="44.97012269011561" lon="11.8367448684977"><ele>7.4</ele><time>2026-04-18T11:16:25Z</time></trkpt><trkpt lat="44.97014130823961" lon="11.836612886753064"><ele>6.2</ele><time>2026-04-18T11:16:27Z</time></trkpt><trkpt lat="44.970154780696575" lon="11.836486867352807"><ele>5.0</ele><time>2026-04-18T11:16:29Z</time></trkpt><trkpt lat="44.970173216629966" lon="11.836366765224707"><ele>4.8</ele><time>2026-04-18T11:16:31Z</time></trkpt><trkpt lat="44.970192092339325" lon="11.836255854056613"><ele>4.6</ele><time>2026-04-18T11:16:33Z</time></trkpt><trkpt lat="44.97021031846894" lon="11.836137000106174"><ele>4.4</ele><time>2026-04-18T11:16:35Z</time></trkpt><trkpt lat="44.97023441061167" lon="11.836007766577813"><ele>4.2</ele><time>2026-04-18T11:16:37Z</time></trkpt><trkpt lat="44.97025998106513" lon="11.83586738954613"><ele>4.0</ele><time>2026-04-18T11:16:39Z</time></trkpt><trkpt lat="44.97028601539248" lon="11.835721603042172"><ele>4.800000000000001</ele><time>2026-04-18T11:16:41Z</time></trkpt><trkpt lat="44.970309533263354" lon="11.835574817821222"><ele>5.6000000000000005</ele><time>2026-04-18T11:16:43Z</time></trkpt><trkpt lat="44.97034184970521" lon="11.835426536778614"><ele>6.4</ele><time>2026-04-18T11:16:45Z</time></trkpt><trkpt lat="44.970373287866636" lon="11.83528068749269"><ele>7.2</ele><time>2026-04-18T11:16:47Z</time></trkpt><trkpt lat="44.970399317799284" lon="11.83513509507557"><ele>8.0</ele><time>2026-04-18T11:16:49Z</time></trkpt><trkpt lat="44.97042839105503" lon="11.834989265971766"><ele>8.0</ele><time>2026-04-18T11:16:51Z</time></trkpt><trkpt lat="44.970462602690304" lon="11.834846705736071"><ele>8.0</ele><time>2026-04-18T11:16:53Z</time></trkpt><trkpt lat="44.9704917337557" lon="11.834700228616304"><ele>8.0</ele><time>2026-04-18T11:16:55Z</time></trkpt><trkpt lat="44.97052532006316" lon="11.834554702132388"><ele>8.0</ele><time>2026-04-18T11:16:57Z</time></trkpt><trkpt lat="44.97055547615592" lon="11.8344123349967"><ele>8.0</ele><time>2026-04-18T11:16:59Z</time></trkpt><trkpt lat="44.970587481853514" lon="11.834271026465364"><ele>8.0</ele><time>2026-04-18T11:17:01Z</time></trkpt><trkpt lat="44.97061597488543" lon="11.834128516703307"><ele>8.0</ele><time>2026-04-18T11:17:03Z</time></trkpt><trkpt lat="44.97065049153676" lon="11.833986437074481"><ele>8.0</ele><time>2026-04-18T11:17:05Z</time></trkpt><trkpt lat="44.97068711623841" lon="11.833842653692992"><ele>8.0</ele><time>2026-04-18T11:17:07Z</time></trkpt><trkpt lat="44.9707171542377" lon="11.83369846094766"><ele>8.0</ele><time>2026-04-18T11:17:09Z</time></trkpt><trkpt lat="44.970743107467335" lon="11.833549918179"><ele>7.800000000000001</ele><time>2026-04-18T11:17:11Z</time></trkpt><trkpt lat="44.97077852206976" lon="11.833408715130345"><ele>7.6000000000000005</ele><time>2026-04-18T11:17:13Z</time></trkpt><trkpt lat="44.97080551704028" lon="11.833261607097556"><ele>7.3999999999999995</ele><time>2026-04-18T11:17:15Z</time></trkpt><trkpt lat="44.97083194136081" lon="11.833121499795148"><ele>7.199999999999999</ele><time>2026-04-18T11:17:17Z</time></trkpt><trkpt lat="44.97086101418342" lon="11.83297324799492"><ele>7.0</ele><time>2026-04-18T11:17:19Z</time></trkpt><trkpt lat="44.970886136930844" lon="11.832832597136502"><ele>6.199999999999999</ele><time>2026-04-18T11:17:21Z</time></trkpt><trkpt lat="44.97090674016481" lon="11.83269049388879"><ele>5.3999999999999995</ele><time>2026-04-18T11:17:23Z</time></trkpt><trkpt lat="44.970926532200735" lon="11.832543522452076"><ele>4.6</ele><time>2026-04-18T11:17:25Z</time></trkpt><trkpt lat="44.970945580014195" lon="11.832393617800973"><ele>3.8</ele><time>2026-04-18T11:17:27Z</time></trkpt><trkpt lat="44.9709572450284" lon="11.832241092842299"><ele>3.0</ele><time>2026-04-18T11:17:29Z</time></trkpt><trkpt lat="44.97098089430532" lon="11.832092369070248"><ele>2.8</ele><time>2026-04-18T11:17:31Z</time></trkpt><trkpt lat="44.97100152844014" lon="11.831941163809484"><ele>2.5999999999999996</ele><time>2026-04-18T11:17:33Z</time></trkpt><trkpt lat="44.97102393331744" lon="11.831792553027348"><ele>2.4000000000000004</ele><time>2026-04-18T11:17:35Z</time></trkpt><trkpt lat="44.971044102590014" lon="11.831645451141043"><ele>2.2</ele><time>2026-04-18T11:17:37Z</time></trkpt><trkpt lat="44.97106690991149" lon="11.831495984601167"><ele>2.0</ele><time>2026-04-18T11:17:39Z</time></trkpt><trkpt lat="44.97109063567944" lon="11.831350755083914"><ele>2.0</ele><time>2026-04-18T11:17:41Z</time></trkpt><trkpt lat="44.97111487011322" lon="11.831203981472271"><ele>2.0</ele><time>2026-04-18T11:17:43Z</time></trkpt><trkpt lat="44.97113566596305" lon="11.83105512105514"><ele>2.0</ele><time>2026-04-18T11:17:45Z</time></trkpt><trkpt lat="44.97115945552604" lon="11.830904470140112"><ele>2.0</ele><time>2026-04-18T11:17:47Z</time></trkpt><trkpt lat="44.971190130442096" lon="11.830759525800213"><ele>2.0</ele><time>2026-04-18T11:17:49Z</time></trkpt><trkpt lat="44.97121747919433" lon="11.830609498999243"><ele>2.4000000000000004</ele><time>2026-04-18T11:17:51Z</time></trkpt><trkpt lat="44.97124494285252" lon="11.83046124312721"><ele>2.8000000000000003</ele><time>2026-04-18T11:17:53Z</time></trkpt><trkpt lat="44.97127195569656" lon="11.830311678275407"><ele>3.2</ele><time>2026-04-18T11:17:55Z</time></trkpt><trkpt lat="44.97130017475247" lon="11.83016523171964"><ele>3.6</ele><time>2026-04-18T11:17:57Z</time></trkpt><trkpt lat="44.97132375376516" lon="11.830018537012167"><ele>4.0</ele><time>2026-04-18T11:17:59Z</time></trkpt><trkpt lat="44.97135134720324" lon="11.829870601720959"><ele>4.2</ele><time>2026-04-18T11:18:01Z</time></trkpt><trkpt lat="44.97138792233944" lon="11.829726691077685"><ele>4.4</ele><time>2026-04-18T11:18:03Z</time></trkpt><trkpt lat="44.97142488437379" lon="11.829584101600428"><ele>4.6</ele><time>2026-04-18T11:18:05Z</time></trkpt><trkpt lat="44.97146333194421" lon="11.829439082684052"><ele>4.8</ele><time>2026-04-18T11:18:07Z</time></trkpt><trkpt lat="44.97150078843324" lon="11.829293731666791"><ele>5.0</ele><time>2026-04-18T11:18:09Z</time></trkpt><trkpt lat="44.97154464345672" lon="11.829150959545919"><ele>5.2</ele><time>2026-04-18T11:18:11Z</time></trkpt><trkpt lat="44.971582319887055" lon="11.829009552425571"><ele>5.4</ele><time>2026-04-18T11:18:13Z</time></trkpt><trkpt lat="44.97161807002733" lon="11.828862275455677"><ele>5.6</ele><time>2026-04-18T11:18:15Z</time></trkpt><trkpt lat="44.97165975764017" lon="11.82872370822216"><ele>5.8</ele><time>2026-04-18T11:18:17Z</time></trkpt><trkpt lat="44.97169280252282" lon="11.82857662126824"><ele>6.0</ele><time>2026-04-18T11:18:19Z</time></trkpt><trkpt lat="44.97173888222681" lon="11.82843752866229"><ele>5.6</ele><time>2026-04-18T11:18:21Z</time></trkpt><trkpt lat="44.97178072908766" lon="11.82829599024933"><ele>5.199999999999999</ele><time>2026-04-18T11:18:23Z</time></trkpt><trkpt lat="44.971821009046735" lon="11.828159521473511"><ele>4.800000000000001</ele><time>2026-04-18T11:18:25Z</time></trkpt><trkpt lat="44.97185628488894" lon="11.828017707548154"><ele>4.4</ele><time>2026-04-18T11:18:27Z</time></trkpt><trkpt lat="44.97190113015108" lon="11.827879614989143"><ele>4.0</ele><time>2026-04-18T11:18:29Z</time></trkpt><trkpt lat="44.97194062131149" lon="11.827740940335623"><ele>4.2</ele><time>2026-04-18T11:18:31Z</time></trkpt><trkpt lat="44.971981761314154" lon="11.82760154378397"><ele>4.4</ele><time>2026-04-18T11:18:33Z</time></trkpt><trkpt lat="44.972021016591526" lon="11.82746109857917"><ele>4.6</ele><time>2026-04-18T11:18:35Z</time></trkpt><trkpt lat="44.97206353530875" lon="11.827319185717935"><ele>4.8</ele><time>2026-04-18T11:18:37Z</time></trkpt><trkpt lat="44.9721030276624" lon="11.827181460454408"><ele>5.0</ele><time>2026-04-18T11:18:39Z</time></trkpt><trkpt lat="44.97214453827762" lon="11.827038848963419"><ele>5.0</ele><time>2026-04-18T11:18:41Z</time></trkpt><trkpt lat="44.972191831522636" lon="11.82690727695006"><ele>5.0</ele><time>2026-04-18T11:18:43Z</time></trkpt><trkpt lat="44.972242266369854" lon="11.826767954518179"><ele>5.0</ele><time>2026-04-18T11:18:45Z</time></trkpt><trkpt lat="44.972288063350334" lon="11.826631293686201"><ele>5.0</ele><time>2026-04-18T11:18:47Z</time></trkpt><trkpt lat="44.972335944620035" lon="11.826493406249647"><ele>5.0</ele><time>2026-04-18T11:18:49Z</time></trkpt><trkpt lat="44.97238388695108" lon="11.826354670834691"><ele>5.2</ele><time>2026-04-18T11:18:51Z</time></trkpt><trkpt lat="44.97242427892884" lon="11.826212983741732"><ele>5.4</ele><time>2026-04-18T11:18:53Z</time></trkpt><trkpt lat="44.972452313278055" lon="11.826066530816757"><ele>5.6</ele><time>2026-04-18T11:18:55Z</time></trkpt><trkpt lat="44.97248422368854" lon="11.825919225587409"><ele>5.8</ele><time>2026-04-18T11:18:57Z</time></trkpt><trkpt lat="44.97251669104739" lon="11.825774389883634"><ele>6.0</ele><time>2026-04-18T11:18:59Z</time></trkpt><trkpt lat="44.972542625982" lon="11.825627806746763"><ele>5.6</ele><time>2026-04-18T11:19:01Z</time></trkpt><trkpt lat="44.97257627451973" lon="11.8254856177377"><ele>5.199999999999999</ele><time>2026-04-18T11:19:03Z</time></trkpt><trkpt lat="44.972613594816764" lon="11.825342605003106"><ele>4.800000000000001</ele><time>2026-04-18T11:19:05Z</time></trkpt><trkpt lat="44.97264082721702" lon="11.825197384008463"><ele>4.4</ele><time>2026-04-18T11:19:07Z</time></trkpt><trkpt lat="44.97266820302236" lon="11.825051381526073"><ele>4.0</ele><time>2026-04-18T11:19:09Z</time></trkpt><trkpt lat="44.97270076641191" lon="11.824914082114661"><ele>4.0</ele><time>2026-04-18T11:19:11Z</time></trkpt><trkpt lat="44.972724671309145" lon="11.824779961373512"><ele>4.0</ele><time>2026-04-18T11:19:13Z</time></trkpt><trkpt lat="44.97273501720042" lon="11.824648518367107"><ele>4.0</ele><time>2026-04-18T11:19:15Z</time></trkpt><trkpt lat="44.972773317636964" lon="11.824535901338727"><ele>4.0</ele><time>2026-04-18T11:19:17Z</time></trkpt><trkpt lat="44.972796091349046" lon="11.824419043241404"><ele>4.0</ele><time>2026-04-18T11:19:19Z</time></trkpt><trkpt lat="44.97281638540969" lon="11.824284424471937"><ele>4.2</ele><time>2026-04-18T11:19:21Z</time></trkpt><trkpt lat="44.97284353599473" lon="11.824143447932226"><ele>4.4</ele><time>2026-04-18T11:19:23Z</time></trkpt><trkpt lat="44.972880223267545" lon="11.823995638320948"><ele>4.6</ele><time>2026-04-18T11:19:25Z</time></trkpt><trkpt lat="44.972913898680765" lon="11.823856952296941"><ele>4.8</ele><time>2026-04-18T11:19:27Z</time></trkpt><trkpt lat="44.97294083597145" lon="11.823709636432877"><ele>5.0</ele><time>2026-04-18T11:19:29Z</time></trkpt><trkpt lat="44.97298074626104" lon="11.823571548995812"><ele>4.8</ele><time>2026-04-18T11:19:31Z</time></trkpt><trkpt lat="44.97300819823221" lon="11.823421887415025"><ele>4.6</ele><time>2026-04-18T11:19:33Z</time></trkpt><trkpt lat="44.973034267433974" lon="11.823279161916687"><ele>4.4</ele><time>2026-04-18T11:19:35Z</time></trkpt><trkpt lat="44.973072095826005" lon="11.823138224592245"><ele>4.2</ele><time>2026-04-18T11:19:37Z</time></trkpt><trkpt lat="44.97310626140751" lon="11.82299394538854"><ele>4.0</ele><time>2026-04-18T11:19:39Z</time></trkpt><trkpt lat="44.97314648406977" lon="11.822853500826188"><ele>4.0</ele><time>2026-04-18T11:19:41Z</time></trkpt><trkpt lat="44.973180763489076" lon="11.822712059825522"><ele>4.0</ele><time>2026-04-18T11:19:43Z</time></trkpt><trkpt lat="44.973212816404846" lon="11.822570094087055"><ele>4.0</ele><time>2026-04-18T11:19:45Z</time></trkpt><trkpt lat="44.97323855021336" lon="11.822427906388507"><ele>4.0</ele><time>2026-04-18T11:19:47Z</time></trkpt><trkpt lat="44.97326871739189" lon="11.822282187749265"><ele>4.0</ele><time>2026-04-18T11:19:49Z</time></trkpt><trkpt lat="44.973303031972435" lon="11.822139991644827"><ele>4.0</ele><time>2026-04-18T11:19:51Z</time></trkpt><trkpt lat="44.973335665836714" lon="11.821991756264797"><ele>4.0</ele><time>2026-04-18T11:19:53Z</time></trkpt><trkpt lat="44.97336984985569" lon="11.82184893318809"><ele>4.0</ele><time>2026-04-18T11:19:55Z</time></trkpt><trkpt lat="44.97340658942576" lon="11.821709614483208"><ele>4.0</ele><time>2026-04-18T11:19:57Z</time></trkpt><trkpt lat="44.97344223065327" lon="11.821564202216726"><ele>4.0</ele><time>2026-04-18T11:19:59Z</time></trkpt><trkpt lat="44.97345904014239" lon="11.82141636219868"><ele>4.0</ele><time>2026-04-18T11:20:01Z</time></trkpt><trkpt lat="44.973465438138966" lon="11.821275031271039"><ele>4.0</ele><time>2026-04-18T11:20:03Z</time></trkpt><trkpt lat="44.97342951148871" lon="11.821147207903081"><ele>4.0</ele><time>2026-04-18T11:20:05Z</time></trkpt><trkpt lat="44.973344869868384" lon="11.821079397453945"><ele>4.0</ele><time>2026-04-18T11:20:07Z</time></trkpt><trkpt lat="44.97325274949146" lon="11.821014917499744"><ele>4.0</ele><time>2026-04-18T11:20:09Z</time></trkpt><trkpt lat="44.973153887048824" lon="11.820967893681338"><ele>4.2</ele><time>2026-04-18T11:20:11Z</time></trkpt><trkpt lat="44.9730522923478" lon="11.820923840018187"><ele>4.4</ele><time>2026-04-18T11:20:13Z</time></trkpt><trkpt lat="44.972953623529285" lon="11.820873705017405"><ele>4.6</ele><time>2026-04-18T11:20:15Z</time></trkpt><trkpt lat="44.97285808289125" lon="11.820802611493177"><ele>4.8</ele><time>2026-04-18T11:20:17Z</time></trkpt><trkpt lat="44.97278478416598" lon="11.82069405695126"><ele>5.0</ele><time>2026-04-18T11:20:19Z</time></trkpt><trkpt lat="44.972744311252086" lon="11.820557010546352"><ele>5.0</ele><time>2026-04-18T11:20:21Z</time></trkpt><trkpt lat="44.97273878856095" lon="11.82040879541934"><ele>5.0</ele><time>2026-04-18T11:20:23Z</time></trkpt><trkpt lat="44.97275668308284" lon="11.820262542784604"><ele>5.0</ele><time>2026-04-18T11:20:25Z</time></trkpt><trkpt lat="44.97277752954656" lon="11.820120307046558"><ele>5.0</ele><time>2026-04-18T11:20:27Z</time></trkpt><trkpt lat="44.97280806527141" lon="11.81999290209739"><ele>5.0</ele><time>2026-04-18T11:20:29Z</time></trkpt><trkpt lat="44.972837508669755" lon="11.819858018808631"><ele>5.0</ele><time>2026-04-18T11:20:31Z</time></trkpt><trkpt lat="44.97286966846088" lon="11.81971498635032"><ele>5.0</ele><time>2026-04-18T11:20:33Z</time></trkpt><trkpt lat="44.972903114479806" lon="11.819571024795929"><ele>5.0</ele><time>2026-04-18T11:20:35Z</time></trkpt><trkpt lat="44.97292989204809" lon="11.819422807368314"><ele>5.0</ele><time>2026-04-18T11:20:37Z</time></trkpt><trkpt lat="44.972961152380805" lon="11.819276976607648"><ele>5.0</ele><time>2026-04-18T11:20:39Z</time></trkpt><trkpt lat="44.972985517801135" lon="11.819131400305317"><ele>5.0</ele><time>2026-04-18T11:20:41Z</time></trkpt><trkpt lat="44.97301556374763" lon="11.818983500345036"><ele>5.0</ele><time>2026-04-18T11:20:43Z</time></trkpt><trkpt lat="44.973045919612744" lon="11.818836891695403"><ele>5.0</ele><time>2026-04-18T11:20:45Z</time></trkpt><trkpt lat="44.973074136471304" lon="11.818689783257929"><ele>5.0</ele><time>2026-04-18T11:20:47Z</time></trkpt><trkpt lat="44.973113270360734" lon="11.818551861024138"><ele>5.0</ele><time>2026-04-18T11:20:49Z</time></trkpt><trkpt lat="44.97314002761843" lon="11.818405223720461"><ele>5.0</ele><time>2026-04-18T11:20:51Z</time></trkpt><trkpt lat="44.97317160724451" lon="11.81825870850003"><ele>5.0</ele><time>2026-04-18T11:20:53Z</time></trkpt><trkpt lat="44.973204534578514" lon="11.81811567085643"><ele>5.0</ele><time>2026-04-18T11:20:55Z</time></trkpt><trkpt lat="44.97322839728888" lon="11.817969195651962"><ele>5.0</ele><time>2026-04-18T11:20:57Z</time></trkpt><trkpt lat="44.97325755317002" lon="11.817819290781634"><ele>5.0</ele><time>2026-04-18T11:20:59Z</time></trkpt><trkpt lat="44.97328437039593" lon="11.817669653345375"><ele>5.0</ele><time>2026-04-18T11:21:01Z</time></trkpt><trkpt lat="44.973311305031686" lon="11.817525755952989"><ele>5.0</ele><time>2026-04-18T11:21:03Z</time></trkpt><trkpt lat="44.9733591497965" lon="11.81739835583863"><ele>5.0</ele><time>2026-04-18T11:21:05Z</time></trkpt><trkpt lat="44.973391207790826" lon="11.817252528885843"><ele>5.0</ele><time>2026-04-18T11:21:07Z</time></trkpt><trkpt lat="44.97340895826317" lon="11.817108721625722"><ele>5.0</ele><time>2026-04-18T11:21:09Z</time></trkpt><trkpt lat="44.97343917356641" lon="11.816974460696787"><ele>5.0</ele><time>2026-04-18T11:21:11Z</time></trkpt><trkpt lat="44.973468083581" lon="11.816846824926044"><ele>5.0</ele><time>2026-04-18T11:21:13Z</time></trkpt><trkpt lat="44.97351186367235" lon="11.816711284963718"><ele>5.0</ele><time>2026-04-18T11:21:15Z</time></trkpt><trkpt lat="44.97353939401454" lon="11.816570314788688"><ele>5.0</ele><time>2026-04-18T11:21:17Z</time></trkpt><trkpt lat="44.97357008275436" lon="11.816440162176185"><ele>5.0</ele><time>2026-04-18T11:21:19Z</time></trkpt><trkpt lat="44.97360667573926" lon="11.81631172553101"><ele>4.8</ele><time>2026-04-18T11:21:21Z</time></trkpt><trkpt lat="44.973652366217" lon="11.816175818953617"><ele>4.6</ele><time>2026-04-18T11:21:23Z</time></trkpt><trkpt lat="44.973703638605016" lon="11.816043743487048"><ele>4.4</ele><time>2026-04-18T11:21:25Z</time></trkpt><trkpt lat="44.97374551057674" lon="11.815910373742994"><ele>4.2</ele><time>2026-04-18T11:21:27Z</time></trkpt><trkpt lat="44.97379374953646" lon="11.815788269370755"><ele>4.0</ele><time>2026-04-18T11:21:29Z</time></trkpt><trkpt lat="44.97384228958766" lon="11.81566742595781"><ele>3.8000000000000003</ele><time>2026-04-18T11:21:31Z</time></trkpt><trkpt lat="44.97390264207168" lon="11.815543549225037"><ele>3.6000000000000005</ele><time>2026-04-18T11:21:33Z</time></trkpt><trkpt lat="44.97396188158992" lon="11.815410944398826"><ele>3.4</ele><time>2026-04-18T11:21:35Z</time></trkpt><trkpt lat="44.97402385842649" lon="11.81529082653776"><ele>3.2</ele><time>2026-04-18T11:21:37Z</time></trkpt><trkpt lat="44.9740668908029" lon="11.815161468599932"><ele>3.0</ele><time>2026-04-18T11:21:39Z</time></trkpt><trkpt lat="44.97411577140339" lon="11.815040109186176"><ele>3.0</ele><time>2026-04-18T11:21:41Z</time></trkpt><trkpt lat="44.97415233613566" lon="11.814899704548342"><ele>3.0</ele><time>2026-04-18T11:21:43Z</time></trkpt><trkpt lat="44.97414122636498" lon="11.814761386695638"><ele>3.0</ele><time>2026-04-18T11:21:45Z</time></trkpt><trkpt lat="44.9741206759319" lon="11.814629876171177"><ele>3.0</ele><time>2026-04-18T11:21:47Z</time></trkpt><trkpt lat="44.97408943850883" lon="11.814473589411232"><ele>3.0</ele><time>2026-04-18T11:21:49Z</time></trkpt><trkpt lat="44.974034341163105" lon="11.814344083166118"><ele>3.4</ele><time>2026-04-18T11:21:51Z</time></trkpt><trkpt lat="44.97398279319859" lon="11.814230467277811"><ele>3.8</ele><time>2026-04-18T11:21:53Z</time></trkpt><trkpt lat="44.97393855573248" lon="11.814115496379719"><ele>4.2</ele><time>2026-04-18T11:21:55Z</time></trkpt><trkpt lat="44.973891641431386" lon="11.813990103692026"><ele>4.6</ele><time>2026-04-18T11:21:57Z</time></trkpt><trkpt lat="44.973841238547806" lon="11.813860342902359"><ele>5.0</ele><time>2026-04-18T11:21:59Z</time></trkpt><trkpt lat="44.973790207616865" lon="11.813729217432616"><ele>5.0</ele><time>2026-04-18T11:22:01Z</time></trkpt><trkpt lat="44.97375019136991" lon="11.813591939841675"><ele>5.0</ele><time>2026-04-18T11:22:03Z</time></trkpt><trkpt lat="44.973711312847456" lon="11.813456062371392"><ele>5.0</ele><time>2026-04-18T11:22:05Z</time></trkpt><trkpt lat="44.97367461011037" lon="11.813314464478868"><ele>5.0</ele><time>2026-04-18T11:22:07Z</time></trkpt><trkpt lat="44.97365077086218" lon="11.813174356494333"><ele>5.0</ele><time>2026-04-18T11:22:09Z</time></trkpt><trkpt lat="44.97363141604047" lon="11.813029958327638"><ele>4.6</ele><time>2026-04-18T11:22:11Z</time></trkpt><trkpt lat="44.973614065774285" lon="11.812889559028942"><ele>4.2</ele><time>2026-04-18T11:22:13Z</time></trkpt><trkpt lat="44.97359840364948" lon="11.812741984082852"><ele>3.8</ele><time>2026-04-18T11:22:15Z</time></trkpt><trkpt lat="44.97358516283179" lon="11.812594341710236"><ele>3.4</ele><time>2026-04-18T11:22:17Z</time></trkpt><trkpt lat="44.97357930852074" lon="11.812444527260215"><ele>3.0</ele><time>2026-04-18T11:22:19Z</time></trkpt><trkpt lat="44.97357439068724" lon="11.812296702006776"><ele>2.8</ele><time>2026-04-18T11:22:21Z</time></trkpt><trkpt lat="44.973569851099306" lon="11.812147509838416"><ele>2.5999999999999996</ele><time>2026-04-18T11:22:23Z</time></trkpt><trkpt lat="44.97356486194187" lon="11.811997086579247"><ele>2.4000000000000004</ele><time>2026-04-18T11:22:25Z</time></trkpt><trkpt lat="44.97355980382399" lon="11.811845811418968"><ele>2.2</ele><time>2026-04-18T11:22:27Z</time></trkpt><trkpt lat="44.97355593147824" lon="11.811692853276918"><ele>2.0</ele><time>2026-04-18T11:22:29Z</time></trkpt><trkpt lat="44.97355204662755" lon="11.811541311181713"><ele>2.0</ele><time>2026-04-18T11:22:31Z</time></trkpt><trkpt lat="44.97355038913362" lon="11.811384773121267"><ele>2.0</ele><time>2026-04-18T11:22:33Z</time></trkpt><trkpt lat="44.97354889012248" lon="11.811236696190699"><ele>2.0</ele><time>2026-04-18T11:22:35Z</time></trkpt><trkpt lat="44.97354609374913" lon="11.811086093780442"><ele>2.0</ele><time>2026-04-18T11:22:37Z</time></trkpt><trkpt lat="44.97354524431739" lon="11.810939222788141"><ele>2.0</ele><time>2026-04-18T11:22:39Z</time></trkpt><trkpt lat="44.973542676234416" lon="11.810791371079155"><ele>2.4000000000000004</ele><time>2026-04-18T11:22:41Z</time></trkpt><trkpt lat="44.97354400793816" lon="11.810644509401714"><ele>2.8000000000000003</ele><time>2026-04-18T11:22:43Z</time></trkpt><trkpt lat="44.973539090268474" lon="11.810497750575689"><ele>3.2</ele><time>2026-04-18T11:22:45Z</time></trkpt><trkpt lat="44.973534959621276" lon="11.81035677331026"><ele>3.6</ele><time>2026-04-18T11:22:47Z</time></trkpt><trkpt lat="44.973533746807675" lon="11.810205093890964"><ele>4.0</ele><time>2026-04-18T11:22:49Z</time></trkpt><trkpt lat="44.97353899844092" lon="11.810056017599837"><ele>4.2</ele><time>2026-04-18T11:22:51Z</time></trkpt><trkpt lat="44.973551128350984" lon="11.809906139218274"><ele>4.4</ele><time>2026-04-18T11:22:53Z</time></trkpt><trkpt lat="44.973562481706146" lon="11.809755478752116"><ele>4.6</ele><time>2026-04-18T11:22:55Z</time></trkpt><trkpt lat="44.97357292102261" lon="11.809604570639891"><ele>4.8</ele><time>2026-04-18T11:22:57Z</time></trkpt><trkpt lat="44.97359192017066" lon="11.80946126158909"><ele>5.0</ele><time>2026-04-18T11:22:59Z</time></trkpt><trkpt lat="44.9736042901868" lon="11.80932568208423"><ele>4.8</ele><time>2026-04-18T11:23:01Z</time></trkpt><trkpt lat="44.973613496322315" lon="11.80919158569381"><ele>4.6</ele><time>2026-04-18T11:23:03Z</time></trkpt><trkpt lat="44.973623353784" lon="11.80906055944542"><ele>4.4</ele><time>2026-04-18T11:23:05Z</time></trkpt><trkpt lat="44.973642856962826" lon="11.808913014481568"><ele>4.2</ele><time>2026-04-18T11:23:07Z</time></trkpt><trkpt lat="44.97365768551824" lon="11.808753830399155"><ele>4.0</ele><time>2026-04-18T11:23:09Z</time></trkpt><trkpt lat="44.97367471387073" lon="11.808601964584117"><ele>4.2</ele><time>2026-04-18T11:23:11Z</time></trkpt><trkpt lat="44.973681173895805" lon="11.8084495448658"><ele>4.4</ele><time>2026-04-18T11:23:13Z</time></trkpt><trkpt lat="44.973697690889736" lon="11.808309560689386"><ele>4.6</ele><time>2026-04-18T11:23:15Z</time></trkpt><trkpt lat="44.97371250794569" lon="11.808172521274953"><ele>4.8</ele><time>2026-04-18T11:23:17Z</time></trkpt><trkpt lat="44.973724203471434" lon="11.808039092991551"><ele>5.0</ele><time>2026-04-18T11:23:19Z</time></trkpt><trkpt lat="44.97373489066431" lon="11.807892863200339"><ele>5.0</ele><time>2026-04-18T11:23:21Z</time></trkpt><trkpt lat="44.97374768527419" lon="11.80774437755617"><ele>5.0</ele><time>2026-04-18T11:23:23Z</time></trkpt><trkpt lat="44.9737627051248" lon="11.807596070050462"><ele>5.0</ele><time>2026-04-18T11:23:25Z</time></trkpt><trkpt lat="44.973781982546" lon="11.807448807216375"><ele>5.0</ele><time>2026-04-18T11:23:27Z</time></trkpt><trkpt lat="44.97379913730559" lon="11.807298894730938"><ele>5.0</ele><time>2026-04-18T11:23:29Z</time></trkpt><trkpt lat="44.973811734336735" lon="11.80714813434311"><ele>5.2</ele><time>2026-04-18T11:23:31Z</time></trkpt><trkpt lat="44.973829435341116" lon="11.806998761528927"><ele>5.4</ele><time>2026-04-18T11:23:33Z</time></trkpt><trkpt lat="44.97384926836605" lon="11.806853898031898"><ele>5.6</ele><time>2026-04-18T11:23:35Z</time></trkpt><trkpt lat="44.9738721726992" lon="11.80670760602467"><ele>5.8</ele><time>2026-04-18T11:23:37Z</time></trkpt><trkpt lat="44.97388853103737" lon="11.806563174573585"><ele>6.0</ele><time>2026-04-18T11:23:39Z</time></trkpt><trkpt lat="44.97391229610736" lon="11.80641911479034"><ele>5.8</ele><time>2026-04-18T11:23:41Z</time></trkpt><trkpt lat="44.97393469242129" lon="11.806271424644033"><ele>5.6</ele><time>2026-04-18T11:23:43Z</time></trkpt><trkpt lat="44.973969016092326" lon="11.80613103753358"><ele>5.4</ele><time>2026-04-18T11:23:45Z</time></trkpt><trkpt lat="44.97399523004973" lon="11.80598244249733"><ele>5.2</ele><time>2026-04-18T11:23:47Z</time></trkpt><trkpt lat="44.97402194964491" lon="11.805836451781149"><ele>5.0</ele><time>2026-04-18T11:23:49Z</time></trkpt><trkpt lat="44.97404967376418" lon="11.805690470547518"><ele>5.0</ele><time>2026-04-18T11:23:51Z</time></trkpt><trkpt lat="44.974071384157824" lon="11.80554083250594"><ele>5.0</ele><time>2026-04-18T11:23:53Z</time></trkpt><trkpt lat="44.974099124293446" lon="11.805392874764726"><ele>5.0</ele><time>2026-04-18T11:23:55Z</time></trkpt><trkpt lat="44.97412193645132" lon="11.805246513724848"><ele>5.0</ele><time>2026-04-18T11:23:57Z</time></trkpt><trkpt lat="44.97415032621102" lon="11.805100148700552"><ele>5.0</ele><time>2026-04-18T11:23:59Z</time></trkpt><trkpt lat="44.97416793049133" lon="11.80494951867319"><ele>4.8</ele><time>2026-04-18T11:24:01Z</time></trkpt><trkpt lat="44.97417836185512" lon="11.804800062431761"><ele>4.6</ele><time>2026-04-18T11:24:03Z</time></trkpt><trkpt lat="44.9741797125868" lon="11.804650485908848"><ele>4.4</ele><time>2026-04-18T11:24:05Z</time></trkpt><trkpt lat="44.97417581109763" lon="11.804498651919987"><ele>4.2</ele><time>2026-04-18T11:24:07Z</time></trkpt><trkpt lat="44.9741682191227" lon="11.804349296986228"><ele>4.0</ele><time>2026-04-18T11:24:09Z</time></trkpt><trkpt lat="44.97416072360145" lon="11.804202130890136"><ele>4.0</ele><time>2026-04-18T11:24:11Z</time></trkpt><trkpt lat="44.974149741545304" lon="11.804048112688927"><ele>4.0</ele><time>2026-04-18T11:24:13Z</time></trkpt><trkpt lat="44.97413309694619" lon="11.803890341575466"><ele>4.0</ele><time>2026-04-18T11:24:15Z</time></trkpt><trkpt lat="44.974115074940734" lon="11.803739836833762"><ele>4.0</ele><time>2026-04-18T11:24:17Z</time></trkpt><trkpt lat="44.974099803723824" lon="11.803587475749625"><ele>4.0</ele><time>2026-04-18T11:24:19Z</time></trkpt><trkpt lat="44.97408313656585" lon="11.803437701493081"><ele>4.2</ele><time>2026-04-18T11:24:21Z</time></trkpt><trkpt lat="44.974065128396326" lon="11.803289112316234"><ele>4.4</ele><time>2026-04-18T11:24:23Z</time></trkpt><trkpt lat="44.974036471690376" lon="11.803143401893115"><ele>4.6</ele><time>2026-04-18T11:24:25Z</time></trkpt><trkpt lat="44.97401528192292" lon="11.802997856162335"><ele>4.8</ele><time>2026-04-18T11:24:27Z</time></trkpt><trkpt lat="44.97399203111796" lon="11.802849071517432"><ele>5.0</ele><time>2026-04-18T11:24:29Z</time></trkpt><trkpt lat="44.973973201027924" lon="11.802703577942099"><ele>5.0</ele><time>2026-04-18T11:24:31Z</time></trkpt><trkpt lat="44.97394447889889" lon="11.802558216595562"><ele>5.0</ele><time>2026-04-18T11:24:33Z</time></trkpt><trkpt lat="44.973923792925596" lon="11.80241134725087"><ele>5.0</ele><time>2026-04-18T11:24:35Z</time></trkpt><trkpt lat="44.97390673463286" lon="11.802264951705622"><ele>5.0</ele><time>2026-04-18T11:24:37Z</time></trkpt><trkpt lat="44.97388563062641" lon="11.802119613414556"><ele>5.0</ele><time>2026-04-18T11:24:39Z</time></trkpt><trkpt lat="44.97385733870748" lon="11.80197845785277"><ele>5.0</ele><time>2026-04-18T11:24:41Z</time></trkpt><trkpt lat="44.973825405577635" lon="11.801839380193154"><ele>5.0</ele><time>2026-04-18T11:24:43Z</time></trkpt><trkpt lat="44.97379162727135" lon="11.801697365835935"><ele>5.0</ele><time>2026-04-18T11:24:45Z</time></trkpt><trkpt lat="44.97375186852842" lon="11.801555887584685"><ele>5.0</ele><time>2026-04-18T11:24:47Z</time></trkpt><trkpt lat="44.97371067401192" lon="11.801411757525463"><ele>5.0</ele><time>2026-04-18T11:24:49Z</time></trkpt><trkpt lat="44.97366609138108" lon="11.801272136207592"><ele>5.0</ele><time>2026-04-18T11:24:51Z</time></trkpt><trkpt lat="44.97362435176823" lon="11.801132117567931"><ele>5.0</ele><time>2026-04-18T11:24:53Z</time></trkpt><trkpt lat="44.97358125715658" lon="11.8009948563857"><ele>5.0</ele><time>2026-04-18T11:24:55Z</time></trkpt><trkpt lat="44.97353800899658" lon="11.800858049220377"><ele>5.0</ele><time>2026-04-18T11:24:57Z</time></trkpt><trkpt lat="44.9734927556699" lon="11.800722297600583"><ele>5.0</ele><time>2026-04-18T11:24:59Z</time></trkpt><trkpt lat="44.97344344933809" lon="11.800591100008237"><ele>4.6</ele><time>2026-04-18T11:25:01Z</time></trkpt><trkpt lat="44.97340703852996" lon="11.800467566848774"><ele>4.2</ele><time>2026-04-18T11:25:03Z</time></trkpt><trkpt lat="44.97336732385065" lon="11.80034557847443"><ele>3.8</ele><time>2026-04-18T11:25:05Z</time></trkpt><trkpt lat="44.973324963747196" lon="11.800225133616944"><ele>3.4</ele><time>2026-04-18T11:25:07Z</time></trkpt><trkpt lat="44.9732764748376" lon="11.800102479480072"><ele>3.0</ele><time>2026-04-18T11:25:09Z</time></trkpt><trkpt lat="44.973222741791325" lon="11.79996346822949"><ele>3.0</ele><time>2026-04-18T11:25:11Z</time></trkpt><trkpt lat="44.97316945949519" lon="11.799806416492034"><ele>3.0</ele><time>2026-04-18T11:25:13Z</time></trkpt><trkpt lat="44.97313217448985" lon="11.799727358154504"><ele>3.0</ele><time>2026-04-18T11:25:14Z</time></trkpt><trkpt lat="44.973087856914205" lon="11.799653339315572"><ele>3.0</ele><time>2026-04-18T11:25:15Z</time></trkpt><trkpt lat="44.97300678481087" lon="11.799528807960371"><ele>3.0</ele><time>2026-04-18T11:25:17Z</time></trkpt><trkpt lat="44.97293300449621" lon="11.799399531960331"><ele>2.8</ele><time>2026-04-18T11:25:19Z</time></trkpt><trkpt lat="44.97286116093943" lon="11.799282445752056"><ele>2.5999999999999996</ele><time>2026-04-18T11:25:21Z</time></trkpt><trkpt lat="44.972779690809034" lon="11.799180208135777"><ele>2.4000000000000004</ele><time>2026-04-18T11:25:23Z</time></trkpt><trkpt lat="44.97269784812689" lon="11.799082383833184"><ele>2.2</ele><time>2026-04-18T11:25:25Z</time></trkpt><trkpt lat="44.97261859225132" lon="11.79898386616581"><ele>2.0</ele><time>2026-04-18T11:25:27Z</time></trkpt><trkpt lat="44.97253434432794" lon="11.79889483191593"><ele>2.4000000000000004</ele><time>2026-04-18T11:25:29Z</time></trkpt><trkpt lat="44.97244895565389" lon="11.798804539313023"><ele>2.8000000000000003</ele><time>2026-04-18T11:25:31Z</time></trkpt><trkpt lat="44.97235783820684" lon="11.798728453833219"><ele>3.2</ele><time>2026-04-18T11:25:33Z</time></trkpt><trkpt lat="44.97227182693959" lon="11.798642591445997"><ele>3.6</ele><time>2026-04-18T11:25:35Z</time></trkpt><trkpt lat="44.972182869111926" lon="11.798565995726625"><ele>4.0</ele><time>2026-04-18T11:25:37Z</time></trkpt><trkpt lat="44.97208789282817" lon="11.798500630894074"><ele>4.166666666666666</ele><time>2026-04-18T11:25:39Z</time></trkpt><trkpt lat="44.97200225127248" lon="11.798431236984904"><ele>4.333333333333333</ele><time>2026-04-18T11:25:41Z</time></trkpt><trkpt lat="44.97191578030684" lon="11.798375025847019"><ele>4.5</ele><time>2026-04-18T11:25:43Z</time></trkpt><trkpt lat="44.97183480651517" lon="11.798321396552298"><ele>4.666666666666667</ele><time>2026-04-18T11:25:45Z</time></trkpt><trkpt lat="44.97176116834737" lon="11.798262562548858"><ele>4.833333333333334</ele><time>2026-04-18T11:25:47Z</time></trkpt><trkpt lat="44.97168735638805" lon="11.798227771609366"><ele>5.0</ele><time>2026-04-18T11:25:49Z</time></trkpt><trkpt lat="44.97161363242551" lon="11.798170317405264"><ele>5.166666666666667</ele><time>2026-04-18T11:25:51Z</time></trkpt><trkpt lat="44.97152229793441" lon="11.798109929986953"><ele>5.333333333333334</ele><time>2026-04-18T11:25:53Z</time></trkpt><trkpt lat="44.97144251684745" lon="11.798052059802911"><ele>5.5</ele><time>2026-04-18T11:25:55Z</time></trkpt><trkpt lat="44.97136435322987" lon="11.797995146659778"><ele>5.666666666666667</ele><time>2026-04-18T11:25:57Z</time></trkpt><trkpt lat="44.97128736658496" lon="11.797949221439096"><ele>5.833333333333333</ele><time>2026-04-18T11:25:59Z</time></trkpt><trkpt lat="44.97121686178551" lon="11.797899804411294"><ele>6.0</ele><time>2026-04-18T11:26:01Z</time></trkpt><trkpt lat="44.97114438477919" lon="11.79785759163498"><ele>5.999999999999999</ele><time>2026-04-18T11:26:03Z</time></trkpt><trkpt lat="44.97107226297649" lon="11.797802377095529"><ele>6.0</ele><time>2026-04-18T11:26:05Z</time></trkpt><trkpt lat="44.97099817584819" lon="11.797759981786712"><ele>6.0</ele><time>2026-04-18T11:26:07Z</time></trkpt><trkpt lat="44.970933846033596" lon="11.797712165550589"><ele>6.0</ele><time>2026-04-18T11:26:09Z</time></trkpt><trkpt lat="44.970870267555384" lon="11.797670262571799"><ele>6.0</ele><time>2026-04-18T11:26:11Z</time></trkpt><trkpt lat="44.97081198533513" lon="11.797631709834864"><ele>5.999999999999999</ele><time>2026-04-18T11:26:13Z</time></trkpt><trkpt lat="44.97075628005768" lon="11.797584330659898"><ele>6.0</ele><time>2026-04-18T11:26:15Z</time></trkpt><trkpt lat="44.970690892170815" lon="11.797533933714588"><ele>5.571428571428571</ele><time>2026-04-18T11:26:17Z</time></trkpt><trkpt lat="44.970629398689" lon="11.797494184503389"><ele>5.142857142857142</ele><time>2026-04-18T11:26:19Z</time></trkpt><trkpt lat="44.97057234721375" lon="11.797455498893473"><ele>4.7142857142857135</ele><time>2026-04-18T11:26:21Z</time></trkpt><trkpt lat="44.97049249849013" lon="11.797402180777862"><ele>4.285714285714286</ele><time>2026-04-18T11:26:24Z</time></trkpt><trkpt lat="44.970422396022954" lon="11.797351865318973"><ele>3.8571428571428568</ele><time>2026-04-18T11:26:27Z</time></trkpt><trkpt lat="44.970361240233714" lon="11.797299523744494"><ele>3.4285714285714284</ele><time>2026-04-18T11:26:29Z</time></trkpt><trkpt lat="44.9702981796566" lon="11.797259713246046"><ele>3.0</ele><time>2026-04-18T11:26:31Z</time></trkpt><trkpt lat="44.970213130924996" lon="11.797209281619386"><ele>3.0</ele><time>2026-04-18T11:26:34Z</time></trkpt><trkpt lat="44.97014212409934" lon="11.79713626685951"><ele>3.0</ele><time>2026-04-18T11:26:37Z</time></trkpt><trkpt lat="44.97006601433713" lon="11.797094414676499"><ele>3.0</ele><time>2026-04-18T11:26:40Z</time></trkpt><trkpt lat="44.96999928378541" lon="11.797036835620007"><ele>3.0</ele><time>2026-04-18T11:26:43Z</time></trkpt><trkpt lat="44.96992710403123" lon="11.796980231412189"><ele>3.0</ele><time>2026-04-18T11:26:45Z</time></trkpt><trkpt lat="44.969842325938295" lon="11.796917301238969"><ele>3.0</ele><time>2026-04-18T11:26:47Z</time></trkpt><trkpt lat="44.969766550630595" lon="11.796855508893167"><ele>3.4</ele><time>2026-04-18T11:26:49Z</time></trkpt><trkpt lat="44.969688160664035" lon="11.796792145998307"><ele>3.8</ele><time>2026-04-18T11:26:51Z</time></trkpt><trkpt lat="44.96960113797543" lon="11.796718707075158"><ele>4.2</ele><time>2026-04-18T11:26:53Z</time></trkpt><trkpt lat="44.9695160618189" lon="11.796640583521977"><ele>4.6</ele><time>2026-04-18T11:26:55Z</time></trkpt><trkpt lat="44.969432369733084" lon="11.796551221784586"><ele>5.0</ele><time>2026-04-18T11:26:57Z</time></trkpt><trkpt lat="44.96934555360235" lon="11.796473652029059"><ele>5.0</ele><time>2026-04-18T11:26:59Z</time></trkpt><trkpt lat="44.9692624061938" lon="11.796388311740204"><ele>5.0</ele><time>2026-04-18T11:27:01Z</time></trkpt><trkpt lat="44.969180266419755" lon="11.796305254581535"><ele>5.0</ele><time>2026-04-18T11:27:03Z</time></trkpt><trkpt lat="44.969109621175804" lon="11.796223975110202"><ele>5.0</ele><time>2026-04-18T11:27:05Z</time></trkpt><trkpt lat="44.96903051824949" lon="11.796149591251124"><ele>5.0</ele><time>2026-04-18T11:27:07Z</time></trkpt><trkpt lat="44.96894921547421" lon="11.796055472173304"><ele>5.0</ele><time>2026-04-18T11:27:09Z</time></trkpt><trkpt lat="44.968865647073436" lon="11.795966504697457"><ele>5.0</ele><time>2026-04-18T11:27:11Z</time></trkpt><trkpt lat="44.96878460699991" lon="11.795869607440654"><ele>5.0</ele><time>2026-04-18T11:27:13Z</time></trkpt><trkpt lat="44.96869861902067" lon="11.795777346720872"><ele>5.0</ele><time>2026-04-18T11:27:15Z</time></trkpt><trkpt lat="44.96861807631319" lon="11.795679310417253"><ele>5.0</ele><time>2026-04-18T11:27:17Z</time></trkpt><trkpt lat="44.96853069867111" lon="11.795591032667062"><ele>5.0</ele><time>2026-04-18T11:27:19Z</time></trkpt><trkpt lat="44.96844983188803" lon="11.79549708682227"><ele>5.0</ele><time>2026-04-18T11:27:21Z</time></trkpt><trkpt lat="44.968368864212614" lon="11.795395913414481"><ele>5.0</ele><time>2026-04-18T11:27:23Z</time></trkpt><trkpt lat="44.9682862598048" lon="11.795303627092"><ele>5.0</ele><time>2026-04-18T11:27:25Z</time></trkpt><trkpt lat="44.96820351838936" lon="11.79521120768691"><ele>5.0</ele><time>2026-04-18T11:27:27Z</time></trkpt><trkpt lat="44.96812120995368" lon="11.795118856272216"><ele>4.4</ele><time>2026-04-18T11:27:29Z</time></trkpt><trkpt lat="44.968036823844926" lon="11.795027378257151"><ele>3.8</ele><time>2026-04-18T11:27:31Z</time></trkpt><trkpt lat="44.96794940871407" lon="11.794935339667068"><ele>3.2</ele><time>2026-04-18T11:27:33Z</time></trkpt><trkpt lat="44.96786347692731" lon="11.794843998188531"><ele>2.6</ele><time>2026-04-18T11:27:35Z</time></trkpt><trkpt lat="44.967778442806" lon="11.794753303744834"><ele>2.0</ele><time>2026-04-18T11:27:37Z</time></trkpt><trkpt lat="44.967691917975635" lon="11.794665563573965"><ele>2.0</ele><time>2026-04-18T11:27:39Z</time></trkpt><trkpt lat="44.96761004507647" lon="11.794575669350992"><ele>2.0</ele><time>2026-04-18T11:27:41Z</time></trkpt><trkpt lat="44.967523066221496" lon="11.79448784859071"><ele>2.0</ele><time>2026-04-18T11:27:43Z</time></trkpt><trkpt lat="44.967441112431466" lon="11.794394911503373"><ele>2.0</ele><time>2026-04-18T11:27:45Z</time></trkpt><trkpt lat="44.96736000356246" lon="11.794298771014029"><ele>2.0</ele><time>2026-04-18T11:27:47Z</time></trkpt><trkpt lat="44.967271987796394" lon="11.794216627813979"><ele>2.2</ele><time>2026-04-18T11:27:49Z</time></trkpt><trkpt lat="44.96719127895877" lon="11.794121244102934"><ele>2.4000000000000004</ele><time>2026-04-18T11:27:51Z</time></trkpt><trkpt lat="44.96710683459328" lon="11.794033143476714"><ele>2.5999999999999996</ele><time>2026-04-18T11:27:53Z</time></trkpt><trkpt lat="44.96702350171371" lon="11.793936792899723"><ele>2.8</ele><time>2026-04-18T11:27:55Z</time></trkpt><trkpt lat="44.96694623805736" lon="11.793840021210448"><ele>3.0</ele><time>2026-04-18T11:27:57Z</time></trkpt><trkpt lat="44.96686175025403" lon="11.793750182217329"><ele>3.0</ele><time>2026-04-18T11:27:59Z</time></trkpt><trkpt lat="44.96678057743085" lon="11.793660508203509"><ele>3.0</ele><time>2026-04-18T11:28:01Z</time></trkpt><trkpt lat="44.96670209804738" lon="11.793566318449027"><ele>3.0</ele><time>2026-04-18T11:28:03Z</time></trkpt><trkpt lat="44.966621295553104" lon="11.793470857203433"><ele>3.0</ele><time>2026-04-18T11:28:05Z</time></trkpt><trkpt lat="44.96654207030792" lon="11.793377358417574"><ele>3.0</ele><time>2026-04-18T11:28:07Z</time></trkpt><trkpt lat="44.96646154552338" lon="11.79328397952087"><ele>3.2</ele><time>2026-04-18T11:28:09Z</time></trkpt><trkpt lat="44.96637652718482" lon="11.79318808724455"><ele>3.4</ele><time>2026-04-18T11:28:10.999Z</time></trkpt><trkpt lat="44.96629034142973" lon="11.793105171135005"><ele>3.6000000000000005</ele><time>2026-04-18T11:28:12.999Z</time></trkpt><trkpt lat="44.96621252644873" lon="11.793001512322455"><ele>3.8000000000000003</ele><time>2026-04-18T11:28:14.999Z</time></trkpt><trkpt lat="44.96613159990865" lon="11.792907813637923"><ele>4.0</ele><time>2026-04-18T11:28:16.999Z</time></trkpt><trkpt lat="44.96604859896125" lon="11.792812635408529"><ele>4.0</ele><time>2026-04-18T11:28:18.999Z</time></trkpt><trkpt lat="44.96596854024988" lon="11.792711803981023"><ele>4.0</ele><time>2026-04-18T11:28:20.999Z</time></trkpt><trkpt lat="44.96588828253243" lon="11.792613993612953"><ele>4.0</ele><time>2026-04-18T11:28:22.999Z</time></trkpt><trkpt lat="44.96580647790152" lon="11.792516073245496"><ele>4.0</ele><time>2026-04-18T11:28:24.999Z</time></trkpt><trkpt lat="44.96572407585143" lon="11.79242456244719"><ele>4.0</ele><time>2026-04-18T11:28:26.999Z</time></trkpt><trkpt lat="44.965643091319336" lon="11.792327164692677"><ele>4.2</ele><time>2026-04-18T11:28:28.999Z</time></trkpt><trkpt lat="44.96556565687007" lon="11.79222998519186"><ele>4.4</ele><time>2026-04-18T11:28:30.999Z</time></trkpt><trkpt lat="44.96548096902642" lon="11.79214101506735"><ele>4.6</ele><time>2026-04-18T11:28:32.999Z</time></trkpt><trkpt lat="44.96540136370565" lon="11.792040984999671"><ele>4.8</ele><time>2026-04-18T11:28:34.999Z</time></trkpt><trkpt lat="44.965320571924764" lon="11.791947566028375"><ele>5.0</ele><time>2026-04-18T11:28:36.999Z</time></trkpt><trkpt lat="44.96523769885628" lon="11.791851090442877"><ele>4.6</ele><time>2026-04-18T11:28:38.999Z</time></trkpt><trkpt lat="44.96516208200743" lon="11.791753933155942"><ele>4.2</ele><time>2026-04-18T11:28:40.999Z</time></trkpt><trkpt lat="44.96507373135927" lon="11.791665830593946"><ele>3.8</ele><time>2026-04-18T11:28:42.999Z</time></trkpt><trkpt lat="44.964994857278455" lon="11.79157155449648"><ele>3.4</ele><time>2026-04-18T11:28:44.999Z</time></trkpt><trkpt lat="44.964918287427096" lon="11.791483513551524"><ele>3.0</ele><time>2026-04-18T11:28:46.999Z</time></trkpt><trkpt lat="44.9648446212169" lon="11.791396993737886"><ele>4.0</ele><time>2026-04-18T11:28:48.999Z</time></trkpt><trkpt lat="44.964769506548" lon="11.791300316285716"><ele>5.0</ele><time>2026-04-18T11:28:50.999Z</time></trkpt><trkpt lat="44.964686365244766" lon="11.791205501412826"><ele>6.000000000000001</ele><time>2026-04-18T11:28:52.999Z</time></trkpt><trkpt lat="44.964602993137525" lon="11.79110638918435"><ele>7.0</ele><time>2026-04-18T11:28:54.999Z</time></trkpt><trkpt lat="44.96452045799563" lon="11.79100827248542"><ele>8.0</ele><time>2026-04-18T11:28:56.999Z</time></trkpt><trkpt lat="44.96443868439918" lon="11.790913346305771"><ele>8.0</ele><time>2026-04-18T11:28:58.999Z</time></trkpt><trkpt lat="44.964357541713106" lon="11.790816680122639"><ele>8.0</ele><time>2026-04-18T11:29:00.999Z</time></trkpt><trkpt lat="44.964272027510766" lon="11.790722550698177"><ele>8.0</ele><time>2026-04-18T11:29:02.999Z</time></trkpt><trkpt lat="44.964188917367856" lon="11.790625771017089"><ele>8.0</ele><time>2026-04-18T11:29:04.999Z</time></trkpt><trkpt lat="44.964101459390385" lon="11.790538500435881"><ele>8.0</ele><time>2026-04-18T11:29:06.999Z</time></trkpt><trkpt lat="44.964016857004175" lon="11.790446228499748"><ele>8.0</ele><time>2026-04-18T11:29:08.999Z</time></trkpt><trkpt lat="44.96393626496362" lon="11.790351920333617"><ele>8.0</ele><time>2026-04-18T11:29:10.999Z</time></trkpt><trkpt lat="44.96386192259457" lon="11.790250940129836"><ele>8.0</ele><time>2026-04-18T11:29:12.999Z</time></trkpt><trkpt lat="44.963786414097186" lon="11.790153789170777"><ele>8.0</ele><time>2026-04-18T11:29:14.999Z</time></trkpt><trkpt lat="44.963704231469826" lon="11.790058605642216"><ele>8.0</ele><time>2026-04-18T11:29:16.999Z</time></trkpt><trkpt lat="44.96362469571856" lon="11.789958489245116"><ele>8.200000000000001</ele><time>2026-04-18T11:29:18.999Z</time></trkpt><trkpt lat="44.96354578688745" lon="11.789853926074974"><ele>8.4</ele><time>2026-04-18T11:29:20.999Z</time></trkpt><trkpt lat="44.96346073806863" lon="11.789758132973644"><ele>8.600000000000001</ele><time>2026-04-18T11:29:22.999Z</time></trkpt><trkpt lat="44.96337923760052" lon="11.789660796484933"><ele>8.8</ele><time>2026-04-18T11:29:24.999Z</time></trkpt><trkpt lat="44.963299477566906" lon="11.78956342999887"><ele>9.0</ele><time>2026-04-18T11:29:26.999Z</time></trkpt><trkpt lat="44.96321435992198" lon="11.789468589181048"><ele>9.0</ele><time>2026-04-18T11:29:28.999Z</time></trkpt><trkpt lat="44.963130011302546" lon="11.789375697612117"><ele>9.0</ele><time>2026-04-18T11:29:30.999Z</time></trkpt><trkpt lat="44.96304556573812" lon="11.789276608092663"><ele>9.0</ele><time>2026-04-18T11:29:32.999Z</time></trkpt><trkpt lat="44.96296236172554" lon="11.789177456488217"><ele>9.0</ele><time>2026-04-18T11:29:34.999Z</time></trkpt><trkpt lat="44.96287794125995" lon="11.789080184441321"><ele>9.0</ele><time>2026-04-18T11:29:36.999Z</time></trkpt><trkpt lat="44.962795984304904" lon="11.788982207043896"><ele>8.6</ele><time>2026-04-18T11:29:38.999Z</time></trkpt><trkpt lat="44.96271426632569" lon="11.788883555587908"><ele>8.2</ele><time>2026-04-18T11:29:40.999Z</time></trkpt><trkpt lat="44.96262987812938" lon="11.788790041986958"><ele>7.799999999999999</ele><time>2026-04-18T11:29:42.999Z</time></trkpt><trkpt lat="44.962548733645946" lon="11.788690651873907"><ele>7.3999999999999995</ele><time>2026-04-18T11:29:44.999Z</time></trkpt><trkpt lat="44.96246470687278" lon="11.788594906309086"><ele>7.0</ele><time>2026-04-18T11:29:46.999Z</time></trkpt><trkpt lat="44.9623841796186" lon="11.78849117944176"><ele>8.0</ele><time>2026-04-18T11:29:48.999Z</time></trkpt><trkpt lat="44.962304380389305" lon="11.788388095872927"><ele>9.0</ele><time>2026-04-18T11:29:50.999Z</time></trkpt><trkpt lat="44.96223307353008" lon="11.788273629030996"><ele>10.0</ele><time>2026-04-18T11:29:53Z</time></trkpt><trkpt lat="44.962165144081666" lon="11.788157531634697"><ele>11.0</ele><time>2026-04-18T11:29:55Z</time></trkpt><trkpt lat="44.96210058330419" lon="11.788038424504025"><ele>12.0</ele><time>2026-04-18T11:29:57Z</time></trkpt><trkpt lat="44.96203483402067" lon="11.787908523034941"><ele>12.0</ele><time>2026-04-18T11:29:59Z</time></trkpt><trkpt lat="44.96195844639927" lon="11.787762551509864"><ele>12.0</ele><time>2026-04-18T11:30:01Z</time></trkpt><trkpt lat="44.96192243689252" lon="11.787681639034666"><ele>12.0</ele><time>2026-04-18T11:30:02Z</time></trkpt><trkpt lat="44.96188066203366" lon="11.787602000750049"><ele>12.0</ele><time>2026-04-18T11:30:03Z</time></trkpt><trkpt lat="44.96183906466507" lon="11.787514917432496"><ele>12.0</ele><time>2026-04-18T11:30:04Z</time></trkpt><trkpt lat="44.96179786738065" lon="11.787435243606893"><ele>12.0</ele><time>2026-04-18T11:30:05Z</time></trkpt><trkpt lat="44.96175204145657" lon="11.787346160482223"><ele>11.666666666666666</ele><time>2026-04-18T11:30:06Z</time></trkpt><trkpt lat="44.96170586768313" lon="11.787254272692786"><ele>11.333333333333334</ele><time>2026-04-18T11:30:07Z</time></trkpt><trkpt lat="44.961655845491045" lon="11.787161532842095"><ele>11.0</ele><time>2026-04-18T11:30:08Z</time></trkpt><trkpt lat="44.96160614258573" lon="11.787069166967843"><ele>10.666666666666668</ele><time>2026-04-18T11:30:09Z</time></trkpt><trkpt lat="44.96155722943806" lon="11.78697505094709"><ele>10.333333333333334</ele><time>2026-04-18T11:30:10Z</time></trkpt><trkpt lat="44.9615126993494" lon="11.786881673610926"><ele>10.0</ele><time>2026-04-18T11:30:11Z</time></trkpt><trkpt lat="44.9614678623978" lon="11.786796834500915"><ele>10.0</ele><time>2026-04-18T11:30:12Z</time></trkpt><trkpt lat="44.961423758574526" lon="11.786710223086077"><ele>10.0</ele><time>2026-04-18T11:30:13Z</time></trkpt><trkpt lat="44.96138168110899" lon="11.786625173936551"><ele>10.0</ele><time>2026-04-18T11:30:14Z</time></trkpt><trkpt lat="44.961339607958735" lon="11.786544509584878"><ele>10.0</ele><time>2026-04-18T11:30:15Z</time></trkpt><trkpt lat="44.96129849531243" lon="11.78646809126833"><ele>10.0</ele><time>2026-04-18T11:30:16Z</time></trkpt><trkpt lat="44.96125728153763" lon="11.786387964403467"><ele>10.0</ele><time>2026-04-18T11:30:17Z</time></trkpt><trkpt lat="44.96121587508237" lon="11.786303887172364"><ele>10.0</ele><time>2026-04-18T11:30:18Z</time></trkpt><trkpt lat="44.96117196067159" lon="11.786217372441532"><ele>10.0</ele><time>2026-04-18T11:30:19Z</time></trkpt><trkpt lat="44.961127214955596" lon="11.78613295886608"><ele>10.0</ele><time>2026-04-18T11:30:20Z</time></trkpt><trkpt lat="44.96108374152181" lon="11.786043047443421"><ele>10.0</ele><time>2026-04-18T11:30:21Z</time></trkpt><trkpt lat="44.96103785251259" lon="11.785953431218617"><ele>10.0</ele><time>2026-04-18T11:30:22Z</time></trkpt><trkpt lat="44.960992349018085" lon="11.785863409427622"><ele>10.0</ele><time>2026-04-18T11:30:23Z</time></trkpt><trkpt lat="44.96094685605538" lon="11.785772116346504"><ele>10.0</ele><time>2026-04-18T11:30:24Z</time></trkpt><trkpt lat="44.960900761623755" lon="11.78568507016485"><ele>10.166666666666668</ele><time>2026-04-18T11:30:25Z</time></trkpt><trkpt lat="44.9608570778651" lon="11.78559633911093"><ele>10.333333333333334</ele><time>2026-04-18T11:30:26Z</time></trkpt><trkpt lat="44.96081181429047" lon="11.785508454820562"><ele>10.5</ele><time>2026-04-18T11:30:27Z</time></trkpt><trkpt lat="44.96076682412028" lon="11.785422211313563"><ele>10.666666666666666</ele><time>2026-04-18T11:30:28Z</time></trkpt><trkpt lat="44.960727294591" lon="11.785337221644479"><ele>10.833333333333332</ele><time>2026-04-18T11:30:29Z</time></trkpt><trkpt lat="44.960681452425604" lon="11.785253341794066"><ele>11.0</ele><time>2026-04-18T11:30:30Z</time></trkpt><trkpt lat="44.96063682324825" lon="11.78516790328927"><ele>11.0</ele><time>2026-04-18T11:30:31Z</time></trkpt><trkpt lat="44.96059332501044" lon="11.78507936191524"><ele>11.0</ele><time>2026-04-18T11:30:32Z</time></trkpt><trkpt lat="44.960546011861695" lon="11.784993072472677"><ele>11.0</ele><time>2026-04-18T11:30:33Z</time></trkpt><trkpt lat="44.960500553908766" lon="11.784901108432772"><ele>11.0</ele><time>2026-04-18T11:30:34Z</time></trkpt><trkpt lat="44.960455517103725" lon="11.784810751631117"><ele>11.0</ele><time>2026-04-18T11:30:35Z</time></trkpt><trkpt lat="44.96041045632694" lon="11.784720023095819"><ele>11.0</ele><time>2026-04-18T11:30:36Z</time></trkpt><trkpt lat="44.9603732188544" lon="11.784626764038928"><ele>11.0</ele><time>2026-04-18T11:30:37Z</time></trkpt><trkpt lat="44.96034328804707" lon="11.784529138717986"><ele>11.0</ele><time>2026-04-18T11:30:38Z</time></trkpt><trkpt lat="44.96031986217898" lon="11.784427992285543"><ele>11.0</ele><time>2026-04-18T11:30:39Z</time></trkpt><trkpt lat="44.960306470994915" lon="11.784326392990149"><ele>11.0</ele><time>2026-04-18T11:30:40Z</time></trkpt><trkpt lat="44.96029827992958" lon="11.784222863818803"><ele>11.0</ele><time>2026-04-18T11:30:41Z</time></trkpt><trkpt lat="44.96029564418808" lon="11.784114779048812"><ele>11.0</ele><time>2026-04-18T11:30:42Z</time></trkpt><trkpt lat="44.96029993770339" lon="11.784006052521368"><ele>11.0</ele><time>2026-04-18T11:30:43Z</time></trkpt><trkpt lat="44.96030581342321" lon="11.783896388734515"><ele>11.0</ele><time>2026-04-18T11:30:44Z</time></trkpt><trkpt lat="44.960314799190854" lon="11.78378604522877"><ele>11.0</ele><time>2026-04-18T11:30:45Z</time></trkpt><trkpt lat="44.960321570775584" lon="11.783676027405395"><ele>11.0</ele><time>2026-04-18T11:30:46Z</time></trkpt><trkpt lat="44.96032643809878" lon="11.783567720106984"><ele>11.0</ele><time>2026-04-18T11:30:47Z</time></trkpt><trkpt lat="44.96033538561556" lon="11.783462453589674"><ele>11.0</ele><time>2026-04-18T11:30:48Z</time></trkpt><trkpt lat="44.96034253695007" lon="11.78335734185307"><ele>11.0</ele><time>2026-04-18T11:30:49Z</time></trkpt><trkpt lat="44.96034825825961" lon="11.783252006822192"><ele>11.0</ele><time>2026-04-18T11:30:50Z</time></trkpt><trkpt lat="44.96035353162914" lon="11.783147446666348"><ele>11.0</ele><time>2026-04-18T11:30:51Z</time></trkpt><trkpt lat="44.96035995291992" lon="11.783043457802089"><ele>11.0</ele><time>2026-04-18T11:30:52Z</time></trkpt><trkpt lat="44.96036695902806" lon="11.782939504251713"><ele>11.0</ele><time>2026-04-18T11:30:53Z</time></trkpt><trkpt lat="44.960374047953906" lon="11.782833277903132"><ele>11.0</ele><time>2026-04-18T11:30:54Z</time></trkpt><trkpt lat="44.960379512704364" lon="11.782727001890537"><ele>11.0</ele><time>2026-04-18T11:30:55Z</time></trkpt><trkpt lat="44.9603845715478" lon="11.782621270800371"><ele>10.833333333333332</ele><time>2026-04-18T11:30:56Z</time></trkpt><trkpt lat="44.960390046052524" lon="11.782513860519295"><ele>10.666666666666666</ele><time>2026-04-18T11:30:57Z</time></trkpt><trkpt lat="44.96039840308369" lon="11.782404740192984"><ele>10.5</ele><time>2026-04-18T11:30:58Z</time></trkpt><trkpt lat="44.96040915869287" lon="11.782295633237917"><ele>10.333333333333334</ele><time>2026-04-18T11:30:59Z</time></trkpt><trkpt lat="44.960414644230845" lon="11.782183885039725"><ele>10.166666666666668</ele><time>2026-04-18T11:31:00Z</time></trkpt><trkpt lat="44.96041924148934" lon="11.78207703953698"><ele>10.0</ele><time>2026-04-18T11:31:01Z</time></trkpt><trkpt lat="44.960424946911516" lon="11.781971550826068"><ele>10.0</ele><time>2026-04-18T11:31:02Z</time></trkpt><trkpt lat="44.96043172662881" lon="11.78186732639099"><ele>10.0</ele><time>2026-04-18T11:31:03Z</time></trkpt><trkpt lat="44.96043665493658" lon="11.781765370745813"><ele>10.0</ele><time>2026-04-18T11:31:04Z</time></trkpt><trkpt lat="44.960444460757664" lon="11.78166630312896"><ele>10.0</ele><time>2026-04-18T11:31:05Z</time></trkpt><trkpt lat="44.96044956678115" lon="11.781570472657938"><ele>10.0</ele><time>2026-04-18T11:31:06Z</time></trkpt><trkpt lat="44.96045320282473" lon="11.781478223331154"><ele>10.0</ele><time>2026-04-18T11:31:07Z</time></trkpt><trkpt lat="44.96045691131516" lon="11.78138818474556"><ele>10.0</ele><time>2026-04-18T11:31:08Z</time></trkpt><trkpt lat="44.96046895304306" lon="11.781215012840377"><ele>10.0</ele><time>2026-04-18T11:31:10Z</time></trkpt><trkpt lat="44.96048338807956" lon="11.781048052610544"><ele>10.0</ele><time>2026-04-18T11:31:12Z</time></trkpt><trkpt lat="44.96049250508454" lon="11.78088733991345"><ele>10.0</ele><time>2026-04-18T11:31:14Z</time></trkpt><trkpt lat="44.960498969937674" lon="11.780729661681544"><ele>10.0</ele><time>2026-04-18T11:31:16Z</time></trkpt><trkpt lat="44.960507432653294" lon="11.780574271505486"><ele>10.0</ele><time>2026-04-18T11:31:18Z</time></trkpt><trkpt lat="44.96051391217979" lon="11.780417398652844"><ele>10.0</ele><time>2026-04-18T11:31:20Z</time></trkpt><trkpt lat="44.960524252771904" lon="11.780263376209032"><ele>10.0</ele><time>2026-04-18T11:31:22Z</time></trkpt><trkpt lat="44.96053177155537" lon="11.78011105019512"><ele>10.0</ele><time>2026-04-18T11:31:24Z</time></trkpt><trkpt lat="44.96054608798666" lon="11.779962071902276"><ele>10.0</ele><time>2026-04-18T11:31:26Z</time></trkpt><trkpt lat="44.96055390931885" lon="11.779812809390112"><ele>9.6</ele><time>2026-04-18T11:31:28Z</time></trkpt><trkpt lat="44.96056257439097" lon="11.77966589803169"><ele>9.2</ele><time>2026-04-18T11:31:30Z</time></trkpt><trkpt lat="44.96057401689596" lon="11.779515736785257"><ele>8.8</ele><time>2026-04-18T11:31:32Z</time></trkpt><trkpt lat="44.960579243259666" lon="11.779364612288527"><ele>8.4</ele><time>2026-04-18T11:31:34Z</time></trkpt><trkpt lat="44.96058490546684" lon="11.779215204033123"><ele>8.0</ele><time>2026-04-18T11:31:36Z</time></trkpt><trkpt lat="44.96058018526071" lon="11.779065163677926"><ele>8.0</ele><time>2026-04-18T11:31:38Z</time></trkpt><trkpt lat="44.96056044874733" lon="11.778919599620616"><ele>8.0</ele><time>2026-04-18T11:31:40Z</time></trkpt><trkpt lat="44.960520913207354" lon="11.77877879523888"><ele>8.0</ele><time>2026-04-18T11:31:42Z</time></trkpt><trkpt lat="44.9604775343614" lon="11.778641907679422"><ele>8.0</ele><time>2026-04-18T11:31:44Z</time></trkpt><trkpt lat="44.960437442427995" lon="11.778503282337613"><ele>8.0</ele><time>2026-04-18T11:31:46Z</time></trkpt><trkpt lat="44.960393592107785" lon="11.778367156094161"><ele>7.2</ele><time>2026-04-18T11:31:48Z</time></trkpt><trkpt lat="44.960354664114945" lon="11.778228988522928"><ele>6.4</ele><time>2026-04-18T11:31:50Z</time></trkpt><trkpt lat="44.96030732202505" lon="11.778095841852336"><ele>5.6000000000000005</ele><time>2026-04-18T11:31:52Z</time></trkpt><trkpt lat="44.960270507509556" lon="11.777963760151813"><ele>4.800000000000001</ele><time>2026-04-18T11:31:54Z</time></trkpt><trkpt lat="44.96022938994454" lon="11.777840589256952"><ele>4.0</ele><time>2026-04-18T11:31:56Z</time></trkpt><trkpt lat="44.96019040417435" lon="11.77770557024342"><ele>4.0</ele><time>2026-04-18T11:31:58Z</time></trkpt><trkpt lat="44.96015186519486" lon="11.77756797473704"><ele>4.0</ele><time>2026-04-18T11:32:00Z</time></trkpt><trkpt lat="44.96012034009487" lon="11.77742482300732"><ele>4.0</ele><time>2026-04-18T11:32:02Z</time></trkpt><trkpt lat="44.960085242789965" lon="11.77728514816588"><ele>4.0</ele><time>2026-04-18T11:32:04Z</time></trkpt><trkpt lat="44.96005252149984" lon="11.777142879065421"><ele>4.0</ele><time>2026-04-18T11:32:06Z</time></trkpt><trkpt lat="44.96002297998178" lon="11.776997286430941"><ele>4.0</ele><time>2026-04-18T11:32:08Z</time></trkpt><trkpt lat="44.959986538456086" lon="11.776853453066579"><ele>4.0</ele><time>2026-04-18T11:32:10Z</time></trkpt><trkpt lat="44.95995711142214" lon="11.77670695785662"><ele>4.0</ele><time>2026-04-18T11:32:12Z</time></trkpt><trkpt lat="44.9599224739171" lon="11.776566765614469"><ele>4.0</ele><time>2026-04-18T11:32:14Z</time></trkpt><trkpt lat="44.95989605892685" lon="11.776423823388638"><ele>4.0</ele><time>2026-04-18T11:32:16Z</time></trkpt><trkpt lat="44.959864769984684" lon="11.776281115369512"><ele>3.8000000000000003</ele><time>2026-04-18T11:32:18Z</time></trkpt><trkpt lat="44.95983248418247" lon="11.776137453220235"><ele>3.6000000000000005</ele><time>2026-04-18T11:32:20Z</time></trkpt><trkpt lat="44.95980117110306" lon="11.775994959317183"><ele>3.4</ele><time>2026-04-18T11:32:22Z</time></trkpt><trkpt lat="44.95976960143127" lon="11.77585318451117"><ele>3.2</ele><time>2026-04-18T11:32:24Z</time></trkpt><trkpt lat="44.95973932793751" lon="11.77571584510735"><ele>3.0</ele><time>2026-04-18T11:32:26Z</time></trkpt><trkpt lat="44.959707126676" lon="11.7755829723878"><ele>3.0</ele><time>2026-04-18T11:32:28Z</time></trkpt><trkpt lat="44.95968284241251" lon="11.775457857618349"><ele>3.0</ele><time>2026-04-18T11:32:30Z</time></trkpt><trkpt lat="44.95965375174416" lon="11.775329146624841"><ele>3.0</ele><time>2026-04-18T11:32:32Z</time></trkpt><trkpt lat="44.95962969707968" lon="11.775192949543577"><ele>3.0</ele><time>2026-04-18T11:32:34Z</time></trkpt><trkpt lat="44.959598116219624" lon="11.77505580386399"><ele>3.0</ele><time>2026-04-18T11:32:36Z</time></trkpt><trkpt lat="44.959566806168326" lon="11.774918169061712"><ele>3.0</ele><time>2026-04-18T11:32:38Z</time></trkpt><trkpt lat="44.95953959424224" lon="11.774776719556073"><ele>3.0</ele><time>2026-04-18T11:32:40Z</time></trkpt><trkpt lat="44.95950666999226" lon="11.774634030611027"><ele>3.0</ele><time>2026-04-18T11:32:42Z</time></trkpt><trkpt lat="44.959472403524785" lon="11.774492020729992"><ele>3.0</ele><time>2026-04-18T11:32:44Z</time></trkpt><trkpt lat="44.95944410717992" lon="11.774347113470098"><ele>3.0</ele><time>2026-04-18T11:32:46Z</time></trkpt><trkpt lat="44.95941533298683" lon="11.774202322292163"><ele>2.8</ele><time>2026-04-18T11:32:48Z</time></trkpt><trkpt lat="44.95938462725618" lon="11.77405885238476"><ele>2.5999999999999996</ele><time>2026-04-18T11:32:50Z</time></trkpt><trkpt lat="44.959350750155984" lon="11.773920270215783"><ele>2.4000000000000004</ele><time>2026-04-18T11:32:52Z</time></trkpt><trkpt lat="44.95932122845978" lon="11.773777298050963"><ele>2.2</ele><time>2026-04-18T11:32:54Z</time></trkpt><trkpt lat="44.959292084174905" lon="11.773630111152317"><ele>2.0</ele><time>2026-04-18T11:32:56Z</time></trkpt><trkpt lat="44.959261971622546" lon="11.773490668205904"><ele>2.0</ele><time>2026-04-18T11:32:58Z</time></trkpt><trkpt lat="44.95923035557969" lon="11.77334947992509"><ele>2.0</ele><time>2026-04-18T11:33:00Z</time></trkpt><trkpt lat="44.95920021799725" lon="11.773204210704113"><ele>2.0</ele><time>2026-04-18T11:33:02Z</time></trkpt><trkpt lat="44.959172512598386" lon="11.773060952675213"><ele>2.0</ele><time>2026-04-18T11:33:04Z</time></trkpt><trkpt lat="44.95914361052337" lon="11.77291609319766"><ele>2.0</ele><time>2026-04-18T11:33:06Z</time></trkpt><trkpt lat="44.959108584611336" lon="11.772774306200088"><ele>2.4000000000000004</ele><time>2026-04-18T11:33:08Z</time></trkpt><trkpt lat="44.95907678328162" lon="11.772631544091478"><ele>2.8000000000000003</ele><time>2026-04-18T11:33:10Z</time></trkpt><trkpt lat="44.959051470138725" lon="11.772486794701253"><ele>3.2</ele><time>2026-04-18T11:33:12Z</time></trkpt><trkpt lat="44.95902000700207" lon="11.772344454176912"><ele>3.6</ele><time>2026-04-18T11:33:14Z</time></trkpt><trkpt lat="44.95898966721512" lon="11.772198141578766"><ele>4.0</ele><time>2026-04-18T11:33:16Z</time></trkpt><trkpt lat="44.958954855743116" lon="11.77205485878339"><ele>4.0</ele><time>2026-04-18T11:33:18Z</time></trkpt><trkpt lat="44.95892975158932" lon="11.771910173325589"><ele>4.0</ele><time>2026-04-18T11:33:20Z</time></trkpt><trkpt lat="44.958899105072675" lon="11.77176700620334"><ele>4.0</ele><time>2026-04-18T11:33:22Z</time></trkpt><trkpt lat="44.95886811922292" lon="11.771621396690637"><ele>4.0</ele><time>2026-04-18T11:33:24Z</time></trkpt><trkpt lat="44.95884069176978" lon="11.77148048089995"><ele>4.0</ele><time>2026-04-18T11:33:26Z</time></trkpt><trkpt lat="44.95881328457647" lon="11.771335323704278"><ele>4.0</ele><time>2026-04-18T11:33:28Z</time></trkpt><trkpt lat="44.95878535688947" lon="11.771193179040335"><ele>4.0</ele><time>2026-04-18T11:33:30Z</time></trkpt><trkpt lat="44.95875341137312" lon="11.771048395558367"><ele>4.0</ele><time>2026-04-18T11:33:32Z</time></trkpt><trkpt lat="44.958719796323805" lon="11.770911698336617"><ele>4.0</ele><time>2026-04-18T11:33:34Z</time></trkpt><trkpt lat="44.95869445314364" lon="11.770774671794635"><ele>4.0</ele><time>2026-04-18T11:33:36Z</time></trkpt><trkpt lat="44.95867054985262" lon="11.770640947107916"><ele>3.6</ele><time>2026-04-18T11:33:38Z</time></trkpt><trkpt lat="44.95864201641046" lon="11.770499150114835"><ele>3.2</ele><time>2026-04-18T11:33:40Z</time></trkpt><trkpt lat="44.95861798824685" lon="11.770362855633088"><ele>2.8000000000000003</ele><time>2026-04-18T11:33:42Z</time></trkpt><trkpt lat="44.958590289150905" lon="11.770232913968469"><ele>2.4000000000000004</ele><time>2026-04-18T11:33:44Z</time></trkpt><trkpt lat="44.95857222777735" lon="11.770111797326768"><ele>2.0</ele><time>2026-04-18T11:33:46Z</time></trkpt><trkpt lat="44.95855133345453" lon="11.769971310480111"><ele>2.0</ele><time>2026-04-18T11:33:48Z</time></trkpt><trkpt lat="44.95852860184962" lon="11.769826473496645"><ele>2.0</ele><time>2026-04-18T11:33:50Z</time></trkpt><trkpt lat="44.958508753691284" lon="11.769683489465894"><ele>2.0</ele><time>2026-04-18T11:33:52Z</time></trkpt><trkpt lat="44.958487357302765" lon="11.769548760886243"><ele>2.0</ele><time>2026-04-18T11:33:54Z</time></trkpt><trkpt lat="44.95847640273784" lon="11.769415908226597"><ele>2.0</ele><time>2026-04-18T11:33:56Z</time></trkpt><trkpt lat="44.9584581726343" lon="11.769275176628861"><ele>2.0</ele><time>2026-04-18T11:33:58Z</time></trkpt><trkpt lat="44.95844390077941" lon="11.769125944746026"><ele>2.0</ele><time>2026-04-18T11:34:00Z</time></trkpt><trkpt lat="44.958427189930525" lon="11.768977296308327"><ele>2.0</ele><time>2026-04-18T11:34:02Z</time></trkpt><trkpt lat="44.958407323904396" lon="11.768828519210738"><ele>2.0</ele><time>2026-04-18T11:34:04Z</time></trkpt><trkpt lat="44.95839517776034" lon="11.768681270364318"><ele>2.0</ele><time>2026-04-18T11:34:06Z</time></trkpt><trkpt lat="44.95837455505998" lon="11.768533087913305"><ele>2.6</ele><time>2026-04-18T11:34:08Z</time></trkpt><trkpt lat="44.958357839582455" lon="11.768380045420185"><ele>3.2</ele><time>2026-04-18T11:34:10Z</time></trkpt><trkpt lat="44.958337310650215" lon="11.768236007028808"><ele>3.8</ele><time>2026-04-18T11:34:12Z</time></trkpt><trkpt lat="44.95832012887233" lon="11.768087112448939"><ele>4.4</ele><time>2026-04-18T11:34:14Z</time></trkpt><trkpt lat="44.95830762169299" lon="11.767938658486989"><ele>5.0</ele><time>2026-04-18T11:34:16Z</time></trkpt><trkpt lat="44.958291630702234" lon="11.767793597267593"><ele>5.2</ele><time>2026-04-18T11:34:18Z</time></trkpt><trkpt lat="44.95827362182403" lon="11.76764347435536"><ele>5.4</ele><time>2026-04-18T11:34:20Z</time></trkpt><trkpt lat="44.95825342564903" lon="11.767496959721342"><ele>5.6</ele><time>2026-04-18T11:34:22Z</time></trkpt><trkpt lat="44.95823375503748" lon="11.767344645827864"><ele>5.8</ele><time>2026-04-18T11:34:24Z</time></trkpt><trkpt lat="44.95821810825986" lon="11.767195070148487"><ele>6.0</ele><time>2026-04-18T11:34:26Z</time></trkpt><trkpt lat="44.958201937757345" lon="11.767042275019081"><ele>6.0</ele><time>2026-04-18T11:34:28Z</time></trkpt><trkpt lat="44.95818474137768" lon="11.766890292389547"><ele>6.0</ele><time>2026-04-18T11:34:30Z</time></trkpt><trkpt lat="44.958167425232176" lon="11.766742447444608"><ele>6.0</ele><time>2026-04-18T11:34:32Z</time></trkpt><trkpt lat="44.9581469637133" lon="11.766598316992324"><ele>6.0</ele><time>2026-04-18T11:34:34Z</time></trkpt><trkpt lat="44.958134471030164" lon="11.766449990027363"><ele>6.0</ele><time>2026-04-18T11:34:36Z</time></trkpt><trkpt lat="44.95811841881639" lon="11.766302177770736"><ele>5.6</ele><time>2026-04-18T11:34:38Z</time></trkpt><trkpt lat="44.95810016102276" lon="11.7661517801276"><ele>5.199999999999999</ele><time>2026-04-18T11:34:40Z</time></trkpt><trkpt lat="44.958083124386306" lon="11.766002831450061"><ele>4.800000000000001</ele><time>2026-04-18T11:34:42Z</time></trkpt><trkpt lat="44.95806541096201" lon="11.765856802351708"><ele>4.4</ele><time>2026-04-18T11:34:44Z</time></trkpt><trkpt lat="44.95805429761496" lon="11.765708409055586"><ele>4.0</ele><time>2026-04-18T11:34:46Z</time></trkpt><trkpt lat="44.95803558162521" lon="11.765562794803042"><ele>4.0</ele><time>2026-04-18T11:34:48Z</time></trkpt><trkpt lat="44.958022138784514" lon="11.76542586919867"><ele>4.0</ele><time>2026-04-18T11:34:50Z</time></trkpt><trkpt lat="44.958006901751496" lon="11.765295913516502"><ele>4.0</ele><time>2026-04-18T11:34:52Z</time></trkpt><trkpt lat="44.95799033129644" lon="11.765170134713605"><ele>4.0</ele><time>2026-04-18T11:34:54Z</time></trkpt><trkpt lat="44.95797778605929" lon="11.765032646933184"><ele>4.0</ele><time>2026-04-18T11:34:56Z</time></trkpt><trkpt lat="44.95796275880431" lon="11.764884248455324"><ele>4.0</ele><time>2026-04-18T11:34:58Z</time></trkpt><trkpt lat="44.95795025554557" lon="11.764735109013813"><ele>4.0</ele><time>2026-04-18T11:35:00Z</time></trkpt><trkpt lat="44.95793047257022" lon="11.764590464288474"><ele>4.0</ele><time>2026-04-18T11:35:02Z</time></trkpt><trkpt lat="44.95791411542509" lon="11.764444548909527"><ele>4.0</ele><time>2026-04-18T11:35:04Z</time></trkpt><trkpt lat="44.95790164459563" lon="11.764294386444366"><ele>4.0</ele><time>2026-04-18T11:35:06Z</time></trkpt><trkpt lat="44.95788553624316" lon="11.764150337892422"><ele>4.0</ele><time>2026-04-18T11:35:08Z</time></trkpt><trkpt lat="44.957869862250845" lon="11.76399901930722"><ele>4.0</ele><time>2026-04-18T11:35:10Z</time></trkpt><trkpt lat="44.95785385596396" lon="11.76385082327218"><ele>4.0</ele><time>2026-04-18T11:35:12Z</time></trkpt><trkpt lat="44.95783236978022" lon="11.76370591027037"><ele>4.0</ele><time>2026-04-18T11:35:14Z</time></trkpt><trkpt lat="44.957816179395" lon="11.76355866232779"><ele>4.0</ele><time>2026-04-18T11:35:16Z</time></trkpt><trkpt lat="44.9577960310487" lon="11.763412109058958"><ele>3.8000000000000003</ele><time>2026-04-18T11:35:18Z</time></trkpt><trkpt lat="44.957786490735984" lon="11.763260247758407"><ele>3.6000000000000005</ele><time>2026-04-18T11:35:20Z</time></trkpt><trkpt lat="44.95776262079272" lon="11.763112174993427"><ele>3.4</ele><time>2026-04-18T11:35:22Z</time></trkpt><trkpt lat="44.95774853108918" lon="11.7629621443836"><ele>3.2</ele><time>2026-04-18T11:35:24Z</time></trkpt><trkpt lat="44.95773389141868" lon="11.762814837732071"><ele>3.0</ele><time>2026-04-18T11:35:26Z</time></trkpt><trkpt lat="44.95771645003514" lon="11.762668556158525"><ele>3.4</ele><time>2026-04-18T11:35:28Z</time></trkpt><trkpt lat="44.95770002658347" lon="11.76252440386024"><ele>3.8</ele><time>2026-04-18T11:35:30Z</time></trkpt><trkpt lat="44.95770027442379" lon="11.762368989139961"><ele>4.2</ele><time>2026-04-18T11:35:32Z</time></trkpt><trkpt lat="44.95770306608985" lon="11.762223373115305"><ele>4.6</ele><time>2026-04-18T11:35:34Z</time></trkpt><trkpt lat="44.95770826618923" lon="11.76207786918512"><ele>5.0</ele><time>2026-04-18T11:35:36Z</time></trkpt><trkpt lat="44.957712759757364" lon="11.761930626415184"><ele>5.6</ele><time>2026-04-18T11:35:38Z</time></trkpt><trkpt lat="44.9577165653273" lon="11.761782230553491"><ele>6.2</ele><time>2026-04-18T11:35:40Z</time></trkpt><trkpt lat="44.95771979542642" lon="11.761631422658953"><ele>6.800000000000001</ele><time>2026-04-18T11:35:42Z</time></trkpt><trkpt lat="44.957721407388014" lon="11.761482120569529"><ele>7.4</ele><time>2026-04-18T11:35:44Z</time></trkpt><trkpt lat="44.9577204599121" lon="11.76133246933602"><ele>8.0</ele><time>2026-04-18T11:35:46Z</time></trkpt><trkpt lat="44.957714270160345" lon="11.761186164000318"><ele>8.0</ele><time>2026-04-18T11:35:48Z</time></trkpt><trkpt lat="44.95770750541034" lon="11.761038019772695"><ele>8.0</ele><time>2026-04-18T11:35:50Z</time></trkpt><trkpt lat="44.95768396042271" lon="11.760819131561634"><ele>8.0</ele><time>2026-04-18T11:35:53Z</time></trkpt><trkpt lat="44.95767797313545" lon="11.760670260810821"><ele>8.0</ele><time>2026-04-18T11:35:55Z</time></trkpt><trkpt lat="44.95766750789252" lon="11.76052078982128"><ele>7.4</ele><time>2026-04-18T11:35:57Z</time></trkpt><trkpt lat="44.957653560298034" lon="11.760370599777143"><ele>6.800000000000001</ele><time>2026-04-18T11:35:59Z</time></trkpt><trkpt lat="44.95764616723" lon="11.760221803710804"><ele>6.2</ele><time>2026-04-18T11:36:01Z</time></trkpt><trkpt lat="44.957637338485405" lon="11.760073754766356"><ele>5.6</ele><time>2026-04-18T11:36:03Z</time></trkpt><trkpt lat="44.95762261849987" lon="11.75992484797469"><ele>5.0</ele><time>2026-04-18T11:36:05Z</time></trkpt><trkpt lat="44.957616350884706" lon="11.759772510480586"><ele>4.8</ele><time>2026-04-18T11:36:07Z</time></trkpt><trkpt lat="44.95760448570238" lon="11.759595093489247"><ele>4.6</ele><time>2026-04-18T11:36:09Z</time></trkpt><trkpt lat="44.95759477943752" lon="11.759500479714024"><ele>4.4</ele><time>2026-04-18T11:36:10Z</time></trkpt><trkpt lat="44.95758915637765" lon="11.759402190573129"><ele>4.2</ele><time>2026-04-18T11:36:11Z</time></trkpt><trkpt lat="44.95758275783156" lon="11.759308680981361"><ele>4.0</ele><time>2026-04-18T11:36:12Z</time></trkpt><trkpt lat="44.95755420055811" lon="11.7591355634115"><ele>5.0</ele><time>2026-04-18T11:36:14Z</time></trkpt><trkpt lat="44.95752606851451" lon="11.758969741256188"><ele>6.0</ele><time>2026-04-18T11:36:16Z</time></trkpt><trkpt lat="44.95750818333787" lon="11.758877313406119"><ele>7.0</ele><time>2026-04-18T11:36:17Z</time></trkpt><trkpt lat="44.957497208713356" lon="11.758738198396813"><ele>8.0</ele><time>2026-04-18T11:36:19Z</time></trkpt><trkpt lat="44.95746611998815" lon="11.75859805624897"><ele>9.0</ele><time>2026-04-18T11:36:21Z</time></trkpt><trkpt lat="44.95743607134391" lon="11.75846635785794"><ele>9.2</ele><time>2026-04-18T11:36:23Z</time></trkpt><trkpt lat="44.95741545459106" lon="11.758326596159819"><ele>9.4</ele><time>2026-04-18T11:36:25Z</time></trkpt><trkpt lat="44.95738356593269" lon="11.758188743949882"><ele>9.6</ele><time>2026-04-18T11:36:27Z</time></trkpt><trkpt lat="44.95735643527563" lon="11.758042782960034"><ele>9.8</ele><time>2026-04-18T11:36:29Z</time></trkpt><trkpt lat="44.957324524016144" lon="11.757903530763686"><ele>10.0</ele><time>2026-04-18T11:36:31Z</time></trkpt><trkpt lat="44.95729194344459" lon="11.757760775945442"><ele>9.8</ele><time>2026-04-18T11:36:33Z</time></trkpt><trkpt lat="44.95726145138535" lon="11.757626468506928"><ele>9.6</ele><time>2026-04-18T11:36:35Z</time></trkpt><trkpt lat="44.9572379261326" lon="11.75749571763117"><ele>9.4</ele><time>2026-04-18T11:36:37Z</time></trkpt><trkpt lat="44.957216319153574" lon="11.757374454610364"><ele>9.2</ele><time>2026-04-18T11:36:39Z</time></trkpt><trkpt lat="44.957188221112375" lon="11.757260929604994"><ele>9.0</ele><time>2026-04-18T11:36:41Z</time></trkpt><trkpt lat="44.95716396009834" lon="11.757142794182869"><ele>9.0</ele><time>2026-04-18T11:36:43Z</time></trkpt><trkpt lat="44.95713565001123" lon="11.75703982891429"><ele>9.0</ele><time>2026-04-18T11:36:45Z</time></trkpt><trkpt lat="44.95709690650369" lon="11.756928762235782"><ele>9.0</ele><time>2026-04-18T11:36:47Z</time></trkpt><trkpt lat="44.957035864126894" lon="11.756818596147731"><ele>9.0</ele><time>2026-04-18T11:36:49Z</time></trkpt><trkpt lat="44.956965515464596" lon="11.756694709163439"><ele>9.0</ele><time>2026-04-18T11:36:51Z</time></trkpt><trkpt lat="44.95691968397631" lon="11.75662066903024"><ele>9.0</ele><time>2026-04-18T11:36:52Z</time></trkpt><trkpt lat="44.9568739139166" lon="11.756540391390006"><ele>9.0</ele><time>2026-04-18T11:36:53Z</time></trkpt><trkpt lat="44.95683597641157" lon="11.756452426305831"><ele>9.0</ele><time>2026-04-18T11:36:54Z</time></trkpt><trkpt lat="44.956801738788215" lon="11.756362182410125"><ele>9.0</ele><time>2026-04-18T11:36:55Z</time></trkpt><trkpt lat="44.956770136365904" lon="11.756268856026697"><ele>9.0</ele><time>2026-04-18T11:36:56Z</time></trkpt><trkpt lat="44.956749720610084" lon="11.756167056246554"><ele>9.0</ele><time>2026-04-18T11:36:57Z</time></trkpt><trkpt lat="44.95675855793592" lon="11.756077273059102"><ele>9.0</ele><time>2026-04-18T11:36:58Z</time></trkpt><trkpt lat="44.95673978500187" lon="11.75593376538779"><ele>9.0</ele><time>2026-04-18T11:37:00Z</time></trkpt><trkpt lat="44.9566405302252" lon="11.755889112169319"><ele>9.0</ele><time>2026-04-18T11:37:03Z</time></trkpt><trkpt lat="44.9565325897458" lon="11.755923957941157"><ele>9.0</ele><time>2026-04-18T11:37:05Z</time></trkpt><trkpt lat="44.956415339903465" lon="11.755927503844982"><ele>9.0</ele><time>2026-04-18T11:37:07Z</time></trkpt><trkpt lat="44.956302570710214" lon="11.755955628160116"><ele>9.0</ele><time>2026-04-18T11:37:09Z</time></trkpt><trkpt lat="44.956181675795264" lon="11.755982292240995"><ele>9.000000000000002</ele><time>2026-04-18T11:37:11Z</time></trkpt><trkpt lat="44.95611825546364" lon="11.755996279971443"><ele>9.0</ele><time>2026-04-18T11:37:12Z</time></trkpt><trkpt lat="44.956053878146164" lon="11.756010478769337"><ele>9.0</ele><time>2026-04-18T11:37:13Z</time></trkpt><trkpt lat="44.95598807057744" lon="11.756026757418242"><ele>9.0</ele><time>2026-04-18T11:37:14Z</time></trkpt><trkpt lat="44.95592053595303" lon="11.756043655716004"><ele>9.0</ele><time>2026-04-18T11:37:15Z</time></trkpt><trkpt lat="44.955853792655894" lon="11.756081164480191"><ele>9.000000000000002</ele><time>2026-04-18T11:37:16Z</time></trkpt><trkpt lat="44.95578427909077" lon="11.756097096779806"><ele>9.0</ele><time>2026-04-18T11:37:17Z</time></trkpt><trkpt lat="44.95570759091893" lon="11.756096914471676"><ele>8.5</ele><time>2026-04-18T11:37:18Z</time></trkpt><trkpt lat="44.955636396550304" lon="11.756114713054245"><ele>8.0</ele><time>2026-04-18T11:37:19Z</time></trkpt><trkpt lat="44.95556103577628" lon="11.756133460680015"><ele>7.5</ele><time>2026-04-18T11:37:20Z</time></trkpt><trkpt lat="44.95548414179247" lon="11.756151894425466"><ele>7.0</ele><time>2026-04-18T11:37:21Z</time></trkpt><trkpt lat="44.955410068276684" lon="11.756190552113074"><ele>6.5</ele><time>2026-04-18T11:37:22Z</time></trkpt><trkpt lat="44.95532714296902" lon="11.756197410388664"><ele>6.0</ele><time>2026-04-18T11:37:23Z</time></trkpt><trkpt lat="44.95524946538839" lon="11.756215160442778"><ele>5.999999999999999</ele><time>2026-04-18T11:37:24Z</time></trkpt><trkpt lat="44.95517060208991" lon="11.756236385308485"><ele>6.0</ele><time>2026-04-18T11:37:25Z</time></trkpt><trkpt lat="44.95510171800528" lon="11.756267410791178"><ele>6.0</ele><time>2026-04-18T11:37:26Z</time></trkpt><trkpt lat="44.95504310085436" lon="11.756323830687336"><ele>6.0</ele><time>2026-04-18T11:37:27Z</time></trkpt><trkpt lat="44.95499729923007" lon="11.756395472432454"><ele>6.0</ele><time>2026-04-18T11:37:28Z</time></trkpt><trkpt lat="44.95497000285248" lon="11.756475800406463"><ele>5.999999999999999</ele><time>2026-04-18T11:37:29Z</time></trkpt><trkpt lat="44.95494515982968" lon="11.756591155879581"><ele>6.0</ele><time>2026-04-18T11:37:31Z</time></trkpt><trkpt lat="44.95508025960386" lon="11.756663040606234"><ele>6.0</ele><time>2026-04-18T11:37:34Z</time></trkpt><trkpt lat="44.955175800595285" lon="11.756668238823776"><ele>6.0</ele><time>2026-04-18T11:37:36Z</time></trkpt><trkpt lat="44.95527649620806" lon="11.756663123272345"><ele>6.0</ele><time>2026-04-18T11:37:38Z</time></trkpt><trkpt lat="44.955380407411745" lon="11.756643308936725"><ele>6.0</ele><time>2026-04-18T11:37:40Z</time></trkpt><trkpt lat="44.95549194099453" lon="11.756637990258033"><ele>6.0</ele><time>2026-04-18T11:37:42Z</time></trkpt><trkpt lat="44.95559160631667" lon="11.75662065144077"><ele>6.0</ele><time>2026-04-18T11:37:44Z</time></trkpt><trkpt lat="44.955684963583444" lon="11.756614022443967"><ele>6.0</ele><time>2026-04-18T11:37:46Z</time></trkpt><trkpt lat="44.95578724210924" lon="11.756609164796982"><ele>6.0</ele><time>2026-04-18T11:37:48Z</time></trkpt><trkpt lat="44.955882041227255" lon="11.75660064371337"><ele>6.0</ele><time>2026-04-18T11:37:50Z</time></trkpt><trkpt lat="44.955968333913034" lon="11.75659263344862"><ele>6.0</ele><time>2026-04-18T11:37:52Z</time></trkpt><trkpt lat="44.95605015782099" lon="11.756594611986047"><ele>6.6</ele><time>2026-04-18T11:37:54Z</time></trkpt><trkpt lat="44.9561454334835" lon="11.756599092542404"><ele>7.199999999999999</ele><time>2026-04-18T11:37:56Z</time></trkpt><trkpt lat="44.95624911504731" lon="11.756582901068722"><ele>7.800000000000001</ele><time>2026-04-18T11:37:58Z</time></trkpt><trkpt lat="44.9563457352979" lon="11.756583639434677"><ele>8.4</ele><time>2026-04-18T11:38:00Z</time></trkpt><trkpt lat="44.95643599192017" lon="11.756575995054098"><ele>9.0</ele><time>2026-04-18T11:38:02Z</time></trkpt><trkpt lat="44.956499680783416" lon="11.756679245662431"><ele>9.0</ele><time>2026-04-18T11:38:04Z</time></trkpt><trkpt lat="44.956488883497975" lon="11.756809030205623"><ele>9.0</ele><time>2026-04-18T11:38:06Z</time></trkpt><trkpt lat="44.95663553345736" lon="11.756926805222381"><ele>9.0</ele><time>2026-04-18T11:39:18Z</time></trkpt><trkpt lat="44.956579058398795" lon="11.756967655236139"><ele>9.0</ele><time>2026-04-18T12:36:13.001Z</time></trkpt><trkpt lat="44.95653575909682" lon="11.756899727532705"><ele>9.0</ele><time>2026-04-18T12:36:25.001Z</time></trkpt><trkpt lat="44.9564586194581" lon="11.756838406704563"><ele>9.0</ele><time>2026-04-18T12:36:29.001Z</time></trkpt><trkpt lat="44.95640704991275" lon="11.756763143099848"><ele>9.0</ele><time>2026-04-18T12:36:31.001Z</time></trkpt><trkpt lat="44.956336265563536" lon="11.756727735866564"><ele>9.0</ele><time>2026-04-18T12:36:33.001Z</time></trkpt><trkpt lat="44.95629641889374" lon="11.756656107778719"><ele>9.0</ele><time>2026-04-18T12:36:35.001Z</time></trkpt><trkpt lat="44.95622674636286" lon="11.75658957290858"><ele>9.0</ele><time>2026-04-18T12:36:38.001Z</time></trkpt><trkpt lat="44.95614070736333" lon="11.756570320849852"><ele>9.0</ele><time>2026-04-18T12:36:40.001Z</time></trkpt><trkpt lat="44.956048669881085" lon="11.756566832073778"><ele>9.0</ele><time>2026-04-18T12:36:42.001Z</time></trkpt><trkpt lat="44.95595680295198" lon="11.756567632359987"><ele>9.0</ele><time>2026-04-18T12:36:44.001Z</time></trkpt><trkpt lat="44.955860336953656" lon="11.756579573144883"><ele>9.0</ele><time>2026-04-18T12:36:46.001Z</time></trkpt><trkpt lat="44.95576898634734" lon="11.756582672968234"><ele>9.0</ele><time>2026-04-18T12:36:48.001Z</time></trkpt><trkpt lat="44.95567294911036" lon="11.756585499617092"><ele>9.0</ele><time>2026-04-18T12:36:50.001Z</time></trkpt><trkpt lat="44.95558212083671" lon="11.75658600725228"><ele>8.5</ele><time>2026-04-18T12:36:52.001Z</time></trkpt><trkpt lat="44.955489855363545" lon="11.756597211209067"><ele>8.0</ele><time>2026-04-18T12:36:54.001Z</time></trkpt><trkpt lat="44.955404703622165" lon="11.756594571506465"><ele>7.5</ele><time>2026-04-18T12:36:56.001Z</time></trkpt><trkpt lat="44.95531528054864" lon="11.756604870055162"><ele>7.0</ele><time>2026-04-18T12:36:58.001Z</time></trkpt><trkpt lat="44.9552209944506" lon="11.756618742710977"><ele>6.5</ele><time>2026-04-18T12:37:00.001Z</time></trkpt><trkpt lat="44.9551394016214" lon="11.756611747178056"><ele>6.0</ele><time>2026-04-18T12:37:02.001Z</time></trkpt><trkpt lat="44.95505786755641" lon="11.756637377829117"><ele>6.0</ele><time>2026-04-18T12:37:04.001Z</time></trkpt><trkpt lat="44.954989108019646" lon="11.756611304009743"><ele>6.0</ele><time>2026-04-18T12:37:06.001Z</time></trkpt><trkpt lat="44.954981825727664" lon="11.75649713912248"><ele>6.0</ele><time>2026-04-18T12:37:08.001Z</time></trkpt><trkpt lat="44.95504085220035" lon="11.756409385688773"><ele>6.0</ele><time>2026-04-18T12:37:10.001Z</time></trkpt><trkpt lat="44.9551022100308" lon="11.756321148038413"><ele>6.0</ele><time>2026-04-18T12:37:12.001Z</time></trkpt><trkpt lat="44.955176999146815" lon="11.756278744156287"><ele>6.0</ele><time>2026-04-18T12:37:14.001Z</time></trkpt><trkpt lat="44.9552595030359" lon="11.75625717849391"><ele>6.0</ele><time>2026-04-18T12:37:16.001Z</time></trkpt><trkpt lat="44.95534605139961" lon="11.75622789300412"><ele>6.0</ele><time>2026-04-18T12:37:18.001Z</time></trkpt><trkpt lat="44.95543233348579" lon="11.756203147924413"><ele>6.0</ele><time>2026-04-18T12:37:20.001Z</time></trkpt><trkpt lat="44.955518773341346" lon="11.756181407406165"><ele>6.0</ele><time>2026-04-18T12:37:22.001Z</time></trkpt><trkpt lat="44.95559924047018" lon="11.756157827375796"><ele>6.0</ele><time>2026-04-18T12:37:24.001Z</time></trkpt><trkpt lat="44.955686951739715" lon="11.756146980633655"><ele>6.0</ele><time>2026-04-18T12:37:26.001Z</time></trkpt><trkpt lat="44.95577457980769" lon="11.756124820030438"><ele>6.0</ele><time>2026-04-18T12:37:28.001Z</time></trkpt><trkpt lat="44.95586170909139" lon="11.75609435092597"><ele>6.0</ele><time>2026-04-18T12:37:30.001Z</time></trkpt><trkpt lat="44.955946421647596" lon="11.756078127193177"><ele>6.0</ele><time>2026-04-18T12:37:32.001Z</time></trkpt><trkpt lat="44.95603360426922" lon="11.756057314461588"><ele>6.0</ele><time>2026-04-18T12:37:34.001Z</time></trkpt><trkpt lat="44.956121030419204" lon="11.756029798586807"><ele>6.0</ele><time>2026-04-18T12:37:36.001Z</time></trkpt><trkpt lat="44.95620680842675" lon="11.755996384955756"><ele>6.0</ele><time>2026-04-18T12:37:38.001Z</time></trkpt><trkpt lat="44.95629042422072" lon="11.755964818538365"><ele>6.333333333333333</ele><time>2026-04-18T12:37:40.001Z</time></trkpt><trkpt lat="44.95637809790238" lon="11.755954865571097"><ele>6.666666666666666</ele><time>2026-04-18T12:37:42.001Z</time></trkpt><trkpt lat="44.95646516984682" lon="11.755934415666518"><ele>7.0</ele><time>2026-04-18T12:37:44.001Z</time></trkpt><trkpt lat="44.956546805871426" lon="11.755895919116917"><ele>7.333333333333333</ele><time>2026-04-18T12:37:46.001Z</time></trkpt><trkpt lat="44.956622862984034" lon="11.75585703229657"><ele>7.666666666666666</ele><time>2026-04-18T12:37:48.001Z</time></trkpt><trkpt lat="44.95669211220908" lon="11.755818666092804"><ele>8.0</ele><time>2026-04-18T12:37:50.001Z</time></trkpt><trkpt lat="44.95675736925092" lon="11.75582349777422"><ele>7.999999999999999</ele><time>2026-04-18T12:37:52.001Z</time></trkpt><trkpt lat="44.95682398986936" lon="11.755797937449778"><ele>8.0</ele><time>2026-04-18T12:37:57.001Z</time></trkpt><trkpt lat="44.956918565947916" lon="11.755788350247462"><ele>8.0</ele><time>2026-04-18T12:38:02.001Z</time></trkpt><trkpt lat="44.95699685767942" lon="11.755814258355525"><ele>8.0</ele><time>2026-04-18T12:38:04.001Z</time></trkpt><trkpt lat="44.957096454332735" lon="11.755773349519636"><ele>7.999999999999999</ele><time>2026-04-18T12:38:06.001Z</time></trkpt><trkpt lat="44.95716752561619" lon="11.755743374113257"><ele>8.0</ele><time>2026-04-18T12:38:08.001Z</time></trkpt><trkpt lat="44.95727052815336" lon="11.75574218747439"><ele>7.999999999999999</ele><time>2026-04-18T12:38:10.001Z</time></trkpt><trkpt lat="44.95735048327777" lon="11.755746341445981"><ele>8.0</ele><time>2026-04-18T12:38:12.001Z</time></trkpt><trkpt lat="44.957423419917234" lon="11.755716065667144"><ele>8.0</ele><time>2026-04-18T12:38:14.001Z</time></trkpt><trkpt lat="44.9575066367831" lon="11.755701730489353"><ele>8.0</ele><time>2026-04-18T12:38:16.001Z</time></trkpt><trkpt lat="44.95759245364805" lon="11.755681265517872"><ele>7.999999999999999</ele><time>2026-04-18T12:38:19.001Z</time></trkpt><trkpt lat="44.957655252278144" lon="11.755672488348612"><ele>8.0</ele><time>2026-04-18T12:38:21.001Z</time></trkpt><trkpt lat="44.95772176312163" lon="11.755666809799125"><ele>7.142857142857142</ele><time>2026-04-18T12:38:23.001Z</time></trkpt><trkpt lat="44.95779913316365" lon="11.755662733762431"><ele>6.285714285714285</ele><time>2026-04-18T12:38:26.001Z</time></trkpt><trkpt lat="44.95786551365769" lon="11.75562711529221"><ele>5.428571428571428</ele><time>2026-04-18T12:38:29.001Z</time></trkpt><trkpt lat="44.957918451954946" lon="11.755691873572262"><ele>4.571428571428571</ele><time>2026-04-18T12:38:33.001Z</time></trkpt><trkpt lat="44.95791904301825" lon="11.755793026647673"><ele>3.714285714285714</ele><time>2026-04-18T12:38:38.001Z</time></trkpt><trkpt lat="44.9578713273773" lon="11.755731543237895"><ele>2.8571428571428568</ele><time>2026-04-18T12:38:48.001Z</time></trkpt><trkpt lat="44.957881218260354" lon="11.755635035638123"><ele>2.0</ele><time>2026-04-18T12:38:51.001Z</time></trkpt><trkpt lat="44.957810814070555" lon="11.755677803472981"><ele>1.9999999999999998</ele><time>2026-04-18T12:44:06Z</time></trkpt><trkpt lat="44.95773083643953" lon="11.755692734249216"><ele>2.0</ele><time>2026-04-18T12:44:09Z</time></trkpt><trkpt lat="44.9576391478328" lon="11.755707374073095"><ele>2.0</ele><time>2026-04-18T12:44:11Z</time></trkpt><trkpt lat="44.95755266739416" lon="11.755719641890487"><ele>2.0</ele><time>2026-04-18T12:44:13Z</time></trkpt><trkpt lat="44.9574715132038" lon="11.755723978822937"><ele>1.9999999999999998</ele><time>2026-04-18T12:44:15Z</time></trkpt><trkpt lat="44.957402090285136" lon="11.75573229744053"><ele>2.0</ele><time>2026-04-18T12:44:17Z</time></trkpt><trkpt lat="44.957326346507415" lon="11.755759334009943"><ele>2.8571428571428568</ele><time>2026-04-18T12:44:19Z</time></trkpt><trkpt lat="44.95724128063775" lon="11.75577402526534"><ele>3.714285714285714</ele><time>2026-04-18T12:44:21Z</time></trkpt><trkpt lat="44.95717517556841" lon="11.755780196980519"><ele>4.571428571428571</ele><time>2026-04-18T12:44:23Z</time></trkpt><trkpt lat="44.957108735220984" lon="11.755814663144525"><ele>5.428571428571428</ele><time>2026-04-18T12:44:25Z</time></trkpt><trkpt lat="44.957038743688976" lon="11.755810290962728"><ele>6.285714285714285</ele><time>2026-04-18T12:44:27Z</time></trkpt><trkpt lat="44.95696397663046" lon="11.755813483405193"><ele>7.142857142857142</ele><time>2026-04-18T12:44:29Z</time></trkpt><trkpt lat="44.956884158216" lon="11.755806973426123"><ele>8.0</ele><time>2026-04-18T12:44:32Z</time></trkpt><trkpt lat="44.956824160878874" lon="11.75584016449903"><ele>8.0</ele><time>2026-04-18T12:44:36Z</time></trkpt><trkpt lat="44.95674567238793" lon="11.755853998361188"><ele>8.0</ele><time>2026-04-18T12:44:46Z</time></trkpt><trkpt lat="44.95663947597885" lon="11.755887490529748"><ele>8.0</ele><time>2026-04-18T12:44:48Z</time></trkpt><trkpt lat="44.956537097530486" lon="11.755924198471659"><ele>8.0</ele><time>2026-04-18T12:44:50Z</time></trkpt><trkpt lat="44.95642834610194" lon="11.755946769706373"><ele>8.0</ele><time>2026-04-18T12:44:52Z</time></trkpt><trkpt lat="44.9563093716424" lon="11.755960845095673"><ele>8.142857142857142</ele><time>2026-04-18T12:44:54Z</time></trkpt><trkpt lat="44.95624412697003" lon="11.75598411490784"><ele>8.285714285714285</ele><time>2026-04-18T12:44:55Z</time></trkpt><trkpt lat="44.95617959338385" lon="11.755982751538943"><ele>8.428571428571429</ele><time>2026-04-18T12:44:56Z</time></trkpt><trkpt lat="44.956114647731894" lon="11.755997075683961"><ele>8.571428571428571</ele><time>2026-04-18T12:44:57Z</time></trkpt><trkpt lat="44.9560486280423" lon="11.756011604903438"><ele>8.714285714285715</ele><time>2026-04-18T12:44:58Z</time></trkpt><trkpt lat="44.95598168341435" lon="11.756035384300567"><ele>8.857142857142858</ele><time>2026-04-18T12:44:59Z</time></trkpt><trkpt lat="44.95591427674821" lon="11.7560558311779"><ele>9.0</ele><time>2026-04-18T12:45:00Z</time></trkpt><trkpt lat="44.95584264785059" lon="11.756077187917656"><ele>8.5</ele><time>2026-04-18T12:45:01Z</time></trkpt><trkpt lat="44.95576915336613" lon="11.756097739129313"><ele>8.0</ele><time>2026-04-18T12:45:02Z</time></trkpt><trkpt lat="44.95569630697559" lon="11.756114641197193"><ele>7.5</ele><time>2026-04-18T12:45:03Z</time></trkpt><trkpt lat="44.95562066180075" lon="11.756131179115647"><ele>7.0</ele><time>2026-04-18T12:45:04Z</time></trkpt><trkpt lat="44.95554117609301" lon="11.756150441378866"><ele>6.5</ele><time>2026-04-18T12:45:05Z</time></trkpt><trkpt lat="44.955462041384074" lon="11.756168599513547"><ele>6.0</ele><time>2026-04-18T12:45:06Z</time></trkpt><trkpt lat="44.95538061482754" lon="11.756186372030527"><ele>5.999999999999999</ele><time>2026-04-18T12:45:07Z</time></trkpt><trkpt lat="44.95530072755046" lon="11.756203958874378"><ele>6.0</ele><time>2026-04-18T12:45:08Z</time></trkpt><trkpt lat="44.95522918991922" lon="11.756209594972443"><ele>6.0</ele><time>2026-04-18T12:45:09Z</time></trkpt><trkpt lat="44.95515649274522" lon="11.756232988879628"><ele>6.0</ele><time>2026-04-18T12:45:10Z</time></trkpt><trkpt lat="44.95509736430735" lon="11.75626673189984"><ele>6.0</ele><time>2026-04-18T12:45:11Z</time></trkpt><trkpt lat="44.95504633586052" lon="11.756339940205137"><ele>5.999999999999999</ele><time>2026-04-18T12:45:12Z</time></trkpt><trkpt lat="44.95501142302543" lon="11.75642997631836"><ele>6.0</ele><time>2026-04-18T12:45:13Z</time></trkpt><trkpt lat="44.95498143562897" lon="11.756521395503352"><ele>5.5</ele><time>2026-04-18T12:45:14Z</time></trkpt><trkpt lat="44.954932794408656" lon="11.75660267372308"><ele>5.0</ele><time>2026-04-18T12:45:15Z</time></trkpt><trkpt lat="44.95489270899133" lon="11.756673494119415"><ele>4.5</ele><time>2026-04-18T12:45:16Z</time></trkpt><trkpt lat="44.954847413917946" lon="11.756741640406155"><ele>4.0</ele><time>2026-04-18T12:45:17Z</time></trkpt><trkpt lat="44.9547988544908" lon="11.756803671120364"><ele>3.5</ele><time>2026-04-18T12:45:18Z</time></trkpt><trkpt lat="44.95474184575929" lon="11.756844746442095"><ele>3.0</ele><time>2026-04-18T12:45:19Z</time></trkpt><trkpt lat="44.954620574400025" lon="11.756855654340642"><ele>3.0</ele><time>2026-04-18T12:45:21Z</time></trkpt><trkpt lat="44.954510959138034" lon="11.756858778345002"><ele>3.0</ele><time>2026-04-18T12:45:23Z</time></trkpt><trkpt lat="44.95440845538942" lon="11.7568733485293"><ele>3.0</ele><time>2026-04-18T12:45:25Z</time></trkpt><trkpt lat="44.95430544989413" lon="11.756877391163139"><ele>3.0</ele><time>2026-04-18T12:45:27Z</time></trkpt><trkpt lat="44.95420936319127" lon="11.756917476916326"><ele>3.0</ele><time>2026-04-18T12:45:29Z</time></trkpt><trkpt lat="44.9541220234211" lon="11.75695974631287"><ele>3.0</ele><time>2026-04-18T12:45:31Z</time></trkpt><trkpt lat="44.954041872382724" lon="11.757010590041594"><ele>3.0</ele><time>2026-04-18T12:45:33Z</time></trkpt><trkpt lat="44.95397631225824" lon="11.75709742421755"><ele>3.0</ele><time>2026-04-18T12:45:35Z</time></trkpt><trkpt lat="44.9539123191818" lon="11.757192599212425"><ele>3.0</ele><time>2026-04-18T12:45:37Z</time></trkpt><trkpt lat="44.953848756107305" lon="11.757282135340411"><ele>3.0</ele><time>2026-04-18T12:45:39Z</time></trkpt><trkpt lat="44.953792284946715" lon="11.75737606835832"><ele>3.0</ele><time>2026-04-18T12:45:41Z</time></trkpt><trkpt lat="44.95372965671178" lon="11.75747770329963"><ele>3.0</ele><time>2026-04-18T12:45:43Z</time></trkpt><trkpt lat="44.953665710182335" lon="11.757566700905139"><ele>3.0</ele><time>2026-04-18T12:45:45Z</time></trkpt><trkpt lat="44.953608635090376" lon="11.757662828779498"><ele>3.0</ele><time>2026-04-18T12:45:47Z</time></trkpt><trkpt lat="44.95355168064193" lon="11.757756226226988"><ele>3.0</ele><time>2026-04-18T12:45:49Z</time></trkpt><trkpt lat="44.953490161168006" lon="11.757851977775694"><ele>3.0</ele><time>2026-04-18T12:45:51Z</time></trkpt><trkpt lat="44.95343240794261" lon="11.757947472378817"><ele>3.0</ele><time>2026-04-18T12:45:53Z</time></trkpt><trkpt lat="44.953373644570426" lon="11.758041747391541"><ele>3.0</ele><time>2026-04-18T12:45:55Z</time></trkpt><trkpt lat="44.95331071999282" lon="11.75813583110571"><ele>3.0</ele><time>2026-04-18T12:45:57Z</time></trkpt><trkpt lat="44.95325203936562" lon="11.75823217737115"><ele>3.0</ele><time>2026-04-18T12:45:59Z</time></trkpt><trkpt lat="44.95319283786307" lon="11.758323032828153"><ele>3.0</ele><time>2026-04-18T12:46:01Z</time></trkpt><trkpt lat="44.95313872905792" lon="11.758424606875325"><ele>3.0</ele><time>2026-04-18T12:46:03Z</time></trkpt><trkpt lat="44.95307594670319" lon="11.75851354874768"><ele>3.0</ele><time>2026-04-18T12:46:05Z</time></trkpt><trkpt lat="44.95301089544311" lon="11.758610001708455"><ele>3.0</ele><time>2026-04-18T12:46:07Z</time></trkpt><trkpt lat="44.95294927218271" lon="11.758701736668312"><ele>3.0</ele><time>2026-04-18T12:46:09Z</time></trkpt><trkpt lat="44.95289024787844" lon="11.758803646377691"><ele>3.0</ele><time>2026-04-18T12:46:11Z</time></trkpt><trkpt lat="44.95282352141487" lon="11.75889462971919"><ele>3.0</ele><time>2026-04-18T12:46:13Z</time></trkpt><trkpt lat="44.9527607171616" lon="11.758978702993996"><ele>3.0</ele><time>2026-04-18T12:46:15Z</time></trkpt><trkpt lat="44.952695753128694" lon="11.759058740811431"><ele>3.0</ele><time>2026-04-18T12:46:17Z</time></trkpt><trkpt lat="44.9526350827677" lon="11.759130915204533"><ele>2.9999999999999996</ele><time>2026-04-18T12:46:19Z</time></trkpt><trkpt lat="44.9525751426155" lon="11.759187257156125"><ele>3.0</ele><time>2026-04-18T12:46:21Z</time></trkpt><trkpt lat="44.95250055387419" lon="11.759245279451992"><ele>3.0</ele><time>2026-04-18T12:46:24Z</time></trkpt><trkpt lat="44.95244038261353" lon="11.759275516234116"><ele>3.0</ele><time>2026-04-18T12:46:26Z</time></trkpt><trkpt lat="44.95238136450769" lon="11.75931608212234"><ele>3.0</ele><time>2026-04-18T12:46:28Z</time></trkpt><trkpt lat="44.95232847800533" lon="11.759370298801976"><ele>2.9999999999999996</ele><time>2026-04-18T12:46:30Z</time></trkpt><trkpt lat="44.952254557642576" lon="11.759438206906541"><ele>3.0</ele><time>2026-04-18T12:46:33Z</time></trkpt><trkpt lat="44.95217767774734" lon="11.759498548216332"><ele>3.1666666666666665</ele><time>2026-04-18T12:46:36Z</time></trkpt><trkpt lat="44.952091788825655" lon="11.75956985747272"><ele>3.333333333333333</ele><time>2026-04-18T12:46:39Z</time></trkpt><trkpt lat="44.95201557240845" lon="11.75963269850854"><ele>3.5</ele><time>2026-04-18T12:46:41Z</time></trkpt><trkpt lat="44.951953876440456" lon="11.759698254181371"><ele>3.6666666666666665</ele><time>2026-04-18T12:46:43Z</time></trkpt><trkpt lat="44.95188264139501" lon="11.759762873891773"><ele>3.833333333333333</ele><time>2026-04-18T12:46:45Z</time></trkpt><trkpt lat="44.95180422675911" lon="11.759816876972808"><ele>4.0</ele><time>2026-04-18T12:46:47Z</time></trkpt><trkpt lat="44.95172994073721" lon="11.759887816652467"><ele>3.8000000000000003</ele><time>2026-04-18T12:46:49Z</time></trkpt><trkpt lat="44.951652545466715" lon="11.759953331316927"><ele>3.6000000000000005</ele><time>2026-04-18T12:46:51Z</time></trkpt><trkpt lat="44.95157914201786" lon="11.760030585906424"><ele>3.4</ele><time>2026-04-18T12:46:53Z</time></trkpt><trkpt lat="44.95150663653457" lon="11.760106170585109"><ele>3.2</ele><time>2026-04-18T12:46:55Z</time></trkpt><trkpt lat="44.95143820416816" lon="11.760190281301622"><ele>3.0</ele><time>2026-04-18T12:46:57Z</time></trkpt><trkpt lat="44.9513709965594" lon="11.760273275042211"><ele>3.0</ele><time>2026-04-18T12:46:59Z</time></trkpt><trkpt lat="44.95130328678079" lon="11.760356179789351"><ele>3.0</ele><time>2026-04-18T12:47:01Z</time></trkpt><trkpt lat="44.9512381175598" lon="11.760446575908396"><ele>3.0</ele><time>2026-04-18T12:47:03Z</time></trkpt><trkpt lat="44.951172853090114" lon="11.760529692969147"><ele>3.0</ele><time>2026-04-18T12:47:05Z</time></trkpt><trkpt lat="44.951112950130444" lon="11.760614979929741"><ele>3.0</ele><time>2026-04-18T12:47:07Z</time></trkpt><trkpt lat="44.951056541607066" lon="11.760687790447939"><ele>3.0</ele><time>2026-04-18T12:47:09Z</time></trkpt><trkpt lat="44.95099645638121" lon="11.760765711333633"><ele>3.0</ele><time>2026-04-18T12:47:11Z</time></trkpt><trkpt lat="44.950930473502034" lon="11.760851167706688"><ele>3.0</ele><time>2026-04-18T12:47:13Z</time></trkpt><trkpt lat="44.950862008509745" lon="11.760934228398396"><ele>3.0</ele><time>2026-04-18T12:47:15Z</time></trkpt><trkpt lat="44.95079079735451" lon="11.761021144324534"><ele>3.0</ele><time>2026-04-18T12:47:17Z</time></trkpt><trkpt lat="44.95071619313374" lon="11.761100227458552"><ele>3.0</ele><time>2026-04-18T12:47:19Z</time></trkpt><trkpt lat="44.95063878515997" lon="11.761172586241942"><ele>3.2</ele><time>2026-04-18T12:47:21Z</time></trkpt><trkpt lat="44.950555085609324" lon="11.761223290836735"><ele>3.4</ele><time>2026-04-18T12:47:23Z</time></trkpt><trkpt lat="44.95046586502072" lon="11.761250294255182"><ele>3.6000000000000005</ele><time>2026-04-18T12:47:25Z</time></trkpt><trkpt lat="44.950378087985165" lon="11.761247133732322"><ele>3.8000000000000003</ele><time>2026-04-18T12:47:27Z</time></trkpt><trkpt lat="44.95029154043399" lon="11.761242950793239"><ele>4.0</ele><time>2026-04-18T12:47:29Z</time></trkpt><trkpt lat="44.95019747390827" lon="11.761230433193544"><ele>4.0</ele><time>2026-04-18T12:47:31Z</time></trkpt><trkpt lat="44.95010923721344" lon="11.761210490030725"><ele>4.0</ele><time>2026-04-18T12:47:33Z</time></trkpt><trkpt lat="44.95002584731398" lon="11.761167989893565"><ele>4.0</ele><time>2026-04-18T12:47:35Z</time></trkpt><trkpt lat="44.94995830082355" lon="11.76107323014716"><ele>4.0</ele><time>2026-04-18T12:47:37Z</time></trkpt><trkpt lat="44.94990618351429" lon="11.760964802038213"><ele>4.0</ele><time>2026-04-18T12:47:39Z</time></trkpt><trkpt lat="44.949848126696196" lon="11.760867499949399"><ele>4.0</ele><time>2026-04-18T12:47:41Z</time></trkpt><trkpt lat="44.94978837120233" lon="11.760773858232293"><ele>4.0</ele><time>2026-04-18T12:47:43Z</time></trkpt><trkpt lat="44.9497159361164" lon="11.760694248479917"><ele>4.0</ele><time>2026-04-18T12:47:45Z</time></trkpt><trkpt lat="44.949639246395435" lon="11.760622668169898"><ele>4.0</ele><time>2026-04-18T12:47:47Z</time></trkpt><trkpt lat="44.94955273229303" lon="11.760578598714718"><ele>4.0</ele><time>2026-04-18T12:47:49Z</time></trkpt><trkpt lat="44.949460905806035" lon="11.760551065851791"><ele>4.0</ele><time>2026-04-18T12:47:51Z</time></trkpt><trkpt lat="44.94936742580377" lon="11.760545549005586"><ele>4.0</ele><time>2026-04-18T12:47:53Z</time></trkpt><trkpt lat="44.94927260875702" lon="11.760542409308648"><ele>4.0</ele><time>2026-04-18T12:47:55Z</time></trkpt><trkpt lat="44.94918240747819" lon="11.760556179939448"><ele>4.0</ele><time>2026-04-18T12:47:57Z</time></trkpt><trkpt lat="44.94909298860937" lon="11.760574573956761"><ele>4.0</ele><time>2026-04-18T12:47:59Z</time></trkpt><trkpt lat="44.94900105579211" lon="11.760595964174781"><ele>3.9999999999999996</ele><time>2026-04-18T12:48:01Z</time></trkpt><trkpt lat="44.94891019089765" lon="11.760613355315177"><ele>4.0</ele><time>2026-04-18T12:48:03Z</time></trkpt><trkpt lat="44.94881980003832" lon="11.760618268341691"><ele>4.0</ele><time>2026-04-18T12:48:05Z</time></trkpt><trkpt lat="44.948728938179066" lon="11.760626144287386"><ele>4.0</ele><time>2026-04-18T12:48:07Z</time></trkpt><trkpt lat="44.94863971916386" lon="11.760620588215316"><ele>3.9999999999999996</ele><time>2026-04-18T12:48:09Z</time></trkpt><trkpt lat="44.94855401501669" lon="11.760618195456544"><ele>4.0</ele><time>2026-04-18T12:48:11Z</time></trkpt><trkpt lat="44.94846206576916" lon="11.76060827067407"><ele>4.0</ele><time>2026-04-18T12:48:13Z</time></trkpt><trkpt lat="44.94837460870539" lon="11.76058908953812"><ele>4.0</ele><time>2026-04-18T12:48:15Z</time></trkpt><trkpt lat="44.948280039223626" lon="11.760582521117252"><ele>4.0</ele><time>2026-04-18T12:48:17Z</time></trkpt><trkpt lat="44.9481901623199" lon="11.760579805809568"><ele>4.0</ele><time>2026-04-18T12:48:19Z</time></trkpt><trkpt lat="44.94810045188105" lon="11.760583764031665"><ele>4.0</ele><time>2026-04-18T12:48:21Z</time></trkpt><trkpt lat="44.94801229961579" lon="11.760600402074317"><ele>3.9999999999999996</ele><time>2026-04-18T12:48:23Z</time></trkpt><trkpt lat="44.94792439818464" lon="11.760626568634779"><ele>4.0</ele><time>2026-04-18T12:48:25Z</time></trkpt><trkpt lat="44.94783917631719" lon="11.76066582352253"><ele>4.0</ele><time>2026-04-18T12:48:27Z</time></trkpt><trkpt lat="44.947755815743236" lon="11.760700714063356"><ele>4.0</ele><time>2026-04-18T12:48:29Z</time></trkpt><trkpt lat="44.947679313461585" lon="11.760724176849742"><ele>3.9999999999999996</ele><time>2026-04-18T12:48:31Z</time></trkpt><trkpt lat="44.94760979841574" lon="11.760765453361522"><ele>4.0</ele><time>2026-04-18T12:48:33Z</time></trkpt><trkpt lat="44.94753043492051" lon="11.760802121190668"><ele>3.9999999999999996</ele><time>2026-04-18T12:48:35Z</time></trkpt><trkpt lat="44.947451676222855" lon="11.760832919274302"><ele>4.0</ele><time>2026-04-18T12:48:37Z</time></trkpt><trkpt lat="44.94737683867143" lon="11.760852583496836"><ele>4.0</ele><time>2026-04-18T12:48:39Z</time></trkpt><trkpt lat="44.94731152950634" lon="11.76085696078146"><ele>4.0</ele><time>2026-04-18T12:48:41Z</time></trkpt><trkpt lat="44.947228629180884" lon="11.760878585838414"><ele>3.9999999999999996</ele><time>2026-04-18T12:48:44Z</time></trkpt><trkpt lat="44.94714354792909" lon="11.760871383678333"><ele>4.0</ele><time>2026-04-18T12:48:47Z</time></trkpt><trkpt lat="44.94707829118999" lon="11.76090531297087"><ele>3.9999999999999996</ele><time>2026-04-18T12:48:49Z</time></trkpt><trkpt lat="44.94703577571959" lon="11.760985001390633"><ele>4.0</ele><time>2026-04-18T12:48:51Z</time></trkpt><trkpt lat="44.94702025122135" lon="11.761075221503422"><ele>4.0</ele><time>2026-04-18T12:48:53Z</time></trkpt><trkpt lat="44.946984745081735" lon="11.761171258918562"><ele>4.0</ele><time>2026-04-18T12:48:55Z</time></trkpt><trkpt lat="44.94694103815357" lon="11.761269164726874"><ele>3.9999999999999996</ele><time>2026-04-18T12:48:57Z</time></trkpt><trkpt lat="44.94690807429632" lon="11.761363189608092"><ele>4.0</ele><time>2026-04-18T12:48:59Z</time></trkpt><trkpt lat="44.94685417573084" lon="11.761447414801108"><ele>3.9999999999999996</ele><time>2026-04-18T12:49:01Z</time></trkpt><trkpt lat="44.94679008400083" lon="11.761528227672763"><ele>4.0</ele><time>2026-04-18T12:49:03Z</time></trkpt><trkpt lat="44.94671633220485" lon="11.761599724188915"><ele>4.0</ele><time>2026-04-18T12:49:05Z</time></trkpt><trkpt lat="44.946650695376874" lon="11.761690494422973"><ele>4.0</ele><time>2026-04-18T12:49:07Z</time></trkpt><trkpt lat="44.94658583070694" lon="11.761777373870215"><ele>3.9999999999999996</ele><time>2026-04-18T12:49:09Z</time></trkpt><trkpt lat="44.94653359338106" lon="11.76187398975934"><ele>4.0</ele><time>2026-04-18T12:49:11Z</time></trkpt><trkpt lat="44.946487868970166" lon="11.761972346710298"><ele>3.833333333333333</ele><time>2026-04-18T12:49:13Z</time></trkpt><trkpt lat="44.94646356088387" lon="11.762081519098185"><ele>3.6666666666666665</ele><time>2026-04-18T12:49:15Z</time></trkpt><trkpt lat="44.946440448286964" lon="11.76218947269566"><ele>3.5</ele><time>2026-04-18T12:49:17Z</time></trkpt><trkpt lat="44.94641712251096" lon="11.762314800538869"><ele>3.333333333333333</ele><time>2026-04-18T12:49:19Z</time></trkpt><trkpt lat="44.94640266955391" lon="11.76244112931217"><ele>3.1666666666666665</ele><time>2026-04-18T12:49:21Z</time></trkpt><trkpt lat="44.94638958133822" lon="11.76256744076802"><ele>3.0</ele><time>2026-04-18T12:49:23Z</time></trkpt><trkpt lat="44.94637465101573" lon="11.762694728230024"><ele>3.1666666666666665</ele><time>2026-04-18T12:49:25Z</time></trkpt><trkpt lat="44.946361934566006" lon="11.762815908918407"><ele>3.333333333333333</ele><time>2026-04-18T12:49:27Z</time></trkpt><trkpt lat="44.94633896414166" lon="11.762933909865684"><ele>3.5</ele><time>2026-04-18T12:49:29Z</time></trkpt><trkpt lat="44.946332596245995" lon="11.763062483401086"><ele>3.6666666666666665</ele><time>2026-04-18T12:49:31Z</time></trkpt><trkpt lat="44.94631802302686" lon="11.76318347562634"><ele>3.833333333333333</ele><time>2026-04-18T12:49:33Z</time></trkpt><trkpt lat="44.94630679818043" lon="11.76329667960481"><ele>4.0</ele><time>2026-04-18T12:49:35Z</time></trkpt><trkpt lat="44.94629598601801" lon="11.763406960769004"><ele>3.9999999999999996</ele><time>2026-04-18T12:49:37Z</time></trkpt><trkpt lat="44.94627593057049" lon="11.763523697674936"><ele>4.0</ele><time>2026-04-18T12:49:39Z</time></trkpt><trkpt lat="44.94626689402315" lon="11.763650326337324"><ele>4.0</ele><time>2026-04-18T12:49:41Z</time></trkpt><trkpt lat="44.94626019545856" lon="11.763779491798193"><ele>4.0</ele><time>2026-04-18T12:49:43Z</time></trkpt><trkpt lat="44.94624771833179" lon="11.763902777781105"><ele>3.9999999999999996</ele><time>2026-04-18T12:49:45Z</time></trkpt><trkpt lat="44.9462296917177" lon="11.764020557980372"><ele>4.0</ele><time>2026-04-18T12:49:47Z</time></trkpt><trkpt lat="44.94622080455442" lon="11.764138448168046"><ele>3.9999999999999996</ele><time>2026-04-18T12:49:49Z</time></trkpt><trkpt lat="44.946207878134146" lon="11.764253341166002"><ele>4.0</ele><time>2026-04-18T12:49:51Z</time></trkpt><trkpt lat="44.94619151327412" lon="11.76436271483464"><ele>4.0</ele><time>2026-04-18T12:49:53Z</time></trkpt><trkpt lat="44.94617748161378" lon="11.764471780515603"><ele>4.0</ele><time>2026-04-18T12:49:55Z</time></trkpt><trkpt lat="44.946165323704484" lon="11.764576375009884"><ele>3.9999999999999996</ele><time>2026-04-18T12:49:57Z</time></trkpt><trkpt lat="44.94615615152504" lon="11.764683342119545"><ele>4.0</ele><time>2026-04-18T12:49:59Z</time></trkpt><trkpt lat="44.94614260279076" lon="11.764802654124027"><ele>4.142857142857142</ele><time>2026-04-18T12:50:01Z</time></trkpt><trkpt lat="44.946134534937045" lon="11.764920577921243"><ele>4.285714285714286</ele><time>2026-04-18T12:50:03Z</time></trkpt><trkpt lat="44.946126680673515" lon="11.76503044966202"><ele>4.428571428571429</ele><time>2026-04-18T12:50:05Z</time></trkpt><trkpt lat="44.946117782534394" lon="11.765137366117276"><ele>4.571428571428571</ele><time>2026-04-18T12:50:07Z</time></trkpt><trkpt lat="44.946107374854016" lon="11.76523810919694"><ele>4.714285714285714</ele><time>2026-04-18T12:50:09Z</time></trkpt><trkpt lat="44.94609575790836" lon="11.765336219425338"><ele>4.857142857142857</ele><time>2026-04-18T12:50:11Z</time></trkpt><trkpt lat="44.94609140782375" lon="11.76542918110825"><ele>5.0</ele><time>2026-04-18T12:50:13Z</time></trkpt><trkpt lat="44.946074098865644" lon="11.765551652901195"><ele>5.0</ele><time>2026-04-18T12:50:16Z</time></trkpt><trkpt lat="44.94603294424643" lon="11.76565521198905"><ele>5.0</ele><time>2026-04-18T12:50:19Z</time></trkpt><trkpt lat="44.945964959502575" lon="11.765710534244393"><ele>5.0</ele><time>2026-04-18T12:50:22Z</time></trkpt><trkpt lat="44.94590315945975" lon="11.765749694482802"><ele>5.0</ele><time>2026-04-18T12:50:25Z</time></trkpt><trkpt lat="44.945843859556014" lon="11.765786097944954"><ele>5.0</ele><time>2026-04-18T12:50:52Z</time></trkpt><trkpt lat="44.94575622448801" lon="11.765802999131274"><ele>5.0</ele><time>2026-04-18T12:50:56Z</time></trkpt><trkpt lat="44.945680831555165" lon="11.765792122239212"><ele>5.0</ele><time>2026-04-18T12:50:58Z</time></trkpt><trkpt lat="44.94559674912083" lon="11.765768925766743"><ele>5.0</ele><time>2026-04-18T12:51:00Z</time></trkpt><trkpt lat="44.945514307483" lon="11.765736707073698"><ele>5.0</ele><time>2026-04-18T12:51:02Z</time></trkpt><trkpt lat="44.94542978949501" lon="11.76570312204427"><ele>5.0</ele><time>2026-04-18T12:51:04Z</time></trkpt><trkpt lat="44.94534352513849" lon="11.765675609372398"><ele>5.0</ele><time>2026-04-18T12:51:06Z</time></trkpt><trkpt lat="44.94526345825996" lon="11.76561582029599"><ele>5.0</ele><time>2026-04-18T12:51:08Z</time></trkpt><trkpt lat="44.9451901654472" lon="11.765541192200965"><ele>5.0</ele><time>2026-04-18T12:51:10Z</time></trkpt><trkpt lat="44.945112952374956" lon="11.765504010481171"><ele>5.0</ele><time>2026-04-18T12:51:12Z</time></trkpt><trkpt lat="44.94503750748756" lon="11.765513493268795"><ele>5.0</ele><time>2026-04-18T12:51:14Z</time></trkpt><trkpt lat="44.94495411882145" lon="11.76554228929384"><ele>5.0</ele><time>2026-04-18T12:51:16Z</time></trkpt><trkpt lat="44.94487312740892" lon="11.765601381235438"><ele>5.0</ele><time>2026-04-18T12:51:18Z</time></trkpt><trkpt lat="44.944798770448195" lon="11.765674134360477"><ele>5.0</ele><time>2026-04-18T12:51:20Z</time></trkpt><trkpt lat="44.94472324702921" lon="11.765741295336126"><ele>4.666666666666667</ele><time>2026-04-18T12:51:22Z</time></trkpt><trkpt lat="44.9446439378205" lon="11.76580537885467"><ele>4.333333333333334</ele><time>2026-04-18T12:51:24Z</time></trkpt><trkpt lat="44.944571699491156" lon="11.76587387808504"><ele>4.0</ele><time>2026-04-18T12:51:26Z</time></trkpt><trkpt lat="44.94449834771275" lon="11.76595290080841"><ele>3.666666666666667</ele><time>2026-04-18T12:51:28Z</time></trkpt><trkpt lat="44.94442561916262" lon="11.76602139775096"><ele>3.3333333333333335</ele><time>2026-04-18T12:51:30Z</time></trkpt><trkpt lat="44.9443540276526" lon="11.7660960906539"><ele>3.0</ele><time>2026-04-18T12:51:32Z</time></trkpt><trkpt lat="44.944280190115215" lon="11.766169525132467"><ele>3.0</ele><time>2026-04-18T12:51:34Z</time></trkpt><trkpt lat="44.94420652225153" lon="11.766237776645392"><ele>3.0</ele><time>2026-04-18T12:51:36Z</time></trkpt><trkpt lat="44.944132666757675" lon="11.766310634083766"><ele>3.0</ele><time>2026-04-18T12:51:38Z</time></trkpt><trkpt lat="44.944064081437965" lon="11.766391718599023"><ele>3.0</ele><time>2026-04-18T12:51:40Z</time></trkpt><trkpt lat="44.943991203742186" lon="11.766470205674322"><ele>3.0</ele><time>2026-04-18T12:51:42Z</time></trkpt><trkpt lat="44.94392305326053" lon="11.7665591527269"><ele>3.0</ele><time>2026-04-18T12:51:44Z</time></trkpt><trkpt lat="44.943853913419304" lon="11.766643506314393"><ele>3.0</ele><time>2026-04-18T12:51:46Z</time></trkpt><trkpt lat="44.94378632619774" lon="11.76672775626641"><ele>3.0</ele><time>2026-04-18T12:51:48Z</time></trkpt><trkpt lat="44.943722271317775" lon="11.766817373886543"><ele>3.0</ele><time>2026-04-18T12:51:50Z</time></trkpt><trkpt lat="44.943654914977856" lon="11.766904143753836"><ele>3.0</ele><time>2026-04-18T12:51:52Z</time></trkpt><trkpt lat="44.94358843340079" lon="11.766991508606274"><ele>2.8333333333333335</ele><time>2026-04-18T12:51:54Z</time></trkpt><trkpt lat="44.94352541822846" lon="11.767080158590598"><ele>2.6666666666666665</ele><time>2026-04-18T12:51:56Z</time></trkpt><trkpt lat="44.943461754373075" lon="11.767159634952753"><ele>2.5</ele><time>2026-04-18T12:51:58Z</time></trkpt><trkpt lat="44.943405249092635" lon="11.76724345566305"><ele>2.333333333333333</ele><time>2026-04-18T12:52:00Z</time></trkpt><trkpt lat="44.94334443567704" lon="11.767305638384437"><ele>2.1666666666666665</ele><time>2026-04-18T12:52:02Z</time></trkpt><trkpt lat="44.94328771708675" lon="11.767370930505452"><ele>2.0</ele><time>2026-04-18T12:52:04Z</time></trkpt><trkpt lat="44.943235942305854" lon="11.767442740791028"><ele>1.8333333333333333</ele><time>2026-04-18T12:52:06Z</time></trkpt><trkpt lat="44.94317249724963" lon="11.767519739367044"><ele>1.6666666666666665</ele><time>2026-04-18T12:52:08Z</time></trkpt><trkpt lat="44.94310589211744" lon="11.767603724566838"><ele>1.5</ele><time>2026-04-18T12:52:10Z</time></trkpt><trkpt lat="44.94303761014829" lon="11.767685667844614"><ele>1.3333333333333333</ele><time>2026-04-18T12:52:12Z</time></trkpt><trkpt lat="44.94296620503577" lon="11.767763057413234"><ele>1.1666666666666665</ele><time>2026-04-18T12:52:14Z</time></trkpt><trkpt lat="44.94289231983229" lon="11.767840047022512"><ele>1.0</ele><time>2026-04-18T12:52:16Z</time></trkpt><trkpt lat="44.94282173070494" lon="11.767920004379873"><ele>0.9999999999999999</ele><time>2026-04-18T12:52:18Z</time></trkpt><trkpt lat="44.94275737996135" lon="11.768008356203994"><ele>1.0</ele><time>2026-04-18T12:52:20Z</time></trkpt><trkpt lat="44.9426892428809" lon="11.768089791584652"><ele>1.0</ele><time>2026-04-18T12:52:22Z</time></trkpt><trkpt lat="44.94261645210102" lon="11.768168475581918"><ele>1.0</ele><time>2026-04-18T12:52:24Z</time></trkpt><trkpt lat="44.942552661218855" lon="11.768256247603192"><ele>0.9999999999999999</ele><time>2026-04-18T12:52:26Z</time></trkpt><trkpt lat="44.94248404201714" lon="11.768337503258694"><ele>1.0</ele><time>2026-04-18T12:52:28Z</time></trkpt><trkpt lat="44.94241989289175" lon="11.768431046387132"><ele>1.2000000000000002</ele><time>2026-04-18T12:52:30Z</time></trkpt><trkpt lat="44.94235379695969" lon="11.76852761830037"><ele>1.4000000000000001</ele><time>2026-04-18T12:52:32Z</time></trkpt><trkpt lat="44.942298267617" lon="11.768644185645506"><ele>1.6</ele><time>2026-04-18T12:52:34Z</time></trkpt><trkpt lat="44.94224141011767" lon="11.768760870116342"><ele>1.8</ele><time>2026-04-18T12:52:36Z</time></trkpt><trkpt lat="44.942192367427154" lon="11.768885855154675"><ele>2.0</ele><time>2026-04-18T12:52:38Z</time></trkpt><trkpt lat="44.94214656939328" lon="11.769013338607225"><ele>2.0</ele><time>2026-04-18T12:52:40Z</time></trkpt><trkpt lat="44.94210231864641" lon="11.769141370113864"><ele>2.0</ele><time>2026-04-18T12:52:42Z</time></trkpt><trkpt lat="44.942055113092906" lon="11.769267975807855"><ele>2.0</ele><time>2026-04-18T12:52:44Z</time></trkpt><trkpt lat="44.94201016563468" lon="11.769392796629262"><ele>2.0</ele><time>2026-04-18T12:52:46Z</time></trkpt><trkpt lat="44.94196850557818" lon="11.769524368703086"><ele>2.0</ele><time>2026-04-18T12:52:48Z</time></trkpt><trkpt lat="44.94192829230288" lon="11.769654105088616"><ele>2.0</ele><time>2026-04-18T12:52:50Z</time></trkpt><trkpt lat="44.941886991409135" lon="11.769784740937142"><ele>2.0</ele><time>2026-04-18T12:52:52Z</time></trkpt><trkpt lat="44.94184375550226" lon="11.769917650124091"><ele>2.0</ele><time>2026-04-18T12:52:54Z</time></trkpt><trkpt lat="44.94179806960002" lon="11.770044089480933"><ele>2.0</ele><time>2026-04-18T12:52:56Z</time></trkpt><trkpt lat="44.94175151878191" lon="11.770174526417424"><ele>2.0</ele><time>2026-04-18T12:52:58Z</time></trkpt><trkpt lat="44.941705830369884" lon="11.770300987224832"><ele>2.0</ele><time>2026-04-18T12:53:00Z</time></trkpt><trkpt lat="44.94166537931559" lon="11.77042784603926"><ele>2.0</ele><time>2026-04-18T12:53:02Z</time></trkpt><trkpt lat="44.9416236418831" lon="11.7705560023106"><ele>2.0</ele><time>2026-04-18T12:53:04Z</time></trkpt><trkpt lat="44.94158567055148" lon="11.77068608735825"><ele>2.0</ele><time>2026-04-18T12:53:06Z</time></trkpt><trkpt lat="44.941547622895314" lon="11.770816729226706"><ele>2.0</ele><time>2026-04-18T12:53:08Z</time></trkpt><trkpt lat="44.94151392863439" lon="11.770955160010018"><ele>2.0</ele><time>2026-04-18T12:53:10Z</time></trkpt><trkpt lat="44.94147969896188" lon="11.77109018946868"><ele>2.0</ele><time>2026-04-18T12:53:12Z</time></trkpt><trkpt lat="44.94144715222716" lon="11.77123068594439"><ele>2.0</ele><time>2026-04-18T12:53:14Z</time></trkpt><trkpt lat="44.94142713005919" lon="11.771371064014492"><ele>2.0</ele><time>2026-04-18T12:53:16Z</time></trkpt><trkpt lat="44.94139819433246" lon="11.77150855634002"><ele>2.0</ele><time>2026-04-18T12:53:18Z</time></trkpt><trkpt lat="44.94136869688346" lon="11.771637380465874"><ele>2.0</ele><time>2026-04-18T12:53:20Z</time></trkpt><trkpt lat="44.941355547997794" lon="11.771770125217568"><ele>2.0</ele><time>2026-04-18T12:53:22Z</time></trkpt><trkpt lat="44.94133273235777" lon="11.771891657268469"><ele>2.0</ele><time>2026-04-18T12:53:24Z</time></trkpt><trkpt lat="44.941318594864086" lon="11.772011065802808"><ele>2.0</ele><time>2026-04-18T12:53:26Z</time></trkpt><trkpt lat="44.941301661667595" lon="11.772136239091559"><ele>2.0</ele><time>2026-04-18T12:53:28Z</time></trkpt><trkpt lat="44.94128110578319" lon="11.772266349138892"><ele>1.8</ele><time>2026-04-18T12:53:30Z</time></trkpt><trkpt lat="44.9412606314751" lon="11.772402699720619"><ele>1.6</ele><time>2026-04-18T12:53:32Z</time></trkpt><trkpt lat="44.94123389532223" lon="11.77253732328083"><ele>1.4000000000000001</ele><time>2026-04-18T12:53:34Z</time></trkpt><trkpt lat="44.941206056298526" lon="11.772674488609182"><ele>1.2000000000000002</ele><time>2026-04-18T12:53:36Z</time></trkpt><trkpt lat="44.94118276745576" lon="11.772812609121644"><ele>1.0</ele><time>2026-04-18T12:53:38Z</time></trkpt><trkpt lat="44.94115042008836" lon="11.772944625586941"><ele>1.0</ele><time>2026-04-18T12:53:40Z</time></trkpt><trkpt lat="44.94111866381535" lon="11.773079452176436"><ele>1.0</ele><time>2026-04-18T12:53:42Z</time></trkpt><trkpt lat="44.94109243195716" lon="11.773215384649957"><ele>1.0</ele><time>2026-04-18T12:53:44Z</time></trkpt><trkpt lat="44.94105639078872" lon="11.773348973967023"><ele>1.0</ele><time>2026-04-18T12:53:46Z</time></trkpt><trkpt lat="44.941021324767235" lon="11.773481784743474"><ele>1.0</ele><time>2026-04-18T12:53:48Z</time></trkpt><trkpt lat="44.94098525196636" lon="11.773613080310588"><ele>1.0</ele><time>2026-04-18T12:53:50Z</time></trkpt><trkpt lat="44.94094835154079" lon="11.77373728267233"><ele>1.0</ele><time>2026-04-18T12:53:52Z</time></trkpt><trkpt lat="44.94091584207741" lon="11.773859259896907"><ele>1.0</ele><time>2026-04-18T12:53:54Z</time></trkpt><trkpt lat="44.94088070237574" lon="11.773976669821439"><ele>1.0</ele><time>2026-04-18T12:53:56Z</time></trkpt><trkpt lat="44.940848480611386" lon="11.774106551789282"><ele>1.0</ele><time>2026-04-18T12:53:58Z</time></trkpt><trkpt lat="44.94081168127921" lon="11.774237683849377"><ele>0.8</ele><time>2026-04-18T12:54:00Z</time></trkpt><trkpt lat="44.940773854174445" lon="11.77436970923607"><ele>0.6000000000000001</ele><time>2026-04-18T12:54:02Z</time></trkpt><trkpt lat="44.94074320987294" lon="11.774507269958914"><ele>0.4</ele><time>2026-04-18T12:54:04Z</time></trkpt><trkpt lat="44.94071212020407" lon="11.774644744023064"><ele>0.2</ele><time>2026-04-18T12:54:06Z</time></trkpt><trkpt lat="44.94067880102864" lon="11.774782362715671"><ele>0.0</ele><time>2026-04-18T12:54:08Z</time></trkpt><trkpt lat="44.940653996662476" lon="11.774921373243199"><ele>0.0</ele><time>2026-04-18T12:54:10Z</time></trkpt><trkpt lat="44.94063212802752" lon="11.775060222051073"><ele>0.0</ele><time>2026-04-18T12:54:12Z</time></trkpt><trkpt lat="44.940621683532974" lon="11.775200707869914"><ele>0.0</ele><time>2026-04-18T12:54:14Z</time></trkpt><trkpt lat="44.94060914896466" lon="11.775332892413362"><ele>0.0</ele><time>2026-04-18T12:54:16Z</time></trkpt><trkpt lat="44.9405986815938" lon="11.775469308435522"><ele>0.0</ele><time>2026-04-18T12:54:18Z</time></trkpt><trkpt lat="44.94059305938457" lon="11.775610432511934"><ele>0.2</ele><time>2026-04-18T12:54:20Z</time></trkpt><trkpt lat="44.940592844287636" lon="11.775753771735076"><ele>0.4</ele><time>2026-04-18T12:54:22Z</time></trkpt><trkpt lat="44.940593702356786" lon="11.775892914195676"><ele>0.6000000000000001</ele><time>2026-04-18T12:54:24Z</time></trkpt><trkpt lat="44.94059814935482" lon="11.77603088397681"><ele>0.8</ele><time>2026-04-18T12:54:26Z</time></trkpt><trkpt lat="44.94060780976335" lon="11.776169333554037"><ele>1.0</ele><time>2026-04-18T12:54:28Z</time></trkpt><trkpt lat="44.94062401047009" lon="11.776308518127168"><ele>1.0</ele><time>2026-04-18T12:54:30Z</time></trkpt><trkpt lat="44.94064401636209" lon="11.776445618516371"><ele>1.0</ele><time>2026-04-18T12:54:32Z</time></trkpt><trkpt lat="44.940668895508175" lon="11.776582121956723"><ele>1.0</ele><time>2026-04-18T12:54:34Z</time></trkpt><trkpt lat="44.94068707507966" lon="11.776723149282887"><ele>1.0</ele><time>2026-04-18T12:54:36Z</time></trkpt><trkpt lat="44.94071884573618" lon="11.776857445740644"><ele>1.0</ele><time>2026-04-18T12:54:38Z</time></trkpt><trkpt lat="44.94074730966761" lon="11.77699420153868"><ele>0.8</ele><time>2026-04-18T12:54:40Z</time></trkpt><trkpt lat="44.94078303827868" lon="11.77712842560901"><ele>0.6000000000000001</ele><time>2026-04-18T12:54:42Z</time></trkpt><trkpt lat="44.94081708738111" lon="11.77726224476356"><ele>0.4</ele><time>2026-04-18T12:54:44Z</time></trkpt><trkpt lat="44.94085126437826" lon="11.777396989342284"><ele>0.2</ele><time>2026-04-18T12:54:46Z</time></trkpt><trkpt lat="44.940892589285724" lon="11.777535705095376"><ele>0.0</ele><time>2026-04-18T12:54:48Z</time></trkpt><trkpt lat="44.9409274764257" lon="11.77767201294522"><ele>0.2</ele><time>2026-04-18T12:54:50Z</time></trkpt><trkpt lat="44.9409631405613" lon="11.777809663860529"><ele>0.4</ele><time>2026-04-18T12:54:52Z</time></trkpt><trkpt lat="44.94098279554895" lon="11.777954241599607"><ele>0.6000000000000001</ele><time>2026-04-18T12:54:54Z</time></trkpt><trkpt lat="44.94099969238691" lon="11.778100098485343"><ele>0.8</ele><time>2026-04-18T12:54:56Z</time></trkpt><trkpt lat="44.9410075907914" lon="11.778243145079616"><ele>1.0</ele><time>2026-04-18T12:54:58Z</time></trkpt><trkpt lat="44.941005848254335" lon="11.77838738366523"><ele>1.4</ele><time>2026-04-18T12:55:00Z</time></trkpt><trkpt lat="44.94099764815946" lon="11.778526384220324"><ele>1.8</ele><time>2026-04-18T12:55:02Z</time></trkpt><trkpt lat="44.940986552729505" lon="11.778664931970132"><ele>2.1999999999999997</ele><time>2026-04-18T12:55:04Z</time></trkpt><trkpt lat="44.94097833296632" lon="11.778807208042242"><ele>2.6</ele><time>2026-04-18T12:55:06Z</time></trkpt><trkpt lat="44.94096549795832" lon="11.778946252175684"><ele>3.0</ele><time>2026-04-18T12:55:08Z</time></trkpt><trkpt lat="44.940959325032544" lon="11.779078185848615"><ele>3.0</ele><time>2026-04-18T12:55:10Z</time></trkpt><trkpt lat="44.94094992847668" lon="11.779212551574952"><ele>3.0</ele><time>2026-04-18T12:55:12Z</time></trkpt><trkpt lat="44.9409401890156" lon="11.779337319793305"><ele>3.0</ele><time>2026-04-18T12:55:14Z</time></trkpt><trkpt lat="44.94093026360867" lon="11.779458685781483"><ele>3.0</ele><time>2026-04-18T12:55:16Z</time></trkpt><trkpt lat="44.94092238035815" lon="11.779587417834968"><ele>3.0</ele><time>2026-04-18T12:55:18Z</time></trkpt><trkpt lat="44.94091891088722" lon="11.779715748783246"><ele>2.8333333333333335</ele><time>2026-04-18T12:55:20Z</time></trkpt><trkpt lat="44.940907305335074" lon="11.779830275928466"><ele>2.6666666666666665</ele><time>2026-04-18T12:55:22Z</time></trkpt><trkpt lat="44.94090049236761" lon="11.779941439994461"><ele>2.5</ele><time>2026-04-18T12:55:24Z</time></trkpt><trkpt lat="44.94089409585057" lon="11.780046108468918"><ele>2.333333333333333</ele><time>2026-04-18T12:55:26Z</time></trkpt><trkpt lat="44.94087650514546" lon="11.780143559144053"><ele>2.1666666666666665</ele><time>2026-04-18T12:55:28Z</time></trkpt><trkpt lat="44.94085735863491" lon="11.780235690487643"><ele>2.0</ele><time>2026-04-18T12:55:30Z</time></trkpt><trkpt lat="44.94084986901602" lon="11.780342376213687"><ele>1.9999999999999998</ele><time>2026-04-18T12:55:32Z</time></trkpt><trkpt lat="44.940836993988576" lon="11.780469972177558"><ele>2.0</ele><time>2026-04-18T12:55:34Z</time></trkpt><trkpt lat="44.94081958606933" lon="11.78057915720117"><ele>2.0</ele><time>2026-04-18T12:55:36Z</time></trkpt><trkpt lat="44.940799407970445" lon="11.780680519155656"><ele>2.0</ele><time>2026-04-18T12:55:38Z</time></trkpt><trkpt lat="44.940787754569094" lon="11.78077812548636"><ele>1.9999999999999998</ele><time>2026-04-18T12:55:40Z</time></trkpt><trkpt lat="44.940766822874664" lon="11.78086501981144"><ele>2.0</ele><time>2026-04-18T12:55:42Z</time></trkpt><trkpt lat="44.940746100218504" lon="11.780959742535483"><ele>1.8333333333333333</ele><time>2026-04-18T12:55:44Z</time></trkpt><trkpt lat="44.9407281939147" lon="11.781067987759478"><ele>1.6666666666666665</ele><time>2026-04-18T12:55:46Z</time></trkpt><trkpt lat="44.94071393239667" lon="11.781163133732578"><ele>1.5</ele><time>2026-04-18T12:55:48Z</time></trkpt><trkpt lat="44.940699970550696" lon="11.781255246280887"><ele>1.3333333333333333</ele><time>2026-04-18T12:55:50Z</time></trkpt><trkpt lat="44.94068439511272" lon="11.78137694090516"><ele>1.1666666666666665</ele><time>2026-04-18T12:55:53Z</time></trkpt><trkpt lat="44.9406656523712" lon="11.781475549746965"><ele>1.0</ele><time>2026-04-18T12:55:56Z</time></trkpt><trkpt lat="44.94064566644719" lon="11.78158345055119"><ele>1.0</ele><time>2026-04-18T12:55:59Z</time></trkpt><trkpt lat="44.94063260466693" lon="11.781704403419795"><ele>1.0</ele><time>2026-04-18T12:56:01Z</time></trkpt><trkpt lat="44.94061290719276" lon="11.781837793819554"><ele>1.0</ele><time>2026-04-18T12:56:03Z</time></trkpt><trkpt lat="44.94059615028776" lon="11.781972818907558"><ele>1.0</ele><time>2026-04-18T12:56:05Z</time></trkpt><trkpt lat="44.94059674151426" lon="11.782110521614387"><ele>1.0</ele><time>2026-04-18T12:56:07Z</time></trkpt><trkpt lat="44.94059887790451" lon="11.78224672595413"><ele>1.0</ele><time>2026-04-18T12:56:09Z</time></trkpt><trkpt lat="44.94061436983389" lon="11.782385420995569"><ele>1.0</ele><time>2026-04-18T12:56:11Z</time></trkpt><trkpt lat="44.940631470071295" lon="11.782518145125492"><ele>1.0</ele><time>2026-04-18T12:56:13Z</time></trkpt><trkpt lat="44.94064857983187" lon="11.782657393527522"><ele>1.0</ele><time>2026-04-18T12:56:15Z</time></trkpt><trkpt lat="44.94067169710281" lon="11.78279675980008"><ele>1.0</ele><time>2026-04-18T12:56:17Z</time></trkpt><trkpt lat="44.940697739062934" lon="11.782928057580266"><ele>1.2000000000000002</ele><time>2026-04-18T12:56:19Z</time></trkpt><trkpt lat="44.94072895237663" lon="11.783060156564611"><ele>1.4000000000000001</ele><time>2026-04-18T12:56:21Z</time></trkpt><trkpt lat="44.94076337732611" lon="11.783192461542413"><ele>1.6</ele><time>2026-04-18T12:56:23Z</time></trkpt><trkpt lat="44.94078178481484" lon="11.783331238410625"><ele>1.8</ele><time>2026-04-18T12:56:25Z</time></trkpt><trkpt lat="44.940792015627856" lon="11.783472137434087"><ele>2.0</ele><time>2026-04-18T12:56:27Z</time></trkpt><trkpt lat="44.940804820184376" lon="11.78361270740679"><ele>2.4000000000000004</ele><time>2026-04-18T12:56:29Z</time></trkpt><trkpt lat="44.94081457161742" lon="11.783752251954843"><ele>2.8000000000000003</ele><time>2026-04-18T12:56:31Z</time></trkpt><trkpt lat="44.940822713316926" lon="11.78389382297769"><ele>3.2</ele><time>2026-04-18T12:56:33Z</time></trkpt><trkpt lat="44.940834443905715" lon="11.78403933456719"><ele>3.6</ele><time>2026-04-18T12:56:35Z</time></trkpt><trkpt lat="44.94084772120713" lon="11.784179848039118"><ele>4.0</ele><time>2026-04-18T12:56:37Z</time></trkpt><trkpt lat="44.94086299933815" lon="11.784303188174553"><ele>3.833333333333333</ele><time>2026-04-18T12:56:39Z</time></trkpt><trkpt lat="44.940879110060465" lon="11.784416725094905"><ele>3.6666666666666665</ele><time>2026-04-18T12:56:41Z</time></trkpt><trkpt lat="44.94088302437408" lon="11.78451381731077"><ele>3.5</ele><time>2026-04-18T12:56:43Z</time></trkpt><trkpt lat="44.94089931301278" lon="11.784600052937293"><ele>3.333333333333333</ele><time>2026-04-18T12:56:45Z</time></trkpt><trkpt lat="44.94090731544113" lon="11.784700882163447"><ele>3.1666666666666665</ele><time>2026-04-18T12:56:47Z</time></trkpt><trkpt lat="44.94092661840826" lon="11.784808850402758"><ele>3.0</ele><time>2026-04-18T12:56:49Z</time></trkpt><trkpt lat="44.940947143906" lon="11.78494003382543"><ele>3.0</ele><time>2026-04-18T12:56:51Z</time></trkpt><trkpt lat="44.940959420887204" lon="11.78506709987345"><ele>3.0</ele><time>2026-04-18T12:56:53Z</time></trkpt><trkpt lat="44.940987200741695" lon="11.78521275816086"><ele>3.0</ele><time>2026-04-18T12:56:55Z</time></trkpt><trkpt lat="44.941004737945605" lon="11.785350230557247"><ele>3.0</ele><time>2026-04-18T12:56:57Z</time></trkpt><trkpt lat="44.94102689898508" lon="11.785492887839807"><ele>3.0</ele><time>2026-04-18T12:56:59Z</time></trkpt><trkpt lat="44.941049320611086" lon="11.785639837947373"><ele>2.8</ele><time>2026-04-18T12:57:01Z</time></trkpt><trkpt lat="44.94107112870197" lon="11.78578345143315"><ele>2.5999999999999996</ele><time>2026-04-18T12:57:03Z</time></trkpt><trkpt lat="44.9410869971881" lon="11.785927491925303"><ele>2.4000000000000004</ele><time>2026-04-18T12:57:05Z</time></trkpt><trkpt lat="44.9410932941121" lon="11.786069732230219"><ele>2.2</ele><time>2026-04-18T12:57:07Z</time></trkpt><trkpt lat="44.94111461674108" lon="11.786208148235824"><ele>2.0</ele><time>2026-04-18T12:57:09Z</time></trkpt><trkpt lat="44.9411277875941" lon="11.78634301284894"><ele>1.6666666666666665</ele><time>2026-04-18T12:57:11Z</time></trkpt><trkpt lat="44.94114286379766" lon="11.78646555634423"><ele>1.3333333333333333</ele><time>2026-04-18T12:57:13Z</time></trkpt><trkpt lat="44.9411620142835" lon="11.786579444588533"><ele>1.0</ele><time>2026-04-18T12:57:15Z</time></trkpt><trkpt lat="44.94117392083842" lon="11.786686659396679"><ele>0.6666666666666666</ele><time>2026-04-18T12:57:17Z</time></trkpt><trkpt lat="44.94120209652436" lon="11.78681558375468"><ele>0.3333333333333333</ele><time>2026-04-18T12:57:19Z</time></trkpt><trkpt lat="44.94124013755303" lon="11.786944400037166"><ele>0.0</ele><time>2026-04-18T12:57:21Z</time></trkpt><trkpt lat="44.94129827020672" lon="11.787048210292157"><ele>0.0</ele><time>2026-04-18T12:57:23Z</time></trkpt><trkpt lat="44.94136418416078" lon="11.787142890323276"><ele>0.0</ele><time>2026-04-18T12:57:25Z</time></trkpt><trkpt lat="44.941430735962626" lon="11.78722046223434"><ele>0.0</ele><time>2026-04-18T12:57:27Z</time></trkpt><trkpt lat="44.94149497392541" lon="11.787300258110879"><ele>0.0</ele><time>2026-04-18T12:57:29Z</time></trkpt><trkpt lat="44.94156298206055" lon="11.787363615101366"><ele>0.0</ele><time>2026-04-18T12:57:31Z</time></trkpt><trkpt lat="44.94163362714971" lon="11.78742758513446"><ele>0.0</ele><time>2026-04-18T12:57:33Z</time></trkpt><trkpt lat="44.9417152972363" lon="11.787504481818063"><ele>0.2</ele><time>2026-04-18T12:57:35Z</time></trkpt><trkpt lat="44.94177822723419" lon="11.787619013211854"><ele>0.4</ele><time>2026-04-18T12:57:37Z</time></trkpt><trkpt lat="44.94183888245963" lon="11.78772995343588"><ele>0.6000000000000001</ele><time>2026-04-18T12:57:39Z</time></trkpt><trkpt lat="44.94188863654247" lon="11.787853070584879"><ele>0.8</ele><time>2026-04-18T12:57:41Z</time></trkpt><trkpt lat="44.94193398562387" lon="11.787977186654008"><ele>1.0</ele><time>2026-04-18T12:57:43Z</time></trkpt><trkpt lat="44.94194777421054" lon="11.788116854445821"><ele>1.0</ele><time>2026-04-18T12:57:45Z</time></trkpt><trkpt lat="44.94194900495508" lon="11.788259983272425"><ele>1.0</ele><time>2026-04-18T12:57:47Z</time></trkpt><trkpt lat="44.94193203430052" lon="11.788400363038797"><ele>1.0</ele><time>2026-04-18T12:57:49Z</time></trkpt><trkpt lat="44.94189507521281" lon="11.788533723461299"><ele>1.0</ele><time>2026-04-18T12:57:51Z</time></trkpt><trkpt lat="44.94185338614673" lon="11.788659505825507"><ele>1.0</ele><time>2026-04-18T12:57:53Z</time></trkpt><trkpt lat="44.941801028133504" lon="11.788780355336636"><ele>1.0</ele><time>2026-04-18T12:57:55Z</time></trkpt><trkpt lat="44.941753132967825" lon="11.788906855457588"><ele>1.0</ele><time>2026-04-18T12:57:57Z</time></trkpt><trkpt lat="44.9417074120885" lon="11.78903454552048"><ele>1.0</ele><time>2026-04-18T12:57:59Z</time></trkpt><trkpt lat="44.9416709939239" lon="11.789166509622477"><ele>1.0</ele><time>2026-04-18T12:58:01Z</time></trkpt><trkpt lat="44.94163896553444" lon="11.789300791172064"><ele>1.0</ele><time>2026-04-18T12:58:03Z</time></trkpt><trkpt lat="44.941605719490504" lon="11.78943413026547"><ele>0.8</ele><time>2026-04-18T12:58:05Z</time></trkpt><trkpt lat="44.94157217968748" lon="11.789566390903692"><ele>0.6000000000000001</ele><time>2026-04-18T12:58:07Z</time></trkpt><trkpt lat="44.94153435709324" lon="11.789698308944917"><ele>0.4</ele><time>2026-04-18T12:58:09Z</time></trkpt><trkpt lat="44.94150866225075" lon="11.789837022791744"><ele>0.2</ele><time>2026-04-18T12:58:11Z</time></trkpt><trkpt lat="44.94148574906261" lon="11.789977148370363"><ele>0.0</ele><time>2026-04-18T12:58:13Z</time></trkpt><trkpt lat="44.94146381535612" lon="11.790120225152371"><ele>0.0</ele><time>2026-04-18T12:58:15Z</time></trkpt><trkpt lat="44.94145242350504" lon="11.790261979076153"><ele>0.0</ele><time>2026-04-18T12:58:17Z</time></trkpt><trkpt lat="44.94145920654685" lon="11.790401569104647"><ele>0.0</ele><time>2026-04-18T12:58:19Z</time></trkpt><trkpt lat="44.94144896711459" lon="11.790533989289042"><ele>0.0</ele><time>2026-04-18T12:58:21Z</time></trkpt><trkpt lat="44.94144674475982" lon="11.790663777784129"><ele>0.0</ele><time>2026-04-18T12:58:23Z</time></trkpt><trkpt lat="44.941456344974384" lon="11.790805627144263"><ele>0.0</ele><time>2026-04-18T12:58:25Z</time></trkpt><trkpt lat="44.941462837176886" lon="11.790947364412455"><ele>0.0</ele><time>2026-04-18T12:58:27Z</time></trkpt><trkpt lat="44.941467096801766" lon="11.791091578766595"><ele>0.0</ele><time>2026-04-18T12:58:29Z</time></trkpt><trkpt lat="44.94147935465267" lon="11.79123335453403"><ele>0.0</ele><time>2026-04-18T12:58:31Z</time></trkpt><trkpt lat="44.94149799033049" lon="11.791374245658648"><ele>0.0</ele><time>2026-04-18T12:58:33Z</time></trkpt><trkpt lat="44.941538396677835" lon="11.791499685158627"><ele>0.0</ele><time>2026-04-18T12:58:35Z</time></trkpt><trkpt lat="44.94158948663374" lon="11.791619283268549"><ele>0.0</ele><time>2026-04-18T12:58:37Z</time></trkpt><trkpt lat="44.94164789879711" lon="11.791722461263467"><ele>0.0</ele><time>2026-04-18T12:58:39Z</time></trkpt><trkpt lat="44.94169307499293" lon="11.79182622655982"><ele>0.0</ele><time>2026-04-18T12:58:41Z</time></trkpt><trkpt lat="44.94173563352064" lon="11.791937368011409"><ele>0.0</ele><time>2026-04-18T12:58:43Z</time></trkpt><trkpt lat="44.94179562950364" lon="11.792042613935596"><ele>0.0</ele><time>2026-04-18T12:58:45Z</time></trkpt><trkpt lat="44.94185116926118" lon="11.792155204420563"><ele>0.0</ele><time>2026-04-18T12:58:47Z</time></trkpt><trkpt lat="44.9419193782589" lon="11.7922637716935"><ele>0.0</ele><time>2026-04-18T12:58:49Z</time></trkpt><trkpt lat="44.94198105366615" lon="11.792377337198186"><ele>0.0</ele><time>2026-04-18T12:58:51Z</time></trkpt><trkpt lat="44.942054341168415" lon="11.792483665285932"><ele>0.0</ele><time>2026-04-18T12:58:53Z</time></trkpt><trkpt lat="44.942114449214124" lon="11.792599456866265"><ele>0.2</ele><time>2026-04-18T12:58:55Z</time></trkpt><trkpt lat="44.9421790923694" lon="11.792711136277637"><ele>0.4</ele><time>2026-04-18T12:58:57Z</time></trkpt><trkpt lat="44.942242443280314" lon="11.792824156550132"><ele>0.6000000000000001</ele><time>2026-04-18T12:58:59Z</time></trkpt><trkpt lat="44.942303358583054" lon="11.792939649171203"><ele>0.8</ele><time>2026-04-18T12:59:01Z</time></trkpt><trkpt lat="44.942369138090164" lon="11.793049764834953"><ele>1.0</ele><time>2026-04-18T12:59:03Z</time></trkpt><trkpt lat="44.942435267457796" lon="11.79315935480304"><ele>1.0</ele><time>2026-04-18T12:59:05Z</time></trkpt><trkpt lat="44.94249565419003" lon="11.793275938956102"><ele>1.0</ele><time>2026-04-18T12:59:07Z</time></trkpt><trkpt lat="44.942565799814204" lon="11.793383351314345"><ele>1.0</ele><time>2026-04-18T12:59:09Z</time></trkpt><trkpt lat="44.942636210849784" lon="11.793495004407875"><ele>1.0</ele><time>2026-04-18T12:59:11Z</time></trkpt><trkpt lat="44.9427023862205" lon="11.793610026202925"><ele>1.0</ele><time>2026-04-18T12:59:13Z</time></trkpt><trkpt lat="44.94276581521485" lon="11.793727692470663"><ele>1.0</ele><time>2026-04-18T12:59:15Z</time></trkpt><trkpt lat="44.942829886520705" lon="11.793841809768052"><ele>1.0</ele><time>2026-04-18T12:59:17Z</time></trkpt><trkpt lat="44.94289335023236" lon="11.793953829445893"><ele>1.0</ele><time>2026-04-18T12:59:19Z</time></trkpt><trkpt lat="44.942956756039166" lon="11.794069672506504"><ele>1.0</ele><time>2026-04-18T12:59:21Z</time></trkpt><trkpt lat="44.94302164374431" lon="11.794183975077594"><ele>1.0</ele><time>2026-04-18T12:59:23Z</time></trkpt><trkpt lat="44.94309166098461" lon="11.79429048922772"><ele>1.0</ele><time>2026-04-18T12:59:25Z</time></trkpt><trkpt lat="44.94315598341512" lon="11.794405373114023"><ele>1.0</ele><time>2026-04-18T12:59:27Z</time></trkpt><trkpt lat="44.94322072953483" lon="11.794519087208633"><ele>1.0</ele><time>2026-04-18T12:59:29Z</time></trkpt><trkpt lat="44.94328831418069" lon="11.79462968929737"><ele>1.0</ele><time>2026-04-18T12:59:31Z</time></trkpt><trkpt lat="44.94334821594907" lon="11.794736818168712"><ele>1.0</ele><time>2026-04-18T12:59:33Z</time></trkpt><trkpt lat="44.94340858177352" lon="11.79483823565893"><ele>1.2000000000000002</ele><time>2026-04-18T12:59:35Z</time></trkpt><trkpt lat="44.94346683420842" lon="11.794942268568116"><ele>1.4000000000000001</ele><time>2026-04-18T12:59:37Z</time></trkpt><trkpt lat="44.94352890648173" lon="11.795051809865855"><ele>1.6</ele><time>2026-04-18T12:59:39Z</time></trkpt><trkpt lat="44.9435840962205" lon="11.795167627858584"><ele>1.8</ele><time>2026-04-18T12:59:41Z</time></trkpt><trkpt lat="44.943649582030865" lon="11.795279394990464"><ele>2.0</ele><time>2026-04-18T12:59:43Z</time></trkpt><trkpt lat="44.94371384555991" lon="11.795388095741496"><ele>2.0</ele><time>2026-04-18T12:59:45Z</time></trkpt><trkpt lat="44.943779340633334" lon="11.795504470497168"><ele>2.0</ele><time>2026-04-18T12:59:47Z</time></trkpt><trkpt lat="44.94384084668461" lon="11.795612109672252"><ele>2.0</ele><time>2026-04-18T12:59:49Z</time></trkpt><trkpt lat="44.94390138803074" lon="11.795713244125114"><ele>2.0</ele><time>2026-04-18T12:59:51Z</time></trkpt><trkpt lat="44.943962637596655" lon="11.7958109418864"><ele>2.0</ele><time>2026-04-18T12:59:53Z</time></trkpt><trkpt lat="44.94401466152861" lon="11.795909075719969"><ele>2.0</ele><time>2026-04-18T12:59:55Z</time></trkpt><trkpt lat="44.94407197511275" lon="11.795984825771463"><ele>1.9999999999999998</ele><time>2026-04-18T12:59:57Z</time></trkpt><trkpt lat="44.94411636903342" lon="11.7960677663847"><ele>2.0</ele><time>2026-04-18T12:59:59Z</time></trkpt><trkpt lat="44.94410935817068" lon="11.796166339881058"><ele>2.0</ele><time>2026-04-18T13:00:01Z</time></trkpt><trkpt lat="44.944060236778476" lon="11.79622445198092"><ele>1.9999999999999998</ele><time>2026-04-18T13:00:03Z</time></trkpt><trkpt lat="44.94399611115633" lon="11.796294190677921"><ele>2.0</ele><time>2026-04-18T13:00:06Z</time></trkpt><trkpt lat="44.94405322340471" lon="11.796351264539977"><ele>2.0</ele><time>2026-04-18T13:00:08Z</time></trkpt><trkpt lat="44.94410704048633" lon="11.796441557571805"><ele>1.8333333333333333</ele><time>2026-04-18T13:00:11Z</time></trkpt><trkpt lat="44.944156273740624" lon="11.79652939287667"><ele>1.6666666666666665</ele><time>2026-04-18T13:00:14Z</time></trkpt><trkpt lat="44.944203360217955" lon="11.796610624434367"><ele>1.5</ele><time>2026-04-18T13:00:17Z</time></trkpt><trkpt lat="44.94423958855578" lon="11.796690669332905"><ele>1.3333333333333333</ele><time>2026-04-18T13:00:20Z</time></trkpt><trkpt lat="44.94428348637014" lon="11.796780555790244"><ele>1.1666666666666665</ele><time>2026-04-18T13:00:23Z</time></trkpt><trkpt lat="44.94435249446073" lon="11.796880490436747"><ele>1.0</ele><time>2026-04-18T13:00:26Z</time></trkpt><trkpt lat="44.94440798767519" lon="11.796982981477345"><ele>0.8</ele><time>2026-04-18T13:00:28Z</time></trkpt><trkpt lat="44.94446919531049" lon="11.797088425084189"><ele>0.6000000000000001</ele><time>2026-04-18T13:00:30Z</time></trkpt><trkpt lat="44.9445331044098" lon="11.797191197891562"><ele>0.4</ele><time>2026-04-18T13:00:32Z</time></trkpt><trkpt lat="44.94457907083959" lon="11.797302564026205"><ele>0.2</ele><time>2026-04-18T13:00:34Z</time></trkpt><trkpt lat="44.94463759407377" lon="11.797413536057991"><ele>0.0</ele><time>2026-04-18T13:00:36Z</time></trkpt><trkpt lat="44.94470421496371" lon="11.797515507633243"><ele>0.0</ele><time>2026-04-18T13:00:38Z</time></trkpt><trkpt lat="44.94476173117803" lon="11.797629277827895"><ele>0.0</ele><time>2026-04-18T13:00:40Z</time></trkpt><trkpt lat="44.94482923242591" lon="11.797735636427678"><ele>0.0</ele><time>2026-04-18T13:00:42Z</time></trkpt><trkpt lat="44.9448928626234" lon="11.797850230575634"><ele>0.0</ele><time>2026-04-18T13:00:44Z</time></trkpt><trkpt lat="44.94495942039491" lon="11.797961364247296"><ele>0.0</ele><time>2026-04-18T13:00:46Z</time></trkpt><trkpt lat="44.94502082096527" lon="11.798073714725188"><ele>0.0</ele><time>2026-04-18T13:00:48Z</time></trkpt><trkpt lat="44.945086256994955" lon="11.798182523445885"><ele>0.0</ele><time>2026-04-18T13:00:50Z</time></trkpt><trkpt lat="44.945153698382825" lon="11.798289589164455"><ele>0.0</ele><time>2026-04-18T13:00:52Z</time></trkpt><trkpt lat="44.94521820384273" lon="11.798387033061925"><ele>0.0</ele><time>2026-04-18T13:00:54Z</time></trkpt><trkpt lat="44.94528555081491" lon="11.79848490607223"><ele>0.0</ele><time>2026-04-18T13:00:56Z</time></trkpt><trkpt lat="44.945348107874736" lon="11.798580097342628"><ele>0.0</ele><time>2026-04-18T13:00:58Z</time></trkpt><trkpt lat="44.94538893527333" lon="11.798691874343213"><ele>0.0</ele><time>2026-04-18T13:01:00Z</time></trkpt><trkpt lat="44.94532162409798" lon="11.798789333246654"><ele>0.0</ele><time>2026-04-18T13:01:02Z</time></trkpt><trkpt lat="44.94521131380612" lon="11.798817018015528"><ele>0.0</ele><time>2026-04-18T13:01:04Z</time></trkpt><trkpt lat="44.94510900122459" lon="11.798796227493568"><ele>0.0</ele><time>2026-04-18T13:01:06Z</time></trkpt><trkpt lat="44.94501364991589" lon="11.798776723791779"><ele>-0.2</ele><time>2026-04-18T13:01:08Z</time></trkpt><trkpt lat="44.94493045898227" lon="11.798763853198976"><ele>-0.4</ele><time>2026-04-18T13:01:10Z</time></trkpt><trkpt lat="44.94483795326078" lon="11.798751680240306"><ele>-0.6000000000000001</ele><time>2026-04-18T13:01:12Z</time></trkpt><trkpt lat="44.94474476159038" lon="11.798740382654142"><ele>-0.8</ele><time>2026-04-18T13:01:14Z</time></trkpt><trkpt lat="44.94464590873132" lon="11.798739609100288"><ele>-1.0</ele><time>2026-04-18T13:01:16Z</time></trkpt><trkpt lat="44.94454741675264" lon="11.798730009360314"><ele>-1.0</ele><time>2026-04-18T13:01:18Z</time></trkpt><trkpt lat="44.94444809237732" lon="11.798717502901518"><ele>-1.0</ele><time>2026-04-18T13:01:20Z</time></trkpt><trkpt lat="44.944350077608355" lon="11.798708642619149"><ele>-1.0</ele><time>2026-04-18T13:01:22Z</time></trkpt><trkpt lat="44.94425476305251" lon="11.798706115326585"><ele>-1.0</ele><time>2026-04-18T13:01:24Z</time></trkpt><trkpt lat="44.94416650297493" lon="11.798696877515018"><ele>-1.0</ele><time>2026-04-18T13:01:26Z</time></trkpt><trkpt lat="44.94407851879352" lon="11.798688281626118"><ele>-0.6000000000000001</ele><time>2026-04-18T13:01:28Z</time></trkpt><trkpt lat="44.9439825859554" lon="11.798678742823274"><ele>-0.20000000000000007</ele><time>2026-04-18T13:01:30Z</time></trkpt><trkpt lat="44.94388810575329" lon="11.798668788008849"><ele>0.20000000000000007</ele><time>2026-04-18T13:01:32Z</time></trkpt><trkpt lat="44.9437849081354" lon="11.798663870508735"><ele>0.6000000000000001</ele><time>2026-04-18T13:01:34Z</time></trkpt><trkpt lat="44.94369031275195" lon="11.798646508468986"><ele>1.0</ele><time>2026-04-18T13:01:36Z</time></trkpt><trkpt lat="44.94360221463883" lon="11.798641202350785"><ele>0.9999999999999999</ele><time>2026-04-18T13:01:38Z</time></trkpt><trkpt lat="44.943519977908046" lon="11.79862678082229"><ele>1.0</ele><time>2026-04-18T13:01:40Z</time></trkpt><trkpt lat="44.94342697786685" lon="11.798618126507227"><ele>1.0</ele><time>2026-04-18T13:01:42Z</time></trkpt><trkpt lat="44.94333026763346" lon="11.798602437889059"><ele>1.0</ele><time>2026-04-18T13:01:44Z</time></trkpt><trkpt lat="44.943236200514455" lon="11.798594576437175"><ele>0.9999999999999999</ele><time>2026-04-18T13:01:46Z</time></trkpt><trkpt lat="44.94315555272353" lon="11.798592849927887"><ele>1.0</ele><time>2026-04-18T13:01:48Z</time></trkpt><trkpt lat="44.94307024961408" lon="11.798571789927234"><ele>0.9999999999999999</ele><time>2026-04-18T13:01:50Z</time></trkpt><trkpt lat="44.94298722935056" lon="11.798570360665058"><ele>1.0</ele><time>2026-04-18T13:01:52Z</time></trkpt><trkpt lat="44.9429144298671" lon="11.798554327794996"><ele>1.0</ele><time>2026-04-18T13:01:54Z</time></trkpt><trkpt lat="44.942841099090494" lon="11.79854981407989"><ele>1.0</ele><time>2026-04-18T13:01:56Z</time></trkpt><trkpt lat="44.94277471714673" lon="11.798543702818852"><ele>0.9999999999999999</ele><time>2026-04-18T13:01:58Z</time></trkpt><trkpt lat="44.94268819436478" lon="11.798533519619497"><ele>1.0</ele><time>2026-04-18T13:02:00Z</time></trkpt><trkpt lat="44.94261549169619" lon="11.798521337611914"><ele>0.9999999999999999</ele><time>2026-04-18T13:02:02Z</time></trkpt><trkpt lat="44.942549310002434" lon="11.798514628306823"><ele>1.0</ele><time>2026-04-18T13:02:04Z</time></trkpt><trkpt lat="44.94245724996929" lon="11.798511915254867"><ele>1.0</ele><time>2026-04-18T13:02:07Z</time></trkpt><trkpt lat="44.942379234839585" lon="11.798516618759335"><ele>1.0</ele><time>2026-04-18T13:02:10Z</time></trkpt><trkpt lat="44.94235078112179" lon="11.79859749374071"><ele>0.9999999999999999</ele><time>2026-04-18T13:02:12Z</time></trkpt><trkpt lat="44.94231186783015" lon="11.798700751612335"><ele>1.0</ele><time>2026-04-18T13:02:14Z</time></trkpt><trkpt lat="44.94229062207526" lon="11.79882681641262"><ele>0.9999999999999999</ele><time>2026-04-18T13:02:16Z</time></trkpt><trkpt lat="44.94230086345793" lon="11.798954140975457"><ele>1.0</ele><time>2026-04-18T13:02:18Z</time></trkpt><trkpt lat="44.942298250407745" lon="11.799066875402142"><ele>1.0</ele><time>2026-04-18T13:02:20Z</time></trkpt><trkpt lat="44.94230035015661" lon="11.799175020915527"><ele>1.0</ele><time>2026-04-18T13:02:22Z</time></trkpt><trkpt lat="44.9423020488578" lon="11.79929755492248"><ele>0.9999999999999999</ele><time>2026-04-18T13:02:24Z</time></trkpt><trkpt lat="44.94230779331111" lon="11.799430245116458"><ele>1.0</ele><time>2026-04-18T13:02:26Z</time></trkpt><trkpt lat="44.94231312062747" lon="11.79956670816542"><ele>1.0</ele><time>2026-04-18T13:02:28Z</time></trkpt><trkpt lat="44.942320581380784" lon="11.79970582890587"><ele>1.0</ele><time>2026-04-18T13:02:30Z</time></trkpt><trkpt lat="44.94232819940948" lon="11.799845699756949"><ele>1.0</ele><time>2026-04-18T13:02:32Z</time></trkpt><trkpt lat="44.94232928843821" lon="11.799981350538687"><ele>1.0</ele><time>2026-04-18T13:02:34Z</time></trkpt><trkpt lat="44.94233671149587" lon="11.800108373588257"><ele>1.0</ele><time>2026-04-18T13:02:36Z</time></trkpt><trkpt lat="44.94234279964354" lon="11.800228324241596"><ele>1.0</ele><time>2026-04-18T13:02:38Z</time></trkpt><trkpt lat="44.94234751723543" lon="11.800359044323722"><ele>1.0</ele><time>2026-04-18T13:02:40Z</time></trkpt><trkpt lat="44.94235459535404" lon="11.800497403299008"><ele>1.0</ele><time>2026-04-18T13:02:42Z</time></trkpt><trkpt lat="44.94236356223648" lon="11.80063399484543"><ele>1.0</ele><time>2026-04-18T13:02:44Z</time></trkpt><trkpt lat="44.942372742166185" lon="11.800774339735954"><ele>1.0</ele><time>2026-04-18T13:02:46Z</time></trkpt><trkpt lat="44.94237737565825" lon="11.80090792174541"><ele>0.8</ele><time>2026-04-18T13:02:48Z</time></trkpt><trkpt lat="44.94237920685944" lon="11.801046100645372"><ele>0.6000000000000001</ele><time>2026-04-18T13:02:50Z</time></trkpt><trkpt lat="44.942380934152204" lon="11.801184780209429"><ele>0.4</ele><time>2026-04-18T13:02:52Z</time></trkpt><trkpt lat="44.94237381477041" lon="11.801323867699233"><ele>0.2</ele><time>2026-04-18T13:02:54Z</time></trkpt><trkpt lat="44.94235793889034" lon="11.801457731943618"><ele>0.0</ele><time>2026-04-18T13:02:56Z</time></trkpt><trkpt lat="44.94232171062446" lon="11.801587089087677"><ele>0.0</ele><time>2026-04-18T13:02:58Z</time></trkpt><trkpt lat="44.94228620787169" lon="11.801713680105644"><ele>0.0</ele><time>2026-04-18T13:03:00Z</time></trkpt><trkpt lat="44.9422599224886" lon="11.801849561322953"><ele>0.0</ele><time>2026-04-18T13:03:02Z</time></trkpt><trkpt lat="44.94223340890056" lon="11.801990040669319"><ele>0.0</ele><time>2026-04-18T13:03:04Z</time></trkpt><trkpt lat="44.94222515883477" lon="11.802134847297165"><ele>0.0</ele><time>2026-04-18T13:03:06Z</time></trkpt><trkpt lat="44.942227858706175" lon="11.802280479070362"><ele>-0.2</ele><time>2026-04-18T13:03:08Z</time></trkpt><trkpt lat="44.942245993211024" lon="11.80241762653598"><ele>-0.4</ele><time>2026-04-18T13:03:10Z</time></trkpt><trkpt lat="44.94226628645756" lon="11.802551806461828"><ele>-0.6000000000000001</ele><time>2026-04-18T13:03:12Z</time></trkpt><trkpt lat="44.94229050676288" lon="11.802687600136228"><ele>-0.8</ele><time>2026-04-18T13:03:14Z</time></trkpt><trkpt lat="44.94231005464836" lon="11.802820340711692"><ele>-1.0</ele><time>2026-04-18T13:03:16Z</time></trkpt><trkpt lat="44.94233323782499" lon="11.802942246732789"><ele>-1.2000000000000002</ele><time>2026-04-18T13:03:18Z</time></trkpt><trkpt lat="44.94236216680338" lon="11.80306671936759"><ele>-1.4000000000000001</ele><time>2026-04-18T13:03:20Z</time></trkpt><trkpt lat="44.94238874206858" lon="11.803201253252137"><ele>-1.6</ele><time>2026-04-18T13:03:22Z</time></trkpt><trkpt lat="44.9424155557513" lon="11.803335237394823"><ele>-1.8</ele><time>2026-04-18T13:03:24Z</time></trkpt><trkpt lat="44.9424386756278" lon="11.803464111814712"><ele>-2.0</ele><time>2026-04-18T13:03:26Z</time></trkpt><trkpt lat="44.94246897109466" lon="11.803599364155232"><ele>-2.0</ele><time>2026-04-18T13:03:28Z</time></trkpt><trkpt lat="44.942496784052615" lon="11.803738853667687"><ele>-2.0</ele><time>2026-04-18T13:03:30Z</time></trkpt><trkpt lat="44.94252946749843" lon="11.80386752462027"><ele>-2.0</ele><time>2026-04-18T13:03:32Z</time></trkpt><trkpt lat="44.94255271302157" lon="11.803986270078557"><ele>-2.0</ele><time>2026-04-18T13:03:34Z</time></trkpt><trkpt lat="44.94257819561995" lon="11.804101953635215"><ele>-2.0</ele><time>2026-04-18T13:03:36Z</time></trkpt><trkpt lat="44.942600849618024" lon="11.804217352832953"><ele>-1.4000000000000001</ele><time>2026-04-18T13:03:38Z</time></trkpt><trkpt lat="44.94262669943121" lon="11.80434917810486"><ele>-0.8000000000000002</ele><time>2026-04-18T13:03:40Z</time></trkpt><trkpt lat="44.94264907946126" lon="11.804482038622787"><ele>-0.19999999999999996</ele><time>2026-04-18T13:03:42Z</time></trkpt><trkpt lat="44.942670951393964" lon="11.80461667547793"><ele>0.4</ele><time>2026-04-18T13:03:44Z</time></trkpt><trkpt lat="44.942691002893554" lon="11.804751948675364"><ele>1.0</ele><time>2026-04-18T13:03:46Z</time></trkpt><trkpt lat="44.94270687972821" lon="11.804887305690233"><ele>1.0</ele><time>2026-04-18T13:03:48Z</time></trkpt><trkpt lat="44.94272567318744" lon="11.805021234881218"><ele>1.0</ele><time>2026-04-18T13:03:50Z</time></trkpt><trkpt lat="44.94274193020161" lon="11.805155276118317"><ele>1.0</ele><time>2026-04-18T13:03:52Z</time></trkpt><trkpt lat="44.942756130916905" lon="11.805293004251588"><ele>1.0</ele><time>2026-04-18T13:03:54Z</time></trkpt><trkpt lat="44.94276237092937" lon="11.805432928936598"><ele>1.0</ele><time>2026-04-18T13:03:56Z</time></trkpt><trkpt lat="44.942770281690684" lon="11.80556795208865"><ele>1.0</ele><time>2026-04-18T13:03:58Z</time></trkpt><trkpt lat="44.94277816234397" lon="11.805705062320826"><ele>1.0</ele><time>2026-04-18T13:04:00Z</time></trkpt><trkpt lat="44.94278514098576" lon="11.805845353086148"><ele>1.0</ele><time>2026-04-18T13:04:02Z</time></trkpt><trkpt lat="44.94279380603307" lon="11.805986044627316"><ele>1.0</ele><time>2026-04-18T13:04:04Z</time></trkpt><trkpt lat="44.942791907191676" lon="11.806129337972209"><ele>1.0</ele><time>2026-04-18T13:04:06Z</time></trkpt><trkpt lat="44.9427904650929" lon="11.806268644007982"><ele>1.0</ele><time>2026-04-18T13:04:08Z</time></trkpt><trkpt lat="44.94278608184514" lon="11.806407076975153"><ele>1.0</ele><time>2026-04-18T13:04:10Z</time></trkpt><trkpt lat="44.94278315909646" lon="11.806543011755176"><ele>1.0</ele><time>2026-04-18T13:04:12Z</time></trkpt><trkpt lat="44.94276961442967" lon="11.806678974025713"><ele>1.0</ele><time>2026-04-18T13:04:14Z</time></trkpt><trkpt lat="44.94276343697699" lon="11.806817429419926"><ele>1.0</ele><time>2026-04-18T13:04:16Z</time></trkpt><trkpt lat="44.942753860499316" lon="11.806946219480956"><ele>0.8333333333333333</ele><time>2026-04-18T13:04:18Z</time></trkpt><trkpt lat="44.94273995625207" lon="11.807061008597284"><ele>0.6666666666666666</ele><time>2026-04-18T13:04:20Z</time></trkpt><trkpt lat="44.94272068164039" lon="11.807169986691093"><ele>0.5</ele><time>2026-04-18T13:04:22Z</time></trkpt><trkpt lat="44.94269850373055" lon="11.807296172303694"><ele>0.3333333333333333</ele><time>2026-04-18T13:04:24Z</time></trkpt><trkpt lat="44.942677963307446" lon="11.807430162403877"><ele>0.16666666666666666</ele><time>2026-04-18T13:04:26Z</time></trkpt><trkpt lat="44.94265324406279" lon="11.807562559268247"><ele>0.0</ele><time>2026-04-18T13:04:28Z</time></trkpt><trkpt lat="44.942622398338266" lon="11.807693150663733"><ele>0.0</ele><time>2026-04-18T13:04:30Z</time></trkpt><trkpt lat="44.942573460554364" lon="11.80781827008437"><ele>0.0</ele><time>2026-04-18T13:04:32Z</time></trkpt><trkpt lat="44.94253699489247" lon="11.807948984694823"><ele>0.0</ele><time>2026-04-18T13:04:34Z</time></trkpt><trkpt lat="44.942483995305906" lon="11.808065728145422"><ele>0.0</ele><time>2026-04-18T13:04:36Z</time></trkpt><trkpt lat="44.942432691207486" lon="11.808182695663099"><ele>0.0</ele><time>2026-04-18T13:04:38Z</time></trkpt><trkpt lat="44.94237596221494" lon="11.808293792088296"><ele>0.0</ele><time>2026-04-18T13:04:40Z</time></trkpt><trkpt lat="44.94231767364037" lon="11.808406094381152"><ele>0.0</ele><time>2026-04-18T13:04:42Z</time></trkpt><trkpt lat="44.94226029740882" lon="11.808511542968555"><ele>0.0</ele><time>2026-04-18T13:04:44Z</time></trkpt><trkpt lat="44.94220582380249" lon="11.808608482356043"><ele>0.0</ele><time>2026-04-18T13:04:46Z</time></trkpt><trkpt lat="44.94216128080774" lon="11.808706672953486"><ele>0.0</ele><time>2026-04-18T13:04:48Z</time></trkpt><trkpt lat="44.9421122408154" lon="11.808791295335274"><ele>0.0</ele><time>2026-04-18T13:04:50Z</time></trkpt><trkpt lat="44.94207016174335" lon="11.80886605581691"><ele>-0.16666666666666666</ele><time>2026-04-18T13:04:52Z</time></trkpt><trkpt lat="44.94202177133622" lon="11.808957989921074"><ele>-0.3333333333333333</ele><time>2026-04-18T13:04:54Z</time></trkpt><trkpt lat="44.941970483288806" lon="11.809061992707608"><ele>-0.5</ele><time>2026-04-18T13:04:56Z</time></trkpt><trkpt lat="44.94193534051042" lon="11.809156648537307"><ele>-0.6666666666666666</ele><time>2026-04-18T13:04:58Z</time></trkpt><trkpt lat="44.94191471284486" lon="11.809253738753991"><ele>-0.8333333333333333</ele><time>2026-04-18T13:05:00Z</time></trkpt><trkpt lat="44.94192422583195" lon="11.809346245905036"><ele>-1.0</ele><time>2026-04-18T13:05:02Z</time></trkpt><trkpt lat="44.941950428383954" lon="11.809433392369359"><ele>-1.0</ele><time>2026-04-18T13:05:04Z</time></trkpt><trkpt lat="44.94200283139415" lon="11.809535957469677"><ele>-1.0</ele><time>2026-04-18T13:05:06Z</time></trkpt><trkpt lat="44.942069538006876" lon="11.809640622991726"><ele>-1.0</ele><time>2026-04-18T13:05:08Z</time></trkpt><trkpt lat="44.942136400246994" lon="11.809736494496043"><ele>-1.0</ele><time>2026-04-18T13:05:10Z</time></trkpt><trkpt lat="44.94219818566518" lon="11.80982092130839"><ele>-1.0</ele><time>2026-04-18T13:05:12Z</time></trkpt><trkpt lat="44.942256949205884" lon="11.809907152244852"><ele>-1.0</ele><time>2026-04-18T13:05:14Z</time></trkpt><trkpt lat="44.942314693538805" lon="11.809986991243035"><ele>-1.0</ele><time>2026-04-18T13:05:16Z</time></trkpt><trkpt lat="44.94238015511973" lon="11.810087883395477"><ele>-1.0</ele><time>2026-04-18T13:05:18Z</time></trkpt><trkpt lat="44.942451783538914" lon="11.81018456469897"><ele>-1.0</ele><time>2026-04-18T13:05:20Z</time></trkpt><trkpt lat="44.942522795333886" lon="11.810284564772111"><ele>-1.0</ele><time>2026-04-18T13:05:22Z</time></trkpt><trkpt lat="44.94259878975257" lon="11.810380884311375"><ele>-0.8</ele><time>2026-04-18T13:05:24Z</time></trkpt><trkpt lat="44.9426793182325" lon="11.810463281395222"><ele>-0.6000000000000001</ele><time>2026-04-18T13:05:26Z</time></trkpt><trkpt lat="44.94275712505391" lon="11.810537827316212"><ele>-0.4</ele><time>2026-04-18T13:05:28Z</time></trkpt><trkpt lat="44.94284823301967" lon="11.810598545435129"><ele>-0.2</ele><time>2026-04-18T13:05:30Z</time></trkpt><trkpt lat="44.94293624414622" lon="11.81066707034346"><ele>0.0</ele><time>2026-04-18T13:05:32Z</time></trkpt><trkpt lat="44.94302505614963" lon="11.810725977275554"><ele>0.0</ele><time>2026-04-18T13:05:34Z</time></trkpt><trkpt lat="44.94312017812322" lon="11.81078460462993"><ele>0.0</ele><time>2026-04-18T13:05:36Z</time></trkpt><trkpt lat="44.94321722831357" lon="11.81082224951096"><ele>0.0</ele><time>2026-04-18T13:05:38Z</time></trkpt><trkpt lat="44.94331706085064" lon="11.810860720625461"><ele>0.0</ele><time>2026-04-18T13:05:40Z</time></trkpt><trkpt lat="44.943418510550245" lon="11.810895148515124"><ele>0.0</ele><time>2026-04-18T13:05:42Z</time></trkpt><trkpt lat="44.94351253596741" lon="11.810927278707425"><ele>0.0</ele><time>2026-04-18T13:05:44Z</time></trkpt><trkpt lat="44.94360058753611" lon="11.810966625353657"><ele>0.0</ele><time>2026-04-18T13:05:46Z</time></trkpt><trkpt lat="44.943694195155786" lon="11.810997154892538"><ele>0.0</ele><time>2026-04-18T13:05:48Z</time></trkpt><trkpt lat="44.94379180535261" lon="11.811026652507335"><ele>0.0</ele><time>2026-04-18T13:05:50Z</time></trkpt><trkpt lat="44.943888495968125" lon="11.811070713105828"><ele>0.0</ele><time>2026-04-18T13:05:52Z</time></trkpt><trkpt lat="44.94399253463083" lon="11.811099452782628"><ele>0.0</ele><time>2026-04-18T13:05:54Z</time></trkpt><trkpt lat="44.944090237852244" lon="11.811136356614972"><ele>0.0</ele><time>2026-04-18T13:05:56Z</time></trkpt><trkpt lat="44.944186714420475" lon="11.811164623007494"><ele>0.0</ele><time>2026-04-18T13:05:58Z</time></trkpt><trkpt lat="44.94428575928766" lon="11.811202957541045"><ele>0.0</ele><time>2026-04-18T13:06:00Z</time></trkpt><trkpt lat="44.94438669777131" lon="11.81123434261495"><ele>0.0</ele><time>2026-04-18T13:06:02Z</time></trkpt><trkpt lat="44.94448614522433" lon="11.811259806742932"><ele>-0.2</ele><time>2026-04-18T13:06:04Z</time></trkpt><trkpt lat="44.944581868537746" lon="11.81130211267478"><ele>-0.4</ele><time>2026-04-18T13:06:06Z</time></trkpt><trkpt lat="44.944681583571" lon="11.811330329132623"><ele>-0.6000000000000001</ele><time>2026-04-18T13:06:08Z</time></trkpt><trkpt lat="44.9447811888261" lon="11.811363753296535"><ele>-0.8</ele><time>2026-04-18T13:06:10Z</time></trkpt><trkpt lat="44.94488092482933" lon="11.811396651118974"><ele>-1.0</ele><time>2026-04-18T13:06:12Z</time></trkpt><trkpt lat="44.94497685827229" lon="11.811437790024204"><ele>-0.8</ele><time>2026-04-18T13:06:14Z</time></trkpt><trkpt lat="44.94507132255498" lon="11.811484991123109"><ele>-0.6000000000000001</ele><time>2026-04-18T13:06:16Z</time></trkpt><trkpt lat="44.94516683077516" lon="11.81154074612057"><ele>-0.4</ele><time>2026-04-18T13:06:18Z</time></trkpt><trkpt lat="44.945258370044854" lon="11.811600571276278"><ele>-0.2</ele><time>2026-04-18T13:06:20Z</time></trkpt><trkpt lat="44.94534950273506" lon="11.81165812806958"><ele>0.0</ele><time>2026-04-18T13:06:22Z</time></trkpt><trkpt lat="44.94544329339569" lon="11.811714155484973"><ele>0.0</ele><time>2026-04-18T13:06:24Z</time></trkpt><trkpt lat="44.94553563651673" lon="11.81177173903002"><ele>0.0</ele><time>2026-04-18T13:06:26Z</time></trkpt><trkpt lat="44.94563009486501" lon="11.811826861742398"><ele>0.0</ele><time>2026-04-18T13:06:28Z</time></trkpt><trkpt lat="44.94572134829814" lon="11.811881603317964"><ele>0.0</ele><time>2026-04-18T13:06:30Z</time></trkpt><trkpt lat="44.94581561436243" lon="11.811934518509062"><ele>0.0</ele><time>2026-04-18T13:06:32Z</time></trkpt><trkpt lat="44.94590651061729" lon="11.812000438016337"><ele>-0.16666666666666666</ele><time>2026-04-18T13:06:34Z</time></trkpt><trkpt lat="44.94599761660064" lon="11.812057706471354"><ele>-0.3333333333333333</ele><time>2026-04-18T13:06:36Z</time></trkpt><trkpt lat="44.94608075297154" lon="11.812106750744537"><ele>-0.5</ele><time>2026-04-18T13:06:38Z</time></trkpt><trkpt lat="44.946157132606174" lon="11.812157019295782"><ele>-0.6666666666666666</ele><time>2026-04-18T13:06:40Z</time></trkpt><trkpt lat="44.94622894037832" lon="11.812205218161306"><ele>-0.8333333333333333</ele><time>2026-04-18T13:06:42Z</time></trkpt><trkpt lat="44.946298865216086" lon="11.812246617336195"><ele>-1.0</ele><time>2026-04-18T13:06:44Z</time></trkpt><trkpt lat="44.946379362622395" lon="11.812299183326061"><ele>-0.9999999999999999</ele><time>2026-04-18T13:06:46Z</time></trkpt><trkpt lat="44.94645086667173" lon="11.812373258717049"><ele>-1.0</ele><time>2026-04-18T13:06:48Z</time></trkpt><trkpt lat="44.94648421775264" lon="11.812471694995724"><ele>-1.0</ele><time>2026-04-18T13:06:50Z</time></trkpt><trkpt lat="44.946493586443296" lon="11.812567075688406"><ele>-1.0</ele><time>2026-04-18T13:06:52Z</time></trkpt><trkpt lat="44.94649664951887" lon="11.812698095284064"><ele>-0.9999999999999999</ele><time>2026-04-18T13:06:55Z</time></trkpt><trkpt lat="44.94649392284598" lon="11.81280725942268"><ele>-1.0</ele><time>2026-04-18T13:06:57Z</time></trkpt><trkpt lat="44.94648737207503" lon="11.812916559886254"><ele>-0.49999999999999994</ele><time>2026-04-18T13:06:59Z</time></trkpt><trkpt lat="44.94648942496755" lon="11.813025949622338"><ele>0.0</ele><time>2026-04-18T13:07:01Z</time></trkpt><trkpt lat="44.94648713974447" lon="11.813149036603482"><ele>0.5</ele><time>2026-04-18T13:07:03Z</time></trkpt><trkpt lat="44.946470458803134" lon="11.813252868019223"><ele>1.0</ele><time>2026-04-18T13:07:05Z</time></trkpt><trkpt lat="44.946478200631404" lon="11.813370365638953"><ele>1.4999999999999998</ele><time>2026-04-18T13:07:07Z</time></trkpt><trkpt lat="44.946475511654405" lon="11.813506072102633"><ele>2.0</ele><time>2026-04-18T13:07:09Z</time></trkpt><trkpt lat="44.94647337834577" lon="11.813640529022946"><ele>2.0</ele><time>2026-04-18T13:07:11Z</time></trkpt><trkpt lat="44.94647531154223" lon="11.813769783913331"><ele>2.0</ele><time>2026-04-18T13:07:13Z</time></trkpt><trkpt lat="44.94647181081302" lon="11.813901189571947"><ele>2.0</ele><time>2026-04-18T13:07:15Z</time></trkpt><trkpt lat="44.94647153276526" lon="11.814037643271806"><ele>2.0</ele><time>2026-04-18T13:07:17Z</time></trkpt><trkpt lat="44.9464699801117" lon="11.814176525868968"><ele>2.0</ele><time>2026-04-18T13:07:19Z</time></trkpt><trkpt lat="44.946468244553856" lon="11.814315154612117"><ele>1.6666666666666665</ele><time>2026-04-18T13:07:21Z</time></trkpt><trkpt lat="44.946461076306065" lon="11.814443432338924"><ele>1.3333333333333333</ele><time>2026-04-18T13:07:23Z</time></trkpt><trkpt lat="44.94645949331939" lon="11.814562157879887"><ele>1.0</ele><time>2026-04-18T13:07:25Z</time></trkpt><trkpt lat="44.94645881112196" lon="11.814672078814004"><ele>0.6666666666666666</ele><time>2026-04-18T13:07:27Z</time></trkpt><trkpt lat="44.94646422206591" lon="11.814793308467637"><ele>0.3333333333333333</ele><time>2026-04-18T13:07:29Z</time></trkpt><trkpt lat="44.946467590492745" lon="11.814929367799655"><ele>0.0</ele><time>2026-04-18T13:07:31Z</time></trkpt><trkpt lat="44.94648233222036" lon="11.815059271026188"><ele>0.0</ele><time>2026-04-18T13:07:33Z</time></trkpt><trkpt lat="44.94647237677074" lon="11.815180107571894"><ele>0.0</ele><time>2026-04-18T13:07:35Z</time></trkpt><trkpt lat="44.94646500023525" lon="11.81530791338145"><ele>0.0</ele><time>2026-04-18T13:07:37Z</time></trkpt><trkpt lat="44.946466841566995" lon="11.815438706630419"><ele>0.0</ele><time>2026-04-18T13:07:39Z</time></trkpt><trkpt lat="44.94646105269201" lon="11.815565633708719"><ele>0.0</ele><time>2026-04-18T13:07:41Z</time></trkpt><trkpt lat="44.94646760401158" lon="11.81568163959083"><ele>0.0</ele><time>2026-04-18T13:07:43Z</time></trkpt><trkpt lat="44.94645973308229" lon="11.815812406141129"><ele>0.0</ele><time>2026-04-18T13:07:45Z</time></trkpt><trkpt lat="44.946464836546355" lon="11.815952916711534"><ele>0.0</ele><time>2026-04-18T13:07:47Z</time></trkpt><trkpt lat="44.94646473087954" lon="11.816088780743993"><ele>0.0</ele><time>2026-04-18T13:07:49Z</time></trkpt><trkpt lat="44.946462612912974" lon="11.81622437704334"><ele>0.0</ele><time>2026-04-18T13:07:51Z</time></trkpt><trkpt lat="44.94646080871733" lon="11.816366513799093"><ele>0.0</ele><time>2026-04-18T13:07:53Z</time></trkpt><trkpt lat="44.946460657314255" lon="11.81650610118465"><ele>0.0</ele><time>2026-04-18T13:07:55Z</time></trkpt><trkpt lat="44.94646491676182" lon="11.816642797834287"><ele>0.0</ele><time>2026-04-18T13:07:57Z</time></trkpt><trkpt lat="44.9464675243375" lon="11.816778848379313"><ele>0.0</ele><time>2026-04-18T13:07:59Z</time></trkpt><trkpt lat="44.9464684881282" lon="11.816912209262233"><ele>0.0</ele><time>2026-04-18T13:08:01Z</time></trkpt><trkpt lat="44.94646425139311" lon="11.817050835377023"><ele>0.0</ele><time>2026-04-18T13:08:03Z</time></trkpt><trkpt lat="44.94646623665733" lon="11.817182434299845"><ele>0.0</ele><time>2026-04-18T13:08:05Z</time></trkpt><trkpt lat="44.94646746285967" lon="11.817313002997327"><ele>0.0</ele><time>2026-04-18T13:08:07Z</time></trkpt><trkpt lat="44.94646503737272" lon="11.817445413910297"><ele>0.0</ele><time>2026-04-18T13:08:09Z</time></trkpt><trkpt lat="44.946465942847226" lon="11.817580703562408"><ele>0.0</ele><time>2026-04-18T13:08:11Z</time></trkpt><trkpt lat="44.946469647752814" lon="11.81770516188439"><ele>0.0</ele><time>2026-04-18T13:08:13Z</time></trkpt><trkpt lat="44.946467936926474" lon="11.817813372585034"><ele>0.0</ele><time>2026-04-18T13:08:15Z</time></trkpt><trkpt lat="44.94646836608785" lon="11.817916597955605"><ele>-0.16666666666666666</ele><time>2026-04-18T13:08:17Z</time></trkpt><trkpt lat="44.94647228777869" lon="11.81802880877023"><ele>-0.3333333333333333</ele><time>2026-04-18T13:08:19Z</time></trkpt><trkpt lat="44.946464624230266" lon="11.8181555471462"><ele>-0.5</ele><time>2026-04-18T13:08:21Z</time></trkpt><trkpt lat="44.94645966196675" lon="11.818271941860718"><ele>-0.6666666666666666</ele><time>2026-04-18T13:08:23Z</time></trkpt><trkpt lat="44.94645637983518" lon="11.818384694956254"><ele>-0.8333333333333333</ele><time>2026-04-18T13:08:25Z</time></trkpt><trkpt lat="44.946454194055974" lon="11.818485792253519"><ele>-1.0</ele><time>2026-04-18T13:08:27Z</time></trkpt><trkpt lat="44.946458840677415" lon="11.818583607844248"><ele>-1.1666666666666665</ele><time>2026-04-18T13:08:29Z</time></trkpt><trkpt lat="44.94645843587201" lon="11.818712849739768"><ele>-1.3333333333333333</ele><time>2026-04-18T13:08:32Z</time></trkpt><trkpt lat="44.946457120975786" lon="11.81882891677968"><ele>-1.5</ele><time>2026-04-18T13:08:34Z</time></trkpt><trkpt lat="44.9464602883215" lon="11.818953591050931"><ele>-1.6666666666666665</ele><time>2026-04-18T13:08:36Z</time></trkpt><trkpt lat="44.94646085775652" lon="11.819068361519545"><ele>-1.8333333333333333</ele><time>2026-04-18T13:08:38Z</time></trkpt><trkpt lat="44.94646311142251" lon="11.819178907622328"><ele>-2.0</ele><time>2026-04-18T13:08:40Z</time></trkpt><trkpt lat="44.94646900573633" lon="11.8193055383643"><ele>-2.1666666666666665</ele><time>2026-04-18T13:08:42Z</time></trkpt><trkpt lat="44.946475326199746" lon="11.819437354783252"><ele>-2.333333333333333</ele><time>2026-04-18T13:08:44Z</time></trkpt><trkpt lat="44.9464741633198" lon="11.819557723292833"><ele>-2.5</ele><time>2026-04-18T13:08:46Z</time></trkpt><trkpt lat="44.94647380857501" lon="11.819672667040482"><ele>-2.6666666666666665</ele><time>2026-04-18T13:08:48Z</time></trkpt><trkpt lat="44.94647227651105" lon="11.819804461345228"><ele>-2.8333333333333335</ele><time>2026-04-18T13:08:50Z</time></trkpt><trkpt lat="44.94647602560382" lon="11.819930180074433"><ele>-3.0</ele><time>2026-04-18T13:08:52Z</time></trkpt><trkpt lat="44.94647661670536" lon="11.820047702311628"><ele>-2.9999999999999996</ele><time>2026-04-18T13:08:54Z</time></trkpt><trkpt lat="44.94647966267468" lon="11.820152999461097"><ele>-3.0</ele><time>2026-04-18T13:08:56Z</time></trkpt><trkpt lat="44.94647921039276" lon="11.820248936593273"><ele>-3.0</ele><time>2026-04-18T13:08:58Z</time></trkpt><trkpt lat="44.94647779930401" lon="11.820345612458416"><ele>-3.0</ele><time>2026-04-18T13:09:00Z</time></trkpt><trkpt lat="44.94647229006494" lon="11.820469871385997"><ele>-3.0</ele><time>2026-04-18T13:09:02Z</time></trkpt><trkpt lat="44.94646902212837" lon="11.820575890674505"><ele>-2.9999999999999996</ele><time>2026-04-18T13:09:04Z</time></trkpt><trkpt lat="44.94646747649565" lon="11.820674953068833"><ele>-3.0</ele><time>2026-04-18T13:09:06Z</time></trkpt><trkpt lat="44.94646980858334" lon="11.820765908419617"><ele>-3.0</ele><time>2026-04-18T13:09:08Z</time></trkpt><trkpt lat="44.94646564077448" lon="11.820905191455099"><ele>-3.0</ele><time>2026-04-18T13:09:11Z</time></trkpt><trkpt lat="44.94646346693041" lon="11.82103779310708"><ele>-3.0</ele><time>2026-04-18T13:09:13Z</time></trkpt><trkpt lat="44.94646009992346" lon="11.821173195148829"><ele>-3.0</ele><time>2026-04-18T13:09:15Z</time></trkpt><trkpt lat="44.94646192739539" lon="11.821307468289108"><ele>-3.0</ele><time>2026-04-18T13:09:17Z</time></trkpt><trkpt lat="44.94646411607147" lon="11.821441180719292"><ele>-2.8</ele><time>2026-04-18T13:09:19Z</time></trkpt><trkpt lat="44.94647573224075" lon="11.821573139227828"><ele>-2.5999999999999996</ele><time>2026-04-18T13:09:21Z</time></trkpt><trkpt lat="44.9464829657013" lon="11.821707002310214"><ele>-2.4000000000000004</ele><time>2026-04-18T13:09:23Z</time></trkpt><trkpt lat="44.94647594942462" lon="11.821836762558732"><ele>-2.2</ele><time>2026-04-18T13:09:25Z</time></trkpt><trkpt lat="44.946482223152515" lon="11.821969804831566"><ele>-2.0</ele><time>2026-04-18T13:09:27Z</time></trkpt><trkpt lat="44.94648798344645" lon="11.822100028296521"><ele>-1.8</ele><time>2026-04-18T13:09:29Z</time></trkpt><trkpt lat="44.9464908344953" lon="11.82222506314399"><ele>-1.6</ele><time>2026-04-18T13:09:31Z</time></trkpt><trkpt lat="44.94648415405881" lon="11.822355739728156"><ele>-1.4000000000000001</ele><time>2026-04-18T13:09:33Z</time></trkpt><trkpt lat="44.94648987262925" lon="11.822491353078036"><ele>-1.2000000000000002</ele><time>2026-04-18T13:09:35Z</time></trkpt><trkpt lat="44.946482787771814" lon="11.822626766816205"><ele>-1.0</ele><time>2026-04-18T13:09:37Z</time></trkpt><trkpt lat="44.94648694268447" lon="11.822761225958065"><ele>-1.0</ele><time>2026-04-18T13:09:39Z</time></trkpt><trkpt lat="44.946489801232" lon="11.822958431705178"><ele>-1.0</ele><time>2026-04-18T13:09:42Z</time></trkpt><trkpt lat="44.94648988533931" lon="11.823087581255534"><ele>-1.0</ele><time>2026-04-18T13:09:44Z</time></trkpt><trkpt lat="44.94649471434812" lon="11.823227016475673"><ele>-1.0</ele><time>2026-04-18T13:09:46Z</time></trkpt><trkpt lat="44.946492770773744" lon="11.823357205513153"><ele>-1.0</ele><time>2026-04-18T13:09:48Z</time></trkpt><trkpt lat="44.94649138307949" lon="11.823490224579709"><ele>-1.0</ele><time>2026-04-18T13:09:50Z</time></trkpt><trkpt lat="44.94649887590893" lon="11.823626923028533"><ele>-1.0</ele><time>2026-04-18T13:09:52Z</time></trkpt><trkpt lat="44.94649339795635" lon="11.823764386750884"><ele>-1.0</ele><time>2026-04-18T13:09:54Z</time></trkpt><trkpt lat="44.94649029046606" lon="11.82390037518983"><ele>-1.0</ele><time>2026-04-18T13:09:56Z</time></trkpt><trkpt lat="44.94648790332512" lon="11.824037070155182"><ele>-1.0</ele><time>2026-04-18T13:09:58Z</time></trkpt><trkpt lat="44.94648930946055" lon="11.824179429701868"><ele>-1.2000000000000002</ele><time>2026-04-18T13:10:00Z</time></trkpt><trkpt lat="44.94648963550102" lon="11.824319582028528"><ele>-1.4000000000000001</ele><time>2026-04-18T13:10:02Z</time></trkpt><trkpt lat="44.946490657568994" lon="11.82445704520218"><ele>-1.6</ele><time>2026-04-18T13:10:04Z</time></trkpt><trkpt lat="44.94649056283654" lon="11.82460074226937"><ele>-1.8</ele><time>2026-04-18T13:10:06Z</time></trkpt><trkpt lat="44.94649337169085" lon="11.824736143153679"><ele>-2.0</ele><time>2026-04-18T13:10:08Z</time></trkpt><trkpt lat="44.94649583795673" lon="11.824876144702564"><ele>-2.0</ele><time>2026-04-18T13:10:10Z</time></trkpt><trkpt lat="44.946498762653015" lon="11.825013577660558"><ele>-2.0</ele><time>2026-04-18T13:10:12Z</time></trkpt><trkpt lat="44.94650091107645" lon="11.82514692399444"><ele>-2.0</ele><time>2026-04-18T13:10:14Z</time></trkpt><trkpt lat="44.94650285491105" lon="11.825286426828303"><ele>-2.0</ele><time>2026-04-18T13:10:16Z</time></trkpt><trkpt lat="44.946502403775575" lon="11.825424396471997"><ele>-2.0</ele><time>2026-04-18T13:10:18Z</time></trkpt><trkpt lat="44.94650194605934" lon="11.825557356231025"><ele>-1.9999999999999998</ele><time>2026-04-18T13:10:20Z</time></trkpt><trkpt lat="44.94649785271435" lon="11.825669990666212"><ele>-2.0</ele><time>2026-04-18T13:10:22Z</time></trkpt><trkpt lat="44.94650163962304" lon="11.825773620088288"><ele>-2.0</ele><time>2026-04-18T13:10:24Z</time></trkpt><trkpt lat="44.94650291455896" lon="11.825885209067643"><ele>-2.0</ele><time>2026-04-18T13:10:26Z</time></trkpt><trkpt lat="44.94650032917323" lon="11.82601547911412"><ele>-1.9999999999999998</ele><time>2026-04-18T13:10:28Z</time></trkpt><trkpt lat="44.9464982070635" lon="11.826148767421559"><ele>-2.0</ele><time>2026-04-18T13:10:30Z</time></trkpt><trkpt lat="44.946500190896835" lon="11.826284016219457"><ele>-1.8</ele><time>2026-04-18T13:10:32Z</time></trkpt><trkpt lat="44.9464973080996" lon="11.826419230862154"><ele>-1.6</ele><time>2026-04-18T13:10:34Z</time></trkpt><trkpt lat="44.94649781353853" lon="11.826555138837602"><ele>-1.4000000000000001</ele><time>2026-04-18T13:10:36Z</time></trkpt><trkpt lat="44.94649885497814" lon="11.826692451136363"><ele>-1.2000000000000002</ele><time>2026-04-18T13:10:38Z</time></trkpt><trkpt lat="44.94649930351056" lon="11.826823957065365"><ele>-1.0</ele><time>2026-04-18T13:10:40Z</time></trkpt><trkpt lat="44.94649121053206" lon="11.826943310206506"><ele>-1.0</ele><time>2026-04-18T13:10:42Z</time></trkpt><trkpt lat="44.946498923758305" lon="11.827053140031552"><ele>-1.0</ele><time>2026-04-18T13:10:44Z</time></trkpt><trkpt lat="44.94649977462774" lon="11.827179854270277"><ele>-1.0</ele><time>2026-04-18T13:10:46Z</time></trkpt><trkpt lat="44.94649853826736" lon="11.82731405949444"><ele>-1.0</ele><time>2026-04-18T13:10:48Z</time></trkpt><trkpt lat="44.946501194222925" lon="11.82745060024436"><ele>-1.0</ele><time>2026-04-18T13:10:50Z</time></trkpt><trkpt lat="44.9464958820843" lon="11.82758871961946"><ele>-1.2000000000000002</ele><time>2026-04-18T13:10:52Z</time></trkpt><trkpt lat="44.946491255912925" lon="11.827723405175231"><ele>-1.4000000000000001</ele><time>2026-04-18T13:10:54Z</time></trkpt><trkpt lat="44.94649674878332" lon="11.827863381592604"><ele>-1.6</ele><time>2026-04-18T13:10:56Z</time></trkpt><trkpt lat="44.94648931074042" lon="11.827997389446702"><ele>-1.8</ele><time>2026-04-18T13:10:58Z</time></trkpt><trkpt lat="44.946490059396616" lon="11.82812488049344"><ele>-2.0</ele><time>2026-04-18T13:11:00Z</time></trkpt><trkpt lat="44.94649690644045" lon="11.828241192568171"><ele>-2.0</ele><time>2026-04-18T13:11:02Z</time></trkpt><trkpt lat="44.9464897608429" lon="11.82836364112245"><ele>-2.0</ele><time>2026-04-18T13:11:04Z</time></trkpt><trkpt lat="44.94649494513512" lon="11.828502661422071"><ele>-2.0</ele><time>2026-04-18T13:11:06Z</time></trkpt><trkpt lat="44.94649443257708" lon="11.828636338036828"><ele>-2.0</ele><time>2026-04-18T13:11:08Z</time></trkpt><trkpt lat="44.94648641328055" lon="11.828772535124141"><ele>-2.0</ele><time>2026-04-18T13:11:10Z</time></trkpt><trkpt lat="44.94649269309587" lon="11.82890071887832"><ele>-1.8333333333333333</ele><time>2026-04-18T13:11:12Z</time></trkpt><trkpt lat="44.94649355513315" lon="11.8290159726364"><ele>-1.6666666666666665</ele><time>2026-04-18T13:11:14Z</time></trkpt><trkpt lat="44.9464862775214" lon="11.829120615975157"><ele>-1.5</ele><time>2026-04-18T13:11:16Z</time></trkpt><trkpt lat="44.94648363596199" lon="11.829218850301013"><ele>-1.3333333333333333</ele><time>2026-04-18T13:11:18Z</time></trkpt><trkpt lat="44.94648915909854" lon="11.829325525913257"><ele>-1.1666666666666665</ele><time>2026-04-18T13:11:20Z</time></trkpt><trkpt lat="44.94649073301832" lon="11.829461943386624"><ele>-1.0</ele><time>2026-04-18T13:11:22Z</time></trkpt><trkpt lat="44.94649089007321" lon="11.829592998802868"><ele>-0.8333333333333333</ele><time>2026-04-18T13:11:24Z</time></trkpt><trkpt lat="44.94648719451241" lon="11.829716812384152"><ele>-0.6666666666666666</ele><time>2026-04-18T13:11:26Z</time></trkpt><trkpt lat="44.94648522808417" lon="11.829825590708515"><ele>-0.5</ele><time>2026-04-18T13:11:28Z</time></trkpt><trkpt lat="44.9464961590393" lon="11.829926710582617"><ele>-0.3333333333333333</ele><time>2026-04-18T13:11:30Z</time></trkpt><trkpt lat="44.94649641855042" lon="11.830045485114336"><ele>-0.16666666666666666</ele><time>2026-04-18T13:11:33Z</time></trkpt><trkpt lat="44.94648355140706" lon="11.830147253089303"><ele>0.0</ele><time>2026-04-18T13:11:37Z</time></trkpt><trkpt lat="44.94648680076738" lon="11.830247071446642"><ele>0.0</ele><time>2026-04-18T13:11:39Z</time></trkpt><trkpt lat="44.94649759843675" lon="11.830349040678856"><ele>0.0</ele><time>2026-04-18T13:11:41Z</time></trkpt><trkpt lat="44.94649963416113" lon="11.830447906224716"><ele>0.0</ele><time>2026-04-18T13:11:43Z</time></trkpt><trkpt lat="44.94651178626828" lon="11.830571719858126"><ele>0.0</ele><time>2026-04-18T13:11:45Z</time></trkpt><trkpt lat="44.94650995652316" lon="11.830682060816196"><ele>0.0</ele><time>2026-04-18T13:11:47Z</time></trkpt><trkpt lat="44.94650686240778" lon="11.830793232990674"><ele>0.0</ele><time>2026-04-18T13:11:49Z</time></trkpt><trkpt lat="44.94649716261649" lon="11.830922661673148"><ele>-0.2</ele><time>2026-04-18T13:11:51Z</time></trkpt><trkpt lat="44.946503001951235" lon="11.831057180552605"><ele>-0.4</ele><time>2026-04-18T13:11:53Z</time></trkpt><trkpt lat="44.94650376555001" lon="11.831193667407904"><ele>-0.6000000000000001</ele><time>2026-04-18T13:11:55Z</time></trkpt><trkpt lat="44.946502903563555" lon="11.831324042136654"><ele>-0.8</ele><time>2026-04-18T13:11:57Z</time></trkpt><trkpt lat="44.946495222003435" lon="11.831455591040532"><ele>-1.0</ele><time>2026-04-18T13:11:59Z</time></trkpt><trkpt lat="44.94652294477686" lon="11.831578443541376"><ele>-1.0</ele><time>2026-04-18T13:12:01Z</time></trkpt><trkpt lat="44.94652139618906" lon="11.831701163083705"><ele>-1.0</ele><time>2026-04-18T13:12:03Z</time></trkpt><trkpt lat="44.946518195096516" lon="11.831835539087686"><ele>-1.0</ele><time>2026-04-18T13:12:05Z</time></trkpt><trkpt lat="44.94651760882214" lon="11.831966450169121"><ele>-1.0</ele><time>2026-04-18T13:12:07Z</time></trkpt><trkpt lat="44.946513565063185" lon="11.832105191527743"><ele>-1.0</ele><time>2026-04-18T13:12:09Z</time></trkpt><trkpt lat="44.94651218780566" lon="11.832243561861237"><ele>-1.1666666666666665</ele><time>2026-04-18T13:12:11Z</time></trkpt><trkpt lat="44.946516409624806" lon="11.832385912803312"><ele>-1.3333333333333333</ele><time>2026-04-18T13:12:13Z</time></trkpt><trkpt lat="44.946511094560265" lon="11.832511367609087"><ele>-1.5</ele><time>2026-04-18T13:12:15Z</time></trkpt><trkpt lat="44.9465107789987" lon="11.832637145469866"><ele>-1.6666666666666665</ele><time>2026-04-18T13:12:17Z</time></trkpt><trkpt lat="44.946510040590304" lon="11.832747314352117"><ele>-1.8333333333333333</ele><time>2026-04-18T13:12:19Z</time></trkpt><trkpt lat="44.94649788153729" lon="11.832846342712921"><ele>-2.0</ele><time>2026-04-18T13:12:21Z</time></trkpt><trkpt lat="44.946503217153335" lon="11.832939396748731"><ele>-1.9999999999999998</ele><time>2026-04-18T13:12:23Z</time></trkpt><trkpt lat="44.94650256532207" lon="11.83307082958534"><ele>-2.0</ele><time>2026-04-18T13:12:26Z</time></trkpt><trkpt lat="44.94650571179284" lon="11.833204984984084"><ele>-2.0</ele><time>2026-04-18T13:12:28Z</time></trkpt><trkpt lat="44.94650282175649" lon="11.833328830864042"><ele>-2.0</ele><time>2026-04-18T13:12:30Z</time></trkpt><trkpt lat="44.94650197329202" lon="11.833452720000167"><ele>-1.9999999999999998</ele><time>2026-04-18T13:12:32Z</time></trkpt><trkpt lat="44.94650494319361" lon="11.833562462248171"><ele>-2.0</ele><time>2026-04-18T13:12:34Z</time></trkpt><trkpt lat="44.94650159280254" lon="11.833674154691419"><ele>-2.0</ele><time>2026-04-18T13:12:36Z</time></trkpt><trkpt lat="44.94650569569809" lon="11.833813458080755"><ele>-2.0</ele><time>2026-04-18T13:12:38Z</time></trkpt><trkpt lat="44.946510914504834" lon="11.833951289231994"><ele>-2.0</ele><time>2026-04-18T13:12:40Z</time></trkpt><trkpt lat="44.9465086682894" lon="11.834087366441533"><ele>-2.0</ele><time>2026-04-18T13:12:42Z</time></trkpt><trkpt lat="44.9465129845854" lon="11.834227568405232"><ele>-2.0</ele><time>2026-04-18T13:12:44Z</time></trkpt><trkpt lat="44.94651446355394" lon="11.834366403690368"><ele>-2.0</ele><time>2026-04-18T13:12:46Z</time></trkpt><trkpt lat="44.94651394780181" lon="11.834507478307351"><ele>-2.0</ele><time>2026-04-18T13:12:48Z</time></trkpt><trkpt lat="44.94650981261743" lon="11.834644176583252"><ele>-2.0</ele><time>2026-04-18T13:12:50Z</time></trkpt><trkpt lat="44.94650510051842" lon="11.834783585032215"><ele>-2.0</ele><time>2026-04-18T13:12:52Z</time></trkpt><trkpt lat="44.946506446532794" lon="11.834917405165363"><ele>-2.0</ele><time>2026-04-18T13:12:54Z</time></trkpt><trkpt lat="44.94650857015876" lon="11.83504368759516"><ele>-1.9999999999999998</ele><time>2026-04-18T13:12:56Z</time></trkpt><trkpt lat="44.94652029617566" lon="11.835162754686074"><ele>-2.0</ele><time>2026-04-18T13:12:58Z</time></trkpt><trkpt lat="44.94651340095693" lon="11.835270420403438"><ele>-2.0</ele><time>2026-04-18T13:13:00Z</time></trkpt><trkpt lat="44.946505787981465" lon="11.835384535961438"><ele>-2.0</ele><time>2026-04-18T13:13:02Z</time></trkpt><trkpt lat="44.9465041667013" lon="11.835513020626008"><ele>-1.9999999999999998</ele><time>2026-04-18T13:13:04Z</time></trkpt><trkpt lat="44.94650056468862" lon="11.835631649391145"><ele>-2.0</ele><time>2026-04-18T13:13:06Z</time></trkpt><trkpt lat="44.9464995869967" lon="11.835760975429078"><ele>-2.0</ele><time>2026-04-18T13:13:08Z</time></trkpt><trkpt lat="44.94650544576685" lon="11.835893900648669"><ele>-2.0</ele><time>2026-04-18T13:13:10Z</time></trkpt><trkpt lat="44.94651174536268" lon="11.836031916774301"><ele>-2.0</ele><time>2026-04-18T13:13:12Z</time></trkpt><trkpt lat="44.9465172775028" lon="11.836172453616111"><ele>-2.0</ele><time>2026-04-18T13:13:14Z</time></trkpt><trkpt lat="44.9465178606997" lon="11.8363090554313"><ele>-2.0</ele><time>2026-04-18T13:13:16Z</time></trkpt><trkpt lat="44.94651515046692" lon="11.836445129468286"><ele>-1.6</ele><time>2026-04-18T13:13:18Z</time></trkpt><trkpt lat="44.946517847856335" lon="11.836584382034845"><ele>-1.2000000000000002</ele><time>2026-04-18T13:13:20Z</time></trkpt><trkpt lat="44.94651551683351" lon="11.836717550433157"><ele>-0.8</ele><time>2026-04-18T13:13:22Z</time></trkpt><trkpt lat="44.946509315788134" lon="11.836851662103532"><ele>-0.4</ele><time>2026-04-18T13:13:24Z</time></trkpt><trkpt lat="44.94651034263135" lon="11.836990638985638"><ele>0.0</ele><time>2026-04-18T13:13:26Z</time></trkpt><trkpt lat="44.94650848210019" lon="11.837129997950177"><ele>0.0</ele><time>2026-04-18T13:13:28Z</time></trkpt><trkpt lat="44.94650421023733" lon="11.837266831984088"><ele>0.0</ele><time>2026-04-18T13:13:30Z</time></trkpt><trkpt lat="44.946506905811056" lon="11.837407606980715"><ele>0.0</ele><time>2026-04-18T13:13:32Z</time></trkpt><trkpt lat="44.946510834533086" lon="11.837544924866124"><ele>0.0</ele><time>2026-04-18T13:13:34Z</time></trkpt><trkpt lat="44.94650486905181" lon="11.83768296453049"><ele>0.0</ele><time>2026-04-18T13:13:36Z</time></trkpt><trkpt lat="44.9465091716276" lon="11.837820614347091"><ele>0.0</ele><time>2026-04-18T13:13:38Z</time></trkpt><trkpt lat="44.94651516758558" lon="11.837955506707699"><ele>0.0</ele><time>2026-04-18T13:13:40Z</time></trkpt><trkpt lat="44.946521697856184" lon="11.838087703425108"><ele>0.0</ele><time>2026-04-18T13:13:42Z</time></trkpt><trkpt lat="44.94652586906507" lon="11.838209407137718"><ele>0.0</ele><time>2026-04-18T13:13:44Z</time></trkpt><trkpt lat="44.94652967473108" lon="11.838334303965578"><ele>0.0</ele><time>2026-04-18T13:13:46Z</time></trkpt><trkpt lat="44.94653345210983" lon="11.838471863063834"><ele>0.0</ele><time>2026-04-18T13:13:48Z</time></trkpt><trkpt lat="44.94653416918274" lon="11.838603213550712"><ele>0.0</ele><time>2026-04-18T13:13:50Z</time></trkpt><trkpt lat="44.9465152329812" lon="11.838721403910244"><ele>0.0</ele><time>2026-04-18T13:13:52Z</time></trkpt><trkpt lat="44.94651211159715" lon="11.838827561512394"><ele>0.0</ele><time>2026-04-18T13:13:54Z</time></trkpt><trkpt lat="44.94654413856648" lon="11.838940819439806"><ele>0.0</ele><time>2026-04-18T13:13:56Z</time></trkpt><trkpt lat="44.94653495467344" lon="11.839082763602715"><ele>0.0</ele><time>2026-04-18T13:13:58Z</time></trkpt><trkpt lat="44.94652681906461" lon="11.839215830378519"><ele>-0.16666666666666666</ele><time>2026-04-18T13:14:00Z</time></trkpt><trkpt lat="44.946531717738004" lon="11.839341429338427"><ele>-0.3333333333333333</ele><time>2026-04-18T13:14:02Z</time></trkpt><trkpt lat="44.946527502863795" lon="11.839462856993096"><ele>-0.5</ele><time>2026-04-18T13:14:04Z</time></trkpt><trkpt lat="44.94653171256239" lon="11.839587467845957"><ele>-0.6666666666666666</ele><time>2026-04-18T13:14:06Z</time></trkpt><trkpt lat="44.9465337372293" lon="11.839721698325791"><ele>-0.8333333333333333</ele><time>2026-04-18T13:14:08Z</time></trkpt><trkpt lat="44.946522493359225" lon="11.839844811300754"><ele>-1.0</ele><time>2026-04-18T13:14:10Z</time></trkpt><trkpt lat="44.94650955735431" lon="11.839952816414893"><ele>-0.9999999999999999</ele><time>2026-04-18T13:14:12Z</time></trkpt><trkpt lat="44.9465050219816" lon="11.840063486881725"><ele>-1.0</ele><time>2026-04-18T13:14:14Z</time></trkpt><trkpt lat="44.9465148351415" lon="11.840191986663172"><ele>-1.0</ele><time>2026-04-18T13:14:16Z</time></trkpt><trkpt lat="44.94651594228498" lon="11.840312126867481"><ele>-1.0</ele><time>2026-04-18T13:14:18Z</time></trkpt><trkpt lat="44.946522880445315" lon="11.840424059988678"><ele>-0.9999999999999999</ele><time>2026-04-18T13:14:20Z</time></trkpt><trkpt lat="44.94654339694731" lon="11.840550825304035"><ele>-1.0</ele><time>2026-04-18T13:14:22Z</time></trkpt><trkpt lat="44.94654653056164" lon="11.840687879628447"><ele>-1.4</ele><time>2026-04-18T13:14:24Z</time></trkpt><trkpt lat="44.94654800934843" lon="11.84081850184953"><ele>-1.8</ele><time>2026-04-18T13:14:26Z</time></trkpt><trkpt lat="44.94654127487127" lon="11.840950979451108"><ele>-2.1999999999999997</ele><time>2026-04-18T13:14:28Z</time></trkpt><trkpt lat="44.9465437402113" lon="11.841075339081396"><ele>-2.6</ele><time>2026-04-18T13:14:30Z</time></trkpt><trkpt lat="44.946538078617024" lon="11.84119655818954"><ele>-3.0</ele><time>2026-04-18T13:14:32Z</time></trkpt><trkpt lat="44.9465398839219" lon="11.841327648390056"><ele>-3.0</ele><time>2026-04-18T13:14:34Z</time></trkpt><trkpt lat="44.946542619361054" lon="11.841470750989062"><ele>-3.0</ele><time>2026-04-18T13:14:36Z</time></trkpt><trkpt lat="44.946549075073996" lon="11.841610728040658"><ele>-3.0</ele><time>2026-04-18T13:14:38Z</time></trkpt><trkpt lat="44.94654447384384" lon="11.841748597403454"><ele>-3.0</ele><time>2026-04-18T13:14:40Z</time></trkpt><trkpt lat="44.94654324722316" lon="11.84188335634328"><ele>-3.0</ele><time>2026-04-18T13:14:42Z</time></trkpt><trkpt lat="44.94654160277773" lon="11.841990107655032"><ele>-3.0</ele><time>2026-04-18T13:14:44Z</time></trkpt><trkpt lat="44.94654854169916" lon="11.842097374255566"><ele>-3.0</ele><time>2026-04-18T13:14:46Z</time></trkpt><trkpt lat="44.94653728676007" lon="11.842217451097389"><ele>-3.0</ele><time>2026-04-18T13:14:48Z</time></trkpt><trkpt lat="44.946533515019254" lon="11.842335392887719"><ele>-3.0</ele><time>2026-04-18T13:14:50Z</time></trkpt><trkpt lat="44.946529070085774" lon="11.842442928096938"><ele>-3.0</ele><time>2026-04-18T13:14:52Z</time></trkpt><trkpt lat="44.946512011597456" lon="11.842535993250172"><ele>-3.0</ele><time>2026-04-18T13:14:54Z</time></trkpt><trkpt lat="44.94651364263552" lon="11.842659096866175"><ele>-2.8333333333333335</ele><time>2026-04-18T13:14:57Z</time></trkpt><trkpt lat="44.946520087454275" lon="11.84275160002075"><ele>-2.6666666666666665</ele><time>2026-04-18T13:15:00Z</time></trkpt><trkpt lat="44.94651567359169" lon="11.842841529918028"><ele>-2.5</ele><time>2026-04-18T13:15:04Z</time></trkpt><trkpt lat="44.946516299696796" lon="11.842953335544351"><ele>-2.333333333333333</ele><time>2026-04-18T13:15:10Z</time></trkpt><trkpt lat="44.94651194878832" lon="11.843095877854164"><ele>-2.1666666666666665</ele><time>2026-04-18T13:15:13Z</time></trkpt><trkpt lat="44.946512186879474" lon="11.843210801894967"><ele>-2.0</ele><time>2026-04-18T13:15:15Z</time></trkpt><trkpt lat="44.94651911608605" lon="11.84330871522542"><ele>-1.9999999999999998</ele><time>2026-04-18T13:15:17Z</time></trkpt><trkpt lat="44.94651023078093" lon="11.843398477825588"><ele>-2.0</ele><time>2026-04-18T13:15:19Z</time></trkpt><trkpt lat="44.94651403311073" lon="11.84351055788164"><ele>-2.0</ele><time>2026-04-18T13:15:21Z</time></trkpt><trkpt lat="44.94651453891117" lon="11.843638244821271"><ele>-2.0</ele><time>2026-04-18T13:15:23Z</time></trkpt><trkpt lat="44.946519975805074" lon="11.843768930814045"><ele>-1.9999999999999998</ele><time>2026-04-18T13:15:25Z</time></trkpt><trkpt lat="44.946525963248796" lon="11.843898102149902"><ele>-2.0</ele><time>2026-04-18T13:15:27Z</time></trkpt><trkpt lat="44.946530942524404" lon="11.844025194746333"><ele>-2.2</ele><time>2026-04-18T13:15:29Z</time></trkpt><trkpt lat="44.94654210883391" lon="11.84416055696931"><ele>-2.4000000000000004</ele><time>2026-04-18T13:15:31Z</time></trkpt><trkpt lat="44.946541958033556" lon="11.844296782833991"><ele>-2.5999999999999996</ele><time>2026-04-18T13:15:33Z</time></trkpt><trkpt lat="44.94655129538741" lon="11.844434323760485"><ele>-2.8</ele><time>2026-04-18T13:15:35Z</time></trkpt><trkpt lat="44.946550537231005" lon="11.844568423969912"><ele>-3.0</ele><time>2026-04-18T13:15:37Z</time></trkpt><trkpt lat="44.946559233832346" lon="11.844706644988396"><ele>-3.0</ele><time>2026-04-18T13:15:39Z</time></trkpt><trkpt lat="44.94655841884138" lon="11.844839896931772"><ele>-3.0</ele><time>2026-04-18T13:15:41Z</time></trkpt><trkpt lat="44.9465487479383" lon="11.844953154823237"><ele>-3.0</ele><time>2026-04-18T13:15:43Z</time></trkpt><trkpt lat="44.94654762397499" lon="11.845072667238204"><ele>-3.0</ele><time>2026-04-18T13:15:45Z</time></trkpt><trkpt lat="44.946541127630425" lon="11.845201730413926"><ele>-3.0</ele><time>2026-04-18T13:15:47Z</time></trkpt><trkpt lat="44.94654583370986" lon="11.845331621270203"><ele>-3.0</ele><time>2026-04-18T13:15:49Z</time></trkpt><trkpt lat="44.94654864256655" lon="11.84546514681513"><ele>-3.0</ele><time>2026-04-18T13:15:51Z</time></trkpt><trkpt lat="44.94654253431197" lon="11.84558670653778"><ele>-3.0</ele><time>2026-04-18T13:15:53Z</time></trkpt><trkpt lat="44.94654311616252" lon="11.845713540915323"><ele>-3.0</ele><time>2026-04-18T13:15:55Z</time></trkpt><trkpt lat="44.94654235267534" lon="11.845844328014403"><ele>-3.0</ele><time>2026-04-18T13:15:57Z</time></trkpt><trkpt lat="44.94654428174525" lon="11.845980198800614"><ele>-3.0</ele><time>2026-04-18T13:15:59Z</time></trkpt><trkpt lat="44.946545413698104" lon="11.846112448317074"><ele>-3.0</ele><time>2026-04-18T13:16:01Z</time></trkpt><trkpt lat="44.946530655141046" lon="11.846243435738804"><ele>-3.0</ele><time>2026-04-18T13:16:03Z</time></trkpt><trkpt lat="44.94653593022781" lon="11.84637430094276"><ele>-3.0</ele><time>2026-04-18T13:16:05Z</time></trkpt><trkpt lat="44.94653007205399" lon="11.846496795591694"><ele>-3.0</ele><time>2026-04-18T13:16:07Z</time></trkpt><trkpt lat="44.94652765200233" lon="11.84660982715716"><ele>-3.0</ele><time>2026-04-18T13:16:09Z</time></trkpt><trkpt lat="44.94652504093968" lon="11.846716409970277"><ele>-3.0</ele><time>2026-04-18T13:16:11Z</time></trkpt><trkpt lat="44.94652250705196" lon="11.846817967583599"><ele>-2.8571428571428568</ele><time>2026-04-18T13:16:13Z</time></trkpt><trkpt lat="44.94650272728569" lon="11.846912905704821"><ele>-2.7142857142857144</ele><time>2026-04-18T13:16:15Z</time></trkpt><trkpt lat="44.946506326413044" lon="11.84703579903952"><ele>-2.571428571428571</ele><time>2026-04-18T13:16:17Z</time></trkpt><trkpt lat="44.94650758963687" lon="11.847148446597558"><ele>-2.4285714285714284</ele><time>2026-04-18T13:16:19Z</time></trkpt><trkpt lat="44.94651134034913" lon="11.847242992385814"><ele>-2.2857142857142856</ele><time>2026-04-18T13:16:21Z</time></trkpt><trkpt lat="44.946520357891195" lon="11.847332957215276"><ele>-2.142857142857143</ele><time>2026-04-18T13:16:23Z</time></trkpt><trkpt lat="44.946531622333794" lon="11.847424007933737"><ele>-2.0</ele><time>2026-04-18T13:16:25Z</time></trkpt><trkpt lat="44.94653574260461" lon="11.84755770901217"><ele>-2.2</ele><time>2026-04-18T13:16:27Z</time></trkpt><trkpt lat="44.94653799799467" lon="11.84769778282599"><ele>-2.4000000000000004</ele><time>2026-04-18T13:16:29Z</time></trkpt><trkpt lat="44.94653685286692" lon="11.847834257177146"><ele>-2.5999999999999996</ele><time>2026-04-18T13:16:31Z</time></trkpt><trkpt lat="44.946535317653066" lon="11.847969188045196"><ele>-2.8</ele><time>2026-04-18T13:16:33Z</time></trkpt><trkpt lat="44.946533262555256" lon="11.848109813050863"><ele>-3.0</ele><time>2026-04-18T13:16:35Z</time></trkpt><trkpt lat="44.94652843793766" lon="11.8482480367841"><ele>-3.0</ele><time>2026-04-18T13:16:37Z</time></trkpt><trkpt lat="44.94652970817831" lon="11.848393016163167"><ele>-3.0</ele><time>2026-04-18T13:16:39Z</time></trkpt><trkpt lat="44.94652803020463" lon="11.84853217604905"><ele>-3.0</ele><time>2026-04-18T13:16:41Z</time></trkpt><trkpt lat="44.94653424056734" lon="11.848669690894859"><ele>-3.0</ele><time>2026-04-18T13:16:43Z</time></trkpt><trkpt lat="44.94653308618307" lon="11.848803759436969"><ele>-3.0</ele><time>2026-04-18T13:16:45Z</time></trkpt><trkpt lat="44.94652890203435" lon="11.848916118063448"><ele>-3.0</ele><time>2026-04-18T13:16:47Z</time></trkpt><trkpt lat="44.94653384452217" lon="11.849034473232027"><ele>-3.0</ele><time>2026-04-18T13:16:49Z</time></trkpt><trkpt lat="44.94653258373198" lon="11.849150891619821"><ele>-3.0</ele><time>2026-04-18T13:16:51Z</time></trkpt><trkpt lat="44.9465372655745" lon="11.84928169382784"><ele>-3.0</ele><time>2026-04-18T13:16:53Z</time></trkpt><trkpt lat="44.94654334497777" lon="11.84942450583718"><ele>-3.0</ele><time>2026-04-18T13:16:55Z</time></trkpt><trkpt lat="44.946561165042084" lon="11.849556586228978"><ele>-3.0</ele><time>2026-04-18T13:16:57Z</time></trkpt><trkpt lat="44.94655447638105" lon="11.849680126011915"><ele>-3.0</ele><time>2026-04-18T13:16:59Z</time></trkpt><trkpt lat="44.946535271733595" lon="11.849788079149295"><ele>-3.0</ele><time>2026-04-18T13:17:01Z</time></trkpt><trkpt lat="44.94654798152355" lon="11.849898324248826"><ele>-3.0</ele><time>2026-04-18T13:17:03Z</time></trkpt><trkpt lat="44.94654388104785" lon="11.849998138543246"><ele>-3.0</ele><time>2026-04-18T13:17:05Z</time></trkpt><trkpt lat="44.94653996170353" lon="11.850088227541896"><ele>-3.0</ele><time>2026-04-18T13:17:07Z</time></trkpt><trkpt lat="44.94654151230512" lon="11.85021081853513"><ele>-2.9999999999999996</ele><time>2026-04-18T13:17:10Z</time></trkpt><trkpt lat="44.946553204254066" lon="11.850303611383843"><ele>-3.0</ele><time>2026-04-18T13:25:43Z</time></trkpt><trkpt lat="44.94654509862403" lon="11.850394718169232"><ele>-3.0</ele><time>2026-04-18T13:25:47Z</time></trkpt><trkpt lat="44.94653955925386" lon="11.850487145545658"><ele>-3.0</ele><time>2026-04-18T13:25:50Z</time></trkpt><trkpt lat="44.94653488463642" lon="11.85057605309095"><ele>-3.0</ele><time>2026-04-18T13:25:53Z</time></trkpt><trkpt lat="44.9465357992374" lon="11.850673629146373"><ele>-2.9999999999999996</ele><time>2026-04-18T13:25:56Z</time></trkpt><trkpt lat="44.94653290441432" lon="11.850763324394514"><ele>-3.0</ele><time>2026-04-18T13:25:58Z</time></trkpt><trkpt lat="44.94653482997662" lon="11.850872728065369"><ele>-2.8333333333333335</ele><time>2026-04-18T13:26:00Z</time></trkpt><trkpt lat="44.94652994941336" lon="11.850965188697513"><ele>-2.6666666666666665</ele><time>2026-04-18T13:26:02Z</time></trkpt><trkpt lat="44.94653913331578" lon="11.851093153108684"><ele>-2.5</ele><time>2026-04-18T13:26:05Z</time></trkpt><trkpt lat="44.94653712332361" lon="11.851203786477425"><ele>-2.333333333333333</ele><time>2026-04-18T13:26:07Z</time></trkpt><trkpt lat="44.94653480257349" lon="11.851327596361063"><ele>-2.1666666666666665</ele><time>2026-04-18T13:26:10Z</time></trkpt><trkpt lat="44.94653175084374" lon="11.851440931432915"><ele>-2.0</ele><time>2026-04-18T13:26:13Z</time></trkpt><trkpt lat="44.94655370856948" lon="11.851545145951587"><ele>-2.0</ele><time>2026-04-18T13:26:44Z</time></trkpt><trkpt lat="44.94653391468819" lon="11.851641609453328"><ele>-1.9999999999999998</ele><time>2026-04-18T13:26:47Z</time></trkpt><trkpt lat="44.94653542012199" lon="11.851735323950935"><ele>-2.0</ele><time>2026-04-18T13:26:50Z</time></trkpt><trkpt lat="44.94653543150652" lon="11.85182617806355"><ele>-2.0</ele><time>2026-04-18T13:26:52Z</time></trkpt><trkpt lat="44.94653526926027" lon="11.851951511488501"><ele>-1.9999999999999998</ele><time>2026-04-18T13:26:54Z</time></trkpt><trkpt lat="44.94653357958786" lon="11.852052150434021"><ele>-2.0</ele><time>2026-04-18T13:26:56Z</time></trkpt><trkpt lat="44.94653438279419" lon="11.852158704759356"><ele>-2.0</ele><time>2026-04-18T13:26:58Z</time></trkpt><trkpt lat="44.94653413792435" lon="11.852274583863508"><ele>-1.8333333333333333</ele><time>2026-04-18T13:27:00Z</time></trkpt><trkpt lat="44.946534100940454" lon="11.852385052062859"><ele>-1.6666666666666665</ele><time>2026-04-18T13:27:02Z</time></trkpt><trkpt lat="44.946538544140495" lon="11.85249238846413"><ele>-1.5</ele><time>2026-04-18T13:27:04Z</time></trkpt><trkpt lat="44.94653888550249" lon="11.852604817341335"><ele>-1.3333333333333333</ele><time>2026-04-18T13:27:06Z</time></trkpt><trkpt lat="44.94654557088673" lon="11.852715129009683"><ele>-1.1666666666666665</ele><time>2026-04-18T13:27:08Z</time></trkpt><trkpt lat="44.94654896317902" lon="11.852840531117002"><ele>-1.0</ele><time>2026-04-18T13:27:10Z</time></trkpt><trkpt lat="44.946542413925144" lon="11.852960619716768"><ele>-0.9999999999999999</ele><time>2026-04-18T13:27:12Z</time></trkpt><trkpt lat="44.94653806977192" lon="11.853064722869469"><ele>-1.0</ele><time>2026-04-18T13:27:14Z</time></trkpt><trkpt lat="44.946532311513934" lon="11.853160075624599"><ele>-1.0</ele><time>2026-04-18T13:27:16Z</time></trkpt><trkpt lat="44.94653222868216" lon="11.85328415974932"><ele>-1.0</ele><time>2026-04-18T13:27:18Z</time></trkpt><trkpt lat="44.94653571440411" lon="11.85339204985161"><ele>-0.9999999999999999</ele><time>2026-04-18T13:27:20Z</time></trkpt><trkpt lat="44.94653791630616" lon="11.853505928907127"><ele>-1.0</ele><time>2026-04-18T13:27:22Z</time></trkpt><trkpt lat="44.94653924247845" lon="11.853633002837224"><ele>-0.9999999999999999</ele><time>2026-04-18T13:27:24Z</time></trkpt><trkpt lat="44.9465388714823" lon="11.853749314785329"><ele>-1.0</ele><time>2026-04-18T13:27:26Z</time></trkpt><trkpt lat="44.94653576471091" lon="11.853862329710088"><ele>-1.0</ele><time>2026-04-18T13:27:28Z</time></trkpt><trkpt lat="44.946532107559655" lon="11.853990687468762"><ele>-1.0</ele><time>2026-04-18T13:27:30Z</time></trkpt><trkpt lat="44.94652552682818" lon="11.854118860789622"><ele>-0.9999999999999999</ele><time>2026-04-18T13:27:32Z</time></trkpt><trkpt lat="44.94652262585167" lon="11.854233997565915"><ele>-1.0</ele><time>2026-04-18T13:27:34Z</time></trkpt><trkpt lat="44.94651486813235" lon="11.85433740109235"><ele>-1.0</ele><time>2026-04-18T13:27:36Z</time></trkpt><trkpt lat="44.94650204877787" lon="11.854450166989984"><ele>-1.0</ele><time>2026-04-18T13:27:38Z</time></trkpt><trkpt lat="44.9464906620643" lon="11.854575624177174"><ele>-1.0</ele><time>2026-04-18T13:27:40Z</time></trkpt><trkpt lat="44.94647768435103" lon="11.85470567869023"><ele>-1.0</ele><time>2026-04-18T13:27:42Z</time></trkpt><trkpt lat="44.94646608879427" lon="11.854832796233179"><ele>-1.0</ele><time>2026-04-18T13:27:44Z</time></trkpt><trkpt lat="44.94644540668215" lon="11.854969693320344"><ele>-1.0</ele><time>2026-04-18T13:27:46Z</time></trkpt><trkpt lat="44.9464342354602" lon="11.855103312201377"><ele>-1.0</ele><time>2026-04-18T13:27:48Z</time></trkpt><trkpt lat="44.94641441503331" lon="11.855234666371734"><ele>-1.0</ele><time>2026-04-18T13:27:50Z</time></trkpt><trkpt lat="44.94639157071616" lon="11.855368729752291"><ele>-1.0</ele><time>2026-04-18T13:27:52Z</time></trkpt><trkpt lat="44.946371909464126" lon="11.855504837931345"><ele>-1.0</ele><time>2026-04-18T13:27:54Z</time></trkpt><trkpt lat="44.94634551973852" lon="11.855641022520533"><ele>-1.0</ele><time>2026-04-18T13:27:56Z</time></trkpt><trkpt lat="44.946329760633475" lon="11.855774157149545"><ele>-1.0</ele><time>2026-04-18T13:27:58Z</time></trkpt><trkpt lat="44.946309397977934" lon="11.8559045039704"><ele>-1.0</ele><time>2026-04-18T13:28:00Z</time></trkpt><trkpt lat="44.94629829228855" lon="11.856037781196067"><ele>-1.0</ele><time>2026-04-18T13:28:02Z</time></trkpt><trkpt lat="44.94627992934867" lon="11.856173312198296"><ele>-1.0</ele><time>2026-04-18T13:28:04Z</time></trkpt><trkpt lat="44.94627061607468" lon="11.856297076291915"><ele>-1.2000000000000002</ele><time>2026-04-18T13:28:06Z</time></trkpt><trkpt lat="44.94625028904054" lon="11.856421702897924"><ele>-1.4000000000000001</ele><time>2026-04-18T13:28:08Z</time></trkpt><trkpt lat="44.94624594655918" lon="11.85655133616459"><ele>-1.6</ele><time>2026-04-18T13:28:10Z</time></trkpt><trkpt lat="44.946228053188015" lon="11.856691498549832"><ele>-1.8</ele><time>2026-04-18T13:28:12Z</time></trkpt><trkpt lat="44.94620707399745" lon="11.856827217698424"><ele>-2.0</ele><time>2026-04-18T13:28:14Z</time></trkpt><trkpt lat="44.946183370176556" lon="11.856961576491177"><ele>-2.0</ele><time>2026-04-18T13:28:16Z</time></trkpt><trkpt lat="44.94616439005141" lon="11.85709649496352"><ele>-2.0</ele><time>2026-04-18T13:28:18Z</time></trkpt><trkpt lat="44.94613856771923" lon="11.857230995016906"><ele>-2.0</ele><time>2026-04-18T13:28:20Z</time></trkpt><trkpt lat="44.946116481956714" lon="11.857370358537482"><ele>-2.0</ele><time>2026-04-18T13:28:22Z</time></trkpt><trkpt lat="44.94609157297309" lon="11.857505647307516"><ele>-2.0</ele><time>2026-04-18T13:28:24Z</time></trkpt><trkpt lat="44.94606512181495" lon="11.85764025218576"><ele>-2.2</ele><time>2026-04-18T13:28:26Z</time></trkpt><trkpt lat="44.946040161845616" lon="11.857773600246428"><ele>-2.4000000000000004</ele><time>2026-04-18T13:28:28Z</time></trkpt><trkpt lat="44.946016606945584" lon="11.857908374852396"><ele>-2.5999999999999996</ele><time>2026-04-18T13:28:30Z</time></trkpt><trkpt lat="44.94599408373606" lon="11.858043398306473"><ele>-2.8</ele><time>2026-04-18T13:28:32Z</time></trkpt><trkpt lat="44.945966697370565" lon="11.858173244214166"><ele>-3.0</ele><time>2026-04-18T13:28:34Z</time></trkpt><trkpt lat="44.945944694396744" lon="11.858310825202373"><ele>-3.0</ele><time>2026-04-18T13:28:36Z</time></trkpt><trkpt lat="44.94591833952766" lon="11.85844727725875"><ele>-3.0</ele><time>2026-04-18T13:28:38Z</time></trkpt><trkpt lat="44.945895248070855" lon="11.858581356245374"><ele>-3.0</ele><time>2026-04-18T13:28:40Z</time></trkpt><trkpt lat="44.94587162904652" lon="11.858718822522265"><ele>-3.0</ele><time>2026-04-18T13:28:42Z</time></trkpt><trkpt lat="44.94584535791777" lon="11.858851541932372"><ele>-3.0</ele><time>2026-04-18T13:28:44Z</time></trkpt><trkpt lat="44.94582419263451" lon="11.858990300644711"><ele>-3.0</ele><time>2026-04-18T13:28:46Z</time></trkpt><trkpt lat="44.945798876726606" lon="11.859124374585452"><ele>-3.0</ele><time>2026-04-18T13:28:48Z</time></trkpt><trkpt lat="44.945771877430246" lon="11.859257759841071"><ele>-3.0</ele><time>2026-04-18T13:28:50Z</time></trkpt><trkpt lat="44.94574664877139" lon="11.859392891262539"><ele>-3.0</ele><time>2026-04-18T13:28:52Z</time></trkpt><trkpt lat="44.94572147831032" lon="11.8595272516946"><ele>-3.0</ele><time>2026-04-18T13:28:54Z</time></trkpt><trkpt lat="44.94569272948546" lon="11.8596585050481"><ele>-2.6666666666666665</ele><time>2026-04-18T13:28:55.999Z</time></trkpt><trkpt lat="44.945665503913276" lon="11.859783685058469"><ele>-2.3333333333333335</ele><time>2026-04-18T13:28:57.999Z</time></trkpt><trkpt lat="44.94565292273362" lon="11.859888244617029"><ele>-2.0</ele><time>2026-04-18T13:28:59.999Z</time></trkpt><trkpt lat="44.945636523337534" lon="11.85998362191503"><ele>-1.6666666666666665</ele><time>2026-04-18T13:29:01.999Z</time></trkpt><trkpt lat="44.945613926917524" lon="11.860102157627994"><ele>-1.3333333333333333</ele><time>2026-04-18T13:29:03.999Z</time></trkpt><trkpt lat="44.94559915790244" lon="11.860208563208214"><ele>-1.0</ele><time>2026-04-18T13:29:05.999Z</time></trkpt><trkpt lat="44.945580430934776" lon="11.860295854320135"><ele>-0.9999999999999999</ele><time>2026-04-18T13:29:07.999Z</time></trkpt><trkpt lat="44.945556909081986" lon="11.860409550046297"><ele>-1.0</ele><time>2026-04-18T13:29:09.999Z</time></trkpt><trkpt lat="44.94553937086074" lon="11.860525321834697"><ele>-1.0</ele><time>2026-04-18T13:29:11.999Z</time></trkpt><trkpt lat="44.945522526509876" lon="11.860630054182474"><ele>-1.0</ele><time>2026-04-18T13:29:13.999Z</time></trkpt><trkpt lat="44.94550828075296" lon="11.860727153841788"><ele>-0.9999999999999999</ele><time>2026-04-18T13:29:15.999Z</time></trkpt><trkpt lat="44.94548563051773" lon="11.860824809438"><ele>-1.0</ele><time>2026-04-18T13:29:17.999Z</time></trkpt><trkpt lat="44.94546830573776" lon="11.860940871836872"><ele>-1.1666666666666665</ele><time>2026-04-18T13:29:19.999Z</time></trkpt><trkpt lat="44.945444746842696" lon="11.861049825060418"><ele>-1.3333333333333333</ele><time>2026-04-18T13:29:21.999Z</time></trkpt><trkpt lat="44.94542961058057" lon="11.861148204409734"><ele>-1.5</ele><time>2026-04-18T13:29:23.999Z</time></trkpt><trkpt lat="44.945408953629624" lon="11.861248935970854"><ele>-1.6666666666666665</ele><time>2026-04-18T13:29:25.999Z</time></trkpt><trkpt lat="44.94538858584647" lon="11.86137284222821"><ele>-1.8333333333333333</ele><time>2026-04-18T13:29:28Z</time></trkpt><trkpt lat="44.94537100350321" lon="11.861465939499025"><ele>-2.0</ele><time>2026-04-18T13:29:30Z</time></trkpt><trkpt lat="44.94534782805436" lon="11.861579054332159"><ele>-1.9999999999999998</ele><time>2026-04-18T13:29:32Z</time></trkpt><trkpt lat="44.94532807642828" lon="11.861688559629368"><ele>-2.0</ele><time>2026-04-18T13:29:34Z</time></trkpt><trkpt lat="44.94530959048129" lon="11.861788992052945"><ele>-2.0</ele><time>2026-04-18T13:29:36Z</time></trkpt><trkpt lat="44.945297247528494" lon="11.861891221439611"><ele>-2.0</ele><time>2026-04-18T13:29:38Z</time></trkpt><trkpt lat="44.945274941391766" lon="11.862000630343006"><ele>-1.9999999999999998</ele><time>2026-04-18T13:29:40Z</time></trkpt><trkpt lat="44.94525516010867" lon="11.862114055579069"><ele>-2.0</ele><time>2026-04-18T13:29:42Z</time></trkpt><trkpt lat="44.94523647947329" lon="11.862215096787295"><ele>-1.9999999999999998</ele><time>2026-04-18T13:29:44Z</time></trkpt><trkpt lat="44.9452196388259" lon="11.86231394048907"><ele>-2.0</ele><time>2026-04-18T13:29:46Z</time></trkpt><trkpt lat="44.94520252169931" lon="11.86242040700426"><ele>-2.0</ele><time>2026-04-18T13:29:48Z</time></trkpt><trkpt lat="44.9451871737932" lon="11.862508021835145"><ele>-2.0</ele><time>2026-04-18T13:29:50Z</time></trkpt><trkpt lat="44.94516969105842" lon="11.862612150501498"><ele>-1.9999999999999998</ele><time>2026-04-18T13:29:52Z</time></trkpt><trkpt lat="44.94514371567787" lon="11.862722267893528"><ele>-2.0</ele><time>2026-04-18T13:29:54Z</time></trkpt><trkpt lat="44.94512172264075" lon="11.862834132533488"><ele>-1.9999999999999998</ele><time>2026-04-18T13:29:56Z</time></trkpt><trkpt lat="44.945100608148906" lon="11.862940564821871"><ele>-2.0</ele><time>2026-04-18T13:29:58Z</time></trkpt><trkpt lat="44.94508100961452" lon="11.863038716322116"><ele>-2.0</ele><time>2026-04-18T13:30:00Z</time></trkpt><trkpt lat="44.94505818431442" lon="11.863161738952225"><ele>-2.0</ele><time>2026-04-18T13:30:02Z</time></trkpt><trkpt lat="44.94502754564403" lon="11.863286901002029"><ele>-1.9999999999999998</ele><time>2026-04-18T13:30:04Z</time></trkpt><trkpt lat="44.94500742714492" lon="11.86340339768246"><ele>-2.0</ele><time>2026-04-18T13:30:06Z</time></trkpt><trkpt lat="44.94498580975377" lon="11.863507812341007"><ele>-1.8333333333333333</ele><time>2026-04-18T13:30:08Z</time></trkpt><trkpt lat="44.94496083756975" lon="11.86360763652214"><ele>-1.6666666666666665</ele><time>2026-04-18T13:30:10Z</time></trkpt><trkpt lat="44.94493854542252" lon="11.86372699945472"><ele>-1.5</ele><time>2026-04-18T13:30:12Z</time></trkpt><trkpt lat="44.94491641912196" lon="11.863834579129415"><ele>-1.3333333333333333</ele><time>2026-04-18T13:30:14Z</time></trkpt><trkpt lat="44.944890734780735" lon="11.863928439853073"><ele>-1.1666666666666665</ele><time>2026-04-18T13:30:16Z</time></trkpt><trkpt lat="44.94486946279895" lon="11.864043423287772"><ele>-1.0</ele><time>2026-04-18T13:30:18Z</time></trkpt><trkpt lat="44.94484719617701" lon="11.864150924119608"><ele>-0.9999999999999999</ele><time>2026-04-18T13:30:20Z</time></trkpt><trkpt lat="44.94481818564221" lon="11.864272164557963"><ele>-1.0</ele><time>2026-04-18T13:30:22Z</time></trkpt><trkpt lat="44.94480131096724" lon="11.864373990800045"><ele>-1.0</ele><time>2026-04-18T13:30:24Z</time></trkpt><trkpt lat="44.944781468342846" lon="11.864463782841467"><ele>-1.0</ele><time>2026-04-18T13:30:26Z</time></trkpt><trkpt lat="44.9447547996458" lon="11.864569091038446"><ele>-0.9999999999999999</ele><time>2026-04-18T13:30:28Z</time></trkpt><trkpt lat="44.94473859797347" lon="11.864662882440998"><ele>-1.0</ele><time>2026-04-18T13:30:30Z</time></trkpt><trkpt lat="44.9447129896366" lon="11.864771412939609"><ele>-1.1666666666666665</ele><time>2026-04-18T13:30:32Z</time></trkpt><trkpt lat="44.94469196169044" lon="11.864875831806643"><ele>-1.3333333333333333</ele><time>2026-04-18T13:30:34Z</time></trkpt><trkpt lat="44.94467446062129" lon="11.864968878961523"><ele>-1.5</ele><time>2026-04-18T13:30:36Z</time></trkpt><trkpt lat="44.944654115205076" lon="11.865095390357268"><ele>-1.6666666666666665</ele><time>2026-04-18T13:30:38Z</time></trkpt><trkpt lat="44.94462680453762" lon="11.865193472636673"><ele>-1.8333333333333333</ele><time>2026-04-18T13:30:40Z</time></trkpt><trkpt lat="44.944605568694286" lon="11.86530371796592"><ele>-2.0</ele><time>2026-04-18T13:30:42Z</time></trkpt><trkpt lat="44.944588302396355" lon="11.86540203498061"><ele>-1.9999999999999998</ele><time>2026-04-18T13:30:44Z</time></trkpt><trkpt lat="44.94456670338741" lon="11.865497960685081"><ele>-2.0</ele><time>2026-04-18T13:30:46Z</time></trkpt><trkpt lat="44.94454672491835" lon="11.865603231711553"><ele>-2.0</ele><time>2026-04-18T13:30:48Z</time></trkpt><trkpt lat="44.944526337685545" lon="11.865700058476126"><ele>-2.0</ele><time>2026-04-18T13:30:50Z</time></trkpt><trkpt lat="44.94451438336627" lon="11.865807688047829"><ele>-1.9999999999999998</ele><time>2026-04-18T13:30:52Z</time></trkpt><trkpt lat="44.94449068807491" lon="11.865913298772906"><ele>-2.0</ele><time>2026-04-18T13:30:54Z</time></trkpt><trkpt lat="44.94446994765237" lon="11.866026811077926"><ele>-2.1666666666666665</ele><time>2026-04-18T13:30:56Z</time></trkpt><trkpt lat="44.944451117061554" lon="11.86612065345516"><ele>-2.333333333333333</ele><time>2026-04-18T13:30:58Z</time></trkpt><trkpt lat="44.944440228761685" lon="11.866224595884706"><ele>-2.5</ele><time>2026-04-18T13:31:00Z</time></trkpt><trkpt lat="44.94441628025098" lon="11.866340879384603"><ele>-2.6666666666666665</ele><time>2026-04-18T13:31:01.999Z</time></trkpt><trkpt lat="44.9443956604399" lon="11.86645481775725"><ele>-2.8333333333333335</ele><time>2026-04-18T13:31:03.999Z</time></trkpt><trkpt lat="44.9443784378603" lon="11.866569957417695"><ele>-3.0</ele><time>2026-04-18T13:31:05.999Z</time></trkpt><trkpt lat="44.94435833995301" lon="11.866682462640238"><ele>-3.0</ele><time>2026-04-18T13:31:07.999Z</time></trkpt><trkpt lat="44.944339848890344" lon="11.866783972644466"><ele>-3.0</ele><time>2026-04-18T13:31:09.999Z</time></trkpt><trkpt lat="44.94431842783107" lon="11.866909932057526"><ele>-3.0</ele><time>2026-04-18T13:31:11.999Z</time></trkpt><trkpt lat="44.94429426957913" lon="11.867043406835142"><ele>-3.0</ele><time>2026-04-18T13:31:13.999Z</time></trkpt><trkpt lat="44.944275963188126" lon="11.86716222196541"><ele>-3.0</ele><time>2026-04-18T13:31:15.999Z</time></trkpt><trkpt lat="44.944255096633306" lon="11.867261756024504"><ele>-3.0</ele><time>2026-04-18T13:31:17.999Z</time></trkpt><trkpt lat="44.94423586565214" lon="11.86736057408267"><ele>-3.0</ele><time>2026-04-18T13:31:19.999Z</time></trkpt><trkpt lat="44.94421427155573" lon="11.867485291345124"><ele>-3.0</ele><time>2026-04-18T13:31:21.999Z</time></trkpt><trkpt lat="44.944197709155" lon="11.867606845865401"><ele>-3.0</ele><time>2026-04-18T13:31:23.999Z</time></trkpt><trkpt lat="44.94418531754762" lon="11.867724485809013"><ele>-3.0</ele><time>2026-04-18T13:31:25.999Z</time></trkpt><trkpt lat="44.944154419870124" lon="11.86784294255303"><ele>-3.0</ele><time>2026-04-18T13:31:27.999Z</time></trkpt><trkpt lat="44.944142653593744" lon="11.867957563472675"><ele>-3.0</ele><time>2026-04-18T13:31:29.999Z</time></trkpt><trkpt lat="44.94412109061154" lon="11.868061246484608"><ele>-2.6666666666666665</ele><time>2026-04-18T13:31:31.999Z</time></trkpt><trkpt lat="44.94411277602778" lon="11.868164995415697"><ele>-2.3333333333333335</ele><time>2026-04-18T13:31:34Z</time></trkpt><trkpt lat="44.94410686276096" lon="11.86827779968064"><ele>-2.0</ele><time>2026-04-18T13:31:36Z</time></trkpt><trkpt lat="44.94409888080789" lon="11.86836916461972"><ele>-1.6666666666666665</ele><time>2026-04-18T13:31:38Z</time></trkpt><trkpt lat="44.944091539842866" lon="11.86848475501004"><ele>-1.3333333333333333</ele><time>2026-04-18T13:31:40Z</time></trkpt><trkpt lat="44.944086177659784" lon="11.868607630674452"><ele>-1.0</ele><time>2026-04-18T13:31:42Z</time></trkpt><trkpt lat="44.94407842707315" lon="11.868729857011052"><ele>-1.0</ele><time>2026-04-18T13:31:44Z</time></trkpt><trkpt lat="44.94407467588058" lon="11.868864094537704"><ele>-1.0</ele><time>2026-04-18T13:31:46Z</time></trkpt><trkpt lat="44.944065286962214" lon="11.868995321095559"><ele>-1.0</ele><time>2026-04-18T13:31:48Z</time></trkpt><trkpt lat="44.94406420544613" lon="11.869123152829207"><ele>-1.0</ele><time>2026-04-18T13:31:50Z</time></trkpt><trkpt lat="44.94405469629153" lon="11.869260455096653"><ele>-1.0</ele><time>2026-04-18T13:31:52Z</time></trkpt><trkpt lat="44.944049479274376" lon="11.86939583862787"><ele>-1.3333333333333333</ele><time>2026-04-18T13:31:54Z</time></trkpt><trkpt lat="44.944041177600496" lon="11.869519389211025"><ele>-1.6666666666666665</ele><time>2026-04-18T13:31:56Z</time></trkpt><trkpt lat="44.94403684660137" lon="11.869627557750274"><ele>-2.0</ele><time>2026-04-18T13:31:58Z</time></trkpt><trkpt lat="44.944028337640006" lon="11.869732973685533"><ele>-2.3333333333333335</ele><time>2026-04-18T13:32:00Z</time></trkpt><trkpt lat="44.94402697918371" lon="11.86986892670629"><ele>-2.6666666666666665</ele><time>2026-04-18T13:32:02Z</time></trkpt><trkpt lat="44.944015748374134" lon="11.87000483435079"><ele>-3.0</ele><time>2026-04-18T13:32:04Z</time></trkpt><trkpt lat="44.94400975063625" lon="11.870131156547751"><ele>-3.0</ele><time>2026-04-18T13:32:06Z</time></trkpt><trkpt lat="44.944004061334944" lon="11.870249634561539"><ele>-3.0</ele><time>2026-04-18T13:32:08Z</time></trkpt><trkpt lat="44.94399775853432" lon="11.870370319502115"><ele>-3.0</ele><time>2026-04-18T13:32:10Z</time></trkpt><trkpt lat="44.943994678033945" lon="11.87050344954925"><ele>-3.0</ele><time>2026-04-18T13:32:12Z</time></trkpt><trkpt lat="44.943985293071016" lon="11.87062364681342"><ele>-3.0</ele><time>2026-04-18T13:32:14Z</time></trkpt><trkpt lat="44.943979748868955" lon="11.870745944902492"><ele>-3.0</ele><time>2026-04-18T13:32:16Z</time></trkpt><trkpt lat="44.943976889376614" lon="11.870876983055915"><ele>-3.0</ele><time>2026-04-18T13:32:18Z</time></trkpt><trkpt lat="44.94397416274536" lon="11.871007820508908"><ele>-3.0</ele><time>2026-04-18T13:32:20Z</time></trkpt><trkpt lat="44.943979188070614" lon="11.871139553552554"><ele>-3.0</ele><time>2026-04-18T13:32:22Z</time></trkpt><trkpt lat="44.9439846668083" lon="11.871262284773037"><ele>-3.0</ele><time>2026-04-18T13:32:24Z</time></trkpt><trkpt lat="44.943994154986164" lon="11.871396329060698"><ele>-3.0</ele><time>2026-04-18T13:32:26Z</time></trkpt><trkpt lat="44.94400210347273" lon="11.871511012533963"><ele>-3.0</ele><time>2026-04-18T13:32:28Z</time></trkpt><trkpt lat="44.9440074981682" lon="11.871619021038978"><ele>-3.0</ele><time>2026-04-18T13:32:30Z</time></trkpt><trkpt lat="44.94401797603801" lon="11.87171260466666"><ele>-3.0</ele><time>2026-04-18T13:32:32Z</time></trkpt><trkpt lat="44.944035805381894" lon="11.871833857427015"><ele>-3.0</ele><time>2026-04-18T13:32:35Z</time></trkpt><trkpt lat="44.944071053407356" lon="11.871931197553696"><ele>-3.0</ele><time>2026-04-18T13:38:18Z</time></trkpt><trkpt lat="44.94407566021233" lon="11.872051716368441"><ele>-3.0</ele><time>2026-04-18T13:38:21Z</time></trkpt><trkpt lat="44.94408467234958" lon="11.872171674127395"><ele>-2.8</ele><time>2026-04-18T13:38:23Z</time></trkpt><trkpt lat="44.94409544418324" lon="11.872298353554779"><ele>-2.5999999999999996</ele><time>2026-04-18T13:38:25Z</time></trkpt><trkpt lat="44.944102773095324" lon="11.872420832953852"><ele>-2.4000000000000004</ele><time>2026-04-18T13:38:27Z</time></trkpt><trkpt lat="44.94412039084456" lon="11.872552260153059"><ele>-2.2</ele><time>2026-04-18T13:38:29Z</time></trkpt><trkpt lat="44.94413680814791" lon="11.87268773438718"><ele>-2.0</ele><time>2026-04-18T13:38:31Z</time></trkpt><trkpt lat="44.94414479255408" lon="11.87282172406407"><ele>-2.0</ele><time>2026-04-18T13:38:33Z</time></trkpt><trkpt lat="44.9441657037541" lon="11.872951295356938"><ele>-2.0</ele><time>2026-04-18T13:38:35Z</time></trkpt><trkpt lat="44.944185278629135" lon="11.873084576954312"><ele>-2.0</ele><time>2026-04-18T13:38:37Z</time></trkpt><trkpt lat="44.94420425100733" lon="11.873210254130457"><ele>-2.0</ele><time>2026-04-18T13:38:39Z</time></trkpt><trkpt lat="44.94422983803383" lon="11.87333780479098"><ele>-2.0</ele><time>2026-04-18T13:38:41Z</time></trkpt><trkpt lat="44.94423791133823" lon="11.873458495275283"><ele>-2.0</ele><time>2026-04-18T13:38:43Z</time></trkpt><trkpt lat="44.944237445707756" lon="11.873565304745272"><ele>-1.9999999999999998</ele><time>2026-04-18T13:38:45Z</time></trkpt><trkpt lat="44.94424942417214" lon="11.87365628969092"><ele>-2.0</ele><time>2026-04-18T13:38:47Z</time></trkpt><trkpt lat="44.944255205149695" lon="11.873750506446084"><ele>-2.0</ele><time>2026-04-18T13:39:30.999Z</time></trkpt><trkpt lat="44.94426834245273" lon="11.87385091407779"><ele>-1.9999999999999998</ele><time>2026-04-18T13:39:33.999Z</time></trkpt><trkpt lat="44.94427563538908" lon="11.873961200880629"><ele>-2.0</ele><time>2026-04-18T13:39:35.999Z</time></trkpt><trkpt lat="44.94428715285535" lon="11.874072552101119"><ele>-2.0</ele><time>2026-04-18T13:39:37.999Z</time></trkpt><trkpt lat="44.94430237629437" lon="11.874172846586914"><ele>-1.9999999999999998</ele><time>2026-04-18T13:39:39.999Z</time></trkpt><trkpt lat="44.944311070685124" lon="11.874282275199946"><ele>-2.0</ele><time>2026-04-18T13:39:41.999Z</time></trkpt><trkpt lat="44.9443225256853" lon="11.874408430110563"><ele>-2.0</ele><time>2026-04-18T13:39:43.999Z</time></trkpt><trkpt lat="44.944337725747566" lon="11.874532328244975"><ele>-2.0</ele><time>2026-04-18T13:39:45.999Z</time></trkpt><trkpt lat="44.94434873337259" lon="11.87464777254684"><ele>-1.9999999999999998</ele><time>2026-04-18T13:39:47.999Z</time></trkpt><trkpt lat="44.94436307783792" lon="11.874771730730188"><ele>-2.0</ele><time>2026-04-18T13:39:49.999Z</time></trkpt><trkpt lat="44.94437273202778" lon="11.87490735863668"><ele>-2.0</ele><time>2026-04-18T13:39:51.999Z</time></trkpt><trkpt lat="44.944388653401084" lon="11.875032905054427"><ele>-2.0</ele><time>2026-04-18T13:39:53.999Z</time></trkpt><trkpt lat="44.944398313644655" lon="11.875157877823542"><ele>-2.0</ele><time>2026-04-18T13:39:55.999Z</time></trkpt><trkpt lat="44.944411699408555" lon="11.87528422817554"><ele>-2.0</ele><time>2026-04-18T13:39:58Z</time></trkpt><trkpt lat="44.944429338419326" lon="11.875418834920588"><ele>-2.0</ele><time>2026-04-18T13:40:00Z</time></trkpt><trkpt lat="44.94443852507611" lon="11.875549547032053"><ele>-1.8</ele><time>2026-04-18T13:40:02Z</time></trkpt><trkpt lat="44.944453918127195" lon="11.875686494973031"><ele>-1.6</ele><time>2026-04-18T13:40:04Z</time></trkpt><trkpt lat="44.944459798683425" lon="11.87582233203099"><ele>-1.4000000000000001</ele><time>2026-04-18T13:40:06Z</time></trkpt><trkpt lat="44.94448111148499" lon="11.875955572036693"><ele>-1.2000000000000002</ele><time>2026-04-18T13:40:08Z</time></trkpt><trkpt lat="44.94449485331091" lon="11.87609039631777"><ele>-1.0</ele><time>2026-04-18T13:40:10Z</time></trkpt><trkpt lat="44.94450689549832" lon="11.8762274871061"><ele>-1.0</ele><time>2026-04-18T13:40:12Z</time></trkpt><trkpt lat="44.94452120736909" lon="11.87636091498678"><ele>-1.0</ele><time>2026-04-18T13:40:14Z</time></trkpt><trkpt lat="44.9445334134938" lon="11.876494660081569"><ele>-1.0</ele><time>2026-04-18T13:40:16Z</time></trkpt><trkpt lat="44.94454811136939" lon="11.876626464181692"><ele>-1.0</ele><time>2026-04-18T13:40:18Z</time></trkpt><trkpt lat="44.944560576984884" lon="11.876763282962889"><ele>-1.0</ele><time>2026-04-18T13:40:20Z</time></trkpt><trkpt lat="44.94457269282295" lon="11.876887172980725"><ele>-0.8333333333333333</ele><time>2026-04-18T13:40:22Z</time></trkpt><trkpt lat="44.94458426715399" lon="11.876998292234514"><ele>-0.6666666666666666</ele><time>2026-04-18T13:40:24Z</time></trkpt><trkpt lat="44.94460163986476" lon="11.877110232031356"><ele>-0.5</ele><time>2026-04-18T13:40:26Z</time></trkpt><trkpt lat="44.944616899311995" lon="11.877243874433665"><ele>-0.3333333333333333</ele><time>2026-04-18T13:40:28Z</time></trkpt><trkpt lat="44.94463183413593" lon="11.877367804233314"><ele>-0.16666666666666666</ele><time>2026-04-18T13:40:30Z</time></trkpt><trkpt lat="44.94465089618319" lon="11.877490737793174"><ele>0.0</ele><time>2026-04-18T13:40:32Z</time></trkpt><trkpt lat="44.944662718945594" lon="11.877599344925589"><ele>0.16666666666666666</ele><time>2026-04-18T13:40:34Z</time></trkpt><trkpt lat="44.94467800249296" lon="11.877714226773277"><ele>0.3333333333333333</ele><time>2026-04-18T13:40:36Z</time></trkpt><trkpt lat="44.94469529762304" lon="11.87782961135583"><ele>0.5</ele><time>2026-04-18T13:40:38Z</time></trkpt><trkpt lat="44.94470662167897" lon="11.877933027436582"><ele>0.6666666666666666</ele><time>2026-04-18T13:40:40Z</time></trkpt><trkpt lat="44.944723314789975" lon="11.878033824685707"><ele>0.8333333333333333</ele><time>2026-04-18T13:40:42Z</time></trkpt><trkpt lat="44.944734812969685" lon="11.878144864386392"><ele>1.0</ele><time>2026-04-18T13:40:44Z</time></trkpt><trkpt lat="44.94474667742274" lon="11.878240802970973"><ele>0.9999999999999999</ele><time>2026-04-18T13:40:46Z</time></trkpt><trkpt lat="44.94476632354437" lon="11.878332727197098"><ele>1.0</ele><time>2026-04-18T13:40:48Z</time></trkpt><trkpt lat="44.94477117420853" lon="11.878446895619533"><ele>1.0</ele><time>2026-04-18T13:40:51Z</time></trkpt><trkpt lat="44.944767637179375" lon="11.878539589090899"><ele>1.0</ele><time>2026-04-18T13:40:55Z</time></trkpt><trkpt lat="44.94469922840983" lon="11.87856830930608"><ele>0.9999999999999999</ele><time>2026-04-18T13:41:29.999Z</time></trkpt><trkpt lat="44.94459056155425" lon="11.878573857724241"><ele>1.0</ele><time>2026-04-18T13:41:32.999Z</time></trkpt><trkpt lat="44.94450687305629" lon="11.878590248252005"><ele>0.6000000000000001</ele><time>2026-04-18T13:41:34.999Z</time></trkpt><trkpt lat="44.94441348668214" lon="11.878603306221132"><ele>0.20000000000000007</ele><time>2026-04-18T13:41:36.999Z</time></trkpt><trkpt lat="44.944316059616696" lon="11.878616377313934"><ele>-0.20000000000000007</ele><time>2026-04-18T13:41:38.999Z</time></trkpt><trkpt lat="44.94421840006024" lon="11.878629299591067"><ele>-0.6000000000000001</ele><time>2026-04-18T13:41:40.999Z</time></trkpt><trkpt lat="44.944120113037165" lon="11.878643546855212"><ele>-1.0</ele><time>2026-04-18T13:41:42.999Z</time></trkpt><trkpt lat="44.94402060960205" lon="11.878658497232607"><ele>-1.0</ele><time>2026-04-18T13:41:44.999Z</time></trkpt><trkpt lat="44.943920894602485" lon="11.878675630859409"><ele>-1.0</ele><time>2026-04-18T13:41:46.999Z</time></trkpt><trkpt lat="44.94381985606323" lon="11.878692548136026"><ele>-1.0</ele><time>2026-04-18T13:41:48.999Z</time></trkpt><trkpt lat="44.94372247806345" lon="11.878708570198029"><ele>-1.0</ele><time>2026-04-18T13:41:50.999Z</time></trkpt><trkpt lat="44.943624296363346" lon="11.878726581852694"><ele>-1.0</ele><time>2026-04-18T13:41:52.999Z</time></trkpt><trkpt lat="44.943526091752176" lon="11.878745673193995"><ele>-1.0</ele><time>2026-04-18T13:41:54.999Z</time></trkpt><trkpt lat="44.94342846904229" lon="11.878758999066571"><ele>-1.0</ele><time>2026-04-18T13:41:56.999Z</time></trkpt><trkpt lat="44.94333085358303" lon="11.87877540845884"><ele>-1.0</ele><time>2026-04-18T13:41:58.999Z</time></trkpt><trkpt lat="44.943230567067204" lon="11.878790797805499"><ele>-1.0</ele><time>2026-04-18T13:42:00.999Z</time></trkpt><trkpt lat="44.943133016395166" lon="11.878808662622067"><ele>-1.0</ele><time>2026-04-18T13:42:03Z</time></trkpt><trkpt lat="44.94303645003627" lon="11.878824745260571"><ele>-1.2000000000000002</ele><time>2026-04-18T13:42:05Z</time></trkpt><trkpt lat="44.94293811327764" lon="11.878837913485285"><ele>-1.4000000000000001</ele><time>2026-04-18T13:42:07Z</time></trkpt><trkpt lat="44.94284030053069" lon="11.878853510450615"><ele>-1.6</ele><time>2026-04-18T13:42:09Z</time></trkpt><trkpt lat="44.94274269470525" lon="11.878869023439753"><ele>-1.8</ele><time>2026-04-18T13:42:11Z</time></trkpt><trkpt lat="44.942644581978605" lon="11.878883882158428"><ele>-2.0</ele><time>2026-04-18T13:42:13Z</time></trkpt><trkpt lat="44.94254504206482" lon="11.878900561380085"><ele>-2.0</ele><time>2026-04-18T13:42:15Z</time></trkpt><trkpt lat="44.94244873327197" lon="11.878918058119051"><ele>-2.0</ele><time>2026-04-18T13:42:17Z</time></trkpt><trkpt lat="44.94234937681339" lon="11.878931355747493"><ele>-2.0</ele><time>2026-04-18T13:42:19Z</time></trkpt><trkpt lat="44.94224951140308" lon="11.878945234831525"><ele>-2.0</ele><time>2026-04-18T13:42:21Z</time></trkpt><trkpt lat="44.94215384422474" lon="11.878966373199663"><ele>-2.0</ele><time>2026-04-18T13:42:23Z</time></trkpt><trkpt lat="44.942057266201985" lon="11.878975902900736"><ele>-2.0</ele><time>2026-04-18T13:42:25Z</time></trkpt><trkpt lat="44.94195923643808" lon="11.878996171685314"><ele>-2.0</ele><time>2026-04-18T13:42:27Z</time></trkpt><trkpt lat="44.94186011675263" lon="11.879013452292797"><ele>-2.0</ele><time>2026-04-18T13:42:29Z</time></trkpt><trkpt lat="44.94176081587218" lon="11.87902837218049"><ele>-2.0</ele><time>2026-04-18T13:42:31Z</time></trkpt><trkpt lat="44.94166146866151" lon="11.879048348454432"><ele>-2.0</ele><time>2026-04-18T13:42:33Z</time></trkpt><trkpt lat="44.94156198107684" lon="11.879063879335982"><ele>-1.4000000000000001</ele><time>2026-04-18T13:42:35Z</time></trkpt><trkpt lat="44.94146441947328" lon="11.879083802859633"><ele>-0.8000000000000002</ele><time>2026-04-18T13:42:37Z</time></trkpt><trkpt lat="44.94136073521789" lon="11.879100333906095"><ele>-0.19999999999999996</ele><time>2026-04-18T13:42:39Z</time></trkpt><trkpt lat="44.94125855137675" lon="11.87911916429239"><ele>0.4</ele><time>2026-04-18T13:42:41Z</time></trkpt><trkpt lat="44.94115843980846" lon="11.879131832357773"><ele>1.0</ele><time>2026-04-18T13:42:43Z</time></trkpt><trkpt lat="44.94105780432905" lon="11.8791530928382"><ele>1.0</ele><time>2026-04-18T13:42:45Z</time></trkpt><trkpt lat="44.94095654153612" lon="11.879165651355462"><ele>1.0</ele><time>2026-04-18T13:42:47Z</time></trkpt><trkpt lat="44.940859580354484" lon="11.879183326309475"><ele>1.0</ele><time>2026-04-18T13:42:49Z</time></trkpt><trkpt lat="44.94075977318416" lon="11.879201333342028"><ele>1.0</ele><time>2026-04-18T13:42:51Z</time></trkpt><trkpt lat="44.94066045085171" lon="11.8792184990482"><ele>1.0</ele><time>2026-04-18T13:42:53Z</time></trkpt><trkpt lat="44.940558782935746" lon="11.879234654120584"><ele>1.0</ele><time>2026-04-18T13:42:55Z</time></trkpt><trkpt lat="44.9404596648056" lon="11.879250982608635"><ele>1.0</ele><time>2026-04-18T13:42:57Z</time></trkpt><trkpt lat="44.940359366757875" lon="11.879268909015348"><ele>1.0</ele><time>2026-04-18T13:42:59Z</time></trkpt><trkpt lat="44.94026148194282" lon="11.879287831035136"><ele>1.0</ele><time>2026-04-18T13:43:01Z</time></trkpt><trkpt lat="44.940159830182445" lon="11.879303490123029"><ele>1.0</ele><time>2026-04-18T13:43:03Z</time></trkpt><trkpt lat="44.9400592895282" lon="11.879319498945797"><ele>0.8</ele><time>2026-04-18T13:43:05Z</time></trkpt><trkpt lat="44.93995946059486" lon="11.879336424551791"><ele>0.6000000000000001</ele><time>2026-04-18T13:43:07Z</time></trkpt><trkpt lat="44.93986267928705" lon="11.879351307228017"><ele>0.4</ele><time>2026-04-18T13:43:09Z</time></trkpt><trkpt lat="44.93976737549349" lon="11.879366925580472"><ele>0.2</ele><time>2026-04-18T13:43:11Z</time></trkpt><trkpt lat="44.93966756786882" lon="11.879384741521836"><ele>0.0</ele><time>2026-04-18T13:43:13Z</time></trkpt><trkpt lat="44.93956845208823" lon="11.87940393104426"><ele>0.0</ele><time>2026-04-18T13:43:15Z</time></trkpt><trkpt lat="44.93946861128525" lon="11.879420455039677"><ele>0.0</ele><time>2026-04-18T13:43:16.999Z</time></trkpt><trkpt lat="44.939369127321065" lon="11.879437059652314"><ele>0.0</ele><time>2026-04-18T13:43:18.999Z</time></trkpt><trkpt lat="44.939268694300665" lon="11.879452676153008"><ele>0.0</ele><time>2026-04-18T13:43:20.999Z</time></trkpt><trkpt lat="44.939173360779044" lon="11.879465672921764"><ele>0.0</ele><time>2026-04-18T13:43:22.999Z</time></trkpt><trkpt lat="44.93907635003993" lon="11.879488867245442"><ele>0.0</ele><time>2026-04-18T13:43:24.999Z</time></trkpt><trkpt lat="44.938983706795455" lon="11.879497147704221"><ele>0.0</ele><time>2026-04-18T13:43:26.999Z</time></trkpt><trkpt lat="44.938882025882194" lon="11.87951677613336"><ele>0.0</ele><time>2026-04-18T13:43:28.999Z</time></trkpt><trkpt lat="44.93878230099826" lon="11.879530536780132"><ele>0.0</ele><time>2026-04-18T13:43:30.999Z</time></trkpt><trkpt lat="44.93868499610805" lon="11.87954710903781"><ele>0.0</ele><time>2026-04-18T13:43:32.999Z</time></trkpt><trkpt lat="44.938587579656144" lon="11.879564837945056"><ele>0.0</ele><time>2026-04-18T13:43:34.999Z</time></trkpt><trkpt lat="44.93849020368446" lon="11.879582534374917"><ele>0.0</ele><time>2026-04-18T13:43:36.999Z</time></trkpt><trkpt lat="44.938394087005285" lon="11.879601178839895"><ele>0.0</ele><time>2026-04-18T13:43:38.999Z</time></trkpt><trkpt lat="44.938296774403376" lon="11.879615463310863"><ele>0.0</ele><time>2026-04-18T13:43:40.999Z</time></trkpt><trkpt lat="44.93819994188648" lon="11.879632038619524"><ele>0.0</ele><time>2026-04-18T13:43:42.999Z</time></trkpt><trkpt lat="44.9381038980452" lon="11.879649705527802"><ele>0.0</ele><time>2026-04-18T13:43:44.999Z</time></trkpt><trkpt lat="44.93800675471564" lon="11.879665215474407"><ele>0.0</ele><time>2026-04-18T13:43:46.999Z</time></trkpt><trkpt lat="44.937911820164814" lon="11.87968209843405"><ele>0.0</ele><time>2026-04-18T13:43:48.999Z</time></trkpt><trkpt lat="44.937816332418805" lon="11.879700395053204"><ele>0.0</ele><time>2026-04-18T13:43:50.999Z</time></trkpt><trkpt lat="44.93771954347899" lon="11.879715660949943"><ele>0.0</ele><time>2026-04-18T13:43:52.999Z</time></trkpt><trkpt lat="44.93762309238487" lon="11.879734175134972"><ele>0.2</ele><time>2026-04-18T13:43:54.999Z</time></trkpt><trkpt lat="44.93752631837178" lon="11.879749995517386"><ele>0.4</ele><time>2026-04-18T13:43:56.999Z</time></trkpt><trkpt lat="44.937428166918146" lon="11.879763336400233"><ele>0.6000000000000001</ele><time>2026-04-18T13:43:58.999Z</time></trkpt><trkpt lat="44.93733003374614" lon="11.87978385335252"><ele>0.8</ele><time>2026-04-18T13:44:00.999Z</time></trkpt><trkpt lat="44.93723477665485" lon="11.879798329489441"><ele>1.0</ele><time>2026-04-18T13:44:02.999Z</time></trkpt><trkpt lat="44.93713632573341" lon="11.879814137726454"><ele>1.0</ele><time>2026-04-18T13:44:04.999Z</time></trkpt><trkpt lat="44.93703532577623" lon="11.879825446625619"><ele>1.0</ele><time>2026-04-18T13:44:06.999Z</time></trkpt><trkpt lat="44.93693931266641" lon="11.879832648260518"><ele>1.0</ele><time>2026-04-18T13:44:09Z</time></trkpt><trkpt lat="44.93684205213739" lon="11.879840983441682"><ele>1.0</ele><time>2026-04-18T13:44:11Z</time></trkpt><trkpt lat="44.93675542815411" lon="11.879857198412926"><ele>1.0</ele><time>2026-04-18T13:44:13Z</time></trkpt><trkpt lat="44.93666287379406" lon="11.879857014213858"><ele>1.0</ele><time>2026-04-18T13:44:15Z</time></trkpt><trkpt lat="44.93656720812312" lon="11.879851199207355"><ele>1.0</ele><time>2026-04-18T13:44:17Z</time></trkpt><trkpt lat="44.93646796404775" lon="11.879840040108885"><ele>1.0</ele><time>2026-04-18T13:44:19Z</time></trkpt><trkpt lat="44.93637030290308" lon="11.879821488846902"><ele>1.0</ele><time>2026-04-18T13:44:21Z</time></trkpt><trkpt lat="44.93627697936076" lon="11.8797919546637"><ele>1.0</ele><time>2026-04-18T13:44:23Z</time></trkpt><trkpt lat="44.936131734012164" lon="11.87973858683855"><ele>1.0</ele><time>2026-04-18T13:44:26Z</time></trkpt><trkpt lat="44.93603372127196" lon="11.879696137913855"><ele>1.0</ele><time>2026-04-18T13:44:28Z</time></trkpt><trkpt lat="44.93594007624308" lon="11.879651272145791"><ele>1.0</ele><time>2026-04-18T13:44:30Z</time></trkpt><trkpt lat="44.935847547267315" lon="11.879597305934773"><ele>1.0</ele><time>2026-04-18T13:44:32Z</time></trkpt><trkpt lat="44.935756552978035" lon="11.87953666809792"><ele>1.0</ele><time>2026-04-18T13:44:34Z</time></trkpt><trkpt lat="44.93566430837038" lon="11.879469758639697"><ele>1.0</ele><time>2026-04-18T13:44:36Z</time></trkpt><trkpt lat="44.93557934407853" lon="11.879395002423186"><ele>1.0</ele><time>2026-04-18T13:44:38Z</time></trkpt><trkpt lat="44.93549504406306" lon="11.87933311194897"><ele>1.0</ele><time>2026-04-18T13:44:40Z</time></trkpt><trkpt lat="44.9354180344518" lon="11.879253863267502"><ele>1.0</ele><time>2026-04-18T13:44:42Z</time></trkpt><trkpt lat="44.93534033887645" lon="11.879175971027916"><ele>1.0</ele><time>2026-04-18T13:44:44Z</time></trkpt><trkpt lat="44.93526434971668" lon="11.87908828258937"><ele>1.0</ele><time>2026-04-18T13:44:46Z</time></trkpt><trkpt lat="44.935188060663094" lon="11.878996450389229"><ele>1.0</ele><time>2026-04-18T13:44:48Z</time></trkpt><trkpt lat="44.9351124140256" lon="11.878903418288859"><ele>1.0</ele><time>2026-04-18T13:44:50Z</time></trkpt><trkpt lat="44.93504023676417" lon="11.878804091303225"><ele>1.0</ele><time>2026-04-18T13:44:52Z</time></trkpt><trkpt lat="44.93496476642056" lon="11.87870839085001"><ele>1.0</ele><time>2026-04-18T13:44:54Z</time></trkpt><trkpt lat="44.93489341055483" lon="11.878610256603642"><ele>0.8</ele><time>2026-04-18T13:44:56Z</time></trkpt><trkpt lat="44.93481951656347" lon="11.878511280739339"><ele>0.6000000000000001</ele><time>2026-04-18T13:44:58Z</time></trkpt><trkpt lat="44.93474728948575" lon="11.878414920372457"><ele>0.4</ele><time>2026-04-18T13:45:00Z</time></trkpt><trkpt lat="44.93467554393198" lon="11.878315936950129"><ele>0.2</ele><time>2026-04-18T13:45:02Z</time></trkpt><trkpt lat="44.9346001653933" lon="11.878217436219366"><ele>0.0</ele><time>2026-04-18T13:45:04Z</time></trkpt><trkpt lat="44.93452672916019" lon="11.878120788506106"><ele>0.0</ele><time>2026-04-18T13:45:06Z</time></trkpt><trkpt lat="44.934455900752546" lon="11.878021004391805"><ele>0.0</ele><time>2026-04-18T13:45:08Z</time></trkpt><trkpt lat="44.93438361546572" lon="11.877924679052441"><ele>0.0</ele><time>2026-04-18T13:45:10Z</time></trkpt><trkpt lat="44.93430760022698" lon="11.877833151223083"><ele>0.0</ele><time>2026-04-18T13:45:12Z</time></trkpt><trkpt lat="44.93423840392542" lon="11.877731276904289"><ele>0.0</ele><time>2026-04-18T13:45:14Z</time></trkpt><trkpt lat="44.93416753304825" lon="11.877636528403071"><ele>0.0</ele><time>2026-04-18T13:45:16Z</time></trkpt><trkpt lat="44.934091519979525" lon="11.877538915770844"><ele>0.0</ele><time>2026-04-18T13:45:18Z</time></trkpt><trkpt lat="44.93402011839325" lon="11.877444207366247"><ele>0.0</ele><time>2026-04-18T13:45:19.999Z</time></trkpt><trkpt lat="44.93394600244656" lon="11.877354289317234"><ele>0.0</ele><time>2026-04-18T13:45:21.999Z</time></trkpt><trkpt lat="44.93386969876527" lon="11.877281123945757"><ele>0.0</ele><time>2026-04-18T13:45:23.999Z</time></trkpt><trkpt lat="44.933798986079" lon="11.877205790821368"><ele>0.0</ele><time>2026-04-18T13:45:25.999Z</time></trkpt><trkpt lat="44.933710042224725" lon="11.877193674699802"><ele>0.0</ele><time>2026-04-18T13:45:27.999Z</time></trkpt><trkpt lat="44.933636490235074" lon="11.877121065405344"><ele>0.0</ele><time>2026-04-18T13:45:29.999Z</time></trkpt><trkpt lat="44.933571695711926" lon="11.87704983380932"><ele>0.0</ele><time>2026-04-18T13:45:31.999Z</time></trkpt><trkpt lat="44.93350194523204" lon="11.876987253104712"><ele>0.0</ele><time>2026-04-18T13:45:33.999Z</time></trkpt><trkpt lat="44.93343931973276" lon="11.876932420678848"><ele>0.0</ele><time>2026-04-18T13:45:35.999Z</time></trkpt><trkpt lat="44.9333680749471" lon="11.876898382889568"><ele>0.0</ele><time>2026-04-18T13:45:37.999Z</time></trkpt><trkpt lat="44.93330263827245" lon="11.87691048697714"><ele>0.0</ele><time>2026-04-18T13:45:39.999Z</time></trkpt><trkpt lat="44.93324715771042" lon="11.876968221145992"><ele>0.0</ele><time>2026-04-18T13:45:41.999Z</time></trkpt><trkpt lat="44.93319852916045" lon="11.877040147819198"><ele>0.0</ele><time>2026-04-18T13:45:43.999Z</time></trkpt><trkpt lat="44.93315242926053" lon="11.877136441007288"><ele>0.0</ele><time>2026-04-18T13:45:45.999Z</time></trkpt><trkpt lat="44.93310317662789" lon="11.87720349256039"><ele>0.0</ele><time>2026-04-18T13:45:47.999Z</time></trkpt><trkpt lat="44.93305772613775" lon="11.87728078814603"><ele>0.0</ele><time>2026-04-18T13:45:49.999Z</time></trkpt><trkpt lat="44.9329927517307" lon="11.877383203808781"><ele>0.0</ele><time>2026-04-18T13:45:52.999Z</time></trkpt><trkpt lat="44.93295086458789" lon="11.877463513712566"><ele>0.0</ele><time>2026-04-18T13:45:54.999Z</time></trkpt><trkpt lat="44.93290344797785" lon="11.877548304964368"><ele>0.0</ele><time>2026-04-18T13:45:57.999Z</time></trkpt><trkpt lat="44.9328388484692" lon="11.877577659710552"><ele>0.0</ele><time>2026-04-18T13:46:06.999Z</time></trkpt><trkpt lat="44.93281429148631" lon="11.877664359233856"><ele>0.0</ele><time>2026-04-18T13:46:26Z</time></trkpt><trkpt lat="44.93277841005116" lon="11.877744527445737"><ele>0.0</ele><time>2026-04-18T13:46:35Z</time></trkpt><trkpt lat="44.93273932700168" lon="11.8778232602737"><ele>0.0</ele><time>2026-04-18T13:46:43Z</time></trkpt><trkpt lat="44.93270012810488" lon="11.877898916137397"><ele>-0.14285714285714285</ele><time>2026-04-18T13:46:50Z</time></trkpt><trkpt lat="44.932630586585134" lon="11.877915829021255"><ele>-0.2857142857142857</ele><time>2026-04-18T13:47:01Z</time></trkpt><trkpt lat="44.932587673818524" lon="11.877997227182806"><ele>-0.42857142857142855</ele><time>2026-04-18T13:47:10Z</time></trkpt><trkpt lat="44.932523884520265" lon="11.878040473029564"><ele>-0.5714285714285714</ele><time>2026-04-18T13:47:18Z</time></trkpt><trkpt lat="44.93245735257294" lon="11.878057419824417"><ele>-0.7142857142857142</ele><time>2026-04-18T13:47:34.999Z</time></trkpt><trkpt lat="44.93239016979772" lon="11.87804614407145"><ele>-0.8571428571428571</ele><time>2026-04-18T13:47:41.999Z</time></trkpt><trkpt lat="44.932394859976256" lon="11.878142837344104"><ele>-1.0</ele><time>2026-04-18T13:48:07.999Z</time></trkpt><trkpt lat="44.932332426610564" lon="11.878106992437377"><ele>-0.6666666666666666</ele><time>2026-04-18T13:48:30Z</time></trkpt><trkpt lat="44.932256391467234" lon="11.87808322049528"><ele>-0.3333333333333333</ele><time>2026-04-18T13:48:39Z</time></trkpt><trkpt lat="44.932167866729664" lon="11.878043620454607"><ele>0.0</ele><time>2026-04-18T13:48:41Z</time></trkpt><trkpt lat="44.932097847998705" lon="11.87799193793165"><ele>0.3333333333333333</ele><time>2026-04-18T13:48:43Z</time></trkpt><trkpt lat="44.93203089280545" lon="11.877913332617227"><ele>0.6666666666666666</ele><time>2026-04-18T13:48:45Z</time></trkpt><trkpt lat="44.93198551371402" lon="11.877811738500897"><ele>1.0</ele><time>2026-04-18T13:48:47Z</time></trkpt><trkpt lat="44.931938815228655" lon="11.877715300753716"><ele>0.9999999999999999</ele><time>2026-04-18T13:48:49Z</time></trkpt><trkpt lat="44.93191157350815" lon="11.877622916098682"><ele>1.0</ele><time>2026-04-18T13:48:51Z</time></trkpt><trkpt lat="44.931892099055304" lon="11.877525390453934"><ele>1.0</ele><time>2026-04-18T13:48:54Z</time></trkpt><trkpt lat="44.93183967611037" lon="11.877439811469017"><ele>1.0</ele><time>2026-04-18T13:50:18.999Z</time></trkpt><trkpt lat="44.931862392811155" lon="11.877532118166098"><ele>0.9999999999999999</ele><time>2026-04-18T13:50:23.999Z</time></trkpt><trkpt lat="44.93190772352481" lon="11.877633348103313"><ele>1.0</ele><time>2026-04-18T13:50:29Z</time></trkpt><trkpt lat="44.93193556634461" lon="11.877749974362258"><ele>0.9999999999999999</ele><time>2026-04-18T13:50:32Z</time></trkpt><trkpt lat="44.931976720786274" lon="11.877838937433982"><ele>1.0</ele><time>2026-04-18T13:50:34Z</time></trkpt><trkpt lat="44.93202050501141" lon="11.877907348364904"><ele>1.0</ele><time>2026-04-18T13:50:36Z</time></trkpt><trkpt lat="44.932081681058236" lon="11.878000029906342"><ele>1.0</ele><time>2026-04-18T13:50:39Z</time></trkpt><trkpt lat="44.93215540469008" lon="11.878046049317392"><ele>0.9999999999999999</ele><time>2026-04-18T13:50:42Z</time></trkpt><trkpt lat="44.932228823925755" lon="11.878065564670008"><ele>1.0</ele><time>2026-04-18T13:50:46Z</time></trkpt><trkpt lat="44.93229336006229" lon="11.87805702717169"><ele>1.0</ele><time>2026-04-18T13:50:50Z</time></trkpt><trkpt lat="44.932356576878924" lon="11.87803912928238"><ele>0.9999999999999999</ele><time>2026-04-18T13:50:56Z</time></trkpt><trkpt lat="44.932423646640785" lon="11.878051987523666"><ele>1.0</ele><time>2026-04-18T13:51:37Z</time></trkpt><trkpt lat="44.93248434299005" lon="11.878022368684146"><ele>1.0</ele><time>2026-04-18T13:51:43Z</time></trkpt><trkpt lat="44.93255487847234" lon="11.877989252681203"><ele>0.9999999999999999</ele><time>2026-04-18T13:51:51Z</time></trkpt><trkpt lat="44.93260991348392" lon="11.877944229537203"><ele>1.0</ele><time>2026-04-18T13:51:57Z</time></trkpt><trkpt lat="44.93266124920882" lon="11.87789090120316"><ele>1.0</ele><time>2026-04-18T13:52:08Z</time></trkpt><trkpt lat="44.93271187360339" lon="11.877818246857233"><ele>0.8571428571428571</ele><time>2026-04-18T13:52:15Z</time></trkpt><trkpt lat="44.93275627018071" lon="11.877748215430728"><ele>0.7142857142857142</ele><time>2026-04-18T13:52:22Z</time></trkpt><trkpt lat="44.93280686809435" lon="11.877686235539548"><ele>0.5714285714285714</ele><time>2026-04-18T13:52:28.999Z</time></trkpt><trkpt lat="44.93284392673603" lon="11.87760352957018"><ele>0.42857142857142855</ele><time>2026-04-18T13:52:43Z</time></trkpt><trkpt lat="44.93289468299767" lon="11.877550841111063"><ele>0.2857142857142857</ele><time>2026-04-18T13:52:50Z</time></trkpt><trkpt lat="44.93290684598112" lon="11.87764047682547"><ele>0.14285714285714285</ele><time>2026-04-18T13:52:56Z</time></trkpt><trkpt lat="44.93291643798146" lon="11.87772889188353"><ele>0.0</ele><time>2026-04-18T13:53:02Z</time></trkpt><trkpt lat="44.93294996392389" lon="11.877818732337687"><ele>-0.16666666666666666</ele><time>2026-04-18T13:53:29Z</time></trkpt><trkpt lat="44.9330080746185" lon="11.877885495843426"><ele>-0.3333333333333333</ele><time>2026-04-18T13:53:32Z</time></trkpt><trkpt lat="44.93306439693134" lon="11.877964411173714"><ele>-0.5</ele><time>2026-04-18T13:53:35Z</time></trkpt><trkpt lat="44.933113269875605" lon="11.878034535253615"><ele>-0.6666666666666666</ele><time>2026-04-18T13:53:37Z</time></trkpt><trkpt lat="44.933179082845434" lon="11.878120640767976"><ele>-0.8333333333333333</ele><time>2026-04-18T13:53:39Z</time></trkpt><trkpt lat="44.93324605706493" lon="11.878213154109082"><ele>-1.0</ele><time>2026-04-18T13:53:41Z</time></trkpt><trkpt lat="44.9333143220851" lon="11.878314024149311"><ele>-1.0</ele><time>2026-04-18T13:53:43Z</time></trkpt><trkpt lat="44.933383046498676" lon="11.878413521246866"><ele>-1.0</ele><time>2026-04-18T13:53:45Z</time></trkpt><trkpt lat="44.93344233974071" lon="11.878526150730506"><ele>-1.0</ele><time>2026-04-18T13:53:47Z</time></trkpt><trkpt lat="44.93350193179684" lon="11.878640106046456"><ele>-1.0</ele><time>2026-04-18T13:53:49Z</time></trkpt><trkpt lat="44.93355522673036" lon="11.878757963489248"><ele>-1.0</ele><time>2026-04-18T13:53:51Z</time></trkpt><trkpt lat="44.93360063240756" lon="11.878881310949549"><ele>-1.2000000000000002</ele><time>2026-04-18T13:53:53Z</time></trkpt><trkpt lat="44.93363692506493" lon="11.879011278539132"><ele>-1.4000000000000001</ele><time>2026-04-18T13:53:55Z</time></trkpt><trkpt lat="44.93366918672128" lon="11.879142220953552"><ele>-1.6</ele><time>2026-04-18T13:53:57Z</time></trkpt><trkpt lat="44.933692099511845" lon="11.879277736890147"><ele>-1.8</ele><time>2026-04-18T13:53:59Z</time></trkpt><trkpt lat="44.9337081292284" lon="11.879420191830068"><ele>-2.0</ele><time>2026-04-18T13:54:01Z</time></trkpt><trkpt lat="44.933715413239355" lon="11.87955372931169"><ele>-1.6</ele><time>2026-04-18T13:54:03Z</time></trkpt><trkpt lat="44.93371500088017" lon="11.879682112989332"><ele>-1.2000000000000002</ele><time>2026-04-18T13:54:05Z</time></trkpt><trkpt lat="44.93370992005707" lon="11.879822254285939"><ele>-0.8</ele><time>2026-04-18T13:54:07Z</time></trkpt><trkpt lat="44.93371153843521" lon="11.879955020928083"><ele>-0.4</ele><time>2026-04-18T13:54:09Z</time></trkpt><trkpt lat="44.93371922750072" lon="11.880090905646764"><ele>0.0</ele><time>2026-04-18T13:54:11Z</time></trkpt><trkpt lat="44.93373037249016" lon="11.880221972659495"><ele>0.0</ele><time>2026-04-18T13:54:13Z</time></trkpt><trkpt lat="44.93376511896638" lon="11.88035197293133"><ele>0.0</ele><time>2026-04-18T13:54:15Z</time></trkpt><trkpt lat="44.93380899033071" lon="11.880469860120687"><ele>0.0</ele><time>2026-04-18T13:54:17Z</time></trkpt><trkpt lat="44.93387209416997" lon="11.880576281552091"><ele>0.0</ele><time>2026-04-18T13:54:19Z</time></trkpt><trkpt lat="44.93395035050651" lon="11.880662418380798"><ele>0.0</ele><time>2026-04-18T13:54:21Z</time></trkpt><trkpt lat="44.93403242813304" lon="11.880744529584057"><ele>0.0</ele><time>2026-04-18T13:54:23Z</time></trkpt><trkpt lat="44.93410703378862" lon="11.880841475727589"><ele>0.0</ele><time>2026-04-18T13:54:25Z</time></trkpt><trkpt lat="44.93418083945293" lon="11.88094130297451"><ele>0.0</ele><time>2026-04-18T13:54:27Z</time></trkpt><trkpt lat="44.93424448593807" lon="11.881047283524016"><ele>0.0</ele><time>2026-04-18T13:54:29Z</time></trkpt><trkpt lat="44.934294841562576" lon="11.881167545793252"><ele>0.0</ele><time>2026-04-18T13:54:31Z</time></trkpt><trkpt lat="44.93434661885456" lon="11.881280884733378"><ele>-0.2</ele><time>2026-04-18T13:54:33Z</time></trkpt><trkpt lat="44.93439406656097" lon="11.881398336647253"><ele>-0.4</ele><time>2026-04-18T13:54:35Z</time></trkpt><trkpt lat="44.9344445317079" lon="11.88151821206858"><ele>-0.6000000000000001</ele><time>2026-04-18T13:54:37Z</time></trkpt><trkpt lat="44.93449181975236" lon="11.881637155720314"><ele>-0.8</ele><time>2026-04-18T13:54:39Z</time></trkpt><trkpt lat="44.93453927021942" lon="11.881754158009008"><ele>-1.0</ele><time>2026-04-18T13:54:41Z</time></trkpt><trkpt lat="44.93458097530341" lon="11.881877832920871"><ele>-1.2000000000000002</ele><time>2026-04-18T13:54:43Z</time></trkpt><trkpt lat="44.934610204309244" lon="11.882006034580913"><ele>-1.4000000000000001</ele><time>2026-04-18T13:54:45Z</time></trkpt><trkpt lat="44.93463049410171" lon="11.882135142546497"><ele>-1.6</ele><time>2026-04-18T13:54:47Z</time></trkpt><trkpt lat="44.934622743798684" lon="11.882263419503982"><ele>-1.8</ele><time>2026-04-18T13:54:49Z</time></trkpt><trkpt lat="44.934589226607045" lon="11.882395528809832"><ele>-2.0</ele><time>2026-04-18T13:54:51Z</time></trkpt><trkpt lat="44.9345370786508" lon="11.882512598245185"><ele>-1.8</ele><time>2026-04-18T13:54:53Z</time></trkpt><trkpt lat="44.93449176015323" lon="11.882630404181159"><ele>-1.6</ele><time>2026-04-18T13:54:55Z</time></trkpt><trkpt lat="44.93444917529417" lon="11.882751033554474"><ele>-1.4000000000000001</ele><time>2026-04-18T13:54:57Z</time></trkpt><trkpt lat="44.93440726670108" lon="11.882873274377442"><ele>-1.2000000000000002</ele><time>2026-04-18T13:54:59Z</time></trkpt><trkpt lat="44.93437037737072" lon="11.882997703076917"><ele>-1.0</ele><time>2026-04-18T13:55:01Z</time></trkpt><trkpt lat="44.93433217996314" lon="11.883125797671791"><ele>-1.0</ele><time>2026-04-18T13:55:03Z</time></trkpt><trkpt lat="44.93429062316733" lon="11.883249785424082"><ele>-1.0</ele><time>2026-04-18T13:55:05Z</time></trkpt><trkpt lat="44.93425214088092" lon="11.883373801322193"><ele>-1.0</ele><time>2026-04-18T13:55:07Z</time></trkpt><trkpt lat="44.93420813548667" lon="11.883495649646939"><ele>-1.0</ele><time>2026-04-18T13:55:09Z</time></trkpt><trkpt lat="44.93416289878947" lon="11.883615821789741"><ele>-1.0</ele><time>2026-04-18T13:55:11Z</time></trkpt><trkpt lat="44.93411159813951" lon="11.88373435112912"><ele>-1.0</ele><time>2026-04-18T13:55:13Z</time></trkpt><trkpt lat="44.93405905129457" lon="11.883843818852554"><ele>-1.0</ele><time>2026-04-18T13:55:15Z</time></trkpt><trkpt lat="44.93400563308929" lon="11.883958437035513"><ele>-1.0</ele><time>2026-04-18T13:55:17Z</time></trkpt><trkpt lat="44.933950113735264" lon="11.884070148054484"><ele>-1.0</ele><time>2026-04-18T13:55:19Z</time></trkpt><trkpt lat="44.93389481327729" lon="11.884177690707098"><ele>-1.0</ele><time>2026-04-18T13:55:21Z</time></trkpt><trkpt lat="44.93383787993259" lon="11.884287939285942"><ele>-1.2000000000000002</ele><time>2026-04-18T13:55:23Z</time></trkpt><trkpt lat="44.93378528819428" lon="11.884398555534233"><ele>-1.4000000000000001</ele><time>2026-04-18T13:55:25Z</time></trkpt><trkpt lat="44.93372891240151" lon="11.884505826269931"><ele>-1.6</ele><time>2026-04-18T13:55:27Z</time></trkpt><trkpt lat="44.933675112536356" lon="11.884618525379931"><ele>-1.8</ele><time>2026-04-18T13:55:29Z</time></trkpt><trkpt lat="44.93362255718817" lon="11.884729545108234"><ele>-2.0</ele><time>2026-04-18T13:55:31Z</time></trkpt><trkpt lat="44.93356546838072" lon="11.8848374565809"><ele>-2.0</ele><time>2026-04-18T13:55:33Z</time></trkpt><trkpt lat="44.93351299802845" lon="11.884950922534273"><ele>-2.0</ele><time>2026-04-18T13:55:35Z</time></trkpt><trkpt lat="44.933454916601235" lon="11.88505998557196"><ele>-2.0</ele><time>2026-04-18T13:55:37Z</time></trkpt><trkpt lat="44.93340036177441" lon="11.885173515899181"><ele>-2.0</ele><time>2026-04-18T13:55:39Z</time></trkpt><trkpt lat="44.93334520903373" lon="11.885286665013792"><ele>-2.0</ele><time>2026-04-18T13:55:41Z</time></trkpt><trkpt lat="44.9332876258356" lon="11.885393486337524"><ele>-1.8</ele><time>2026-04-18T13:55:43Z</time></trkpt><trkpt lat="44.933234807323885" lon="11.885508773304128"><ele>-1.6</ele><time>2026-04-18T13:55:45Z</time></trkpt><trkpt lat="44.93317948587433" lon="11.885619523574658"><ele>-1.4000000000000001</ele><time>2026-04-18T13:55:47Z</time></trkpt><trkpt lat="44.93312229896757" lon="11.885728675619271"><ele>-1.2000000000000002</ele><time>2026-04-18T13:55:49Z</time></trkpt><trkpt lat="44.93306565641456" lon="11.88583997280399"><ele>-1.0</ele><time>2026-04-18T13:55:51Z</time></trkpt><trkpt lat="44.93300804973817" lon="11.885952465786676"><ele>-0.8</ele><time>2026-04-18T13:55:53Z</time></trkpt><trkpt lat="44.93294960990157" lon="11.88606531096289"><ele>-0.6000000000000001</ele><time>2026-04-18T13:55:55Z</time></trkpt><trkpt lat="44.93289585253483" lon="11.886178597802282"><ele>-0.4</ele><time>2026-04-18T13:55:57Z</time></trkpt><trkpt lat="44.932837786176854" lon="11.886286629559821"><ele>-0.2</ele><time>2026-04-18T13:55:59Z</time></trkpt><trkpt lat="44.932780458796636" lon="11.8863989440752"><ele>0.0</ele><time>2026-04-18T13:56:01Z</time></trkpt><trkpt lat="44.93272370121357" lon="11.886511145195763"><ele>0.0</ele><time>2026-04-18T13:56:03Z</time></trkpt><trkpt lat="44.932665180497224" lon="11.886622826617277"><ele>0.0</ele><time>2026-04-18T13:56:05Z</time></trkpt><trkpt lat="44.93260833392001" lon="11.88673665552215"><ele>0.0</ele><time>2026-04-18T13:56:07Z</time></trkpt><trkpt lat="44.93255209909847" lon="11.886851359761947"><ele>0.0</ele><time>2026-04-18T13:56:09Z</time></trkpt><trkpt lat="44.932495082028474" lon="11.88696340969368"><ele>0.0</ele><time>2026-04-18T13:56:11Z</time></trkpt><trkpt lat="44.93243838452497" lon="11.887071378485576"><ele>-0.2</ele><time>2026-04-18T13:56:13Z</time></trkpt><trkpt lat="44.93238217262765" lon="11.887179593972325"><ele>-0.4</ele><time>2026-04-18T13:56:15Z</time></trkpt><trkpt lat="44.93232706454671" lon="11.887289789638734"><ele>-0.6000000000000001</ele><time>2026-04-18T13:56:17Z</time></trkpt><trkpt lat="44.93226868900037" lon="11.887400245046557"><ele>-0.8</ele><time>2026-04-18T13:56:19Z</time></trkpt><trkpt lat="44.93221129647103" lon="11.887511226521026"><ele>-1.0</ele><time>2026-04-18T13:56:21Z</time></trkpt><trkpt lat="44.93215134418749" lon="11.887619723178307"><ele>-1.0</ele><time>2026-04-18T13:56:23Z</time></trkpt><trkpt lat="44.932092015108644" lon="11.887732146425112"><ele>-1.0</ele><time>2026-04-18T13:56:25Z</time></trkpt><trkpt lat="44.93203944907383" lon="11.887844742683566"><ele>-1.0</ele><time>2026-04-18T13:56:27Z</time></trkpt><trkpt lat="44.931977553243854" lon="11.887949979321881"><ele>-1.0</ele><time>2026-04-18T13:56:29Z</time></trkpt><trkpt lat="44.93191831977867" lon="11.888056564768167"><ele>-1.0</ele><time>2026-04-18T13:56:31Z</time></trkpt><trkpt lat="44.93186442821384" lon="11.888167419642475"><ele>-1.0</ele><time>2026-04-18T13:56:33Z</time></trkpt><trkpt lat="44.931809635389406" lon="11.888279331918461"><ele>-1.0</ele><time>2026-04-18T13:56:35Z</time></trkpt><trkpt lat="44.93176809663968" lon="11.888401028335565"><ele>-1.0</ele><time>2026-04-18T13:56:37Z</time></trkpt><trkpt lat="44.93173437243597" lon="11.888525868329111"><ele>-1.0</ele><time>2026-04-18T13:56:39Z</time></trkpt><trkpt lat="44.93171147220443" lon="11.888659491506232"><ele>-1.0</ele><time>2026-04-18T13:56:41Z</time></trkpt><trkpt lat="44.93168447413837" lon="11.888796140788152"><ele>-1.0</ele><time>2026-04-18T13:56:43Z</time></trkpt><trkpt lat="44.93166385579454" lon="11.888931209891828"><ele>-1.0</ele><time>2026-04-18T13:56:45Z</time></trkpt><trkpt lat="44.93164370212649" lon="11.889071831056969"><ele>-1.0</ele><time>2026-04-18T13:56:47Z</time></trkpt><trkpt lat="44.93162630079509" lon="11.889208916714155"><ele>-1.0</ele><time>2026-04-18T13:56:49Z</time></trkpt><trkpt lat="44.93160757784988" lon="11.88934311082838"><ele>-1.0</ele><time>2026-04-18T13:56:51Z</time></trkpt><trkpt lat="44.931589815210074" lon="11.889479839370123"><ele>-1.0</ele><time>2026-04-18T13:56:53Z</time></trkpt><trkpt lat="44.93157848745334" lon="11.889614784694531"><ele>-1.0</ele><time>2026-04-18T13:56:55Z</time></trkpt><trkpt lat="44.93157240800297" lon="11.889754705644766"><ele>-1.0</ele><time>2026-04-18T13:56:57Z</time></trkpt><trkpt lat="44.93156576105177" lon="11.889888334679297"><ele>-1.0</ele><time>2026-04-18T13:56:59Z</time></trkpt><trkpt lat="44.931564566061105" lon="11.89001828973595"><ele>-1.0</ele><time>2026-04-18T13:57:01Z</time></trkpt><trkpt lat="44.931561587286794" lon="11.89014426385158"><ele>-0.8333333333333333</ele><time>2026-04-18T13:57:03Z</time></trkpt><trkpt lat="44.931569149561476" lon="11.890252759633432"><ele>-0.6666666666666666</ele><time>2026-04-18T13:57:05Z</time></trkpt><trkpt lat="44.9315710062793" lon="11.890362171093923"><ele>-0.5</ele><time>2026-04-18T13:57:07Z</time></trkpt><trkpt lat="44.931573701664135" lon="11.890495305002672"><ele>-0.3333333333333333</ele><time>2026-04-18T13:57:09Z</time></trkpt><trkpt lat="44.93157711168421" lon="11.89062232172003"><ele>-0.16666666666666666</ele><time>2026-04-18T13:57:11Z</time></trkpt><trkpt lat="44.93158692689367" lon="11.89073161540655"><ele>0.0</ele><time>2026-04-18T13:57:13Z</time></trkpt><trkpt lat="44.93159338764667" lon="11.890836145892033"><ele>-0.2857142857142857</ele><time>2026-04-18T13:57:15Z</time></trkpt><trkpt lat="44.931607416378654" lon="11.890931486470869"><ele>-0.5714285714285714</ele><time>2026-04-18T13:57:17Z</time></trkpt><trkpt lat="44.931617276286715" lon="11.891022047075241"><ele>-0.8571428571428571</ele><time>2026-04-18T13:57:19Z</time></trkpt><trkpt lat="44.931635780866316" lon="11.89113643396636"><ele>-1.1428571428571428</ele><time>2026-04-18T13:57:21Z</time></trkpt><trkpt lat="44.9316561239911" lon="11.891243107257969"><ele>-1.4285714285714284</ele><time>2026-04-18T13:57:23Z</time></trkpt><trkpt lat="44.93168112518382" lon="11.891347204903775"><ele>-1.7142857142857142</ele><time>2026-04-18T13:57:25Z</time></trkpt><trkpt lat="44.93170338614968" lon="11.891444972050028"><ele>-2.0</ele><time>2026-04-18T13:57:27Z</time></trkpt><trkpt lat="44.93173097540515" lon="11.89157047763569"><ele>-1.9999999999999998</ele><time>2026-04-18T13:57:30Z</time></trkpt><trkpt lat="44.93175288087406" lon="11.891654934777279"><ele>-2.0</ele><time>2026-04-18T13:57:32Z</time></trkpt><trkpt lat="44.9317793400416" lon="11.891774303688631"><ele>-2.0</ele><time>2026-04-18T13:57:34Z</time></trkpt><trkpt lat="44.93180890683807" lon="11.891898172800513"><ele>-2.0</ele><time>2026-04-18T13:57:36Z</time></trkpt><trkpt lat="44.93183437939424" lon="11.892025219230813"><ele>-1.9999999999999998</ele><time>2026-04-18T13:57:38Z</time></trkpt><trkpt lat="44.93186575162809" lon="11.8921547210825"><ele>-2.0</ele><time>2026-04-18T13:57:40Z</time></trkpt><trkpt lat="44.93189368898039" lon="11.892288408853505"><ele>-2.0</ele><time>2026-04-18T13:57:42Z</time></trkpt><trkpt lat="44.9319187519417" lon="11.892423775217502"><ele>-2.0</ele><time>2026-04-18T13:57:44Z</time></trkpt><trkpt lat="44.931935653433705" lon="11.892566776889916"><ele>-2.0</ele><time>2026-04-18T13:57:46Z</time></trkpt><trkpt lat="44.93195600269589" lon="11.892698073000497"><ele>-2.0</ele><time>2026-04-18T13:57:48Z</time></trkpt><trkpt lat="44.93197435332547" lon="11.892832779257153"><ele>-2.0</ele><time>2026-04-18T13:57:50Z</time></trkpt><trkpt lat="44.931986493147065" lon="11.89296859962061"><ele>-1.9999999999999998</ele><time>2026-04-18T13:57:52Z</time></trkpt><trkpt lat="44.93200236086008" lon="11.893100087952499"><ele>-2.0</ele><time>2026-04-18T13:57:54Z</time></trkpt><trkpt lat="44.93201304191389" lon="11.893221291204132"><ele>-2.0</ele><time>2026-04-18T13:57:56Z</time></trkpt><trkpt lat="44.9320210466414" lon="11.893334722824214"><ele>-2.0</ele><time>2026-04-18T13:57:58Z</time></trkpt><trkpt lat="44.93203240926953" lon="11.893455492744932"><ele>-1.9999999999999998</ele><time>2026-04-18T13:58:00Z</time></trkpt><trkpt lat="44.9320455864671" lon="11.893591306993994"><ele>-2.0</ele><time>2026-04-18T13:58:02Z</time></trkpt><trkpt lat="44.932058622230706" lon="11.893719996374083"><ele>-2.0</ele><time>2026-04-18T13:58:04Z</time></trkpt><trkpt lat="44.93206837487082" lon="11.893852006487515"><ele>-2.0</ele><time>2026-04-18T13:58:06Z</time></trkpt><trkpt lat="44.93207898701406" lon="11.893988804585405"><ele>-2.0</ele><time>2026-04-18T13:58:08Z</time></trkpt><trkpt lat="44.932090280944266" lon="11.894127924785572"><ele>-2.0</ele><time>2026-04-18T13:58:10Z</time></trkpt><trkpt lat="44.93210392093528" lon="11.894261008437175"><ele>-2.0</ele><time>2026-04-18T13:58:12Z</time></trkpt><trkpt lat="44.93211264643642" lon="11.894400473769405"><ele>-2.2</ele><time>2026-04-18T13:58:14Z</time></trkpt><trkpt lat="44.93212211866783" lon="11.89453640963287"><ele>-2.4000000000000004</ele><time>2026-04-18T13:58:16Z</time></trkpt><trkpt lat="44.93212649903446" lon="11.894674459666117"><ele>-2.5999999999999996</ele><time>2026-04-18T13:58:18Z</time></trkpt><trkpt lat="44.932134917212494" lon="11.894811172860544"><ele>-2.8</ele><time>2026-04-18T13:58:20Z</time></trkpt><trkpt lat="44.932146643975116" lon="11.894948293319686"><ele>-3.0</ele><time>2026-04-18T13:58:22Z</time></trkpt><trkpt lat="44.93214814006141" lon="11.895083519627422"><ele>-2.8</ele><time>2026-04-18T13:58:24Z</time></trkpt><trkpt lat="44.93215643109684" lon="11.895226811526658"><ele>-2.5999999999999996</ele><time>2026-04-18T13:58:26Z</time></trkpt><trkpt lat="44.93216391624794" lon="11.895358596482675"><ele>-2.4000000000000004</ele><time>2026-04-18T13:58:28Z</time></trkpt><trkpt lat="44.932171437069286" lon="11.895489993770049"><ele>-2.2</ele><time>2026-04-18T13:58:30Z</time></trkpt><trkpt lat="44.93219500956601" lon="11.895693734433046"><ele>-2.0</ele><time>2026-04-18T13:58:32Z</time></trkpt><trkpt lat="44.93219392525561" lon="11.895815848058772"><ele>-2.0</ele><time>2026-04-18T13:58:35Z</time></trkpt><trkpt lat="44.93220730972085" lon="11.895946643737206"><ele>-2.0</ele><time>2026-04-18T13:58:37Z</time></trkpt><trkpt lat="44.93222017158794" lon="11.896076146285873"><ele>-2.0</ele><time>2026-04-18T13:58:39Z</time></trkpt><trkpt lat="44.932231576228105" lon="11.896199482147713"><ele>-2.0</ele><time>2026-04-18T13:58:41Z</time></trkpt><trkpt lat="44.932253895873124" lon="11.896323832164594"><ele>-2.0</ele><time>2026-04-18T13:58:43Z</time></trkpt><trkpt lat="44.932272145493414" lon="11.896459747341044"><ele>-2.0</ele><time>2026-04-18T13:58:45Z</time></trkpt><trkpt lat="44.932292153280514" lon="11.896600251184687"><ele>-2.0</ele><time>2026-04-18T13:58:47Z</time></trkpt><trkpt lat="44.93232096286598" lon="11.896730814236106"><ele>-2.0</ele><time>2026-04-18T13:58:49Z</time></trkpt><trkpt lat="44.93234186717773" lon="11.89686620802414"><ele>-2.0</ele><time>2026-04-18T13:58:51Z</time></trkpt><trkpt lat="44.93235729057289" lon="11.897001277780456"><ele>-2.0</ele><time>2026-04-18T13:58:53Z</time></trkpt><trkpt lat="44.93237639700541" lon="11.897131544565795"><ele>-1.8</ele><time>2026-04-18T13:58:55Z</time></trkpt><trkpt lat="44.932402726747306" lon="11.897256327989645"><ele>-1.6</ele><time>2026-04-18T13:58:57Z</time></trkpt><trkpt lat="44.93242292383122" lon="11.89738803188405"><ele>-1.4000000000000001</ele><time>2026-04-18T13:58:59Z</time></trkpt><trkpt lat="44.932445357518176" lon="11.89752294432418"><ele>-1.2000000000000002</ele><time>2026-04-18T13:59:01Z</time></trkpt><trkpt lat="44.932470381617904" lon="11.897654427002383"><ele>-1.0</ele><time>2026-04-18T13:59:03Z</time></trkpt><trkpt lat="44.93249575177671" lon="11.89778933107307"><ele>-1.0</ele><time>2026-04-18T13:59:05Z</time></trkpt><trkpt lat="44.932519261799655" lon="11.897929770955454"><ele>-1.0</ele><time>2026-04-18T13:59:07Z</time></trkpt><trkpt lat="44.93253742401347" lon="11.898065510001922"><ele>-1.0</ele><time>2026-04-18T13:59:09Z</time></trkpt><trkpt lat="44.93255732795402" lon="11.898203403635712"><ele>-1.0</ele><time>2026-04-18T13:59:11Z</time></trkpt><trkpt lat="44.932579223243735" lon="11.898334729847885"><ele>-1.0</ele><time>2026-04-18T13:59:13Z</time></trkpt><trkpt lat="44.93259549921786" lon="11.8984702604943"><ele>-1.0</ele><time>2026-04-18T13:59:15Z</time></trkpt><trkpt lat="44.93260997274698" lon="11.898604333942911"><ele>-1.0</ele><time>2026-04-18T13:59:17Z</time></trkpt><trkpt lat="44.93263021147874" lon="11.898738558324931"><ele>-1.0</ele><time>2026-04-18T13:59:19Z</time></trkpt><trkpt lat="44.93264410158629" lon="11.89887595985418"><ele>-1.0</ele><time>2026-04-18T13:59:21Z</time></trkpt><trkpt lat="44.93266620824153" lon="11.899010291824501"><ele>-1.0</ele><time>2026-04-18T13:59:23Z</time></trkpt><trkpt lat="44.932694148873026" lon="11.899137851782791"><ele>-1.1666666666666665</ele><time>2026-04-18T13:59:25Z</time></trkpt><trkpt lat="44.93271107168556" lon="11.899255540594687"><ele>-1.3333333333333333</ele><time>2026-04-18T13:59:27Z</time></trkpt><trkpt lat="44.93271410066619" lon="11.899372123176162"><ele>-1.5</ele><time>2026-04-18T13:59:29Z</time></trkpt><trkpt lat="44.93272978424623" lon="11.899496126820841"><ele>-1.6666666666666665</ele><time>2026-04-18T13:59:31Z</time></trkpt><trkpt lat="44.932737655516014" lon="11.899617890429203"><ele>-1.8333333333333333</ele><time>2026-04-18T13:59:33Z</time></trkpt><trkpt lat="44.93273269802533" lon="11.899736961483487"><ele>-2.0</ele><time>2026-04-18T13:59:35Z</time></trkpt><trkpt lat="44.93272394560697" lon="11.899855809250855"><ele>-2.0</ele><time>2026-04-18T13:59:37Z</time></trkpt><trkpt lat="44.93272289392983" lon="11.899975652939261"><ele>-2.0</ele><time>2026-04-18T13:59:39Z</time></trkpt><trkpt lat="44.932711341582745" lon="11.900102677593107"><ele>-2.0</ele><time>2026-04-18T13:59:41Z</time></trkpt><trkpt lat="44.93270209619439" lon="11.90023463431999"><ele>-2.0</ele><time>2026-04-18T13:59:43Z</time></trkpt><trkpt lat="44.93269236630271" lon="11.900370842649178"><ele>-2.0</ele><time>2026-04-18T13:59:45Z</time></trkpt><trkpt lat="44.932687918266964" lon="11.900506682415577"><ele>-2.0</ele><time>2026-04-18T13:59:47Z</time></trkpt><trkpt lat="44.932676907603074" lon="11.900643671555576"><ele>-2.0</ele><time>2026-04-18T13:59:49Z</time></trkpt><trkpt lat="44.932668626216326" lon="11.900780836745806"><ele>-2.0</ele><time>2026-04-18T13:59:51Z</time></trkpt><trkpt lat="44.93265928386969" lon="11.900918377442018"><ele>-2.0</ele><time>2026-04-18T13:59:53Z</time></trkpt><trkpt lat="44.93264838843418" lon="11.901052585905425"><ele>-2.0</ele><time>2026-04-18T13:59:55Z</time></trkpt><trkpt lat="44.932638679620844" lon="11.901190483051714"><ele>-1.9999999999999998</ele><time>2026-04-18T13:59:57Z</time></trkpt><trkpt lat="44.93262719485887" lon="11.901321831417851"><ele>-2.0</ele><time>2026-04-18T13:59:59Z</time></trkpt><trkpt lat="44.93261617923341" lon="11.901459406427692"><ele>-2.0</ele><time>2026-04-18T14:00:01Z</time></trkpt><trkpt lat="44.93260844254228" lon="11.90156894785101"><ele>-2.0</ele><time>2026-04-18T14:00:03Z</time></trkpt><trkpt lat="44.932598511782736" lon="11.901677274479704"><ele>-1.9999999999999998</ele><time>2026-04-18T14:00:05Z</time></trkpt><trkpt lat="44.932600894544215" lon="11.901775362898988"><ele>-2.0</ele><time>2026-04-18T14:00:07Z</time></trkpt><trkpt lat="44.93259347827651" lon="11.901899390144726"><ele>-1.8333333333333333</ele><time>2026-04-18T14:00:09Z</time></trkpt><trkpt lat="44.93258361844204" lon="11.902015237477025"><ele>-1.6666666666666665</ele><time>2026-04-18T14:00:11Z</time></trkpt><trkpt lat="44.932571474368686" lon="11.902133577704605"><ele>-1.5</ele><time>2026-04-18T14:00:13Z</time></trkpt><trkpt lat="44.932564954450754" lon="11.902263054204376"><ele>-1.3333333333333333</ele><time>2026-04-18T14:00:15Z</time></trkpt><trkpt lat="44.932572183962485" lon="11.902381182261939"><ele>-1.1666666666666665</ele><time>2026-04-18T14:00:17Z</time></trkpt><trkpt lat="44.93255785053571" lon="11.902494947341127"><ele>-1.0</ele><time>2026-04-18T14:00:19Z</time></trkpt><trkpt lat="44.93254082313357" lon="11.902613074562824"><ele>-0.9999999999999999</ele><time>2026-04-18T14:00:21Z</time></trkpt><trkpt lat="44.932514663999626" lon="11.902725637043257"><ele>-1.0</ele><time>2026-04-18T14:00:23Z</time></trkpt><trkpt lat="44.93249620742705" lon="11.902842016380616"><ele>-1.0</ele><time>2026-04-18T14:00:25Z</time></trkpt><trkpt lat="44.93247807267663" lon="11.902948007797574"><ele>-1.0</ele><time>2026-04-18T14:00:27Z</time></trkpt><trkpt lat="44.93244518758672" lon="11.903066967175986"><ele>-0.9999999999999999</ele><time>2026-04-18T14:00:30Z</time></trkpt><trkpt lat="44.93241479449636" lon="11.903144953386326"><ele>-1.0</ele><time>2026-04-18T14:00:32Z</time></trkpt><trkpt lat="44.932386043026284" lon="11.903265558146577"><ele>-0.9999999999999999</ele><time>2026-04-18T14:00:35Z</time></trkpt><trkpt lat="44.93235514240844" lon="11.903365160404283"><ele>-1.0</ele><time>2026-04-18T14:00:37Z</time></trkpt><trkpt lat="44.93232003206874" lon="11.903468522062147"><ele>-1.0</ele><time>2026-04-18T14:00:39Z</time></trkpt><trkpt lat="44.93228414553589" lon="11.903563945651676"><ele>-1.0</ele><time>2026-04-18T14:00:41Z</time></trkpt><trkpt lat="44.932245062761076" lon="11.903678770169673"><ele>-0.9999999999999999</ele><time>2026-04-18T14:00:44Z</time></trkpt><trkpt lat="44.932208600539376" lon="11.903786458210694"><ele>-1.0</ele><time>2026-04-18T14:00:47Z</time></trkpt><trkpt lat="44.932168018864616" lon="11.903886362292173"><ele>-1.5</ele><time>2026-04-18T14:00:49Z</time></trkpt><trkpt lat="44.93212602453" lon="11.903995684726103"><ele>-2.0</ele><time>2026-04-18T14:00:51Z</time></trkpt><trkpt lat="44.93208076746837" lon="11.904081733655675"><ele>-2.5</ele><time>2026-04-18T14:00:53Z</time></trkpt><trkpt lat="44.93203543214433" lon="11.90414619250531"><ele>-3.0</ele><time>2026-04-18T14:00:55Z</time></trkpt><trkpt lat="44.931989759657704" lon="11.904229494769298"><ele>-3.4999999999999996</ele><time>2026-04-18T14:00:57Z</time></trkpt><trkpt lat="44.93194124172873" lon="11.904305004420824"><ele>-4.0</ele><time>2026-04-18T14:00:59Z</time></trkpt><trkpt lat="44.93187762669728" lon="11.904399487148316"><ele>-3.9999999999999996</ele><time>2026-04-18T14:01:01Z</time></trkpt><trkpt lat="44.931812368878475" lon="11.904491173692785"><ele>-4.0</ele><time>2026-04-18T14:01:03Z</time></trkpt><trkpt lat="44.93176713560971" lon="11.90459048303598"><ele>-4.0</ele><time>2026-04-18T14:01:05Z</time></trkpt><trkpt lat="44.931720469163174" lon="11.904679834922167"><ele>-4.0</ele><time>2026-04-18T14:01:07Z</time></trkpt><trkpt lat="44.93168742002042" lon="11.904762847926849"><ele>-3.9999999999999996</ele><time>2026-04-18T14:01:09Z</time></trkpt><trkpt lat="44.93164203637817" lon="11.904841681455693"><ele>-4.0</ele><time>2026-04-18T14:01:11Z</time></trkpt><trkpt lat="44.93160038681342" lon="11.904952545568346"><ele>-3.6666666666666665</ele><time>2026-04-18T14:01:13Z</time></trkpt><trkpt lat="44.93155611714064" lon="11.905062363995475"><ele>-3.333333333333333</ele><time>2026-04-18T14:01:15Z</time></trkpt><trkpt lat="44.9315090102488" lon="11.905168118305374"><ele>-3.0</ele><time>2026-04-18T14:01:17Z</time></trkpt><trkpt lat="44.93148098880204" lon="11.905266701392984"><ele>-2.6666666666666665</ele><time>2026-04-18T14:01:19Z</time></trkpt><trkpt lat="44.93144195046083" lon="11.905369943382043"><ele>-2.333333333333333</ele><time>2026-04-18T14:01:21Z</time></trkpt><trkpt lat="44.93139942763679" lon="11.90548238138508"><ele>-2.0</ele><time>2026-04-18T14:01:23Z</time></trkpt><trkpt lat="44.931359913182064" lon="11.905584846238002"><ele>-1.9999999999999998</ele><time>2026-04-18T14:01:25Z</time></trkpt><trkpt lat="44.93132024245761" lon="11.905669654734057"><ele>-2.0</ele><time>2026-04-18T14:01:27Z</time></trkpt><trkpt lat="44.93128216679681" lon="11.905779757744362"><ele>-2.0</ele><time>2026-04-18T14:01:30Z</time></trkpt><trkpt lat="44.93125723745782" lon="11.905863378109435"><ele>-2.0</ele><time>2026-04-18T14:01:32Z</time></trkpt><trkpt lat="44.93123061198507" lon="11.905966159553333"><ele>-1.9999999999999998</ele><time>2026-04-18T14:01:34Z</time></trkpt><trkpt lat="44.931195947093784" lon="11.906068135933007"><ele>-2.0</ele><time>2026-04-18T14:01:36Z</time></trkpt><trkpt lat="44.931168959436086" lon="11.906158394667113"><ele>-1.9999999999999998</ele><time>2026-04-18T14:01:38Z</time></trkpt><trkpt lat="44.93113917451696" lon="11.9062635418706"><ele>-2.0</ele><time>2026-04-18T14:01:40Z</time></trkpt><trkpt lat="44.93109999040179" lon="11.906380276387706"><ele>-2.0</ele><time>2026-04-18T14:01:42Z</time></trkpt><trkpt lat="44.9310640122545" lon="11.906498544885588"><ele>-2.0</ele><time>2026-04-18T14:01:44Z</time></trkpt><trkpt lat="44.93102132497817" lon="11.90660727444078"><ele>-1.9999999999999998</ele><time>2026-04-18T14:01:46Z</time></trkpt><trkpt lat="44.9309842486346" lon="11.90673203786988"><ele>-2.0</ele><time>2026-04-18T14:01:48Z</time></trkpt><trkpt lat="44.93096593685118" lon="11.906861920428694"><ele>-1.8333333333333333</ele><time>2026-04-18T14:01:50Z</time></trkpt><trkpt lat="44.930936364711016" lon="11.906985749389834"><ele>-1.6666666666666665</ele><time>2026-04-18T14:01:52Z</time></trkpt><trkpt lat="44.930899929197935" lon="11.907095167876705"><ele>-1.5</ele><time>2026-04-18T14:01:54Z</time></trkpt><trkpt lat="44.93087889799247" lon="11.907195119474913"><ele>-1.3333333333333333</ele><time>2026-04-18T14:01:56Z</time></trkpt><trkpt lat="44.93085207419163" lon="11.907316515509823"><ele>-1.1666666666666665</ele><time>2026-04-18T14:01:58Z</time></trkpt><trkpt lat="44.930820140056554" lon="11.907434155328088"><ele>-1.0</ele><time>2026-04-18T14:02:00Z</time></trkpt><trkpt lat="44.93078911503482" lon="11.907550770038254"><ele>-0.8333333333333333</ele><time>2026-04-18T14:02:02Z</time></trkpt><trkpt lat="44.930756964666735" lon="11.907666193237462"><ele>-0.6666666666666666</ele><time>2026-04-18T14:02:04Z</time></trkpt><trkpt lat="44.93071656886945" lon="11.907782521034871"><ele>-0.5</ele><time>2026-04-18T14:02:06Z</time></trkpt><trkpt lat="44.93069442181839" lon="11.90787238816563"><ele>-0.3333333333333333</ele><time>2026-04-18T14:02:08Z</time></trkpt><trkpt lat="44.93066115813398" lon="11.907968792907594"><ele>-0.16666666666666666</ele><time>2026-04-18T14:02:10Z</time></trkpt><trkpt lat="44.930623020065504" lon="11.908088904667983"><ele>0.0</ele><time>2026-04-18T14:02:12Z</time></trkpt><trkpt lat="44.93059262386131" lon="11.90820399920191"><ele>0.0</ele><time>2026-04-18T14:02:14Z</time></trkpt><trkpt lat="44.93056512399932" lon="11.908301281929836"><ele>0.0</ele><time>2026-04-18T14:02:16Z</time></trkpt><trkpt lat="44.930541538899234" lon="11.908422712762786"><ele>0.0</ele><time>2026-04-18T14:02:18Z</time></trkpt><trkpt lat="44.9305155340433" lon="11.908545621367068"><ele>0.0</ele><time>2026-04-18T14:02:20Z</time></trkpt><trkpt lat="44.930485296801855" lon="11.908655008260364"><ele>0.0</ele><time>2026-04-18T14:02:22Z</time></trkpt><trkpt lat="44.93047205785769" lon="11.908751404002818"><ele>0.0</ele><time>2026-04-18T14:02:24Z</time></trkpt><trkpt lat="44.930454536862165" lon="11.908848891243498"><ele>-0.16666666666666666</ele><time>2026-04-18T14:02:26Z</time></trkpt><trkpt lat="44.93044245772102" lon="11.908944640853061"><ele>-0.3333333333333333</ele><time>2026-04-18T14:02:28Z</time></trkpt><trkpt lat="44.93042863642554" lon="11.909033588440908"><ele>-0.5</ele><time>2026-04-18T14:02:30Z</time></trkpt><trkpt lat="44.9304117521732" lon="11.90914678044765"><ele>-0.6666666666666666</ele><time>2026-04-18T14:02:32Z</time></trkpt><trkpt lat="44.93038708301717" lon="11.909266457532809"><ele>-0.8333333333333333</ele><time>2026-04-18T14:02:35Z</time></trkpt><trkpt lat="44.930379898312886" lon="11.909371174821008"><ele>-1.0</ele><time>2026-04-18T14:02:37Z</time></trkpt><trkpt lat="44.93037628712465" lon="11.909473797400155"><ele>-1.1666666666666665</ele><time>2026-04-18T14:02:39Z</time></trkpt><trkpt lat="44.930364464122476" lon="11.909596518176096"><ele>-1.3333333333333333</ele><time>2026-04-18T14:02:42Z</time></trkpt><trkpt lat="44.9303649110923" lon="11.90969952666576"><ele>-1.5</ele><time>2026-04-18T14:02:45Z</time></trkpt><trkpt lat="44.93035920323131" lon="11.909804594253831"><ele>-1.6666666666666665</ele><time>2026-04-18T14:02:49Z</time></trkpt><trkpt lat="44.93036211402728" lon="11.909918490403504"><ele>-1.8333333333333333</ele><time>2026-04-18T14:03:16Z</time></trkpt><trkpt lat="44.930361685511286" lon="11.910054835962061"><ele>-2.0</ele><time>2026-04-18T14:03:19Z</time></trkpt><trkpt lat="44.930360396609935" lon="11.910181600437609"><ele>-1.9999999999999998</ele><time>2026-04-18T14:03:21Z</time></trkpt><trkpt lat="44.930365371094936" lon="11.910299967379906"><ele>-2.0</ele><time>2026-04-18T14:03:23Z</time></trkpt><trkpt lat="44.93036763861961" lon="11.910416915411725"><ele>-2.0</ele><time>2026-04-18T14:03:25Z</time></trkpt><trkpt lat="44.93037018536828" lon="11.910549685727783"><ele>-2.0</ele><time>2026-04-18T14:03:27Z</time></trkpt><trkpt lat="44.930371180574305" lon="11.9106811542315"><ele>-1.9999999999999998</ele><time>2026-04-18T14:03:29Z</time></trkpt><trkpt lat="44.93038027334533" lon="11.910811688318192"><ele>-2.0</ele><time>2026-04-18T14:03:31Z</time></trkpt><trkpt lat="44.93039220235043" lon="11.910944858146074"><ele>-2.1666666666666665</ele><time>2026-04-18T14:03:33Z</time></trkpt><trkpt lat="44.93041022582578" lon="11.911076928961903"><ele>-2.333333333333333</ele><time>2026-04-18T14:03:35Z</time></trkpt><trkpt lat="44.93043204427692" lon="11.911202724932533"><ele>-2.5</ele><time>2026-04-18T14:03:37Z</time></trkpt><trkpt lat="44.93045829197443" lon="11.9113198636177"><ele>-2.6666666666666665</ele><time>2026-04-18T14:03:39Z</time></trkpt><trkpt lat="44.93050142910788" lon="11.911425419496279"><ele>-2.8333333333333335</ele><time>2026-04-18T14:03:41Z</time></trkpt><trkpt lat="44.93054833652157" lon="11.911510431737765"><ele>-3.0</ele><time>2026-04-18T14:03:43Z</time></trkpt><trkpt lat="44.930599838269224" lon="11.911624408794143"><ele>-3.0</ele><time>2026-04-18T14:03:45Z</time></trkpt><trkpt lat="44.930642835169394" lon="11.911737667752575"><ele>-3.0</ele><time>2026-04-18T14:03:47Z</time></trkpt><trkpt lat="44.93069026836539" lon="11.911848119078975"><ele>-3.0</ele><time>2026-04-18T14:03:49Z</time></trkpt><trkpt lat="44.93072854372504" lon="11.911944174137911"><ele>-3.0</ele><time>2026-04-18T14:03:51Z</time></trkpt><trkpt lat="44.93075758632745" lon="11.912029852638911"><ele>-3.0</ele><time>2026-04-18T14:03:53Z</time></trkpt><trkpt lat="44.930788951190095" lon="11.912148532903943"><ele>-3.0</ele><time>2026-04-18T14:03:55Z</time></trkpt><trkpt lat="44.93084246870893" lon="11.912246612058897"><ele>-3.0</ele><time>2026-04-18T14:03:57Z</time></trkpt><trkpt lat="44.93088323665736" lon="11.912335197611917"><ele>-3.0</ele><time>2026-04-18T14:03:59Z</time></trkpt><trkpt lat="44.930921038235034" lon="11.912435866469984"><ele>-3.0</ele><time>2026-04-18T14:04:01Z</time></trkpt><trkpt lat="44.930962412870855" lon="11.91253633332318"><ele>-3.0</ele><time>2026-04-18T14:04:03Z</time></trkpt><trkpt lat="44.93100177970474" lon="11.912634057952436"><ele>-3.0</ele><time>2026-04-18T14:04:05Z</time></trkpt><trkpt lat="44.93103248980587" lon="11.912724017658979"><ele>-3.0</ele><time>2026-04-18T14:04:07Z</time></trkpt><trkpt lat="44.93107891897226" lon="11.91282016057847"><ele>-2.8333333333333335</ele><time>2026-04-18T14:04:09Z</time></trkpt><trkpt lat="44.931112398753235" lon="11.912921890971164"><ele>-2.6666666666666665</ele><time>2026-04-18T14:04:11Z</time></trkpt><trkpt lat="44.93114751647564" lon="11.913017996239011"><ele>-2.5</ele><time>2026-04-18T14:04:13Z</time></trkpt><trkpt lat="44.931185474082376" lon="11.91312736922486"><ele>-2.333333333333333</ele><time>2026-04-18T14:04:15Z</time></trkpt><trkpt lat="44.93124472531268" lon="11.91324075621471"><ele>-2.1666666666666665</ele><time>2026-04-18T14:04:17Z</time></trkpt><trkpt lat="44.93130567330787" lon="11.91331887660371"><ele>-2.0</ele><time>2026-04-18T14:04:19Z</time></trkpt><trkpt lat="44.93136899659456" lon="11.913373200875885"><ele>-1.6666666666666665</ele><time>2026-04-18T14:04:21Z</time></trkpt><trkpt lat="44.931435353607974" lon="11.913409341491603"><ele>-1.3333333333333333</ele><time>2026-04-18T14:04:23Z</time></trkpt><trkpt lat="44.931501438616436" lon="11.913454412577607"><ele>-1.0</ele><time>2026-04-18T14:04:25Z</time></trkpt><trkpt lat="44.93157513874301" lon="11.913495718462341"><ele>-0.6666666666666666</ele><time>2026-04-18T14:04:27Z</time></trkpt><trkpt lat="44.93164967402903" lon="11.91354894135803"><ele>-0.3333333333333333</ele><time>2026-04-18T14:04:29Z</time></trkpt><trkpt lat="44.93171898660434" lon="11.913595372499689"><ele>0.0</ele><time>2026-04-18T14:04:31Z</time></trkpt><trkpt lat="44.931783227598885" lon="11.913645501382092"><ele>0.0</ele><time>2026-04-18T14:04:33Z</time></trkpt><trkpt lat="44.93184818795478" lon="11.9136879860761"><ele>0.0</ele><time>2026-04-18T14:04:35Z</time></trkpt><trkpt lat="44.93191015956184" lon="11.913732249649547"><ele>0.0</ele><time>2026-04-18T14:04:37Z</time></trkpt><trkpt lat="44.93196560435283" lon="11.913779332194784"><ele>0.0</ele><time>2026-04-18T14:04:39Z</time></trkpt><trkpt lat="44.932043002866926" lon="11.913830872393588"><ele>0.0</ele><time>2026-04-18T14:04:41Z</time></trkpt><trkpt lat="44.93211545435501" lon="11.913886745956225"><ele>0.0</ele><time>2026-04-18T14:04:43Z</time></trkpt><trkpt lat="44.93218791325221" lon="11.913947744355667"><ele>0.0</ele><time>2026-04-18T14:04:45Z</time></trkpt><trkpt lat="44.9322514491407" lon="11.913990831405936"><ele>0.0</ele><time>2026-04-18T14:04:47Z</time></trkpt><trkpt lat="44.93230391907167" lon="11.914049397536493"><ele>0.0</ele><time>2026-04-18T14:04:49Z</time></trkpt><trkpt lat="44.93237945362351" lon="11.914137793123459"><ele>0.0</ele><time>2026-04-18T14:04:52Z</time></trkpt><trkpt lat="44.93243878999404" lon="11.914218365710028"><ele>0.0</ele><time>2026-04-18T14:04:54Z</time></trkpt><trkpt lat="44.93248181040653" lon="11.914303192168848"><ele>0.0</ele><time>2026-04-18T14:04:56Z</time></trkpt><trkpt lat="44.9325223977956" lon="11.914378900778624"><ele>-0.3333333333333333</ele><time>2026-04-18T14:04:58Z</time></trkpt><trkpt lat="44.932574633140455" lon="11.914467397448014"><ele>-0.6666666666666666</ele><time>2026-04-18T14:05:00Z</time></trkpt><trkpt lat="44.932612833713414" lon="11.914543746991406"><ele>-1.0</ele><time>2026-04-18T14:05:02Z</time></trkpt><trkpt lat="44.93266332135317" lon="11.914655882474637"><ele>-1.3333333333333333</ele><time>2026-04-18T14:05:05Z</time></trkpt><trkpt lat="44.932699329392555" lon="11.914747778745525"><ele>-1.6666666666666665</ele><time>2026-04-18T14:05:07Z</time></trkpt><trkpt lat="44.93275265873637" lon="11.914866304076984"><ele>-2.0</ele><time>2026-04-18T14:05:10Z</time></trkpt><trkpt lat="44.9328017923705" lon="11.914971458450676"><ele>-1.9999999999999998</ele><time>2026-04-18T14:05:12Z</time></trkpt><trkpt lat="44.932842320746786" lon="11.915070691053362"><ele>-2.0</ele><time>2026-04-18T14:05:14Z</time></trkpt><trkpt lat="44.93287348025788" lon="11.915155757533181"><ele>-2.0</ele><time>2026-04-18T14:05:16Z</time></trkpt><trkpt lat="44.93291706797309" lon="11.915234714713709"><ele>-2.0</ele><time>2026-04-18T14:05:18Z</time></trkpt><trkpt lat="44.93295995996389" lon="11.91533904604168"><ele>-1.9999999999999998</ele><time>2026-04-18T14:05:20Z</time></trkpt><trkpt lat="44.93300349173777" lon="11.915429057719892"><ele>-2.0</ele><time>2026-04-18T14:05:22Z</time></trkpt><trkpt lat="44.93304719512898" lon="11.915512904259732"><ele>-2.0</ele><time>2026-04-18T14:05:24Z</time></trkpt><trkpt lat="44.93309971268886" lon="11.915614888065805"><ele>-2.0</ele><time>2026-04-18T14:05:26Z</time></trkpt><trkpt lat="44.93316036163222" lon="11.915711960951993"><ele>-2.0</ele><time>2026-04-18T14:05:28Z</time></trkpt><trkpt lat="44.93322093364296" lon="11.915813162415244"><ele>-2.0</ele><time>2026-04-18T14:05:30Z</time></trkpt><trkpt lat="44.933281726564275" lon="11.915911517425014"><ele>-2.0</ele><time>2026-04-18T14:05:32Z</time></trkpt><trkpt lat="44.933345009397506" lon="11.916009215226747"><ele>-2.4000000000000004</ele><time>2026-04-18T14:05:34Z</time></trkpt><trkpt lat="44.933412672693606" lon="11.91610737345313"><ele>-2.8000000000000003</ele><time>2026-04-18T14:05:36Z</time></trkpt><trkpt lat="44.93348275562223" lon="11.916204540665833"><ele>-3.2</ele><time>2026-04-18T14:05:38Z</time></trkpt><trkpt lat="44.93354783950632" lon="11.916309547280663"><ele>-3.6</ele><time>2026-04-18T14:05:40Z</time></trkpt><trkpt lat="44.9336137769379" lon="11.916412672825034"><ele>-4.0</ele><time>2026-04-18T14:05:42Z</time></trkpt><trkpt lat="44.933681408016206" lon="11.916512322042385"><ele>-4.0</ele><time>2026-04-18T14:05:44Z</time></trkpt><trkpt lat="44.93374294452972" lon="11.916613530988505"><ele>-4.0</ele><time>2026-04-18T14:05:46Z</time></trkpt><trkpt lat="44.933805412763455" lon="11.916714209823573"><ele>-4.0</ele><time>2026-04-18T14:05:48Z</time></trkpt><trkpt lat="44.933866782172736" lon="11.91681874664557"><ele>-4.0</ele><time>2026-04-18T14:05:50Z</time></trkpt><trkpt lat="44.933928921207205" lon="11.916918248759574"><ele>-4.0</ele><time>2026-04-18T14:05:52Z</time></trkpt><trkpt lat="44.93398827428755" lon="11.917021604986218"><ele>-3.833333333333333</ele><time>2026-04-18T14:05:54Z</time></trkpt><trkpt lat="44.934042604787386" lon="11.917117922531942"><ele>-3.6666666666666665</ele><time>2026-04-18T14:05:56Z</time></trkpt><trkpt lat="44.93409698348163" lon="11.917200706859997"><ele>-3.5</ele><time>2026-04-18T14:05:58Z</time></trkpt><trkpt lat="44.934139582255774" lon="11.917294674755604"><ele>-3.333333333333333</ele><time>2026-04-18T14:06:00Z</time></trkpt><trkpt lat="44.93420226809493" lon="11.91738110432593"><ele>-3.1666666666666665</ele><time>2026-04-18T14:06:02Z</time></trkpt><trkpt lat="44.93425282317812" lon="11.917469316344093"><ele>-3.0</ele><time>2026-04-18T14:06:04Z</time></trkpt><trkpt lat="44.93430237711619" lon="11.917560268755551"><ele>-3.0</ele><time>2026-04-18T14:06:06Z</time></trkpt><trkpt lat="44.93436175689038" lon="11.917653500761546"><ele>-3.0</ele><time>2026-04-18T14:06:08Z</time></trkpt><trkpt lat="44.934408684599575" lon="11.917740705753475"><ele>-3.0</ele><time>2026-04-18T14:06:10Z</time></trkpt><trkpt lat="44.93445164250024" lon="11.91782828084013"><ele>-3.0</ele><time>2026-04-18T14:06:12Z</time></trkpt><trkpt lat="44.93451052072777" lon="11.917903647697132"><ele>-3.0</ele><time>2026-04-18T14:06:14Z</time></trkpt><trkpt lat="44.93456405048948" lon="11.917999870346378"><ele>-3.0</ele><time>2026-04-18T14:06:16Z</time></trkpt><trkpt lat="44.93460688820604" lon="11.918083766509339"><ele>-2.9999999999999996</ele><time>2026-04-18T14:06:18Z</time></trkpt><trkpt lat="44.93465445214807" lon="11.918169166254255"><ele>-3.0</ele><time>2026-04-18T14:06:20Z</time></trkpt><trkpt lat="44.93469068995334" lon="11.918251766636185"><ele>-3.0</ele><time>2026-04-18T14:06:22Z</time></trkpt><trkpt lat="44.93473696548692" lon="11.918357326603216"><ele>-3.0</ele><time>2026-04-18T14:06:24Z</time></trkpt><trkpt lat="44.93477809256082" lon="11.918440923043681"><ele>-3.0</ele><time>2026-04-18T14:06:26Z</time></trkpt><trkpt lat="44.93480523855917" lon="11.91852626461471"><ele>-2.9999999999999996</ele><time>2026-04-18T14:06:28Z</time></trkpt><trkpt lat="44.93483419315374" lon="11.918616330349776"><ele>-3.0</ele><time>2026-04-18T14:06:30Z</time></trkpt><trkpt lat="44.93487753685534" lon="11.918732186675467"><ele>-3.0</ele><time>2026-04-18T14:06:32Z</time></trkpt><trkpt lat="44.93491646808235" lon="11.918859433490201"><ele>-3.0</ele><time>2026-04-18T14:06:34Z</time></trkpt><trkpt lat="44.93495626866476" lon="11.918990381448525"><ele>-3.0</ele><time>2026-04-18T14:06:36Z</time></trkpt><trkpt lat="44.93497947582786" lon="11.919109818716525"><ele>-3.0</ele><time>2026-04-18T14:06:38Z</time></trkpt><trkpt lat="44.935009408339674" lon="11.919238215515097"><ele>-3.0</ele><time>2026-04-18T14:06:40Z</time></trkpt><trkpt lat="44.935042047636564" lon="11.919360091940979"><ele>-3.0</ele><time>2026-04-18T14:06:42Z</time></trkpt><trkpt lat="44.93506414870566" lon="11.919477698257161"><ele>-3.0</ele><time>2026-04-18T14:06:44Z</time></trkpt><trkpt lat="44.93508488328247" lon="11.919583107428808"><ele>-3.0</ele><time>2026-04-18T14:06:46Z</time></trkpt><trkpt lat="44.93509909328234" lon="11.919675915918958"><ele>-3.0</ele><time>2026-04-18T14:06:48Z</time></trkpt><trkpt lat="44.93511606267903" lon="11.91977671453396"><ele>-3.0</ele><time>2026-04-18T14:06:50Z</time></trkpt><trkpt lat="44.93513764515996" lon="11.91990327830008"><ele>-3.0</ele><time>2026-04-18T14:06:52Z</time></trkpt><trkpt lat="44.935162120146025" lon="11.920019522195487"><ele>-2.8333333333333335</ele><time>2026-04-18T14:06:54Z</time></trkpt><trkpt lat="44.93517945129642" lon="11.920128030105486"><ele>-2.6666666666666665</ele><time>2026-04-18T14:06:56Z</time></trkpt><trkpt lat="44.935195545710855" lon="11.920227807224931"><ele>-2.5</ele><time>2026-04-18T14:06:58Z</time></trkpt><trkpt lat="44.935212227434825" lon="11.920333673888152"><ele>-2.333333333333333</ele><time>2026-04-18T14:07:00Z</time></trkpt><trkpt lat="44.93523599872" lon="11.920461282797996"><ele>-2.1666666666666665</ele><time>2026-04-18T14:07:02Z</time></trkpt><trkpt lat="44.935260303470514" lon="11.920593683298575"><ele>-2.0</ele><time>2026-04-18T14:07:04Z</time></trkpt><trkpt lat="44.935284201057726" lon="11.9207162726915"><ele>-2.0</ele><time>2026-04-18T14:07:06Z</time></trkpt><trkpt lat="44.935308279560786" lon="11.920837537457754"><ele>-2.0</ele><time>2026-04-18T14:07:08Z</time></trkpt><trkpt lat="44.93532573079875" lon="11.920958189433543"><ele>-2.0</ele><time>2026-04-18T14:07:10Z</time></trkpt><trkpt lat="44.9353481472024" lon="11.921089747380087"><ele>-2.0</ele><time>2026-04-18T14:07:12Z</time></trkpt><trkpt lat="44.935371917645405" lon="11.921223508847163"><ele>-2.0</ele><time>2026-04-18T14:07:14Z</time></trkpt><trkpt lat="44.93539298332975" lon="11.921347131938134"><ele>-1.857142857142857</ele><time>2026-04-18T14:07:16Z</time></trkpt><trkpt lat="44.93541097501329" lon="11.921457382827814"><ele>-1.714285714285714</ele><time>2026-04-18T14:07:18Z</time></trkpt><trkpt lat="44.93542740563336" lon="11.921558155025982"><ele>-1.5714285714285714</ele><time>2026-04-18T14:07:20Z</time></trkpt><trkpt lat="44.935443893150996" lon="11.921653623635551"><ele>-1.4285714285714284</ele><time>2026-04-18T14:07:22Z</time></trkpt><trkpt lat="44.93546528389719" lon="11.921776118964875"><ele>-1.2857142857142856</ele><time>2026-04-18T14:07:25Z</time></trkpt><trkpt lat="44.93548009970386" lon="11.921869742528159"><ele>-1.1428571428571428</ele><time>2026-04-18T14:07:27Z</time></trkpt><trkpt lat="44.935496517402854" lon="11.921956409288093"><ele>-1.0</ele><time>2026-04-18T14:07:29Z</time></trkpt><trkpt lat="44.935511414249596" lon="11.922043624808248"><ele>-0.8333333333333333</ele><time>2026-04-18T14:07:31Z</time></trkpt><trkpt lat="44.93553168711475" lon="11.922137839727778"><ele>-0.6666666666666666</ele><time>2026-04-18T14:07:33Z</time></trkpt><trkpt lat="44.935553251666306" lon="11.922260923186336"><ele>-0.5</ele><time>2026-04-18T14:07:36Z</time></trkpt><trkpt lat="44.935566135059226" lon="11.922379001030947"><ele>-0.3333333333333333</ele><time>2026-04-18T14:07:39Z</time></trkpt><trkpt lat="44.93559025656534" lon="11.922506477259283"><ele>-0.16666666666666666</ele><time>2026-04-18T14:07:42Z</time></trkpt><trkpt lat="44.93560986547335" lon="11.922623989126217"><ele>0.0</ele><time>2026-04-18T14:07:44Z</time></trkpt><trkpt lat="44.9356243038328" lon="11.92275338984602"><ele>0.0</ele><time>2026-04-18T14:07:46Z</time></trkpt><trkpt lat="44.935638821722144" lon="11.92286912183077"><ele>0.0</ele><time>2026-04-18T14:07:48Z</time></trkpt><trkpt lat="44.935663311367655" lon="11.922975609181862"><ele>0.0</ele><time>2026-04-18T14:07:50Z</time></trkpt><trkpt lat="44.935682199655325" lon="11.92310318990285"><ele>0.0</ele><time>2026-04-18T14:07:52Z</time></trkpt><trkpt lat="44.93570490959014" lon="11.92322937591066"><ele>0.0</ele><time>2026-04-18T14:07:54Z</time></trkpt><trkpt lat="44.935723380416064" lon="11.923362373155918"><ele>0.0</ele><time>2026-04-18T14:07:56Z</time></trkpt><trkpt lat="44.93574636711954" lon="11.923491380399364"><ele>-0.3333333333333333</ele><time>2026-04-18T14:07:58Z</time></trkpt><trkpt lat="44.93576090418512" lon="11.923618944231439"><ele>-0.6666666666666666</ele><time>2026-04-18T14:08:00Z</time></trkpt><trkpt lat="44.93577650889269" lon="11.923742200635397"><ele>-1.0</ele><time>2026-04-18T14:08:02Z</time></trkpt><trkpt lat="44.935790158303966" lon="11.923862765548266"><ele>-1.3333333333333333</ele><time>2026-04-18T14:08:04Z</time></trkpt><trkpt lat="44.93580614975904" lon="11.923986445977535"><ele>-1.6666666666666665</ele><time>2026-04-18T14:08:06Z</time></trkpt><trkpt lat="44.93582311602363" lon="11.924113213772623"><ele>-2.0</ele><time>2026-04-18T14:08:08Z</time></trkpt><trkpt lat="44.935856487045804" lon="11.924235632304548"><ele>-2.4000000000000004</ele><time>2026-04-18T14:08:10Z</time></trkpt><trkpt lat="44.93589018765954" lon="11.92435493131424"><ele>-2.8000000000000003</ele><time>2026-04-18T14:08:12Z</time></trkpt><trkpt lat="44.93593650264076" lon="11.92447366961546"><ele>-3.2</ele><time>2026-04-18T14:08:14Z</time></trkpt><trkpt lat="44.93598132014086" lon="11.924587266557738"><ele>-3.6</ele><time>2026-04-18T14:08:16Z</time></trkpt><trkpt lat="44.936028596857085" lon="11.924698964711743"><ele>-4.0</ele><time>2026-04-18T14:08:18Z</time></trkpt><trkpt lat="44.9360731953025" lon="11.924811258106716"><ele>-4.0</ele><time>2026-04-18T14:08:20Z</time></trkpt><trkpt lat="44.936114178121166" lon="11.92492582478628"><ele>-4.0</ele><time>2026-04-18T14:08:22Z</time></trkpt><trkpt lat="44.93616247567328" lon="11.925043673226442"><ele>-4.0</ele><time>2026-04-18T14:08:24Z</time></trkpt><trkpt lat="44.93620965711347" lon="11.925158535572814"><ele>-4.0</ele><time>2026-04-18T14:08:26Z</time></trkpt><trkpt lat="44.936257062896715" lon="11.925274129220325"><ele>-4.0</ele><time>2026-04-18T14:08:28Z</time></trkpt><trkpt lat="44.936297262087855" lon="11.925392433536988"><ele>-3.833333333333333</ele><time>2026-04-18T14:08:30Z</time></trkpt><trkpt lat="44.93633199203618" lon="11.925518611936972"><ele>-3.6666666666666665</ele><time>2026-04-18T14:08:32Z</time></trkpt><trkpt lat="44.9363555290233" lon="11.925650097291228"><ele>-3.5</ele><time>2026-04-18T14:08:34Z</time></trkpt><trkpt lat="44.93636225153654" lon="11.925776983416034"><ele>-3.333333333333333</ele><time>2026-04-18T14:08:36Z</time></trkpt><trkpt lat="44.93637251550432" lon="11.9258946190653"><ele>-3.1666666666666665</ele><time>2026-04-18T14:08:38Z</time></trkpt><trkpt lat="44.93637280952307" lon="11.926000450900432"><ele>-3.0</ele><time>2026-04-18T14:08:40Z</time></trkpt><trkpt lat="44.936390676562084" lon="11.926127956838698"><ele>-3.0</ele><time>2026-04-18T14:08:42Z</time></trkpt><trkpt lat="44.93642182781039" lon="11.926251022882726"><ele>-3.0</ele><time>2026-04-18T14:08:44Z</time></trkpt><trkpt lat="44.93645350210801" lon="11.926358021580334"><ele>-3.0</ele><time>2026-04-18T14:08:46Z</time></trkpt><trkpt lat="44.93648134666919" lon="11.9264520641421"><ele>-3.0</ele><time>2026-04-18T14:08:48Z</time></trkpt><trkpt lat="44.93650833946639" lon="11.926564566148416"><ele>-3.0</ele><time>2026-04-18T14:08:50Z</time></trkpt><trkpt lat="44.93654705676594" lon="11.926671993920467"><ele>-3.0</ele><time>2026-04-18T14:08:52Z</time></trkpt><trkpt lat="44.936573140483084" lon="11.92675626234388"><ele>-2.8333333333333335</ele><time>2026-04-18T14:08:54Z</time></trkpt><trkpt lat="44.93661590273621" lon="11.926863315088914"><ele>-2.6666666666666665</ele><time>2026-04-18T14:08:56Z</time></trkpt><trkpt lat="44.93665303905271" lon="11.92696202016497"><ele>-2.5</ele><time>2026-04-18T14:08:58Z</time></trkpt><trkpt lat="44.9366862435883" lon="11.927068815631158"><ele>-2.333333333333333</ele><time>2026-04-18T14:09:00Z</time></trkpt><trkpt lat="44.93672020270342" lon="11.927164554714972"><ele>-2.1666666666666665</ele><time>2026-04-18T14:09:02Z</time></trkpt><trkpt lat="44.936762817116026" lon="11.927271499828267"><ele>-2.0</ele><time>2026-04-18T14:09:04Z</time></trkpt><trkpt lat="44.93679751922711" lon="11.927368185895904"><ele>-1.9999999999999998</ele><time>2026-04-18T14:09:06Z</time></trkpt><trkpt lat="44.9368320904803" lon="11.927458875231135"><ele>-2.0</ele><time>2026-04-18T14:09:08Z</time></trkpt><trkpt lat="44.93686982860813" lon="11.927593331622997"><ele>-2.0</ele><time>2026-04-18T14:09:11Z</time></trkpt><trkpt lat="44.936902127141536" lon="11.92771028796369"><ele>-2.0</ele><time>2026-04-18T14:09:13Z</time></trkpt><trkpt lat="44.93692558040644" lon="11.927823432373424"><ele>-1.9999999999999998</ele><time>2026-04-18T14:09:15Z</time></trkpt><trkpt lat="44.936946269190464" lon="11.927934367765339"><ele>-2.0</ele><time>2026-04-18T14:09:17Z</time></trkpt><trkpt lat="44.936945455655476" lon="11.92803942433726"><ele>-1.9999999999999998</ele><time>2026-04-18T14:09:19Z</time></trkpt><trkpt lat="44.936961708526596" lon="11.928160050003948"><ele>-2.0</ele><time>2026-04-18T14:09:21Z</time></trkpt><trkpt lat="44.936981929137566" lon="11.928290791534616"><ele>-2.0</ele><time>2026-04-18T14:09:23Z</time></trkpt><trkpt lat="44.9370058174782" lon="11.928397380255928"><ele>-2.0</ele><time>2026-04-18T14:09:25Z</time></trkpt><trkpt lat="44.937011498580766" lon="11.928500786620251"><ele>-1.9999999999999998</ele><time>2026-04-18T14:09:27Z</time></trkpt><trkpt lat="44.93701412040235" lon="11.928602203920606"><ele>-2.0</ele><time>2026-04-18T14:09:29Z</time></trkpt><trkpt lat="44.93701809490858" lon="11.928717109732583"><ele>-2.0</ele><time>2026-04-18T14:09:31Z</time></trkpt><trkpt lat="44.93702412483062" lon="11.928805992028538"><ele>-1.9999999999999998</ele><time>2026-04-18T14:09:33Z</time></trkpt><trkpt lat="44.93703667331296" lon="11.928913479027884"><ele>-2.0</ele><time>2026-04-18T14:09:36Z</time></trkpt><trkpt lat="44.93703127958029" lon="11.929004910809054"><ele>-2.0</ele><time>2026-04-18T14:09:38Z</time></trkpt><trkpt lat="44.9370391952976" lon="11.929120912047024"><ele>-1.9999999999999998</ele><time>2026-04-18T14:09:41Z</time></trkpt><trkpt lat="44.93703564613397" lon="11.92921540516721"><ele>-2.0</ele><time>2026-04-18T14:09:43Z</time></trkpt><trkpt lat="44.9370423890078" lon="11.929311873841126"><ele>-2.0</ele><time>2026-04-18T14:09:46Z</time></trkpt><trkpt lat="44.93703816312022" lon="11.929400844509045"><ele>-2.0</ele><time>2026-04-18T14:09:48Z</time></trkpt><trkpt lat="44.937048224115195" lon="11.929514097772078"><ele>-1.9999999999999998</ele><time>2026-04-18T14:09:51Z</time></trkpt><trkpt lat="44.937049590868575" lon="11.9296181403172"><ele>-2.0</ele><time>2026-04-18T14:09:55Z</time></trkpt><trkpt lat="44.93704111856729" lon="11.929718157917469"><ele>-2.0</ele><time>2026-04-18T14:09:58Z</time></trkpt><trkpt lat="44.93704639477984" lon="11.929832892775416"><ele>-1.9999999999999998</ele><time>2026-04-18T14:10:01Z</time></trkpt><trkpt lat="44.93705241545225" lon="11.929934718462587"><ele>-2.0</ele><time>2026-04-18T14:10:04Z</time></trkpt><trkpt lat="44.93705207382766" lon="11.930023760344701"><ele>-2.0</ele><time>2026-04-18T14:10:06Z</time></trkpt><trkpt lat="44.93704351355439" lon="11.930142180275904"><ele>-2.1666666666666665</ele><time>2026-04-18T14:10:09Z</time></trkpt><trkpt lat="44.937048662399725" lon="11.930268379799537"><ele>-2.333333333333333</ele><time>2026-04-18T14:10:12Z</time></trkpt><trkpt lat="44.93705571884799" lon="11.930388716679909"><ele>-2.5</ele><time>2026-04-18T14:10:14Z</time></trkpt><trkpt lat="44.937056034672835" lon="11.930482074003574"><ele>-2.6666666666666665</ele><time>2026-04-18T14:10:16Z</time></trkpt><trkpt lat="44.93706263635036" lon="11.930615113156051"><ele>-2.8333333333333335</ele><time>2026-04-18T14:10:19Z</time></trkpt><trkpt lat="44.93706552631474" lon="11.930715879076862"><ele>-3.0</ele><time>2026-04-18T14:10:21Z</time></trkpt><trkpt lat="44.937065696546426" lon="11.930842065237167"><ele>-2.8333333333333335</ele><time>2026-04-18T14:10:23Z</time></trkpt><trkpt lat="44.93706635180053" lon="11.930967959755657"><ele>-2.6666666666666665</ele><time>2026-04-18T14:10:25Z</time></trkpt><trkpt lat="44.937067593909966" lon="11.931078054148283"><ele>-2.5</ele><time>2026-04-18T14:10:27Z</time></trkpt><trkpt lat="44.93706379886711" lon="11.931200079903297"><ele>-2.333333333333333</ele><time>2026-04-18T14:10:29Z</time></trkpt><trkpt lat="44.93706329635262" lon="11.931314033635505"><ele>-2.1666666666666665</ele><time>2026-04-18T14:10:31Z</time></trkpt><trkpt lat="44.937060065137295" lon="11.931411844444531"><ele>-2.0</ele><time>2026-04-18T14:10:33Z</time></trkpt><trkpt lat="44.93705603941977" lon="11.93152729164249"><ele>-1.9999999999999998</ele><time>2026-04-18T14:10:35Z</time></trkpt><trkpt lat="44.937048937048836" lon="11.931641699152081"><ele>-2.0</ele><time>2026-04-18T14:10:37Z</time></trkpt><trkpt lat="44.93704310175099" lon="11.931737190626928"><ele>-2.0</ele><time>2026-04-18T14:10:39Z</time></trkpt><trkpt lat="44.93703381110291" lon="11.931843826672829"><ele>-2.0</ele><time>2026-04-18T14:10:41Z</time></trkpt><trkpt lat="44.93702617224038" lon="11.931965993353728"><ele>-1.9999999999999998</ele><time>2026-04-18T14:10:43Z</time></trkpt><trkpt lat="44.93702099805568" lon="11.932096304577755"><ele>-2.0</ele><time>2026-04-18T14:10:45Z</time></trkpt><trkpt lat="44.93701279470378" lon="11.932225422732596"><ele>-2.0</ele><time>2026-04-18T14:10:47Z</time></trkpt><trkpt lat="44.937020741481035" lon="11.932356626434393"><ele>-2.0</ele><time>2026-04-18T14:10:49Z</time></trkpt><trkpt lat="44.93703923970154" lon="11.932489041563334"><ele>-2.0</ele><time>2026-04-18T14:10:51Z</time></trkpt><trkpt lat="44.9370724912251" lon="11.932606970971364"><ele>-2.0</ele><time>2026-04-18T14:10:53Z</time></trkpt><trkpt lat="44.93711217621629" lon="11.932729005530435"><ele>-2.0</ele><time>2026-04-18T14:10:55Z</time></trkpt><trkpt lat="44.93715533598355" lon="11.932837493896734"><ele>-2.0</ele><time>2026-04-18T14:10:57Z</time></trkpt><trkpt lat="44.93719610094669" lon="11.932945950196887"><ele>-2.0</ele><time>2026-04-18T14:10:59Z</time></trkpt><trkpt lat="44.93723986258911" lon="11.933071330789517"><ele>-2.0</ele><time>2026-04-18T14:11:01Z</time></trkpt><trkpt lat="44.93727511609304" lon="11.933189516618272"><ele>-2.0</ele><time>2026-04-18T14:11:03Z</time></trkpt><trkpt lat="44.9373056717743" lon="11.933309646243691"><ele>-2.0</ele><time>2026-04-18T14:11:05Z</time></trkpt><trkpt lat="44.93733598805305" lon="11.933429431654288"><ele>-2.1666666666666665</ele><time>2026-04-18T14:11:07Z</time></trkpt><trkpt lat="44.93736293459881" lon="11.933542002710203"><ele>-2.333333333333333</ele><time>2026-04-18T14:11:09Z</time></trkpt><trkpt lat="44.93739323626196" lon="11.933656637943326"><ele>-2.5</ele><time>2026-04-18T14:11:11Z</time></trkpt><trkpt lat="44.93742414988348" lon="11.933780907429208"><ele>-2.6666666666666665</ele><time>2026-04-18T14:11:13Z</time></trkpt><trkpt lat="44.93745175966195" lon="11.933902744678333"><ele>-2.8333333333333335</ele><time>2026-04-18T14:11:15Z</time></trkpt><trkpt lat="44.93748586199032" lon="11.934015013315287"><ele>-3.0</ele><time>2026-04-18T14:11:17Z</time></trkpt><trkpt lat="44.93751088243858" lon="11.934108355904975"><ele>-3.0</ele><time>2026-04-18T14:11:19Z</time></trkpt><trkpt lat="44.937539241903735" lon="11.93419754494165"><ele>-3.0</ele><time>2026-04-18T14:11:21Z</time></trkpt><trkpt lat="44.93756115414958" lon="11.934292108921014"><ele>-3.0</ele><time>2026-04-18T14:11:23Z</time></trkpt><trkpt lat="44.93760510597503" lon="11.934411914293879"><ele>-3.0</ele><time>2026-04-18T14:11:25Z</time></trkpt><trkpt lat="44.93764499797358" lon="11.934517242138496"><ele>-3.0</ele><time>2026-04-18T14:11:27Z</time></trkpt><trkpt lat="44.93768892750203" lon="11.934630622072644"><ele>-3.0</ele><time>2026-04-18T14:11:29Z</time></trkpt><trkpt lat="44.93772820827042" lon="11.934734782196827"><ele>-2.8</ele><time>2026-04-18T14:11:31Z</time></trkpt><trkpt lat="44.937767343000104" lon="11.934855801211171"><ele>-2.5999999999999996</ele><time>2026-04-18T14:11:33Z</time></trkpt><trkpt lat="44.937816159373206" lon="11.934966581451368"><ele>-2.4000000000000004</ele><time>2026-04-18T14:11:35Z</time></trkpt><trkpt lat="44.937858843099015" lon="11.935080131906838"><ele>-2.2</ele><time>2026-04-18T14:11:37Z</time></trkpt><trkpt lat="44.93789590510928" lon="11.935191475649752"><ele>-2.0</ele><time>2026-04-18T14:11:39Z</time></trkpt><trkpt lat="44.93792980834211" lon="11.9353049933949"><ele>-2.1666666666666665</ele><time>2026-04-18T14:11:41Z</time></trkpt><trkpt lat="44.937961544184525" lon="11.935420399242505"><ele>-2.333333333333333</ele><time>2026-04-18T14:11:43Z</time></trkpt><trkpt lat="44.93797990040377" lon="11.935524130591997"><ele>-2.5</ele><time>2026-04-18T14:11:45Z</time></trkpt><trkpt lat="44.93799728146457" lon="11.935631823307757"><ele>-2.6666666666666665</ele><time>2026-04-18T14:11:47Z</time></trkpt><trkpt lat="44.93801482421382" lon="11.935748160757477"><ele>-2.8333333333333335</ele><time>2026-04-18T14:11:49Z</time></trkpt><trkpt lat="44.938026500778044" lon="11.935863184838425"><ele>-3.0</ele><time>2026-04-18T14:11:51Z</time></trkpt><trkpt lat="44.93804163469172" lon="11.935978805478065"><ele>-3.0</ele><time>2026-04-18T14:11:53Z</time></trkpt><trkpt lat="44.938060313452475" lon="11.93610842802613"><ele>-3.0</ele><time>2026-04-18T14:11:55Z</time></trkpt><trkpt lat="44.938089773690976" lon="11.936233593643102"><ele>-3.0</ele><time>2026-04-18T14:11:57Z</time></trkpt><trkpt lat="44.938119219656755" lon="11.93635544081862"><ele>-3.0</ele><time>2026-04-18T14:11:59Z</time></trkpt><trkpt lat="44.93815643069103" lon="11.936476708087117"><ele>-3.0</ele><time>2026-04-18T14:12:01Z</time></trkpt><trkpt lat="44.938201375297425" lon="11.936593570738466"><ele>-3.0</ele><time>2026-04-18T14:12:03Z</time></trkpt><trkpt lat="44.9382457053348" lon="11.936708216268286"><ele>-3.0</ele><time>2026-04-18T14:12:05Z</time></trkpt><trkpt lat="44.938296403403065" lon="11.936817956993579"><ele>-3.0</ele><time>2026-04-18T14:12:07Z</time></trkpt><trkpt lat="44.938339914820865" lon="11.936909700716438"><ele>-3.0</ele><time>2026-04-18T14:12:09Z</time></trkpt><trkpt lat="44.938388958246804" lon="11.937006745953681"><ele>-3.0</ele><time>2026-04-18T14:12:11Z</time></trkpt><trkpt lat="44.93844754533993" lon="11.937107018147136"><ele>-3.0</ele><time>2026-04-18T14:12:13Z</time></trkpt><trkpt lat="44.938507482298775" lon="11.937210606556954"><ele>-3.0</ele><time>2026-04-18T14:12:15Z</time></trkpt><trkpt lat="44.938571230880584" lon="11.937309248944945"><ele>-3.0</ele><time>2026-04-18T14:12:17Z</time></trkpt><trkpt lat="44.93863437403238" lon="11.937411001096653"><ele>-3.0</ele><time>2026-04-18T14:12:19Z</time></trkpt><trkpt lat="44.938691550864796" lon="11.937506058584246"><ele>-3.0</ele><time>2026-04-18T14:12:21Z</time></trkpt><trkpt lat="44.93873718546641" lon="11.93760709981483"><ele>-3.0</ele><time>2026-04-18T14:12:23Z</time></trkpt><trkpt lat="44.938777447153285" lon="11.937705909657216"><ele>-3.0</ele><time>2026-04-18T14:12:25Z</time></trkpt><trkpt lat="44.93881526194013" lon="11.937820183374095"><ele>-3.0</ele><time>2026-04-18T14:12:27Z</time></trkpt><trkpt lat="44.9388576968045" lon="11.937936294935986"><ele>-3.0</ele><time>2026-04-18T14:12:29Z</time></trkpt><trkpt lat="44.938891380417544" lon="11.938053269225735"><ele>-3.0</ele><time>2026-04-18T14:12:31Z</time></trkpt><trkpt lat="44.93892861194863" lon="11.93817147947347"><ele>-3.0</ele><time>2026-04-18T14:12:33Z</time></trkpt><trkpt lat="44.93897474461751" lon="11.938268181095156"><ele>-3.0</ele><time>2026-04-18T14:12:35Z</time></trkpt><trkpt lat="44.93900572485651" lon="11.938353905895845"><ele>-3.0</ele><time>2026-04-18T14:12:37Z</time></trkpt><trkpt lat="44.93905938144955" lon="11.938447128536366"><ele>-2.8333333333333335</ele><time>2026-04-18T14:12:39Z</time></trkpt><trkpt lat="44.93911638011295" lon="11.938527494810483"><ele>-2.6666666666666665</ele><time>2026-04-18T14:12:41Z</time></trkpt><trkpt lat="44.93917582143659" lon="11.938600440012827"><ele>-2.5</ele><time>2026-04-18T14:12:43Z</time></trkpt><trkpt lat="44.939238242455886" lon="11.93868191505887"><ele>-2.333333333333333</ele><time>2026-04-18T14:12:45Z</time></trkpt><trkpt lat="44.93930160058962" lon="11.938759987937944"><ele>-2.1666666666666665</ele><time>2026-04-18T14:12:47Z</time></trkpt><trkpt lat="44.9393747226681" lon="11.938842594477043"><ele>-2.0</ele><time>2026-04-18T14:12:49Z</time></trkpt><trkpt lat="44.93944995096498" lon="11.938906220737874"><ele>-1.9999999999999998</ele><time>2026-04-18T14:12:51Z</time></trkpt><trkpt lat="44.93950979810885" lon="11.938978070816155"><ele>-2.0</ele><time>2026-04-18T14:12:53Z</time></trkpt><trkpt lat="44.939567889874944" lon="11.939051480847061"><ele>-2.0</ele><time>2026-04-18T14:12:55Z</time></trkpt><trkpt lat="44.93962458634561" lon="11.939138969219021"><ele>-2.0</ele><time>2026-04-18T14:12:57Z</time></trkpt><trkpt lat="44.939674440715855" lon="11.939227879884573"><ele>-1.9999999999999998</ele><time>2026-04-18T14:12:59Z</time></trkpt><trkpt lat="44.93970714444685" lon="11.939328788465993"><ele>-2.0</ele><time>2026-04-18T14:13:01Z</time></trkpt><trkpt lat="44.93972896221866" lon="11.939446555350925"><ele>-1.9999999999999998</ele><time>2026-04-18T14:13:03Z</time></trkpt><trkpt lat="44.939745185956426" lon="11.939556599531699"><ele>-2.0</ele><time>2026-04-18T14:13:05Z</time></trkpt><trkpt lat="44.939763907715815" lon="11.939652562491505"><ele>-2.0</ele><time>2026-04-18T14:13:07Z</time></trkpt><trkpt lat="44.93977718093786" lon="11.939754905732864"><ele>-2.0</ele><time>2026-04-18T14:13:09Z</time></trkpt><trkpt lat="44.93978544769688" lon="11.939872098083882"><ele>-1.9999999999999998</ele><time>2026-04-18T14:13:11Z</time></trkpt><trkpt lat="44.93980032105207" lon="11.939987044323056"><ele>-2.0</ele><time>2026-04-18T14:13:13Z</time></trkpt><trkpt lat="44.93981840091114" lon="11.940089985817416"><ele>-1.8333333333333333</ele><time>2026-04-18T14:13:15Z</time></trkpt><trkpt lat="44.93983053796672" lon="11.940184083703734"><ele>-1.6666666666666665</ele><time>2026-04-18T14:13:17Z</time></trkpt><trkpt lat="44.93984176132673" lon="11.940276123555035"><ele>-1.5</ele><time>2026-04-18T14:13:19Z</time></trkpt><trkpt lat="44.93985718433744" lon="11.940399684183237"><ele>-1.3333333333333333</ele><time>2026-04-18T14:13:22Z</time></trkpt><trkpt lat="44.93987424969944" lon="11.940495957347835"><ele>-1.1666666666666665</ele><time>2026-04-18T14:13:25Z</time></trkpt><trkpt lat="44.939902426582556" lon="11.940614789606327"><ele>-1.0</ele><time>2026-04-18T14:16:35Z</time></trkpt><trkpt lat="44.93991458220426" lon="11.940737130726564"><ele>-0.9999999999999999</ele><time>2026-04-18T14:16:38Z</time></trkpt><trkpt lat="44.939920251208456" lon="11.940840209339978"><ele>-1.0</ele><time>2026-04-18T14:16:40Z</time></trkpt><trkpt lat="44.939942808293054" lon="11.940964202601648"><ele>-1.0</ele><time>2026-04-18T14:16:42Z</time></trkpt><trkpt lat="44.93996183287964" lon="11.941090785592857"><ele>-1.0</ele><time>2026-04-18T14:16:44Z</time></trkpt><trkpt lat="44.939986764510124" lon="11.941223228739357"><ele>-0.9999999999999999</ele><time>2026-04-18T14:16:46Z</time></trkpt><trkpt lat="44.94001755530797" lon="11.941353303966071"><ele>-1.0</ele><time>2026-04-18T14:16:48Z</time></trkpt><trkpt lat="44.94005990742657" lon="11.941468292469233"><ele>-1.4</ele><time>2026-04-18T14:16:50Z</time></trkpt><trkpt lat="44.94010965686353" lon="11.941572023181381"><ele>-1.8</ele><time>2026-04-18T14:16:52Z</time></trkpt><trkpt lat="44.94017364697699" lon="11.941662389280074"><ele>-2.1999999999999997</ele><time>2026-04-18T14:16:54Z</time></trkpt><trkpt lat="44.94024357348211" lon="11.941739500670828"><ele>-2.6</ele><time>2026-04-18T14:16:56Z</time></trkpt><trkpt lat="44.94032689226079" lon="11.941800869098186"><ele>-3.0</ele><time>2026-04-18T14:16:58Z</time></trkpt><trkpt lat="44.94041027579178" lon="11.941869883963783"><ele>-3.0</ele><time>2026-04-18T14:17:00Z</time></trkpt><trkpt lat="44.940494816687824" lon="11.941942377299904"><ele>-3.0</ele><time>2026-04-18T14:17:02Z</time></trkpt><trkpt lat="44.940567372979984" lon="11.942030996850402"><ele>-3.0</ele><time>2026-04-18T14:17:04Z</time></trkpt><trkpt lat="44.940627009221565" lon="11.942137270429855"><ele>-3.0</ele><time>2026-04-18T14:17:06Z</time></trkpt><trkpt lat="44.94067974782464" lon="11.942252919640097"><ele>-3.0</ele><time>2026-04-18T14:17:08Z</time></trkpt><trkpt lat="44.9407258478586" lon="11.94237430658034"><ele>-3.0</ele><time>2026-04-18T14:17:10Z</time></trkpt><trkpt lat="44.94076954988473" lon="11.942491820361083"><ele>-3.0</ele><time>2026-04-18T14:17:12Z</time></trkpt><trkpt lat="44.94080104133751" lon="11.94261410903229"><ele>-3.0</ele><time>2026-04-18T14:17:14Z</time></trkpt><trkpt lat="44.940843457040295" lon="11.942727865161448"><ele>-3.0</ele><time>2026-04-18T14:17:16Z</time></trkpt><trkpt lat="44.940879868085894" lon="11.942829744377603"><ele>-3.0</ele><time>2026-04-18T14:17:18Z</time></trkpt><trkpt lat="44.94091636428982" lon="11.942934151741058"><ele>-3.0</ele><time>2026-04-18T14:17:20Z</time></trkpt><trkpt lat="44.94094941624751" lon="11.943029735832074"><ele>-2.8333333333333335</ele><time>2026-04-18T14:17:22Z</time></trkpt><trkpt lat="44.94096825692045" lon="11.943124911917986"><ele>-2.6666666666666665</ele><time>2026-04-18T14:17:24Z</time></trkpt><trkpt lat="44.94091979255135" lon="11.943207096159533"><ele>-2.5</ele><time>2026-04-18T14:17:26Z</time></trkpt><trkpt lat="44.94084843285848" lon="11.943234289583291"><ele>-2.333333333333333</ele><time>2026-04-18T14:17:28Z</time></trkpt><trkpt lat="44.94077075958564" lon="11.943256573576443"><ele>-2.1666666666666665</ele><time>2026-04-18T14:17:30Z</time></trkpt><trkpt lat="44.94067631618236" lon="11.94330189384025"><ele>-2.0</ele><time>2026-04-18T14:17:32Z</time></trkpt><trkpt lat="44.94057738980889" lon="11.943326351387016"><ele>-2.0</ele><time>2026-04-18T14:17:33.999Z</time></trkpt><trkpt lat="44.940488405821306" lon="11.943389711942261"><ele>-2.0</ele><time>2026-04-18T14:17:35.999Z</time></trkpt><trkpt lat="44.940477982359035" lon="11.943512780979663"><ele>-2.0</ele><time>2026-04-18T14:17:37.999Z</time></trkpt><trkpt lat="44.9405249926844" lon="11.943630766349864"><ele>-2.0</ele><time>2026-04-18T14:17:39.999Z</time></trkpt><trkpt lat="44.94058145815946" lon="11.943740542891586"><ele>-2.0</ele><time>2026-04-18T14:17:41.999Z</time></trkpt><trkpt lat="44.94063351200931" lon="11.943852934794702"><ele>-2.0</ele><time>2026-04-18T14:17:43.999Z</time></trkpt><trkpt lat="44.94068382663628" lon="11.943969991684497"><ele>-2.0</ele><time>2026-04-18T14:17:46Z</time></trkpt><trkpt lat="44.94073992805326" lon="11.944084043534627"><ele>-2.0</ele><time>2026-04-18T14:17:48Z</time></trkpt><trkpt lat="44.94079121269055" lon="11.944200530031459"><ele>-2.0</ele><time>2026-04-18T14:17:50Z</time></trkpt><trkpt lat="44.94084842982452" lon="11.944316703186235"><ele>-2.0</ele><time>2026-04-18T14:17:52Z</time></trkpt><trkpt lat="44.94089696179013" lon="11.944435341204072"><ele>-2.0</ele><time>2026-04-18T14:17:54Z</time></trkpt><trkpt lat="44.94094527603321" lon="11.944558276912728"><ele>-2.0</ele><time>2026-04-18T14:17:56Z</time></trkpt><trkpt lat="44.94100027990487" lon="11.944672980567368"><ele>-2.0</ele><time>2026-04-18T14:17:58Z</time></trkpt><trkpt lat="44.94105364950588" lon="11.944791386414163"><ele>-2.0</ele><time>2026-04-18T14:18:00Z</time></trkpt><trkpt lat="44.941104590983684" lon="11.944907836360183"><ele>-2.0</ele><time>2026-04-18T14:18:02Z</time></trkpt><trkpt lat="44.941150893877186" lon="11.945031645165672"><ele>-1.8</ele><time>2026-04-18T14:18:04Z</time></trkpt><trkpt lat="44.94119699078571" lon="11.945156824406778"><ele>-1.6</ele><time>2026-04-18T14:18:06Z</time></trkpt><trkpt lat="44.94123631839285" lon="11.945285633329771"><ele>-1.4000000000000001</ele><time>2026-04-18T14:18:08Z</time></trkpt><trkpt lat="44.941266408342535" lon="11.94541673810707"><ele>-1.2000000000000002</ele><time>2026-04-18T14:18:10Z</time></trkpt><trkpt lat="44.941294933539226" lon="11.94554487720594"><ele>-1.0</ele><time>2026-04-18T14:18:12Z</time></trkpt><trkpt lat="44.94131920649156" lon="11.94567408302725"><ele>-1.0</ele><time>2026-04-18T14:18:14Z</time></trkpt><trkpt lat="44.941344350687196" lon="11.945800048885966"><ele>-1.0</ele><time>2026-04-18T14:18:16Z</time></trkpt><trkpt lat="44.94136738893393" lon="11.945932949886602"><ele>-1.0</ele><time>2026-04-18T14:18:18Z</time></trkpt><trkpt lat="44.941393780195455" lon="11.946065664046776"><ele>-1.0</ele><time>2026-04-18T14:18:20Z</time></trkpt><trkpt lat="44.94143058875876" lon="11.94619208536726"><ele>-1.0</ele><time>2026-04-18T14:18:22Z</time></trkpt><trkpt lat="44.94146556312889" lon="11.946322539185362"><ele>-0.9999999999999999</ele><time>2026-04-18T14:18:24Z</time></trkpt><trkpt lat="44.94151047903699" lon="11.946440895902368"><ele>-1.0</ele><time>2026-04-18T14:18:26Z</time></trkpt><trkpt lat="44.941545399692316" lon="11.946556733197756"><ele>-1.0</ele><time>2026-04-18T14:18:28Z</time></trkpt><trkpt lat="44.94159051229772" lon="11.946662159149657"><ele>-1.0</ele><time>2026-04-18T14:18:30Z</time></trkpt><trkpt lat="44.94163041805733" lon="11.946776286551572"><ele>-0.9999999999999999</ele><time>2026-04-18T14:18:32Z</time></trkpt><trkpt lat="44.94166910469616" lon="11.946876254125895"><ele>-1.0</ele><time>2026-04-18T14:18:34Z</time></trkpt><trkpt lat="44.941637895688366" lon="11.946981978211491"><ele>-0.9999999999999999</ele><time>2026-04-18T14:18:36Z</time></trkpt><trkpt lat="44.941562199157495" lon="11.947003407903749"><ele>-1.0</ele><time>2026-04-18T14:18:38Z</time></trkpt><trkpt lat="44.94147492766772" lon="11.94701558879732"><ele>-1.0</ele><time>2026-04-18T14:18:40Z</time></trkpt><trkpt lat="44.9413845277538" lon="11.94703681261583"><ele>-1.0</ele><time>2026-04-18T14:18:42Z</time></trkpt><trkpt lat="44.94130289164075" lon="11.947067200578637"><ele>-0.9999999999999999</ele><time>2026-04-18T14:18:44Z</time></trkpt><trkpt lat="44.94121936897653" lon="11.947078734370537"><ele>-1.0</ele><time>2026-04-18T14:18:46Z</time></trkpt><trkpt lat="44.94113809318461" lon="11.947112650299287"><ele>-0.9999999999999999</ele><time>2026-04-18T14:18:48Z</time></trkpt><trkpt lat="44.94104512034236" lon="11.94712707483342"><ele>-1.0</ele><time>2026-04-18T14:18:50Z</time></trkpt><trkpt lat="44.94096008207681" lon="11.947141435767678"><ele>-1.0</ele><time>2026-04-18T14:18:52Z</time></trkpt><trkpt lat="44.940876744800605" lon="11.947161044561303"><ele>-1.0</ele><time>2026-04-18T14:18:54Z</time></trkpt><trkpt lat="44.94079976690036" lon="11.94717912738523"><ele>-0.9999999999999999</ele><time>2026-04-18T14:18:56Z</time></trkpt><trkpt lat="44.940708279987604" lon="11.94721523644973"><ele>-1.0</ele><time>2026-04-18T14:18:58Z</time></trkpt><trkpt lat="44.94061277926616" lon="11.947229295950224"><ele>-1.0</ele><time>2026-04-18T14:19:00Z</time></trkpt><trkpt lat="44.94051389859754" lon="11.94725539237575"><ele>-1.0</ele><time>2026-04-18T14:19:02Z</time></trkpt><trkpt lat="44.94041411468885" lon="11.947273968418342"><ele>-1.0</ele><time>2026-04-18T14:19:04Z</time></trkpt><trkpt lat="44.940315885644104" lon="11.947286103040224"><ele>-1.0</ele><time>2026-04-18T14:19:06Z</time></trkpt><trkpt lat="44.94022065638176" lon="11.947325904915212"><ele>-1.0</ele><time>2026-04-18T14:19:08Z</time></trkpt><trkpt lat="44.940122640819986" lon="11.947336006242185"><ele>-1.4</ele><time>2026-04-18T14:19:10Z</time></trkpt><trkpt lat="44.94002497866982" lon="11.947356664963305"><ele>-1.8</ele><time>2026-04-18T14:19:12Z</time></trkpt><trkpt lat="44.93992685748013" lon="11.947377912977009"><ele>-2.1999999999999997</ele><time>2026-04-18T14:19:14Z</time></trkpt><trkpt lat="44.939831335786316" lon="11.947407804799774"><ele>-2.6</ele><time>2026-04-18T14:19:16Z</time></trkpt><trkpt lat="44.939732956380105" lon="11.947439123234892"><ele>-3.0</ele><time>2026-04-18T14:19:18Z</time></trkpt><trkpt lat="44.93963509446183" lon="11.947461490659563"><ele>-3.0</ele><time>2026-04-18T14:19:20Z</time></trkpt><trkpt lat="44.939536593048906" lon="11.947476063185547"><ele>-3.0</ele><time>2026-04-18T14:19:22Z</time></trkpt><trkpt lat="44.939440381856166" lon="11.947484657156915"><ele>-3.0</ele><time>2026-04-18T14:19:24Z</time></trkpt><trkpt lat="44.939343735366954" lon="11.947509268804009"><ele>-3.0</ele><time>2026-04-18T14:19:26Z</time></trkpt><trkpt lat="44.93924473306173" lon="11.947530304240233"><ele>-3.0</ele><time>2026-04-18T14:19:27.999Z</time></trkpt><trkpt lat="44.93914677466995" lon="11.947543071033053"><ele>-3.0</ele><time>2026-04-18T14:19:29.999Z</time></trkpt><trkpt lat="44.93905047030094" lon="11.947561074230183"><ele>-3.0</ele><time>2026-04-18T14:19:31.999Z</time></trkpt><trkpt lat="44.93895376317693" lon="11.947580631215956"><ele>-3.0</ele><time>2026-04-18T14:19:33.999Z</time></trkpt><trkpt lat="44.93885560968316" lon="11.94759842117622"><ele>-3.0</ele><time>2026-04-18T14:19:35.999Z</time></trkpt><trkpt lat="44.93876060407404" lon="11.94762621911917"><ele>-3.0</ele><time>2026-04-18T14:19:37.999Z</time></trkpt><trkpt lat="44.938661911498805" lon="11.947647284378037"><ele>-3.0</ele><time>2026-04-18T14:19:39.999Z</time></trkpt><trkpt lat="44.938565299710795" lon="11.94767380515433"><ele>-3.0</ele><time>2026-04-18T14:19:41.999Z</time></trkpt><trkpt lat="44.93846631336846" lon="11.947701774694558"><ele>-3.0</ele><time>2026-04-18T14:19:43.999Z</time></trkpt><trkpt lat="44.93836656248707" lon="11.947717398770493"><ele>-3.0</ele><time>2026-04-18T14:19:45.999Z</time></trkpt><trkpt lat="44.93826993756191" lon="11.947734658156714"><ele>-3.0</ele><time>2026-04-18T14:19:47.999Z</time></trkpt><trkpt lat="44.938175610529356" lon="11.94776025326877"><ele>-2.8</ele><time>2026-04-18T14:19:49.999Z</time></trkpt><trkpt lat="44.938078683141974" lon="11.947777402452138"><ele>-2.5999999999999996</ele><time>2026-04-18T14:19:52Z</time></trkpt><trkpt lat="44.93798454326902" lon="11.947804739855"><ele>-2.4000000000000004</ele><time>2026-04-18T14:19:54Z</time></trkpt><trkpt lat="44.937888373017344" lon="11.947825236121238"><ele>-2.2</ele><time>2026-04-18T14:19:56Z</time></trkpt><trkpt lat="44.93779290703998" lon="11.94785336024476"><ele>-2.0</ele><time>2026-04-18T14:19:58Z</time></trkpt><trkpt lat="44.93770032462709" lon="11.947873972236417"><ele>-2.0</ele><time>2026-04-18T14:20:00Z</time></trkpt><trkpt lat="44.937602713565816" lon="11.947883301895878"><ele>-2.0</ele><time>2026-04-18T14:20:02Z</time></trkpt><trkpt lat="44.93750935318613" lon="11.947908923682034"><ele>-2.0</ele><time>2026-04-18T14:20:04Z</time></trkpt><trkpt lat="44.93741214648856" lon="11.947933171382594"><ele>-2.0</ele><time>2026-04-18T14:20:06Z</time></trkpt><trkpt lat="44.93731538044115" lon="11.947953304282317"><ele>-2.0</ele><time>2026-04-18T14:20:08Z</time></trkpt><trkpt lat="44.93721840198937" lon="11.947979278846905"><ele>-2.0</ele><time>2026-04-18T14:20:10Z</time></trkpt><trkpt lat="44.93712046848828" lon="11.948005323164326"><ele>-2.0</ele><time>2026-04-18T14:20:12Z</time></trkpt><trkpt lat="44.93702373313993" lon="11.948026272308018"><ele>-2.0</ele><time>2026-04-18T14:20:14Z</time></trkpt><trkpt lat="44.93692774917107" lon="11.948048445998472"><ele>-2.0</ele><time>2026-04-18T14:20:16Z</time></trkpt><trkpt lat="44.93683074346383" lon="11.948064046264859"><ele>-2.0</ele><time>2026-04-18T14:20:18Z</time></trkpt><trkpt lat="44.93673687865522" lon="11.9480902372412"><ele>-2.2</ele><time>2026-04-18T14:20:20Z</time></trkpt><trkpt lat="44.936641463370854" lon="11.948108703519482"><ele>-2.4000000000000004</ele><time>2026-04-18T14:20:22Z</time></trkpt><trkpt lat="44.936544322744616" lon="11.948126591796672"><ele>-2.5999999999999996</ele><time>2026-04-18T14:20:24Z</time></trkpt><trkpt lat="44.93645743007707" lon="11.94814260962938"><ele>-2.8</ele><time>2026-04-18T14:20:26Z</time></trkpt><trkpt lat="44.93637112746464" lon="11.948165452368299"><ele>-3.0</ele><time>2026-04-18T14:20:28Z</time></trkpt><trkpt lat="44.93627735811987" lon="11.948179170638658"><ele>-3.0</ele><time>2026-04-18T14:20:30Z</time></trkpt><trkpt lat="44.93618421217392" lon="11.948204148664045"><ele>-3.0</ele><time>2026-04-18T14:20:32Z</time></trkpt><trkpt lat="44.93608826099353" lon="11.948228674961165"><ele>-3.0</ele><time>2026-04-18T14:20:34Z</time></trkpt><trkpt lat="44.93599507987905" lon="11.94825160422818"><ele>-3.0</ele><time>2026-04-18T14:20:36Z</time></trkpt><trkpt lat="44.9359002668299" lon="11.948272405428197"><ele>-3.0</ele><time>2026-04-18T14:20:38Z</time></trkpt><trkpt lat="44.93580213109832" lon="11.948297522159999"><ele>-3.0</ele><time>2026-04-18T14:20:40Z</time></trkpt><trkpt lat="44.93570576071372" lon="11.94831633790515"><ele>-3.0</ele><time>2026-04-18T14:20:42Z</time></trkpt><trkpt lat="44.935612129749494" lon="11.94833385481827"><ele>-3.0</ele><time>2026-04-18T14:20:44Z</time></trkpt><trkpt lat="44.93551909476338" lon="11.948365102854101"><ele>-3.0</ele><time>2026-04-18T14:20:46Z</time></trkpt><trkpt lat="44.93543150558612" lon="11.948378433735314"><ele>-3.0</ele><time>2026-04-18T14:20:48Z</time></trkpt><trkpt lat="44.93535278342115" lon="11.948400926488297"><ele>-2.9999999999999996</ele><time>2026-04-18T14:20:50Z</time></trkpt><trkpt lat="44.93528026480772" lon="11.948420739557571"><ele>-3.0</ele><time>2026-04-18T14:20:52Z</time></trkpt><trkpt lat="44.93521045454298" lon="11.948433534277836"><ele>-3.0</ele><time>2026-04-18T14:20:54Z</time></trkpt><trkpt lat="44.935146501912456" lon="11.948441180673445"><ele>-3.0</ele><time>2026-04-18T14:20:56Z</time></trkpt><trkpt lat="44.93507530835093" lon="11.948460740972285"><ele>-3.0</ele><time>2026-04-18T14:20:58Z</time></trkpt><trkpt lat="44.93498973545321" lon="11.94847992888485"><ele>-2.9999999999999996</ele><time>2026-04-18T14:21:00Z</time></trkpt><trkpt lat="44.934911626896614" lon="11.948500866539543"><ele>-3.0</ele><time>2026-04-18T14:21:02Z</time></trkpt><trkpt lat="44.93484064159266" lon="11.948516304326654"><ele>-3.0</ele><time>2026-04-18T14:21:04Z</time></trkpt><trkpt lat="44.93477036351303" lon="11.948535079004806"><ele>-3.0</ele><time>2026-04-18T14:21:06Z</time></trkpt><trkpt lat="44.934681142192694" lon="11.948558810380678"><ele>-3.0</ele><time>2026-04-18T14:21:08Z</time></trkpt><trkpt lat="44.934595093714414" lon="11.948571587151397"><ele>-3.0</ele><time>2026-04-18T14:21:10Z</time></trkpt><trkpt lat="44.934500984646895" lon="11.948593466784981"><ele>-3.0</ele><time>2026-04-18T14:21:12Z</time></trkpt><trkpt lat="44.93440647961494" lon="11.948622246390737"><ele>-3.0</ele><time>2026-04-18T14:21:14Z</time></trkpt><trkpt lat="44.93431074468564" lon="11.948639456641384"><ele>-3.0</ele><time>2026-04-18T14:21:16Z</time></trkpt><trkpt lat="44.93421128194682" lon="11.948661619902925"><ele>-3.0</ele><time>2026-04-18T14:21:18Z</time></trkpt><trkpt lat="44.934112342172796" lon="11.948681200526556"><ele>-3.0</ele><time>2026-04-18T14:21:20Z</time></trkpt><trkpt lat="44.9340174768965" lon="11.948702960720095"><ele>-3.0</ele><time>2026-04-18T14:21:21.999Z</time></trkpt><trkpt lat="44.933919499986146" lon="11.94872970559982"><ele>-3.0</ele><time>2026-04-18T14:21:23.999Z</time></trkpt><trkpt lat="44.933821251744966" lon="11.948746706674948"><ele>-3.0</ele><time>2026-04-18T14:21:25.999Z</time></trkpt><trkpt lat="44.93372133148588" lon="11.948766084715517"><ele>-3.0</ele><time>2026-04-18T14:21:27.999Z</time></trkpt><trkpt lat="44.933620451556685" lon="11.948783796562362"><ele>-3.0</ele><time>2026-04-18T14:21:29.999Z</time></trkpt><trkpt lat="44.93352504616355" lon="11.94880990657461"><ele>-3.0</ele><time>2026-04-18T14:21:31.999Z</time></trkpt><trkpt lat="44.93342784502501" lon="11.948836424981367"><ele>-3.0</ele><time>2026-04-18T14:21:33.999Z</time></trkpt><trkpt lat="44.93333271378825" lon="11.948860515276623"><ele>-3.2</ele><time>2026-04-18T14:21:35.999Z</time></trkpt><trkpt lat="44.933234160416916" lon="11.94888907930043"><ele>-3.4</ele><time>2026-04-18T14:21:37.999Z</time></trkpt><trkpt lat="44.93313104819019" lon="11.948892161766189"><ele>-3.6000000000000005</ele><time>2026-04-18T14:21:39.999Z</time></trkpt><trkpt lat="44.933037163489146" lon="11.948910533417521"><ele>-3.8000000000000003</ele><time>2026-04-18T14:21:41.999Z</time></trkpt><trkpt lat="44.9329422806079" lon="11.948936374382809"><ele>-4.0</ele><time>2026-04-18T14:21:43.999Z</time></trkpt><trkpt lat="44.93284763656081" lon="11.948961805003849"><ele>-4.0</ele><time>2026-04-18T14:21:45.999Z</time></trkpt><trkpt lat="44.93275452910556" lon="11.948985034598229"><ele>-4.0</ele><time>2026-04-18T14:21:47.999Z</time></trkpt><trkpt lat="44.932659065023884" lon="11.949009476074561"><ele>-4.0</ele><time>2026-04-18T14:21:49.999Z</time></trkpt><trkpt lat="44.93256569220782" lon="11.949018632430777"><ele>-4.0</ele><time>2026-04-18T14:21:51.999Z</time></trkpt><trkpt lat="44.93247148799999" lon="11.949042278947417"><ele>-4.0</ele><time>2026-04-18T14:21:53.999Z</time></trkpt><trkpt lat="44.93237742039805" lon="11.949063581242823"><ele>-3.8000000000000003</ele><time>2026-04-18T14:21:55.999Z</time></trkpt><trkpt lat="44.932286517168464" lon="11.949088842319721"><ele>-3.6000000000000005</ele><time>2026-04-18T14:21:58Z</time></trkpt><trkpt lat="44.93219560706769" lon="11.949108361158409"><ele>-3.4</ele><time>2026-04-18T14:22:00Z</time></trkpt><trkpt lat="44.93210416561853" lon="11.94913350212054"><ele>-3.2</ele><time>2026-04-18T14:22:02Z</time></trkpt><trkpt lat="44.93201118755977" lon="11.949153396047997"><ele>-3.0</ele><time>2026-04-18T14:22:04Z</time></trkpt><trkpt lat="44.93191829047804" lon="11.949172027536697"><ele>-3.0</ele><time>2026-04-18T14:22:06Z</time></trkpt><trkpt lat="44.93182912139088" lon="11.949194779037335"><ele>-3.0</ele><time>2026-04-18T14:22:08Z</time></trkpt><trkpt lat="44.93173539907197" lon="11.949215001466845"><ele>-3.0</ele><time>2026-04-18T14:22:10Z</time></trkpt><trkpt lat="44.93164226404229" lon="11.94923648586684"><ele>-3.0</ele><time>2026-04-18T14:22:12Z</time></trkpt><trkpt lat="44.93154378170664" lon="11.949248713810226"><ele>-3.0</ele><time>2026-04-18T14:22:14Z</time></trkpt><trkpt lat="44.931445914360815" lon="11.949274715158158"><ele>-3.2</ele><time>2026-04-18T14:22:16Z</time></trkpt><trkpt lat="44.93135012453111" lon="11.94929356173493"><ele>-3.4</ele><time>2026-04-18T14:22:18Z</time></trkpt><trkpt lat="44.93124935519195" lon="11.949322838730009"><ele>-3.6000000000000005</ele><time>2026-04-18T14:22:20Z</time></trkpt><trkpt lat="44.931156372240004" lon="11.949351391584832"><ele>-3.8000000000000003</ele><time>2026-04-18T14:22:22Z</time></trkpt><trkpt lat="44.93105986202166" lon="11.949370557693374"><ele>-4.0</ele><time>2026-04-18T14:22:24Z</time></trkpt><trkpt lat="44.930964071297964" lon="11.949397102680525"><ele>-4.0</ele><time>2026-04-18T14:22:26Z</time></trkpt><trkpt lat="44.93086577344503" lon="11.949413577423403"><ele>-4.0</ele><time>2026-04-18T14:22:28Z</time></trkpt><trkpt lat="44.93076951637439" lon="11.949432020696827"><ele>-4.0</ele><time>2026-04-18T14:22:30Z</time></trkpt><trkpt lat="44.93067476355588" lon="11.94945515235771"><ele>-4.0</ele><time>2026-04-18T14:22:32Z</time></trkpt><trkpt lat="44.93057686357702" lon="11.949482738809838"><ele>-4.0</ele><time>2026-04-18T14:22:34Z</time></trkpt><trkpt lat="44.93048286983176" lon="11.949503792370114"><ele>-4.0</ele><time>2026-04-18T14:22:36Z</time></trkpt><trkpt lat="44.93038673984254" lon="11.949523929741062"><ele>-4.0</ele><time>2026-04-18T14:22:38Z</time></trkpt><trkpt lat="44.93028585193653" lon="11.949547605527446"><ele>-4.0</ele><time>2026-04-18T14:22:40Z</time></trkpt><trkpt lat="44.930195242841066" lon="11.949569962232848"><ele>-4.0</ele><time>2026-04-18T14:22:42Z</time></trkpt><trkpt lat="44.93010321690568" lon="11.949595090018763"><ele>-4.0</ele><time>2026-04-18T14:22:44Z</time></trkpt><trkpt lat="44.93000788683486" lon="11.949614916274244"><ele>-3.833333333333333</ele><time>2026-04-18T14:22:46Z</time></trkpt><trkpt lat="44.929917662214926" lon="11.949627978110737"><ele>-3.6666666666666665</ele><time>2026-04-18T14:22:48Z</time></trkpt><trkpt lat="44.929834552315825" lon="11.949649424723336"><ele>-3.5</ele><time>2026-04-18T14:22:50Z</time></trkpt><trkpt lat="44.9297559238556" lon="11.949670293995448"><ele>-3.333333333333333</ele><time>2026-04-18T14:22:52Z</time></trkpt><trkpt lat="44.929687045374514" lon="11.949686679348837"><ele>-3.1666666666666665</ele><time>2026-04-18T14:22:54Z</time></trkpt><trkpt lat="44.929590671829914" lon="11.949715039160195"><ele>-3.0</ele><time>2026-04-18T14:22:57Z</time></trkpt><trkpt lat="44.929498409765394" lon="11.949717599210429"><ele>-3.0</ele><time>2026-04-18T14:22:59Z</time></trkpt><trkpt lat="44.929420280024985" lon="11.949732252818233"><ele>-3.0</ele><time>2026-04-18T14:23:01Z</time></trkpt><trkpt lat="44.929354399809576" lon="11.949755768115448"><ele>-3.0</ele><time>2026-04-18T14:23:03Z</time></trkpt><trkpt lat="44.929289326516034" lon="11.949772046548013"><ele>-3.0</ele><time>2026-04-18T14:23:05Z</time></trkpt><trkpt lat="44.92920101614038" lon="11.949786242542878"><ele>-3.0</ele><time>2026-04-18T14:23:08Z</time></trkpt><trkpt lat="44.92911756314259" lon="11.949812993031257"><ele>-3.0</ele><time>2026-04-18T14:23:11Z</time></trkpt><trkpt lat="44.92904586113776" lon="11.949819989250962"><ele>-3.0</ele><time>2026-04-18T14:23:13Z</time></trkpt><trkpt lat="44.928960800140516" lon="11.949852202952036"><ele>-3.0</ele><time>2026-04-18T14:23:16Z</time></trkpt><trkpt lat="44.928884223203404" lon="11.949867651742649"><ele>-3.0</ele><time>2026-04-18T14:23:18Z</time></trkpt><trkpt lat="44.928795853930524" lon="11.949877701533437"><ele>-3.0</ele><time>2026-04-18T14:23:20Z</time></trkpt><trkpt lat="44.92872112842568" lon="11.949899336780975"><ele>-3.0</ele><time>2026-04-18T14:23:22Z</time></trkpt><trkpt lat="44.92865223021495" lon="11.949920618565349"><ele>-3.0</ele><time>2026-04-18T14:23:24Z</time></trkpt><trkpt lat="44.928583488710274" lon="11.949929270081777"><ele>-3.0</ele><time>2026-04-18T14:23:26Z</time></trkpt><trkpt lat="44.928521145178934" lon="11.949941987499358"><ele>-3.0</ele><time>2026-04-18T14:23:28Z</time></trkpt><trkpt lat="44.928448920137214" lon="11.94995732712927"><ele>-3.0</ele><time>2026-04-18T14:23:30Z</time></trkpt><trkpt lat="44.92837043418085" lon="11.949978245803608"><ele>-3.0</ele><time>2026-04-18T14:23:32Z</time></trkpt><trkpt lat="44.92830098970989" lon="11.949989900801448"><ele>-3.0</ele><time>2026-04-18T14:23:34Z</time></trkpt><trkpt lat="44.92821257352629" lon="11.950012241097147"><ele>-3.0</ele><time>2026-04-18T14:23:37Z</time></trkpt><trkpt lat="44.9281387188412" lon="11.950023202561292"><ele>-2.8333333333333335</ele><time>2026-04-18T14:23:40Z</time></trkpt><trkpt lat="44.9280716408687" lon="11.950047396262708"><ele>-2.6666666666666665</ele><time>2026-04-18T14:23:41.999Z</time></trkpt><trkpt lat="44.927986449374394" lon="11.95006276560166"><ele>-2.5</ele><time>2026-04-18T14:23:43.999Z</time></trkpt><trkpt lat="44.927894842900876" lon="11.950087511194182"><ele>-2.333333333333333</ele><time>2026-04-18T14:23:45.999Z</time></trkpt><trkpt lat="44.92780223758184" lon="11.950105645098095"><ele>-2.1666666666666665</ele><time>2026-04-18T14:23:47.999Z</time></trkpt><trkpt lat="44.92770693098827" lon="11.95012076056049"><ele>-2.0</ele><time>2026-04-18T14:23:49.999Z</time></trkpt><trkpt lat="44.927613800708585" lon="11.950149660251801"><ele>-1.8</ele><time>2026-04-18T14:23:51.999Z</time></trkpt><trkpt lat="44.92751646846839" lon="11.950167974480584"><ele>-1.6</ele><time>2026-04-18T14:23:53.999Z</time></trkpt><trkpt lat="44.92742287164523" lon="11.950192250678542"><ele>-1.4000000000000001</ele><time>2026-04-18T14:23:55.999Z</time></trkpt><trkpt lat="44.92732592730529" lon="11.950212212765699"><ele>-1.2000000000000002</ele><time>2026-04-18T14:23:57.999Z</time></trkpt><trkpt lat="44.92723235402358" lon="11.950229525593157"><ele>-1.0</ele><time>2026-04-18T14:23:59.999Z</time></trkpt><trkpt lat="44.92713854027487" lon="11.950249003509267"><ele>-1.0</ele><time>2026-04-18T14:24:01.999Z</time></trkpt><trkpt lat="44.92704317284067" lon="11.950275716999194"><ele>-1.0</ele><time>2026-04-18T14:24:04Z</time></trkpt><trkpt lat="44.926947545567536" lon="11.950297691045835"><ele>-1.0</ele><time>2026-04-18T14:24:06Z</time></trkpt><trkpt lat="44.92685324431861" lon="11.950308775401087"><ele>-1.0</ele><time>2026-04-18T14:24:08Z</time></trkpt><trkpt lat="44.926759978727205" lon="11.950339541879673"><ele>-1.0</ele><time>2026-04-18T14:24:10Z</time></trkpt><trkpt lat="44.92666466616983" lon="11.950367276047785"><ele>-1.0</ele><time>2026-04-18T14:24:12Z</time></trkpt><trkpt lat="44.92656930776569" lon="11.950396433752173"><ele>-1.0</ele><time>2026-04-18T14:24:14Z</time></trkpt><trkpt lat="44.92647219971217" lon="11.950407691851336"><ele>-1.0</ele><time>2026-04-18T14:24:16Z</time></trkpt><trkpt lat="44.92637890845238" lon="11.950439919379287"><ele>-1.0</ele><time>2026-04-18T14:24:18Z</time></trkpt><trkpt lat="44.926285214238774" lon="11.950462949227353"><ele>-1.0</ele><time>2026-04-18T14:24:20Z</time></trkpt><trkpt lat="44.92619086547702" lon="11.950495705863897"><ele>-1.0</ele><time>2026-04-18T14:24:22Z</time></trkpt><trkpt lat="44.92609084520824" lon="11.950518650473725"><ele>-1.0</ele><time>2026-04-18T14:24:24Z</time></trkpt><trkpt lat="44.92599729576097" lon="11.950526478203175"><ele>-1.0</ele><time>2026-04-18T14:24:26Z</time></trkpt><trkpt lat="44.925904419008845" lon="11.950550608024953"><ele>-1.0</ele><time>2026-04-18T14:24:28Z</time></trkpt><trkpt lat="44.9258070282372" lon="11.950569721407826"><ele>-1.0</ele><time>2026-04-18T14:24:30Z</time></trkpt><trkpt lat="44.925709823571964" lon="11.950590149689098"><ele>-1.4</ele><time>2026-04-18T14:24:32Z</time></trkpt><trkpt lat="44.925612743828296" lon="11.950613135913189"><ele>-1.8</ele><time>2026-04-18T14:24:34Z</time></trkpt><trkpt lat="44.92551688014237" lon="11.950636608449894"><ele>-2.1999999999999997</ele><time>2026-04-18T14:24:36Z</time></trkpt><trkpt lat="44.925420013778016" lon="11.95065882727038"><ele>-2.6</ele><time>2026-04-18T14:24:38Z</time></trkpt><trkpt lat="44.92532271093411" lon="11.950673992128502"><ele>-3.0</ele><time>2026-04-18T14:24:40Z</time></trkpt><trkpt lat="44.92522786808933" lon="11.950700633113781"><ele>-3.0</ele><time>2026-04-18T14:24:42Z</time></trkpt><trkpt lat="44.92513572091054" lon="11.950732421943478"><ele>-3.0</ele><time>2026-04-18T14:24:44Z</time></trkpt><trkpt lat="44.92503699365479" lon="11.950752794038854"><ele>-3.0</ele><time>2026-04-18T14:24:46Z</time></trkpt><trkpt lat="44.92494241034086" lon="11.950783502202817"><ele>-3.0</ele><time>2026-04-18T14:24:48Z</time></trkpt><trkpt lat="44.92484651582089" lon="11.950796963375769"><ele>-3.0</ele><time>2026-04-18T14:24:50Z</time></trkpt><trkpt lat="44.92475268467111" lon="11.950808685498108"><ele>-3.0</ele><time>2026-04-18T14:24:52Z</time></trkpt><trkpt lat="44.92465884774473" lon="11.950823536288002"><ele>-3.0</ele><time>2026-04-18T14:24:54Z</time></trkpt><trkpt lat="44.92456675531577" lon="11.950850280308535"><ele>-3.0</ele><time>2026-04-18T14:24:56Z</time></trkpt><trkpt lat="44.92447238515805" lon="11.950864214843413"><ele>-3.0</ele><time>2026-04-18T14:24:58Z</time></trkpt><trkpt lat="44.924378258958" lon="11.950888889089024"><ele>-3.0</ele><time>2026-04-18T14:25:00Z</time></trkpt><trkpt lat="44.92428292735066" lon="11.950901555422211"><ele>-3.0</ele><time>2026-04-18T14:25:02Z</time></trkpt><trkpt lat="44.92418933592313" lon="11.950928918839944"><ele>-3.0</ele><time>2026-04-18T14:25:04Z</time></trkpt><trkpt lat="44.92409338274387" lon="11.950945871766852"><ele>-3.0</ele><time>2026-04-18T14:25:06Z</time></trkpt><trkpt lat="44.923997107330564" lon="11.950950510730873"><ele>-3.0</ele><time>2026-04-18T14:25:08Z</time></trkpt><trkpt lat="44.92389880249145" lon="11.950976188666056"><ele>-3.0</ele><time>2026-04-18T14:25:10Z</time></trkpt><trkpt lat="44.92380467722391" lon="11.951001431755406"><ele>-3.0</ele><time>2026-04-18T14:25:12Z</time></trkpt><trkpt lat="44.923713956084725" lon="11.951023613383729"><ele>-3.0</ele><time>2026-04-18T14:25:14Z</time></trkpt><trkpt lat="44.92363324679923" lon="11.95105048743948"><ele>-3.0</ele><time>2026-04-18T14:25:16Z</time></trkpt><trkpt lat="44.923553352862285" lon="11.951057203197822"><ele>-3.0</ele><time>2026-04-18T14:25:18Z</time></trkpt><trkpt lat="44.923485752712764" lon="11.951083096868748"><ele>-3.0</ele><time>2026-04-18T14:25:20Z</time></trkpt><trkpt lat="44.9234373377172" lon="11.951141628243146"><ele>-3.0</ele><time>2026-04-18T14:25:22Z</time></trkpt><trkpt lat="44.92341902314627" lon="11.951254479926169"><ele>-3.0</ele><time>2026-04-18T14:25:24Z</time></trkpt><trkpt lat="44.923400989436324" lon="11.951381222270012"><ele>-3.0</ele><time>2026-04-18T14:25:26Z</time></trkpt><trkpt lat="44.923370974860354" lon="11.951521240760071"><ele>-3.0</ele><time>2026-04-18T14:25:28Z</time></trkpt><trkpt lat="44.92334565473985" lon="11.951648826552773"><ele>-3.0</ele><time>2026-04-18T14:25:30Z</time></trkpt><trkpt lat="44.923328536998675" lon="11.951774960385782"><ele>-3.0</ele><time>2026-04-18T14:25:32Z</time></trkpt><trkpt lat="44.92330751453706" lon="11.951886755062556"><ele>-3.0</ele><time>2026-04-18T14:25:34Z</time></trkpt><trkpt lat="44.923294934661534" lon="11.95199837544686"><ele>-3.0</ele><time>2026-04-18T14:25:36Z</time></trkpt><trkpt lat="44.92327212666389" lon="11.952121121565773"><ele>-3.0</ele><time>2026-04-18T14:25:38Z</time></trkpt><trkpt lat="44.92324975787588" lon="11.952246762940197"><ele>-3.0</ele><time>2026-04-18T14:25:40Z</time></trkpt><trkpt lat="44.923250648952596" lon="11.952362080115268"><ele>-3.0</ele><time>2026-04-18T14:25:41.999Z</time></trkpt><trkpt lat="44.923253113650304" lon="11.952473058007861"><ele>-3.0</ele><time>2026-04-18T14:25:43.999Z</time></trkpt><trkpt lat="44.92325627789299" lon="11.952588756613036"><ele>-3.0</ele><time>2026-04-18T14:25:45.999Z</time></trkpt><trkpt lat="44.92327104893708" lon="11.95271339020549"><ele>-3.0</ele><time>2026-04-18T14:25:47.999Z</time></trkpt><trkpt lat="44.92328174807995" lon="11.95283575309141"><ele>-3.0</ele><time>2026-04-18T14:25:49.999Z</time></trkpt><trkpt lat="44.92330874248309" lon="11.952950997157258"><ele>-3.0</ele><time>2026-04-18T14:25:51.999Z</time></trkpt><trkpt lat="44.923304880493" lon="11.953071309583157"><ele>-3.0</ele><time>2026-04-18T14:25:53.999Z</time></trkpt><trkpt lat="44.92331648389856" lon="11.953182441659903"><ele>-3.0</ele><time>2026-04-18T14:25:55.999Z</time></trkpt><trkpt lat="44.92334027943731" lon="11.953302743334534"><ele>-3.0</ele><time>2026-04-18T14:25:57.999Z</time></trkpt><trkpt lat="44.92335405924446" lon="11.953440425517485"><ele>-3.0</ele><time>2026-04-18T14:25:59.999Z</time></trkpt><trkpt lat="44.923376531568685" lon="11.953591084718088"><ele>-3.0</ele><time>2026-04-18T14:26:01.999Z</time></trkpt><trkpt lat="44.92336503464108" lon="11.953751607785222"><ele>-3.0</ele><time>2026-04-18T14:26:03.999Z</time></trkpt><trkpt lat="44.923371222066905" lon="11.95384165730032"><ele>-3.0</ele><time>2026-04-18T14:26:04.999Z</time></trkpt><trkpt lat="44.92339564358867" lon="11.95401012224455"><ele>-3.0</ele><time>2026-04-18T14:26:06.999Z</time></trkpt><trkpt lat="44.92341050826363" lon="11.9541884917967"><ele>-3.0</ele><time>2026-04-18T14:26:09Z</time></trkpt><trkpt lat="44.92341904227409" lon="11.954278683577806"><ele>-3.0</ele><time>2026-04-18T14:26:10Z</time></trkpt><trkpt lat="44.92342838565879" lon="11.95437023410953"><ele>-3.0</ele><time>2026-04-18T14:26:11Z</time></trkpt><trkpt lat="44.92343737682669" lon="11.95445895746549"><ele>-3.0</ele><time>2026-04-18T14:26:12Z</time></trkpt><trkpt lat="44.92344758393807" lon="11.954554329282296"><ele>-3.0</ele><time>2026-04-18T14:26:13Z</time></trkpt><trkpt lat="44.92345680258463" lon="11.954652101117478"><ele>-2.9999999999999996</ele><time>2026-04-18T14:26:14Z</time></trkpt><trkpt lat="44.92346818769702" lon="11.954744844219205"><ele>-3.0</ele><time>2026-04-18T14:26:15Z</time></trkpt><trkpt lat="44.923480161707126" lon="11.95484307987423"><ele>-3.0</ele><time>2026-04-18T14:26:16Z</time></trkpt><trkpt lat="44.92348760658473" lon="11.95493945102726"><ele>-3.0</ele><time>2026-04-18T14:26:17Z</time></trkpt><trkpt lat="44.92349476965292" lon="11.955035322219286"><ele>-3.0</ele><time>2026-04-18T14:26:18Z</time></trkpt><trkpt lat="44.92350466681843" lon="11.955138573230572"><ele>-2.9999999999999996</ele><time>2026-04-18T14:26:19Z</time></trkpt><trkpt lat="44.9235133896576" lon="11.955237240883942"><ele>-3.0</ele><time>2026-04-18T14:26:20Z</time></trkpt><trkpt lat="44.923526536586216" lon="11.95533802065933"><ele>-3.1666666666666665</ele><time>2026-04-18T14:26:21Z</time></trkpt><trkpt lat="44.92353556681447" lon="11.95543549822082"><ele>-3.333333333333333</ele><time>2026-04-18T14:26:22Z</time></trkpt><trkpt lat="44.92354541433305" lon="11.955538296041976"><ele>-3.5</ele><time>2026-04-18T14:26:23Z</time></trkpt><trkpt lat="44.92355484578017" lon="11.955637243822633"><ele>-3.6666666666666665</ele><time>2026-04-18T14:26:24Z</time></trkpt><trkpt lat="44.92355918574417" lon="11.955729825376954"><ele>-3.833333333333333</ele><time>2026-04-18T14:26:25Z</time></trkpt><trkpt lat="44.923574591839134" lon="11.955903564865121"><ele>-4.0</ele><time>2026-04-18T14:26:27Z</time></trkpt><trkpt lat="44.92359072956873" lon="11.956065709207097"><ele>-4.0</ele><time>2026-04-18T14:26:29Z</time></trkpt><trkpt lat="44.92360235228966" lon="11.956220302808394"><ele>-4.0</ele><time>2026-04-18T14:26:31Z</time></trkpt><trkpt lat="44.92362030208943" lon="11.956367396996658"><ele>-4.0</ele><time>2026-04-18T14:26:33Z</time></trkpt><trkpt lat="44.92363094967348" lon="11.956503551144198"><ele>-4.0</ele><time>2026-04-18T14:26:35Z</time></trkpt><trkpt lat="44.92364408918925" lon="11.956639648995939"><ele>-4.0</ele><time>2026-04-18T14:26:37Z</time></trkpt><trkpt lat="44.92365955338694" lon="11.956775843984618"><ele>-4.0</ele><time>2026-04-18T14:26:39Z</time></trkpt><trkpt lat="44.92367391968244" lon="11.956913460024182"><ele>-4.0</ele><time>2026-04-18T14:26:41Z</time></trkpt><trkpt lat="44.9236912570572" lon="11.957050628149114"><ele>-4.0</ele><time>2026-04-18T14:26:43Z</time></trkpt><trkpt lat="44.92369518412972" lon="11.957186703599966"><ele>-4.0</ele><time>2026-04-18T14:26:45Z</time></trkpt><trkpt lat="44.923708158792884" lon="11.957322961713693"><ele>-4.0</ele><time>2026-04-18T14:26:47Z</time></trkpt><trkpt lat="44.92372139707198" lon="11.957457760254147"><ele>-3.8000000000000003</ele><time>2026-04-18T14:26:49Z</time></trkpt><trkpt lat="44.923733431420416" lon="11.957594444087205"><ele>-3.6000000000000005</ele><time>2026-04-18T14:26:51Z</time></trkpt><trkpt lat="44.92374863608225" lon="11.957732260868204"><ele>-3.4</ele><time>2026-04-18T14:26:53Z</time></trkpt><trkpt lat="44.923758923884094" lon="11.957867915280493"><ele>-3.2</ele><time>2026-04-18T14:26:55Z</time></trkpt><trkpt lat="44.92377362772227" lon="11.958005810426357"><ele>-3.0</ele><time>2026-04-18T14:26:57Z</time></trkpt><trkpt lat="44.923788819586484" lon="11.958144305077813"><ele>-3.0</ele><time>2026-04-18T14:26:59Z</time></trkpt><trkpt lat="44.92380034779145" lon="11.958278262457378"><ele>-3.0</ele><time>2026-04-18T14:27:01Z</time></trkpt><trkpt lat="44.92382201369338" lon="11.958412266732136"><ele>-3.0</ele><time>2026-04-18T14:27:03Z</time></trkpt><trkpt lat="44.92382854948134" lon="11.958552697035074"><ele>-3.0</ele><time>2026-04-18T14:27:05Z</time></trkpt><trkpt lat="44.92383912269963" lon="11.958688218573952"><ele>-3.0</ele><time>2026-04-18T14:27:07Z</time></trkpt><trkpt lat="44.92385700827002" lon="11.958826481065454"><ele>-2.8</ele><time>2026-04-18T14:27:09Z</time></trkpt><trkpt lat="44.92387356650441" lon="11.958959963258456"><ele>-2.5999999999999996</ele><time>2026-04-18T14:27:11Z</time></trkpt><trkpt lat="44.92388905654144" lon="11.959099564990371"><ele>-2.4000000000000004</ele><time>2026-04-18T14:27:13Z</time></trkpt><trkpt lat="44.92390159756167" lon="11.959234644312424"><ele>-2.2</ele><time>2026-04-18T14:27:15Z</time></trkpt><trkpt lat="44.92391123810942" lon="11.959372572687053"><ele>-2.0</ele><time>2026-04-18T14:27:17Z</time></trkpt><trkpt lat="44.92391766903377" lon="11.95950951487286"><ele>-2.0</ele><time>2026-04-18T14:27:19Z</time></trkpt><trkpt lat="44.923945089602995" lon="11.95964147891016"><ele>-2.0</ele><time>2026-04-18T14:27:21Z</time></trkpt><trkpt lat="44.92394876010489" lon="11.959781235098696"><ele>-2.0</ele><time>2026-04-18T14:27:23Z</time></trkpt><trkpt lat="44.92396038617631" lon="11.95991778169708"><ele>-2.0</ele><time>2026-04-18T14:27:25Z</time></trkpt><trkpt lat="44.923980274847324" lon="11.960055452887927"><ele>-2.0</ele><time>2026-04-18T14:27:27Z</time></trkpt><trkpt lat="44.92398830691153" lon="11.960193354638749"><ele>-2.0</ele><time>2026-04-18T14:27:29Z</time></trkpt><trkpt lat="44.924003129269074" lon="11.960329268777565"><ele>-2.0</ele><time>2026-04-18T14:27:31Z</time></trkpt><trkpt lat="44.924024392106965" lon="11.960467591865365"><ele>-2.0</ele><time>2026-04-18T14:27:33Z</time></trkpt><trkpt lat="44.92403462005031" lon="11.960599992568353"><ele>-2.0</ele><time>2026-04-18T14:27:35Z</time></trkpt><trkpt lat="44.92403679523151" lon="11.960724631035838"><ele>-2.0</ele><time>2026-04-18T14:27:37Z</time></trkpt><trkpt lat="44.924053857330456" lon="11.960841507028764"><ele>-1.6</ele><time>2026-04-18T14:27:39Z</time></trkpt><trkpt lat="44.92406742534155" lon="11.960952119816348"><ele>-1.2000000000000002</ele><time>2026-04-18T14:27:41Z</time></trkpt><trkpt lat="44.924025392055675" lon="11.961048201976379"><ele>-0.8</ele><time>2026-04-18T14:27:43Z</time></trkpt><trkpt lat="44.923937984087274" lon="11.961063441992364"><ele>-0.4</ele><time>2026-04-18T14:27:45Z</time></trkpt><trkpt lat="44.92384384861825" lon="11.961066259965913"><ele>0.0</ele><time>2026-04-18T14:27:46.999Z</time></trkpt><trkpt lat="44.923733640670946" lon="11.961064821756837"><ele>0.0</ele><time>2026-04-18T14:27:48.999Z</time></trkpt><trkpt lat="44.92362697961575" lon="11.961068872992037"><ele>0.0</ele><time>2026-04-18T14:27:50.999Z</time></trkpt><trkpt lat="44.92353369084393" lon="11.96111722110449"><ele>0.0</ele><time>2026-04-18T14:27:52.999Z</time></trkpt><trkpt lat="44.923443544196424" lon="11.961083904987742"><ele>0.0</ele><time>2026-04-18T14:27:54.999Z</time></trkpt><trkpt lat="44.92336245573056" lon="11.961092257025472"><ele>0.0</ele><time>2026-04-18T14:27:56.999Z</time></trkpt><trkpt lat="44.92328699327222" lon="11.961100251589068"><ele>-0.42857142857142855</ele><time>2026-04-18T14:27:58.999Z</time></trkpt><trkpt lat="44.923220445181656" lon="11.961107301755208"><ele>-0.8571428571428571</ele><time>2026-04-18T14:28:00.999Z</time></trkpt><trkpt lat="44.92315605857483" lon="11.961114122931729"><ele>-1.2857142857142856</ele><time>2026-04-18T14:28:02.999Z</time></trkpt><trkpt lat="44.92307818333737" lon="11.96114267212821"><ele>-1.7142857142857142</ele><time>2026-04-18T14:28:05.999Z</time></trkpt><trkpt lat="44.922986328441084" lon="11.961132104297599"><ele>-2.142857142857143</ele><time>2026-04-18T14:28:08.999Z</time></trkpt><trkpt lat="44.922915496213896" lon="11.96115636595332"><ele>-2.571428571428571</ele><time>2026-04-18T14:28:10.999Z</time></trkpt><trkpt lat="44.9228497744116" lon="11.961146570956593"><ele>-3.0</ele><time>2026-04-18T14:28:12.999Z</time></trkpt><trkpt lat="44.922784591266925" lon="11.961153476517792"><ele>-3.0</ele><time>2026-04-18T14:28:15Z</time></trkpt><trkpt lat="44.922698776316494" lon="11.961180864995821"><ele>-3.0</ele><time>2026-04-18T14:28:18Z</time></trkpt><trkpt lat="44.922627589683" lon="11.961190612543447"><ele>-3.0</ele><time>2026-04-18T14:28:21Z</time></trkpt><trkpt lat="44.92255550316765" lon="11.961177746321718"><ele>-3.0</ele><time>2026-04-18T14:28:24Z</time></trkpt><trkpt lat="44.9224727468398" lon="11.961203276443639"><ele>-3.0</ele><time>2026-04-18T14:28:27Z</time></trkpt><trkpt lat="44.922389846579186" lon="11.961194882139646"><ele>-3.0</ele><time>2026-04-18T14:28:30Z</time></trkpt><trkpt lat="44.92232570112467" lon="11.961201285163176"><ele>-3.1666666666666665</ele><time>2026-04-18T14:28:32Z</time></trkpt><trkpt lat="44.92223835328813" lon="11.961226415205893"><ele>-3.333333333333333</ele><time>2026-04-18T14:28:35Z</time></trkpt><trkpt lat="44.922157895402464" lon="11.961234911054529"><ele>-3.5</ele><time>2026-04-18T14:28:38Z</time></trkpt><trkpt lat="44.92208584020581" lon="11.961225228169315"><ele>-3.6666666666666665</ele><time>2026-04-18T14:28:41Z</time></trkpt><trkpt lat="44.92199615094098" lon="11.961249814590332"><ele>-3.833333333333333</ele><time>2026-04-18T14:28:44Z</time></trkpt><trkpt lat="44.92192940092688" lon="11.961259346130774"><ele>-4.0</ele><time>2026-04-18T14:28:46Z</time></trkpt><trkpt lat="44.92186225209951" lon="11.961247546816592"><ele>-3.9999999999999996</ele><time>2026-04-18T14:28:48Z</time></trkpt><trkpt lat="44.921776625714884" lon="11.96125609407498"><ele>-4.0</ele><time>2026-04-18T14:28:51Z</time></trkpt><trkpt lat="44.92169625720328" lon="11.961264116489996"><ele>-4.0</ele><time>2026-04-18T14:28:54Z</time></trkpt><trkpt lat="44.92160423608524" lon="11.961273302072197"><ele>-4.0</ele><time>2026-04-18T14:28:57Z</time></trkpt><trkpt lat="44.92152805595647" lon="11.961280906400958"><ele>-3.9999999999999996</ele><time>2026-04-18T14:28:59Z</time></trkpt><trkpt lat="44.92144594552304" lon="11.961289102695314"><ele>-4.0</ele><time>2026-04-18T14:29:01Z</time></trkpt><trkpt lat="44.92136732250748" lon="11.961308755435487"><ele>-3.833333333333333</ele><time>2026-04-18T14:29:03Z</time></trkpt><trkpt lat="44.92129162371745" lon="11.961317797270821"><ele>-3.6666666666666665</ele><time>2026-04-18T14:29:05Z</time></trkpt><trkpt lat="44.921223019882554" lon="11.96132982622964"><ele>-3.5</ele><time>2026-04-18T14:29:07Z</time></trkpt><trkpt lat="44.92113004222531" lon="11.961338482239109"><ele>-3.333333333333333</ele><time>2026-04-18T14:29:10Z</time></trkpt><trkpt lat="44.92106500638159" lon="11.961344707074101"><ele>-3.1666666666666665</ele><time>2026-04-18T14:29:12Z</time></trkpt><trkpt lat="44.920971919766416" lon="11.961357202636247"><ele>-3.0</ele><time>2026-04-18T14:29:15Z</time></trkpt><trkpt lat="44.9209012182225" lon="11.96136263855036"><ele>-3.0</ele><time>2026-04-18T14:29:17Z</time></trkpt><trkpt lat="44.92082290681987" lon="11.961365405152005"><ele>-3.0</ele><time>2026-04-18T14:29:19Z</time></trkpt><trkpt lat="44.920732731303055" lon="11.961377546360195"><ele>-3.0</ele><time>2026-04-18T14:29:21Z</time></trkpt><trkpt lat="44.920636529627025" lon="11.961376785871657"><ele>-3.0</ele><time>2026-04-18T14:29:23Z</time></trkpt><trkpt lat="44.92053972094671" lon="11.96139267275769"><ele>-3.0</ele><time>2026-04-18T14:29:25Z</time></trkpt><trkpt lat="44.92045259710801" lon="11.961406078792688"><ele>-3.0</ele><time>2026-04-18T14:29:27Z</time></trkpt><trkpt lat="44.92036722695001" lon="11.961408115592166"><ele>-3.0</ele><time>2026-04-18T14:29:29Z</time></trkpt><trkpt lat="44.92028413709264" lon="11.961422311588484"><ele>-3.0</ele><time>2026-04-18T14:29:31Z</time></trkpt><trkpt lat="44.92020103674398" lon="11.961412888262306"><ele>-3.0</ele><time>2026-04-18T14:29:33Z</time></trkpt><trkpt lat="44.92010840354052" lon="11.96142208831674"><ele>-3.0</ele><time>2026-04-18T14:29:35Z</time></trkpt><trkpt lat="44.920000819603764" lon="11.961454745552372"><ele>-3.2</ele><time>2026-04-18T14:29:37Z</time></trkpt><trkpt lat="44.91988304328525" lon="11.961465508327786"><ele>-3.4</ele><time>2026-04-18T14:29:39Z</time></trkpt><trkpt lat="44.919761594024955" lon="11.961476767422605"><ele>-3.6000000000000005</ele><time>2026-04-18T14:29:41Z</time></trkpt><trkpt lat="44.91965328712347" lon="11.961476761632296"><ele>-3.8000000000000003</ele><time>2026-04-18T14:29:43Z</time></trkpt><trkpt lat="44.91955417024244" lon="11.961492410753289"><ele>-4.0</ele><time>2026-04-18T14:29:45Z</time></trkpt><trkpt lat="44.919463050846325" lon="11.961506400653917"><ele>-3.9999999999999996</ele><time>2026-04-18T14:29:47Z</time></trkpt><trkpt lat="44.919374763114014" lon="11.96151231146757"><ele>-4.0</ele><time>2026-04-18T14:29:49Z</time></trkpt><trkpt lat="44.91929371433974" lon="11.961527285865879"><ele>-4.0</ele><time>2026-04-18T14:29:51Z</time></trkpt><trkpt lat="44.91921393736676" lon="11.96151289279403"><ele>-4.0</ele><time>2026-04-18T14:29:53Z</time></trkpt><trkpt lat="44.91913370433349" lon="11.961521219513628"><ele>-3.9999999999999996</ele><time>2026-04-18T14:29:55Z</time></trkpt><trkpt lat="44.919032529731744" lon="11.961531719585693"><ele>-4.0</ele><time>2026-04-18T14:29:57Z</time></trkpt><trkpt lat="44.918937483150344" lon="11.961541583679727"><ele>-3.9999999999999996</ele><time>2026-04-18T14:29:59Z</time></trkpt><trkpt lat="44.91885325292665" lon="11.961572618287194"><ele>-4.0</ele><time>2026-04-18T14:30:01Z</time></trkpt><trkpt lat="44.91877908161216" lon="11.961558024843503"><ele>-4.0</ele><time>2026-04-18T14:30:03Z</time></trkpt><trkpt lat="44.91871285659069" lon="11.961564785565105"><ele>-4.0</ele><time>2026-04-18T14:30:05Z</time></trkpt><trkpt lat="44.918641623385895" lon="11.961594871730725"><ele>-3.9999999999999996</ele><time>2026-04-18T14:30:07Z</time></trkpt><trkpt lat="44.91857706432719" lon="11.961577527062822"><ele>-4.0</ele><time>2026-04-18T14:30:09Z</time></trkpt><trkpt lat="44.91849168697348" lon="11.961585538088453"><ele>-4.0</ele><time>2026-04-18T14:30:12Z</time></trkpt><trkpt lat="44.91842224202669" lon="11.961591916791589"><ele>-3.9999999999999996</ele><time>2026-04-18T14:30:14Z</time></trkpt><trkpt lat="44.91835204405251" lon="11.961598195202077"><ele>-4.0</ele><time>2026-04-18T14:30:16Z</time></trkpt><trkpt lat="44.91828491446894" lon="11.961604199180778"><ele>-4.0</ele><time>2026-04-18T14:30:18Z</time></trkpt><trkpt lat="44.91821018054671" lon="11.961610883280247"><ele>-3.9999999999999996</ele><time>2026-04-18T14:30:20Z</time></trkpt><trkpt lat="44.91814072254771" lon="11.961633923043676"><ele>-4.0</ele><time>2026-04-18T14:30:22Z</time></trkpt><trkpt lat="44.91807133721418" lon="11.961629328682358"><ele>-4.0</ele><time>2026-04-18T14:30:24Z</time></trkpt><trkpt lat="44.91800405094331" lon="11.961626734923081"><ele>-3.833333333333333</ele><time>2026-04-18T14:30:26Z</time></trkpt><trkpt lat="44.917931481456705" lon="11.961617766647764"><ele>-3.6666666666666665</ele><time>2026-04-18T14:30:28Z</time></trkpt><trkpt lat="44.91784775180395" lon="11.96160666931809"><ele>-3.5</ele><time>2026-04-18T14:30:30Z</time></trkpt><trkpt lat="44.91777101717275" lon="11.961594165259637"><ele>-3.333333333333333</ele><time>2026-04-18T14:30:32Z</time></trkpt><trkpt lat="44.91767897462185" lon="11.961574286028371"><ele>-3.1666666666666665</ele><time>2026-04-18T14:30:34Z</time></trkpt><trkpt lat="44.91757512026428" lon="11.961557139029594"><ele>-3.0</ele><time>2026-04-18T14:30:36Z</time></trkpt><trkpt lat="44.91747693411223" lon="11.961539741017736"><ele>-3.0</ele><time>2026-04-18T14:30:38Z</time></trkpt><trkpt lat="44.91736999495004" lon="11.961523991781217"><ele>-3.0</ele><time>2026-04-18T14:30:40Z</time></trkpt><trkpt lat="44.91725834220157" lon="11.961498486012514"><ele>-3.0</ele><time>2026-04-18T14:30:42Z</time></trkpt><trkpt lat="44.9171484811385" lon="11.961462942554805"><ele>-3.0</ele><time>2026-04-18T14:30:44Z</time></trkpt><trkpt lat="44.91704198867734" lon="11.961443204849422"><ele>-3.0</ele><time>2026-04-18T14:30:46Z</time></trkpt><trkpt lat="44.91694148313668" lon="11.96144373328124"><ele>-3.0</ele><time>2026-04-18T14:30:48Z</time></trkpt><trkpt lat="44.916850920601846" lon="11.961426785778674"><ele>-3.0</ele><time>2026-04-18T14:30:50Z</time></trkpt><trkpt lat="44.916764557312916" lon="11.961391784703272"><ele>-3.0</ele><time>2026-04-18T14:30:52Z</time></trkpt><trkpt lat="44.916678734291054" lon="11.961375881343024"><ele>-3.0</ele><time>2026-04-18T14:30:54Z</time></trkpt><trkpt lat="44.916597605880895" lon="11.961361113780333"><ele>-3.0</ele><time>2026-04-18T14:30:56Z</time></trkpt><trkpt lat="44.91651638884464" lon="11.961346330096466"><ele>-3.0</ele><time>2026-04-18T14:30:58Z</time></trkpt><trkpt lat="44.91641708922898" lon="11.96132825489387"><ele>-3.0</ele><time>2026-04-18T14:31:00Z</time></trkpt><trkpt lat="44.91631858376357" lon="11.96131032425122"><ele>-3.0</ele><time>2026-04-18T14:31:02Z</time></trkpt><trkpt lat="44.916232177459506" lon="11.961294595978694"><ele>-3.0</ele><time>2026-04-18T14:31:04Z</time></trkpt><trkpt lat="44.91615517059412" lon="11.961280578656849"><ele>-3.0</ele><time>2026-04-18T14:31:06Z</time></trkpt><trkpt lat="44.91608317411479" lon="11.961267473361469"><ele>-3.0</ele><time>2026-04-18T14:31:08Z</time></trkpt><trkpt lat="44.91601533555761" lon="11.961255124920116"><ele>-3.0</ele><time>2026-04-18T14:31:10Z</time></trkpt><trkpt lat="44.91593200990634" lon="11.961239957409099"><ele>-3.1666666666666665</ele><time>2026-04-18T14:31:12Z</time></trkpt><trkpt lat="44.91584145252018" lon="11.961223473528342"><ele>-3.333333333333333</ele><time>2026-04-18T14:31:14Z</time></trkpt><trkpt lat="44.91575337073083" lon="11.96120744027405"><ele>-3.5</ele><time>2026-04-18T14:31:16Z</time></trkpt><trkpt lat="44.915668381978634" lon="11.961191970036042"><ele>-3.6666666666666665</ele><time>2026-04-18T14:31:18Z</time></trkpt><trkpt lat="44.91558344840726" lon="11.961176509844389"><ele>-3.833333333333333</ele><time>2026-04-18T14:31:20Z</time></trkpt><trkpt lat="44.91550779147169" lon="11.961162738244623"><ele>-4.0</ele><time>2026-04-18T14:31:22Z</time></trkpt><trkpt lat="44.91543445696789" lon="11.961149389396642"><ele>-4.0</ele><time>2026-04-18T14:31:24Z</time></trkpt><trkpt lat="44.915367397374034" lon="11.961159864378434"><ele>-3.9999999999999996</ele><time>2026-04-18T14:31:26Z</time></trkpt><trkpt lat="44.91529048812308" lon="11.961123183192443"><ele>-4.0</ele><time>2026-04-18T14:31:28Z</time></trkpt><trkpt lat="44.91521941963865" lon="11.96111024681748"><ele>-4.0</ele><time>2026-04-18T14:31:30Z</time></trkpt><trkpt lat="44.915155560715604" lon="11.961098622777353"><ele>-3.9999999999999996</ele><time>2026-04-18T14:31:32Z</time></trkpt><trkpt lat="44.915081951671205" lon="11.961085223951041"><ele>-4.0</ele><time>2026-04-18T14:31:34Z</time></trkpt><trkpt lat="44.91500281460901" lon="11.961070818876811"><ele>-4.0</ele><time>2026-04-18T14:31:36Z</time></trkpt><trkpt lat="44.91491658411167" lon="11.9610551226083"><ele>-4.166666666666666</ele><time>2026-04-18T14:31:38Z</time></trkpt><trkpt lat="44.91483975692981" lon="11.961041137995007"><ele>-4.333333333333333</ele><time>2026-04-18T14:31:40Z</time></trkpt><trkpt lat="44.91476780499957" lon="11.961028040809152"><ele>-4.5</ele><time>2026-04-18T14:31:42Z</time></trkpt><trkpt lat="44.914700635184666" lon="11.961015814094884"><ele>-4.666666666666667</ele><time>2026-04-18T14:31:44Z</time></trkpt><trkpt lat="44.91462660724278" lon="11.961002339018235"><ele>-4.833333333333334</ele><time>2026-04-18T14:31:46Z</time></trkpt><trkpt lat="44.91453839389286" lon="11.96098628181273"><ele>-5.0</ele><time>2026-04-18T14:31:48Z</time></trkpt><trkpt lat="44.914440440708105" lon="11.9609910565812"><ele>-5.0</ele><time>2026-04-18T14:31:50Z</time></trkpt><trkpt lat="44.91435648908448" lon="11.960953170249487"><ele>-5.0</ele><time>2026-04-18T14:31:52Z</time></trkpt><trkpt lat="44.914272179031705" lon="11.960955495059796"><ele>-5.0</ele><time>2026-04-18T14:31:54Z</time></trkpt><trkpt lat="44.91419572751787" lon="11.9609428857805"><ele>-5.0</ele><time>2026-04-18T14:31:56Z</time></trkpt><trkpt lat="44.91412295383588" lon="11.960926703590046"><ele>-5.0</ele><time>2026-04-18T14:31:58Z</time></trkpt><trkpt lat="44.914053513238954" lon="11.960918838447784"><ele>-5.0</ele><time>2026-04-18T14:32:00Z</time></trkpt><trkpt lat="44.9139839617347" lon="11.960902996173253"><ele>-5.0</ele><time>2026-04-18T14:32:02Z</time></trkpt><trkpt lat="44.913906634312646" lon="11.960888308095218"><ele>-5.0</ele><time>2026-04-18T14:32:04Z</time></trkpt><trkpt lat="44.91383331563002" lon="11.960874442664506"><ele>-5.0</ele><time>2026-04-18T14:32:06Z</time></trkpt><trkpt lat="44.91376527508619" lon="11.960868168507067"><ele>-5.0</ele><time>2026-04-18T14:32:08Z</time></trkpt><trkpt lat="44.913678747418444" lon="11.960849116202386"><ele>-5.0</ele><time>2026-04-18T14:32:11Z</time></trkpt><trkpt lat="44.91361322022114" lon="11.960836202251103"><ele>-5.0</ele><time>2026-04-18T14:32:15Z</time></trkpt><trkpt lat="44.913600394049006" lon="11.961008529191806"><ele>-5.2</ele><time>2026-04-18T14:32:16Z</time></trkpt><trkpt lat="44.913577044778044" lon="11.961135064418714"><ele>-5.4</ele><time>2026-04-18T14:32:18Z</time></trkpt><trkpt lat="44.91356548254287" lon="11.961280544891537"><ele>-5.6</ele><time>2026-04-18T14:32:20Z</time></trkpt><trkpt lat="44.91355273796633" lon="11.961441275363425"><ele>-5.8</ele><time>2026-04-18T14:32:22Z</time></trkpt><trkpt lat="44.913540508973625" lon="11.961595503473976"><ele>-6.0</ele><time>2026-04-18T14:32:24Z</time></trkpt><trkpt lat="44.913528839050244" lon="11.961742680763251"><ele>-5.666666666666667</ele><time>2026-04-18T14:32:26Z</time></trkpt><trkpt lat="44.913517993268144" lon="11.961879464256333"><ele>-5.333333333333333</ele><time>2026-04-18T14:32:28Z</time></trkpt><trkpt lat="44.91350791814073" lon="11.962006528538895"><ele>-5.0</ele><time>2026-04-18T14:32:30Z</time></trkpt><trkpt lat="44.91349846388968" lon="11.962125762672226"><ele>-4.666666666666666</ele><time>2026-04-18T14:32:32Z</time></trkpt><trkpt lat="44.913489404373635" lon="11.962240018193002"><ele>-4.333333333333333</ele><time>2026-04-18T14:32:34Z</time></trkpt><trkpt lat="44.91347953558505" lon="11.962364480119282"><ele>-4.0</ele><time>2026-04-18T14:32:36Z</time></trkpt><trkpt lat="44.91347068141873" lon="11.962476146102725"><ele>-4.142857142857142</ele><time>2026-04-18T14:32:38Z</time></trkpt><trkpt lat="44.91346247634192" lon="11.96257962601724"><ele>-4.285714285714286</ele><time>2026-04-18T14:32:40Z</time></trkpt><trkpt lat="44.91345440095702" lon="11.962681470037813"><ele>-4.428571428571429</ele><time>2026-04-18T14:32:42Z</time></trkpt><trkpt lat="44.913463209970175" lon="11.962777467755025"><ele>-4.571428571428571</ele><time>2026-04-18T14:32:44Z</time></trkpt><trkpt lat="44.913439542945284" lon="11.962868854390207"><ele>-4.714285714285714</ele><time>2026-04-18T14:32:46Z</time></trkpt><trkpt lat="44.9134473143007" lon="11.962961221909758"><ele>-4.857142857142857</ele><time>2026-04-18T14:32:48Z</time></trkpt><trkpt lat="44.91342150001376" lon="11.9630936881781"><ele>-5.0</ele><time>2026-04-18T14:32:51Z</time></trkpt><trkpt lat="44.91342637819087" lon="11.96319356309146"><ele>-5.0</ele><time>2026-04-18T14:32:53Z</time></trkpt><trkpt lat="44.91341538195523" lon="11.963317686119458"><ele>-5.0</ele><time>2026-04-18T14:32:56Z</time></trkpt><trkpt lat="44.91340738702472" lon="11.963421816634662"><ele>-5.0</ele><time>2026-04-18T14:32:59Z</time></trkpt><trkpt lat="44.91339253572585" lon="11.963540147268956"><ele>-5.0</ele><time>2026-04-18T14:33:02Z</time></trkpt><trkpt lat="44.91337531250746" lon="11.963658896293643"><ele>-5.0</ele><time>2026-04-18T14:33:04Z</time></trkpt><trkpt lat="44.91336459696471" lon="11.963790025197284"><ele>-5.0</ele><time>2026-04-18T14:33:06Z</time></trkpt><trkpt lat="44.913369520837946" lon="11.96393007853719"><ele>-5.0</ele><time>2026-04-18T14:33:08Z</time></trkpt><trkpt lat="44.913356524414894" lon="11.964056402549488"><ele>-5.0</ele><time>2026-04-18T14:33:10Z</time></trkpt><trkpt lat="44.91334410219243" lon="11.964173701287821"><ele>-5.0</ele><time>2026-04-18T14:33:12Z</time></trkpt><trkpt lat="44.91333458165619" lon="11.96429314421087"><ele>-5.0</ele><time>2026-04-18T14:33:14Z</time></trkpt><trkpt lat="44.913324984426026" lon="11.964433214194742"><ele>-5.0</ele><time>2026-04-18T14:33:16Z</time></trkpt><trkpt lat="44.91329917397667" lon="11.964591586038246"><ele>-5.0</ele><time>2026-04-18T14:33:18Z</time></trkpt><trkpt lat="44.913285531095596" lon="11.964758871296658"><ele>-5.0</ele><time>2026-04-18T14:33:20Z</time></trkpt><trkpt lat="44.913287510496" lon="11.964936348732895"><ele>-5.0</ele><time>2026-04-18T14:33:22Z</time></trkpt><trkpt lat="44.91326380136166" lon="11.965025315214898"><ele>-5.0</ele><time>2026-04-18T14:33:23Z</time></trkpt><trkpt lat="44.913256182574884" lon="11.965118734543736"><ele>-5.0</ele><time>2026-04-18T14:33:24Z</time></trkpt><trkpt lat="44.91324858446377" lon="11.965211900497247"><ele>-5.0</ele><time>2026-04-18T14:33:25Z</time></trkpt><trkpt lat="44.91325651027094" lon="11.965312354939536"><ele>-5.142857142857142</ele><time>2026-04-18T14:33:26Z</time></trkpt><trkpt lat="44.91323245222529" lon="11.965409709506394"><ele>-5.285714285714286</ele><time>2026-04-18T14:33:27Z</time></trkpt><trkpt lat="44.91322434819273" lon="11.965509078734565"><ele>-5.428571428571429</ele><time>2026-04-18T14:33:28Z</time></trkpt><trkpt lat="44.91321602226412" lon="11.965611168856244"><ele>-5.571428571428571</ele><time>2026-04-18T14:33:29Z</time></trkpt><trkpt lat="44.913207613092794" lon="11.965714279741182"><ele>-5.714285714285714</ele><time>2026-04-18T14:33:30Z</time></trkpt><trkpt lat="44.91319934140551" lon="11.965815704920283"><ele>-5.857142857142857</ele><time>2026-04-18T14:33:31Z</time></trkpt><trkpt lat="44.91319086699373" lon="11.965919615673037"><ele>-6.0</ele><time>2026-04-18T14:33:32Z</time></trkpt><trkpt lat="44.91319889087321" lon="11.966025725223062"><ele>-6.0</ele><time>2026-04-18T14:33:33Z</time></trkpt><trkpt lat="44.91317411161936" lon="11.966125065088523"><ele>-6.0</ele><time>2026-04-18T14:33:34Z</time></trkpt><trkpt lat="44.913165154286105" lon="11.96623533993781"><ele>-6.0</ele><time>2026-04-18T14:33:35Z</time></trkpt><trkpt lat="44.91315677398042" lon="11.966338504417115"><ele>-6.0</ele><time>2026-04-18T14:33:36Z</time></trkpt><trkpt lat="44.91314832473351" lon="11.96644251715067"><ele>-6.0</ele><time>2026-04-18T14:33:37Z</time></trkpt><trkpt lat="44.91313969544062" lon="11.966548746313032"><ele>-6.0</ele><time>2026-04-18T14:33:38Z</time></trkpt><trkpt lat="44.91313095210816" lon="11.966656379512868"><ele>-5.833333333333333</ele><time>2026-04-18T14:33:39Z</time></trkpt><trkpt lat="44.913122321860776" lon="11.966762620529325"><ele>-5.666666666666667</ele><time>2026-04-18T14:33:40Z</time></trkpt><trkpt lat="44.913113808582246" lon="11.966867421610438"><ele>-5.5</ele><time>2026-04-18T14:33:41Z</time></trkpt><trkpt lat="44.91310523221641" lon="11.966972999474272"><ele>-5.333333333333334</ele><time>2026-04-18T14:33:42Z</time></trkpt><trkpt lat="44.91309674194628" lon="11.967077517049512"><ele>-5.166666666666667</ele><time>2026-04-18T14:33:43Z</time></trkpt><trkpt lat="44.91308802012848" lon="11.967184885288194"><ele>-5.0</ele><time>2026-04-18T14:33:44Z</time></trkpt><trkpt lat="44.9130797482705" lon="11.967288208037633"><ele>-5.0</ele><time>2026-04-18T14:33:45Z</time></trkpt><trkpt lat="44.91308698911786" lon="11.967397086538668"><ele>-5.0</ele><time>2026-04-18T14:33:46Z</time></trkpt><trkpt lat="44.91307729474018" lon="11.96750146646696"><ele>-5.0</ele><time>2026-04-18T14:33:47Z</time></trkpt><trkpt lat="44.91306654598513" lon="11.967605916282167"><ele>-5.0</ele><time>2026-04-18T14:33:48Z</time></trkpt><trkpt lat="44.9130584260293" lon="11.967711842545022"><ele>-5.0</ele><time>2026-04-18T14:33:49Z</time></trkpt><trkpt lat="44.91305234768844" lon="11.967814337351216"><ele>-5.0</ele><time>2026-04-18T14:33:50Z</time></trkpt><trkpt lat="44.913042025052775" lon="11.967919707259684"><ele>-4.857142857142857</ele><time>2026-04-18T14:33:51Z</time></trkpt><trkpt lat="44.9130340863665" lon="11.968024162132998"><ele>-4.714285714285714</ele><time>2026-04-18T14:33:52Z</time></trkpt><trkpt lat="44.91302662561375" lon="11.96812783813693"><ele>-4.571428571428571</ele><time>2026-04-18T14:33:53Z</time></trkpt><trkpt lat="44.91301929099093" lon="11.968233693144889"><ele>-4.428571428571429</ele><time>2026-04-18T14:33:54Z</time></trkpt><trkpt lat="44.913010667204595" lon="11.968336790938823"><ele>-4.285714285714286</ele><time>2026-04-18T14:33:55Z</time></trkpt><trkpt lat="44.91300367573038" lon="11.968440180214138"><ele>-4.142857142857142</ele><time>2026-04-18T14:33:56Z</time></trkpt><trkpt lat="44.91299582368979" lon="11.968541002114632"><ele>-4.0</ele><time>2026-04-18T14:33:57Z</time></trkpt><trkpt lat="44.91297296139068" lon="11.968637121498027"><ele>-4.0</ele><time>2026-04-18T14:33:58Z</time></trkpt><trkpt lat="44.91296472678375" lon="11.968739194251476"><ele>-3.9999999999999996</ele><time>2026-04-18T14:33:59Z</time></trkpt><trkpt lat="44.912970128517046" lon="11.968846228374849"><ele>-4.0</ele><time>2026-04-18T14:34:00Z</time></trkpt><trkpt lat="44.9129589695355" lon="11.96894859614833"><ele>-4.0</ele><time>2026-04-18T14:34:01Z</time></trkpt><trkpt lat="44.91295001513794" lon="11.969052053352465"><ele>-3.9999999999999996</ele><time>2026-04-18T14:34:02Z</time></trkpt><trkpt lat="44.91294295017948" lon="11.96915791715316"><ele>-4.0</ele><time>2026-04-18T14:34:03Z</time></trkpt><trkpt lat="44.91293590761766" lon="11.969262777046199"><ele>-4.0</ele><time>2026-04-18T14:34:04Z</time></trkpt><trkpt lat="44.91292910293151" lon="11.969367188357392"><ele>-4.142857142857142</ele><time>2026-04-18T14:34:05Z</time></trkpt><trkpt lat="44.91290562907607" lon="11.969471744942238"><ele>-4.285714285714286</ele><time>2026-04-18T14:34:06Z</time></trkpt><trkpt lat="44.91291342423949" lon="11.969577060338846"><ele>-4.428571428571429</ele><time>2026-04-18T14:34:07Z</time></trkpt><trkpt lat="44.912901179987344" lon="11.969679081700512"><ele>-4.571428571428571</ele><time>2026-04-18T14:34:08Z</time></trkpt><trkpt lat="44.912895286293725" lon="11.96977530664536"><ele>-4.714285714285714</ele><time>2026-04-18T14:34:09Z</time></trkpt><trkpt lat="44.91287387122596" lon="11.969865402114118"><ele>-4.857142857142857</ele><time>2026-04-18T14:34:10Z</time></trkpt><trkpt lat="44.91286656800263" lon="11.969955929831135"><ele>-5.0</ele><time>2026-04-18T14:34:11Z</time></trkpt><trkpt lat="44.912859379386994" lon="11.970045036937476"><ele>-5.0</ele><time>2026-04-18T14:34:12Z</time></trkpt><trkpt lat="44.912845737570464" lon="11.970214135246975"><ele>-5.0</ele><time>2026-04-18T14:34:14Z</time></trkpt><trkpt lat="44.91283301055759" lon="11.970371802713409"><ele>-5.0</ele><time>2026-04-18T14:34:16Z</time></trkpt><trkpt lat="44.91282118790314" lon="11.970517412056674"><ele>-5.0</ele><time>2026-04-18T14:34:18Z</time></trkpt><trkpt lat="44.912810319139886" lon="11.970651273120989"><ele>-5.0</ele><time>2026-04-18T14:34:20Z</time></trkpt><trkpt lat="44.9128001632126" lon="11.970776354796326"><ele>-5.0</ele><time>2026-04-18T14:34:22Z</time></trkpt><trkpt lat="44.91279077555429" lon="11.97089197443384"><ele>-5.0</ele><time>2026-04-18T14:34:24Z</time></trkpt><trkpt lat="44.91269176907107" lon="11.970902111652912"><ele>-5.0</ele><time>2026-04-18T14:34:27Z</time></trkpt><trkpt lat="44.912598138255966" lon="11.970877582887836"><ele>-5.0</ele><time>2026-04-18T14:34:29Z</time></trkpt><trkpt lat="44.912491089801684" lon="11.970856358149783"><ele>-5.0</ele><time>2026-04-18T14:34:31Z</time></trkpt><trkpt lat="44.91237297150892" lon="11.970834653898528"><ele>-5.0</ele><time>2026-04-18T14:34:33Z</time></trkpt><trkpt lat="44.912242293629916" lon="11.97080700844704"><ele>-5.0</ele><time>2026-04-18T14:34:35Z</time></trkpt><trkpt lat="44.91212111539222" lon="11.970780754736749"><ele>-5.0</ele><time>2026-04-18T14:34:37Z</time></trkpt><trkpt lat="44.912055174971904" lon="11.970765253997788"><ele>-5.0</ele><time>2026-04-18T14:34:38Z</time></trkpt><trkpt lat="44.911987501798166" lon="11.970746683410454"><ele>-5.0</ele><time>2026-04-18T14:34:39Z</time></trkpt><trkpt lat="44.911923507001426" lon="11.970735162330167"><ele>-5.0</ele><time>2026-04-18T14:34:40Z</time></trkpt><trkpt lat="44.91185293161229" lon="11.970728073571564"><ele>-5.0</ele><time>2026-04-18T14:34:41Z</time></trkpt><trkpt lat="44.91178177391749" lon="11.970719453974107"><ele>-5.0</ele><time>2026-04-18T14:34:42Z</time></trkpt><trkpt lat="44.91171267136839" lon="11.970707001606693"><ele>-5.0</ele><time>2026-04-18T14:34:43Z</time></trkpt><trkpt lat="44.911640117657306" lon="11.970700465418975"><ele>-5.0</ele><time>2026-04-18T14:34:44Z</time></trkpt><trkpt lat="44.91156826086021" lon="11.970692455023533"><ele>-5.0</ele><time>2026-04-18T14:34:45Z</time></trkpt><trkpt lat="44.91149613135239" lon="11.970683429554114"><ele>-5.0</ele><time>2026-04-18T14:34:46Z</time></trkpt><trkpt lat="44.91142010577618" lon="11.9706856407025"><ele>-5.166666666666667</ele><time>2026-04-18T14:34:47Z</time></trkpt><trkpt lat="44.911344789098614" lon="11.970689160116686"><ele>-5.333333333333334</ele><time>2026-04-18T14:34:48Z</time></trkpt><trkpt lat="44.911267513762795" lon="11.970689672903683"><ele>-5.5</ele><time>2026-04-18T14:34:49Z</time></trkpt><trkpt lat="44.91119197502134" lon="11.970695110442646"><ele>-5.666666666666667</ele><time>2026-04-18T14:34:50Z</time></trkpt><trkpt lat="44.911114995808674" lon="11.970707495130176"><ele>-5.833333333333333</ele><time>2026-04-18T14:34:51Z</time></trkpt><trkpt lat="44.91103680031346" lon="11.970707239878527"><ele>-6.0</ele><time>2026-04-18T14:34:52Z</time></trkpt><trkpt lat="44.910961783797774" lon="11.970706597512471"><ele>-5.833333333333333</ele><time>2026-04-18T14:34:53Z</time></trkpt><trkpt lat="44.910885260519976" lon="11.970708683021721"><ele>-5.666666666666667</ele><time>2026-04-18T14:34:54Z</time></trkpt><trkpt lat="44.910809451144374" lon="11.970713016563263"><ele>-5.5</ele><time>2026-04-18T14:34:55Z</time></trkpt><trkpt lat="44.91073471827208" lon="11.970721185884084"><ele>-5.333333333333334</ele><time>2026-04-18T14:34:56Z</time></trkpt><trkpt lat="44.91066015956198" lon="11.970723354110211"><ele>-5.166666666666667</ele><time>2026-04-18T14:34:57Z</time></trkpt><trkpt lat="44.910585328366864" lon="11.970722048792474"><ele>-5.0</ele><time>2026-04-18T14:34:58Z</time></trkpt><trkpt lat="44.910508259165084" lon="11.970723913002663"><ele>-5.0</ele><time>2026-04-18T14:34:59Z</time></trkpt><trkpt lat="44.91043225188272" lon="11.970730916408769"><ele>-5.0</ele><time>2026-04-18T14:35:00Z</time></trkpt><trkpt lat="44.910357279302644" lon="11.970733746906754"><ele>-5.0</ele><time>2026-04-18T14:35:01Z</time></trkpt><trkpt lat="44.9102797373415" lon="11.970734147136383"><ele>-5.0</ele><time>2026-04-18T14:35:02Z</time></trkpt><trkpt lat="44.91020425675431" lon="11.970736039951488"><ele>-5.0</ele><time>2026-04-18T14:35:03Z</time></trkpt><trkpt lat="44.910128588666325" lon="11.970741318759053"><ele>-5.0</ele><time>2026-04-18T14:35:04Z</time></trkpt><trkpt lat="44.910055172345984" lon="11.970742504081661"><ele>-5.285714285714286</ele><time>2026-04-18T14:35:05Z</time></trkpt><trkpt lat="44.90997961307704" lon="11.970750447089225"><ele>-5.571428571428571</ele><time>2026-04-18T14:35:06Z</time></trkpt><trkpt lat="44.909906761300945" lon="11.970733099025441"><ele>-5.857142857142858</ele><time>2026-04-18T14:35:07Z</time></trkpt><trkpt lat="44.909832294377956" lon="11.97075233710908"><ele>-6.142857142857142</ele><time>2026-04-18T14:35:08Z</time></trkpt><trkpt lat="44.909757950286995" lon="11.970753233944988"><ele>-6.428571428571429</ele><time>2026-04-18T14:35:09Z</time></trkpt><trkpt lat="44.90968268486874" lon="11.970762326245346"><ele>-6.714285714285714</ele><time>2026-04-18T14:35:10Z</time></trkpt><trkpt lat="44.90960986366595" lon="11.970765704796534"><ele>-7.0</ele><time>2026-04-18T14:35:11Z</time></trkpt><trkpt lat="44.90953576819973" lon="11.97076860698745"><ele>-7.000000000000001</ele><time>2026-04-18T14:35:12Z</time></trkpt><trkpt lat="44.90946108469094" lon="11.970751036852525"><ele>-7.0</ele><time>2026-04-18T14:35:13Z</time></trkpt><trkpt lat="44.909384421710044" lon="11.970754176164622"><ele>-7.0</ele><time>2026-04-18T14:35:14Z</time></trkpt><trkpt lat="44.909307397736306" lon="11.970757330260934"><ele>-7.0</ele><time>2026-04-18T14:35:15Z</time></trkpt><trkpt lat="44.90923389328974" lon="11.970776387984223"><ele>-7.000000000000001</ele><time>2026-04-18T14:35:16Z</time></trkpt><trkpt lat="44.90915990701863" lon="11.970765994957697"><ele>-7.0</ele><time>2026-04-18T14:35:17Z</time></trkpt><trkpt lat="44.909083988797676" lon="11.970770283151472"><ele>-6.857142857142857</ele><time>2026-04-18T14:35:18Z</time></trkpt><trkpt lat="44.90901022582577" lon="11.970778677576051"><ele>-6.714285714285714</ele><time>2026-04-18T14:35:19Z</time></trkpt><trkpt lat="44.9089342186653" lon="11.970783085568621"><ele>-6.571428571428571</ele><time>2026-04-18T14:35:20Z</time></trkpt><trkpt lat="44.90885898069533" lon="11.970783652023773"><ele>-6.428571428571429</ele><time>2026-04-18T14:35:21Z</time></trkpt><trkpt lat="44.9087856032223" lon="11.970788431930158"><ele>-6.285714285714286</ele><time>2026-04-18T14:35:22Z</time></trkpt><trkpt lat="44.90871213885886" lon="11.97079041085008"><ele>-6.142857142857142</ele><time>2026-04-18T14:35:23Z</time></trkpt><trkpt lat="44.9086394376907" lon="11.970796384368457"><ele>-6.0</ele><time>2026-04-18T14:35:24Z</time></trkpt><trkpt lat="44.90856538532012" lon="11.97079499933579"><ele>-5.999999999999999</ele><time>2026-04-18T14:35:25Z</time></trkpt><trkpt lat="44.90849332424461" lon="11.970799600498136"><ele>-6.0</ele><time>2026-04-18T14:35:26Z</time></trkpt><trkpt lat="44.90842313860325" lon="11.970803093709296"><ele>-6.0</ele><time>2026-04-18T14:35:27Z</time></trkpt><trkpt lat="44.908352616693286" lon="11.970803724368622"><ele>-6.0</ele><time>2026-04-18T14:35:28Z</time></trkpt><trkpt lat="44.90828113987317" lon="11.97080752615649"><ele>-6.0</ele><time>2026-04-18T14:35:29Z</time></trkpt><trkpt lat="44.90820509721922" lon="11.970815144256475"><ele>-5.999999999999999</ele><time>2026-04-18T14:35:30Z</time></trkpt><trkpt lat="44.90813180081473" lon="11.970821856963218"><ele>-6.0</ele><time>2026-04-18T14:35:31Z</time></trkpt><trkpt lat="44.908055587363776" lon="11.970824690393721"><ele>-5.833333333333333</ele><time>2026-04-18T14:35:32Z</time></trkpt><trkpt lat="44.907981216773045" lon="11.970826541016688"><ele>-5.666666666666667</ele><time>2026-04-18T14:35:33Z</time></trkpt><trkpt lat="44.907904882195155" lon="11.970827595198424"><ele>-5.5</ele><time>2026-04-18T14:35:34Z</time></trkpt><trkpt lat="44.90783111215889" lon="11.970831467739655"><ele>-5.333333333333334</ele><time>2026-04-18T14:35:35Z</time></trkpt><trkpt lat="44.907753777122565" lon="11.970830800922185"><ele>-5.166666666666667</ele><time>2026-04-18T14:35:36Z</time></trkpt><trkpt lat="44.90767601720962" lon="11.970836631862166"><ele>-5.0</ele><time>2026-04-18T14:35:37Z</time></trkpt><trkpt lat="44.907599215104476" lon="11.97083828311958"><ele>-5.166666666666667</ele><time>2026-04-18T14:35:38Z</time></trkpt><trkpt lat="44.90752395036615" lon="11.970837203362255"><ele>-5.333333333333334</ele><time>2026-04-18T14:35:39Z</time></trkpt><trkpt lat="44.90744706762503" lon="11.970840917266584"><ele>-5.5</ele><time>2026-04-18T14:35:40Z</time></trkpt><trkpt lat="44.907373180329635" lon="11.970842264345357"><ele>-5.666666666666667</ele><time>2026-04-18T14:35:41Z</time></trkpt><trkpt lat="44.90729722949546" lon="11.970843273110374"><ele>-5.833333333333333</ele><time>2026-04-18T14:35:42Z</time></trkpt><trkpt lat="44.90722169568017" lon="11.970847229601127"><ele>-6.0</ele><time>2026-04-18T14:35:43Z</time></trkpt><trkpt lat="44.90714701269926" lon="11.970851460006253"><ele>-5.999999999999999</ele><time>2026-04-18T14:35:44Z</time></trkpt><trkpt lat="44.907073265652784" lon="11.970852919107612"><ele>-6.0</ele><time>2026-04-18T14:35:45Z</time></trkpt><trkpt lat="44.90699854834197" lon="11.970858030968023"><ele>-6.0</ele><time>2026-04-18T14:35:46Z</time></trkpt><trkpt lat="44.90692463356713" lon="11.970859758672226"><ele>-6.0</ele><time>2026-04-18T14:35:47Z</time></trkpt><trkpt lat="44.906850689107095" lon="11.970859436394516"><ele>-6.0</ele><time>2026-04-18T14:35:48Z</time></trkpt><trkpt lat="44.906776225676545" lon="11.970862269591462"><ele>-5.999999999999999</ele><time>2026-04-18T14:35:49Z</time></trkpt><trkpt lat="44.906700170927074" lon="11.970871518009007"><ele>-6.0</ele><time>2026-04-18T14:35:50Z</time></trkpt><trkpt lat="44.90662473766666" lon="11.970872953984793"><ele>-6.142857142857142</ele><time>2026-04-18T14:35:51Z</time></trkpt><trkpt lat="44.90654688837651" lon="11.970871837661148"><ele>-6.285714285714286</ele><time>2026-04-18T14:35:52Z</time></trkpt><trkpt lat="44.90647229340646" lon="11.970871703136474"><ele>-6.428571428571429</ele><time>2026-04-18T14:35:53Z</time></trkpt><trkpt lat="44.90639874859028" lon="11.970877357407382"><ele>-6.571428571428571</ele><time>2026-04-18T14:35:54Z</time></trkpt><trkpt lat="44.90632421592959" lon="11.970884535358104"><ele>-6.714285714285714</ele><time>2026-04-18T14:35:55Z</time></trkpt><trkpt lat="44.90625194837154" lon="11.970887490250728"><ele>-6.857142857142857</ele><time>2026-04-18T14:35:56Z</time></trkpt><trkpt lat="44.90617601211229" lon="11.970884476846472"><ele>-7.0</ele><time>2026-04-18T14:35:57Z</time></trkpt><trkpt lat="44.90610260267727" lon="11.970886157159015"><ele>-7.0</ele><time>2026-04-18T14:35:58Z</time></trkpt><trkpt lat="44.90602902296102" lon="11.970892791599804"><ele>-7.0</ele><time>2026-04-18T14:35:59Z</time></trkpt><trkpt lat="44.90595321948205" lon="11.97089672671859"><ele>-7.0</ele><time>2026-04-18T14:36:00Z</time></trkpt><trkpt lat="44.905880811319925" lon="11.970896522677409"><ele>-7.0</ele><time>2026-04-18T14:36:01Z</time></trkpt><trkpt lat="44.90580646051702" lon="11.970896918299784"><ele>-7.0</ele><time>2026-04-18T14:36:02Z</time></trkpt><trkpt lat="44.905733307677515" lon="11.970902615052024"><ele>-7.0</ele><time>2026-04-18T14:36:03Z</time></trkpt><trkpt lat="44.905661863861575" lon="11.970915910470397"><ele>-7.0</ele><time>2026-04-18T14:36:04Z</time></trkpt><trkpt lat="44.90558633169038" lon="11.970899305971503"><ele>-6.857142857142857</ele><time>2026-04-18T14:36:05Z</time></trkpt><trkpt lat="44.90551272088792" lon="11.970901891674739"><ele>-6.714285714285714</ele><time>2026-04-18T14:36:06Z</time></trkpt><trkpt lat="44.90544090141192" lon="11.970904414454257"><ele>-6.571428571428571</ele><time>2026-04-18T14:36:07Z</time></trkpt><trkpt lat="44.905367171842286" lon="11.970905868423598"><ele>-6.428571428571429</ele><time>2026-04-18T14:36:08Z</time></trkpt><trkpt lat="44.90529434122051" lon="11.97090639296475"><ele>-6.285714285714286</ele><time>2026-04-18T14:36:09Z</time></trkpt><trkpt lat="44.90522173351061" lon="11.97090691590193"><ele>-6.142857142857142</ele><time>2026-04-18T14:36:10Z</time></trkpt><trkpt lat="44.905146987960435" lon="11.970914068997592"><ele>-6.0</ele><time>2026-04-18T14:36:11Z</time></trkpt><trkpt lat="44.90507276483453" lon="11.970935503681547"><ele>-6.0</ele><time>2026-04-18T14:36:12Z</time></trkpt><trkpt lat="44.90500573436277" lon="11.970996887944574"><ele>-6.0</ele><time>2026-04-18T14:36:13Z</time></trkpt><trkpt lat="44.90496474208449" lon="11.9711026980654"><ele>-6.0</ele><time>2026-04-18T14:36:14Z</time></trkpt><trkpt lat="44.904944521883905" lon="11.971202845327753"><ele>-6.0</ele><time>2026-04-18T14:36:15Z</time></trkpt><trkpt lat="44.90501083786068" lon="11.971330246220232"><ele>-6.0</ele><time>2026-04-18T14:36:16Z</time></trkpt><trkpt lat="44.90502365528955" lon="11.971425085434255"><ele>-6.0</ele><time>2026-04-18T14:36:17Z</time></trkpt><trkpt lat="44.90504305635285" lon="11.97151120710418"><ele>-6.0</ele><time>2026-04-18T14:36:18Z</time></trkpt><trkpt lat="44.905045023952276" lon="11.971684860044656"><ele>-6.0</ele><time>2026-04-18T14:36:20Z</time></trkpt><trkpt lat="44.905071778603315" lon="11.971836733242856"><ele>-6.0</ele><time>2026-04-18T14:36:22Z</time></trkpt><trkpt lat="44.90509764469675" lon="11.97198356253552"><ele>-6.0</ele><time>2026-04-18T14:36:24Z</time></trkpt><trkpt lat="44.90512222629532" lon="11.972123100369357"><ele>-6.0</ele><time>2026-04-18T14:36:26Z</time></trkpt><trkpt lat="44.90514472014575" lon="11.972250787071394"><ele>-6.0</ele><time>2026-04-18T14:36:28Z</time></trkpt><trkpt lat="44.905181052018314" lon="11.972360301056696"><ele>-6.0</ele><time>2026-04-18T14:36:30Z</time></trkpt><trkpt lat="44.905192218236806" lon="11.9724765079557"><ele>-6.0</ele><time>2026-04-18T14:36:31.999Z</time></trkpt><trkpt lat="44.905204778064466" lon="11.972591706800493"><ele>-6.0</ele><time>2026-04-18T14:36:33.999Z</time></trkpt><trkpt lat="44.90522506796785" lon="11.972706882757318"><ele>-6.0</ele><time>2026-04-18T14:36:35.999Z</time></trkpt><trkpt lat="44.905261722189934" lon="11.972842128641256"><ele>-6.0</ele><time>2026-04-18T14:36:37.999Z</time></trkpt><trkpt lat="44.905276545353175" lon="11.972999094945624"><ele>-6.0</ele><time>2026-04-18T14:36:40Z</time></trkpt><trkpt lat="44.90530565687755" lon="11.973164346980939"><ele>-6.0</ele><time>2026-04-18T14:36:42Z</time></trkpt><trkpt lat="44.90532126380697" lon="11.973252939962466"><ele>-6.0</ele><time>2026-04-18T14:36:43Z</time></trkpt><trkpt lat="44.90533727539529" lon="11.973343090726862"><ele>-6.0</ele><time>2026-04-18T14:36:44Z</time></trkpt><trkpt lat="44.905354020518196" lon="11.97343640719929"><ele>-6.0</ele><time>2026-04-18T14:36:45Z</time></trkpt><trkpt lat="44.905387479855456" lon="11.973527721047164"><ele>-6.0</ele><time>2026-04-18T14:36:46Z</time></trkpt><trkpt lat="44.90538841552742" lon="11.973628082170904"><ele>-5.999999999999999</ele><time>2026-04-18T14:36:47Z</time></trkpt><trkpt lat="44.90540575396856" lon="11.973724705060915"><ele>-6.0</ele><time>2026-04-18T14:36:48Z</time></trkpt><trkpt lat="44.90543902687597" lon="11.973817418301563"><ele>-6.0</ele><time>2026-04-18T14:36:49Z</time></trkpt><trkpt lat="44.90545636855285" lon="11.97391821963534"><ele>-6.0</ele><time>2026-04-18T14:36:50Z</time></trkpt><trkpt lat="44.90545947404873" lon="11.974024073931103"><ele>-6.0</ele><time>2026-04-18T14:36:51Z</time></trkpt><trkpt lat="44.90547784676544" lon="11.974126460584658"><ele>-5.999999999999999</ele><time>2026-04-18T14:36:52Z</time></trkpt><trkpt lat="44.905511785192815" lon="11.974224219952367"><ele>-6.0</ele><time>2026-04-18T14:36:53Z</time></trkpt><trkpt lat="44.90552985963701" lon="11.974328517379726"><ele>-6.0</ele><time>2026-04-18T14:36:54Z</time></trkpt><trkpt lat="44.90554839453703" lon="11.974433405242438"><ele>-6.0</ele><time>2026-04-18T14:36:55Z</time></trkpt><trkpt lat="44.90556735031153" lon="11.974537585154783"><ele>-6.0</ele><time>2026-04-18T14:36:56Z</time></trkpt><trkpt lat="44.90558619301198" lon="11.974641754085658"><ele>-6.0</ele><time>2026-04-18T14:36:57Z</time></trkpt><trkpt lat="44.90560399624677" lon="11.974745939881453"><ele>-6.0</ele><time>2026-04-18T14:36:58Z</time></trkpt><trkpt lat="44.90562225040415" lon="11.97484923238299"><ele>-6.0</ele><time>2026-04-18T14:36:59Z</time></trkpt><trkpt lat="44.90564261860752" lon="11.97495636150486"><ele>-6.0</ele><time>2026-04-18T14:37:00Z</time></trkpt><trkpt lat="44.905659725685474" lon="11.975065494290664"><ele>-6.0</ele><time>2026-04-18T14:37:01Z</time></trkpt><trkpt lat="44.90568014543186" lon="11.975169520381412"><ele>-6.0</ele><time>2026-04-18T14:37:02Z</time></trkpt><trkpt lat="44.90569637467667" lon="11.975274529851028"><ele>-6.0</ele><time>2026-04-18T14:37:03Z</time></trkpt><trkpt lat="44.90571329176415" lon="11.975378758210805"><ele>-6.0</ele><time>2026-04-18T14:37:04Z</time></trkpt><trkpt lat="44.90573623373497" lon="11.975483101187638"><ele>-6.0</ele><time>2026-04-18T14:37:05Z</time></trkpt><trkpt lat="44.905751284051846" lon="11.9755874697081"><ele>-5.999999999999999</ele><time>2026-04-18T14:37:06Z</time></trkpt><trkpt lat="44.90576982730604" lon="11.975690859132673"><ele>-6.0</ele><time>2026-04-18T14:37:07Z</time></trkpt><trkpt lat="44.905789574379284" lon="11.975800321893846"><ele>-6.0</ele><time>2026-04-18T14:37:08Z</time></trkpt><trkpt lat="44.90580845668046" lon="11.97590323519662"><ele>-6.0</ele><time>2026-04-18T14:37:09Z</time></trkpt><trkpt lat="44.905823285484935" lon="11.97600996706859"><ele>-6.0</ele><time>2026-04-18T14:37:10Z</time></trkpt><trkpt lat="44.90584162755311" lon="11.976102349819264"><ele>-5.999999999999999</ele><time>2026-04-18T14:37:11Z</time></trkpt><trkpt lat="44.90586068327746" lon="11.976196520686228"><ele>-6.0</ele><time>2026-04-18T14:37:12Z</time></trkpt><trkpt lat="44.90587911776403" lon="11.976289887781565"><ele>-6.0</ele><time>2026-04-18T14:37:13Z</time></trkpt><trkpt lat="44.905902267403434" lon="11.976375082232774"><ele>-6.0</ele><time>2026-04-18T14:37:14Z</time></trkpt><trkpt lat="44.905908108955245" lon="11.976464395757297"><ele>-6.0</ele><time>2026-04-18T14:37:15Z</time></trkpt><trkpt lat="44.90594330133383" lon="11.976617484752984"><ele>-6.0</ele><time>2026-04-18T14:37:17Z</time></trkpt><trkpt lat="44.905949403601554" lon="11.976720141033065"><ele>-6.0</ele><time>2026-04-18T14:37:19Z</time></trkpt><trkpt lat="44.905872711376546" lon="11.976748751881564"><ele>-6.0</ele><time>2026-04-18T14:37:20Z</time></trkpt><trkpt lat="44.90579536036057" lon="11.97676440468094"><ele>-5.6</ele><time>2026-04-18T14:37:22Z</time></trkpt><trkpt lat="44.90579261806301" lon="11.976883302648027"><ele>-5.199999999999999</ele><time>2026-04-18T14:37:24Z</time></trkpt><trkpt lat="44.90581430724758" lon="11.977009646053977"><ele>-4.800000000000001</ele><time>2026-04-18T14:37:26Z</time></trkpt><trkpt lat="44.90584299979373" lon="11.977140470311156"><ele>-4.4</ele><time>2026-04-18T14:37:28Z</time></trkpt><trkpt lat="44.90586586893953" lon="11.977276179970742"><ele>-4.0</ele><time>2026-04-18T14:37:30Z</time></trkpt><trkpt lat="44.905893892439074" lon="11.977431023762199"><ele>-3.8000000000000003</ele><time>2026-04-18T14:37:32Z</time></trkpt><trkpt lat="44.905908953740536" lon="11.977591283878056"><ele>-3.6000000000000005</ele><time>2026-04-18T14:37:34Z</time></trkpt><trkpt lat="44.905953241124486" lon="11.977750370611243"><ele>-3.4</ele><time>2026-04-18T14:37:36Z</time></trkpt><trkpt lat="44.90597873697075" lon="11.977914900404514"><ele>-3.2</ele><time>2026-04-18T14:37:38Z</time></trkpt><trkpt lat="44.90599739464589" lon="11.97800026576918"><ele>-3.0</ele><time>2026-04-18T14:37:39Z</time></trkpt><trkpt lat="44.90602648175676" lon="11.978163065578359"><ele>-3.4285714285714284</ele><time>2026-04-18T14:37:41Z</time></trkpt><trkpt lat="44.906039082119094" lon="11.978255328576804"><ele>-3.8571428571428568</ele><time>2026-04-18T14:37:42Z</time></trkpt><trkpt lat="44.90605644205649" lon="11.978347592770934"><ele>-4.285714285714286</ele><time>2026-04-18T14:37:43Z</time></trkpt><trkpt lat="44.90607615025186" lon="11.978444046696357"><ele>-4.7142857142857135</ele><time>2026-04-18T14:37:44Z</time></trkpt><trkpt lat="44.906078678848964" lon="11.978549353751404"><ele>-5.142857142857142</ele><time>2026-04-18T14:37:45Z</time></trkpt><trkpt lat="44.90609716961207" lon="11.978653731020614"><ele>-5.571428571428571</ele><time>2026-04-18T14:37:46Z</time></trkpt><trkpt lat="44.90613155329231" lon="11.978753952568317"><ele>-6.0</ele><time>2026-04-18T14:37:47Z</time></trkpt><trkpt lat="44.906149726399455" lon="11.978860371487487"><ele>-6.0</ele><time>2026-04-18T14:37:48Z</time></trkpt><trkpt lat="44.90616880921413" lon="11.978966263778076"><ele>-6.0</ele><time>2026-04-18T14:37:49Z</time></trkpt><trkpt lat="44.90618764512328" lon="11.979071869551161"><ele>-6.0</ele><time>2026-04-18T14:37:50Z</time></trkpt><trkpt lat="44.906207300916975" lon="11.979180085814761"><ele>-6.0</ele><time>2026-04-18T14:37:51Z</time></trkpt><trkpt lat="44.90622358961513" lon="11.979285480889038"><ele>-6.0</ele><time>2026-04-18T14:37:52Z</time></trkpt><trkpt lat="44.90624156451101" lon="11.97939118919285"><ele>-6.0</ele><time>2026-04-18T14:37:53Z</time></trkpt><trkpt lat="44.90626258617641" lon="11.979498722352488"><ele>-5.833333333333333</ele><time>2026-04-18T14:37:54Z</time></trkpt><trkpt lat="44.9062667559206" lon="11.979611017106407"><ele>-5.666666666666667</ele><time>2026-04-18T14:37:55Z</time></trkpt><trkpt lat="44.90628510333163" lon="11.97971458512254"><ele>-5.5</ele><time>2026-04-18T14:37:56Z</time></trkpt><trkpt lat="44.90630247002455" lon="11.979812617179066"><ele>-5.333333333333334</ele><time>2026-04-18T14:37:57Z</time></trkpt><trkpt lat="44.90632074029454" lon="11.979915749889457"><ele>-5.166666666666667</ele><time>2026-04-18T14:37:58Z</time></trkpt><trkpt lat="44.90633870618541" lon="11.98001716433559"><ele>-5.0</ele><time>2026-04-18T14:37:59Z</time></trkpt><trkpt lat="44.906356920588884" lon="11.980119981603856"><ele>-5.0</ele><time>2026-04-18T14:38:00Z</time></trkpt><trkpt lat="44.90637531687408" lon="11.980222811971814"><ele>-5.0</ele><time>2026-04-18T14:38:01Z</time></trkpt><trkpt lat="44.90639292735705" lon="11.980324358501347"><ele>-5.0</ele><time>2026-04-18T14:38:02Z</time></trkpt><trkpt lat="44.9064127799254" lon="11.980427877808163"><ele>-5.0</ele><time>2026-04-18T14:38:03Z</time></trkpt><trkpt lat="44.906434274752186" lon="11.980531827208015"><ele>-5.0</ele><time>2026-04-18T14:38:04Z</time></trkpt><trkpt lat="44.90645438981091" lon="11.980635058762914"><ele>-5.0</ele><time>2026-04-18T14:38:05Z</time></trkpt><trkpt lat="44.90647731239149" lon="11.98073859064405"><ele>-5.0</ele><time>2026-04-18T14:38:06Z</time></trkpt><trkpt lat="44.9065009619405" lon="11.980840060121357"><ele>-5.0</ele><time>2026-04-18T14:38:07Z</time></trkpt><trkpt lat="44.9065204764284" lon="11.980944396286608"><ele>-5.0</ele><time>2026-04-18T14:38:08Z</time></trkpt><trkpt lat="44.90653993950399" lon="11.981047478981658"><ele>-5.0</ele><time>2026-04-18T14:38:09Z</time></trkpt><trkpt lat="44.90654349701792" lon="11.981161066016611"><ele>-5.0</ele><time>2026-04-18T14:38:10Z</time></trkpt><trkpt lat="44.90656217336166" lon="11.981265258714254"><ele>-5.0</ele><time>2026-04-18T14:38:11Z</time></trkpt><trkpt lat="44.90658757504185" lon="11.981368818022405"><ele>-5.0</ele><time>2026-04-18T14:38:12Z</time></trkpt><trkpt lat="44.9066045596108" lon="11.981477990951824"><ele>-5.0</ele><time>2026-04-18T14:38:13Z</time></trkpt><trkpt lat="44.90662709112276" lon="11.981584040604394"><ele>-5.0</ele><time>2026-04-18T14:38:14Z</time></trkpt><trkpt lat="44.90665035670199" lon="11.981689111688507"><ele>-5.0</ele><time>2026-04-18T14:38:15Z</time></trkpt><trkpt lat="44.90666695726991" lon="11.981795046241883"><ele>-5.0</ele><time>2026-04-18T14:38:16Z</time></trkpt><trkpt lat="44.906686528281256" lon="11.98189652372209"><ele>-5.0</ele><time>2026-04-18T14:38:17Z</time></trkpt><trkpt lat="44.90670247666448" lon="11.981995103068755"><ele>-5.0</ele><time>2026-04-18T14:38:18Z</time></trkpt><trkpt lat="44.906721921803666" lon="11.982095075779153"><ele>-5.0</ele><time>2026-04-18T14:38:19Z</time></trkpt><trkpt lat="44.9067366965318" lon="11.982196811794672"><ele>-5.0</ele><time>2026-04-18T14:38:20Z</time></trkpt><trkpt lat="44.90675521067241" lon="11.98230910972922"><ele>-5.0</ele><time>2026-04-18T14:38:21Z</time></trkpt><trkpt lat="44.90677473973074" lon="11.98241520495042"><ele>-5.0</ele><time>2026-04-18T14:38:22Z</time></trkpt><trkpt lat="44.90679314094894" lon="11.982524627752252"><ele>-5.0</ele><time>2026-04-18T14:38:23Z</time></trkpt><trkpt lat="44.9068081338066" lon="11.982630267120813"><ele>-5.0</ele><time>2026-04-18T14:38:24Z</time></trkpt><trkpt lat="44.906826497604534" lon="11.982734969572052"><ele>-5.0</ele><time>2026-04-18T14:38:25Z</time></trkpt><trkpt lat="44.90684594045688" lon="11.982842118118185"><ele>-5.0</ele><time>2026-04-18T14:38:26Z</time></trkpt><trkpt lat="44.9068632874347" lon="11.982941340329983"><ele>-5.0</ele><time>2026-04-18T14:38:27Z</time></trkpt><trkpt lat="44.90688296119816" lon="11.983044140406493"><ele>-5.0</ele><time>2026-04-18T14:38:28Z</time></trkpt><trkpt lat="44.906904418487834" lon="11.983142193641024"><ele>-5.0</ele><time>2026-04-18T14:38:29Z</time></trkpt><trkpt lat="44.9069223490036" lon="11.983249898046111"><ele>-5.142857142857142</ele><time>2026-04-18T14:38:30Z</time></trkpt><trkpt lat="44.90694147038332" lon="11.98335440548519"><ele>-5.285714285714286</ele><time>2026-04-18T14:38:31Z</time></trkpt><trkpt lat="44.90695918602851" lon="11.98345956613684"><ele>-5.428571428571429</ele><time>2026-04-18T14:38:32Z</time></trkpt><trkpt lat="44.906977842496616" lon="11.98356762522804"><ele>-5.571428571428571</ele><time>2026-04-18T14:38:33Z</time></trkpt><trkpt lat="44.9069931995401" lon="11.983667886957479"><ele>-5.714285714285714</ele><time>2026-04-18T14:38:34Z</time></trkpt><trkpt lat="44.90701086915642" lon="11.983764418029336"><ele>-5.857142857142857</ele><time>2026-04-18T14:38:35Z</time></trkpt><trkpt lat="44.90702670975498" lon="11.98386582544067"><ele>-6.0</ele><time>2026-04-18T14:38:36Z</time></trkpt><trkpt lat="44.90704135272732" lon="11.983959187658305"><ele>-6.0</ele><time>2026-04-18T14:38:37Z</time></trkpt><trkpt lat="44.90705619742362" lon="11.984046398098984"><ele>-6.0</ele><time>2026-04-18T14:38:38Z</time></trkpt><trkpt lat="44.90707319747945" lon="11.98413352484453"><ele>-6.0</ele><time>2026-04-18T14:38:39Z</time></trkpt><trkpt lat="44.90710420126882" lon="11.984294129248141"><ele>-6.0</ele><time>2026-04-18T14:38:41Z</time></trkpt><trkpt lat="44.90712856851165" lon="11.984448047196155"><ele>-6.0</ele><time>2026-04-18T14:38:43Z</time></trkpt><trkpt lat="44.90716137211596" lon="11.984609184974014"><ele>-5.833333333333333</ele><time>2026-04-18T14:38:45Z</time></trkpt><trkpt lat="44.90718128948743" lon="11.984782261184757"><ele>-5.666666666666667</ele><time>2026-04-18T14:38:47Z</time></trkpt><trkpt lat="44.907197603605105" lon="11.984875121048887"><ele>-5.5</ele><time>2026-04-18T14:38:48Z</time></trkpt><trkpt lat="44.90721726038642" lon="11.984962352798357"><ele>-5.333333333333334</ele><time>2026-04-18T14:38:49Z</time></trkpt><trkpt lat="44.90723568083515" lon="11.985055951579751"><ele>-5.166666666666667</ele><time>2026-04-18T14:38:50Z</time></trkpt><trkpt lat="44.90724049020625" lon="11.98515218935065"><ele>-5.0</ele><time>2026-04-18T14:38:51Z</time></trkpt><trkpt lat="44.90726561931073" lon="11.985245034073861"><ele>-5.0</ele><time>2026-04-18T14:38:52Z</time></trkpt><trkpt lat="44.9072764657715" lon="11.985337098794739"><ele>-5.0</ele><time>2026-04-18T14:38:53Z</time></trkpt><trkpt lat="44.90729756581623" lon="11.985427693066606"><ele>-5.0</ele><time>2026-04-18T14:38:54Z</time></trkpt><trkpt lat="44.90731459842902" lon="11.985514489762226"><ele>-5.0</ele><time>2026-04-18T14:38:55Z</time></trkpt><trkpt lat="44.90734094794696" lon="11.985688949261169"><ele>-5.0</ele><time>2026-04-18T14:38:57Z</time></trkpt><trkpt lat="44.90735761501485" lon="11.98577880403166"><ele>-5.0</ele><time>2026-04-18T14:38:58Z</time></trkpt><trkpt lat="44.90737117646674" lon="11.985871959923415"><ele>-5.2</ele><time>2026-04-18T14:38:59Z</time></trkpt><trkpt lat="44.907385337646865" lon="11.985959109960088"><ele>-5.4</ele><time>2026-04-18T14:39:00Z</time></trkpt><trkpt lat="44.907412941256844" lon="11.986124086782432"><ele>-5.6</ele><time>2026-04-18T14:39:02Z</time></trkpt><trkpt lat="44.907448576334474" lon="11.986275100870646"><ele>-5.8</ele><time>2026-04-18T14:39:04Z</time></trkpt><trkpt lat="44.90747205279011" lon="11.986425267640934"><ele>-6.0</ele><time>2026-04-18T14:39:06Z</time></trkpt><trkpt lat="44.90750033510734" lon="11.986568697156228"><ele>-6.25</ele><time>2026-04-18T14:39:08Z</time></trkpt><trkpt lat="44.907521313301885" lon="11.9867319156875"><ele>-6.5</ele><time>2026-04-18T14:39:10Z</time></trkpt><trkpt lat="44.90754702216954" lon="11.986900823464874"><ele>-6.75</ele><time>2026-04-18T14:39:12Z</time></trkpt><trkpt lat="44.907578173098244" lon="11.987052478423857"><ele>-7.0</ele><time>2026-04-18T14:39:14Z</time></trkpt><trkpt lat="44.907604638610415" lon="11.98719388668156"><ele>-6.6</ele><time>2026-04-18T14:39:16Z</time></trkpt><trkpt lat="44.90762261530581" lon="11.987343793777782"><ele>-6.199999999999999</ele><time>2026-04-18T14:39:18Z</time></trkpt><trkpt lat="44.907653589725705" lon="11.987507094181579"><ele>-5.8</ele><time>2026-04-18T14:39:20Z</time></trkpt><trkpt lat="44.9076710075501" lon="11.987593747699657"><ele>-5.4</ele><time>2026-04-18T14:39:21Z</time></trkpt><trkpt lat="44.90771116873247" lon="11.987765632268784"><ele>-5.0</ele><time>2026-04-18T14:39:23Z</time></trkpt><trkpt lat="44.90771256265567" lon="11.98786055437698"><ele>-5.0</ele><time>2026-04-18T14:39:24Z</time></trkpt><trkpt lat="44.90774062260921" lon="11.987942153917778"><ele>-5.0</ele><time>2026-04-18T14:39:25Z</time></trkpt><trkpt lat="44.90776985820348" lon="11.988106659857923"><ele>-5.0</ele><time>2026-04-18T14:39:27Z</time></trkpt><trkpt lat="44.907784011923376" lon="11.988265817290863"><ele>-5.0</ele><time>2026-04-18T14:39:29Z</time></trkpt><trkpt lat="44.90781119034212" lon="11.988419974455217"><ele>-5.0</ele><time>2026-04-18T14:39:31Z</time></trkpt><trkpt lat="44.90783878422405" lon="11.98857648807125"><ele>-5.0</ele><time>2026-04-18T14:39:33Z</time></trkpt><trkpt lat="44.907867463483946" lon="11.988739157901659"><ele>-5.0</ele><time>2026-04-18T14:39:35Z</time></trkpt><trkpt lat="44.90788345230688" lon="11.988829846967958"><ele>-5.0</ele><time>2026-04-18T14:39:36Z</time></trkpt><trkpt lat="44.907914172541254" lon="11.989004093653694"><ele>-5.0</ele><time>2026-04-18T14:39:38Z</time></trkpt><trkpt lat="44.907945412685805" lon="11.989086643022548"><ele>-5.0</ele><time>2026-04-18T14:39:39Z</time></trkpt><trkpt lat="44.90794540088833" lon="11.989181221973865"><ele>-5.0</ele><time>2026-04-18T14:39:40Z</time></trkpt><trkpt lat="44.90797533005789" lon="11.989259795095398"><ele>-4.75</ele><time>2026-04-18T14:39:41Z</time></trkpt><trkpt lat="44.907988090276525" lon="11.989430098471862"><ele>-4.5</ele><time>2026-04-18T14:39:43Z</time></trkpt><trkpt lat="44.90801525189246" lon="11.989588753463241"><ele>-4.25</ele><time>2026-04-18T14:39:45Z</time></trkpt><trkpt lat="44.90804092332143" lon="11.989738703747323"><ele>-4.0</ele><time>2026-04-18T14:39:47Z</time></trkpt><trkpt lat="44.90806671722176" lon="11.989889369887678"><ele>-4.0</ele><time>2026-04-18T14:39:49Z</time></trkpt><trkpt lat="44.90809483230586" lon="11.990053594223182"><ele>-4.0</ele><time>2026-04-18T14:39:51Z</time></trkpt><trkpt lat="44.908131920675835" lon="11.99021181237107"><ele>-4.0</ele><time>2026-04-18T14:39:53Z</time></trkpt><trkpt lat="44.90814850842453" lon="11.990367123873535"><ele>-4.0</ele><time>2026-04-18T14:39:55Z</time></trkpt><trkpt lat="44.9081737751796" lon="11.990514710446982"><ele>-4.0</ele><time>2026-04-18T14:39:57Z</time></trkpt><trkpt lat="44.90819980376495" lon="11.990666747048508"><ele>-4.0</ele><time>2026-04-18T14:39:59Z</time></trkpt><trkpt lat="44.90824166268992" lon="11.990815743412696"><ele>-4.0</ele><time>2026-04-18T14:40:01Z</time></trkpt><trkpt lat="44.908267188287425" lon="11.990975689814649"><ele>-4.0</ele><time>2026-04-18T14:40:03Z</time></trkpt><trkpt lat="44.908270138559814" lon="11.99107757916657"><ele>-4.0</ele><time>2026-04-18T14:40:05Z</time></trkpt><trkpt lat="44.90838904550428" lon="11.991053739388585"><ele>-4.0</ele><time>2026-04-18T14:40:06Z</time></trkpt><trkpt lat="44.90846569469082" lon="11.991045380771194"><ele>-4.0</ele><time>2026-04-18T14:40:08Z</time></trkpt><trkpt lat="44.90857412805101" lon="11.991059150689384"><ele>-4.0</ele><time>2026-04-18T14:40:10Z</time></trkpt><trkpt lat="44.90869245329803" lon="11.991066923157103"><ele>-4.0</ele><time>2026-04-18T14:40:12Z</time></trkpt><trkpt lat="44.908818453543425" lon="11.991079798671999"><ele>-4.0</ele><time>2026-04-18T14:40:14Z</time></trkpt><trkpt lat="44.90888637294011" lon="11.991087403321563"><ele>-4.0</ele><time>2026-04-18T14:40:15Z</time></trkpt><trkpt lat="44.90895538633397" lon="11.99109213596331"><ele>-4.0</ele><time>2026-04-18T14:40:16Z</time></trkpt><trkpt lat="44.909020377316324" lon="11.991094961882352"><ele>-4.0</ele><time>2026-04-18T14:40:17Z</time></trkpt><trkpt lat="44.90913999746222" lon="11.99109773530683"><ele>-4.0</ele><time>2026-04-18T14:40:19Z</time></trkpt><trkpt lat="44.909251964066875" lon="11.991103807907763"><ele>-4.0</ele><time>2026-04-18T14:40:21Z</time></trkpt><trkpt lat="44.9093632238239" lon="11.991113412737704"><ele>-4.333333333333333</ele><time>2026-04-18T14:40:23Z</time></trkpt><trkpt lat="44.90946763203828" lon="11.991122165178576"><ele>-4.666666666666666</ele><time>2026-04-18T14:40:25Z</time></trkpt><trkpt lat="44.90958083617558" lon="11.991120712897018"><ele>-5.0</ele><time>2026-04-18T14:40:27Z</time></trkpt><trkpt lat="44.909643886142206" lon="11.991122991837027"><ele>-5.333333333333333</ele><time>2026-04-18T14:40:28Z</time></trkpt><trkpt lat="44.909707298505666" lon="11.991124224758675"><ele>-5.666666666666667</ele><time>2026-04-18T14:40:29Z</time></trkpt><trkpt lat="44.90977516420926" lon="11.991131383413284"><ele>-6.0</ele><time>2026-04-18T14:40:30Z</time></trkpt><trkpt lat="44.90984619045425" lon="11.99113640292382"><ele>-5.999999999999999</ele><time>2026-04-18T14:40:31Z</time></trkpt><trkpt lat="44.909915114696766" lon="11.991141307274429"><ele>-6.0</ele><time>2026-04-18T14:40:32Z</time></trkpt><trkpt lat="44.909988321812726" lon="11.991148109967863"><ele>-6.0</ele><time>2026-04-18T14:40:33Z</time></trkpt><trkpt lat="44.91006295241528" lon="11.991154245114467"><ele>-6.0</ele><time>2026-04-18T14:40:34Z</time></trkpt><trkpt lat="44.91013986621994" lon="11.991160124006454"><ele>-6.0</ele><time>2026-04-18T14:40:35Z</time></trkpt><trkpt lat="44.9102169989417" lon="11.991164103421076"><ele>-5.999999999999999</ele><time>2026-04-18T14:40:36Z</time></trkpt><trkpt lat="44.91029326306297" lon="11.991170254682187"><ele>-6.0</ele><time>2026-04-18T14:40:37Z</time></trkpt><trkpt lat="44.91036957156121" lon="11.991174693282336"><ele>-6.333333333333333</ele><time>2026-04-18T14:40:38Z</time></trkpt><trkpt lat="44.910445932566596" lon="11.99117681906291"><ele>-6.666666666666666</ele><time>2026-04-18T14:40:39Z</time></trkpt><trkpt lat="44.910524411478505" lon="11.99118139617632"><ele>-7.0</ele><time>2026-04-18T14:40:40Z</time></trkpt><trkpt lat="44.91060366524026" lon="11.991186828398073"><ele>-7.333333333333333</ele><time>2026-04-18T14:40:41Z</time></trkpt><trkpt lat="44.91068086188621" lon="11.991190920877848"><ele>-7.666666666666666</ele><time>2026-04-18T14:40:42Z</time></trkpt><trkpt lat="44.91075681684382" lon="11.991195061517246"><ele>-8.0</ele><time>2026-04-18T14:40:43Z</time></trkpt><trkpt lat="44.91083281336365" lon="11.991199804270884"><ele>-7.999999999999999</ele><time>2026-04-18T14:40:44Z</time></trkpt><trkpt lat="44.91090547479911" lon="11.991203425933312"><ele>-8.0</ele><time>2026-04-18T14:40:45Z</time></trkpt><trkpt lat="44.91098328301443" lon="11.991211373148435"><ele>-8.0</ele><time>2026-04-18T14:40:46Z</time></trkpt><trkpt lat="44.91105918270649" lon="11.99121639553402"><ele>-8.0</ele><time>2026-04-18T14:40:47Z</time></trkpt><trkpt lat="44.91113926425602" lon="11.9912251401219"><ele>-7.999999999999999</ele><time>2026-04-18T14:40:48Z</time></trkpt><trkpt lat="44.91121717885264" lon="11.991228844410788"><ele>-8.0</ele><time>2026-04-18T14:40:49Z</time></trkpt><trkpt lat="44.91129397669899" lon="11.99123523587292"><ele>-7.833333333333333</ele><time>2026-04-18T14:40:50Z</time></trkpt><trkpt lat="44.91137117419275" lon="11.991243609778822"><ele>-7.666666666666666</ele><time>2026-04-18T14:40:51Z</time></trkpt><trkpt lat="44.91144497702771" lon="11.991248203976234"><ele>-7.5</ele><time>2026-04-18T14:40:52Z</time></trkpt><trkpt lat="44.9115182970265" lon="11.991252618798894"><ele>-7.333333333333334</ele><time>2026-04-18T14:40:53Z</time></trkpt><trkpt lat="44.91159350058801" lon="11.99125272954229"><ele>-7.166666666666667</ele><time>2026-04-18T14:40:54Z</time></trkpt><trkpt lat="44.91166742810524" lon="11.991260495304475"><ele>-7.0</ele><time>2026-04-18T14:40:55Z</time></trkpt><trkpt lat="44.911746660795885" lon="11.991263630281281"><ele>-6.833333333333334</ele><time>2026-04-18T14:40:56Z</time></trkpt><trkpt lat="44.91182458668777" lon="11.991269266102327"><ele>-6.666666666666667</ele><time>2026-04-18T14:40:57Z</time></trkpt><trkpt lat="44.91190092279861" lon="11.991268830273897"><ele>-6.5</ele><time>2026-04-18T14:40:58Z</time></trkpt><trkpt lat="44.9119793610436" lon="11.99127106600896"><ele>-6.333333333333334</ele><time>2026-04-18T14:40:59Z</time></trkpt><trkpt lat="44.912054829461034" lon="11.99127764270804"><ele>-6.166666666666667</ele><time>2026-04-18T14:41:00Z</time></trkpt><trkpt lat="44.91213695218649" lon="11.991284104960965"><ele>-6.0</ele><time>2026-04-18T14:41:01Z</time></trkpt><trkpt lat="44.912215417830296" lon="11.991289305652945"><ele>-5.999999999999999</ele><time>2026-04-18T14:41:02Z</time></trkpt><trkpt lat="44.912289651531445" lon="11.991292355514549"><ele>-6.0</ele><time>2026-04-18T14:41:03Z</time></trkpt><trkpt lat="44.91236631734213" lon="11.991296701910022"><ele>-6.0</ele><time>2026-04-18T14:41:04Z</time></trkpt><trkpt lat="44.91243992404541" lon="11.991300558249607"><ele>-6.0</ele><time>2026-04-18T14:41:05Z</time></trkpt><trkpt lat="44.9125154738656" lon="11.991307143569289"><ele>-6.0</ele><time>2026-04-18T14:41:06Z</time></trkpt><trkpt lat="44.91258718885474" lon="11.991310299370854"><ele>-5.999999999999999</ele><time>2026-04-18T14:41:07Z</time></trkpt><trkpt lat="44.9126644153868" lon="11.991314132746115"><ele>-6.0</ele><time>2026-04-18T14:41:08Z</time></trkpt><trkpt lat="44.91273989304072" lon="11.99131776901156"><ele>-5.833333333333333</ele><time>2026-04-18T14:41:09Z</time></trkpt><trkpt lat="44.912816431805815" lon="11.991323772989512"><ele>-5.666666666666667</ele><time>2026-04-18T14:41:10Z</time></trkpt><trkpt lat="44.91289404942748" lon="11.991325830721962"><ele>-5.5</ele><time>2026-04-18T14:41:11Z</time></trkpt><trkpt lat="44.912970702206714" lon="11.99133099703162"><ele>-5.333333333333334</ele><time>2026-04-18T14:41:12Z</time></trkpt><trkpt lat="44.9130476613877" lon="11.99133339967103"><ele>-5.166666666666667</ele><time>2026-04-18T14:41:13Z</time></trkpt><trkpt lat="44.91312698704795" lon="11.991335343915624"><ele>-5.0</ele><time>2026-04-18T14:41:14Z</time></trkpt><trkpt lat="44.91320108742688" lon="11.991335836252183"><ele>-5.0</ele><time>2026-04-18T14:41:15Z</time></trkpt><trkpt lat="44.913275178299955" lon="11.99133684846051"><ele>-5.0</ele><time>2026-04-18T14:41:16Z</time></trkpt><trkpt lat="44.913346659937176" lon="11.99133493486693"><ele>-5.0</ele><time>2026-04-18T14:41:17Z</time></trkpt><trkpt lat="44.913419772916285" lon="11.991331656356222"><ele>-5.0</ele><time>2026-04-18T14:41:18Z</time></trkpt><trkpt lat="44.913493509743375" lon="11.991327901317225"><ele>-5.0</ele><time>2026-04-18T14:41:19Z</time></trkpt><trkpt lat="44.9135690829126" lon="11.99131707641022"><ele>-5.0</ele><time>2026-04-18T14:41:20Z</time></trkpt><trkpt lat="44.91364268365077" lon="11.991321421754849"><ele>-5.0</ele><time>2026-04-18T14:41:21Z</time></trkpt><trkpt lat="44.91371180613556" lon="11.991329997559381"><ele>-5.0</ele><time>2026-04-18T14:41:22Z</time></trkpt><trkpt lat="44.913776103121016" lon="11.99133919948201"><ele>-5.0</ele><time>2026-04-18T14:41:23Z</time></trkpt><trkpt lat="44.91383958605691" lon="11.991347034688797"><ele>-5.0</ele><time>2026-04-18T14:41:24Z</time></trkpt><trkpt lat="44.913908636698814" lon="11.991347582899957"><ele>-5.0</ele><time>2026-04-18T14:41:25Z</time></trkpt><trkpt lat="44.91397591884659" lon="11.991341613497092"><ele>-5.0</ele><time>2026-04-18T14:41:26Z</time></trkpt><trkpt lat="44.91404885849444" lon="11.991341765708134"><ele>-5.0</ele><time>2026-04-18T14:41:27Z</time></trkpt><trkpt lat="44.91412060880515" lon="11.991342142437878"><ele>-5.0</ele><time>2026-04-18T14:41:28Z</time></trkpt><trkpt lat="44.914191326773015" lon="11.991344788504295"><ele>-4.8</ele><time>2026-04-18T14:41:29Z</time></trkpt><trkpt lat="44.91431780037422" lon="11.99134171477626"><ele>-4.6</ele><time>2026-04-18T14:41:31Z</time></trkpt><trkpt lat="44.914381525688555" lon="11.991337071653552"><ele>-4.4</ele><time>2026-04-18T14:41:32Z</time></trkpt><trkpt lat="44.91449802221834" lon="11.991333932211798"><ele>-4.2</ele><time>2026-04-18T14:41:34Z</time></trkpt><trkpt lat="44.91461823754732" lon="11.991334200042177"><ele>-4.0</ele><time>2026-04-18T14:41:36Z</time></trkpt><trkpt lat="44.91474120890859" lon="11.9913323707986"><ele>-4.0</ele><time>2026-04-18T14:41:38Z</time></trkpt><trkpt lat="44.914805897907264" lon="11.991327333221891"><ele>-3.9999999999999996</ele><time>2026-04-18T14:41:39Z</time></trkpt><trkpt lat="44.91486958264229" lon="11.99133032605428"><ele>-4.0</ele><time>2026-04-18T14:41:40Z</time></trkpt><trkpt lat="44.91493788508452" lon="11.99132025897149"><ele>-4.0</ele><time>2026-04-18T14:41:41Z</time></trkpt><trkpt lat="44.915004362053644" lon="11.991315514832504"><ele>-3.9999999999999996</ele><time>2026-04-18T14:41:42Z</time></trkpt><trkpt lat="44.915076126659905" lon="11.991325265986262"><ele>-4.0</ele><time>2026-04-18T14:41:43Z</time></trkpt><trkpt lat="44.91514808732288" lon="11.991324332992845"><ele>-4.0</ele><time>2026-04-18T14:41:44Z</time></trkpt><trkpt lat="44.91522213952161" lon="11.99132642829036"><ele>-4.166666666666666</ele><time>2026-04-18T14:41:45Z</time></trkpt><trkpt lat="44.91529766575949" lon="11.991321300469854"><ele>-4.333333333333333</ele><time>2026-04-18T14:41:46Z</time></trkpt><trkpt lat="44.91537337797284" lon="11.99131712557332"><ele>-4.5</ele><time>2026-04-18T14:41:47Z</time></trkpt><trkpt lat="44.91545004985745" lon="11.991319113775583"><ele>-4.666666666666667</ele><time>2026-04-18T14:41:48Z</time></trkpt><trkpt lat="44.91552629945681" lon="11.991317097257841"><ele>-4.833333333333334</ele><time>2026-04-18T14:41:49Z</time></trkpt><trkpt lat="44.91560307654445" lon="11.991312475682424"><ele>-5.0</ele><time>2026-04-18T14:41:50Z</time></trkpt><trkpt lat="44.9156783030449" lon="11.991315617306139"><ele>-5.0</ele><time>2026-04-18T14:41:51Z</time></trkpt><trkpt lat="44.91575657148157" lon="11.991319457902957"><ele>-5.0</ele><time>2026-04-18T14:41:52Z</time></trkpt><trkpt lat="44.91583510644145" lon="11.991313605379634"><ele>-5.0</ele><time>2026-04-18T14:41:53Z</time></trkpt><trkpt lat="44.91591267861594" lon="11.99131365466063"><ele>-5.0</ele><time>2026-04-18T14:41:54Z</time></trkpt><trkpt lat="44.91598742872185" lon="11.991315928348694"><ele>-5.0</ele><time>2026-04-18T14:41:55Z</time></trkpt><trkpt lat="44.91606142810466" lon="11.991310065885255"><ele>-5.0</ele><time>2026-04-18T14:41:56Z</time></trkpt><trkpt lat="44.9161389155591" lon="11.991311626368214"><ele>-5.166666666666667</ele><time>2026-04-18T14:41:57Z</time></trkpt><trkpt lat="44.91621487325683" lon="11.991308175905479"><ele>-5.333333333333334</ele><time>2026-04-18T14:41:58Z</time></trkpt><trkpt lat="44.91629443284085" lon="11.991303651133176"><ele>-5.5</ele><time>2026-04-18T14:41:59Z</time></trkpt><trkpt lat="44.916375632451754" lon="11.991302879544865"><ele>-5.666666666666667</ele><time>2026-04-18T14:42:00Z</time></trkpt><trkpt lat="44.91645479538113" lon="11.991301519236186"><ele>-5.833333333333333</ele><time>2026-04-18T14:42:01Z</time></trkpt><trkpt lat="44.91652816678505" lon="11.991306758003569"><ele>-6.0</ele><time>2026-04-18T14:42:02Z</time></trkpt><trkpt lat="44.91660131335647" lon="11.99130835773157"><ele>-6.0</ele><time>2026-04-18T14:42:03Z</time></trkpt><trkpt lat="44.91667815852815" lon="11.99131032316684"><ele>-6.0</ele><time>2026-04-18T14:42:04Z</time></trkpt><trkpt lat="44.91675126104654" lon="11.991309889484354"><ele>-6.0</ele><time>2026-04-18T14:42:05Z</time></trkpt><trkpt lat="44.91682779596911" lon="11.99130804920392"><ele>-6.0</ele><time>2026-04-18T14:42:06Z</time></trkpt><trkpt lat="44.916902429002214" lon="11.99130236446713"><ele>-6.0</ele><time>2026-04-18T14:42:07Z</time></trkpt><trkpt lat="44.91697721882925" lon="11.991298082531893"><ele>-6.0</ele><time>2026-04-18T14:42:08Z</time></trkpt><trkpt lat="44.91705662364342" lon="11.991293491000723"><ele>-6.166666666666667</ele><time>2026-04-18T14:42:09Z</time></trkpt><trkpt lat="44.917135498182176" lon="11.991289807790091"><ele>-6.333333333333334</ele><time>2026-04-18T14:42:10Z</time></trkpt><trkpt lat="44.917213377359815" lon="11.991288855421935"><ele>-6.5</ele><time>2026-04-18T14:42:11Z</time></trkpt><trkpt lat="44.91729211377581" lon="11.991286360164338"><ele>-6.666666666666667</ele><time>2026-04-18T14:42:12Z</time></trkpt><trkpt lat="44.91736918325513" lon="11.991286244783021"><ele>-6.833333333333334</ele><time>2026-04-18T14:42:13Z</time></trkpt><trkpt lat="44.91744447984445" lon="11.991279550195058"><ele>-7.0</ele><time>2026-04-18T14:42:14Z</time></trkpt><trkpt lat="44.917519483700254" lon="11.99127614598155"><ele>-7.166666666666667</ele><time>2026-04-18T14:42:15Z</time></trkpt><trkpt lat="44.9175962307529" lon="11.991278683031997"><ele>-7.333333333333334</ele><time>2026-04-18T14:42:16Z</time></trkpt><trkpt lat="44.917672900399324" lon="11.99127831805557"><ele>-7.5</ele><time>2026-04-18T14:42:17Z</time></trkpt><trkpt lat="44.91774914411418" lon="11.99127019505647"><ele>-7.666666666666666</ele><time>2026-04-18T14:42:18Z</time></trkpt><trkpt lat="44.91782259332654" lon="11.991262528221114"><ele>-7.833333333333333</ele><time>2026-04-18T14:42:19Z</time></trkpt><trkpt lat="44.917905182643416" lon="11.991262961857535"><ele>-8.0</ele><time>2026-04-18T14:42:20Z</time></trkpt><trkpt lat="44.9179828230276" lon="11.99126330277385"><ele>-7.999999999999999</ele><time>2026-04-18T14:42:21Z</time></trkpt><trkpt lat="44.918059315931835" lon="11.991263732412602"><ele>-8.0</ele><time>2026-04-18T14:42:22Z</time></trkpt><trkpt lat="44.918136547303796" lon="11.991264822578534"><ele>-8.0</ele><time>2026-04-18T14:42:23Z</time></trkpt><trkpt lat="44.918210585448826" lon="11.991268420817319"><ele>-8.0</ele><time>2026-04-18T14:42:24Z</time></trkpt><trkpt lat="44.91828284928721" lon="11.991269885894129"><ele>-7.999999999999999</ele><time>2026-04-18T14:42:25Z</time></trkpt><trkpt lat="44.918358670980695" lon="11.991268642662806"><ele>-8.0</ele><time>2026-04-18T14:42:26Z</time></trkpt><trkpt lat="44.91843262631519" lon="11.99126028759201"><ele>-7.666666666666666</ele><time>2026-04-18T14:42:27Z</time></trkpt><trkpt lat="44.91850988040781" lon="11.991258459796544"><ele>-7.333333333333333</ele><time>2026-04-18T14:42:28Z</time></trkpt><trkpt lat="44.91858591065293" lon="11.991260257041557"><ele>-7.0</ele><time>2026-04-18T14:42:29Z</time></trkpt><trkpt lat="44.91866604866549" lon="11.991262319488337"><ele>-6.666666666666666</ele><time>2026-04-18T14:42:30Z</time></trkpt><trkpt lat="44.918743706275514" lon="11.991257959686545"><ele>-6.333333333333333</ele><time>2026-04-18T14:42:31Z</time></trkpt><trkpt lat="44.918819648805666" lon="11.991253090418935"><ele>-6.0</ele><time>2026-04-18T14:42:32Z</time></trkpt><trkpt lat="44.918899849016874" lon="11.991252340088801"><ele>-6.0</ele><time>2026-04-18T14:42:33Z</time></trkpt><trkpt lat="44.91897676826856" lon="11.991256578388729"><ele>-6.0</ele><time>2026-04-18T14:42:34Z</time></trkpt><trkpt lat="44.91905103160253" lon="11.991256600176145"><ele>-6.0</ele><time>2026-04-18T14:42:35Z</time></trkpt><trkpt lat="44.91912691054876" lon="11.991254132280655"><ele>-6.0</ele><time>2026-04-18T14:42:36Z</time></trkpt><trkpt lat="44.9192098509839" lon="11.99125218902126"><ele>-6.0</ele><time>2026-04-18T14:42:37Z</time></trkpt><trkpt lat="44.91928655561034" lon="11.99125147691375"><ele>-6.0</ele><time>2026-04-18T14:42:38Z</time></trkpt><trkpt lat="44.919360539659486" lon="11.991246547432054"><ele>-6.142857142857142</ele><time>2026-04-18T14:42:39Z</time></trkpt><trkpt lat="44.91943420367527" lon="11.99124801166351"><ele>-6.285714285714286</ele><time>2026-04-18T14:42:40Z</time></trkpt><trkpt lat="44.9195068484273" lon="11.991253977326208"><ele>-6.428571428571429</ele><time>2026-04-18T14:42:41Z</time></trkpt><trkpt lat="44.91958503330084" lon="11.9912571960419"><ele>-6.571428571428571</ele><time>2026-04-18T14:42:42Z</time></trkpt><trkpt lat="44.91965787010576" lon="11.991260256369804"><ele>-6.714285714285714</ele><time>2026-04-18T14:42:43Z</time></trkpt><trkpt lat="44.919728013398455" lon="11.991261641814793"><ele>-6.857142857142857</ele><time>2026-04-18T14:42:44Z</time></trkpt><trkpt lat="44.91979274040324" lon="11.991258692489065"><ele>-7.0</ele><time>2026-04-18T14:42:45Z</time></trkpt><trkpt lat="44.91986420255985" lon="11.991256126037277"><ele>-7.000000000000001</ele><time>2026-04-18T14:42:46Z</time></trkpt><trkpt lat="44.91992802792953" lon="11.991256062486366"><ele>-7.0</ele><time>2026-04-18T14:42:47Z</time></trkpt><trkpt lat="44.91999298263542" lon="11.991255272122654"><ele>-7.0</ele><time>2026-04-18T14:42:48Z</time></trkpt><trkpt lat="44.92005605650287" lon="11.991251523877997"><ele>-7.0</ele><time>2026-04-18T14:42:49Z</time></trkpt><trkpt lat="44.92017279415013" lon="11.991251971654703"><ele>-7.000000000000001</ele><time>2026-04-18T14:42:51Z</time></trkpt><trkpt lat="44.9203004375934" lon="11.99124613413747"><ele>-7.0</ele><time>2026-04-18T14:42:53Z</time></trkpt><trkpt lat="44.92036841134409" lon="11.991243213093298"><ele>-6.857142857142857</ele><time>2026-04-18T14:42:54Z</time></trkpt><trkpt lat="44.92043516124296" lon="11.991246961210795"><ele>-6.714285714285714</ele><time>2026-04-18T14:42:55Z</time></trkpt><trkpt lat="44.920502785133586" lon="11.991244040707455"><ele>-6.571428571428571</ele><time>2026-04-18T14:42:56Z</time></trkpt><trkpt lat="44.92056850869259" lon="11.991239936109295"><ele>-6.428571428571429</ele><time>2026-04-18T14:42:57Z</time></trkpt><trkpt lat="44.92063845243649" lon="11.991242125349363"><ele>-6.285714285714286</ele><time>2026-04-18T14:42:58Z</time></trkpt><trkpt lat="44.92070637038491" lon="11.991236440469894"><ele>-6.142857142857142</ele><time>2026-04-18T14:42:59Z</time></trkpt><trkpt lat="44.92077035653171" lon="11.991232993911867"><ele>-6.0</ele><time>2026-04-18T14:43:00Z</time></trkpt><trkpt lat="44.920891860995255" lon="11.991240209617064"><ele>-6.0</ele><time>2026-04-18T14:43:02Z</time></trkpt><trkpt lat="44.92101085182316" lon="11.991240644802"><ele>-6.0</ele><time>2026-04-18T14:43:04Z</time></trkpt><trkpt lat="44.92111959944804" lon="11.991237228693366"><ele>-6.0</ele><time>2026-04-18T14:43:06Z</time></trkpt><trkpt lat="44.92123980769375" lon="11.991233158911221"><ele>-6.0</ele><time>2026-04-18T14:43:08Z</time></trkpt><trkpt lat="44.92130770587123" lon="11.99123080699748"><ele>-6.0</ele><time>2026-04-18T14:43:09Z</time></trkpt><trkpt lat="44.92137701294801" lon="11.991237597832475"><ele>-5.999999999999999</ele><time>2026-04-18T14:43:10Z</time></trkpt><trkpt lat="44.921445744009" lon="11.991236260711066"><ele>-6.0</ele><time>2026-04-18T14:43:11Z</time></trkpt><trkpt lat="44.92151802036364" lon="11.991225816735485"><ele>-6.0</ele><time>2026-04-18T14:43:12Z</time></trkpt><trkpt lat="44.92159179898657" lon="11.99123223391961"><ele>-6.0</ele><time>2026-04-18T14:43:13Z</time></trkpt><trkpt lat="44.92166346303324" lon="11.991240670257662"><ele>-6.0</ele><time>2026-04-18T14:43:14Z</time></trkpt><trkpt lat="44.92173937703075" lon="11.991233323984394"><ele>-5.999999999999999</ele><time>2026-04-18T14:43:15Z</time></trkpt><trkpt lat="44.92180748976619" lon="11.991234618181307"><ele>-6.0</ele><time>2026-04-18T14:43:16Z</time></trkpt><trkpt lat="44.92187634248523" lon="11.991242885048749"><ele>-5.999999999999999</ele><time>2026-04-18T14:43:17Z</time></trkpt><trkpt lat="44.921950477149196" lon="11.991240488973531"><ele>-6.0</ele><time>2026-04-18T14:43:18Z</time></trkpt><trkpt lat="44.9220207440735" lon="11.9912377958274"><ele>-6.0</ele><time>2026-04-18T14:43:19Z</time></trkpt><trkpt lat="44.92209447923106" lon="11.991235285833856"><ele>-6.0</ele><time>2026-04-18T14:43:20Z</time></trkpt><trkpt lat="44.92216756600172" lon="11.99123378078353"><ele>-6.0</ele><time>2026-04-18T14:43:21Z</time></trkpt><trkpt lat="44.92223837531862" lon="11.991233719419862"><ele>-5.999999999999999</ele><time>2026-04-18T14:43:22Z</time></trkpt><trkpt lat="44.92231176511737" lon="11.991230032802434"><ele>-6.0</ele><time>2026-04-18T14:43:23Z</time></trkpt><trkpt lat="44.92238232935721" lon="11.9912273621504"><ele>-6.0</ele><time>2026-04-18T14:43:24Z</time></trkpt><trkpt lat="44.92245150454261" lon="11.99123093807623"><ele>-6.0</ele><time>2026-04-18T14:43:25Z</time></trkpt><trkpt lat="44.92251929610936" lon="11.991230564985024"><ele>-6.0</ele><time>2026-04-18T14:43:26Z</time></trkpt><trkpt lat="44.92258492577671" lon="11.991231115948441"><ele>-6.0</ele><time>2026-04-18T14:43:27Z</time></trkpt><trkpt lat="44.92266019521328" lon="11.99122583539593"><ele>-6.0</ele><time>2026-04-18T14:43:28Z</time></trkpt><trkpt lat="44.92278203170004" lon="11.99122827910171"><ele>-6.0</ele><time>2026-04-18T14:43:30Z</time></trkpt><trkpt lat="44.92290164837316" lon="11.991215531047276"><ele>-6.199999999999999</ele><time>2026-04-18T14:43:32Z</time></trkpt><trkpt lat="44.923018892351294" lon="11.991224308634687"><ele>-6.3999999999999995</ele><time>2026-04-18T14:43:34Z</time></trkpt><trkpt lat="44.92313051294639" lon="11.99121141782914"><ele>-6.6</ele><time>2026-04-18T14:43:36Z</time></trkpt><trkpt lat="44.923237786370585" lon="11.991209108228965"><ele>-6.8</ele><time>2026-04-18T14:43:38Z</time></trkpt><trkpt lat="44.92334230360547" lon="11.991207349541163"><ele>-7.0</ele><time>2026-04-18T14:43:40Z</time></trkpt><trkpt lat="44.92345902739868" lon="11.99120805064683"><ele>-7.0</ele><time>2026-04-18T14:43:42Z</time></trkpt><trkpt lat="44.92358076615184" lon="11.991212784942853"><ele>-6.999999999999999</ele><time>2026-04-18T14:43:44Z</time></trkpt><trkpt lat="44.92370945974234" lon="11.99120298177765"><ele>-6.999999999999999</ele><time>2026-04-18T14:43:46Z</time></trkpt><trkpt lat="44.923777158137064" lon="11.991207964867248"><ele>-7.0</ele><time>2026-04-18T14:43:47Z</time></trkpt><trkpt lat="44.92384363310832" lon="11.9912102777568"><ele>-7.0</ele><time>2026-04-18T14:43:48Z</time></trkpt><trkpt lat="44.92391225897825" lon="11.991210890271491"><ele>-7.0</ele><time>2026-04-18T14:43:49Z</time></trkpt><trkpt lat="44.92398004112999" lon="11.991208998843117"><ele>-7.0</ele><time>2026-04-18T14:43:50Z</time></trkpt><trkpt lat="44.92405259891342" lon="11.991205358927262"><ele>-7.0</ele><time>2026-04-18T14:43:51Z</time></trkpt><trkpt lat="44.924121756677366" lon="11.991210125992458"><ele>-7.0</ele><time>2026-04-18T14:43:52Z</time></trkpt><trkpt lat="44.924192396273526" lon="11.991214185147353"><ele>-7.0</ele><time>2026-04-18T14:43:53Z</time></trkpt><trkpt lat="44.9242594682573" lon="11.991214156283787"><ele>-7.0</ele><time>2026-04-18T14:43:54Z</time></trkpt><trkpt lat="44.92432638469133" lon="11.991206517190841"><ele>-7.0</ele><time>2026-04-18T14:43:55Z</time></trkpt><trkpt lat="44.92443608655144" lon="11.991141689763953"><ele>-7.0</ele><time>2026-04-18T14:43:57Z</time></trkpt><trkpt lat="44.92447709912091" lon="11.99099267481773"><ele>-7.0</ele><time>2026-04-18T14:43:59Z</time></trkpt><trkpt lat="44.92447778524319" lon="11.99081939879055"><ele>-7.0</ele><time>2026-04-18T14:44:01Z</time></trkpt><trkpt lat="44.924471215493824" lon="11.990642838569945"><ele>-7.0</ele><time>2026-04-18T14:44:03Z</time></trkpt><trkpt lat="44.92445178110842" lon="11.990462495620143"><ele>-7.000000000000001</ele><time>2026-04-18T14:44:05Z</time></trkpt><trkpt lat="44.92445738550937" lon="11.990368217366047"><ele>-7.0</ele><time>2026-04-18T14:44:06Z</time></trkpt><trkpt lat="44.92445156080983" lon="11.99026992115799"><ele>-7.0</ele><time>2026-04-18T14:44:07Z</time></trkpt><trkpt lat="44.92444982018556" lon="11.990173280072845"><ele>-7.0</ele><time>2026-04-18T14:44:08Z</time></trkpt><trkpt lat="44.92444580704643" lon="11.990082969700468"><ele>-7.000000000000001</ele><time>2026-04-18T14:44:09Z</time></trkpt><trkpt lat="44.92444595038279" lon="11.989991219657966"><ele>-7.0</ele><time>2026-04-18T14:44:10Z</time></trkpt><trkpt lat="44.924439332040045" lon="11.989820455247637"><ele>-7.0</ele><time>2026-04-18T14:44:12Z</time></trkpt><trkpt lat="44.92443671904318" lon="11.989725377552377"><ele>-6.999999999999999</ele><time>2026-04-18T14:44:13Z</time></trkpt><trkpt lat="44.92445127252029" lon="11.989635378708737"><ele>-6.999999999999999</ele><time>2026-04-18T14:44:14Z</time></trkpt><trkpt lat="44.92443443477651" lon="11.989473540551908"><ele>-7.0</ele><time>2026-04-18T14:44:16Z</time></trkpt><trkpt lat="44.924434880987846" lon="11.98931356492867"><ele>-7.0</ele><time>2026-04-18T14:44:18Z</time></trkpt><trkpt lat="44.92444245935415" lon="11.989163479924375"><ele>-6.833333333333334</ele><time>2026-04-18T14:44:20Z</time></trkpt><trkpt lat="44.92442939140127" lon="11.98903203461515"><ele>-6.666666666666667</ele><time>2026-04-18T14:44:22Z</time></trkpt><trkpt lat="44.92445808343252" lon="11.988936566495099"><ele>-6.5</ele><time>2026-04-18T14:44:24Z</time></trkpt><trkpt lat="44.92454540405643" lon="11.988894763207409"><ele>-6.333333333333334</ele><time>2026-04-18T14:44:26Z</time></trkpt><trkpt lat="44.92462903055289" lon="11.988898581327275"><ele>-6.166666666666667</ele><time>2026-04-18T14:44:28Z</time></trkpt><trkpt lat="44.924729210609385" lon="11.988921597408822"><ele>-6.0</ele><time>2026-04-18T14:44:30Z</time></trkpt><trkpt lat="44.92482690282109" lon="11.988895495993003"><ele>-6.0</ele><time>2026-04-18T14:44:32Z</time></trkpt><trkpt lat="44.924922090559605" lon="11.988906827042976"><ele>-6.0</ele><time>2026-04-18T14:44:34Z</time></trkpt><trkpt lat="44.925004541034056" lon="11.988888919046813"><ele>-6.0</ele><time>2026-04-18T14:44:36Z</time></trkpt><trkpt lat="44.92507539671411" lon="11.988894545560491"><ele>-6.0</ele><time>2026-04-18T14:44:38Z</time></trkpt><trkpt lat="44.925012260450245" lon="11.988899228681598"><ele>-6.0</ele><time>2026-04-18T14:44:59.999Z</time></trkpt><trkpt lat="44.92493899856243" lon="11.988904903605738"><ele>-6.0</ele><time>2026-04-18T14:45:05Z</time></trkpt><trkpt lat="44.924856707718476" lon="11.988914264911326"><ele>-6.0</ele><time>2026-04-18T14:45:09Z</time></trkpt><trkpt lat="44.92477578454408" lon="11.988905860958894"><ele>-6.0</ele><time>2026-04-18T14:45:57Z</time></trkpt><trkpt lat="44.92468745466174" lon="11.9889076647848"><ele>-6.0</ele><time>2026-04-18T14:46:01Z</time></trkpt><trkpt lat="44.9246118084157" lon="11.988908992881047"><ele>-6.0</ele><time>2026-04-18T14:46:04Z</time></trkpt><trkpt lat="44.924531790785174" lon="11.988906884066852"><ele>-6.0</ele><time>2026-04-18T14:46:07Z</time></trkpt><trkpt lat="44.92446773665673" lon="11.988941767370335"><ele>-6.0</ele><time>2026-04-18T14:46:09Z</time></trkpt><trkpt lat="44.92443617091448" lon="11.98882676321719"><ele>-6.0</ele><time>2026-04-18T14:46:15Z</time></trkpt><trkpt lat="44.92442496034136" lon="11.988730193674543"><ele>-6.0</ele><time>2026-04-18T14:46:17Z</time></trkpt><trkpt lat="44.92443254298922" lon="11.988633691043225"><ele>-6.0</ele><time>2026-04-18T14:46:19Z</time></trkpt><trkpt lat="44.924420031703484" lon="11.988505887587307"><ele>-6.0</ele><time>2026-04-18T14:46:22Z</time></trkpt><trkpt lat="44.92432987229087" lon="11.988469231767587"><ele>-6.0</ele><time>2026-04-18T14:46:25Z</time></trkpt><trkpt lat="44.924261929894406" lon="11.988471245106503"><ele>-6.0</ele><time>2026-04-18T14:46:27Z</time></trkpt><trkpt lat="44.92418686958037" lon="11.988480696084295"><ele>-6.0</ele><time>2026-04-18T14:46:30Z</time></trkpt></trkseg></trk></gpx>